<?xml version="1.0" encoding="UTF-8"?>
<gpx version="1.1" creator="https://www.youtrack.es" xsi:schemaLocation="http://www.topografix.com/GPX/1/1 http://www.topografix.com/GPX/1/1/gpx.xsd http://www.garmin.com/xmlschemas/GpxExtensions/v3 http://www.garmin.com/xmlschemas/GpxExtensionsv3.xsd http://www.garmin.com/xmlschemas/TrackPointExtension/v1 http://www.garmin.com/xmlschemas/TrackPointExtensionv1.xsd" xmlns:gpxtpx="http://www.garmin.com/xmlschemas/TrackPointExtension/v1" xmlns:gpxx="http://www.garmin.com/xmlschemas/GpxExtensions/v3" xmlns:xsi="http://www.w3.org/2001/XMLSchema-instance">
  <metadata>
    <author>
      <name>jairo beltran</name>
      <email id="jaibega" domain="gmail.com"/>
    </author>
    <link href="https://www.youtrack.es">
      <text>YouTrack.es</text>
    </link>
    <time>2026-05-10T17:14:34Z</time>
  </metadata>
  <trk>
    <src>https://www.youtrack.es</src>
    <link href="https://www.youtrack.es/ruta/1608-bojaca">
      <text>YouTrack.es</text>
    </link>
    <trkseg>
      <trkpt lat="4.5749500" lon="-74.2183880">
        <ele>2558.0</ele>
        <time>2018-08-10T13:36:18Z</time>
      </trkpt>
      <trkpt lat="4.5749770" lon="-74.2184170">
        <ele>2558.0</ele>
        <time>2018-08-10T13:36:19Z</time>
      </trkpt>
      <trkpt lat="4.5750030" lon="-74.2184430">
        <ele>2558.0</ele>
        <time>2018-08-10T13:36:20Z</time>
      </trkpt>
      <trkpt lat="4.5750270" lon="-74.2184620">
        <ele>2558.0</ele>
        <time>2018-08-10T13:36:21Z</time>
      </trkpt>
      <trkpt lat="4.5750650" lon="-74.2184880">
        <ele>2558.0</ele>
        <time>2018-08-10T13:36:23Z</time>
      </trkpt>
      <trkpt lat="4.5751130" lon="-74.2185050">
        <ele>2558.0</ele>
        <time>2018-08-10T13:36:25Z</time>
      </trkpt>
      <trkpt lat="4.5751620" lon="-74.2185280">
        <ele>2558.0</ele>
        <time>2018-08-10T13:36:27Z</time>
      </trkpt>
      <trkpt lat="4.5751930" lon="-74.2185380">
        <ele>2558.0</ele>
        <time>2018-08-10T13:36:28Z</time>
      </trkpt>
      <trkpt lat="4.5752230" lon="-74.2185480">
        <ele>2558.0</ele>
        <time>2018-08-10T13:36:29Z</time>
      </trkpt>
      <trkpt lat="4.5752550" lon="-74.2185630">
        <ele>2558.0</ele>
        <time>2018-08-10T13:36:30Z</time>
      </trkpt>
      <trkpt lat="4.5752820" lon="-74.2185730">
        <ele>2558.0</ele>
        <time>2018-08-10T13:36:31Z</time>
      </trkpt>
      <trkpt lat="4.5753230" lon="-74.2185950">
        <ele>2558.0</ele>
        <time>2018-08-10T13:36:33Z</time>
      </trkpt>
      <trkpt lat="4.5753520" lon="-74.2186070">
        <ele>2557.9</ele>
        <time>2018-08-10T13:36:34Z</time>
      </trkpt>
      <trkpt lat="4.5753780" lon="-74.2186200">
        <ele>2557.7</ele>
        <time>2018-08-10T13:36:35Z</time>
      </trkpt>
      <trkpt lat="4.5754050" lon="-74.2186270">
        <ele>2557.6</ele>
        <time>2018-08-10T13:36:36Z</time>
      </trkpt>
      <trkpt lat="4.5754320" lon="-74.2186350">
        <ele>2557.5</ele>
        <time>2018-08-10T13:36:37Z</time>
      </trkpt>
      <trkpt lat="4.5754600" lon="-74.2186450">
        <ele>2557.5</ele>
        <time>2018-08-10T13:36:38Z</time>
      </trkpt>
      <trkpt lat="4.5755080" lon="-74.2186650">
        <ele>2557.4</ele>
        <time>2018-08-10T13:36:40Z</time>
      </trkpt>
      <trkpt lat="4.5755380" lon="-74.2186850">
        <ele>2557.4</ele>
        <time>2018-08-10T13:36:42Z</time>
      </trkpt>
      <trkpt lat="4.5755320" lon="-74.2187170">
        <ele>2557.3</ele>
        <time>2018-08-10T13:36:44Z</time>
      </trkpt>
      <trkpt lat="4.5755030" lon="-74.2187520">
        <ele>2558.0</ele>
        <time>2018-08-10T13:36:46Z</time>
      </trkpt>
      <trkpt lat="4.5754880" lon="-74.2187830">
        <ele>2558.0</ele>
        <time>2018-08-10T13:36:48Z</time>
      </trkpt>
      <trkpt lat="4.5754650" lon="-74.2188220">
        <ele>2558.0</ele>
        <time>2018-08-10T13:36:50Z</time>
      </trkpt>
      <trkpt lat="4.5754550" lon="-74.2188650">
        <ele>2558.0</ele>
        <time>2018-08-10T13:36:52Z</time>
      </trkpt>
      <trkpt lat="4.5754420" lon="-74.2188980">
        <ele>2558.0</ele>
        <time>2018-08-10T13:36:54Z</time>
      </trkpt>
      <trkpt lat="4.5754350" lon="-74.2189380">
        <ele>2558.0</ele>
        <time>2018-08-10T13:36:56Z</time>
      </trkpt>
      <trkpt lat="4.5754370" lon="-74.2189750">
        <ele>2558.0</ele>
        <time>2018-08-10T13:36:58Z</time>
      </trkpt>
      <trkpt lat="4.5754500" lon="-74.2190020">
        <ele>2558.0</ele>
        <time>2018-08-10T13:37:00Z</time>
      </trkpt>
      <trkpt lat="4.5754530" lon="-74.2190320">
        <ele>2558.0</ele>
        <time>2018-08-10T13:37:02Z</time>
      </trkpt>
      <trkpt lat="4.5754700" lon="-74.2190720">
        <ele>2558.0</ele>
        <time>2018-08-10T13:37:05Z</time>
      </trkpt>
      <trkpt lat="4.5754830" lon="-74.2191130">
        <ele>2558.0</ele>
        <time>2018-08-10T13:37:07Z</time>
      </trkpt>
      <trkpt lat="4.5754970" lon="-74.2191480">
        <ele>2558.0</ele>
        <time>2018-08-10T13:37:09Z</time>
      </trkpt>
      <trkpt lat="4.5755150" lon="-74.2191770">
        <ele>2558.1</ele>
        <time>2018-08-10T13:37:11Z</time>
      </trkpt>
      <trkpt lat="4.5755330" lon="-74.2192220">
        <ele>2558.1</ele>
        <time>2018-08-10T13:37:13Z</time>
      </trkpt>
      <trkpt lat="4.5755430" lon="-74.2192480">
        <ele>2558.1</ele>
        <time>2018-08-10T13:37:14Z</time>
      </trkpt>
      <trkpt lat="4.5755530" lon="-74.2192770">
        <ele>2558.1</ele>
        <time>2018-08-10T13:37:15Z</time>
      </trkpt>
      <trkpt lat="4.5755670" lon="-74.2193050">
        <ele>2558.1</ele>
        <time>2018-08-10T13:37:16Z</time>
      </trkpt>
      <trkpt lat="4.5755970" lon="-74.2193600">
        <ele>2558.1</ele>
        <time>2018-08-10T13:37:18Z</time>
      </trkpt>
      <trkpt lat="4.5756200" lon="-74.2193970">
        <ele>2558.1</ele>
        <time>2018-08-10T13:37:19Z</time>
      </trkpt>
      <trkpt lat="4.5756480" lon="-74.2194280">
        <ele>2558.1</ele>
        <time>2018-08-10T13:37:20Z</time>
      </trkpt>
      <trkpt lat="4.5756700" lon="-74.2194550">
        <ele>2558.2</ele>
        <time>2018-08-10T13:37:21Z</time>
      </trkpt>
      <trkpt lat="4.5756950" lon="-74.2194720">
        <ele>2558.2</ele>
        <time>2018-08-10T13:37:22Z</time>
      </trkpt>
      <trkpt lat="4.5757130" lon="-74.2194920">
        <ele>2558.2</ele>
        <time>2018-08-10T13:37:23Z</time>
      </trkpt>
      <trkpt lat="4.5757420" lon="-74.2195100">
        <ele>2558.2</ele>
        <time>2018-08-10T13:37:24Z</time>
      </trkpt>
      <trkpt lat="4.5757650" lon="-74.2195370">
        <ele>2558.2</ele>
        <time>2018-08-10T13:37:25Z</time>
      </trkpt>
      <trkpt lat="4.5757880" lon="-74.2195730">
        <ele>2558.2</ele>
        <time>2018-08-10T13:37:26Z</time>
      </trkpt>
      <trkpt lat="4.5758170" lon="-74.2196130">
        <ele>2558.2</ele>
        <time>2018-08-10T13:37:27Z</time>
      </trkpt>
      <trkpt lat="4.5758330" lon="-74.2196450">
        <ele>2558.2</ele>
        <time>2018-08-10T13:37:28Z</time>
      </trkpt>
      <trkpt lat="4.5758470" lon="-74.2196730">
        <ele>2558.3</ele>
        <time>2018-08-10T13:37:29Z</time>
      </trkpt>
      <trkpt lat="4.5758530" lon="-74.2197080">
        <ele>2558.3</ele>
        <time>2018-08-10T13:37:30Z</time>
      </trkpt>
      <trkpt lat="4.5758720" lon="-74.2197550">
        <ele>2558.3</ele>
        <time>2018-08-10T13:37:31Z</time>
      </trkpt>
      <trkpt lat="4.5758850" lon="-74.2197900">
        <ele>2558.3</ele>
        <time>2018-08-10T13:37:32Z</time>
      </trkpt>
      <trkpt lat="4.5758970" lon="-74.2198250">
        <ele>2558.3</ele>
        <time>2018-08-10T13:37:33Z</time>
      </trkpt>
      <trkpt lat="4.5759080" lon="-74.2198650">
        <ele>2558.3</ele>
        <time>2018-08-10T13:37:34Z</time>
      </trkpt>
      <trkpt lat="4.5759200" lon="-74.2199000">
        <ele>2558.3</ele>
        <time>2018-08-10T13:37:35Z</time>
      </trkpt>
      <trkpt lat="4.5759220" lon="-74.2199320">
        <ele>2558.4</ele>
        <time>2018-08-10T13:37:36Z</time>
      </trkpt>
      <trkpt lat="4.5759470" lon="-74.2199780">
        <ele>2558.4</ele>
        <time>2018-08-10T13:37:38Z</time>
      </trkpt>
      <trkpt lat="4.5759680" lon="-74.2200200">
        <ele>2558.5</ele>
        <time>2018-08-10T13:37:39Z</time>
      </trkpt>
      <trkpt lat="4.5759930" lon="-74.2200500">
        <ele>2558.5</ele>
        <time>2018-08-10T13:37:40Z</time>
      </trkpt>
      <trkpt lat="4.5760170" lon="-74.2200800">
        <ele>2558.6</ele>
        <time>2018-08-10T13:37:41Z</time>
      </trkpt>
      <trkpt lat="4.5760400" lon="-74.2201030">
        <ele>2558.7</ele>
        <time>2018-08-10T13:37:42Z</time>
      </trkpt>
      <trkpt lat="4.5760580" lon="-74.2201270">
        <ele>2558.8</ele>
        <time>2018-08-10T13:37:43Z</time>
      </trkpt>
      <trkpt lat="4.5760930" lon="-74.2201830">
        <ele>2559.1</ele>
        <time>2018-08-10T13:37:44Z</time>
      </trkpt>
      <trkpt lat="4.5761280" lon="-74.2202380">
        <ele>2559.4</ele>
        <time>2018-08-10T13:37:45Z</time>
      </trkpt>
      <trkpt lat="4.5761480" lon="-74.2202730">
        <ele>2559.5</ele>
        <time>2018-08-10T13:37:46Z</time>
      </trkpt>
      <trkpt lat="4.5761650" lon="-74.2203070">
        <ele>2559.7</ele>
        <time>2018-08-10T13:37:47Z</time>
      </trkpt>
      <trkpt lat="4.5761880" lon="-74.2203330">
        <ele>2559.9</ele>
        <time>2018-08-10T13:37:48Z</time>
      </trkpt>
      <trkpt lat="4.5762100" lon="-74.2203580">
        <ele>2560.0</ele>
        <time>2018-08-10T13:37:49Z</time>
      </trkpt>
      <trkpt lat="4.5762270" lon="-74.2203800">
        <ele>2560.1</ele>
        <time>2018-08-10T13:37:50Z</time>
      </trkpt>
      <trkpt lat="4.5762820" lon="-74.2204250">
        <ele>2560.3</ele>
        <time>2018-08-10T13:37:52Z</time>
      </trkpt>
      <trkpt lat="4.5763070" lon="-74.2204580">
        <ele>2560.4</ele>
        <time>2018-08-10T13:37:53Z</time>
      </trkpt>
      <trkpt lat="4.5763280" lon="-74.2204820">
        <ele>2560.4</ele>
        <time>2018-08-10T13:37:54Z</time>
      </trkpt>
      <trkpt lat="4.5763570" lon="-74.2205080">
        <ele>2560.5</ele>
        <time>2018-08-10T13:37:55Z</time>
      </trkpt>
      <trkpt lat="4.5764030" lon="-74.2205430">
        <ele>2560.5</ele>
        <time>2018-08-10T13:37:56Z</time>
      </trkpt>
      <trkpt lat="4.5764300" lon="-74.2205730">
        <ele>2560.6</ele>
        <time>2018-08-10T13:37:57Z</time>
      </trkpt>
      <trkpt lat="4.5764630" lon="-74.2206200">
        <ele>2560.6</ele>
        <time>2018-08-10T13:37:58Z</time>
      </trkpt>
      <trkpt lat="4.5764870" lon="-74.2206480">
        <ele>2560.6</ele>
        <time>2018-08-10T13:37:59Z</time>
      </trkpt>
      <trkpt lat="4.5765120" lon="-74.2206770">
        <ele>2560.6</ele>
        <time>2018-08-10T13:38:00Z</time>
      </trkpt>
      <trkpt lat="4.5765370" lon="-74.2207030">
        <ele>2560.6</ele>
        <time>2018-08-10T13:38:01Z</time>
      </trkpt>
      <trkpt lat="4.5765650" lon="-74.2207150">
        <ele>2560.6</ele>
        <time>2018-08-10T13:38:02Z</time>
      </trkpt>
      <trkpt lat="4.5766130" lon="-74.2207170">
        <ele>2560.7</ele>
        <time>2018-08-10T13:38:03Z</time>
      </trkpt>
      <trkpt lat="4.5766500" lon="-74.2207270">
        <ele>2560.7</ele>
        <time>2018-08-10T13:38:04Z</time>
      </trkpt>
      <trkpt lat="4.5766950" lon="-74.2207450">
        <ele>2560.7</ele>
        <time>2018-08-10T13:38:05Z</time>
      </trkpt>
      <trkpt lat="4.5767270" lon="-74.2207650">
        <ele>2560.7</ele>
        <time>2018-08-10T13:38:06Z</time>
      </trkpt>
      <trkpt lat="4.5767650" lon="-74.2208030">
        <ele>2560.7</ele>
        <time>2018-08-10T13:38:07Z</time>
      </trkpt>
      <trkpt lat="4.5768000" lon="-74.2208320">
        <ele>2560.7</ele>
        <time>2018-08-10T13:38:08Z</time>
      </trkpt>
      <trkpt lat="4.5768320" lon="-74.2208480">
        <ele>2560.7</ele>
        <time>2018-08-10T13:38:09Z</time>
      </trkpt>
      <trkpt lat="4.5768730" lon="-74.2208620">
        <ele>2560.8</ele>
        <time>2018-08-10T13:38:10Z</time>
      </trkpt>
      <trkpt lat="4.5769120" lon="-74.2208730">
        <ele>2560.8</ele>
        <time>2018-08-10T13:38:11Z</time>
      </trkpt>
      <trkpt lat="4.5769450" lon="-74.2208850">
        <ele>2560.8</ele>
        <time>2018-08-10T13:38:12Z</time>
      </trkpt>
      <trkpt lat="4.5769820" lon="-74.2208970">
        <ele>2560.8</ele>
        <time>2018-08-10T13:38:13Z</time>
      </trkpt>
      <trkpt lat="4.5770200" lon="-74.2209050">
        <ele>2560.8</ele>
        <time>2018-08-10T13:38:14Z</time>
      </trkpt>
      <trkpt lat="4.5770580" lon="-74.2209170">
        <ele>2560.8</ele>
        <time>2018-08-10T13:38:15Z</time>
      </trkpt>
      <trkpt lat="4.5771020" lon="-74.2209250">
        <ele>2560.8</ele>
        <time>2018-08-10T13:38:16Z</time>
      </trkpt>
      <trkpt lat="4.5771300" lon="-74.2209320">
        <ele>2560.8</ele>
        <time>2018-08-10T13:38:17Z</time>
      </trkpt>
      <trkpt lat="4.5771580" lon="-74.2209380">
        <ele>2560.8</ele>
        <time>2018-08-10T13:38:18Z</time>
      </trkpt>
      <trkpt lat="4.5772030" lon="-74.2209480">
        <ele>2560.9</ele>
        <time>2018-08-10T13:38:20Z</time>
      </trkpt>
      <trkpt lat="4.5772300" lon="-74.2209530">
        <ele>2560.9</ele>
        <time>2018-08-10T13:38:22Z</time>
      </trkpt>
      <trkpt lat="4.5772520" lon="-74.2209780">
        <ele>2560.9</ele>
        <time>2018-08-10T13:38:25Z</time>
      </trkpt>
      <trkpt lat="4.5772570" lon="-74.2210080">
        <ele>2560.9</ele>
        <time>2018-08-10T13:38:39Z</time>
      </trkpt>
      <trkpt lat="4.5772530" lon="-74.2210380">
        <ele>2560.9</ele>
        <time>2018-08-10T13:38:42Z</time>
      </trkpt>
      <trkpt lat="4.5772730" lon="-74.2210720">
        <ele>2560.9</ele>
        <time>2018-08-10T13:38:44Z</time>
      </trkpt>
      <trkpt lat="4.5773080" lon="-74.2210850">
        <ele>2560.9</ele>
        <time>2018-08-10T13:38:46Z</time>
      </trkpt>
      <trkpt lat="4.5773350" lon="-74.2210950">
        <ele>2560.9</ele>
        <time>2018-08-10T13:38:48Z</time>
      </trkpt>
      <trkpt lat="4.5773670" lon="-74.2211080">
        <ele>2561.0</ele>
        <time>2018-08-10T13:38:54Z</time>
      </trkpt>
      <trkpt lat="4.5774200" lon="-74.2211430">
        <ele>2561.0</ele>
        <time>2018-08-10T13:39:01Z</time>
      </trkpt>
      <trkpt lat="4.5774570" lon="-74.2211770">
        <ele>2561.0</ele>
        <time>2018-08-10T13:39:03Z</time>
      </trkpt>
      <trkpt lat="4.5774750" lon="-74.2212000">
        <ele>2561.0</ele>
        <time>2018-08-10T13:39:04Z</time>
      </trkpt>
      <trkpt lat="4.5774800" lon="-74.2212320">
        <ele>2561.0</ele>
        <time>2018-08-10T13:39:05Z</time>
      </trkpt>
      <trkpt lat="4.5774780" lon="-74.2212620">
        <ele>2561.0</ele>
        <time>2018-08-10T13:39:06Z</time>
      </trkpt>
      <trkpt lat="4.5774650" lon="-74.2212920">
        <ele>2561.0</ele>
        <time>2018-08-10T13:39:07Z</time>
      </trkpt>
      <trkpt lat="4.5774580" lon="-74.2213200">
        <ele>2561.0</ele>
        <time>2018-08-10T13:39:08Z</time>
      </trkpt>
      <trkpt lat="4.5774470" lon="-74.2213520">
        <ele>2561.0</ele>
        <time>2018-08-10T13:39:09Z</time>
      </trkpt>
      <trkpt lat="4.5774350" lon="-74.2213880">
        <ele>2561.0</ele>
        <time>2018-08-10T13:39:10Z</time>
      </trkpt>
      <trkpt lat="4.5774200" lon="-74.2214250">
        <ele>2561.0</ele>
        <time>2018-08-10T13:39:11Z</time>
      </trkpt>
      <trkpt lat="4.5774070" lon="-74.2214600">
        <ele>2561.0</ele>
        <time>2018-08-10T13:39:12Z</time>
      </trkpt>
      <trkpt lat="4.5773950" lon="-74.2214870">
        <ele>2561.0</ele>
        <time>2018-08-10T13:39:13Z</time>
      </trkpt>
      <trkpt lat="4.5773770" lon="-74.2215400">
        <ele>2561.1</ele>
        <time>2018-08-10T13:39:15Z</time>
      </trkpt>
      <trkpt lat="4.5773600" lon="-74.2215730">
        <ele>2561.1</ele>
        <time>2018-08-10T13:39:16Z</time>
      </trkpt>
      <trkpt lat="4.5773420" lon="-74.2216050">
        <ele>2561.2</ele>
        <time>2018-08-10T13:39:17Z</time>
      </trkpt>
      <trkpt lat="4.5773200" lon="-74.2216370">
        <ele>2561.2</ele>
        <time>2018-08-10T13:39:18Z</time>
      </trkpt>
      <trkpt lat="4.5773000" lon="-74.2216720">
        <ele>2561.3</ele>
        <time>2018-08-10T13:39:19Z</time>
      </trkpt>
      <trkpt lat="4.5772850" lon="-74.2217080">
        <ele>2561.3</ele>
        <time>2018-08-10T13:39:20Z</time>
      </trkpt>
      <trkpt lat="4.5772680" lon="-74.2217430">
        <ele>2561.3</ele>
        <time>2018-08-10T13:39:21Z</time>
      </trkpt>
      <trkpt lat="4.5772500" lon="-74.2217750">
        <ele>2561.4</ele>
        <time>2018-08-10T13:39:22Z</time>
      </trkpt>
      <trkpt lat="4.5772300" lon="-74.2218050">
        <ele>2561.4</ele>
        <time>2018-08-10T13:39:23Z</time>
      </trkpt>
      <trkpt lat="4.5772100" lon="-74.2218370">
        <ele>2561.5</ele>
        <time>2018-08-10T13:39:24Z</time>
      </trkpt>
      <trkpt lat="4.5771870" lon="-74.2218730">
        <ele>2561.5</ele>
        <time>2018-08-10T13:39:25Z</time>
      </trkpt>
      <trkpt lat="4.5771670" lon="-74.2219100">
        <ele>2561.6</ele>
        <time>2018-08-10T13:39:26Z</time>
      </trkpt>
      <trkpt lat="4.5771430" lon="-74.2219480">
        <ele>2561.6</ele>
        <time>2018-08-10T13:39:27Z</time>
      </trkpt>
      <trkpt lat="4.5771220" lon="-74.2219920">
        <ele>2561.7</ele>
        <time>2018-08-10T13:39:28Z</time>
      </trkpt>
      <trkpt lat="4.5771000" lon="-74.2220370">
        <ele>2561.7</ele>
        <time>2018-08-10T13:39:29Z</time>
      </trkpt>
      <trkpt lat="4.5770770" lon="-74.2220780">
        <ele>2561.8</ele>
        <time>2018-08-10T13:39:30Z</time>
      </trkpt>
      <trkpt lat="4.5770600" lon="-74.2221480">
        <ele>2561.8</ele>
        <time>2018-08-10T13:39:31Z</time>
      </trkpt>
      <trkpt lat="4.5770320" lon="-74.2221970">
        <ele>2561.9</ele>
        <time>2018-08-10T13:39:32Z</time>
      </trkpt>
      <trkpt lat="4.5770050" lon="-74.2222330">
        <ele>2561.9</ele>
        <time>2018-08-10T13:39:33Z</time>
      </trkpt>
      <trkpt lat="4.5769820" lon="-74.2222770">
        <ele>2562.0</ele>
        <time>2018-08-10T13:39:34Z</time>
      </trkpt>
      <trkpt lat="4.5769580" lon="-74.2223130">
        <ele>2562.0</ele>
        <time>2018-08-10T13:39:35Z</time>
      </trkpt>
      <trkpt lat="4.5769400" lon="-74.2223520">
        <ele>2562.1</ele>
        <time>2018-08-10T13:39:36Z</time>
      </trkpt>
      <trkpt lat="4.5769180" lon="-74.2223900">
        <ele>2562.1</ele>
        <time>2018-08-10T13:39:37Z</time>
      </trkpt>
      <trkpt lat="4.5768970" lon="-74.2224280">
        <ele>2562.2</ele>
        <time>2018-08-10T13:39:38Z</time>
      </trkpt>
      <trkpt lat="4.5768750" lon="-74.2224680">
        <ele>2562.3</ele>
        <time>2018-08-10T13:39:39Z</time>
      </trkpt>
      <trkpt lat="4.5768620" lon="-74.2224950">
        <ele>2562.4</ele>
        <time>2018-08-10T13:39:40Z</time>
      </trkpt>
      <trkpt lat="4.5768370" lon="-74.2225400">
        <ele>2562.5</ele>
        <time>2018-08-10T13:39:42Z</time>
      </trkpt>
      <trkpt lat="4.5768220" lon="-74.2225670">
        <ele>2562.6</ele>
        <time>2018-08-10T13:39:43Z</time>
      </trkpt>
      <trkpt lat="4.5768080" lon="-74.2225970">
        <ele>2562.6</ele>
        <time>2018-08-10T13:39:44Z</time>
      </trkpt>
      <trkpt lat="4.5767950" lon="-74.2226280">
        <ele>2562.7</ele>
        <time>2018-08-10T13:39:45Z</time>
      </trkpt>
      <trkpt lat="4.5767750" lon="-74.2226580">
        <ele>2562.7</ele>
        <time>2018-08-10T13:39:46Z</time>
      </trkpt>
      <trkpt lat="4.5767550" lon="-74.2226900">
        <ele>2562.8</ele>
        <time>2018-08-10T13:39:47Z</time>
      </trkpt>
      <trkpt lat="4.5767370" lon="-74.2227220">
        <ele>2562.9</ele>
        <time>2018-08-10T13:39:48Z</time>
      </trkpt>
      <trkpt lat="4.5767180" lon="-74.2227530">
        <ele>2562.9</ele>
        <time>2018-08-10T13:39:49Z</time>
      </trkpt>
      <trkpt lat="4.5766970" lon="-74.2227830">
        <ele>2563.0</ele>
        <time>2018-08-10T13:39:50Z</time>
      </trkpt>
      <trkpt lat="4.5766780" lon="-74.2228150">
        <ele>2563.1</ele>
        <time>2018-08-10T13:39:51Z</time>
      </trkpt>
      <trkpt lat="4.5766580" lon="-74.2228430">
        <ele>2563.1</ele>
        <time>2018-08-10T13:39:52Z</time>
      </trkpt>
      <trkpt lat="4.5766420" lon="-74.2228700">
        <ele>2563.2</ele>
        <time>2018-08-10T13:39:53Z</time>
      </trkpt>
      <trkpt lat="4.5766230" lon="-74.2228970">
        <ele>2563.2</ele>
        <time>2018-08-10T13:39:54Z</time>
      </trkpt>
      <trkpt lat="4.5766070" lon="-74.2229200">
        <ele>2563.3</ele>
        <time>2018-08-10T13:39:55Z</time>
      </trkpt>
      <trkpt lat="4.5765880" lon="-74.2229620">
        <ele>2563.4</ele>
        <time>2018-08-10T13:39:57Z</time>
      </trkpt>
      <trkpt lat="4.5765950" lon="-74.2230030">
        <ele>2563.5</ele>
        <time>2018-08-10T13:39:59Z</time>
      </trkpt>
      <trkpt lat="4.5766100" lon="-74.2230280">
        <ele>2563.5</ele>
        <time>2018-08-10T13:40:00Z</time>
      </trkpt>
      <trkpt lat="4.5766280" lon="-74.2230520">
        <ele>2563.6</ele>
        <time>2018-08-10T13:40:01Z</time>
      </trkpt>
      <trkpt lat="4.5766480" lon="-74.2230770">
        <ele>2560.6</ele>
        <time>2018-08-10T13:40:02Z</time>
      </trkpt>
      <trkpt lat="4.5766750" lon="-74.2230920">
        <ele>2560.2</ele>
        <time>2018-08-10T13:40:03Z</time>
      </trkpt>
      <trkpt lat="4.5767120" lon="-74.2230980">
        <ele>2560.0</ele>
        <time>2018-08-10T13:40:04Z</time>
      </trkpt>
      <trkpt lat="4.5767480" lon="-74.2230930">
        <ele>2560.0</ele>
        <time>2018-08-10T13:40:05Z</time>
      </trkpt>
      <trkpt lat="4.5767900" lon="-74.2230880">
        <ele>2560.0</ele>
        <time>2018-08-10T13:40:06Z</time>
      </trkpt>
      <trkpt lat="4.5768280" lon="-74.2230800">
        <ele>2560.0</ele>
        <time>2018-08-10T13:40:07Z</time>
      </trkpt>
      <trkpt lat="4.5768620" lon="-74.2230650">
        <ele>2560.0</ele>
        <time>2018-08-10T13:40:08Z</time>
      </trkpt>
      <trkpt lat="4.5768980" lon="-74.2230450">
        <ele>2559.9</ele>
        <time>2018-08-10T13:40:09Z</time>
      </trkpt>
      <trkpt lat="4.5769320" lon="-74.2230230">
        <ele>2559.9</ele>
        <time>2018-08-10T13:40:10Z</time>
      </trkpt>
      <trkpt lat="4.5769630" lon="-74.2229980">
        <ele>2559.9</ele>
        <time>2018-08-10T13:40:11Z</time>
      </trkpt>
      <trkpt lat="4.5769980" lon="-74.2229750">
        <ele>2559.8</ele>
        <time>2018-08-10T13:40:12Z</time>
      </trkpt>
      <trkpt lat="4.5770370" lon="-74.2229530">
        <ele>2559.8</ele>
        <time>2018-08-10T13:40:13Z</time>
      </trkpt>
      <trkpt lat="4.5770720" lon="-74.2229320">
        <ele>2559.8</ele>
        <time>2018-08-10T13:40:14Z</time>
      </trkpt>
      <trkpt lat="4.5771080" lon="-74.2229100">
        <ele>2559.8</ele>
        <time>2018-08-10T13:40:15Z</time>
      </trkpt>
      <trkpt lat="4.5771500" lon="-74.2228930">
        <ele>2559.8</ele>
        <time>2018-08-10T13:40:16Z</time>
      </trkpt>
      <trkpt lat="4.5771920" lon="-74.2228780">
        <ele>2559.8</ele>
        <time>2018-08-10T13:40:17Z</time>
      </trkpt>
      <trkpt lat="4.5772330" lon="-74.2228580">
        <ele>2559.8</ele>
        <time>2018-08-10T13:40:18Z</time>
      </trkpt>
      <trkpt lat="4.5772700" lon="-74.2228350">
        <ele>2559.8</ele>
        <time>2018-08-10T13:40:19Z</time>
      </trkpt>
      <trkpt lat="4.5773070" lon="-74.2228080">
        <ele>2559.9</ele>
        <time>2018-08-10T13:40:20Z</time>
      </trkpt>
      <trkpt lat="4.5773470" lon="-74.2227780">
        <ele>2559.9</ele>
        <time>2018-08-10T13:40:21Z</time>
      </trkpt>
      <trkpt lat="4.5773850" lon="-74.2227500">
        <ele>2560.0</ele>
        <time>2018-08-10T13:40:22Z</time>
      </trkpt>
      <trkpt lat="4.5774280" lon="-74.2227250">
        <ele>2559.9</ele>
        <time>2018-08-10T13:40:23Z</time>
      </trkpt>
      <trkpt lat="4.5774680" lon="-74.2227030">
        <ele>2559.8</ele>
        <time>2018-08-10T13:40:24Z</time>
      </trkpt>
      <trkpt lat="4.5775100" lon="-74.2226880">
        <ele>2559.7</ele>
        <time>2018-08-10T13:40:25Z</time>
      </trkpt>
      <trkpt lat="4.5775530" lon="-74.2226730">
        <ele>2559.6</ele>
        <time>2018-08-10T13:40:26Z</time>
      </trkpt>
      <trkpt lat="4.5775930" lon="-74.2226570">
        <ele>2559.4</ele>
        <time>2018-08-10T13:40:27Z</time>
      </trkpt>
      <trkpt lat="4.5776370" lon="-74.2226430">
        <ele>2559.2</ele>
        <time>2018-08-10T13:40:28Z</time>
      </trkpt>
      <trkpt lat="4.5776800" lon="-74.2226250">
        <ele>2559.0</ele>
        <time>2018-08-10T13:40:29Z</time>
      </trkpt>
      <trkpt lat="4.5777220" lon="-74.2226050">
        <ele>2558.9</ele>
        <time>2018-08-10T13:40:30Z</time>
      </trkpt>
      <trkpt lat="4.5777650" lon="-74.2225870">
        <ele>2558.7</ele>
        <time>2018-08-10T13:40:31Z</time>
      </trkpt>
      <trkpt lat="4.5778080" lon="-74.2225680">
        <ele>2558.6</ele>
        <time>2018-08-10T13:40:32Z</time>
      </trkpt>
      <trkpt lat="4.5778550" lon="-74.2225530">
        <ele>2558.4</ele>
        <time>2018-08-10T13:40:33Z</time>
      </trkpt>
      <trkpt lat="4.5779020" lon="-74.2225400">
        <ele>2558.4</ele>
        <time>2018-08-10T13:40:34Z</time>
      </trkpt>
      <trkpt lat="4.5779470" lon="-74.2225230">
        <ele>2558.3</ele>
        <time>2018-08-10T13:40:35Z</time>
      </trkpt>
      <trkpt lat="4.5779920" lon="-74.2225050">
        <ele>2558.3</ele>
        <time>2018-08-10T13:40:36Z</time>
      </trkpt>
      <trkpt lat="4.5780380" lon="-74.2224870">
        <ele>2558.3</ele>
        <time>2018-08-10T13:40:37Z</time>
      </trkpt>
      <trkpt lat="4.5780820" lon="-74.2224700">
        <ele>2558.3</ele>
        <time>2018-08-10T13:40:38Z</time>
      </trkpt>
      <trkpt lat="4.5781270" lon="-74.2224550">
        <ele>2558.3</ele>
        <time>2018-08-10T13:40:39Z</time>
      </trkpt>
      <trkpt lat="4.5781720" lon="-74.2224380">
        <ele>2558.3</ele>
        <time>2018-08-10T13:40:40Z</time>
      </trkpt>
      <trkpt lat="4.5782150" lon="-74.2224200">
        <ele>2558.3</ele>
        <time>2018-08-10T13:40:41Z</time>
      </trkpt>
      <trkpt lat="4.5782620" lon="-74.2224030">
        <ele>2558.4</ele>
        <time>2018-08-10T13:40:42Z</time>
      </trkpt>
      <trkpt lat="4.5783080" lon="-74.2223830">
        <ele>2558.4</ele>
        <time>2018-08-10T13:40:43Z</time>
      </trkpt>
      <trkpt lat="4.5783570" lon="-74.2223650">
        <ele>2558.4</ele>
        <time>2018-08-10T13:40:44Z</time>
      </trkpt>
      <trkpt lat="4.5784050" lon="-74.2223470">
        <ele>2558.4</ele>
        <time>2018-08-10T13:40:45Z</time>
      </trkpt>
      <trkpt lat="4.5784520" lon="-74.2223280">
        <ele>2558.4</ele>
        <time>2018-08-10T13:40:46Z</time>
      </trkpt>
      <trkpt lat="4.5785000" lon="-74.2223100">
        <ele>2558.5</ele>
        <time>2018-08-10T13:40:47Z</time>
      </trkpt>
      <trkpt lat="4.5785470" lon="-74.2222920">
        <ele>2558.5</ele>
        <time>2018-08-10T13:40:48Z</time>
      </trkpt>
      <trkpt lat="4.5785930" lon="-74.2222750">
        <ele>2558.5</ele>
        <time>2018-08-10T13:40:49Z</time>
      </trkpt>
      <trkpt lat="4.5786400" lon="-74.2222570">
        <ele>2558.5</ele>
        <time>2018-08-10T13:40:50Z</time>
      </trkpt>
      <trkpt lat="4.5786870" lon="-74.2222370">
        <ele>2558.5</ele>
        <time>2018-08-10T13:40:51Z</time>
      </trkpt>
      <trkpt lat="4.5787330" lon="-74.2222230">
        <ele>2558.6</ele>
        <time>2018-08-10T13:40:52Z</time>
      </trkpt>
      <trkpt lat="4.5787780" lon="-74.2222100">
        <ele>2558.6</ele>
        <time>2018-08-10T13:40:53Z</time>
      </trkpt>
      <trkpt lat="4.5788250" lon="-74.2221950">
        <ele>2558.6</ele>
        <time>2018-08-10T13:40:54Z</time>
      </trkpt>
      <trkpt lat="4.5788720" lon="-74.2221780">
        <ele>2558.6</ele>
        <time>2018-08-10T13:40:55Z</time>
      </trkpt>
      <trkpt lat="4.5789180" lon="-74.2221600">
        <ele>2558.6</ele>
        <time>2018-08-10T13:40:56Z</time>
      </trkpt>
      <trkpt lat="4.5789630" lon="-74.2221430">
        <ele>2558.7</ele>
        <time>2018-08-10T13:40:57Z</time>
      </trkpt>
      <trkpt lat="4.5790070" lon="-74.2221250">
        <ele>2558.7</ele>
        <time>2018-08-10T13:40:58Z</time>
      </trkpt>
      <trkpt lat="4.5790530" lon="-74.2221120">
        <ele>2558.7</ele>
        <time>2018-08-10T13:40:59Z</time>
      </trkpt>
      <trkpt lat="4.5790980" lon="-74.2220950">
        <ele>2558.7</ele>
        <time>2018-08-10T13:41:00Z</time>
      </trkpt>
      <trkpt lat="4.5791430" lon="-74.2220820">
        <ele>2558.7</ele>
        <time>2018-08-10T13:41:01Z</time>
      </trkpt>
      <trkpt lat="4.5791870" lon="-74.2220650">
        <ele>2558.7</ele>
        <time>2018-08-10T13:41:02Z</time>
      </trkpt>
      <trkpt lat="4.5792300" lon="-74.2220430">
        <ele>2558.8</ele>
        <time>2018-08-10T13:41:03Z</time>
      </trkpt>
      <trkpt lat="4.5792770" lon="-74.2220200">
        <ele>2558.8</ele>
        <time>2018-08-10T13:41:04Z</time>
      </trkpt>
      <trkpt lat="4.5793230" lon="-74.2220000">
        <ele>2558.8</ele>
        <time>2018-08-10T13:41:05Z</time>
      </trkpt>
      <trkpt lat="4.5793680" lon="-74.2219780">
        <ele>2558.8</ele>
        <time>2018-08-10T13:41:06Z</time>
      </trkpt>
      <trkpt lat="4.5794150" lon="-74.2219600">
        <ele>2558.9</ele>
        <time>2018-08-10T13:41:07Z</time>
      </trkpt>
      <trkpt lat="4.5794580" lon="-74.2219450">
        <ele>2558.9</ele>
        <time>2018-08-10T13:41:08Z</time>
      </trkpt>
      <trkpt lat="4.5794930" lon="-74.2219320">
        <ele>2558.9</ele>
        <time>2018-08-10T13:41:09Z</time>
      </trkpt>
      <trkpt lat="4.5795250" lon="-74.2219200">
        <ele>2558.9</ele>
        <time>2018-08-10T13:41:10Z</time>
      </trkpt>
      <trkpt lat="4.5795550" lon="-74.2219100">
        <ele>2559.0</ele>
        <time>2018-08-10T13:41:11Z</time>
      </trkpt>
      <trkpt lat="4.5795830" lon="-74.2219030">
        <ele>2559.0</ele>
        <time>2018-08-10T13:41:12Z</time>
      </trkpt>
      <trkpt lat="4.5796130" lon="-74.2218880">
        <ele>2558.9</ele>
        <time>2018-08-10T13:41:13Z</time>
      </trkpt>
      <trkpt lat="4.5796480" lon="-74.2218730">
        <ele>2558.8</ele>
        <time>2018-08-10T13:41:14Z</time>
      </trkpt>
      <trkpt lat="4.5796880" lon="-74.2218620">
        <ele>2558.7</ele>
        <time>2018-08-10T13:41:15Z</time>
      </trkpt>
      <trkpt lat="4.5797320" lon="-74.2218480">
        <ele>2558.6</ele>
        <time>2018-08-10T13:41:16Z</time>
      </trkpt>
      <trkpt lat="4.5797750" lon="-74.2218350">
        <ele>2558.4</ele>
        <time>2018-08-10T13:41:17Z</time>
      </trkpt>
      <trkpt lat="4.5798180" lon="-74.2218180">
        <ele>2558.3</ele>
        <time>2018-08-10T13:41:18Z</time>
      </trkpt>
      <trkpt lat="4.5798620" lon="-74.2218020">
        <ele>2558.2</ele>
        <time>2018-08-10T13:41:19Z</time>
      </trkpt>
      <trkpt lat="4.5799050" lon="-74.2217850">
        <ele>2558.1</ele>
        <time>2018-08-10T13:41:20Z</time>
      </trkpt>
      <trkpt lat="4.5799500" lon="-74.2217670">
        <ele>2558.0</ele>
        <time>2018-08-10T13:41:21Z</time>
      </trkpt>
      <trkpt lat="4.5799950" lon="-74.2217480">
        <ele>2557.9</ele>
        <time>2018-08-10T13:41:22Z</time>
      </trkpt>
      <trkpt lat="4.5800400" lon="-74.2217270">
        <ele>2557.8</ele>
        <time>2018-08-10T13:41:23Z</time>
      </trkpt>
      <trkpt lat="4.5800820" lon="-74.2217070">
        <ele>2557.7</ele>
        <time>2018-08-10T13:41:24Z</time>
      </trkpt>
      <trkpt lat="4.5801250" lon="-74.2216880">
        <ele>2557.6</ele>
        <time>2018-08-10T13:41:25Z</time>
      </trkpt>
      <trkpt lat="4.5801670" lon="-74.2216700">
        <ele>2557.5</ele>
        <time>2018-08-10T13:41:26Z</time>
      </trkpt>
      <trkpt lat="4.5802050" lon="-74.2216570">
        <ele>2557.4</ele>
        <time>2018-08-10T13:41:27Z</time>
      </trkpt>
      <trkpt lat="4.5802450" lon="-74.2216420">
        <ele>2557.3</ele>
        <time>2018-08-10T13:41:28Z</time>
      </trkpt>
      <trkpt lat="4.5802870" lon="-74.2216300">
        <ele>2557.3</ele>
        <time>2018-08-10T13:41:29Z</time>
      </trkpt>
      <trkpt lat="4.5803280" lon="-74.2216130">
        <ele>2557.2</ele>
        <time>2018-08-10T13:41:30Z</time>
      </trkpt>
      <trkpt lat="4.5803680" lon="-74.2215950">
        <ele>2557.1</ele>
        <time>2018-08-10T13:41:31Z</time>
      </trkpt>
      <trkpt lat="4.5804080" lon="-74.2215720">
        <ele>2557.0</ele>
        <time>2018-08-10T13:41:32Z</time>
      </trkpt>
      <trkpt lat="4.5804500" lon="-74.2215520">
        <ele>2556.9</ele>
        <time>2018-08-10T13:41:33Z</time>
      </trkpt>
      <trkpt lat="4.5804930" lon="-74.2215350">
        <ele>2556.8</ele>
        <time>2018-08-10T13:41:34Z</time>
      </trkpt>
      <trkpt lat="4.5805380" lon="-74.2215220">
        <ele>2556.7</ele>
        <time>2018-08-10T13:41:35Z</time>
      </trkpt>
      <trkpt lat="4.5805850" lon="-74.2215070">
        <ele>2556.7</ele>
        <time>2018-08-10T13:41:36Z</time>
      </trkpt>
      <trkpt lat="4.5806300" lon="-74.2214950">
        <ele>2556.6</ele>
        <time>2018-08-10T13:41:37Z</time>
      </trkpt>
      <trkpt lat="4.5806750" lon="-74.2214850">
        <ele>2556.4</ele>
        <time>2018-08-10T13:41:38Z</time>
      </trkpt>
      <trkpt lat="4.5807200" lon="-74.2214830">
        <ele>2556.3</ele>
        <time>2018-08-10T13:41:39Z</time>
      </trkpt>
      <trkpt lat="4.5807620" lon="-74.2214800">
        <ele>2556.2</ele>
        <time>2018-08-10T13:41:40Z</time>
      </trkpt>
      <trkpt lat="4.5808030" lon="-74.2214820">
        <ele>2556.1</ele>
        <time>2018-08-10T13:41:41Z</time>
      </trkpt>
      <trkpt lat="4.5808400" lon="-74.2214820">
        <ele>2555.5</ele>
        <time>2018-08-10T13:41:42Z</time>
      </trkpt>
      <trkpt lat="4.5808720" lon="-74.2214850">
        <ele>2554.8</ele>
        <time>2018-08-10T13:41:43Z</time>
      </trkpt>
      <trkpt lat="4.5809150" lon="-74.2215050">
        <ele>2554.0</ele>
        <time>2018-08-10T13:41:45Z</time>
      </trkpt>
      <trkpt lat="4.5809350" lon="-74.2215230">
        <ele>2554.0</ele>
        <time>2018-08-10T13:41:46Z</time>
      </trkpt>
      <trkpt lat="4.5809530" lon="-74.2215520">
        <ele>2554.0</ele>
        <time>2018-08-10T13:41:47Z</time>
      </trkpt>
      <trkpt lat="4.5809680" lon="-74.2215830">
        <ele>2554.0</ele>
        <time>2018-08-10T13:41:48Z</time>
      </trkpt>
      <trkpt lat="4.5809850" lon="-74.2216200">
        <ele>2553.9</ele>
        <time>2018-08-10T13:41:49Z</time>
      </trkpt>
      <trkpt lat="4.5809980" lon="-74.2216630">
        <ele>2553.9</ele>
        <time>2018-08-10T13:41:50Z</time>
      </trkpt>
      <trkpt lat="4.5810070" lon="-74.2217120">
        <ele>2553.8</ele>
        <time>2018-08-10T13:41:51Z</time>
      </trkpt>
      <trkpt lat="4.5810150" lon="-74.2217630">
        <ele>2553.8</ele>
        <time>2018-08-10T13:41:52Z</time>
      </trkpt>
      <trkpt lat="4.5810250" lon="-74.2218130">
        <ele>2553.8</ele>
        <time>2018-08-10T13:41:53Z</time>
      </trkpt>
      <trkpt lat="4.5810380" lon="-74.2218630">
        <ele>2553.8</ele>
        <time>2018-08-10T13:41:54Z</time>
      </trkpt>
      <trkpt lat="4.5810500" lon="-74.2219170">
        <ele>2554.0</ele>
        <time>2018-08-10T13:41:55Z</time>
      </trkpt>
      <trkpt lat="4.5810650" lon="-74.2219680">
        <ele>2554.1</ele>
        <time>2018-08-10T13:41:56Z</time>
      </trkpt>
      <trkpt lat="4.5810820" lon="-74.2220200">
        <ele>2554.3</ele>
        <time>2018-08-10T13:41:57Z</time>
      </trkpt>
      <trkpt lat="4.5810980" lon="-74.2220730">
        <ele>2554.5</ele>
        <time>2018-08-10T13:41:58Z</time>
      </trkpt>
      <trkpt lat="4.5811120" lon="-74.2221200">
        <ele>2554.7</ele>
        <time>2018-08-10T13:41:59Z</time>
      </trkpt>
      <trkpt lat="4.5811250" lon="-74.2221600">
        <ele>2554.9</ele>
        <time>2018-08-10T13:42:00Z</time>
      </trkpt>
      <trkpt lat="4.5811400" lon="-74.2221970">
        <ele>2555.0</ele>
        <time>2018-08-10T13:42:01Z</time>
      </trkpt>
      <trkpt lat="4.5811530" lon="-74.2222300">
        <ele>2555.2</ele>
        <time>2018-08-10T13:42:02Z</time>
      </trkpt>
      <trkpt lat="4.5811700" lon="-74.2222630">
        <ele>2555.4</ele>
        <time>2018-08-10T13:42:03Z</time>
      </trkpt>
      <trkpt lat="4.5811920" lon="-74.2222970">
        <ele>2555.7</ele>
        <time>2018-08-10T13:42:04Z</time>
      </trkpt>
      <trkpt lat="4.5812150" lon="-74.2223320">
        <ele>2555.9</ele>
        <time>2018-08-10T13:42:05Z</time>
      </trkpt>
      <trkpt lat="4.5812420" lon="-74.2223670">
        <ele>2556.1</ele>
        <time>2018-08-10T13:42:06Z</time>
      </trkpt>
      <trkpt lat="4.5812720" lon="-74.2224020">
        <ele>2556.2</ele>
        <time>2018-08-10T13:42:07Z</time>
      </trkpt>
      <trkpt lat="4.5813030" lon="-74.2224370">
        <ele>2556.3</ele>
        <time>2018-08-10T13:42:08Z</time>
      </trkpt>
      <trkpt lat="4.5813330" lon="-74.2224720">
        <ele>2556.4</ele>
        <time>2018-08-10T13:42:09Z</time>
      </trkpt>
      <trkpt lat="4.5813650" lon="-74.2225070">
        <ele>2556.6</ele>
        <time>2018-08-10T13:42:10Z</time>
      </trkpt>
      <trkpt lat="4.5813970" lon="-74.2225400">
        <ele>2556.7</ele>
        <time>2018-08-10T13:42:11Z</time>
      </trkpt>
      <trkpt lat="4.5814270" lon="-74.2225700">
        <ele>2556.8</ele>
        <time>2018-08-10T13:42:12Z</time>
      </trkpt>
      <trkpt lat="4.5814570" lon="-74.2226020">
        <ele>2556.9</ele>
        <time>2018-08-10T13:42:13Z</time>
      </trkpt>
      <trkpt lat="4.5814870" lon="-74.2226370">
        <ele>2557.0</ele>
        <time>2018-08-10T13:42:14Z</time>
      </trkpt>
      <trkpt lat="4.5815200" lon="-74.2226730">
        <ele>2556.7</ele>
        <time>2018-08-10T13:42:15Z</time>
      </trkpt>
      <trkpt lat="4.5815550" lon="-74.2227100">
        <ele>2556.5</ele>
        <time>2018-08-10T13:42:16Z</time>
      </trkpt>
      <trkpt lat="4.5815920" lon="-74.2227480">
        <ele>2556.2</ele>
        <time>2018-08-10T13:42:17Z</time>
      </trkpt>
      <trkpt lat="4.5816280" lon="-74.2227870">
        <ele>2556.0</ele>
        <time>2018-08-10T13:42:18Z</time>
      </trkpt>
      <trkpt lat="4.5816620" lon="-74.2228270">
        <ele>2555.7</ele>
        <time>2018-08-10T13:42:19Z</time>
      </trkpt>
      <trkpt lat="4.5816950" lon="-74.2228670">
        <ele>2555.5</ele>
        <time>2018-08-10T13:42:20Z</time>
      </trkpt>
      <trkpt lat="4.5817330" lon="-74.2229080">
        <ele>2555.2</ele>
        <time>2018-08-10T13:42:21Z</time>
      </trkpt>
      <trkpt lat="4.5817680" lon="-74.2229430">
        <ele>2555.1</ele>
        <time>2018-08-10T13:42:22Z</time>
      </trkpt>
      <trkpt lat="4.5817980" lon="-74.2229780">
        <ele>2555.3</ele>
        <time>2018-08-10T13:42:23Z</time>
      </trkpt>
      <trkpt lat="4.5818280" lon="-74.2230180">
        <ele>2555.6</ele>
        <time>2018-08-10T13:42:24Z</time>
      </trkpt>
      <trkpt lat="4.5818620" lon="-74.2230570">
        <ele>2555.7</ele>
        <time>2018-08-10T13:42:25Z</time>
      </trkpt>
      <trkpt lat="4.5818950" lon="-74.2230920">
        <ele>2555.8</ele>
        <time>2018-08-10T13:42:26Z</time>
      </trkpt>
      <trkpt lat="4.5819270" lon="-74.2231300">
        <ele>2555.9</ele>
        <time>2018-08-10T13:42:27Z</time>
      </trkpt>
      <trkpt lat="4.5819570" lon="-74.2231680">
        <ele>2556.0</ele>
        <time>2018-08-10T13:42:28Z</time>
      </trkpt>
      <trkpt lat="4.5819830" lon="-74.2232050">
        <ele>2556.1</ele>
        <time>2018-08-10T13:42:29Z</time>
      </trkpt>
      <trkpt lat="4.5820080" lon="-74.2232350">
        <ele>2556.2</ele>
        <time>2018-08-10T13:42:30Z</time>
      </trkpt>
      <trkpt lat="4.5820320" lon="-74.2232620">
        <ele>2556.3</ele>
        <time>2018-08-10T13:42:31Z</time>
      </trkpt>
      <trkpt lat="4.5820530" lon="-74.2232850">
        <ele>2556.3</ele>
        <time>2018-08-10T13:42:32Z</time>
      </trkpt>
      <trkpt lat="4.5820770" lon="-74.2233030">
        <ele>2556.4</ele>
        <time>2018-08-10T13:42:33Z</time>
      </trkpt>
      <trkpt lat="4.5820950" lon="-74.2233520">
        <ele>2556.5</ele>
        <time>2018-08-10T13:42:35Z</time>
      </trkpt>
      <trkpt lat="4.5821170" lon="-74.2233930">
        <ele>2556.6</ele>
        <time>2018-08-10T13:42:37Z</time>
      </trkpt>
      <trkpt lat="4.5821470" lon="-74.2234350">
        <ele>2556.7</ele>
        <time>2018-08-10T13:42:39Z</time>
      </trkpt>
      <trkpt lat="4.5821680" lon="-74.2234520">
        <ele>2556.8</ele>
        <time>2018-08-10T13:42:40Z</time>
      </trkpt>
      <trkpt lat="4.5821930" lon="-74.2234720">
        <ele>2556.8</ele>
        <time>2018-08-10T13:42:41Z</time>
      </trkpt>
      <trkpt lat="4.5822170" lon="-74.2234950">
        <ele>2556.9</ele>
        <time>2018-08-10T13:42:42Z</time>
      </trkpt>
      <trkpt lat="4.5822380" lon="-74.2235200">
        <ele>2557.0</ele>
        <time>2018-08-10T13:42:43Z</time>
      </trkpt>
      <trkpt lat="4.5822580" lon="-74.2235520">
        <ele>2557.0</ele>
        <time>2018-08-10T13:42:44Z</time>
      </trkpt>
      <trkpt lat="4.5822720" lon="-74.2235820">
        <ele>2557.0</ele>
        <time>2018-08-10T13:42:45Z</time>
      </trkpt>
      <trkpt lat="4.5822870" lon="-74.2236100">
        <ele>2557.0</ele>
        <time>2018-08-10T13:42:46Z</time>
      </trkpt>
      <trkpt lat="4.5823020" lon="-74.2236370">
        <ele>2557.0</ele>
        <time>2018-08-10T13:42:47Z</time>
      </trkpt>
      <trkpt lat="4.5823130" lon="-74.2236630">
        <ele>2557.0</ele>
        <time>2018-08-10T13:42:48Z</time>
      </trkpt>
      <trkpt lat="4.5823300" lon="-74.2237080">
        <ele>2557.0</ele>
        <time>2018-08-10T13:42:50Z</time>
      </trkpt>
      <trkpt lat="4.5823470" lon="-74.2237500">
        <ele>2557.0</ele>
        <time>2018-08-10T13:42:52Z</time>
      </trkpt>
      <trkpt lat="4.5823600" lon="-74.2237980">
        <ele>2557.0</ele>
        <time>2018-08-10T13:42:54Z</time>
      </trkpt>
      <trkpt lat="4.5823700" lon="-74.2238280">
        <ele>2557.0</ele>
        <time>2018-08-10T13:42:55Z</time>
      </trkpt>
      <trkpt lat="4.5823820" lon="-74.2238580">
        <ele>2557.0</ele>
        <time>2018-08-10T13:42:56Z</time>
      </trkpt>
      <trkpt lat="4.5823930" lon="-74.2238880">
        <ele>2557.0</ele>
        <time>2018-08-10T13:42:57Z</time>
      </trkpt>
      <trkpt lat="4.5824070" lon="-74.2239180">
        <ele>2557.0</ele>
        <time>2018-08-10T13:42:58Z</time>
      </trkpt>
      <trkpt lat="4.5824170" lon="-74.2239480">
        <ele>2557.0</ele>
        <time>2018-08-10T13:42:59Z</time>
      </trkpt>
      <trkpt lat="4.5824280" lon="-74.2239830">
        <ele>2557.0</ele>
        <time>2018-08-10T13:43:00Z</time>
      </trkpt>
      <trkpt lat="4.5824380" lon="-74.2240180">
        <ele>2557.0</ele>
        <time>2018-08-10T13:43:01Z</time>
      </trkpt>
      <trkpt lat="4.5824520" lon="-74.2240480">
        <ele>2557.0</ele>
        <time>2018-08-10T13:43:02Z</time>
      </trkpt>
      <trkpt lat="4.5824670" lon="-74.2240750">
        <ele>2557.0</ele>
        <time>2018-08-10T13:43:03Z</time>
      </trkpt>
      <trkpt lat="4.5824930" lon="-74.2240920">
        <ele>2557.2</ele>
        <time>2018-08-10T13:43:04Z</time>
      </trkpt>
      <trkpt lat="4.5825080" lon="-74.2241370">
        <ele>2557.7</ele>
        <time>2018-08-10T13:43:06Z</time>
      </trkpt>
      <trkpt lat="4.5825130" lon="-74.2241730">
        <ele>2558.1</ele>
        <time>2018-08-10T13:43:08Z</time>
      </trkpt>
      <trkpt lat="4.5825230" lon="-74.2242070">
        <ele>2558.5</ele>
        <time>2018-08-10T13:43:10Z</time>
      </trkpt>
      <trkpt lat="4.5825320" lon="-74.2242480">
        <ele>2559.0</ele>
        <time>2018-08-10T13:43:12Z</time>
      </trkpt>
      <trkpt lat="4.5825420" lon="-74.2242780">
        <ele>2559.0</ele>
        <time>2018-08-10T13:43:14Z</time>
      </trkpt>
      <trkpt lat="4.5825370" lon="-74.2243200">
        <ele>2559.0</ele>
        <time>2018-08-10T13:43:17Z</time>
      </trkpt>
      <trkpt lat="4.5825450" lon="-74.2243550">
        <ele>2559.0</ele>
        <time>2018-08-10T13:43:20Z</time>
      </trkpt>
      <trkpt lat="4.5825380" lon="-74.2243950">
        <ele>2559.0</ele>
        <time>2018-08-10T13:43:23Z</time>
      </trkpt>
      <trkpt lat="4.5825280" lon="-74.2244420">
        <ele>2559.1</ele>
        <time>2018-08-10T13:43:25Z</time>
      </trkpt>
      <trkpt lat="4.5825200" lon="-74.2244900">
        <ele>2559.2</ele>
        <time>2018-08-10T13:43:27Z</time>
      </trkpt>
      <trkpt lat="4.5825180" lon="-74.2245200">
        <ele>2559.3</ele>
        <time>2018-08-10T13:43:28Z</time>
      </trkpt>
      <trkpt lat="4.5825170" lon="-74.2245530">
        <ele>2559.4</ele>
        <time>2018-08-10T13:43:29Z</time>
      </trkpt>
      <trkpt lat="4.5825130" lon="-74.2245870">
        <ele>2559.5</ele>
        <time>2018-08-10T13:43:30Z</time>
      </trkpt>
      <trkpt lat="4.5825120" lon="-74.2246220">
        <ele>2559.6</ele>
        <time>2018-08-10T13:43:31Z</time>
      </trkpt>
      <trkpt lat="4.5825100" lon="-74.2246570">
        <ele>2559.6</ele>
        <time>2018-08-10T13:43:32Z</time>
      </trkpt>
      <trkpt lat="4.5825150" lon="-74.2246900">
        <ele>2559.7</ele>
        <time>2018-08-10T13:43:33Z</time>
      </trkpt>
      <trkpt lat="4.5825170" lon="-74.2247250">
        <ele>2559.8</ele>
        <time>2018-08-10T13:43:34Z</time>
      </trkpt>
      <trkpt lat="4.5825170" lon="-74.2247650">
        <ele>2559.9</ele>
        <time>2018-08-10T13:43:35Z</time>
      </trkpt>
      <trkpt lat="4.5825170" lon="-74.2248050">
        <ele>2560.1</ele>
        <time>2018-08-10T13:43:36Z</time>
      </trkpt>
      <trkpt lat="4.5825170" lon="-74.2248470">
        <ele>2560.1</ele>
        <time>2018-08-10T13:43:37Z</time>
      </trkpt>
      <trkpt lat="4.5825150" lon="-74.2248900">
        <ele>2560.2</ele>
        <time>2018-08-10T13:43:38Z</time>
      </trkpt>
      <trkpt lat="4.5825130" lon="-74.2249350">
        <ele>2560.3</ele>
        <time>2018-08-10T13:43:39Z</time>
      </trkpt>
      <trkpt lat="4.5825100" lon="-74.2249800">
        <ele>2560.4</ele>
        <time>2018-08-10T13:43:40Z</time>
      </trkpt>
      <trkpt lat="4.5825050" lon="-74.2250250">
        <ele>2560.5</ele>
        <time>2018-08-10T13:43:41Z</time>
      </trkpt>
      <trkpt lat="4.5825020" lon="-74.2250680">
        <ele>2560.5</ele>
        <time>2018-08-10T13:43:42Z</time>
      </trkpt>
      <trkpt lat="4.5824980" lon="-74.2251100">
        <ele>2560.6</ele>
        <time>2018-08-10T13:43:43Z</time>
      </trkpt>
      <trkpt lat="4.5824880" lon="-74.2251500">
        <ele>2560.7</ele>
        <time>2018-08-10T13:43:44Z</time>
      </trkpt>
      <trkpt lat="4.5824820" lon="-74.2251900">
        <ele>2560.8</ele>
        <time>2018-08-10T13:43:45Z</time>
      </trkpt>
      <trkpt lat="4.5824800" lon="-74.2252320">
        <ele>2560.8</ele>
        <time>2018-08-10T13:43:46Z</time>
      </trkpt>
      <trkpt lat="4.5824800" lon="-74.2252750">
        <ele>2560.9</ele>
        <time>2018-08-10T13:43:47Z</time>
      </trkpt>
      <trkpt lat="4.5824830" lon="-74.2253170">
        <ele>2561.0</ele>
        <time>2018-08-10T13:43:48Z</time>
      </trkpt>
      <trkpt lat="4.5824930" lon="-74.2253550">
        <ele>2561.1</ele>
        <time>2018-08-10T13:43:49Z</time>
      </trkpt>
      <trkpt lat="4.5825020" lon="-74.2253930">
        <ele>2561.1</ele>
        <time>2018-08-10T13:43:50Z</time>
      </trkpt>
      <trkpt lat="4.5825070" lon="-74.2254280">
        <ele>2561.2</ele>
        <time>2018-08-10T13:43:51Z</time>
      </trkpt>
      <trkpt lat="4.5825080" lon="-74.2254670">
        <ele>2561.3</ele>
        <time>2018-08-10T13:43:52Z</time>
      </trkpt>
      <trkpt lat="4.5825070" lon="-74.2255070">
        <ele>2561.4</ele>
        <time>2018-08-10T13:43:53Z</time>
      </trkpt>
      <trkpt lat="4.5825050" lon="-74.2255480">
        <ele>2561.5</ele>
        <time>2018-08-10T13:43:54Z</time>
      </trkpt>
      <trkpt lat="4.5825030" lon="-74.2255900">
        <ele>2561.5</ele>
        <time>2018-08-10T13:43:55Z</time>
      </trkpt>
      <trkpt lat="4.5824980" lon="-74.2256300">
        <ele>2561.6</ele>
        <time>2018-08-10T13:43:56Z</time>
      </trkpt>
      <trkpt lat="4.5824900" lon="-74.2256680">
        <ele>2561.7</ele>
        <time>2018-08-10T13:43:57Z</time>
      </trkpt>
      <trkpt lat="4.5824850" lon="-74.2257050">
        <ele>2561.8</ele>
        <time>2018-08-10T13:43:58Z</time>
      </trkpt>
      <trkpt lat="4.5824800" lon="-74.2257420">
        <ele>2561.9</ele>
        <time>2018-08-10T13:43:59Z</time>
      </trkpt>
      <trkpt lat="4.5824730" lon="-74.2257770">
        <ele>2561.9</ele>
        <time>2018-08-10T13:44:00Z</time>
      </trkpt>
      <trkpt lat="4.5824670" lon="-74.2258080">
        <ele>2561.9</ele>
        <time>2018-08-10T13:44:01Z</time>
      </trkpt>
      <trkpt lat="4.5824620" lon="-74.2258400">
        <ele>2561.4</ele>
        <time>2018-08-10T13:44:02Z</time>
      </trkpt>
      <trkpt lat="4.5824650" lon="-74.2258750">
        <ele>2560.9</ele>
        <time>2018-08-10T13:44:03Z</time>
      </trkpt>
      <trkpt lat="4.5824700" lon="-74.2259120">
        <ele>2560.3</ele>
        <time>2018-08-10T13:44:04Z</time>
      </trkpt>
      <trkpt lat="4.5824680" lon="-74.2259520">
        <ele>2559.7</ele>
        <time>2018-08-10T13:44:05Z</time>
      </trkpt>
      <trkpt lat="4.5824630" lon="-74.2259900">
        <ele>2559.2</ele>
        <time>2018-08-10T13:44:06Z</time>
      </trkpt>
      <trkpt lat="4.5824630" lon="-74.2260320">
        <ele>2559.1</ele>
        <time>2018-08-10T13:44:07Z</time>
      </trkpt>
      <trkpt lat="4.5824620" lon="-74.2260730">
        <ele>2559.2</ele>
        <time>2018-08-10T13:44:08Z</time>
      </trkpt>
      <trkpt lat="4.5824600" lon="-74.2261180">
        <ele>2559.4</ele>
        <time>2018-08-10T13:44:09Z</time>
      </trkpt>
      <trkpt lat="4.5824600" lon="-74.2261620">
        <ele>2559.5</ele>
        <time>2018-08-10T13:44:10Z</time>
      </trkpt>
      <trkpt lat="4.5824580" lon="-74.2262030">
        <ele>2559.7</ele>
        <time>2018-08-10T13:44:11Z</time>
      </trkpt>
      <trkpt lat="4.5824550" lon="-74.2262450">
        <ele>2559.8</ele>
        <time>2018-08-10T13:44:12Z</time>
      </trkpt>
      <trkpt lat="4.5824550" lon="-74.2262880">
        <ele>2560.0</ele>
        <time>2018-08-10T13:44:13Z</time>
      </trkpt>
      <trkpt lat="4.5824580" lon="-74.2263320">
        <ele>2560.1</ele>
        <time>2018-08-10T13:44:14Z</time>
      </trkpt>
      <trkpt lat="4.5824570" lon="-74.2263730">
        <ele>2560.3</ele>
        <time>2018-08-10T13:44:15Z</time>
      </trkpt>
      <trkpt lat="4.5824530" lon="-74.2264150">
        <ele>2560.4</ele>
        <time>2018-08-10T13:44:16Z</time>
      </trkpt>
      <trkpt lat="4.5824530" lon="-74.2264580">
        <ele>2560.6</ele>
        <time>2018-08-10T13:44:17Z</time>
      </trkpt>
      <trkpt lat="4.5824530" lon="-74.2265000">
        <ele>2560.7</ele>
        <time>2018-08-10T13:44:18Z</time>
      </trkpt>
      <trkpt lat="4.5824500" lon="-74.2265430">
        <ele>2560.8</ele>
        <time>2018-08-10T13:44:19Z</time>
      </trkpt>
      <trkpt lat="4.5824500" lon="-74.2265870">
        <ele>2561.0</ele>
        <time>2018-08-10T13:44:20Z</time>
      </trkpt>
      <trkpt lat="4.5824480" lon="-74.2266300">
        <ele>2561.1</ele>
        <time>2018-08-10T13:44:21Z</time>
      </trkpt>
      <trkpt lat="4.5824480" lon="-74.2266720">
        <ele>2561.2</ele>
        <time>2018-08-10T13:44:22Z</time>
      </trkpt>
      <trkpt lat="4.5824470" lon="-74.2267150">
        <ele>2561.3</ele>
        <time>2018-08-10T13:44:23Z</time>
      </trkpt>
      <trkpt lat="4.5824450" lon="-74.2267580">
        <ele>2561.5</ele>
        <time>2018-08-10T13:44:24Z</time>
      </trkpt>
      <trkpt lat="4.5824400" lon="-74.2268030">
        <ele>2561.6</ele>
        <time>2018-08-10T13:44:25Z</time>
      </trkpt>
      <trkpt lat="4.5824350" lon="-74.2268500">
        <ele>2561.7</ele>
        <time>2018-08-10T13:44:26Z</time>
      </trkpt>
      <trkpt lat="4.5824280" lon="-74.2268980">
        <ele>2561.9</ele>
        <time>2018-08-10T13:44:27Z</time>
      </trkpt>
      <trkpt lat="4.5824230" lon="-74.2269520">
        <ele>2562.0</ele>
        <time>2018-08-10T13:44:28Z</time>
      </trkpt>
      <trkpt lat="4.5824200" lon="-74.2270050">
        <ele>2562.2</ele>
        <time>2018-08-10T13:44:29Z</time>
      </trkpt>
      <trkpt lat="4.5824170" lon="-74.2270580">
        <ele>2562.3</ele>
        <time>2018-08-10T13:44:30Z</time>
      </trkpt>
      <trkpt lat="4.5824150" lon="-74.2271130">
        <ele>2562.6</ele>
        <time>2018-08-10T13:44:31Z</time>
      </trkpt>
      <trkpt lat="4.5824120" lon="-74.2271700">
        <ele>2562.9</ele>
        <time>2018-08-10T13:44:32Z</time>
      </trkpt>
      <trkpt lat="4.5824070" lon="-74.2272270">
        <ele>2563.3</ele>
        <time>2018-08-10T13:44:33Z</time>
      </trkpt>
      <trkpt lat="4.5824030" lon="-74.2272850">
        <ele>2563.7</ele>
        <time>2018-08-10T13:44:34Z</time>
      </trkpt>
      <trkpt lat="4.5823980" lon="-74.2273400">
        <ele>2564.0</ele>
        <time>2018-08-10T13:44:35Z</time>
      </trkpt>
      <trkpt lat="4.5823920" lon="-74.2273950">
        <ele>2564.3</ele>
        <time>2018-08-10T13:44:36Z</time>
      </trkpt>
      <trkpt lat="4.5823870" lon="-74.2274480">
        <ele>2564.7</ele>
        <time>2018-08-10T13:44:37Z</time>
      </trkpt>
      <trkpt lat="4.5823770" lon="-74.2275000">
        <ele>2565.0</ele>
        <time>2018-08-10T13:44:38Z</time>
      </trkpt>
      <trkpt lat="4.5823680" lon="-74.2275530">
        <ele>2565.4</ele>
        <time>2018-08-10T13:44:39Z</time>
      </trkpt>
      <trkpt lat="4.5823620" lon="-74.2276050">
        <ele>2565.7</ele>
        <time>2018-08-10T13:44:40Z</time>
      </trkpt>
      <trkpt lat="4.5823580" lon="-74.2276570">
        <ele>2566.0</ele>
        <time>2018-08-10T13:44:41Z</time>
      </trkpt>
      <trkpt lat="4.5823530" lon="-74.2277100">
        <ele>2565.8</ele>
        <time>2018-08-10T13:44:42Z</time>
      </trkpt>
      <trkpt lat="4.5823520" lon="-74.2277620">
        <ele>2565.7</ele>
        <time>2018-08-10T13:44:43Z</time>
      </trkpt>
      <trkpt lat="4.5823480" lon="-74.2278120">
        <ele>2565.5</ele>
        <time>2018-08-10T13:44:44Z</time>
      </trkpt>
      <trkpt lat="4.5823400" lon="-74.2278600">
        <ele>2565.4</ele>
        <time>2018-08-10T13:44:45Z</time>
      </trkpt>
      <trkpt lat="4.5823330" lon="-74.2279080">
        <ele>2565.2</ele>
        <time>2018-08-10T13:44:46Z</time>
      </trkpt>
      <trkpt lat="4.5823280" lon="-74.2279550">
        <ele>2565.1</ele>
        <time>2018-08-10T13:44:47Z</time>
      </trkpt>
      <trkpt lat="4.5823230" lon="-74.2280030">
        <ele>2565.0</ele>
        <time>2018-08-10T13:44:48Z</time>
      </trkpt>
      <trkpt lat="4.5823220" lon="-74.2280550">
        <ele>2564.8</ele>
        <time>2018-08-10T13:44:49Z</time>
      </trkpt>
      <trkpt lat="4.5823170" lon="-74.2281050">
        <ele>2564.7</ele>
        <time>2018-08-10T13:44:50Z</time>
      </trkpt>
      <trkpt lat="4.5823120" lon="-74.2281570">
        <ele>2564.5</ele>
        <time>2018-08-10T13:44:51Z</time>
      </trkpt>
      <trkpt lat="4.5823100" lon="-74.2282070">
        <ele>2564.4</ele>
        <time>2018-08-10T13:44:52Z</time>
      </trkpt>
      <trkpt lat="4.5823070" lon="-74.2282530">
        <ele>2564.3</ele>
        <time>2018-08-10T13:44:53Z</time>
      </trkpt>
      <trkpt lat="4.5823030" lon="-74.2282950">
        <ele>2564.1</ele>
        <time>2018-08-10T13:44:54Z</time>
      </trkpt>
      <trkpt lat="4.5823020" lon="-74.2283380">
        <ele>2564.0</ele>
        <time>2018-08-10T13:44:55Z</time>
      </trkpt>
      <trkpt lat="4.5822980" lon="-74.2283830">
        <ele>2563.9</ele>
        <time>2018-08-10T13:44:56Z</time>
      </trkpt>
      <trkpt lat="4.5822970" lon="-74.2284300">
        <ele>2563.8</ele>
        <time>2018-08-10T13:44:57Z</time>
      </trkpt>
      <trkpt lat="4.5822950" lon="-74.2284800">
        <ele>2563.7</ele>
        <time>2018-08-10T13:44:58Z</time>
      </trkpt>
      <trkpt lat="4.5822930" lon="-74.2285320">
        <ele>2563.5</ele>
        <time>2018-08-10T13:44:59Z</time>
      </trkpt>
      <trkpt lat="4.5822920" lon="-74.2285870">
        <ele>2563.4</ele>
        <time>2018-08-10T13:45:00Z</time>
      </trkpt>
      <trkpt lat="4.5822880" lon="-74.2286420">
        <ele>2563.3</ele>
        <time>2018-08-10T13:45:01Z</time>
      </trkpt>
      <trkpt lat="4.5822870" lon="-74.2287000">
        <ele>2563.1</ele>
        <time>2018-08-10T13:45:02Z</time>
      </trkpt>
      <trkpt lat="4.5822850" lon="-74.2287600">
        <ele>2563.0</ele>
        <time>2018-08-10T13:45:03Z</time>
      </trkpt>
      <trkpt lat="4.5822800" lon="-74.2288170">
        <ele>2562.7</ele>
        <time>2018-08-10T13:45:04Z</time>
      </trkpt>
      <trkpt lat="4.5822750" lon="-74.2288770">
        <ele>2562.4</ele>
        <time>2018-08-10T13:45:05Z</time>
      </trkpt>
      <trkpt lat="4.5822680" lon="-74.2289370">
        <ele>2562.2</ele>
        <time>2018-08-10T13:45:06Z</time>
      </trkpt>
      <trkpt lat="4.5822670" lon="-74.2289980">
        <ele>2562.1</ele>
        <time>2018-08-10T13:45:07Z</time>
      </trkpt>
      <trkpt lat="4.5822630" lon="-74.2290580">
        <ele>2562.0</ele>
        <time>2018-08-10T13:45:08Z</time>
      </trkpt>
      <trkpt lat="4.5822580" lon="-74.2291200">
        <ele>2561.8</ele>
        <time>2018-08-10T13:45:09Z</time>
      </trkpt>
      <trkpt lat="4.5822520" lon="-74.2291820">
        <ele>2561.7</ele>
        <time>2018-08-10T13:45:10Z</time>
      </trkpt>
      <trkpt lat="4.5822450" lon="-74.2292430">
        <ele>2561.6</ele>
        <time>2018-08-10T13:45:11Z</time>
      </trkpt>
      <trkpt lat="4.5822400" lon="-74.2293050">
        <ele>2561.5</ele>
        <time>2018-08-10T13:45:12Z</time>
      </trkpt>
      <trkpt lat="4.5822370" lon="-74.2293670">
        <ele>2561.3</ele>
        <time>2018-08-10T13:45:13Z</time>
      </trkpt>
      <trkpt lat="4.5822330" lon="-74.2294270">
        <ele>2561.2</ele>
        <time>2018-08-10T13:45:14Z</time>
      </trkpt>
      <trkpt lat="4.5822280" lon="-74.2294870">
        <ele>2561.1</ele>
        <time>2018-08-10T13:45:15Z</time>
      </trkpt>
      <trkpt lat="4.5822270" lon="-74.2295470">
        <ele>2561.0</ele>
        <time>2018-08-10T13:45:16Z</time>
      </trkpt>
      <trkpt lat="4.5822230" lon="-74.2296070">
        <ele>2560.8</ele>
        <time>2018-08-10T13:45:17Z</time>
      </trkpt>
      <trkpt lat="4.5822180" lon="-74.2296680">
        <ele>2560.7</ele>
        <time>2018-08-10T13:45:18Z</time>
      </trkpt>
      <trkpt lat="4.5822130" lon="-74.2297320">
        <ele>2560.6</ele>
        <time>2018-08-10T13:45:19Z</time>
      </trkpt>
      <trkpt lat="4.5822070" lon="-74.2297930">
        <ele>2560.5</ele>
        <time>2018-08-10T13:45:20Z</time>
      </trkpt>
      <trkpt lat="4.5822020" lon="-74.2298550">
        <ele>2560.4</ele>
        <time>2018-08-10T13:45:21Z</time>
      </trkpt>
      <trkpt lat="4.5821980" lon="-74.2299150">
        <ele>2560.3</ele>
        <time>2018-08-10T13:45:22Z</time>
      </trkpt>
      <trkpt lat="4.5821920" lon="-74.2299780">
        <ele>2560.1</ele>
        <time>2018-08-10T13:45:23Z</time>
      </trkpt>
      <trkpt lat="4.5821870" lon="-74.2300400">
        <ele>2560.0</ele>
        <time>2018-08-10T13:45:24Z</time>
      </trkpt>
      <trkpt lat="4.5821830" lon="-74.2301030">
        <ele>2559.9</ele>
        <time>2018-08-10T13:45:25Z</time>
      </trkpt>
      <trkpt lat="4.5821780" lon="-74.2301680">
        <ele>2559.8</ele>
        <time>2018-08-10T13:45:26Z</time>
      </trkpt>
      <trkpt lat="4.5821720" lon="-74.2302320">
        <ele>2559.7</ele>
        <time>2018-08-10T13:45:27Z</time>
      </trkpt>
      <trkpt lat="4.5821670" lon="-74.2302970">
        <ele>2559.6</ele>
        <time>2018-08-10T13:45:28Z</time>
      </trkpt>
      <trkpt lat="4.5821600" lon="-74.2303600">
        <ele>2559.5</ele>
        <time>2018-08-10T13:45:29Z</time>
      </trkpt>
      <trkpt lat="4.5821570" lon="-74.2304220">
        <ele>2559.3</ele>
        <time>2018-08-10T13:45:30Z</time>
      </trkpt>
      <trkpt lat="4.5821520" lon="-74.2304830">
        <ele>2559.2</ele>
        <time>2018-08-10T13:45:31Z</time>
      </trkpt>
      <trkpt lat="4.5821500" lon="-74.2305430">
        <ele>2559.1</ele>
        <time>2018-08-10T13:45:32Z</time>
      </trkpt>
      <trkpt lat="4.5821470" lon="-74.2306030">
        <ele>2559.0</ele>
        <time>2018-08-10T13:45:33Z</time>
      </trkpt>
      <trkpt lat="4.5821420" lon="-74.2306630">
        <ele>2559.1</ele>
        <time>2018-08-10T13:45:34Z</time>
      </trkpt>
      <trkpt lat="4.5821370" lon="-74.2307230">
        <ele>2559.3</ele>
        <time>2018-08-10T13:45:35Z</time>
      </trkpt>
      <trkpt lat="4.5821300" lon="-74.2307820">
        <ele>2559.5</ele>
        <time>2018-08-10T13:45:36Z</time>
      </trkpt>
      <trkpt lat="4.5821230" lon="-74.2308370">
        <ele>2559.6</ele>
        <time>2018-08-10T13:45:37Z</time>
      </trkpt>
      <trkpt lat="4.5821180" lon="-74.2308930">
        <ele>2559.8</ele>
        <time>2018-08-10T13:45:38Z</time>
      </trkpt>
      <trkpt lat="4.5821150" lon="-74.2309500">
        <ele>2559.9</ele>
        <time>2018-08-10T13:45:39Z</time>
      </trkpt>
      <trkpt lat="4.5821100" lon="-74.2310050">
        <ele>2560.1</ele>
        <time>2018-08-10T13:45:40Z</time>
      </trkpt>
      <trkpt lat="4.5821030" lon="-74.2310600">
        <ele>2560.3</ele>
        <time>2018-08-10T13:45:41Z</time>
      </trkpt>
      <trkpt lat="4.5821000" lon="-74.2311180">
        <ele>2560.4</ele>
        <time>2018-08-10T13:45:42Z</time>
      </trkpt>
      <trkpt lat="4.5820930" lon="-74.2311780">
        <ele>2560.6</ele>
        <time>2018-08-10T13:45:43Z</time>
      </trkpt>
      <trkpt lat="4.5820900" lon="-74.2312380">
        <ele>2560.8</ele>
        <time>2018-08-10T13:45:44Z</time>
      </trkpt>
      <trkpt lat="4.5820850" lon="-74.2312980">
        <ele>2561.0</ele>
        <time>2018-08-10T13:45:45Z</time>
      </trkpt>
      <trkpt lat="4.5820780" lon="-74.2313620">
        <ele>2561.2</ele>
        <time>2018-08-10T13:45:46Z</time>
      </trkpt>
      <trkpt lat="4.5820720" lon="-74.2314230">
        <ele>2561.5</ele>
        <time>2018-08-10T13:45:47Z</time>
      </trkpt>
      <trkpt lat="4.5820650" lon="-74.2314880">
        <ele>2561.8</ele>
        <time>2018-08-10T13:45:48Z</time>
      </trkpt>
      <trkpt lat="4.5820570" lon="-74.2315520">
        <ele>2562.0</ele>
        <time>2018-08-10T13:45:49Z</time>
      </trkpt>
      <trkpt lat="4.5820500" lon="-74.2316150">
        <ele>2562.0</ele>
        <time>2018-08-10T13:45:50Z</time>
      </trkpt>
      <trkpt lat="4.5820430" lon="-74.2316780">
        <ele>2561.9</ele>
        <time>2018-08-10T13:45:51Z</time>
      </trkpt>
      <trkpt lat="4.5820370" lon="-74.2317420">
        <ele>2561.8</ele>
        <time>2018-08-10T13:45:52Z</time>
      </trkpt>
      <trkpt lat="4.5820320" lon="-74.2318070">
        <ele>2561.9</ele>
        <time>2018-08-10T13:45:53Z</time>
      </trkpt>
      <trkpt lat="4.5820270" lon="-74.2318700">
        <ele>2562.3</ele>
        <time>2018-08-10T13:45:54Z</time>
      </trkpt>
      <trkpt lat="4.5820220" lon="-74.2319300">
        <ele>2562.4</ele>
        <time>2018-08-10T13:45:55Z</time>
      </trkpt>
      <trkpt lat="4.5820150" lon="-74.2319930">
        <ele>2562.2</ele>
        <time>2018-08-10T13:45:56Z</time>
      </trkpt>
      <trkpt lat="4.5820080" lon="-74.2320580">
        <ele>2562.0</ele>
        <time>2018-08-10T13:45:57Z</time>
      </trkpt>
      <trkpt lat="4.5820020" lon="-74.2321230">
        <ele>2562.4</ele>
        <time>2018-08-10T13:45:58Z</time>
      </trkpt>
      <trkpt lat="4.5819950" lon="-74.2321900">
        <ele>2562.1</ele>
        <time>2018-08-10T13:45:59Z</time>
      </trkpt>
      <trkpt lat="4.5819880" lon="-74.2322550">
        <ele>2562.1</ele>
        <time>2018-08-10T13:46:00Z</time>
      </trkpt>
      <trkpt lat="4.5819800" lon="-74.2323200">
        <ele>2562.4</ele>
        <time>2018-08-10T13:46:01Z</time>
      </trkpt>
      <trkpt lat="4.5819730" lon="-74.2323820">
        <ele>2562.6</ele>
        <time>2018-08-10T13:46:02Z</time>
      </trkpt>
      <trkpt lat="4.5819650" lon="-74.2324450">
        <ele>2562.8</ele>
        <time>2018-08-10T13:46:03Z</time>
      </trkpt>
      <trkpt lat="4.5819600" lon="-74.2325070">
        <ele>2563.0</ele>
        <time>2018-08-10T13:46:04Z</time>
      </trkpt>
      <trkpt lat="4.5819570" lon="-74.2325700">
        <ele>2563.2</ele>
        <time>2018-08-10T13:46:05Z</time>
      </trkpt>
      <trkpt lat="4.5819520" lon="-74.2326300">
        <ele>2563.4</ele>
        <time>2018-08-10T13:46:06Z</time>
      </trkpt>
      <trkpt lat="4.5819450" lon="-74.2326900">
        <ele>2563.6</ele>
        <time>2018-08-10T13:46:07Z</time>
      </trkpt>
      <trkpt lat="4.5819430" lon="-74.2327470">
        <ele>2563.8</ele>
        <time>2018-08-10T13:46:08Z</time>
      </trkpt>
      <trkpt lat="4.5819370" lon="-74.2328030">
        <ele>2564.0</ele>
        <time>2018-08-10T13:46:09Z</time>
      </trkpt>
      <trkpt lat="4.5819320" lon="-74.2328580">
        <ele>2564.2</ele>
        <time>2018-08-10T13:46:10Z</time>
      </trkpt>
      <trkpt lat="4.5819250" lon="-74.2329120">
        <ele>2564.3</ele>
        <time>2018-08-10T13:46:11Z</time>
      </trkpt>
      <trkpt lat="4.5819170" lon="-74.2329650">
        <ele>2564.5</ele>
        <time>2018-08-10T13:46:12Z</time>
      </trkpt>
      <trkpt lat="4.5819050" lon="-74.2330200">
        <ele>2564.6</ele>
        <time>2018-08-10T13:46:13Z</time>
      </trkpt>
      <trkpt lat="4.5818980" lon="-74.2330770">
        <ele>2564.8</ele>
        <time>2018-08-10T13:46:14Z</time>
      </trkpt>
      <trkpt lat="4.5818950" lon="-74.2331330">
        <ele>2565.0</ele>
        <time>2018-08-10T13:46:15Z</time>
      </trkpt>
      <trkpt lat="4.5818930" lon="-74.2331920">
        <ele>2565.2</ele>
        <time>2018-08-10T13:46:16Z</time>
      </trkpt>
      <trkpt lat="4.5818900" lon="-74.2332520">
        <ele>2565.3</ele>
        <time>2018-08-10T13:46:17Z</time>
      </trkpt>
      <trkpt lat="4.5818830" lon="-74.2333120">
        <ele>2565.5</ele>
        <time>2018-08-10T13:46:18Z</time>
      </trkpt>
      <trkpt lat="4.5818770" lon="-74.2333720">
        <ele>2565.7</ele>
        <time>2018-08-10T13:46:19Z</time>
      </trkpt>
      <trkpt lat="4.5818700" lon="-74.2334280">
        <ele>2565.9</ele>
        <time>2018-08-10T13:46:20Z</time>
      </trkpt>
      <trkpt lat="4.5818650" lon="-74.2334850">
        <ele>2566.1</ele>
        <time>2018-08-10T13:46:21Z</time>
      </trkpt>
      <trkpt lat="4.5818600" lon="-74.2335420">
        <ele>2566.3</ele>
        <time>2018-08-10T13:46:22Z</time>
      </trkpt>
      <trkpt lat="4.5818600" lon="-74.2335970">
        <ele>2566.5</ele>
        <time>2018-08-10T13:46:23Z</time>
      </trkpt>
      <trkpt lat="4.5818570" lon="-74.2336520">
        <ele>2566.7</ele>
        <time>2018-08-10T13:46:24Z</time>
      </trkpt>
      <trkpt lat="4.5818530" lon="-74.2337070">
        <ele>2566.9</ele>
        <time>2018-08-10T13:46:25Z</time>
      </trkpt>
      <trkpt lat="4.5818480" lon="-74.2337620">
        <ele>2566.9</ele>
        <time>2018-08-10T13:46:26Z</time>
      </trkpt>
      <trkpt lat="4.5818420" lon="-74.2338200">
        <ele>2566.4</ele>
        <time>2018-08-10T13:46:27Z</time>
      </trkpt>
      <trkpt lat="4.5818350" lon="-74.2338780">
        <ele>2566.0</ele>
        <time>2018-08-10T13:46:28Z</time>
      </trkpt>
      <trkpt lat="4.5818280" lon="-74.2339380">
        <ele>2565.6</ele>
        <time>2018-08-10T13:46:29Z</time>
      </trkpt>
      <trkpt lat="4.5818220" lon="-74.2339970">
        <ele>2565.2</ele>
        <time>2018-08-10T13:46:30Z</time>
      </trkpt>
      <trkpt lat="4.5818170" lon="-74.2340570">
        <ele>2564.7</ele>
        <time>2018-08-10T13:46:31Z</time>
      </trkpt>
      <trkpt lat="4.5818100" lon="-74.2341180">
        <ele>2564.3</ele>
        <time>2018-08-10T13:46:32Z</time>
      </trkpt>
      <trkpt lat="4.5818070" lon="-74.2341800">
        <ele>2564.0</ele>
        <time>2018-08-10T13:46:33Z</time>
      </trkpt>
      <trkpt lat="4.5817980" lon="-74.2342420">
        <ele>2563.7</ele>
        <time>2018-08-10T13:46:34Z</time>
      </trkpt>
      <trkpt lat="4.5817930" lon="-74.2343030">
        <ele>2563.4</ele>
        <time>2018-08-10T13:46:35Z</time>
      </trkpt>
      <trkpt lat="4.5817870" lon="-74.2343650">
        <ele>2563.2</ele>
        <time>2018-08-10T13:46:36Z</time>
      </trkpt>
      <trkpt lat="4.5817800" lon="-74.2344270">
        <ele>2562.9</ele>
        <time>2018-08-10T13:46:37Z</time>
      </trkpt>
      <trkpt lat="4.5817730" lon="-74.2344880">
        <ele>2562.6</ele>
        <time>2018-08-10T13:46:38Z</time>
      </trkpt>
      <trkpt lat="4.5817630" lon="-74.2345520">
        <ele>2562.3</ele>
        <time>2018-08-10T13:46:39Z</time>
      </trkpt>
      <trkpt lat="4.5817570" lon="-74.2346150">
        <ele>2562.0</ele>
        <time>2018-08-10T13:46:40Z</time>
      </trkpt>
      <trkpt lat="4.5817530" lon="-74.2346800">
        <ele>2561.7</ele>
        <time>2018-08-10T13:46:41Z</time>
      </trkpt>
      <trkpt lat="4.5817470" lon="-74.2347430">
        <ele>2561.3</ele>
        <time>2018-08-10T13:46:42Z</time>
      </trkpt>
      <trkpt lat="4.5817400" lon="-74.2348080">
        <ele>2560.8</ele>
        <time>2018-08-10T13:46:43Z</time>
      </trkpt>
      <trkpt lat="4.5817330" lon="-74.2348720">
        <ele>2560.4</ele>
        <time>2018-08-10T13:46:44Z</time>
      </trkpt>
      <trkpt lat="4.5817300" lon="-74.2349350">
        <ele>2560.0</ele>
        <time>2018-08-10T13:46:45Z</time>
      </trkpt>
      <trkpt lat="4.5817270" lon="-74.2349950">
        <ele>2559.8</ele>
        <time>2018-08-10T13:46:46Z</time>
      </trkpt>
      <trkpt lat="4.5817230" lon="-74.2350570">
        <ele>2559.6</ele>
        <time>2018-08-10T13:46:47Z</time>
      </trkpt>
      <trkpt lat="4.5817200" lon="-74.2351150">
        <ele>2559.3</ele>
        <time>2018-08-10T13:46:48Z</time>
      </trkpt>
      <trkpt lat="4.5817150" lon="-74.2351730">
        <ele>2559.1</ele>
        <time>2018-08-10T13:46:49Z</time>
      </trkpt>
      <trkpt lat="4.5817100" lon="-74.2352330">
        <ele>2558.9</ele>
        <time>2018-08-10T13:46:50Z</time>
      </trkpt>
      <trkpt lat="4.5817020" lon="-74.2352950">
        <ele>2558.6</ele>
        <time>2018-08-10T13:46:51Z</time>
      </trkpt>
      <trkpt lat="4.5816980" lon="-74.2353550">
        <ele>2558.4</ele>
        <time>2018-08-10T13:46:52Z</time>
      </trkpt>
      <trkpt lat="4.5816950" lon="-74.2354150">
        <ele>2558.2</ele>
        <time>2018-08-10T13:46:53Z</time>
      </trkpt>
      <trkpt lat="4.5816900" lon="-74.2354750">
        <ele>2558.0</ele>
        <time>2018-08-10T13:46:54Z</time>
      </trkpt>
      <trkpt lat="4.5816850" lon="-74.2355330">
        <ele>2557.7</ele>
        <time>2018-08-10T13:46:55Z</time>
      </trkpt>
      <trkpt lat="4.5816820" lon="-74.2355920">
        <ele>2557.3</ele>
        <time>2018-08-10T13:46:56Z</time>
      </trkpt>
      <trkpt lat="4.5816770" lon="-74.2356500">
        <ele>2557.0</ele>
        <time>2018-08-10T13:46:57Z</time>
      </trkpt>
      <trkpt lat="4.5816730" lon="-74.2357070">
        <ele>2556.7</ele>
        <time>2018-08-10T13:46:58Z</time>
      </trkpt>
      <trkpt lat="4.5816700" lon="-74.2357650">
        <ele>2556.4</ele>
        <time>2018-08-10T13:46:59Z</time>
      </trkpt>
      <trkpt lat="4.5816700" lon="-74.2358230">
        <ele>2556.2</ele>
        <time>2018-08-10T13:47:00Z</time>
      </trkpt>
      <trkpt lat="4.5816680" lon="-74.2358830">
        <ele>2556.0</ele>
        <time>2018-08-10T13:47:01Z</time>
      </trkpt>
      <trkpt lat="4.5816720" lon="-74.2359420">
        <ele>2555.8</ele>
        <time>2018-08-10T13:47:02Z</time>
      </trkpt>
      <trkpt lat="4.5816700" lon="-74.2360000">
        <ele>2555.5</ele>
        <time>2018-08-10T13:47:03Z</time>
      </trkpt>
      <trkpt lat="4.5816700" lon="-74.2360620">
        <ele>2555.3</ele>
        <time>2018-08-10T13:47:04Z</time>
      </trkpt>
      <trkpt lat="4.5816720" lon="-74.2361230">
        <ele>2555.1</ele>
        <time>2018-08-10T13:47:05Z</time>
      </trkpt>
      <trkpt lat="4.5816720" lon="-74.2361850">
        <ele>2554.9</ele>
        <time>2018-08-10T13:47:06Z</time>
      </trkpt>
      <trkpt lat="4.5816720" lon="-74.2362500">
        <ele>2554.7</ele>
        <time>2018-08-10T13:47:07Z</time>
      </trkpt>
      <trkpt lat="4.5816720" lon="-74.2363170">
        <ele>2554.4</ele>
        <time>2018-08-10T13:47:08Z</time>
      </trkpt>
      <trkpt lat="4.5816750" lon="-74.2363830">
        <ele>2554.2</ele>
        <time>2018-08-10T13:47:09Z</time>
      </trkpt>
      <trkpt lat="4.5816770" lon="-74.2364480">
        <ele>2553.9</ele>
        <time>2018-08-10T13:47:10Z</time>
      </trkpt>
      <trkpt lat="4.5816770" lon="-74.2365170">
        <ele>2553.5</ele>
        <time>2018-08-10T13:47:11Z</time>
      </trkpt>
      <trkpt lat="4.5816800" lon="-74.2365880">
        <ele>2553.2</ele>
        <time>2018-08-10T13:47:12Z</time>
      </trkpt>
      <trkpt lat="4.5816820" lon="-74.2366570">
        <ele>2552.9</ele>
        <time>2018-08-10T13:47:13Z</time>
      </trkpt>
      <trkpt lat="4.5816830" lon="-74.2367250">
        <ele>2552.6</ele>
        <time>2018-08-10T13:47:14Z</time>
      </trkpt>
      <trkpt lat="4.5816870" lon="-74.2367950">
        <ele>2552.3</ele>
        <time>2018-08-10T13:47:15Z</time>
      </trkpt>
      <trkpt lat="4.5816930" lon="-74.2368630">
        <ele>2552.1</ele>
        <time>2018-08-10T13:47:16Z</time>
      </trkpt>
      <trkpt lat="4.5816970" lon="-74.2369330">
        <ele>2551.8</ele>
        <time>2018-08-10T13:47:17Z</time>
      </trkpt>
      <trkpt lat="4.5817030" lon="-74.2370030">
        <ele>2551.6</ele>
        <time>2018-08-10T13:47:18Z</time>
      </trkpt>
      <trkpt lat="4.5817100" lon="-74.2370750">
        <ele>2551.3</ele>
        <time>2018-08-10T13:47:19Z</time>
      </trkpt>
      <trkpt lat="4.5817130" lon="-74.2371420">
        <ele>2551.0</ele>
        <time>2018-08-10T13:47:20Z</time>
      </trkpt>
      <trkpt lat="4.5817180" lon="-74.2372100">
        <ele>2550.8</ele>
        <time>2018-08-10T13:47:21Z</time>
      </trkpt>
      <trkpt lat="4.5817220" lon="-74.2372780">
        <ele>2550.5</ele>
        <time>2018-08-10T13:47:22Z</time>
      </trkpt>
      <trkpt lat="4.5817270" lon="-74.2373450">
        <ele>2550.2</ele>
        <time>2018-08-10T13:47:23Z</time>
      </trkpt>
      <trkpt lat="4.5817350" lon="-74.2374100">
        <ele>2549.8</ele>
        <time>2018-08-10T13:47:24Z</time>
      </trkpt>
      <trkpt lat="4.5817400" lon="-74.2374750">
        <ele>2549.4</ele>
        <time>2018-08-10T13:47:25Z</time>
      </trkpt>
      <trkpt lat="4.5817430" lon="-74.2375400">
        <ele>2549.0</ele>
        <time>2018-08-10T13:47:26Z</time>
      </trkpt>
      <trkpt lat="4.5817500" lon="-74.2376070">
        <ele>2549.2</ele>
        <time>2018-08-10T13:47:27Z</time>
      </trkpt>
      <trkpt lat="4.5817520" lon="-74.2376700">
        <ele>2549.5</ele>
        <time>2018-08-10T13:47:28Z</time>
      </trkpt>
      <trkpt lat="4.5817500" lon="-74.2377330">
        <ele>2549.6</ele>
        <time>2018-08-10T13:47:29Z</time>
      </trkpt>
      <trkpt lat="4.5817520" lon="-74.2378000">
        <ele>2549.6</ele>
        <time>2018-08-10T13:47:30Z</time>
      </trkpt>
      <trkpt lat="4.5817500" lon="-74.2378630">
        <ele>2549.7</ele>
        <time>2018-08-10T13:47:31Z</time>
      </trkpt>
      <trkpt lat="4.5817470" lon="-74.2379270">
        <ele>2549.8</ele>
        <time>2018-08-10T13:47:32Z</time>
      </trkpt>
      <trkpt lat="4.5817420" lon="-74.2379900">
        <ele>2549.9</ele>
        <time>2018-08-10T13:47:33Z</time>
      </trkpt>
      <trkpt lat="4.5817380" lon="-74.2380550">
        <ele>2549.9</ele>
        <time>2018-08-10T13:47:34Z</time>
      </trkpt>
      <trkpt lat="4.5817350" lon="-74.2381180">
        <ele>2550.0</ele>
        <time>2018-08-10T13:47:35Z</time>
      </trkpt>
      <trkpt lat="4.5817230" lon="-74.2381820">
        <ele>2550.1</ele>
        <time>2018-08-10T13:47:36Z</time>
      </trkpt>
      <trkpt lat="4.5817080" lon="-74.2382450">
        <ele>2550.2</ele>
        <time>2018-08-10T13:47:37Z</time>
      </trkpt>
      <trkpt lat="4.5816980" lon="-74.2383100">
        <ele>2550.3</ele>
        <time>2018-08-10T13:47:38Z</time>
      </trkpt>
      <trkpt lat="4.5816900" lon="-74.2383730">
        <ele>2550.3</ele>
        <time>2018-08-10T13:47:39Z</time>
      </trkpt>
      <trkpt lat="4.5816780" lon="-74.2384350">
        <ele>2550.4</ele>
        <time>2018-08-10T13:47:40Z</time>
      </trkpt>
      <trkpt lat="4.5816650" lon="-74.2384980">
        <ele>2550.5</ele>
        <time>2018-08-10T13:47:41Z</time>
      </trkpt>
      <trkpt lat="4.5816500" lon="-74.2385630">
        <ele>2550.5</ele>
        <time>2018-08-10T13:47:42Z</time>
      </trkpt>
      <trkpt lat="4.5816370" lon="-74.2386270">
        <ele>2550.6</ele>
        <time>2018-08-10T13:47:43Z</time>
      </trkpt>
      <trkpt lat="4.5816230" lon="-74.2386920">
        <ele>2550.7</ele>
        <time>2018-08-10T13:47:44Z</time>
      </trkpt>
      <trkpt lat="4.5816120" lon="-74.2387550">
        <ele>2550.7</ele>
        <time>2018-08-10T13:47:45Z</time>
      </trkpt>
      <trkpt lat="4.5815950" lon="-74.2388200">
        <ele>2550.8</ele>
        <time>2018-08-10T13:47:46Z</time>
      </trkpt>
      <trkpt lat="4.5815780" lon="-74.2388870">
        <ele>2550.9</ele>
        <time>2018-08-10T13:47:47Z</time>
      </trkpt>
      <trkpt lat="4.5815620" lon="-74.2389530">
        <ele>2551.0</ele>
        <time>2018-08-10T13:47:48Z</time>
      </trkpt>
      <trkpt lat="4.5815470" lon="-74.2390180">
        <ele>2551.1</ele>
        <time>2018-08-10T13:47:49Z</time>
      </trkpt>
      <trkpt lat="4.5815320" lon="-74.2390820">
        <ele>2551.3</ele>
        <time>2018-08-10T13:47:50Z</time>
      </trkpt>
      <trkpt lat="4.5815150" lon="-74.2391470">
        <ele>2551.6</ele>
        <time>2018-08-10T13:47:51Z</time>
      </trkpt>
      <trkpt lat="4.5815000" lon="-74.2392120">
        <ele>2551.8</ele>
        <time>2018-08-10T13:47:52Z</time>
      </trkpt>
      <trkpt lat="4.5814830" lon="-74.2392770">
        <ele>2552.0</ele>
        <time>2018-08-10T13:47:53Z</time>
      </trkpt>
      <trkpt lat="4.5814700" lon="-74.2393420">
        <ele>2552.3</ele>
        <time>2018-08-10T13:47:54Z</time>
      </trkpt>
      <trkpt lat="4.5814550" lon="-74.2394070">
        <ele>2552.5</ele>
        <time>2018-08-10T13:47:55Z</time>
      </trkpt>
      <trkpt lat="4.5814400" lon="-74.2394730">
        <ele>2552.7</ele>
        <time>2018-08-10T13:47:56Z</time>
      </trkpt>
      <trkpt lat="4.5814270" lon="-74.2395420">
        <ele>2553.0</ele>
        <time>2018-08-10T13:47:57Z</time>
      </trkpt>
      <trkpt lat="4.5814130" lon="-74.2396080">
        <ele>2553.2</ele>
        <time>2018-08-10T13:47:58Z</time>
      </trkpt>
      <trkpt lat="4.5814020" lon="-74.2396750">
        <ele>2553.5</ele>
        <time>2018-08-10T13:47:59Z</time>
      </trkpt>
      <trkpt lat="4.5813880" lon="-74.2397420">
        <ele>2553.8</ele>
        <time>2018-08-10T13:48:00Z</time>
      </trkpt>
      <trkpt lat="4.5813680" lon="-74.2398100">
        <ele>2554.1</ele>
        <time>2018-08-10T13:48:01Z</time>
      </trkpt>
      <trkpt lat="4.5813530" lon="-74.2398780">
        <ele>2554.3</ele>
        <time>2018-08-10T13:48:02Z</time>
      </trkpt>
      <trkpt lat="4.5813400" lon="-74.2399450">
        <ele>2554.6</ele>
        <time>2018-08-10T13:48:03Z</time>
      </trkpt>
      <trkpt lat="4.5813270" lon="-74.2400120">
        <ele>2554.7</ele>
        <time>2018-08-10T13:48:04Z</time>
      </trkpt>
      <trkpt lat="4.5813100" lon="-74.2400820">
        <ele>2554.9</ele>
        <time>2018-08-10T13:48:05Z</time>
      </trkpt>
      <trkpt lat="4.5812950" lon="-74.2401520">
        <ele>2555.1</ele>
        <time>2018-08-10T13:48:06Z</time>
      </trkpt>
      <trkpt lat="4.5812770" lon="-74.2402220">
        <ele>2555.3</ele>
        <time>2018-08-10T13:48:07Z</time>
      </trkpt>
      <trkpt lat="4.5812600" lon="-74.2402900">
        <ele>2555.5</ele>
        <time>2018-08-10T13:48:08Z</time>
      </trkpt>
      <trkpt lat="4.5812470" lon="-74.2403580">
        <ele>2555.6</ele>
        <time>2018-08-10T13:48:09Z</time>
      </trkpt>
      <trkpt lat="4.5812300" lon="-74.2404270">
        <ele>2555.8</ele>
        <time>2018-08-10T13:48:10Z</time>
      </trkpt>
      <trkpt lat="4.5812130" lon="-74.2404950">
        <ele>2556.0</ele>
        <time>2018-08-10T13:48:11Z</time>
      </trkpt>
      <trkpt lat="4.5811970" lon="-74.2405630">
        <ele>2556.0</ele>
        <time>2018-08-10T13:48:12Z</time>
      </trkpt>
      <trkpt lat="4.5811800" lon="-74.2406300">
        <ele>2555.9</ele>
        <time>2018-08-10T13:48:13Z</time>
      </trkpt>
      <trkpt lat="4.5811650" lon="-74.2406980">
        <ele>2555.8</ele>
        <time>2018-08-10T13:48:14Z</time>
      </trkpt>
      <trkpt lat="4.5811480" lon="-74.2407670">
        <ele>2556.2</ele>
        <time>2018-08-10T13:48:15Z</time>
      </trkpt>
      <trkpt lat="4.5811320" lon="-74.2408330">
        <ele>2557.0</ele>
        <time>2018-08-10T13:48:16Z</time>
      </trkpt>
      <trkpt lat="4.5811130" lon="-74.2409000">
        <ele>2558.1</ele>
        <time>2018-08-10T13:48:17Z</time>
      </trkpt>
      <trkpt lat="4.5810970" lon="-74.2409680">
        <ele>2559.8</ele>
        <time>2018-08-10T13:48:18Z</time>
      </trkpt>
      <trkpt lat="4.5810780" lon="-74.2410350">
        <ele>2561.4</ele>
        <time>2018-08-10T13:48:19Z</time>
      </trkpt>
      <trkpt lat="4.5810620" lon="-74.2411030">
        <ele>2562.4</ele>
        <time>2018-08-10T13:48:20Z</time>
      </trkpt>
      <trkpt lat="4.5810470" lon="-74.2411720">
        <ele>2562.6</ele>
        <time>2018-08-10T13:48:21Z</time>
      </trkpt>
      <trkpt lat="4.5810320" lon="-74.2412380">
        <ele>2562.3</ele>
        <time>2018-08-10T13:48:22Z</time>
      </trkpt>
      <trkpt lat="4.5810180" lon="-74.2413030">
        <ele>2561.4</ele>
        <time>2018-08-10T13:48:23Z</time>
      </trkpt>
      <trkpt lat="4.5810030" lon="-74.2413720">
        <ele>2560.2</ele>
        <time>2018-08-10T13:48:24Z</time>
      </trkpt>
      <trkpt lat="4.5809870" lon="-74.2414380">
        <ele>2558.9</ele>
        <time>2018-08-10T13:48:25Z</time>
      </trkpt>
      <trkpt lat="4.5809700" lon="-74.2415050">
        <ele>2557.4</ele>
        <time>2018-08-10T13:48:26Z</time>
      </trkpt>
      <trkpt lat="4.5809570" lon="-74.2415720">
        <ele>2555.0</ele>
        <time>2018-08-10T13:48:27Z</time>
      </trkpt>
      <trkpt lat="4.5809420" lon="-74.2416380">
        <ele>2555.0</ele>
        <time>2018-08-10T13:48:28Z</time>
      </trkpt>
      <trkpt lat="4.5809270" lon="-74.2417070">
        <ele>2555.0</ele>
        <time>2018-08-10T13:48:29Z</time>
      </trkpt>
      <trkpt lat="4.5809130" lon="-74.2417750">
        <ele>2555.0</ele>
        <time>2018-08-10T13:48:30Z</time>
      </trkpt>
      <trkpt lat="4.5809000" lon="-74.2418450">
        <ele>2555.0</ele>
        <time>2018-08-10T13:48:31Z</time>
      </trkpt>
      <trkpt lat="4.5808850" lon="-74.2419170">
        <ele>2554.7</ele>
        <time>2018-08-10T13:48:32Z</time>
      </trkpt>
      <trkpt lat="4.5808680" lon="-74.2419880">
        <ele>2553.8</ele>
        <time>2018-08-10T13:48:33Z</time>
      </trkpt>
      <trkpt lat="4.5808530" lon="-74.2420600">
        <ele>2553.1</ele>
        <time>2018-08-10T13:48:34Z</time>
      </trkpt>
      <trkpt lat="4.5808370" lon="-74.2421330">
        <ele>2552.4</ele>
        <time>2018-08-10T13:48:35Z</time>
      </trkpt>
      <trkpt lat="4.5808220" lon="-74.2422050">
        <ele>2551.8</ele>
        <time>2018-08-10T13:48:36Z</time>
      </trkpt>
      <trkpt lat="4.5808050" lon="-74.2422770">
        <ele>2551.3</ele>
        <time>2018-08-10T13:48:37Z</time>
      </trkpt>
      <trkpt lat="4.5807880" lon="-74.2423470">
        <ele>2550.8</ele>
        <time>2018-08-10T13:48:38Z</time>
      </trkpt>
      <trkpt lat="4.5807700" lon="-74.2424150">
        <ele>2550.4</ele>
        <time>2018-08-10T13:48:39Z</time>
      </trkpt>
      <trkpt lat="4.5807530" lon="-74.2424850">
        <ele>2549.9</ele>
        <time>2018-08-10T13:48:40Z</time>
      </trkpt>
      <trkpt lat="4.5807370" lon="-74.2425580">
        <ele>2549.4</ele>
        <time>2018-08-10T13:48:41Z</time>
      </trkpt>
      <trkpt lat="4.5807200" lon="-74.2426300">
        <ele>2549.0</ele>
        <time>2018-08-10T13:48:42Z</time>
      </trkpt>
      <trkpt lat="4.5807030" lon="-74.2427030">
        <ele>2549.1</ele>
        <time>2018-08-10T13:48:43Z</time>
      </trkpt>
      <trkpt lat="4.5806870" lon="-74.2427730">
        <ele>2549.5</ele>
        <time>2018-08-10T13:48:44Z</time>
      </trkpt>
      <trkpt lat="4.5806750" lon="-74.2428430">
        <ele>2549.8</ele>
        <time>2018-08-10T13:48:45Z</time>
      </trkpt>
      <trkpt lat="4.5806620" lon="-74.2429130">
        <ele>2549.9</ele>
        <time>2018-08-10T13:48:46Z</time>
      </trkpt>
      <trkpt lat="4.5806430" lon="-74.2429830">
        <ele>2549.8</ele>
        <time>2018-08-10T13:48:47Z</time>
      </trkpt>
      <trkpt lat="4.5806230" lon="-74.2430570">
        <ele>2549.7</ele>
        <time>2018-08-10T13:48:48Z</time>
      </trkpt>
      <trkpt lat="4.5806050" lon="-74.2431280">
        <ele>2549.1</ele>
        <time>2018-08-10T13:48:49Z</time>
      </trkpt>
      <trkpt lat="4.5805880" lon="-74.2432000">
        <ele>2549.0</ele>
        <time>2018-08-10T13:48:50Z</time>
      </trkpt>
      <trkpt lat="4.5805680" lon="-74.2432730">
        <ele>2549.5</ele>
        <time>2018-08-10T13:48:51Z</time>
      </trkpt>
      <trkpt lat="4.5805530" lon="-74.2433470">
        <ele>2549.9</ele>
        <time>2018-08-10T13:48:52Z</time>
      </trkpt>
      <trkpt lat="4.5805380" lon="-74.2434200">
        <ele>2550.4</ele>
        <time>2018-08-10T13:48:53Z</time>
      </trkpt>
      <trkpt lat="4.5805220" lon="-74.2434920">
        <ele>2550.8</ele>
        <time>2018-08-10T13:48:54Z</time>
      </trkpt>
      <trkpt lat="4.5805070" lon="-74.2435630">
        <ele>2551.2</ele>
        <time>2018-08-10T13:48:55Z</time>
      </trkpt>
      <trkpt lat="4.5804930" lon="-74.2436350">
        <ele>2551.5</ele>
        <time>2018-08-10T13:48:56Z</time>
      </trkpt>
      <trkpt lat="4.5804770" lon="-74.2437070">
        <ele>2551.8</ele>
        <time>2018-08-10T13:48:57Z</time>
      </trkpt>
      <trkpt lat="4.5804600" lon="-74.2437780">
        <ele>2552.0</ele>
        <time>2018-08-10T13:48:58Z</time>
      </trkpt>
      <trkpt lat="4.5804420" lon="-74.2438470">
        <ele>2552.3</ele>
        <time>2018-08-10T13:48:59Z</time>
      </trkpt>
      <trkpt lat="4.5804230" lon="-74.2439150">
        <ele>2552.6</ele>
        <time>2018-08-10T13:49:00Z</time>
      </trkpt>
      <trkpt lat="4.5804050" lon="-74.2439850">
        <ele>2552.9</ele>
        <time>2018-08-10T13:49:01Z</time>
      </trkpt>
      <trkpt lat="4.5803880" lon="-74.2440550">
        <ele>2553.1</ele>
        <time>2018-08-10T13:49:02Z</time>
      </trkpt>
      <trkpt lat="4.5803700" lon="-74.2441230">
        <ele>2553.4</ele>
        <time>2018-08-10T13:49:03Z</time>
      </trkpt>
      <trkpt lat="4.5803570" lon="-74.2441950">
        <ele>2553.7</ele>
        <time>2018-08-10T13:49:04Z</time>
      </trkpt>
      <trkpt lat="4.5803420" lon="-74.2442650">
        <ele>2553.9</ele>
        <time>2018-08-10T13:49:05Z</time>
      </trkpt>
      <trkpt lat="4.5803220" lon="-74.2443350">
        <ele>2554.2</ele>
        <time>2018-08-10T13:49:06Z</time>
      </trkpt>
      <trkpt lat="4.5803030" lon="-74.2444050">
        <ele>2554.5</ele>
        <time>2018-08-10T13:49:07Z</time>
      </trkpt>
      <trkpt lat="4.5802870" lon="-74.2444730">
        <ele>2554.7</ele>
        <time>2018-08-10T13:49:08Z</time>
      </trkpt>
      <trkpt lat="4.5802680" lon="-74.2445430">
        <ele>2555.0</ele>
        <time>2018-08-10T13:49:09Z</time>
      </trkpt>
      <trkpt lat="4.5802480" lon="-74.2446120">
        <ele>2555.0</ele>
        <time>2018-08-10T13:49:10Z</time>
      </trkpt>
      <trkpt lat="4.5802350" lon="-74.2446820">
        <ele>2555.2</ele>
        <time>2018-08-10T13:49:11Z</time>
      </trkpt>
      <trkpt lat="4.5802200" lon="-74.2447520">
        <ele>2555.3</ele>
        <time>2018-08-10T13:49:12Z</time>
      </trkpt>
      <trkpt lat="4.5802030" lon="-74.2448200">
        <ele>2555.6</ele>
        <time>2018-08-10T13:49:13Z</time>
      </trkpt>
      <trkpt lat="4.5801850" lon="-74.2448870">
        <ele>2556.2</ele>
        <time>2018-08-10T13:49:14Z</time>
      </trkpt>
      <trkpt lat="4.5801680" lon="-74.2449550">
        <ele>2557.3</ele>
        <time>2018-08-10T13:49:15Z</time>
      </trkpt>
      <trkpt lat="4.5801500" lon="-74.2450250">
        <ele>2558.2</ele>
        <time>2018-08-10T13:49:16Z</time>
      </trkpt>
      <trkpt lat="4.5801330" lon="-74.2450950">
        <ele>2559.0</ele>
        <time>2018-08-10T13:49:17Z</time>
      </trkpt>
      <trkpt lat="4.5801180" lon="-74.2451650">
        <ele>2559.5</ele>
        <time>2018-08-10T13:49:18Z</time>
      </trkpt>
      <trkpt lat="4.5801030" lon="-74.2452370">
        <ele>2559.6</ele>
        <time>2018-08-10T13:49:19Z</time>
      </trkpt>
      <trkpt lat="4.5800870" lon="-74.2453070">
        <ele>2559.6</ele>
        <time>2018-08-10T13:49:20Z</time>
      </trkpt>
      <trkpt lat="4.5800680" lon="-74.2453770">
        <ele>2559.0</ele>
        <time>2018-08-10T13:49:21Z</time>
      </trkpt>
      <trkpt lat="4.5800520" lon="-74.2454480">
        <ele>2558.7</ele>
        <time>2018-08-10T13:49:22Z</time>
      </trkpt>
      <trkpt lat="4.5800380" lon="-74.2455170">
        <ele>2558.3</ele>
        <time>2018-08-10T13:49:23Z</time>
      </trkpt>
      <trkpt lat="4.5800230" lon="-74.2455870">
        <ele>2557.7</ele>
        <time>2018-08-10T13:49:24Z</time>
      </trkpt>
      <trkpt lat="4.5800080" lon="-74.2456550">
        <ele>2557.2</ele>
        <time>2018-08-10T13:49:25Z</time>
      </trkpt>
      <trkpt lat="4.5799900" lon="-74.2457250">
        <ele>2556.3</ele>
        <time>2018-08-10T13:49:26Z</time>
      </trkpt>
      <trkpt lat="4.5799750" lon="-74.2457950">
        <ele>2555.0</ele>
        <time>2018-08-10T13:49:27Z</time>
      </trkpt>
      <trkpt lat="4.5799580" lon="-74.2458650">
        <ele>2554.7</ele>
        <time>2018-08-10T13:49:28Z</time>
      </trkpt>
      <trkpt lat="4.5799400" lon="-74.2459370">
        <ele>2554.4</ele>
        <time>2018-08-10T13:49:29Z</time>
      </trkpt>
      <trkpt lat="4.5799230" lon="-74.2460080">
        <ele>2554.1</ele>
        <time>2018-08-10T13:49:30Z</time>
      </trkpt>
      <trkpt lat="4.5799080" lon="-74.2460820">
        <ele>2553.7</ele>
        <time>2018-08-10T13:49:31Z</time>
      </trkpt>
      <trkpt lat="4.5798950" lon="-74.2461520">
        <ele>2553.4</ele>
        <time>2018-08-10T13:49:32Z</time>
      </trkpt>
      <trkpt lat="4.5798800" lon="-74.2462230">
        <ele>2553.2</ele>
        <time>2018-08-10T13:49:33Z</time>
      </trkpt>
      <trkpt lat="4.5798650" lon="-74.2462950">
        <ele>2553.0</ele>
        <time>2018-08-10T13:49:34Z</time>
      </trkpt>
      <trkpt lat="4.5798480" lon="-74.2463650">
        <ele>2552.8</ele>
        <time>2018-08-10T13:49:35Z</time>
      </trkpt>
      <trkpt lat="4.5798330" lon="-74.2464350">
        <ele>2552.6</ele>
        <time>2018-08-10T13:49:36Z</time>
      </trkpt>
      <trkpt lat="4.5798180" lon="-74.2465030">
        <ele>2552.4</ele>
        <time>2018-08-10T13:49:37Z</time>
      </trkpt>
      <trkpt lat="4.5798020" lon="-74.2465720">
        <ele>2552.2</ele>
        <time>2018-08-10T13:49:38Z</time>
      </trkpt>
      <trkpt lat="4.5797870" lon="-74.2466400">
        <ele>2552.0</ele>
        <time>2018-08-10T13:49:39Z</time>
      </trkpt>
      <trkpt lat="4.5797720" lon="-74.2467070">
        <ele>2551.8</ele>
        <time>2018-08-10T13:49:40Z</time>
      </trkpt>
      <trkpt lat="4.5797570" lon="-74.2467750">
        <ele>2551.6</ele>
        <time>2018-08-10T13:49:41Z</time>
      </trkpt>
      <trkpt lat="4.5797430" lon="-74.2468430">
        <ele>2551.4</ele>
        <time>2018-08-10T13:49:42Z</time>
      </trkpt>
      <trkpt lat="4.5797320" lon="-74.2469120">
        <ele>2551.2</ele>
        <time>2018-08-10T13:49:43Z</time>
      </trkpt>
      <trkpt lat="4.5797180" lon="-74.2469780">
        <ele>2551.0</ele>
        <time>2018-08-10T13:49:44Z</time>
      </trkpt>
      <trkpt lat="4.5797030" lon="-74.2470480">
        <ele>2550.8</ele>
        <time>2018-08-10T13:49:45Z</time>
      </trkpt>
      <trkpt lat="4.5796880" lon="-74.2471130">
        <ele>2550.6</ele>
        <time>2018-08-10T13:49:46Z</time>
      </trkpt>
      <trkpt lat="4.5796750" lon="-74.2471800">
        <ele>2550.4</ele>
        <time>2018-08-10T13:49:47Z</time>
      </trkpt>
      <trkpt lat="4.5796620" lon="-74.2472480">
        <ele>2550.2</ele>
        <time>2018-08-10T13:49:48Z</time>
      </trkpt>
      <trkpt lat="4.5796520" lon="-74.2473150">
        <ele>2550.1</ele>
        <time>2018-08-10T13:49:49Z</time>
      </trkpt>
      <trkpt lat="4.5796350" lon="-74.2473820">
        <ele>2549.9</ele>
        <time>2018-08-10T13:49:50Z</time>
      </trkpt>
      <trkpt lat="4.5796180" lon="-74.2474500">
        <ele>2549.8</ele>
        <time>2018-08-10T13:49:51Z</time>
      </trkpt>
      <trkpt lat="4.5796030" lon="-74.2475180">
        <ele>2549.6</ele>
        <time>2018-08-10T13:49:52Z</time>
      </trkpt>
      <trkpt lat="4.5795850" lon="-74.2475870">
        <ele>2549.5</ele>
        <time>2018-08-10T13:49:53Z</time>
      </trkpt>
      <trkpt lat="4.5795650" lon="-74.2476530">
        <ele>2549.3</ele>
        <time>2018-08-10T13:49:54Z</time>
      </trkpt>
      <trkpt lat="4.5795500" lon="-74.2477220">
        <ele>2549.2</ele>
        <time>2018-08-10T13:49:55Z</time>
      </trkpt>
      <trkpt lat="4.5795320" lon="-74.2477920">
        <ele>2549.0</ele>
        <time>2018-08-10T13:49:56Z</time>
      </trkpt>
      <trkpt lat="4.5795180" lon="-74.2478620">
        <ele>2548.8</ele>
        <time>2018-08-10T13:49:57Z</time>
      </trkpt>
      <trkpt lat="4.5795050" lon="-74.2479300">
        <ele>2548.7</ele>
        <time>2018-08-10T13:49:58Z</time>
      </trkpt>
      <trkpt lat="4.5794920" lon="-74.2479970">
        <ele>2548.5</ele>
        <time>2018-08-10T13:49:59Z</time>
      </trkpt>
      <trkpt lat="4.5794730" lon="-74.2480630">
        <ele>2548.3</ele>
        <time>2018-08-10T13:50:00Z</time>
      </trkpt>
      <trkpt lat="4.5794580" lon="-74.2481300">
        <ele>2548.2</ele>
        <time>2018-08-10T13:50:01Z</time>
      </trkpt>
      <trkpt lat="4.5794500" lon="-74.2481980">
        <ele>2548.0</ele>
        <time>2018-08-10T13:50:02Z</time>
      </trkpt>
      <trkpt lat="4.5794370" lon="-74.2482680">
        <ele>2547.7</ele>
        <time>2018-08-10T13:50:03Z</time>
      </trkpt>
      <trkpt lat="4.5794220" lon="-74.2483400">
        <ele>2547.5</ele>
        <time>2018-08-10T13:50:04Z</time>
      </trkpt>
      <trkpt lat="4.5794070" lon="-74.2484080">
        <ele>2547.2</ele>
        <time>2018-08-10T13:50:05Z</time>
      </trkpt>
      <trkpt lat="4.5793850" lon="-74.2484800">
        <ele>2547.0</ele>
        <time>2018-08-10T13:50:06Z</time>
      </trkpt>
      <trkpt lat="4.5793700" lon="-74.2485550">
        <ele>2547.0</ele>
        <time>2018-08-10T13:50:07Z</time>
      </trkpt>
      <trkpt lat="4.5793530" lon="-74.2486270">
        <ele>2547.0</ele>
        <time>2018-08-10T13:50:08Z</time>
      </trkpt>
      <trkpt lat="4.5793420" lon="-74.2487000">
        <ele>2547.0</ele>
        <time>2018-08-10T13:50:09Z</time>
      </trkpt>
      <trkpt lat="4.5793230" lon="-74.2487720">
        <ele>2547.0</ele>
        <time>2018-08-10T13:50:10Z</time>
      </trkpt>
      <trkpt lat="4.5793080" lon="-74.2488420">
        <ele>2547.0</ele>
        <time>2018-08-10T13:50:11Z</time>
      </trkpt>
      <trkpt lat="4.5792900" lon="-74.2489150">
        <ele>2547.0</ele>
        <time>2018-08-10T13:50:12Z</time>
      </trkpt>
      <trkpt lat="4.5792780" lon="-74.2489920">
        <ele>2547.0</ele>
        <time>2018-08-10T13:50:13Z</time>
      </trkpt>
      <trkpt lat="4.5792600" lon="-74.2490650">
        <ele>2547.0</ele>
        <time>2018-08-10T13:50:14Z</time>
      </trkpt>
      <trkpt lat="4.5792470" lon="-74.2491400">
        <ele>2545.8</ele>
        <time>2018-08-10T13:50:15Z</time>
      </trkpt>
      <trkpt lat="4.5792330" lon="-74.2492080">
        <ele>2544.5</ele>
        <time>2018-08-10T13:50:16Z</time>
      </trkpt>
      <trkpt lat="4.5792170" lon="-74.2492820">
        <ele>2543.1</ele>
        <time>2018-08-10T13:50:17Z</time>
      </trkpt>
      <trkpt lat="4.5791980" lon="-74.2493530">
        <ele>2541.8</ele>
        <time>2018-08-10T13:50:18Z</time>
      </trkpt>
      <trkpt lat="4.5791720" lon="-74.2494250">
        <ele>2541.0</ele>
        <time>2018-08-10T13:50:19Z</time>
      </trkpt>
      <trkpt lat="4.5791450" lon="-74.2495020">
        <ele>2540.3</ele>
        <time>2018-08-10T13:50:20Z</time>
      </trkpt>
      <trkpt lat="4.5791180" lon="-74.2495770">
        <ele>2539.7</ele>
        <time>2018-08-10T13:50:21Z</time>
      </trkpt>
      <trkpt lat="4.5790920" lon="-74.2496530">
        <ele>2539.2</ele>
        <time>2018-08-10T13:50:22Z</time>
      </trkpt>
      <trkpt lat="4.5790680" lon="-74.2497330">
        <ele>2538.9</ele>
        <time>2018-08-10T13:50:23Z</time>
      </trkpt>
      <trkpt lat="4.5790400" lon="-74.2498130">
        <ele>2538.7</ele>
        <time>2018-08-10T13:50:24Z</time>
      </trkpt>
      <trkpt lat="4.5790130" lon="-74.2498980">
        <ele>2538.5</ele>
        <time>2018-08-10T13:50:25Z</time>
      </trkpt>
      <trkpt lat="4.5789830" lon="-74.2499870">
        <ele>2538.2</ele>
        <time>2018-08-10T13:50:26Z</time>
      </trkpt>
      <trkpt lat="4.5789480" lon="-74.2500720">
        <ele>2538.0</ele>
        <time>2018-08-10T13:50:27Z</time>
      </trkpt>
      <trkpt lat="4.5789120" lon="-74.2501620">
        <ele>2537.9</ele>
        <time>2018-08-10T13:50:28Z</time>
      </trkpt>
      <trkpt lat="4.5788800" lon="-74.2502550">
        <ele>2537.9</ele>
        <time>2018-08-10T13:50:29Z</time>
      </trkpt>
      <trkpt lat="4.5788470" lon="-74.2503480">
        <ele>2538.0</ele>
        <time>2018-08-10T13:50:30Z</time>
      </trkpt>
      <trkpt lat="4.5788070" lon="-74.2504420">
        <ele>2538.1</ele>
        <time>2018-08-10T13:50:31Z</time>
      </trkpt>
      <trkpt lat="4.5787720" lon="-74.2505350">
        <ele>2538.2</ele>
        <time>2018-08-10T13:50:32Z</time>
      </trkpt>
      <trkpt lat="4.5787380" lon="-74.2506280">
        <ele>2538.2</ele>
        <time>2018-08-10T13:50:33Z</time>
      </trkpt>
      <trkpt lat="4.5786970" lon="-74.2507200">
        <ele>2538.2</ele>
        <time>2018-08-10T13:50:34Z</time>
      </trkpt>
      <trkpt lat="4.5786570" lon="-74.2508120">
        <ele>2538.2</ele>
        <time>2018-08-10T13:50:35Z</time>
      </trkpt>
      <trkpt lat="4.5786180" lon="-74.2508970">
        <ele>2538.2</ele>
        <time>2018-08-10T13:50:36Z</time>
      </trkpt>
      <trkpt lat="4.5785870" lon="-74.2509800">
        <ele>2538.2</ele>
        <time>2018-08-10T13:50:37Z</time>
      </trkpt>
      <trkpt lat="4.5785550" lon="-74.2510600">
        <ele>2538.2</ele>
        <time>2018-08-10T13:50:38Z</time>
      </trkpt>
      <trkpt lat="4.5785230" lon="-74.2511380">
        <ele>2538.2</ele>
        <time>2018-08-10T13:50:39Z</time>
      </trkpt>
      <trkpt lat="4.5784920" lon="-74.2512200">
        <ele>2538.1</ele>
        <time>2018-08-10T13:50:40Z</time>
      </trkpt>
      <trkpt lat="4.5784630" lon="-74.2513000">
        <ele>2538.1</ele>
        <time>2018-08-10T13:50:41Z</time>
      </trkpt>
      <trkpt lat="4.5784330" lon="-74.2513770">
        <ele>2538.1</ele>
        <time>2018-08-10T13:50:42Z</time>
      </trkpt>
      <trkpt lat="4.5784050" lon="-74.2514480">
        <ele>2538.1</ele>
        <time>2018-08-10T13:50:43Z</time>
      </trkpt>
      <trkpt lat="4.5783780" lon="-74.2515150">
        <ele>2538.1</ele>
        <time>2018-08-10T13:50:44Z</time>
      </trkpt>
      <trkpt lat="4.5783520" lon="-74.2515830">
        <ele>2538.0</ele>
        <time>2018-08-10T13:50:45Z</time>
      </trkpt>
      <trkpt lat="4.5783220" lon="-74.2516530">
        <ele>2538.0</ele>
        <time>2018-08-10T13:50:46Z</time>
      </trkpt>
      <trkpt lat="4.5782930" lon="-74.2517230">
        <ele>2538.1</ele>
        <time>2018-08-10T13:50:47Z</time>
      </trkpt>
      <trkpt lat="4.5782680" lon="-74.2517930">
        <ele>2538.2</ele>
        <time>2018-08-10T13:50:48Z</time>
      </trkpt>
      <trkpt lat="4.5782420" lon="-74.2518600">
        <ele>2538.3</ele>
        <time>2018-08-10T13:50:49Z</time>
      </trkpt>
      <trkpt lat="4.5782170" lon="-74.2519250">
        <ele>2538.5</ele>
        <time>2018-08-10T13:50:50Z</time>
      </trkpt>
      <trkpt lat="4.5781930" lon="-74.2519870">
        <ele>2538.6</ele>
        <time>2018-08-10T13:50:51Z</time>
      </trkpt>
      <trkpt lat="4.5781700" lon="-74.2520520">
        <ele>2538.7</ele>
        <time>2018-08-10T13:50:52Z</time>
      </trkpt>
      <trkpt lat="4.5781450" lon="-74.2521130">
        <ele>2538.8</ele>
        <time>2018-08-10T13:50:53Z</time>
      </trkpt>
      <trkpt lat="4.5781220" lon="-74.2521720">
        <ele>2538.9</ele>
        <time>2018-08-10T13:50:54Z</time>
      </trkpt>
      <trkpt lat="4.5780970" lon="-74.2522300">
        <ele>2539.0</ele>
        <time>2018-08-10T13:50:55Z</time>
      </trkpt>
      <trkpt lat="4.5780700" lon="-74.2522880">
        <ele>2539.1</ele>
        <time>2018-08-10T13:50:56Z</time>
      </trkpt>
      <trkpt lat="4.5780480" lon="-74.2523470">
        <ele>2539.3</ele>
        <time>2018-08-10T13:50:57Z</time>
      </trkpt>
      <trkpt lat="4.5780200" lon="-74.2524030">
        <ele>2539.5</ele>
        <time>2018-08-10T13:50:58Z</time>
      </trkpt>
      <trkpt lat="4.5779970" lon="-74.2524580">
        <ele>2539.7</ele>
        <time>2018-08-10T13:50:59Z</time>
      </trkpt>
      <trkpt lat="4.5779770" lon="-74.2525170">
        <ele>2539.8</ele>
        <time>2018-08-10T13:51:00Z</time>
      </trkpt>
      <trkpt lat="4.5779530" lon="-74.2525750">
        <ele>2540.0</ele>
        <time>2018-08-10T13:51:01Z</time>
      </trkpt>
      <trkpt lat="4.5779280" lon="-74.2526370">
        <ele>2540.1</ele>
        <time>2018-08-10T13:51:02Z</time>
      </trkpt>
      <trkpt lat="4.5779020" lon="-74.2526980">
        <ele>2540.1</ele>
        <time>2018-08-10T13:51:03Z</time>
      </trkpt>
      <trkpt lat="4.5778750" lon="-74.2527620">
        <ele>2540.1</ele>
        <time>2018-08-10T13:51:04Z</time>
      </trkpt>
      <trkpt lat="4.5778530" lon="-74.2528270">
        <ele>2540.2</ele>
        <time>2018-08-10T13:51:05Z</time>
      </trkpt>
      <trkpt lat="4.5778280" lon="-74.2528900">
        <ele>2540.2</ele>
        <time>2018-08-10T13:51:06Z</time>
      </trkpt>
      <trkpt lat="4.5778070" lon="-74.2529550">
        <ele>2540.3</ele>
        <time>2018-08-10T13:51:07Z</time>
      </trkpt>
      <trkpt lat="4.5777800" lon="-74.2530220">
        <ele>2540.3</ele>
        <time>2018-08-10T13:51:08Z</time>
      </trkpt>
      <trkpt lat="4.5777570" lon="-74.2530900">
        <ele>2540.4</ele>
        <time>2018-08-10T13:51:09Z</time>
      </trkpt>
      <trkpt lat="4.5777320" lon="-74.2531600">
        <ele>2540.5</ele>
        <time>2018-08-10T13:51:10Z</time>
      </trkpt>
      <trkpt lat="4.5777070" lon="-74.2532280">
        <ele>2540.5</ele>
        <time>2018-08-10T13:51:11Z</time>
      </trkpt>
      <trkpt lat="4.5776830" lon="-74.2533000">
        <ele>2540.6</ele>
        <time>2018-08-10T13:51:12Z</time>
      </trkpt>
      <trkpt lat="4.5776580" lon="-74.2533750">
        <ele>2540.7</ele>
        <time>2018-08-10T13:51:13Z</time>
      </trkpt>
      <trkpt lat="4.5776350" lon="-74.2534520">
        <ele>2540.7</ele>
        <time>2018-08-10T13:51:14Z</time>
      </trkpt>
      <trkpt lat="4.5776100" lon="-74.2535280">
        <ele>2540.8</ele>
        <time>2018-08-10T13:51:15Z</time>
      </trkpt>
      <trkpt lat="4.5775930" lon="-74.2536080">
        <ele>2540.8</ele>
        <time>2018-08-10T13:51:16Z</time>
      </trkpt>
      <trkpt lat="4.5775800" lon="-74.2536900">
        <ele>2540.9</ele>
        <time>2018-08-10T13:51:17Z</time>
      </trkpt>
      <trkpt lat="4.5775720" lon="-74.2537770">
        <ele>2541.0</ele>
        <time>2018-08-10T13:51:18Z</time>
      </trkpt>
      <trkpt lat="4.5775670" lon="-74.2538620">
        <ele>2541.0</ele>
        <time>2018-08-10T13:51:19Z</time>
      </trkpt>
      <trkpt lat="4.5775680" lon="-74.2539470">
        <ele>2541.1</ele>
        <time>2018-08-10T13:51:20Z</time>
      </trkpt>
      <trkpt lat="4.5775780" lon="-74.2540300">
        <ele>2541.1</ele>
        <time>2018-08-10T13:51:21Z</time>
      </trkpt>
      <trkpt lat="4.5775950" lon="-74.2541130">
        <ele>2541.2</ele>
        <time>2018-08-10T13:51:22Z</time>
      </trkpt>
      <trkpt lat="4.5776200" lon="-74.2541930">
        <ele>2541.3</ele>
        <time>2018-08-10T13:51:23Z</time>
      </trkpt>
      <trkpt lat="4.5776470" lon="-74.2542720">
        <ele>2541.3</ele>
        <time>2018-08-10T13:51:24Z</time>
      </trkpt>
      <trkpt lat="4.5776800" lon="-74.2543470">
        <ele>2541.4</ele>
        <time>2018-08-10T13:51:25Z</time>
      </trkpt>
      <trkpt lat="4.5777170" lon="-74.2544200">
        <ele>2541.5</ele>
        <time>2018-08-10T13:51:26Z</time>
      </trkpt>
      <trkpt lat="4.5777580" lon="-74.2544900">
        <ele>2541.5</ele>
        <time>2018-08-10T13:51:27Z</time>
      </trkpt>
      <trkpt lat="4.5778050" lon="-74.2545550">
        <ele>2541.6</ele>
        <time>2018-08-10T13:51:28Z</time>
      </trkpt>
      <trkpt lat="4.5778550" lon="-74.2546180">
        <ele>2541.6</ele>
        <time>2018-08-10T13:51:29Z</time>
      </trkpt>
      <trkpt lat="4.5779070" lon="-74.2546820">
        <ele>2541.7</ele>
        <time>2018-08-10T13:51:30Z</time>
      </trkpt>
      <trkpt lat="4.5779630" lon="-74.2547400">
        <ele>2541.7</ele>
        <time>2018-08-10T13:51:31Z</time>
      </trkpt>
      <trkpt lat="4.5780230" lon="-74.2547920">
        <ele>2541.7</ele>
        <time>2018-08-10T13:51:32Z</time>
      </trkpt>
      <trkpt lat="4.5780820" lon="-74.2548470">
        <ele>2541.7</ele>
        <time>2018-08-10T13:51:33Z</time>
      </trkpt>
      <trkpt lat="4.5781420" lon="-74.2548950">
        <ele>2541.6</ele>
        <time>2018-08-10T13:51:34Z</time>
      </trkpt>
      <trkpt lat="4.5781980" lon="-74.2549430">
        <ele>2541.6</ele>
        <time>2018-08-10T13:51:35Z</time>
      </trkpt>
      <trkpt lat="4.5782580" lon="-74.2549950">
        <ele>2541.6</ele>
        <time>2018-08-10T13:51:36Z</time>
      </trkpt>
      <trkpt lat="4.5783180" lon="-74.2550420">
        <ele>2541.4</ele>
        <time>2018-08-10T13:51:37Z</time>
      </trkpt>
      <trkpt lat="4.5783770" lon="-74.2550870">
        <ele>2541.3</ele>
        <time>2018-08-10T13:51:38Z</time>
      </trkpt>
      <trkpt lat="4.5784370" lon="-74.2551330">
        <ele>2541.2</ele>
        <time>2018-08-10T13:51:39Z</time>
      </trkpt>
      <trkpt lat="4.5784900" lon="-74.2551800">
        <ele>2541.1</ele>
        <time>2018-08-10T13:51:40Z</time>
      </trkpt>
      <trkpt lat="4.5785450" lon="-74.2552280">
        <ele>2541.0</ele>
        <time>2018-08-10T13:51:41Z</time>
      </trkpt>
      <trkpt lat="4.5786030" lon="-74.2552780">
        <ele>2540.9</ele>
        <time>2018-08-10T13:51:42Z</time>
      </trkpt>
      <trkpt lat="4.5786630" lon="-74.2553300">
        <ele>2540.9</ele>
        <time>2018-08-10T13:51:43Z</time>
      </trkpt>
      <trkpt lat="4.5787230" lon="-74.2553800">
        <ele>2540.9</ele>
        <time>2018-08-10T13:51:44Z</time>
      </trkpt>
      <trkpt lat="4.5787820" lon="-74.2554300">
        <ele>2540.9</ele>
        <time>2018-08-10T13:51:45Z</time>
      </trkpt>
      <trkpt lat="4.5788450" lon="-74.2554770">
        <ele>2540.9</ele>
        <time>2018-08-10T13:51:46Z</time>
      </trkpt>
      <trkpt lat="4.5789080" lon="-74.2555250">
        <ele>2540.9</ele>
        <time>2018-08-10T13:51:47Z</time>
      </trkpt>
      <trkpt lat="4.5789700" lon="-74.2555770">
        <ele>2541.0</ele>
        <time>2018-08-10T13:51:48Z</time>
      </trkpt>
      <trkpt lat="4.5790300" lon="-74.2556250">
        <ele>2541.0</ele>
        <time>2018-08-10T13:51:49Z</time>
      </trkpt>
      <trkpt lat="4.5790870" lon="-74.2556750">
        <ele>2541.0</ele>
        <time>2018-08-10T13:51:50Z</time>
      </trkpt>
      <trkpt lat="4.5791450" lon="-74.2557230">
        <ele>2541.0</ele>
        <time>2018-08-10T13:51:51Z</time>
      </trkpt>
      <trkpt lat="4.5792020" lon="-74.2557720">
        <ele>2541.0</ele>
        <time>2018-08-10T13:51:52Z</time>
      </trkpt>
      <trkpt lat="4.5792620" lon="-74.2558220">
        <ele>2541.1</ele>
        <time>2018-08-10T13:51:53Z</time>
      </trkpt>
      <trkpt lat="4.5793220" lon="-74.2558700">
        <ele>2541.1</ele>
        <time>2018-08-10T13:51:54Z</time>
      </trkpt>
      <trkpt lat="4.5793780" lon="-74.2559200">
        <ele>2541.2</ele>
        <time>2018-08-10T13:51:55Z</time>
      </trkpt>
      <trkpt lat="4.5794300" lon="-74.2559730">
        <ele>2541.2</ele>
        <time>2018-08-10T13:51:56Z</time>
      </trkpt>
      <trkpt lat="4.5794800" lon="-74.2560250">
        <ele>2541.2</ele>
        <time>2018-08-10T13:51:57Z</time>
      </trkpt>
      <trkpt lat="4.5795300" lon="-74.2560770">
        <ele>2541.3</ele>
        <time>2018-08-10T13:51:58Z</time>
      </trkpt>
      <trkpt lat="4.5795770" lon="-74.2561280">
        <ele>2541.3</ele>
        <time>2018-08-10T13:51:59Z</time>
      </trkpt>
      <trkpt lat="4.5796200" lon="-74.2561770">
        <ele>2541.4</ele>
        <time>2018-08-10T13:52:00Z</time>
      </trkpt>
      <trkpt lat="4.5796600" lon="-74.2562320">
        <ele>2541.4</ele>
        <time>2018-08-10T13:52:01Z</time>
      </trkpt>
      <trkpt lat="4.5796980" lon="-74.2562870">
        <ele>2541.5</ele>
        <time>2018-08-10T13:52:02Z</time>
      </trkpt>
      <trkpt lat="4.5797370" lon="-74.2563420">
        <ele>2541.5</ele>
        <time>2018-08-10T13:52:03Z</time>
      </trkpt>
      <trkpt lat="4.5797720" lon="-74.2563980">
        <ele>2541.6</ele>
        <time>2018-08-10T13:52:04Z</time>
      </trkpt>
      <trkpt lat="4.5798030" lon="-74.2564570">
        <ele>2541.6</ele>
        <time>2018-08-10T13:52:05Z</time>
      </trkpt>
      <trkpt lat="4.5798330" lon="-74.2565170">
        <ele>2541.7</ele>
        <time>2018-08-10T13:52:06Z</time>
      </trkpt>
      <trkpt lat="4.5798600" lon="-74.2565770">
        <ele>2541.8</ele>
        <time>2018-08-10T13:52:07Z</time>
      </trkpt>
      <trkpt lat="4.5798830" lon="-74.2566420">
        <ele>2541.9</ele>
        <time>2018-08-10T13:52:08Z</time>
      </trkpt>
      <trkpt lat="4.5799000" lon="-74.2567070">
        <ele>2542.0</ele>
        <time>2018-08-10T13:52:09Z</time>
      </trkpt>
      <trkpt lat="4.5799100" lon="-74.2567730">
        <ele>2542.2</ele>
        <time>2018-08-10T13:52:10Z</time>
      </trkpt>
      <trkpt lat="4.5799120" lon="-74.2568420">
        <ele>2542.4</ele>
        <time>2018-08-10T13:52:11Z</time>
      </trkpt>
      <trkpt lat="4.5799030" lon="-74.2569080">
        <ele>2542.6</ele>
        <time>2018-08-10T13:52:12Z</time>
      </trkpt>
      <trkpt lat="4.5798950" lon="-74.2569720">
        <ele>2542.8</ele>
        <time>2018-08-10T13:52:13Z</time>
      </trkpt>
      <trkpt lat="4.5798800" lon="-74.2570350">
        <ele>2543.1</ele>
        <time>2018-08-10T13:52:14Z</time>
      </trkpt>
      <trkpt lat="4.5798650" lon="-74.2570980">
        <ele>2543.4</ele>
        <time>2018-08-10T13:52:15Z</time>
      </trkpt>
      <trkpt lat="4.5798480" lon="-74.2571600">
        <ele>2543.7</ele>
        <time>2018-08-10T13:52:16Z</time>
      </trkpt>
      <trkpt lat="4.5798370" lon="-74.2572220">
        <ele>2543.9</ele>
        <time>2018-08-10T13:52:17Z</time>
      </trkpt>
      <trkpt lat="4.5798220" lon="-74.2572870">
        <ele>2544.2</ele>
        <time>2018-08-10T13:52:18Z</time>
      </trkpt>
      <trkpt lat="4.5798120" lon="-74.2573500">
        <ele>2544.5</ele>
        <time>2018-08-10T13:52:19Z</time>
      </trkpt>
      <trkpt lat="4.5797970" lon="-74.2574150">
        <ele>2544.8</ele>
        <time>2018-08-10T13:52:20Z</time>
      </trkpt>
      <trkpt lat="4.5797820" lon="-74.2574800">
        <ele>2545.1</ele>
        <time>2018-08-10T13:52:21Z</time>
      </trkpt>
      <trkpt lat="4.5797630" lon="-74.2575470">
        <ele>2545.3</ele>
        <time>2018-08-10T13:52:22Z</time>
      </trkpt>
      <trkpt lat="4.5797470" lon="-74.2576100">
        <ele>2545.6</ele>
        <time>2018-08-10T13:52:23Z</time>
      </trkpt>
      <trkpt lat="4.5797320" lon="-74.2576770">
        <ele>2545.8</ele>
        <time>2018-08-10T13:52:24Z</time>
      </trkpt>
      <trkpt lat="4.5797150" lon="-74.2577430">
        <ele>2545.9</ele>
        <time>2018-08-10T13:52:25Z</time>
      </trkpt>
      <trkpt lat="4.5796980" lon="-74.2578130">
        <ele>2546.1</ele>
        <time>2018-08-10T13:52:26Z</time>
      </trkpt>
      <trkpt lat="4.5796800" lon="-74.2578800">
        <ele>2546.2</ele>
        <time>2018-08-10T13:52:27Z</time>
      </trkpt>
      <trkpt lat="4.5796650" lon="-74.2579480">
        <ele>2546.3</ele>
        <time>2018-08-10T13:52:28Z</time>
      </trkpt>
      <trkpt lat="4.5796480" lon="-74.2580150">
        <ele>2546.5</ele>
        <time>2018-08-10T13:52:29Z</time>
      </trkpt>
      <trkpt lat="4.5796350" lon="-74.2580820">
        <ele>2546.6</ele>
        <time>2018-08-10T13:52:30Z</time>
      </trkpt>
      <trkpt lat="4.5796180" lon="-74.2581470">
        <ele>2546.7</ele>
        <time>2018-08-10T13:52:31Z</time>
      </trkpt>
      <trkpt lat="4.5796020" lon="-74.2582120">
        <ele>2546.9</ele>
        <time>2018-08-10T13:52:32Z</time>
      </trkpt>
      <trkpt lat="4.5795850" lon="-74.2582780">
        <ele>2547.2</ele>
        <time>2018-08-10T13:52:33Z</time>
      </trkpt>
      <trkpt lat="4.5795700" lon="-74.2583400">
        <ele>2547.6</ele>
        <time>2018-08-10T13:52:34Z</time>
      </trkpt>
      <trkpt lat="4.5795530" lon="-74.2584020">
        <ele>2548.0</ele>
        <time>2018-08-10T13:52:35Z</time>
      </trkpt>
      <trkpt lat="4.5795380" lon="-74.2584650">
        <ele>2548.5</ele>
        <time>2018-08-10T13:52:36Z</time>
      </trkpt>
      <trkpt lat="4.5795220" lon="-74.2585270">
        <ele>2548.9</ele>
        <time>2018-08-10T13:52:37Z</time>
      </trkpt>
      <trkpt lat="4.5795050" lon="-74.2585900">
        <ele>2549.5</ele>
        <time>2018-08-10T13:52:38Z</time>
      </trkpt>
      <trkpt lat="4.5794850" lon="-74.2586480">
        <ele>2550.0</ele>
        <time>2018-08-10T13:52:39Z</time>
      </trkpt>
      <trkpt lat="4.5794670" lon="-74.2587050">
        <ele>2550.5</ele>
        <time>2018-08-10T13:52:40Z</time>
      </trkpt>
      <trkpt lat="4.5794480" lon="-74.2587650">
        <ele>2551.1</ele>
        <time>2018-08-10T13:52:41Z</time>
      </trkpt>
      <trkpt lat="4.5794300" lon="-74.2588250">
        <ele>2551.7</ele>
        <time>2018-08-10T13:52:42Z</time>
      </trkpt>
      <trkpt lat="4.5794100" lon="-74.2588830">
        <ele>2552.2</ele>
        <time>2018-08-10T13:52:43Z</time>
      </trkpt>
      <trkpt lat="4.5793870" lon="-74.2589420">
        <ele>2552.8</ele>
        <time>2018-08-10T13:52:44Z</time>
      </trkpt>
      <trkpt lat="4.5793630" lon="-74.2590000">
        <ele>2553.3</ele>
        <time>2018-08-10T13:52:45Z</time>
      </trkpt>
      <trkpt lat="4.5793400" lon="-74.2590550">
        <ele>2553.9</ele>
        <time>2018-08-10T13:52:46Z</time>
      </trkpt>
      <trkpt lat="4.5793170" lon="-74.2591030">
        <ele>2554.4</ele>
        <time>2018-08-10T13:52:47Z</time>
      </trkpt>
      <trkpt lat="4.5792930" lon="-74.2591500">
        <ele>2554.8</ele>
        <time>2018-08-10T13:52:48Z</time>
      </trkpt>
      <trkpt lat="4.5792720" lon="-74.2591920">
        <ele>2555.2</ele>
        <time>2018-08-10T13:52:49Z</time>
      </trkpt>
      <trkpt lat="4.5792530" lon="-74.2592330">
        <ele>2555.6</ele>
        <time>2018-08-10T13:52:50Z</time>
      </trkpt>
      <trkpt lat="4.5792320" lon="-74.2592730">
        <ele>2555.9</ele>
        <time>2018-08-10T13:52:51Z</time>
      </trkpt>
      <trkpt lat="4.5792130" lon="-74.2593120">
        <ele>2556.3</ele>
        <time>2018-08-10T13:52:52Z</time>
      </trkpt>
      <trkpt lat="4.5791920" lon="-74.2593470">
        <ele>2556.6</ele>
        <time>2018-08-10T13:52:53Z</time>
      </trkpt>
      <trkpt lat="4.5791720" lon="-74.2593800">
        <ele>2556.9</ele>
        <time>2018-08-10T13:52:54Z</time>
      </trkpt>
      <trkpt lat="4.5791520" lon="-74.2594130">
        <ele>2557.1</ele>
        <time>2018-08-10T13:52:55Z</time>
      </trkpt>
      <trkpt lat="4.5791320" lon="-74.2594420">
        <ele>2557.4</ele>
        <time>2018-08-10T13:52:56Z</time>
      </trkpt>
      <trkpt lat="4.5791200" lon="-74.2594720">
        <ele>2557.6</ele>
        <time>2018-08-10T13:52:57Z</time>
      </trkpt>
      <trkpt lat="4.5791100" lon="-74.2595020">
        <ele>2557.8</ele>
        <time>2018-08-10T13:52:58Z</time>
      </trkpt>
      <trkpt lat="4.5791070" lon="-74.2595330">
        <ele>2558.0</ele>
        <time>2018-08-10T13:52:59Z</time>
      </trkpt>
      <trkpt lat="4.5791000" lon="-74.2595650">
        <ele>2558.2</ele>
        <time>2018-08-10T13:53:00Z</time>
      </trkpt>
      <trkpt lat="4.5790970" lon="-74.2595970">
        <ele>2558.3</ele>
        <time>2018-08-10T13:53:01Z</time>
      </trkpt>
      <trkpt lat="4.5790930" lon="-74.2596280">
        <ele>2558.4</ele>
        <time>2018-08-10T13:53:02Z</time>
      </trkpt>
      <trkpt lat="4.5790900" lon="-74.2596600">
        <ele>2558.5</ele>
        <time>2018-08-10T13:53:03Z</time>
      </trkpt>
      <trkpt lat="4.5790880" lon="-74.2596950">
        <ele>2558.7</ele>
        <time>2018-08-10T13:53:04Z</time>
      </trkpt>
      <trkpt lat="4.5790920" lon="-74.2597300">
        <ele>2558.8</ele>
        <time>2018-08-10T13:53:05Z</time>
      </trkpt>
      <trkpt lat="4.5791000" lon="-74.2597630">
        <ele>2558.9</ele>
        <time>2018-08-10T13:53:06Z</time>
      </trkpt>
      <trkpt lat="4.5791080" lon="-74.2598000">
        <ele>2559.0</ele>
        <time>2018-08-10T13:53:07Z</time>
      </trkpt>
      <trkpt lat="4.5791180" lon="-74.2598370">
        <ele>2559.1</ele>
        <time>2018-08-10T13:53:08Z</time>
      </trkpt>
      <trkpt lat="4.5791300" lon="-74.2598750">
        <ele>2559.2</ele>
        <time>2018-08-10T13:53:09Z</time>
      </trkpt>
      <trkpt lat="4.5791400" lon="-74.2599150">
        <ele>2559.3</ele>
        <time>2018-08-10T13:53:10Z</time>
      </trkpt>
      <trkpt lat="4.5791500" lon="-74.2599530">
        <ele>2559.5</ele>
        <time>2018-08-10T13:53:11Z</time>
      </trkpt>
      <trkpt lat="4.5791600" lon="-74.2599950">
        <ele>2559.5</ele>
        <time>2018-08-10T13:53:12Z</time>
      </trkpt>
      <trkpt lat="4.5791730" lon="-74.2600370">
        <ele>2559.6</ele>
        <time>2018-08-10T13:53:13Z</time>
      </trkpt>
      <trkpt lat="4.5791900" lon="-74.2600770">
        <ele>2559.6</ele>
        <time>2018-08-10T13:53:14Z</time>
      </trkpt>
      <trkpt lat="4.5792100" lon="-74.2601120">
        <ele>2559.6</ele>
        <time>2018-08-10T13:53:15Z</time>
      </trkpt>
      <trkpt lat="4.5792300" lon="-74.2601480">
        <ele>2559.7</ele>
        <time>2018-08-10T13:53:16Z</time>
      </trkpt>
      <trkpt lat="4.5792500" lon="-74.2601820">
        <ele>2559.7</ele>
        <time>2018-08-10T13:53:17Z</time>
      </trkpt>
      <trkpt lat="4.5792700" lon="-74.2602150">
        <ele>2559.7</ele>
        <time>2018-08-10T13:53:18Z</time>
      </trkpt>
      <trkpt lat="4.5792880" lon="-74.2602500">
        <ele>2559.8</ele>
        <time>2018-08-10T13:53:19Z</time>
      </trkpt>
      <trkpt lat="4.5793030" lon="-74.2602850">
        <ele>2559.8</ele>
        <time>2018-08-10T13:53:20Z</time>
      </trkpt>
      <trkpt lat="4.5793200" lon="-74.2603180">
        <ele>2559.8</ele>
        <time>2018-08-10T13:53:21Z</time>
      </trkpt>
      <trkpt lat="4.5793370" lon="-74.2603530">
        <ele>2559.9</ele>
        <time>2018-08-10T13:53:22Z</time>
      </trkpt>
      <trkpt lat="4.5793600" lon="-74.2603850">
        <ele>2559.9</ele>
        <time>2018-08-10T13:53:23Z</time>
      </trkpt>
      <trkpt lat="4.5793800" lon="-74.2604200">
        <ele>2559.9</ele>
        <time>2018-08-10T13:53:24Z</time>
      </trkpt>
      <trkpt lat="4.5793970" lon="-74.2604570">
        <ele>2560.0</ele>
        <time>2018-08-10T13:53:25Z</time>
      </trkpt>
      <trkpt lat="4.5794170" lon="-74.2604950">
        <ele>2559.9</ele>
        <time>2018-08-10T13:53:26Z</time>
      </trkpt>
      <trkpt lat="4.5794350" lon="-74.2605320">
        <ele>2559.7</ele>
        <time>2018-08-10T13:53:27Z</time>
      </trkpt>
      <trkpt lat="4.5794580" lon="-74.2605670">
        <ele>2559.6</ele>
        <time>2018-08-10T13:53:28Z</time>
      </trkpt>
      <trkpt lat="4.5794780" lon="-74.2606020">
        <ele>2559.4</ele>
        <time>2018-08-10T13:53:29Z</time>
      </trkpt>
      <trkpt lat="4.5795000" lon="-74.2606370">
        <ele>2559.3</ele>
        <time>2018-08-10T13:53:30Z</time>
      </trkpt>
      <trkpt lat="4.5795220" lon="-74.2606750">
        <ele>2559.1</ele>
        <time>2018-08-10T13:53:31Z</time>
      </trkpt>
      <trkpt lat="4.5795400" lon="-74.2607130">
        <ele>2558.9</ele>
        <time>2018-08-10T13:53:32Z</time>
      </trkpt>
      <trkpt lat="4.5795620" lon="-74.2607550">
        <ele>2558.7</ele>
        <time>2018-08-10T13:53:33Z</time>
      </trkpt>
      <trkpt lat="4.5795820" lon="-74.2607930">
        <ele>2558.6</ele>
        <time>2018-08-10T13:53:34Z</time>
      </trkpt>
      <trkpt lat="4.5796080" lon="-74.2608280">
        <ele>2558.3</ele>
        <time>2018-08-10T13:53:35Z</time>
      </trkpt>
      <trkpt lat="4.5796350" lon="-74.2608650">
        <ele>2558.0</ele>
        <time>2018-08-10T13:53:36Z</time>
      </trkpt>
      <trkpt lat="4.5796630" lon="-74.2608980">
        <ele>2557.8</ele>
        <time>2018-08-10T13:53:37Z</time>
      </trkpt>
      <trkpt lat="4.5796930" lon="-74.2609300">
        <ele>2557.6</ele>
        <time>2018-08-10T13:53:38Z</time>
      </trkpt>
      <trkpt lat="4.5797300" lon="-74.2609530">
        <ele>2557.4</ele>
        <time>2018-08-10T13:53:39Z</time>
      </trkpt>
      <trkpt lat="4.5797650" lon="-74.2609720">
        <ele>2557.2</ele>
        <time>2018-08-10T13:53:40Z</time>
      </trkpt>
      <trkpt lat="4.5798030" lon="-74.2609930">
        <ele>2557.0</ele>
        <time>2018-08-10T13:53:41Z</time>
      </trkpt>
      <trkpt lat="4.5798400" lon="-74.2610150">
        <ele>2556.8</ele>
        <time>2018-08-10T13:53:42Z</time>
      </trkpt>
      <trkpt lat="4.5798800" lon="-74.2610380">
        <ele>2556.6</ele>
        <time>2018-08-10T13:53:43Z</time>
      </trkpt>
      <trkpt lat="4.5799230" lon="-74.2610530">
        <ele>2556.4</ele>
        <time>2018-08-10T13:53:44Z</time>
      </trkpt>
      <trkpt lat="4.5799680" lon="-74.2610730">
        <ele>2556.2</ele>
        <time>2018-08-10T13:53:45Z</time>
      </trkpt>
      <trkpt lat="4.5800080" lon="-74.2610920">
        <ele>2556.0</ele>
        <time>2018-08-10T13:53:46Z</time>
      </trkpt>
      <trkpt lat="4.5800470" lon="-74.2611100">
        <ele>2555.9</ele>
        <time>2018-08-10T13:53:47Z</time>
      </trkpt>
      <trkpt lat="4.5800850" lon="-74.2611320">
        <ele>2555.7</ele>
        <time>2018-08-10T13:53:48Z</time>
      </trkpt>
      <trkpt lat="4.5801250" lon="-74.2611500">
        <ele>2555.6</ele>
        <time>2018-08-10T13:53:49Z</time>
      </trkpt>
      <trkpt lat="4.5801670" lon="-74.2611720">
        <ele>2555.4</ele>
        <time>2018-08-10T13:53:50Z</time>
      </trkpt>
      <trkpt lat="4.5802070" lon="-74.2611920">
        <ele>2555.3</ele>
        <time>2018-08-10T13:53:51Z</time>
      </trkpt>
      <trkpt lat="4.5802470" lon="-74.2612080">
        <ele>2555.2</ele>
        <time>2018-08-10T13:53:52Z</time>
      </trkpt>
      <trkpt lat="4.5802850" lon="-74.2612300">
        <ele>2555.1</ele>
        <time>2018-08-10T13:53:53Z</time>
      </trkpt>
      <trkpt lat="4.5803270" lon="-74.2612500">
        <ele>2555.0</ele>
        <time>2018-08-10T13:53:54Z</time>
      </trkpt>
      <trkpt lat="4.5803680" lon="-74.2612720">
        <ele>2554.9</ele>
        <time>2018-08-10T13:53:55Z</time>
      </trkpt>
      <trkpt lat="4.5804100" lon="-74.2612920">
        <ele>2554.8</ele>
        <time>2018-08-10T13:53:56Z</time>
      </trkpt>
      <trkpt lat="4.5804550" lon="-74.2613170">
        <ele>2554.7</ele>
        <time>2018-08-10T13:53:57Z</time>
      </trkpt>
      <trkpt lat="4.5805020" lon="-74.2613430">
        <ele>2554.6</ele>
        <time>2018-08-10T13:53:58Z</time>
      </trkpt>
      <trkpt lat="4.5805470" lon="-74.2613700">
        <ele>2554.5</ele>
        <time>2018-08-10T13:53:59Z</time>
      </trkpt>
      <trkpt lat="4.5805920" lon="-74.2613920">
        <ele>2554.4</ele>
        <time>2018-08-10T13:54:00Z</time>
      </trkpt>
      <trkpt lat="4.5806350" lon="-74.2614150">
        <ele>2554.3</ele>
        <time>2018-08-10T13:54:01Z</time>
      </trkpt>
      <trkpt lat="4.5806780" lon="-74.2614350">
        <ele>2554.2</ele>
        <time>2018-08-10T13:54:02Z</time>
      </trkpt>
      <trkpt lat="4.5807200" lon="-74.2614550">
        <ele>2554.1</ele>
        <time>2018-08-10T13:54:03Z</time>
      </trkpt>
      <trkpt lat="4.5807630" lon="-74.2614780">
        <ele>2554.0</ele>
        <time>2018-08-10T13:54:04Z</time>
      </trkpt>
      <trkpt lat="4.5808080" lon="-74.2615030">
        <ele>2553.8</ele>
        <time>2018-08-10T13:54:05Z</time>
      </trkpt>
      <trkpt lat="4.5808550" lon="-74.2615270">
        <ele>2553.7</ele>
        <time>2018-08-10T13:54:06Z</time>
      </trkpt>
      <trkpt lat="4.5809020" lon="-74.2615500">
        <ele>2553.5</ele>
        <time>2018-08-10T13:54:07Z</time>
      </trkpt>
      <trkpt lat="4.5809470" lon="-74.2615730">
        <ele>2553.4</ele>
        <time>2018-08-10T13:54:08Z</time>
      </trkpt>
      <trkpt lat="4.5809900" lon="-74.2615970">
        <ele>2553.2</ele>
        <time>2018-08-10T13:54:09Z</time>
      </trkpt>
      <trkpt lat="4.5810320" lon="-74.2616220">
        <ele>2553.1</ele>
        <time>2018-08-10T13:54:10Z</time>
      </trkpt>
      <trkpt lat="4.5810800" lon="-74.2616450">
        <ele>2552.9</ele>
        <time>2018-08-10T13:54:11Z</time>
      </trkpt>
      <trkpt lat="4.5811230" lon="-74.2616670">
        <ele>2552.8</ele>
        <time>2018-08-10T13:54:12Z</time>
      </trkpt>
      <trkpt lat="4.5811630" lon="-74.2616880">
        <ele>2552.7</ele>
        <time>2018-08-10T13:54:13Z</time>
      </trkpt>
      <trkpt lat="4.5812020" lon="-74.2617080">
        <ele>2552.4</ele>
        <time>2018-08-10T13:54:14Z</time>
      </trkpt>
      <trkpt lat="4.5812380" lon="-74.2617300">
        <ele>2552.1</ele>
        <time>2018-08-10T13:54:15Z</time>
      </trkpt>
      <trkpt lat="4.5812720" lon="-74.2617520">
        <ele>2552.0</ele>
        <time>2018-08-10T13:54:16Z</time>
      </trkpt>
      <trkpt lat="4.5813030" lon="-74.2617730">
        <ele>2552.0</ele>
        <time>2018-08-10T13:54:17Z</time>
      </trkpt>
      <trkpt lat="4.5813350" lon="-74.2617930">
        <ele>2552.0</ele>
        <time>2018-08-10T13:54:18Z</time>
      </trkpt>
      <trkpt lat="4.5813680" lon="-74.2618100">
        <ele>2552.0</ele>
        <time>2018-08-10T13:54:19Z</time>
      </trkpt>
      <trkpt lat="4.5814030" lon="-74.2618250">
        <ele>2551.9</ele>
        <time>2018-08-10T13:54:20Z</time>
      </trkpt>
      <trkpt lat="4.5814350" lon="-74.2618430">
        <ele>2551.9</ele>
        <time>2018-08-10T13:54:21Z</time>
      </trkpt>
      <trkpt lat="4.5814650" lon="-74.2618620">
        <ele>2551.9</ele>
        <time>2018-08-10T13:54:22Z</time>
      </trkpt>
      <trkpt lat="4.5814950" lon="-74.2618780">
        <ele>2552.0</ele>
        <time>2018-08-10T13:54:23Z</time>
      </trkpt>
      <trkpt lat="4.5815230" lon="-74.2618900">
        <ele>2552.1</ele>
        <time>2018-08-10T13:54:24Z</time>
      </trkpt>
      <trkpt lat="4.5815500" lon="-74.2619030">
        <ele>2552.1</ele>
        <time>2018-08-10T13:54:25Z</time>
      </trkpt>
      <trkpt lat="4.5815750" lon="-74.2619170">
        <ele>2552.1</ele>
        <time>2018-08-10T13:54:26Z</time>
      </trkpt>
      <trkpt lat="4.5816130" lon="-74.2619380">
        <ele>2552.0</ele>
        <time>2018-08-10T13:54:28Z</time>
      </trkpt>
      <trkpt lat="4.5816480" lon="-74.2619580">
        <ele>2552.0</ele>
        <time>2018-08-10T13:54:30Z</time>
      </trkpt>
      <trkpt lat="4.5816920" lon="-74.2619730">
        <ele>2552.0</ele>
        <time>2018-08-10T13:54:32Z</time>
      </trkpt>
      <trkpt lat="4.5817380" lon="-74.2619900">
        <ele>2552.0</ele>
        <time>2018-08-10T13:54:34Z</time>
      </trkpt>
      <trkpt lat="4.5817830" lon="-74.2620080">
        <ele>2552.0</ele>
        <time>2018-08-10T13:54:36Z</time>
      </trkpt>
      <trkpt lat="4.5818330" lon="-74.2620250">
        <ele>2552.0</ele>
        <time>2018-08-10T13:54:38Z</time>
      </trkpt>
      <trkpt lat="4.5818830" lon="-74.2620450">
        <ele>2552.0</ele>
        <time>2018-08-10T13:54:40Z</time>
      </trkpt>
      <trkpt lat="4.5819300" lon="-74.2620680">
        <ele>2552.0</ele>
        <time>2018-08-10T13:54:42Z</time>
      </trkpt>
      <trkpt lat="4.5819550" lon="-74.2620820">
        <ele>2552.0</ele>
        <time>2018-08-10T13:54:43Z</time>
      </trkpt>
      <trkpt lat="4.5820030" lon="-74.2621030">
        <ele>2552.0</ele>
        <time>2018-08-10T13:54:45Z</time>
      </trkpt>
      <trkpt lat="4.5820480" lon="-74.2621280">
        <ele>2551.9</ele>
        <time>2018-08-10T13:54:47Z</time>
      </trkpt>
      <trkpt lat="4.5820730" lon="-74.2621400">
        <ele>2551.9</ele>
        <time>2018-08-10T13:54:48Z</time>
      </trkpt>
      <trkpt lat="4.5821170" lon="-74.2621600">
        <ele>2551.7</ele>
        <time>2018-08-10T13:54:50Z</time>
      </trkpt>
      <trkpt lat="4.5821580" lon="-74.2621820">
        <ele>2551.6</ele>
        <time>2018-08-10T13:54:52Z</time>
      </trkpt>
      <trkpt lat="4.5821830" lon="-74.2621950">
        <ele>2551.6</ele>
        <time>2018-08-10T13:54:53Z</time>
      </trkpt>
      <trkpt lat="4.5822100" lon="-74.2622080">
        <ele>2551.5</ele>
        <time>2018-08-10T13:54:54Z</time>
      </trkpt>
      <trkpt lat="4.5822370" lon="-74.2622200">
        <ele>2551.5</ele>
        <time>2018-08-10T13:54:55Z</time>
      </trkpt>
      <trkpt lat="4.5822630" lon="-74.2622350">
        <ele>2551.4</ele>
        <time>2018-08-10T13:54:56Z</time>
      </trkpt>
      <trkpt lat="4.5822880" lon="-74.2622520">
        <ele>2551.4</ele>
        <time>2018-08-10T13:54:57Z</time>
      </trkpt>
      <trkpt lat="4.5823150" lon="-74.2622650">
        <ele>2551.3</ele>
        <time>2018-08-10T13:54:58Z</time>
      </trkpt>
      <trkpt lat="4.5823450" lon="-74.2622800">
        <ele>2551.3</ele>
        <time>2018-08-10T13:54:59Z</time>
      </trkpt>
      <trkpt lat="4.5823700" lon="-74.2622930">
        <ele>2551.3</ele>
        <time>2018-08-10T13:55:00Z</time>
      </trkpt>
      <trkpt lat="4.5823970" lon="-74.2623100">
        <ele>2551.3</ele>
        <time>2018-08-10T13:55:01Z</time>
      </trkpt>
      <trkpt lat="4.5824270" lon="-74.2623250">
        <ele>2551.2</ele>
        <time>2018-08-10T13:55:02Z</time>
      </trkpt>
      <trkpt lat="4.5824580" lon="-74.2623420">
        <ele>2551.2</ele>
        <time>2018-08-10T13:55:03Z</time>
      </trkpt>
      <trkpt lat="4.5824880" lon="-74.2623580">
        <ele>2551.2</ele>
        <time>2018-08-10T13:55:04Z</time>
      </trkpt>
      <trkpt lat="4.5825170" lon="-74.2623770">
        <ele>2551.2</ele>
        <time>2018-08-10T13:55:05Z</time>
      </trkpt>
      <trkpt lat="4.5825470" lon="-74.2623950">
        <ele>2551.2</ele>
        <time>2018-08-10T13:55:06Z</time>
      </trkpt>
      <trkpt lat="4.5825730" lon="-74.2624150">
        <ele>2551.2</ele>
        <time>2018-08-10T13:55:07Z</time>
      </trkpt>
      <trkpt lat="4.5826000" lon="-74.2624350">
        <ele>2551.2</ele>
        <time>2018-08-10T13:55:08Z</time>
      </trkpt>
      <trkpt lat="4.5826270" lon="-74.2624580">
        <ele>2551.1</ele>
        <time>2018-08-10T13:55:09Z</time>
      </trkpt>
      <trkpt lat="4.5826520" lon="-74.2624850">
        <ele>2551.1</ele>
        <time>2018-08-10T13:55:10Z</time>
      </trkpt>
      <trkpt lat="4.5826780" lon="-74.2625170">
        <ele>2551.1</ele>
        <time>2018-08-10T13:55:11Z</time>
      </trkpt>
      <trkpt lat="4.5827050" lon="-74.2625500">
        <ele>2551.1</ele>
        <time>2018-08-10T13:55:12Z</time>
      </trkpt>
      <trkpt lat="4.5827280" lon="-74.2625870">
        <ele>2551.1</ele>
        <time>2018-08-10T13:55:13Z</time>
      </trkpt>
      <trkpt lat="4.5827530" lon="-74.2626250">
        <ele>2551.2</ele>
        <time>2018-08-10T13:55:14Z</time>
      </trkpt>
      <trkpt lat="4.5827780" lon="-74.2626630">
        <ele>2551.2</ele>
        <time>2018-08-10T13:55:15Z</time>
      </trkpt>
      <trkpt lat="4.5828050" lon="-74.2627030">
        <ele>2551.3</ele>
        <time>2018-08-10T13:55:16Z</time>
      </trkpt>
      <trkpt lat="4.5828300" lon="-74.2627480">
        <ele>2551.4</ele>
        <time>2018-08-10T13:55:17Z</time>
      </trkpt>
      <trkpt lat="4.5828530" lon="-74.2627920">
        <ele>2551.5</ele>
        <time>2018-08-10T13:55:18Z</time>
      </trkpt>
      <trkpt lat="4.5828770" lon="-74.2628380">
        <ele>2551.6</ele>
        <time>2018-08-10T13:55:19Z</time>
      </trkpt>
      <trkpt lat="4.5829000" lon="-74.2628850">
        <ele>2551.7</ele>
        <time>2018-08-10T13:55:20Z</time>
      </trkpt>
      <trkpt lat="4.5829230" lon="-74.2629330">
        <ele>2551.7</ele>
        <time>2018-08-10T13:55:21Z</time>
      </trkpt>
      <trkpt lat="4.5829480" lon="-74.2629780">
        <ele>2551.8</ele>
        <time>2018-08-10T13:55:22Z</time>
      </trkpt>
      <trkpt lat="4.5829730" lon="-74.2630250">
        <ele>2551.8</ele>
        <time>2018-08-10T13:55:23Z</time>
      </trkpt>
      <trkpt lat="4.5829980" lon="-74.2630700">
        <ele>2551.9</ele>
        <time>2018-08-10T13:55:24Z</time>
      </trkpt>
      <trkpt lat="4.5830250" lon="-74.2631170">
        <ele>2551.9</ele>
        <time>2018-08-10T13:55:25Z</time>
      </trkpt>
      <trkpt lat="4.5830480" lon="-74.2631630">
        <ele>2551.9</ele>
        <time>2018-08-10T13:55:26Z</time>
      </trkpt>
      <trkpt lat="4.5830730" lon="-74.2632100">
        <ele>2552.0</ele>
        <time>2018-08-10T13:55:27Z</time>
      </trkpt>
      <trkpt lat="4.5830950" lon="-74.2632570">
        <ele>2552.1</ele>
        <time>2018-08-10T13:55:28Z</time>
      </trkpt>
      <trkpt lat="4.5831170" lon="-74.2633050">
        <ele>2552.3</ele>
        <time>2018-08-10T13:55:29Z</time>
      </trkpt>
      <trkpt lat="4.5831400" lon="-74.2633520">
        <ele>2552.4</ele>
        <time>2018-08-10T13:55:30Z</time>
      </trkpt>
      <trkpt lat="4.5831630" lon="-74.2633970">
        <ele>2552.6</ele>
        <time>2018-08-10T13:55:31Z</time>
      </trkpt>
      <trkpt lat="4.5831870" lon="-74.2634420">
        <ele>2552.9</ele>
        <time>2018-08-10T13:55:32Z</time>
      </trkpt>
      <trkpt lat="4.5832080" lon="-74.2634870">
        <ele>2553.1</ele>
        <time>2018-08-10T13:55:33Z</time>
      </trkpt>
      <trkpt lat="4.5832330" lon="-74.2635320">
        <ele>2553.3</ele>
        <time>2018-08-10T13:55:34Z</time>
      </trkpt>
      <trkpt lat="4.5832570" lon="-74.2635770">
        <ele>2553.5</ele>
        <time>2018-08-10T13:55:35Z</time>
      </trkpt>
      <trkpt lat="4.5832800" lon="-74.2636270">
        <ele>2553.7</ele>
        <time>2018-08-10T13:55:36Z</time>
      </trkpt>
      <trkpt lat="4.5833050" lon="-74.2636720">
        <ele>2553.9</ele>
        <time>2018-08-10T13:55:37Z</time>
      </trkpt>
      <trkpt lat="4.5833320" lon="-74.2637180">
        <ele>2554.0</ele>
        <time>2018-08-10T13:55:38Z</time>
      </trkpt>
      <trkpt lat="4.5833580" lon="-74.2637650">
        <ele>2554.2</ele>
        <time>2018-08-10T13:55:39Z</time>
      </trkpt>
      <trkpt lat="4.5833830" lon="-74.2638170">
        <ele>2554.3</ele>
        <time>2018-08-10T13:55:40Z</time>
      </trkpt>
      <trkpt lat="4.5834100" lon="-74.2638670">
        <ele>2554.4</ele>
        <time>2018-08-10T13:55:41Z</time>
      </trkpt>
      <trkpt lat="4.5834350" lon="-74.2639180">
        <ele>2554.5</ele>
        <time>2018-08-10T13:55:42Z</time>
      </trkpt>
      <trkpt lat="4.5834580" lon="-74.2639720">
        <ele>2554.7</ele>
        <time>2018-08-10T13:55:43Z</time>
      </trkpt>
      <trkpt lat="4.5834820" lon="-74.2640230">
        <ele>2554.9</ele>
        <time>2018-08-10T13:55:44Z</time>
      </trkpt>
      <trkpt lat="4.5835070" lon="-74.2640730">
        <ele>2555.1</ele>
        <time>2018-08-10T13:55:45Z</time>
      </trkpt>
      <trkpt lat="4.5835320" lon="-74.2641250">
        <ele>2555.3</ele>
        <time>2018-08-10T13:55:46Z</time>
      </trkpt>
      <trkpt lat="4.5835600" lon="-74.2641750">
        <ele>2555.6</ele>
        <time>2018-08-10T13:55:47Z</time>
      </trkpt>
      <trkpt lat="4.5835880" lon="-74.2642250">
        <ele>2555.9</ele>
        <time>2018-08-10T13:55:48Z</time>
      </trkpt>
      <trkpt lat="4.5836170" lon="-74.2642770">
        <ele>2556.2</ele>
        <time>2018-08-10T13:55:49Z</time>
      </trkpt>
      <trkpt lat="4.5836420" lon="-74.2643280">
        <ele>2556.5</ele>
        <time>2018-08-10T13:55:50Z</time>
      </trkpt>
      <trkpt lat="4.5836670" lon="-74.2643780">
        <ele>2556.8</ele>
        <time>2018-08-10T13:55:51Z</time>
      </trkpt>
      <trkpt lat="4.5836900" lon="-74.2644270">
        <ele>2557.1</ele>
        <time>2018-08-10T13:55:52Z</time>
      </trkpt>
      <trkpt lat="4.5837130" lon="-74.2644770">
        <ele>2557.4</ele>
        <time>2018-08-10T13:55:53Z</time>
      </trkpt>
      <trkpt lat="4.5837400" lon="-74.2645250">
        <ele>2557.6</ele>
        <time>2018-08-10T13:55:54Z</time>
      </trkpt>
      <trkpt lat="4.5837630" lon="-74.2645730">
        <ele>2557.9</ele>
        <time>2018-08-10T13:55:55Z</time>
      </trkpt>
      <trkpt lat="4.5837850" lon="-74.2646200">
        <ele>2558.1</ele>
        <time>2018-08-10T13:55:56Z</time>
      </trkpt>
      <trkpt lat="4.5838100" lon="-74.2646670">
        <ele>2558.4</ele>
        <time>2018-08-10T13:55:57Z</time>
      </trkpt>
      <trkpt lat="4.5838350" lon="-74.2647100">
        <ele>2558.6</ele>
        <time>2018-08-10T13:55:58Z</time>
      </trkpt>
      <trkpt lat="4.5838570" lon="-74.2647530">
        <ele>2558.7</ele>
        <time>2018-08-10T13:55:59Z</time>
      </trkpt>
      <trkpt lat="4.5838780" lon="-74.2647980">
        <ele>2558.9</ele>
        <time>2018-08-10T13:56:00Z</time>
      </trkpt>
      <trkpt lat="4.5838980" lon="-74.2648400">
        <ele>2559.1</ele>
        <time>2018-08-10T13:56:01Z</time>
      </trkpt>
      <trkpt lat="4.5839150" lon="-74.2648800">
        <ele>2559.3</ele>
        <time>2018-08-10T13:56:02Z</time>
      </trkpt>
      <trkpt lat="4.5839330" lon="-74.2649200">
        <ele>2559.4</ele>
        <time>2018-08-10T13:56:03Z</time>
      </trkpt>
      <trkpt lat="4.5839520" lon="-74.2649600">
        <ele>2559.6</ele>
        <time>2018-08-10T13:56:04Z</time>
      </trkpt>
      <trkpt lat="4.5839700" lon="-74.2649980">
        <ele>2559.8</ele>
        <time>2018-08-10T13:56:05Z</time>
      </trkpt>
      <trkpt lat="4.5839900" lon="-74.2650350">
        <ele>2559.9</ele>
        <time>2018-08-10T13:56:06Z</time>
      </trkpt>
      <trkpt lat="4.5840080" lon="-74.2650720">
        <ele>2560.1</ele>
        <time>2018-08-10T13:56:07Z</time>
      </trkpt>
      <trkpt lat="4.5840280" lon="-74.2651070">
        <ele>2560.2</ele>
        <time>2018-08-10T13:56:08Z</time>
      </trkpt>
      <trkpt lat="4.5840450" lon="-74.2651400">
        <ele>2560.4</ele>
        <time>2018-08-10T13:56:09Z</time>
      </trkpt>
      <trkpt lat="4.5840600" lon="-74.2651730">
        <ele>2560.5</ele>
        <time>2018-08-10T13:56:10Z</time>
      </trkpt>
      <trkpt lat="4.5840750" lon="-74.2652080">
        <ele>2560.7</ele>
        <time>2018-08-10T13:56:11Z</time>
      </trkpt>
      <trkpt lat="4.5840900" lon="-74.2652430">
        <ele>2560.8</ele>
        <time>2018-08-10T13:56:12Z</time>
      </trkpt>
      <trkpt lat="4.5841050" lon="-74.2652780">
        <ele>2561.0</ele>
        <time>2018-08-10T13:56:13Z</time>
      </trkpt>
      <trkpt lat="4.5841230" lon="-74.2653120">
        <ele>2561.2</ele>
        <time>2018-08-10T13:56:14Z</time>
      </trkpt>
      <trkpt lat="4.5841420" lon="-74.2653450">
        <ele>2561.4</ele>
        <time>2018-08-10T13:56:15Z</time>
      </trkpt>
      <trkpt lat="4.5841580" lon="-74.2653770">
        <ele>2561.5</ele>
        <time>2018-08-10T13:56:16Z</time>
      </trkpt>
      <trkpt lat="4.5841730" lon="-74.2654130">
        <ele>2561.7</ele>
        <time>2018-08-10T13:56:17Z</time>
      </trkpt>
      <trkpt lat="4.5841900" lon="-74.2654480">
        <ele>2561.9</ele>
        <time>2018-08-10T13:56:18Z</time>
      </trkpt>
      <trkpt lat="4.5842080" lon="-74.2654850">
        <ele>2562.2</ele>
        <time>2018-08-10T13:56:19Z</time>
      </trkpt>
      <trkpt lat="4.5842320" lon="-74.2655220">
        <ele>2562.4</ele>
        <time>2018-08-10T13:56:20Z</time>
      </trkpt>
      <trkpt lat="4.5842520" lon="-74.2655580">
        <ele>2562.6</ele>
        <time>2018-08-10T13:56:21Z</time>
      </trkpt>
      <trkpt lat="4.5842680" lon="-74.2655980">
        <ele>2562.8</ele>
        <time>2018-08-10T13:56:22Z</time>
      </trkpt>
      <trkpt lat="4.5842850" lon="-74.2656380">
        <ele>2563.0</ele>
        <time>2018-08-10T13:56:23Z</time>
      </trkpt>
      <trkpt lat="4.5843020" lon="-74.2656770">
        <ele>2563.2</ele>
        <time>2018-08-10T13:56:24Z</time>
      </trkpt>
      <trkpt lat="4.5843180" lon="-74.2657100">
        <ele>2563.3</ele>
        <time>2018-08-10T13:56:25Z</time>
      </trkpt>
      <trkpt lat="4.5843370" lon="-74.2657430">
        <ele>2563.4</ele>
        <time>2018-08-10T13:56:26Z</time>
      </trkpt>
      <trkpt lat="4.5843600" lon="-74.2657750">
        <ele>2563.6</ele>
        <time>2018-08-10T13:56:27Z</time>
      </trkpt>
      <trkpt lat="4.5843730" lon="-74.2658120">
        <ele>2563.7</ele>
        <time>2018-08-10T13:56:28Z</time>
      </trkpt>
      <trkpt lat="4.5843900" lon="-74.2658480">
        <ele>2563.9</ele>
        <time>2018-08-10T13:56:29Z</time>
      </trkpt>
      <trkpt lat="4.5844100" lon="-74.2658820">
        <ele>2564.0</ele>
        <time>2018-08-10T13:56:30Z</time>
      </trkpt>
      <trkpt lat="4.5844280" lon="-74.2659170">
        <ele>2564.1</ele>
        <time>2018-08-10T13:56:31Z</time>
      </trkpt>
      <trkpt lat="4.5844450" lon="-74.2659500">
        <ele>2564.3</ele>
        <time>2018-08-10T13:56:32Z</time>
      </trkpt>
      <trkpt lat="4.5844600" lon="-74.2659850">
        <ele>2564.4</ele>
        <time>2018-08-10T13:56:33Z</time>
      </trkpt>
      <trkpt lat="4.5844800" lon="-74.2660200">
        <ele>2564.6</ele>
        <time>2018-08-10T13:56:34Z</time>
      </trkpt>
      <trkpt lat="4.5845020" lon="-74.2660530">
        <ele>2564.8</ele>
        <time>2018-08-10T13:56:35Z</time>
      </trkpt>
      <trkpt lat="4.5845220" lon="-74.2660870">
        <ele>2565.0</ele>
        <time>2018-08-10T13:56:36Z</time>
      </trkpt>
      <trkpt lat="4.5845400" lon="-74.2661180">
        <ele>2565.1</ele>
        <time>2018-08-10T13:56:37Z</time>
      </trkpt>
      <trkpt lat="4.5845570" lon="-74.2661500">
        <ele>2565.3</ele>
        <time>2018-08-10T13:56:38Z</time>
      </trkpt>
      <trkpt lat="4.5845730" lon="-74.2661850">
        <ele>2565.5</ele>
        <time>2018-08-10T13:56:39Z</time>
      </trkpt>
      <trkpt lat="4.5845920" lon="-74.2662200">
        <ele>2565.7</ele>
        <time>2018-08-10T13:56:40Z</time>
      </trkpt>
      <trkpt lat="4.5846150" lon="-74.2662500">
        <ele>2565.8</ele>
        <time>2018-08-10T13:56:41Z</time>
      </trkpt>
      <trkpt lat="4.5846330" lon="-74.2662850">
        <ele>2566.0</ele>
        <time>2018-08-10T13:56:42Z</time>
      </trkpt>
      <trkpt lat="4.5846500" lon="-74.2663200">
        <ele>2566.1</ele>
        <time>2018-08-10T13:56:43Z</time>
      </trkpt>
      <trkpt lat="4.5846680" lon="-74.2663530">
        <ele>2566.3</ele>
        <time>2018-08-10T13:56:44Z</time>
      </trkpt>
      <trkpt lat="4.5846920" lon="-74.2663870">
        <ele>2566.4</ele>
        <time>2018-08-10T13:56:45Z</time>
      </trkpt>
      <trkpt lat="4.5847120" lon="-74.2664220">
        <ele>2566.5</ele>
        <time>2018-08-10T13:56:46Z</time>
      </trkpt>
      <trkpt lat="4.5847320" lon="-74.2664580">
        <ele>2566.5</ele>
        <time>2018-08-10T13:56:47Z</time>
      </trkpt>
      <trkpt lat="4.5847520" lon="-74.2664950">
        <ele>2566.6</ele>
        <time>2018-08-10T13:56:48Z</time>
      </trkpt>
      <trkpt lat="4.5847750" lon="-74.2665230">
        <ele>2566.7</ele>
        <time>2018-08-10T13:56:49Z</time>
      </trkpt>
      <trkpt lat="4.5847950" lon="-74.2665600">
        <ele>2566.7</ele>
        <time>2018-08-10T13:56:50Z</time>
      </trkpt>
      <trkpt lat="4.5848130" lon="-74.2665980">
        <ele>2566.8</ele>
        <time>2018-08-10T13:56:51Z</time>
      </trkpt>
      <trkpt lat="4.5848320" lon="-74.2666380">
        <ele>2566.9</ele>
        <time>2018-08-10T13:56:52Z</time>
      </trkpt>
      <trkpt lat="4.5848480" lon="-74.2666780">
        <ele>2566.9</ele>
        <time>2018-08-10T13:56:53Z</time>
      </trkpt>
      <trkpt lat="4.5848680" lon="-74.2667180">
        <ele>2567.0</ele>
        <time>2018-08-10T13:56:54Z</time>
      </trkpt>
      <trkpt lat="4.5848880" lon="-74.2667570">
        <ele>2567.0</ele>
        <time>2018-08-10T13:56:55Z</time>
      </trkpt>
      <trkpt lat="4.5849100" lon="-74.2667980">
        <ele>2567.0</ele>
        <time>2018-08-10T13:56:56Z</time>
      </trkpt>
      <trkpt lat="4.5849320" lon="-74.2668400">
        <ele>2567.0</ele>
        <time>2018-08-10T13:56:57Z</time>
      </trkpt>
      <trkpt lat="4.5849520" lon="-74.2668830">
        <ele>2567.0</ele>
        <time>2018-08-10T13:56:58Z</time>
      </trkpt>
      <trkpt lat="4.5849730" lon="-74.2669250">
        <ele>2567.0</ele>
        <time>2018-08-10T13:56:59Z</time>
      </trkpt>
      <trkpt lat="4.5849930" lon="-74.2669670">
        <ele>2566.9</ele>
        <time>2018-08-10T13:57:00Z</time>
      </trkpt>
      <trkpt lat="4.5850130" lon="-74.2670070">
        <ele>2566.9</ele>
        <time>2018-08-10T13:57:01Z</time>
      </trkpt>
      <trkpt lat="4.5850350" lon="-74.2670500">
        <ele>2566.9</ele>
        <time>2018-08-10T13:57:02Z</time>
      </trkpt>
      <trkpt lat="4.5850550" lon="-74.2670920">
        <ele>2566.8</ele>
        <time>2018-08-10T13:57:03Z</time>
      </trkpt>
      <trkpt lat="4.5850770" lon="-74.2671350">
        <ele>2566.8</ele>
        <time>2018-08-10T13:57:04Z</time>
      </trkpt>
      <trkpt lat="4.5850980" lon="-74.2671780">
        <ele>2566.8</ele>
        <time>2018-08-10T13:57:05Z</time>
      </trkpt>
      <trkpt lat="4.5851220" lon="-74.2672200">
        <ele>2566.7</ele>
        <time>2018-08-10T13:57:06Z</time>
      </trkpt>
      <trkpt lat="4.5851450" lon="-74.2672620">
        <ele>2566.7</ele>
        <time>2018-08-10T13:57:07Z</time>
      </trkpt>
      <trkpt lat="4.5851650" lon="-74.2673100">
        <ele>2566.7</ele>
        <time>2018-08-10T13:57:08Z</time>
      </trkpt>
      <trkpt lat="4.5851830" lon="-74.2673580">
        <ele>2566.7</ele>
        <time>2018-08-10T13:57:09Z</time>
      </trkpt>
      <trkpt lat="4.5852070" lon="-74.2674000">
        <ele>2566.8</ele>
        <time>2018-08-10T13:57:10Z</time>
      </trkpt>
      <trkpt lat="4.5852300" lon="-74.2674470">
        <ele>2566.8</ele>
        <time>2018-08-10T13:57:11Z</time>
      </trkpt>
      <trkpt lat="4.5852530" lon="-74.2674930">
        <ele>2566.8</ele>
        <time>2018-08-10T13:57:12Z</time>
      </trkpt>
      <trkpt lat="4.5852780" lon="-74.2675400">
        <ele>2566.9</ele>
        <time>2018-08-10T13:57:13Z</time>
      </trkpt>
      <trkpt lat="4.5853050" lon="-74.2675880">
        <ele>2566.9</ele>
        <time>2018-08-10T13:57:14Z</time>
      </trkpt>
      <trkpt lat="4.5853320" lon="-74.2676380">
        <ele>2566.9</ele>
        <time>2018-08-10T13:57:15Z</time>
      </trkpt>
      <trkpt lat="4.5853600" lon="-74.2676880">
        <ele>2567.0</ele>
        <time>2018-08-10T13:57:16Z</time>
      </trkpt>
      <trkpt lat="4.5853870" lon="-74.2677400">
        <ele>2567.0</ele>
        <time>2018-08-10T13:57:17Z</time>
      </trkpt>
      <trkpt lat="4.5854170" lon="-74.2677900">
        <ele>2567.0</ele>
        <time>2018-08-10T13:57:18Z</time>
      </trkpt>
      <trkpt lat="4.5854480" lon="-74.2678380">
        <ele>2567.1</ele>
        <time>2018-08-10T13:57:19Z</time>
      </trkpt>
      <trkpt lat="4.5854820" lon="-74.2678870">
        <ele>2567.1</ele>
        <time>2018-08-10T13:57:20Z</time>
      </trkpt>
      <trkpt lat="4.5855200" lon="-74.2679330">
        <ele>2567.1</ele>
        <time>2018-08-10T13:57:21Z</time>
      </trkpt>
      <trkpt lat="4.5855580" lon="-74.2679830">
        <ele>2567.1</ele>
        <time>2018-08-10T13:57:22Z</time>
      </trkpt>
      <trkpt lat="4.5856000" lon="-74.2680330">
        <ele>2567.2</ele>
        <time>2018-08-10T13:57:23Z</time>
      </trkpt>
      <trkpt lat="4.5856480" lon="-74.2680800">
        <ele>2567.2</ele>
        <time>2018-08-10T13:57:24Z</time>
      </trkpt>
      <trkpt lat="4.5856950" lon="-74.2681280">
        <ele>2567.2</ele>
        <time>2018-08-10T13:57:25Z</time>
      </trkpt>
      <trkpt lat="4.5857420" lon="-74.2681780">
        <ele>2567.3</ele>
        <time>2018-08-10T13:57:26Z</time>
      </trkpt>
      <trkpt lat="4.5857870" lon="-74.2682270">
        <ele>2567.3</ele>
        <time>2018-08-10T13:57:27Z</time>
      </trkpt>
      <trkpt lat="4.5858330" lon="-74.2682750">
        <ele>2567.3</ele>
        <time>2018-08-10T13:57:28Z</time>
      </trkpt>
      <trkpt lat="4.5858800" lon="-74.2683230">
        <ele>2567.3</ele>
        <time>2018-08-10T13:57:29Z</time>
      </trkpt>
      <trkpt lat="4.5859270" lon="-74.2683720">
        <ele>2567.3</ele>
        <time>2018-08-10T13:57:30Z</time>
      </trkpt>
      <trkpt lat="4.5859730" lon="-74.2684200">
        <ele>2567.4</ele>
        <time>2018-08-10T13:57:31Z</time>
      </trkpt>
      <trkpt lat="4.5860220" lon="-74.2684700">
        <ele>2567.4</ele>
        <time>2018-08-10T13:57:32Z</time>
      </trkpt>
      <trkpt lat="4.5860670" lon="-74.2685180">
        <ele>2567.4</ele>
        <time>2018-08-10T13:57:33Z</time>
      </trkpt>
      <trkpt lat="4.5861150" lon="-74.2685680">
        <ele>2567.4</ele>
        <time>2018-08-10T13:57:34Z</time>
      </trkpt>
      <trkpt lat="4.5861630" lon="-74.2686180">
        <ele>2567.4</ele>
        <time>2018-08-10T13:57:35Z</time>
      </trkpt>
      <trkpt lat="4.5862120" lon="-74.2686700">
        <ele>2567.5</ele>
        <time>2018-08-10T13:57:36Z</time>
      </trkpt>
      <trkpt lat="4.5862600" lon="-74.2687230">
        <ele>2567.5</ele>
        <time>2018-08-10T13:57:37Z</time>
      </trkpt>
      <trkpt lat="4.5863080" lon="-74.2687780">
        <ele>2567.5</ele>
        <time>2018-08-10T13:57:38Z</time>
      </trkpt>
      <trkpt lat="4.5863570" lon="-74.2688280">
        <ele>2567.5</ele>
        <time>2018-08-10T13:57:39Z</time>
      </trkpt>
      <trkpt lat="4.5864030" lon="-74.2688780">
        <ele>2567.5</ele>
        <time>2018-08-10T13:57:40Z</time>
      </trkpt>
      <trkpt lat="4.5864520" lon="-74.2689270">
        <ele>2567.5</ele>
        <time>2018-08-10T13:57:41Z</time>
      </trkpt>
      <trkpt lat="4.5865000" lon="-74.2689750">
        <ele>2567.6</ele>
        <time>2018-08-10T13:57:42Z</time>
      </trkpt>
      <trkpt lat="4.5865470" lon="-74.2690230">
        <ele>2567.6</ele>
        <time>2018-08-10T13:57:43Z</time>
      </trkpt>
      <trkpt lat="4.5865950" lon="-74.2690730">
        <ele>2567.6</ele>
        <time>2018-08-10T13:57:44Z</time>
      </trkpt>
      <trkpt lat="4.5866400" lon="-74.2691250">
        <ele>2567.6</ele>
        <time>2018-08-10T13:57:45Z</time>
      </trkpt>
      <trkpt lat="4.5866880" lon="-74.2691750">
        <ele>2567.6</ele>
        <time>2018-08-10T13:57:46Z</time>
      </trkpt>
      <trkpt lat="4.5867350" lon="-74.2692270">
        <ele>2567.6</ele>
        <time>2018-08-10T13:57:47Z</time>
      </trkpt>
      <trkpt lat="4.5867800" lon="-74.2692800">
        <ele>2567.6</ele>
        <time>2018-08-10T13:57:48Z</time>
      </trkpt>
      <trkpt lat="4.5868270" lon="-74.2693320">
        <ele>2567.7</ele>
        <time>2018-08-10T13:57:49Z</time>
      </trkpt>
      <trkpt lat="4.5868750" lon="-74.2693830">
        <ele>2567.7</ele>
        <time>2018-08-10T13:57:50Z</time>
      </trkpt>
      <trkpt lat="4.5869230" lon="-74.2694350">
        <ele>2567.7</ele>
        <time>2018-08-10T13:57:51Z</time>
      </trkpt>
      <trkpt lat="4.5869730" lon="-74.2694900">
        <ele>2567.7</ele>
        <time>2018-08-10T13:57:52Z</time>
      </trkpt>
      <trkpt lat="4.5870200" lon="-74.2695470">
        <ele>2567.7</ele>
        <time>2018-08-10T13:57:53Z</time>
      </trkpt>
      <trkpt lat="4.5870670" lon="-74.2696020">
        <ele>2567.7</ele>
        <time>2018-08-10T13:57:54Z</time>
      </trkpt>
      <trkpt lat="4.5871170" lon="-74.2696550">
        <ele>2567.7</ele>
        <time>2018-08-10T13:57:55Z</time>
      </trkpt>
      <trkpt lat="4.5871700" lon="-74.2697100">
        <ele>2567.7</ele>
        <time>2018-08-10T13:57:56Z</time>
      </trkpt>
      <trkpt lat="4.5872220" lon="-74.2697670">
        <ele>2567.8</ele>
        <time>2018-08-10T13:57:57Z</time>
      </trkpt>
      <trkpt lat="4.5872770" lon="-74.2698200">
        <ele>2567.8</ele>
        <time>2018-08-10T13:57:58Z</time>
      </trkpt>
      <trkpt lat="4.5873280" lon="-74.2698770">
        <ele>2567.7</ele>
        <time>2018-08-10T13:57:59Z</time>
      </trkpt>
      <trkpt lat="4.5873820" lon="-74.2699320">
        <ele>2567.7</ele>
        <time>2018-08-10T13:58:00Z</time>
      </trkpt>
      <trkpt lat="4.5874370" lon="-74.2699850">
        <ele>2567.7</ele>
        <time>2018-08-10T13:58:01Z</time>
      </trkpt>
      <trkpt lat="4.5874880" lon="-74.2700430">
        <ele>2567.7</ele>
        <time>2018-08-10T13:58:02Z</time>
      </trkpt>
      <trkpt lat="4.5875400" lon="-74.2701020">
        <ele>2567.7</ele>
        <time>2018-08-10T13:58:03Z</time>
      </trkpt>
      <trkpt lat="4.5875900" lon="-74.2701600">
        <ele>2567.7</ele>
        <time>2018-08-10T13:58:04Z</time>
      </trkpt>
      <trkpt lat="4.5876420" lon="-74.2702170">
        <ele>2567.7</ele>
        <time>2018-08-10T13:58:05Z</time>
      </trkpt>
      <trkpt lat="4.5876920" lon="-74.2702730">
        <ele>2567.7</ele>
        <time>2018-08-10T13:58:06Z</time>
      </trkpt>
      <trkpt lat="4.5877450" lon="-74.2703280">
        <ele>2567.6</ele>
        <time>2018-08-10T13:58:07Z</time>
      </trkpt>
      <trkpt lat="4.5877970" lon="-74.2703850">
        <ele>2567.6</ele>
        <time>2018-08-10T13:58:08Z</time>
      </trkpt>
      <trkpt lat="4.5878520" lon="-74.2704420">
        <ele>2567.5</ele>
        <time>2018-08-10T13:58:09Z</time>
      </trkpt>
      <trkpt lat="4.5879070" lon="-74.2705000">
        <ele>2567.5</ele>
        <time>2018-08-10T13:58:10Z</time>
      </trkpt>
      <trkpt lat="4.5879600" lon="-74.2705570">
        <ele>2567.4</ele>
        <time>2018-08-10T13:58:11Z</time>
      </trkpt>
      <trkpt lat="4.5880150" lon="-74.2706150">
        <ele>2567.4</ele>
        <time>2018-08-10T13:58:12Z</time>
      </trkpt>
      <trkpt lat="4.5880730" lon="-74.2706720">
        <ele>2567.3</ele>
        <time>2018-08-10T13:58:13Z</time>
      </trkpt>
      <trkpt lat="4.5881270" lon="-74.2707280">
        <ele>2567.3</ele>
        <time>2018-08-10T13:58:14Z</time>
      </trkpt>
      <trkpt lat="4.5881800" lon="-74.2707870">
        <ele>2567.3</ele>
        <time>2018-08-10T13:58:15Z</time>
      </trkpt>
      <trkpt lat="4.5882320" lon="-74.2708480">
        <ele>2567.2</ele>
        <time>2018-08-10T13:58:16Z</time>
      </trkpt>
      <trkpt lat="4.5882870" lon="-74.2709070">
        <ele>2567.2</ele>
        <time>2018-08-10T13:58:17Z</time>
      </trkpt>
      <trkpt lat="4.5883400" lon="-74.2709650">
        <ele>2567.2</ele>
        <time>2018-08-10T13:58:18Z</time>
      </trkpt>
      <trkpt lat="4.5883980" lon="-74.2710180">
        <ele>2567.2</ele>
        <time>2018-08-10T13:58:19Z</time>
      </trkpt>
      <trkpt lat="4.5884480" lon="-74.2710770">
        <ele>2567.2</ele>
        <time>2018-08-10T13:58:20Z</time>
      </trkpt>
      <trkpt lat="4.5885000" lon="-74.2711350">
        <ele>2567.1</ele>
        <time>2018-08-10T13:58:21Z</time>
      </trkpt>
      <trkpt lat="4.5885520" lon="-74.2711930">
        <ele>2567.1</ele>
        <time>2018-08-10T13:58:22Z</time>
      </trkpt>
      <trkpt lat="4.5886020" lon="-74.2712500">
        <ele>2567.1</ele>
        <time>2018-08-10T13:58:23Z</time>
      </trkpt>
      <trkpt lat="4.5886520" lon="-74.2713070">
        <ele>2567.1</ele>
        <time>2018-08-10T13:58:24Z</time>
      </trkpt>
      <trkpt lat="4.5887050" lon="-74.2713630">
        <ele>2567.1</ele>
        <time>2018-08-10T13:58:25Z</time>
      </trkpt>
      <trkpt lat="4.5887570" lon="-74.2714220">
        <ele>2567.1</ele>
        <time>2018-08-10T13:58:26Z</time>
      </trkpt>
      <trkpt lat="4.5888070" lon="-74.2714800">
        <ele>2567.1</ele>
        <time>2018-08-10T13:58:27Z</time>
      </trkpt>
      <trkpt lat="4.5888550" lon="-74.2715370">
        <ele>2567.1</ele>
        <time>2018-08-10T13:58:28Z</time>
      </trkpt>
      <trkpt lat="4.5889070" lon="-74.2715930">
        <ele>2567.1</ele>
        <time>2018-08-10T13:58:29Z</time>
      </trkpt>
      <trkpt lat="4.5889600" lon="-74.2716520">
        <ele>2567.1</ele>
        <time>2018-08-10T13:58:30Z</time>
      </trkpt>
      <trkpt lat="4.5890170" lon="-74.2717100">
        <ele>2567.1</ele>
        <time>2018-08-10T13:58:31Z</time>
      </trkpt>
      <trkpt lat="4.5890750" lon="-74.2717650">
        <ele>2567.1</ele>
        <time>2018-08-10T13:58:32Z</time>
      </trkpt>
      <trkpt lat="4.5891330" lon="-74.2718200">
        <ele>2567.1</ele>
        <time>2018-08-10T13:58:33Z</time>
      </trkpt>
      <trkpt lat="4.5891900" lon="-74.2718770">
        <ele>2567.1</ele>
        <time>2018-08-10T13:58:34Z</time>
      </trkpt>
      <trkpt lat="4.5892470" lon="-74.2719350">
        <ele>2567.2</ele>
        <time>2018-08-10T13:58:35Z</time>
      </trkpt>
      <trkpt lat="4.5893020" lon="-74.2719920">
        <ele>2567.2</ele>
        <time>2018-08-10T13:58:36Z</time>
      </trkpt>
      <trkpt lat="4.5893550" lon="-74.2720480">
        <ele>2567.2</ele>
        <time>2018-08-10T13:58:37Z</time>
      </trkpt>
      <trkpt lat="4.5894070" lon="-74.2721030">
        <ele>2567.2</ele>
        <time>2018-08-10T13:58:38Z</time>
      </trkpt>
      <trkpt lat="4.5894550" lon="-74.2721600">
        <ele>2567.2</ele>
        <time>2018-08-10T13:58:39Z</time>
      </trkpt>
      <trkpt lat="4.5895050" lon="-74.2722120">
        <ele>2567.2</ele>
        <time>2018-08-10T13:58:40Z</time>
      </trkpt>
      <trkpt lat="4.5895570" lon="-74.2722650">
        <ele>2567.2</ele>
        <time>2018-08-10T13:58:41Z</time>
      </trkpt>
      <trkpt lat="4.5896070" lon="-74.2723180">
        <ele>2567.3</ele>
        <time>2018-08-10T13:58:42Z</time>
      </trkpt>
      <trkpt lat="4.5896530" lon="-74.2723720">
        <ele>2567.3</ele>
        <time>2018-08-10T13:58:43Z</time>
      </trkpt>
      <trkpt lat="4.5897020" lon="-74.2724220">
        <ele>2567.3</ele>
        <time>2018-08-10T13:58:44Z</time>
      </trkpt>
      <trkpt lat="4.5897550" lon="-74.2724730">
        <ele>2567.3</ele>
        <time>2018-08-10T13:58:45Z</time>
      </trkpt>
      <trkpt lat="4.5898070" lon="-74.2725250">
        <ele>2567.3</ele>
        <time>2018-08-10T13:58:46Z</time>
      </trkpt>
      <trkpt lat="4.5898580" lon="-74.2725770">
        <ele>2567.4</ele>
        <time>2018-08-10T13:58:47Z</time>
      </trkpt>
      <trkpt lat="4.5899070" lon="-74.2726270">
        <ele>2567.4</ele>
        <time>2018-08-10T13:58:48Z</time>
      </trkpt>
      <trkpt lat="4.5899550" lon="-74.2726770">
        <ele>2567.4</ele>
        <time>2018-08-10T13:58:49Z</time>
      </trkpt>
      <trkpt lat="4.5900030" lon="-74.2727270">
        <ele>2567.5</ele>
        <time>2018-08-10T13:58:50Z</time>
      </trkpt>
      <trkpt lat="4.5900500" lon="-74.2727770">
        <ele>2567.5</ele>
        <time>2018-08-10T13:58:51Z</time>
      </trkpt>
      <trkpt lat="4.5900980" lon="-74.2728270">
        <ele>2567.6</ele>
        <time>2018-08-10T13:58:52Z</time>
      </trkpt>
      <trkpt lat="4.5901470" lon="-74.2728750">
        <ele>2567.7</ele>
        <time>2018-08-10T13:58:53Z</time>
      </trkpt>
      <trkpt lat="4.5901930" lon="-74.2729270">
        <ele>2567.8</ele>
        <time>2018-08-10T13:58:54Z</time>
      </trkpt>
      <trkpt lat="4.5902380" lon="-74.2729780">
        <ele>2567.9</ele>
        <time>2018-08-10T13:58:55Z</time>
      </trkpt>
      <trkpt lat="4.5902870" lon="-74.2730270">
        <ele>2568.0</ele>
        <time>2018-08-10T13:58:56Z</time>
      </trkpt>
      <trkpt lat="4.5903320" lon="-74.2730750">
        <ele>2568.1</ele>
        <time>2018-08-10T13:58:57Z</time>
      </trkpt>
      <trkpt lat="4.5903750" lon="-74.2731220">
        <ele>2568.2</ele>
        <time>2018-08-10T13:58:58Z</time>
      </trkpt>
      <trkpt lat="4.5904220" lon="-74.2731720">
        <ele>2568.4</ele>
        <time>2018-08-10T13:58:59Z</time>
      </trkpt>
      <trkpt lat="4.5904700" lon="-74.2732220">
        <ele>2568.5</ele>
        <time>2018-08-10T13:59:00Z</time>
      </trkpt>
      <trkpt lat="4.5905200" lon="-74.2732720">
        <ele>2568.7</ele>
        <time>2018-08-10T13:59:01Z</time>
      </trkpt>
      <trkpt lat="4.5905700" lon="-74.2733180">
        <ele>2568.9</ele>
        <time>2018-08-10T13:59:02Z</time>
      </trkpt>
      <trkpt lat="4.5906180" lon="-74.2733700">
        <ele>2569.1</ele>
        <time>2018-08-10T13:59:03Z</time>
      </trkpt>
      <trkpt lat="4.5906650" lon="-74.2734170">
        <ele>2569.3</ele>
        <time>2018-08-10T13:59:04Z</time>
      </trkpt>
      <trkpt lat="4.5907120" lon="-74.2734670">
        <ele>2569.5</ele>
        <time>2018-08-10T13:59:05Z</time>
      </trkpt>
      <trkpt lat="4.5907600" lon="-74.2735150">
        <ele>2569.6</ele>
        <time>2018-08-10T13:59:06Z</time>
      </trkpt>
      <trkpt lat="4.5908120" lon="-74.2735630">
        <ele>2569.7</ele>
        <time>2018-08-10T13:59:07Z</time>
      </trkpt>
      <trkpt lat="4.5908600" lon="-74.2736150">
        <ele>2569.8</ele>
        <time>2018-08-10T13:59:08Z</time>
      </trkpt>
      <trkpt lat="4.5909070" lon="-74.2736680">
        <ele>2569.9</ele>
        <time>2018-08-10T13:59:09Z</time>
      </trkpt>
      <trkpt lat="4.5909550" lon="-74.2737220">
        <ele>2570.0</ele>
        <time>2018-08-10T13:59:10Z</time>
      </trkpt>
      <trkpt lat="4.5910050" lon="-74.2737780">
        <ele>2570.1</ele>
        <time>2018-08-10T13:59:11Z</time>
      </trkpt>
      <trkpt lat="4.5910530" lon="-74.2738300">
        <ele>2570.2</ele>
        <time>2018-08-10T13:59:12Z</time>
      </trkpt>
      <trkpt lat="4.5911000" lon="-74.2738830">
        <ele>2570.3</ele>
        <time>2018-08-10T13:59:13Z</time>
      </trkpt>
      <trkpt lat="4.5911480" lon="-74.2739330">
        <ele>2570.3</ele>
        <time>2018-08-10T13:59:14Z</time>
      </trkpt>
      <trkpt lat="4.5911950" lon="-74.2739820">
        <ele>2570.4</ele>
        <time>2018-08-10T13:59:15Z</time>
      </trkpt>
      <trkpt lat="4.5912450" lon="-74.2740300">
        <ele>2570.5</ele>
        <time>2018-08-10T13:59:16Z</time>
      </trkpt>
      <trkpt lat="4.5912920" lon="-74.2740800">
        <ele>2570.5</ele>
        <time>2018-08-10T13:59:17Z</time>
      </trkpt>
      <trkpt lat="4.5913420" lon="-74.2741320">
        <ele>2570.6</ele>
        <time>2018-08-10T13:59:18Z</time>
      </trkpt>
      <trkpt lat="4.5913900" lon="-74.2741820">
        <ele>2570.6</ele>
        <time>2018-08-10T13:59:19Z</time>
      </trkpt>
      <trkpt lat="4.5914380" lon="-74.2742320">
        <ele>2570.7</ele>
        <time>2018-08-10T13:59:20Z</time>
      </trkpt>
      <trkpt lat="4.5914870" lon="-74.2742830">
        <ele>2570.7</ele>
        <time>2018-08-10T13:59:21Z</time>
      </trkpt>
      <trkpt lat="4.5915380" lon="-74.2743370">
        <ele>2570.8</ele>
        <time>2018-08-10T13:59:22Z</time>
      </trkpt>
      <trkpt lat="4.5915880" lon="-74.2743870">
        <ele>2570.8</ele>
        <time>2018-08-10T13:59:23Z</time>
      </trkpt>
      <trkpt lat="4.5916380" lon="-74.2744400">
        <ele>2570.9</ele>
        <time>2018-08-10T13:59:24Z</time>
      </trkpt>
      <trkpt lat="4.5916870" lon="-74.2744950">
        <ele>2570.9</ele>
        <time>2018-08-10T13:59:25Z</time>
      </trkpt>
      <trkpt lat="4.5917330" lon="-74.2745480">
        <ele>2571.0</ele>
        <time>2018-08-10T13:59:26Z</time>
      </trkpt>
      <trkpt lat="4.5917800" lon="-74.2746020">
        <ele>2571.0</ele>
        <time>2018-08-10T13:59:27Z</time>
      </trkpt>
      <trkpt lat="4.5918300" lon="-74.2746570">
        <ele>2571.1</ele>
        <time>2018-08-10T13:59:28Z</time>
      </trkpt>
      <trkpt lat="4.5918780" lon="-74.2747100">
        <ele>2571.1</ele>
        <time>2018-08-10T13:59:29Z</time>
      </trkpt>
      <trkpt lat="4.5919270" lon="-74.2747650">
        <ele>2571.2</ele>
        <time>2018-08-10T13:59:30Z</time>
      </trkpt>
      <trkpt lat="4.5919770" lon="-74.2748200">
        <ele>2571.3</ele>
        <time>2018-08-10T13:59:31Z</time>
      </trkpt>
      <trkpt lat="4.5920270" lon="-74.2748730">
        <ele>2571.3</ele>
        <time>2018-08-10T13:59:32Z</time>
      </trkpt>
      <trkpt lat="4.5920750" lon="-74.2749280">
        <ele>2571.4</ele>
        <time>2018-08-10T13:59:33Z</time>
      </trkpt>
      <trkpt lat="4.5921230" lon="-74.2749830">
        <ele>2571.5</ele>
        <time>2018-08-10T13:59:34Z</time>
      </trkpt>
      <trkpt lat="4.5921700" lon="-74.2750380">
        <ele>2571.6</ele>
        <time>2018-08-10T13:59:35Z</time>
      </trkpt>
      <trkpt lat="4.5922200" lon="-74.2750950">
        <ele>2571.7</ele>
        <time>2018-08-10T13:59:36Z</time>
      </trkpt>
      <trkpt lat="4.5922680" lon="-74.2751500">
        <ele>2571.9</ele>
        <time>2018-08-10T13:59:37Z</time>
      </trkpt>
      <trkpt lat="4.5923180" lon="-74.2752070">
        <ele>2572.2</ele>
        <time>2018-08-10T13:59:38Z</time>
      </trkpt>
      <trkpt lat="4.5923670" lon="-74.2752630">
        <ele>2572.4</ele>
        <time>2018-08-10T13:59:39Z</time>
      </trkpt>
      <trkpt lat="4.5924130" lon="-74.2753200">
        <ele>2572.6</ele>
        <time>2018-08-10T13:59:40Z</time>
      </trkpt>
      <trkpt lat="4.5924630" lon="-74.2753730">
        <ele>2572.9</ele>
        <time>2018-08-10T13:59:41Z</time>
      </trkpt>
      <trkpt lat="4.5925150" lon="-74.2754270">
        <ele>2573.1</ele>
        <time>2018-08-10T13:59:42Z</time>
      </trkpt>
      <trkpt lat="4.5925650" lon="-74.2754820">
        <ele>2573.3</ele>
        <time>2018-08-10T13:59:43Z</time>
      </trkpt>
      <trkpt lat="4.5926150" lon="-74.2755320">
        <ele>2573.4</ele>
        <time>2018-08-10T13:59:44Z</time>
      </trkpt>
      <trkpt lat="4.5926650" lon="-74.2755850">
        <ele>2573.4</ele>
        <time>2018-08-10T13:59:45Z</time>
      </trkpt>
      <trkpt lat="4.5927130" lon="-74.2756380">
        <ele>2573.5</ele>
        <time>2018-08-10T13:59:46Z</time>
      </trkpt>
      <trkpt lat="4.5927630" lon="-74.2756920">
        <ele>2573.6</ele>
        <time>2018-08-10T13:59:47Z</time>
      </trkpt>
      <trkpt lat="4.5928130" lon="-74.2757450">
        <ele>2573.7</ele>
        <time>2018-08-10T13:59:48Z</time>
      </trkpt>
      <trkpt lat="4.5928630" lon="-74.2757980">
        <ele>2573.8</ele>
        <time>2018-08-10T13:59:49Z</time>
      </trkpt>
      <trkpt lat="4.5929130" lon="-74.2758520">
        <ele>2573.9</ele>
        <time>2018-08-10T13:59:50Z</time>
      </trkpt>
      <trkpt lat="4.5929620" lon="-74.2759050">
        <ele>2573.9</ele>
        <time>2018-08-10T13:59:51Z</time>
      </trkpt>
      <trkpt lat="4.5930120" lon="-74.2759600">
        <ele>2574.0</ele>
        <time>2018-08-10T13:59:52Z</time>
      </trkpt>
      <trkpt lat="4.5930600" lon="-74.2760130">
        <ele>2574.0</ele>
        <time>2018-08-10T13:59:53Z</time>
      </trkpt>
      <trkpt lat="4.5931080" lon="-74.2760670">
        <ele>2574.1</ele>
        <time>2018-08-10T13:59:54Z</time>
      </trkpt>
      <trkpt lat="4.5931570" lon="-74.2761200">
        <ele>2574.2</ele>
        <time>2018-08-10T13:59:55Z</time>
      </trkpt>
      <trkpt lat="4.5932050" lon="-74.2761720">
        <ele>2574.2</ele>
        <time>2018-08-10T13:59:56Z</time>
      </trkpt>
      <trkpt lat="4.5932520" lon="-74.2762220">
        <ele>2574.3</ele>
        <time>2018-08-10T13:59:57Z</time>
      </trkpt>
      <trkpt lat="4.5932980" lon="-74.2762730">
        <ele>2574.3</ele>
        <time>2018-08-10T13:59:58Z</time>
      </trkpt>
      <trkpt lat="4.5933470" lon="-74.2763230">
        <ele>2574.4</ele>
        <time>2018-08-10T13:59:59Z</time>
      </trkpt>
      <trkpt lat="4.5933920" lon="-74.2763720">
        <ele>2574.4</ele>
        <time>2018-08-10T14:00:00Z</time>
      </trkpt>
      <trkpt lat="4.5934380" lon="-74.2764180">
        <ele>2574.4</ele>
        <time>2018-08-10T14:00:01Z</time>
      </trkpt>
      <trkpt lat="4.5934830" lon="-74.2764680">
        <ele>2574.5</ele>
        <time>2018-08-10T14:00:02Z</time>
      </trkpt>
      <trkpt lat="4.5935270" lon="-74.2765170">
        <ele>2574.5</ele>
        <time>2018-08-10T14:00:03Z</time>
      </trkpt>
      <trkpt lat="4.5935720" lon="-74.2765630">
        <ele>2574.6</ele>
        <time>2018-08-10T14:00:04Z</time>
      </trkpt>
      <trkpt lat="4.5936170" lon="-74.2766120">
        <ele>2574.6</ele>
        <time>2018-08-10T14:00:05Z</time>
      </trkpt>
      <trkpt lat="4.5936600" lon="-74.2766620">
        <ele>2574.6</ele>
        <time>2018-08-10T14:00:06Z</time>
      </trkpt>
      <trkpt lat="4.5937030" lon="-74.2767120">
        <ele>2574.7</ele>
        <time>2018-08-10T14:00:07Z</time>
      </trkpt>
      <trkpt lat="4.5937470" lon="-74.2767600">
        <ele>2574.7</ele>
        <time>2018-08-10T14:00:08Z</time>
      </trkpt>
      <trkpt lat="4.5937900" lon="-74.2768080">
        <ele>2574.7</ele>
        <time>2018-08-10T14:00:09Z</time>
      </trkpt>
      <trkpt lat="4.5938320" lon="-74.2768600">
        <ele>2574.8</ele>
        <time>2018-08-10T14:00:10Z</time>
      </trkpt>
      <trkpt lat="4.5938780" lon="-74.2769100">
        <ele>2574.8</ele>
        <time>2018-08-10T14:00:11Z</time>
      </trkpt>
      <trkpt lat="4.5939270" lon="-74.2769580">
        <ele>2574.9</ele>
        <time>2018-08-10T14:00:12Z</time>
      </trkpt>
      <trkpt lat="4.5939770" lon="-74.2770070">
        <ele>2574.9</ele>
        <time>2018-08-10T14:00:13Z</time>
      </trkpt>
      <trkpt lat="4.5940250" lon="-74.2770570">
        <ele>2575.0</ele>
        <time>2018-08-10T14:00:14Z</time>
      </trkpt>
      <trkpt lat="4.5940720" lon="-74.2771080">
        <ele>2575.0</ele>
        <time>2018-08-10T14:00:15Z</time>
      </trkpt>
      <trkpt lat="4.5941220" lon="-74.2771580">
        <ele>2575.2</ele>
        <time>2018-08-10T14:00:16Z</time>
      </trkpt>
      <trkpt lat="4.5941720" lon="-74.2772100">
        <ele>2575.3</ele>
        <time>2018-08-10T14:00:17Z</time>
      </trkpt>
      <trkpt lat="4.5942180" lon="-74.2772630">
        <ele>2575.4</ele>
        <time>2018-08-10T14:00:18Z</time>
      </trkpt>
      <trkpt lat="4.5942670" lon="-74.2773150">
        <ele>2575.6</ele>
        <time>2018-08-10T14:00:19Z</time>
      </trkpt>
      <trkpt lat="4.5943130" lon="-74.2773670">
        <ele>2575.7</ele>
        <time>2018-08-10T14:00:20Z</time>
      </trkpt>
      <trkpt lat="4.5943620" lon="-74.2774200">
        <ele>2575.9</ele>
        <time>2018-08-10T14:00:21Z</time>
      </trkpt>
      <trkpt lat="4.5944130" lon="-74.2774730">
        <ele>2576.1</ele>
        <time>2018-08-10T14:00:22Z</time>
      </trkpt>
      <trkpt lat="4.5944650" lon="-74.2775270">
        <ele>2576.3</ele>
        <time>2018-08-10T14:00:23Z</time>
      </trkpt>
      <trkpt lat="4.5945150" lon="-74.2775830">
        <ele>2576.4</ele>
        <time>2018-08-10T14:00:24Z</time>
      </trkpt>
      <trkpt lat="4.5945650" lon="-74.2776380">
        <ele>2576.6</ele>
        <time>2018-08-10T14:00:25Z</time>
      </trkpt>
      <trkpt lat="4.5946150" lon="-74.2776930">
        <ele>2576.7</ele>
        <time>2018-08-10T14:00:26Z</time>
      </trkpt>
      <trkpt lat="4.5946650" lon="-74.2777480">
        <ele>2576.8</ele>
        <time>2018-08-10T14:00:27Z</time>
      </trkpt>
      <trkpt lat="4.5947170" lon="-74.2778030">
        <ele>2576.8</ele>
        <time>2018-08-10T14:00:28Z</time>
      </trkpt>
      <trkpt lat="4.5947670" lon="-74.2778570">
        <ele>2576.9</ele>
        <time>2018-08-10T14:00:29Z</time>
      </trkpt>
      <trkpt lat="4.5948170" lon="-74.2779120">
        <ele>2577.0</ele>
        <time>2018-08-10T14:00:30Z</time>
      </trkpt>
      <trkpt lat="4.5948670" lon="-74.2779650">
        <ele>2577.0</ele>
        <time>2018-08-10T14:00:31Z</time>
      </trkpt>
      <trkpt lat="4.5949180" lon="-74.2780200">
        <ele>2577.1</ele>
        <time>2018-08-10T14:00:32Z</time>
      </trkpt>
      <trkpt lat="4.5949700" lon="-74.2780730">
        <ele>2577.1</ele>
        <time>2018-08-10T14:00:33Z</time>
      </trkpt>
      <trkpt lat="4.5950180" lon="-74.2781280">
        <ele>2577.2</ele>
        <time>2018-08-10T14:00:34Z</time>
      </trkpt>
      <trkpt lat="4.5950670" lon="-74.2781830">
        <ele>2577.3</ele>
        <time>2018-08-10T14:00:35Z</time>
      </trkpt>
      <trkpt lat="4.5951170" lon="-74.2782380">
        <ele>2577.3</ele>
        <time>2018-08-10T14:00:36Z</time>
      </trkpt>
      <trkpt lat="4.5951670" lon="-74.2782920">
        <ele>2577.3</ele>
        <time>2018-08-10T14:00:37Z</time>
      </trkpt>
      <trkpt lat="4.5952180" lon="-74.2783470">
        <ele>2577.4</ele>
        <time>2018-08-10T14:00:38Z</time>
      </trkpt>
      <trkpt lat="4.5952700" lon="-74.2784000">
        <ele>2577.4</ele>
        <time>2018-08-10T14:00:39Z</time>
      </trkpt>
      <trkpt lat="4.5953200" lon="-74.2784570">
        <ele>2577.5</ele>
        <time>2018-08-10T14:00:40Z</time>
      </trkpt>
      <trkpt lat="4.5953720" lon="-74.2785120">
        <ele>2577.5</ele>
        <time>2018-08-10T14:00:41Z</time>
      </trkpt>
      <trkpt lat="4.5954230" lon="-74.2785680">
        <ele>2577.6</ele>
        <time>2018-08-10T14:00:42Z</time>
      </trkpt>
      <trkpt lat="4.5954770" lon="-74.2786270">
        <ele>2577.6</ele>
        <time>2018-08-10T14:00:43Z</time>
      </trkpt>
      <trkpt lat="4.5955330" lon="-74.2786870">
        <ele>2577.7</ele>
        <time>2018-08-10T14:00:44Z</time>
      </trkpt>
      <trkpt lat="4.5955880" lon="-74.2787450">
        <ele>2577.7</ele>
        <time>2018-08-10T14:00:45Z</time>
      </trkpt>
      <trkpt lat="4.5956420" lon="-74.2788050">
        <ele>2577.8</ele>
        <time>2018-08-10T14:00:46Z</time>
      </trkpt>
      <trkpt lat="4.5956930" lon="-74.2788620">
        <ele>2577.8</ele>
        <time>2018-08-10T14:00:47Z</time>
      </trkpt>
      <trkpt lat="4.5957470" lon="-74.2789180">
        <ele>2577.8</ele>
        <time>2018-08-10T14:00:48Z</time>
      </trkpt>
      <trkpt lat="4.5957980" lon="-74.2789770">
        <ele>2577.9</ele>
        <time>2018-08-10T14:00:49Z</time>
      </trkpt>
      <trkpt lat="4.5958450" lon="-74.2790320">
        <ele>2577.9</ele>
        <time>2018-08-10T14:00:50Z</time>
      </trkpt>
      <trkpt lat="4.5958930" lon="-74.2790870">
        <ele>2578.0</ele>
        <time>2018-08-10T14:00:51Z</time>
      </trkpt>
      <trkpt lat="4.5959420" lon="-74.2791370">
        <ele>2578.0</ele>
        <time>2018-08-10T14:00:52Z</time>
      </trkpt>
      <trkpt lat="4.5959920" lon="-74.2791870">
        <ele>2578.1</ele>
        <time>2018-08-10T14:00:53Z</time>
      </trkpt>
      <trkpt lat="4.5960400" lon="-74.2792370">
        <ele>2578.1</ele>
        <time>2018-08-10T14:00:54Z</time>
      </trkpt>
      <trkpt lat="4.5960850" lon="-74.2792870">
        <ele>2578.2</ele>
        <time>2018-08-10T14:00:55Z</time>
      </trkpt>
      <trkpt lat="4.5961320" lon="-74.2793370">
        <ele>2578.2</ele>
        <time>2018-08-10T14:00:56Z</time>
      </trkpt>
      <trkpt lat="4.5961770" lon="-74.2793870">
        <ele>2578.3</ele>
        <time>2018-08-10T14:00:57Z</time>
      </trkpt>
      <trkpt lat="4.5962230" lon="-74.2794370">
        <ele>2578.5</ele>
        <time>2018-08-10T14:00:58Z</time>
      </trkpt>
      <trkpt lat="4.5962670" lon="-74.2794850">
        <ele>2578.6</ele>
        <time>2018-08-10T14:00:59Z</time>
      </trkpt>
      <trkpt lat="4.5963130" lon="-74.2795320">
        <ele>2578.8</ele>
        <time>2018-08-10T14:01:00Z</time>
      </trkpt>
      <trkpt lat="4.5963580" lon="-74.2795780">
        <ele>2579.0</ele>
        <time>2018-08-10T14:01:01Z</time>
      </trkpt>
      <trkpt lat="4.5964020" lon="-74.2796250">
        <ele>2579.2</ele>
        <time>2018-08-10T14:01:02Z</time>
      </trkpt>
      <trkpt lat="4.5964450" lon="-74.2796730">
        <ele>2579.3</ele>
        <time>2018-08-10T14:01:03Z</time>
      </trkpt>
      <trkpt lat="4.5964880" lon="-74.2797220">
        <ele>2579.5</ele>
        <time>2018-08-10T14:01:04Z</time>
      </trkpt>
      <trkpt lat="4.5965320" lon="-74.2797670">
        <ele>2579.7</ele>
        <time>2018-08-10T14:01:05Z</time>
      </trkpt>
      <trkpt lat="4.5965750" lon="-74.2798180">
        <ele>2579.9</ele>
        <time>2018-08-10T14:01:06Z</time>
      </trkpt>
      <trkpt lat="4.5966170" lon="-74.2798680">
        <ele>2580.1</ele>
        <time>2018-08-10T14:01:07Z</time>
      </trkpt>
      <trkpt lat="4.5966580" lon="-74.2799180">
        <ele>2580.2</ele>
        <time>2018-08-10T14:01:08Z</time>
      </trkpt>
      <trkpt lat="4.5966920" lon="-74.2799730">
        <ele>2580.4</ele>
        <time>2018-08-10T14:01:09Z</time>
      </trkpt>
      <trkpt lat="4.5967270" lon="-74.2800280">
        <ele>2580.5</ele>
        <time>2018-08-10T14:01:10Z</time>
      </trkpt>
      <trkpt lat="4.5967600" lon="-74.2800850">
        <ele>2580.6</ele>
        <time>2018-08-10T14:01:11Z</time>
      </trkpt>
      <trkpt lat="4.5967900" lon="-74.2801470">
        <ele>2580.8</ele>
        <time>2018-08-10T14:01:12Z</time>
      </trkpt>
      <trkpt lat="4.5968250" lon="-74.2802070">
        <ele>2581.0</ele>
        <time>2018-08-10T14:01:13Z</time>
      </trkpt>
      <trkpt lat="4.5968620" lon="-74.2802670">
        <ele>2581.3</ele>
        <time>2018-08-10T14:01:14Z</time>
      </trkpt>
      <trkpt lat="4.5968950" lon="-74.2803270">
        <ele>2581.5</ele>
        <time>2018-08-10T14:01:15Z</time>
      </trkpt>
      <trkpt lat="4.5969280" lon="-74.2803880">
        <ele>2581.8</ele>
        <time>2018-08-10T14:01:16Z</time>
      </trkpt>
      <trkpt lat="4.5969600" lon="-74.2804500">
        <ele>2582.0</ele>
        <time>2018-08-10T14:01:17Z</time>
      </trkpt>
      <trkpt lat="4.5969900" lon="-74.2805120">
        <ele>2582.2</ele>
        <time>2018-08-10T14:01:18Z</time>
      </trkpt>
      <trkpt lat="4.5970170" lon="-74.2805730">
        <ele>2582.4</ele>
        <time>2018-08-10T14:01:19Z</time>
      </trkpt>
      <trkpt lat="4.5970520" lon="-74.2806350">
        <ele>2582.4</ele>
        <time>2018-08-10T14:01:20Z</time>
      </trkpt>
      <trkpt lat="4.5970870" lon="-74.2806970">
        <ele>2582.5</ele>
        <time>2018-08-10T14:01:21Z</time>
      </trkpt>
      <trkpt lat="4.5971220" lon="-74.2807620">
        <ele>2582.6</ele>
        <time>2018-08-10T14:01:22Z</time>
      </trkpt>
      <trkpt lat="4.5971550" lon="-74.2808270">
        <ele>2582.7</ele>
        <time>2018-08-10T14:01:23Z</time>
      </trkpt>
      <trkpt lat="4.5971880" lon="-74.2808850">
        <ele>2582.8</ele>
        <time>2018-08-10T14:01:24Z</time>
      </trkpt>
      <trkpt lat="4.5972230" lon="-74.2809430">
        <ele>2582.9</ele>
        <time>2018-08-10T14:01:25Z</time>
      </trkpt>
      <trkpt lat="4.5972580" lon="-74.2810020">
        <ele>2583.0</ele>
        <time>2018-08-10T14:01:26Z</time>
      </trkpt>
      <trkpt lat="4.5972900" lon="-74.2810630">
        <ele>2583.0</ele>
        <time>2018-08-10T14:01:27Z</time>
      </trkpt>
      <trkpt lat="4.5973250" lon="-74.2811220">
        <ele>2583.1</ele>
        <time>2018-08-10T14:01:28Z</time>
      </trkpt>
      <trkpt lat="4.5973600" lon="-74.2811820">
        <ele>2583.2</ele>
        <time>2018-08-10T14:01:29Z</time>
      </trkpt>
      <trkpt lat="4.5973980" lon="-74.2812380">
        <ele>2583.3</ele>
        <time>2018-08-10T14:01:30Z</time>
      </trkpt>
      <trkpt lat="4.5974400" lon="-74.2812970">
        <ele>2583.3</ele>
        <time>2018-08-10T14:01:31Z</time>
      </trkpt>
      <trkpt lat="4.5974880" lon="-74.2813500">
        <ele>2583.4</ele>
        <time>2018-08-10T14:01:32Z</time>
      </trkpt>
      <trkpt lat="4.5975430" lon="-74.2813980">
        <ele>2583.5</ele>
        <time>2018-08-10T14:01:33Z</time>
      </trkpt>
      <trkpt lat="4.5976050" lon="-74.2814380">
        <ele>2583.6</ele>
        <time>2018-08-10T14:01:34Z</time>
      </trkpt>
      <trkpt lat="4.5976730" lon="-74.2814680">
        <ele>2583.7</ele>
        <time>2018-08-10T14:01:35Z</time>
      </trkpt>
      <trkpt lat="4.5977470" lon="-74.2814900">
        <ele>2583.8</ele>
        <time>2018-08-10T14:01:36Z</time>
      </trkpt>
      <trkpt lat="4.5978230" lon="-74.2814970">
        <ele>2583.8</ele>
        <time>2018-08-10T14:01:37Z</time>
      </trkpt>
      <trkpt lat="4.5979020" lon="-74.2814930">
        <ele>2583.9</ele>
        <time>2018-08-10T14:01:38Z</time>
      </trkpt>
      <trkpt lat="4.5979830" lon="-74.2814730">
        <ele>2584.0</ele>
        <time>2018-08-10T14:01:39Z</time>
      </trkpt>
      <trkpt lat="4.5980550" lon="-74.2814520">
        <ele>2583.9</ele>
        <time>2018-08-10T14:01:40Z</time>
      </trkpt>
      <trkpt lat="4.5981230" lon="-74.2814200">
        <ele>2583.7</ele>
        <time>2018-08-10T14:01:41Z</time>
      </trkpt>
      <trkpt lat="4.5981880" lon="-74.2813780">
        <ele>2583.6</ele>
        <time>2018-08-10T14:01:42Z</time>
      </trkpt>
      <trkpt lat="4.5982480" lon="-74.2813370">
        <ele>2583.4</ele>
        <time>2018-08-10T14:01:43Z</time>
      </trkpt>
      <trkpt lat="4.5982980" lon="-74.2812930">
        <ele>2583.3</ele>
        <time>2018-08-10T14:01:44Z</time>
      </trkpt>
      <trkpt lat="4.5983450" lon="-74.2812500">
        <ele>2583.2</ele>
        <time>2018-08-10T14:01:45Z</time>
      </trkpt>
      <trkpt lat="4.5983970" lon="-74.2812030">
        <ele>2583.0</ele>
        <time>2018-08-10T14:01:46Z</time>
      </trkpt>
      <trkpt lat="4.5984470" lon="-74.2811600">
        <ele>2582.7</ele>
        <time>2018-08-10T14:01:47Z</time>
      </trkpt>
      <trkpt lat="4.5984980" lon="-74.2811170">
        <ele>2582.5</ele>
        <time>2018-08-10T14:01:48Z</time>
      </trkpt>
      <trkpt lat="4.5985520" lon="-74.2810730">
        <ele>2582.3</ele>
        <time>2018-08-10T14:01:49Z</time>
      </trkpt>
      <trkpt lat="4.5986030" lon="-74.2810300">
        <ele>2582.1</ele>
        <time>2018-08-10T14:01:50Z</time>
      </trkpt>
      <trkpt lat="4.5986570" lon="-74.2809900">
        <ele>2581.9</ele>
        <time>2018-08-10T14:01:51Z</time>
      </trkpt>
      <trkpt lat="4.5987070" lon="-74.2809520">
        <ele>2581.7</ele>
        <time>2018-08-10T14:01:52Z</time>
      </trkpt>
      <trkpt lat="4.5987570" lon="-74.2809120">
        <ele>2581.6</ele>
        <time>2018-08-10T14:01:53Z</time>
      </trkpt>
      <trkpt lat="4.5988070" lon="-74.2808700">
        <ele>2581.4</ele>
        <time>2018-08-10T14:01:54Z</time>
      </trkpt>
      <trkpt lat="4.5988550" lon="-74.2808300">
        <ele>2581.3</ele>
        <time>2018-08-10T14:01:55Z</time>
      </trkpt>
      <trkpt lat="4.5989070" lon="-74.2807920">
        <ele>2581.2</ele>
        <time>2018-08-10T14:01:56Z</time>
      </trkpt>
      <trkpt lat="4.5989550" lon="-74.2807530">
        <ele>2581.2</ele>
        <time>2018-08-10T14:01:57Z</time>
      </trkpt>
      <trkpt lat="4.5990020" lon="-74.2807170">
        <ele>2581.2</ele>
        <time>2018-08-10T14:01:58Z</time>
      </trkpt>
      <trkpt lat="4.5990500" lon="-74.2806770">
        <ele>2581.2</ele>
        <time>2018-08-10T14:01:59Z</time>
      </trkpt>
      <trkpt lat="4.5991000" lon="-74.2806370">
        <ele>2581.2</ele>
        <time>2018-08-10T14:02:00Z</time>
      </trkpt>
      <trkpt lat="4.5991470" lon="-74.2805980">
        <ele>2581.1</ele>
        <time>2018-08-10T14:02:01Z</time>
      </trkpt>
      <trkpt lat="4.5991950" lon="-74.2805620">
        <ele>2581.1</ele>
        <time>2018-08-10T14:02:02Z</time>
      </trkpt>
      <trkpt lat="4.5992420" lon="-74.2805270">
        <ele>2581.0</ele>
        <time>2018-08-10T14:02:03Z</time>
      </trkpt>
      <trkpt lat="4.5992900" lon="-74.2804900">
        <ele>2581.0</ele>
        <time>2018-08-10T14:02:04Z</time>
      </trkpt>
      <trkpt lat="4.5993380" lon="-74.2804550">
        <ele>2580.9</ele>
        <time>2018-08-10T14:02:05Z</time>
      </trkpt>
      <trkpt lat="4.5993850" lon="-74.2804150">
        <ele>2580.9</ele>
        <time>2018-08-10T14:02:06Z</time>
      </trkpt>
      <trkpt lat="4.5994300" lon="-74.2803770">
        <ele>2580.8</ele>
        <time>2018-08-10T14:02:07Z</time>
      </trkpt>
      <trkpt lat="4.5994730" lon="-74.2803380">
        <ele>2580.8</ele>
        <time>2018-08-10T14:02:08Z</time>
      </trkpt>
      <trkpt lat="4.5995170" lon="-74.2803020">
        <ele>2580.7</ele>
        <time>2018-08-10T14:02:09Z</time>
      </trkpt>
      <trkpt lat="4.5995620" lon="-74.2802650">
        <ele>2580.6</ele>
        <time>2018-08-10T14:02:10Z</time>
      </trkpt>
      <trkpt lat="4.5996080" lon="-74.2802280">
        <ele>2580.5</ele>
        <time>2018-08-10T14:02:11Z</time>
      </trkpt>
      <trkpt lat="4.5996550" lon="-74.2801900">
        <ele>2580.5</ele>
        <time>2018-08-10T14:02:12Z</time>
      </trkpt>
      <trkpt lat="4.5997000" lon="-74.2801520">
        <ele>2580.4</ele>
        <time>2018-08-10T14:02:13Z</time>
      </trkpt>
      <trkpt lat="4.5997480" lon="-74.2801150">
        <ele>2580.4</ele>
        <time>2018-08-10T14:02:14Z</time>
      </trkpt>
      <trkpt lat="4.5997970" lon="-74.2800750">
        <ele>2580.3</ele>
        <time>2018-08-10T14:02:15Z</time>
      </trkpt>
      <trkpt lat="4.5998450" lon="-74.2800370">
        <ele>2580.3</ele>
        <time>2018-08-10T14:02:16Z</time>
      </trkpt>
      <trkpt lat="4.5998880" lon="-74.2799950">
        <ele>2580.2</ele>
        <time>2018-08-10T14:02:17Z</time>
      </trkpt>
      <trkpt lat="4.5999370" lon="-74.2799550">
        <ele>2580.2</ele>
        <time>2018-08-10T14:02:18Z</time>
      </trkpt>
      <trkpt lat="4.5999830" lon="-74.2799170">
        <ele>2580.1</ele>
        <time>2018-08-10T14:02:19Z</time>
      </trkpt>
      <trkpt lat="4.6000300" lon="-74.2798800">
        <ele>2580.1</ele>
        <time>2018-08-10T14:02:20Z</time>
      </trkpt>
      <trkpt lat="4.6000750" lon="-74.2798430">
        <ele>2580.0</ele>
        <time>2018-08-10T14:02:21Z</time>
      </trkpt>
      <trkpt lat="4.6001220" lon="-74.2798080">
        <ele>2579.9</ele>
        <time>2018-08-10T14:02:22Z</time>
      </trkpt>
      <trkpt lat="4.6001670" lon="-74.2797700">
        <ele>2579.8</ele>
        <time>2018-08-10T14:02:23Z</time>
      </trkpt>
      <trkpt lat="4.6002150" lon="-74.2797330">
        <ele>2579.7</ele>
        <time>2018-08-10T14:02:24Z</time>
      </trkpt>
      <trkpt lat="4.6002670" lon="-74.2796970">
        <ele>2579.6</ele>
        <time>2018-08-10T14:02:25Z</time>
      </trkpt>
      <trkpt lat="4.6003150" lon="-74.2796570">
        <ele>2579.4</ele>
        <time>2018-08-10T14:02:26Z</time>
      </trkpt>
      <trkpt lat="4.6003630" lon="-74.2796200">
        <ele>2579.3</ele>
        <time>2018-08-10T14:02:27Z</time>
      </trkpt>
      <trkpt lat="4.6004100" lon="-74.2795830">
        <ele>2579.2</ele>
        <time>2018-08-10T14:02:28Z</time>
      </trkpt>
      <trkpt lat="4.6004580" lon="-74.2795470">
        <ele>2579.1</ele>
        <time>2018-08-10T14:02:29Z</time>
      </trkpt>
      <trkpt lat="4.6005070" lon="-74.2795080">
        <ele>2578.9</ele>
        <time>2018-08-10T14:02:30Z</time>
      </trkpt>
      <trkpt lat="4.6005530" lon="-74.2794680">
        <ele>2578.8</ele>
        <time>2018-08-10T14:02:31Z</time>
      </trkpt>
      <trkpt lat="4.6006020" lon="-74.2794280">
        <ele>2578.7</ele>
        <time>2018-08-10T14:02:32Z</time>
      </trkpt>
      <trkpt lat="4.6006480" lon="-74.2793920">
        <ele>2578.7</ele>
        <time>2018-08-10T14:02:33Z</time>
      </trkpt>
      <trkpt lat="4.6006980" lon="-74.2793530">
        <ele>2578.7</ele>
        <time>2018-08-10T14:02:34Z</time>
      </trkpt>
      <trkpt lat="4.6007470" lon="-74.2793150">
        <ele>2578.7</ele>
        <time>2018-08-10T14:02:35Z</time>
      </trkpt>
      <trkpt lat="4.6007980" lon="-74.2792750">
        <ele>2578.7</ele>
        <time>2018-08-10T14:02:36Z</time>
      </trkpt>
      <trkpt lat="4.6008530" lon="-74.2792370">
        <ele>2578.6</ele>
        <time>2018-08-10T14:02:37Z</time>
      </trkpt>
      <trkpt lat="4.6009080" lon="-74.2791980">
        <ele>2578.5</ele>
        <time>2018-08-10T14:02:38Z</time>
      </trkpt>
      <trkpt lat="4.6009630" lon="-74.2791580">
        <ele>2578.4</ele>
        <time>2018-08-10T14:02:39Z</time>
      </trkpt>
      <trkpt lat="4.6010180" lon="-74.2791200">
        <ele>2578.3</ele>
        <time>2018-08-10T14:02:40Z</time>
      </trkpt>
      <trkpt lat="4.6010700" lon="-74.2790780">
        <ele>2578.2</ele>
        <time>2018-08-10T14:02:41Z</time>
      </trkpt>
      <trkpt lat="4.6011250" lon="-74.2790370">
        <ele>2578.1</ele>
        <time>2018-08-10T14:02:42Z</time>
      </trkpt>
      <trkpt lat="4.6011780" lon="-74.2789970">
        <ele>2578.0</ele>
        <time>2018-08-10T14:02:43Z</time>
      </trkpt>
      <trkpt lat="4.6012300" lon="-74.2789580">
        <ele>2577.9</ele>
        <time>2018-08-10T14:02:44Z</time>
      </trkpt>
      <trkpt lat="4.6012830" lon="-74.2789170">
        <ele>2577.8</ele>
        <time>2018-08-10T14:02:45Z</time>
      </trkpt>
      <trkpt lat="4.6013370" lon="-74.2788770">
        <ele>2577.7</ele>
        <time>2018-08-10T14:02:46Z</time>
      </trkpt>
      <trkpt lat="4.6013900" lon="-74.2788370">
        <ele>2577.6</ele>
        <time>2018-08-10T14:02:47Z</time>
      </trkpt>
      <trkpt lat="4.6014450" lon="-74.2787970">
        <ele>2577.4</ele>
        <time>2018-08-10T14:02:48Z</time>
      </trkpt>
      <trkpt lat="4.6015030" lon="-74.2787630">
        <ele>2577.2</ele>
        <time>2018-08-10T14:02:49Z</time>
      </trkpt>
      <trkpt lat="4.6015650" lon="-74.2787330">
        <ele>2577.1</ele>
        <time>2018-08-10T14:02:50Z</time>
      </trkpt>
      <trkpt lat="4.6016320" lon="-74.2787070">
        <ele>2577.0</ele>
        <time>2018-08-10T14:02:51Z</time>
      </trkpt>
      <trkpt lat="4.6017000" lon="-74.2786880">
        <ele>2577.0</ele>
        <time>2018-08-10T14:02:52Z</time>
      </trkpt>
      <trkpt lat="4.6017650" lon="-74.2786770">
        <ele>2577.0</ele>
        <time>2018-08-10T14:02:53Z</time>
      </trkpt>
      <trkpt lat="4.6018330" lon="-74.2786730">
        <ele>2577.2</ele>
        <time>2018-08-10T14:02:54Z</time>
      </trkpt>
      <trkpt lat="4.6019020" lon="-74.2786730">
        <ele>2577.4</ele>
        <time>2018-08-10T14:02:55Z</time>
      </trkpt>
      <trkpt lat="4.6019700" lon="-74.2786780">
        <ele>2577.7</ele>
        <time>2018-08-10T14:02:56Z</time>
      </trkpt>
      <trkpt lat="4.6020380" lon="-74.2786920">
        <ele>2578.0</ele>
        <time>2018-08-10T14:02:57Z</time>
      </trkpt>
      <trkpt lat="4.6021050" lon="-74.2787080">
        <ele>2578.1</ele>
        <time>2018-08-10T14:02:58Z</time>
      </trkpt>
      <trkpt lat="4.6021720" lon="-74.2787270">
        <ele>2578.2</ele>
        <time>2018-08-10T14:02:59Z</time>
      </trkpt>
      <trkpt lat="4.6022380" lon="-74.2787470">
        <ele>2578.3</ele>
        <time>2018-08-10T14:03:00Z</time>
      </trkpt>
      <trkpt lat="4.6023070" lon="-74.2787680">
        <ele>2578.5</ele>
        <time>2018-08-10T14:03:01Z</time>
      </trkpt>
      <trkpt lat="4.6023730" lon="-74.2787870">
        <ele>2578.6</ele>
        <time>2018-08-10T14:03:02Z</time>
      </trkpt>
      <trkpt lat="4.6024430" lon="-74.2788080">
        <ele>2578.7</ele>
        <time>2018-08-10T14:03:03Z</time>
      </trkpt>
      <trkpt lat="4.6025150" lon="-74.2788280">
        <ele>2578.7</ele>
        <time>2018-08-10T14:03:04Z</time>
      </trkpt>
      <trkpt lat="4.6025850" lon="-74.2788520">
        <ele>2578.8</ele>
        <time>2018-08-10T14:03:05Z</time>
      </trkpt>
      <trkpt lat="4.6026550" lon="-74.2788730">
        <ele>2578.9</ele>
        <time>2018-08-10T14:03:06Z</time>
      </trkpt>
      <trkpt lat="4.6027220" lon="-74.2788950">
        <ele>2578.9</ele>
        <time>2018-08-10T14:03:07Z</time>
      </trkpt>
      <trkpt lat="4.6027850" lon="-74.2789150">
        <ele>2579.0</ele>
        <time>2018-08-10T14:03:08Z</time>
      </trkpt>
      <trkpt lat="4.6028480" lon="-74.2789370">
        <ele>2579.1</ele>
        <time>2018-08-10T14:03:09Z</time>
      </trkpt>
      <trkpt lat="4.6029150" lon="-74.2789530">
        <ele>2579.1</ele>
        <time>2018-08-10T14:03:10Z</time>
      </trkpt>
      <trkpt lat="4.6029830" lon="-74.2789700">
        <ele>2579.2</ele>
        <time>2018-08-10T14:03:11Z</time>
      </trkpt>
      <trkpt lat="4.6030520" lon="-74.2789900">
        <ele>2579.3</ele>
        <time>2018-08-10T14:03:12Z</time>
      </trkpt>
      <trkpt lat="4.6031220" lon="-74.2790080">
        <ele>2579.3</ele>
        <time>2018-08-10T14:03:13Z</time>
      </trkpt>
      <trkpt lat="4.6031920" lon="-74.2790280">
        <ele>2579.4</ele>
        <time>2018-08-10T14:03:14Z</time>
      </trkpt>
      <trkpt lat="4.6032580" lon="-74.2790500">
        <ele>2579.5</ele>
        <time>2018-08-10T14:03:15Z</time>
      </trkpt>
      <trkpt lat="4.6033300" lon="-74.2790700">
        <ele>2579.5</ele>
        <time>2018-08-10T14:03:16Z</time>
      </trkpt>
      <trkpt lat="4.6034030" lon="-74.2790920">
        <ele>2579.6</ele>
        <time>2018-08-10T14:03:17Z</time>
      </trkpt>
      <trkpt lat="4.6034770" lon="-74.2791150">
        <ele>2579.7</ele>
        <time>2018-08-10T14:03:18Z</time>
      </trkpt>
      <trkpt lat="4.6035480" lon="-74.2791370">
        <ele>2579.8</ele>
        <time>2018-08-10T14:03:19Z</time>
      </trkpt>
      <trkpt lat="4.6036180" lon="-74.2791580">
        <ele>2579.9</ele>
        <time>2018-08-10T14:03:20Z</time>
      </trkpt>
      <trkpt lat="4.6036900" lon="-74.2791820">
        <ele>2580.0</ele>
        <time>2018-08-10T14:03:21Z</time>
      </trkpt>
      <trkpt lat="4.6037600" lon="-74.2792030">
        <ele>2580.0</ele>
        <time>2018-08-10T14:03:22Z</time>
      </trkpt>
      <trkpt lat="4.6038300" lon="-74.2792250">
        <ele>2580.1</ele>
        <time>2018-08-10T14:03:23Z</time>
      </trkpt>
      <trkpt lat="4.6038980" lon="-74.2792470">
        <ele>2580.2</ele>
        <time>2018-08-10T14:03:24Z</time>
      </trkpt>
      <trkpt lat="4.6039630" lon="-74.2792680">
        <ele>2580.3</ele>
        <time>2018-08-10T14:03:25Z</time>
      </trkpt>
      <trkpt lat="4.6040300" lon="-74.2792900">
        <ele>2580.4</ele>
        <time>2018-08-10T14:03:26Z</time>
      </trkpt>
      <trkpt lat="4.6040980" lon="-74.2793150">
        <ele>2580.5</ele>
        <time>2018-08-10T14:03:27Z</time>
      </trkpt>
      <trkpt lat="4.6041650" lon="-74.2793430">
        <ele>2580.6</ele>
        <time>2018-08-10T14:03:28Z</time>
      </trkpt>
      <trkpt lat="4.6042300" lon="-74.2793700">
        <ele>2580.7</ele>
        <time>2018-08-10T14:03:29Z</time>
      </trkpt>
      <trkpt lat="4.6042980" lon="-74.2793980">
        <ele>2580.8</ele>
        <time>2018-08-10T14:03:30Z</time>
      </trkpt>
      <trkpt lat="4.6043680" lon="-74.2794270">
        <ele>2580.9</ele>
        <time>2018-08-10T14:03:31Z</time>
      </trkpt>
      <trkpt lat="4.6044420" lon="-74.2794570">
        <ele>2581.0</ele>
        <time>2018-08-10T14:03:32Z</time>
      </trkpt>
      <trkpt lat="4.6045080" lon="-74.2794880">
        <ele>2581.1</ele>
        <time>2018-08-10T14:03:33Z</time>
      </trkpt>
      <trkpt lat="4.6045770" lon="-74.2795230">
        <ele>2581.1</ele>
        <time>2018-08-10T14:03:34Z</time>
      </trkpt>
      <trkpt lat="4.6046450" lon="-74.2795600">
        <ele>2581.2</ele>
        <time>2018-08-10T14:03:35Z</time>
      </trkpt>
      <trkpt lat="4.6047120" lon="-74.2795950">
        <ele>2581.3</ele>
        <time>2018-08-10T14:03:36Z</time>
      </trkpt>
      <trkpt lat="4.6047800" lon="-74.2796270">
        <ele>2581.4</ele>
        <time>2018-08-10T14:03:37Z</time>
      </trkpt>
      <trkpt lat="4.6048520" lon="-74.2796700">
        <ele>2581.5</ele>
        <time>2018-08-10T14:03:38Z</time>
      </trkpt>
      <trkpt lat="4.6049270" lon="-74.2797100">
        <ele>2581.6</ele>
        <time>2018-08-10T14:03:39Z</time>
      </trkpt>
      <trkpt lat="4.6050020" lon="-74.2797520">
        <ele>2581.7</ele>
        <time>2018-08-10T14:03:40Z</time>
      </trkpt>
      <trkpt lat="4.6050770" lon="-74.2797920">
        <ele>2581.7</ele>
        <time>2018-08-10T14:03:41Z</time>
      </trkpt>
      <trkpt lat="4.6051520" lon="-74.2798320">
        <ele>2581.8</ele>
        <time>2018-08-10T14:03:42Z</time>
      </trkpt>
      <trkpt lat="4.6052280" lon="-74.2798720">
        <ele>2581.9</ele>
        <time>2018-08-10T14:03:43Z</time>
      </trkpt>
      <trkpt lat="4.6053050" lon="-74.2799120">
        <ele>2582.0</ele>
        <time>2018-08-10T14:03:44Z</time>
      </trkpt>
      <trkpt lat="4.6053800" lon="-74.2799530">
        <ele>2582.1</ele>
        <time>2018-08-10T14:03:45Z</time>
      </trkpt>
      <trkpt lat="4.6054550" lon="-74.2799930">
        <ele>2582.2</ele>
        <time>2018-08-10T14:03:46Z</time>
      </trkpt>
      <trkpt lat="4.6055280" lon="-74.2800330">
        <ele>2582.3</ele>
        <time>2018-08-10T14:03:47Z</time>
      </trkpt>
      <trkpt lat="4.6056000" lon="-74.2800730">
        <ele>2582.4</ele>
        <time>2018-08-10T14:03:48Z</time>
      </trkpt>
      <trkpt lat="4.6056750" lon="-74.2801130">
        <ele>2582.4</ele>
        <time>2018-08-10T14:03:49Z</time>
      </trkpt>
      <trkpt lat="4.6057470" lon="-74.2801520">
        <ele>2582.5</ele>
        <time>2018-08-10T14:03:50Z</time>
      </trkpt>
      <trkpt lat="4.6058200" lon="-74.2801920">
        <ele>2582.6</ele>
        <time>2018-08-10T14:03:51Z</time>
      </trkpt>
      <trkpt lat="4.6058950" lon="-74.2802330">
        <ele>2582.7</ele>
        <time>2018-08-10T14:03:52Z</time>
      </trkpt>
      <trkpt lat="4.6059680" lon="-74.2802730">
        <ele>2582.8</ele>
        <time>2018-08-10T14:03:53Z</time>
      </trkpt>
      <trkpt lat="4.6060430" lon="-74.2803130">
        <ele>2582.9</ele>
        <time>2018-08-10T14:03:54Z</time>
      </trkpt>
      <trkpt lat="4.6061150" lon="-74.2803550">
        <ele>2583.0</ele>
        <time>2018-08-10T14:03:55Z</time>
      </trkpt>
      <trkpt lat="4.6061870" lon="-74.2803970">
        <ele>2583.1</ele>
        <time>2018-08-10T14:03:56Z</time>
      </trkpt>
      <trkpt lat="4.6062620" lon="-74.2804370">
        <ele>2583.2</ele>
        <time>2018-08-10T14:03:57Z</time>
      </trkpt>
      <trkpt lat="4.6063380" lon="-74.2804770">
        <ele>2583.2</ele>
        <time>2018-08-10T14:03:58Z</time>
      </trkpt>
      <trkpt lat="4.6064100" lon="-74.2805200">
        <ele>2583.3</ele>
        <time>2018-08-10T14:03:59Z</time>
      </trkpt>
      <trkpt lat="4.6064830" lon="-74.2805630">
        <ele>2583.4</ele>
        <time>2018-08-10T14:04:00Z</time>
      </trkpt>
      <trkpt lat="4.6065580" lon="-74.2806080">
        <ele>2583.5</ele>
        <time>2018-08-10T14:04:01Z</time>
      </trkpt>
      <trkpt lat="4.6066330" lon="-74.2806500">
        <ele>2583.6</ele>
        <time>2018-08-10T14:04:02Z</time>
      </trkpt>
      <trkpt lat="4.6067120" lon="-74.2806900">
        <ele>2583.7</ele>
        <time>2018-08-10T14:04:03Z</time>
      </trkpt>
      <trkpt lat="4.6067880" lon="-74.2807320">
        <ele>2583.9</ele>
        <time>2018-08-10T14:04:04Z</time>
      </trkpt>
      <trkpt lat="4.6068620" lon="-74.2807730">
        <ele>2584.0</ele>
        <time>2018-08-10T14:04:05Z</time>
      </trkpt>
      <trkpt lat="4.6069350" lon="-74.2808100">
        <ele>2584.2</ele>
        <time>2018-08-10T14:04:06Z</time>
      </trkpt>
      <trkpt lat="4.6070070" lon="-74.2808470">
        <ele>2584.5</ele>
        <time>2018-08-10T14:04:07Z</time>
      </trkpt>
      <trkpt lat="4.6070750" lon="-74.2808850">
        <ele>2584.7</ele>
        <time>2018-08-10T14:04:08Z</time>
      </trkpt>
      <trkpt lat="4.6071480" lon="-74.2809220">
        <ele>2584.9</ele>
        <time>2018-08-10T14:04:09Z</time>
      </trkpt>
      <trkpt lat="4.6072180" lon="-74.2809570">
        <ele>2585.2</ele>
        <time>2018-08-10T14:04:10Z</time>
      </trkpt>
      <trkpt lat="4.6072920" lon="-74.2809920">
        <ele>2585.4</ele>
        <time>2018-08-10T14:04:11Z</time>
      </trkpt>
      <trkpt lat="4.6073600" lon="-74.2810270">
        <ele>2585.6</ele>
        <time>2018-08-10T14:04:12Z</time>
      </trkpt>
      <trkpt lat="4.6074270" lon="-74.2810630">
        <ele>2585.7</ele>
        <time>2018-08-10T14:04:13Z</time>
      </trkpt>
      <trkpt lat="4.6074950" lon="-74.2810980">
        <ele>2585.8</ele>
        <time>2018-08-10T14:04:14Z</time>
      </trkpt>
      <trkpt lat="4.6075600" lon="-74.2811320">
        <ele>2585.9</ele>
        <time>2018-08-10T14:04:15Z</time>
      </trkpt>
      <trkpt lat="4.6076230" lon="-74.2811650">
        <ele>2586.0</ele>
        <time>2018-08-10T14:04:16Z</time>
      </trkpt>
      <trkpt lat="4.6076850" lon="-74.2812000">
        <ele>2586.1</ele>
        <time>2018-08-10T14:04:17Z</time>
      </trkpt>
      <trkpt lat="4.6077470" lon="-74.2812320">
        <ele>2586.1</ele>
        <time>2018-08-10T14:04:18Z</time>
      </trkpt>
      <trkpt lat="4.6078080" lon="-74.2812630">
        <ele>2586.2</ele>
        <time>2018-08-10T14:04:19Z</time>
      </trkpt>
      <trkpt lat="4.6078680" lon="-74.2812950">
        <ele>2586.3</ele>
        <time>2018-08-10T14:04:20Z</time>
      </trkpt>
      <trkpt lat="4.6079280" lon="-74.2813270">
        <ele>2586.3</ele>
        <time>2018-08-10T14:04:21Z</time>
      </trkpt>
      <trkpt lat="4.6079920" lon="-74.2813600">
        <ele>2586.4</ele>
        <time>2018-08-10T14:04:22Z</time>
      </trkpt>
      <trkpt lat="4.6080520" lon="-74.2813930">
        <ele>2586.5</ele>
        <time>2018-08-10T14:04:23Z</time>
      </trkpt>
      <trkpt lat="4.6081080" lon="-74.2814270">
        <ele>2586.6</ele>
        <time>2018-08-10T14:04:24Z</time>
      </trkpt>
      <trkpt lat="4.6081680" lon="-74.2814570">
        <ele>2586.6</ele>
        <time>2018-08-10T14:04:25Z</time>
      </trkpt>
      <trkpt lat="4.6082330" lon="-74.2814900">
        <ele>2586.7</ele>
        <time>2018-08-10T14:04:26Z</time>
      </trkpt>
      <trkpt lat="4.6083000" lon="-74.2815220">
        <ele>2586.9</ele>
        <time>2018-08-10T14:04:27Z</time>
      </trkpt>
      <trkpt lat="4.6083630" lon="-74.2815530">
        <ele>2586.9</ele>
        <time>2018-08-10T14:04:28Z</time>
      </trkpt>
      <trkpt lat="4.6084230" lon="-74.2815850">
        <ele>2587.0</ele>
        <time>2018-08-10T14:04:29Z</time>
      </trkpt>
      <trkpt lat="4.6084870" lon="-74.2816170">
        <ele>2587.1</ele>
        <time>2018-08-10T14:04:30Z</time>
      </trkpt>
      <trkpt lat="4.6085480" lon="-74.2816470">
        <ele>2587.1</ele>
        <time>2018-08-10T14:04:31Z</time>
      </trkpt>
      <trkpt lat="4.6086120" lon="-74.2816750">
        <ele>2587.2</ele>
        <time>2018-08-10T14:04:32Z</time>
      </trkpt>
      <trkpt lat="4.6086770" lon="-74.2817050">
        <ele>2587.2</ele>
        <time>2018-08-10T14:04:33Z</time>
      </trkpt>
      <trkpt lat="4.6087400" lon="-74.2817380">
        <ele>2587.3</ele>
        <time>2018-08-10T14:04:34Z</time>
      </trkpt>
      <trkpt lat="4.6088070" lon="-74.2817720">
        <ele>2587.4</ele>
        <time>2018-08-10T14:04:35Z</time>
      </trkpt>
      <trkpt lat="4.6088700" lon="-74.2818030">
        <ele>2587.4</ele>
        <time>2018-08-10T14:04:36Z</time>
      </trkpt>
      <trkpt lat="4.6089370" lon="-74.2818370">
        <ele>2587.5</ele>
        <time>2018-08-10T14:04:37Z</time>
      </trkpt>
      <trkpt lat="4.6090030" lon="-74.2818700">
        <ele>2587.6</ele>
        <time>2018-08-10T14:04:38Z</time>
      </trkpt>
      <trkpt lat="4.6090680" lon="-74.2819050">
        <ele>2587.7</ele>
        <time>2018-08-10T14:04:39Z</time>
      </trkpt>
      <trkpt lat="4.6091350" lon="-74.2819380">
        <ele>2587.7</ele>
        <time>2018-08-10T14:04:40Z</time>
      </trkpt>
      <trkpt lat="4.6092050" lon="-74.2819670">
        <ele>2587.8</ele>
        <time>2018-08-10T14:04:41Z</time>
      </trkpt>
      <trkpt lat="4.6092730" lon="-74.2819980">
        <ele>2587.9</ele>
        <time>2018-08-10T14:04:42Z</time>
      </trkpt>
      <trkpt lat="4.6093380" lon="-74.2820330">
        <ele>2587.9</ele>
        <time>2018-08-10T14:04:43Z</time>
      </trkpt>
      <trkpt lat="4.6094070" lon="-74.2820700">
        <ele>2588.0</ele>
        <time>2018-08-10T14:04:44Z</time>
      </trkpt>
      <trkpt lat="4.6094700" lon="-74.2821050">
        <ele>2588.1</ele>
        <time>2018-08-10T14:04:45Z</time>
      </trkpt>
      <trkpt lat="4.6095330" lon="-74.2821370">
        <ele>2588.2</ele>
        <time>2018-08-10T14:04:46Z</time>
      </trkpt>
      <trkpt lat="4.6095950" lon="-74.2821720">
        <ele>2588.3</ele>
        <time>2018-08-10T14:04:47Z</time>
      </trkpt>
      <trkpt lat="4.6096620" lon="-74.2822020">
        <ele>2588.3</ele>
        <time>2018-08-10T14:04:48Z</time>
      </trkpt>
      <trkpt lat="4.6097330" lon="-74.2822370">
        <ele>2588.4</ele>
        <time>2018-08-10T14:04:49Z</time>
      </trkpt>
      <trkpt lat="4.6098050" lon="-74.2822700">
        <ele>2588.5</ele>
        <time>2018-08-10T14:04:50Z</time>
      </trkpt>
      <trkpt lat="4.6098750" lon="-74.2823030">
        <ele>2588.6</ele>
        <time>2018-08-10T14:04:51Z</time>
      </trkpt>
      <trkpt lat="4.6099450" lon="-74.2823350">
        <ele>2588.7</ele>
        <time>2018-08-10T14:04:52Z</time>
      </trkpt>
      <trkpt lat="4.6100170" lon="-74.2823650">
        <ele>2588.8</ele>
        <time>2018-08-10T14:04:53Z</time>
      </trkpt>
      <trkpt lat="4.6100880" lon="-74.2823950">
        <ele>2588.9</ele>
        <time>2018-08-10T14:04:54Z</time>
      </trkpt>
      <trkpt lat="4.6101620" lon="-74.2824230">
        <ele>2589.1</ele>
        <time>2018-08-10T14:04:55Z</time>
      </trkpt>
      <trkpt lat="4.6102370" lon="-74.2824470">
        <ele>2589.3</ele>
        <time>2018-08-10T14:04:56Z</time>
      </trkpt>
      <trkpt lat="4.6103100" lon="-74.2824630">
        <ele>2589.5</ele>
        <time>2018-08-10T14:04:57Z</time>
      </trkpt>
      <trkpt lat="4.6103830" lon="-74.2824750">
        <ele>2589.6</ele>
        <time>2018-08-10T14:04:58Z</time>
      </trkpt>
      <trkpt lat="4.6104570" lon="-74.2824820">
        <ele>2589.7</ele>
        <time>2018-08-10T14:04:59Z</time>
      </trkpt>
      <trkpt lat="4.6105320" lon="-74.2824830">
        <ele>2589.8</ele>
        <time>2018-08-10T14:05:00Z</time>
      </trkpt>
      <trkpt lat="4.6105980" lon="-74.2824830">
        <ele>2590.0</ele>
        <time>2018-08-10T14:05:01Z</time>
      </trkpt>
      <trkpt lat="4.6106650" lon="-74.2824850">
        <ele>2590.1</ele>
        <time>2018-08-10T14:05:02Z</time>
      </trkpt>
      <trkpt lat="4.6107320" lon="-74.2824830">
        <ele>2590.3</ele>
        <time>2018-08-10T14:05:03Z</time>
      </trkpt>
      <trkpt lat="4.6108000" lon="-74.2824800">
        <ele>2590.5</ele>
        <time>2018-08-10T14:05:04Z</time>
      </trkpt>
      <trkpt lat="4.6108650" lon="-74.2824750">
        <ele>2590.7</ele>
        <time>2018-08-10T14:05:05Z</time>
      </trkpt>
      <trkpt lat="4.6109270" lon="-74.2824720">
        <ele>2590.9</ele>
        <time>2018-08-10T14:05:06Z</time>
      </trkpt>
      <trkpt lat="4.6109870" lon="-74.2824680">
        <ele>2591.1</ele>
        <time>2018-08-10T14:05:07Z</time>
      </trkpt>
      <trkpt lat="4.6110450" lon="-74.2824620">
        <ele>2591.4</ele>
        <time>2018-08-10T14:05:08Z</time>
      </trkpt>
      <trkpt lat="4.6111020" lon="-74.2824570">
        <ele>2591.6</ele>
        <time>2018-08-10T14:05:09Z</time>
      </trkpt>
      <trkpt lat="4.6111570" lon="-74.2824500">
        <ele>2591.9</ele>
        <time>2018-08-10T14:05:10Z</time>
      </trkpt>
      <trkpt lat="4.6112080" lon="-74.2824470">
        <ele>2592.1</ele>
        <time>2018-08-10T14:05:11Z</time>
      </trkpt>
      <trkpt lat="4.6112600" lon="-74.2824430">
        <ele>2592.3</ele>
        <time>2018-08-10T14:05:12Z</time>
      </trkpt>
      <trkpt lat="4.6113150" lon="-74.2824400">
        <ele>2592.6</ele>
        <time>2018-08-10T14:05:13Z</time>
      </trkpt>
      <trkpt lat="4.6113700" lon="-74.2824370">
        <ele>2592.9</ele>
        <time>2018-08-10T14:05:14Z</time>
      </trkpt>
      <trkpt lat="4.6114220" lon="-74.2824300">
        <ele>2593.1</ele>
        <time>2018-08-10T14:05:15Z</time>
      </trkpt>
      <trkpt lat="4.6114750" lon="-74.2824250">
        <ele>2593.4</ele>
        <time>2018-08-10T14:05:16Z</time>
      </trkpt>
      <trkpt lat="4.6115320" lon="-74.2824200">
        <ele>2593.6</ele>
        <time>2018-08-10T14:05:17Z</time>
      </trkpt>
      <trkpt lat="4.6115830" lon="-74.2824180">
        <ele>2593.8</ele>
        <time>2018-08-10T14:05:18Z</time>
      </trkpt>
      <trkpt lat="4.6116370" lon="-74.2824130">
        <ele>2594.0</ele>
        <time>2018-08-10T14:05:19Z</time>
      </trkpt>
      <trkpt lat="4.6116900" lon="-74.2824100">
        <ele>2594.1</ele>
        <time>2018-08-10T14:05:20Z</time>
      </trkpt>
      <trkpt lat="4.6117400" lon="-74.2824080">
        <ele>2594.3</ele>
        <time>2018-08-10T14:05:21Z</time>
      </trkpt>
      <trkpt lat="4.6117900" lon="-74.2824100">
        <ele>2594.4</ele>
        <time>2018-08-10T14:05:22Z</time>
      </trkpt>
      <trkpt lat="4.6118420" lon="-74.2824120">
        <ele>2594.6</ele>
        <time>2018-08-10T14:05:23Z</time>
      </trkpt>
      <trkpt lat="4.6118920" lon="-74.2824130">
        <ele>2594.8</ele>
        <time>2018-08-10T14:05:24Z</time>
      </trkpt>
      <trkpt lat="4.6119470" lon="-74.2824070">
        <ele>2595.1</ele>
        <time>2018-08-10T14:05:25Z</time>
      </trkpt>
      <trkpt lat="4.6120070" lon="-74.2824030">
        <ele>2595.4</ele>
        <time>2018-08-10T14:05:26Z</time>
      </trkpt>
      <trkpt lat="4.6120700" lon="-74.2824000">
        <ele>2595.8</ele>
        <time>2018-08-10T14:05:27Z</time>
      </trkpt>
      <trkpt lat="4.6121330" lon="-74.2823970">
        <ele>2596.1</ele>
        <time>2018-08-10T14:05:28Z</time>
      </trkpt>
      <trkpt lat="4.6122000" lon="-74.2823920">
        <ele>2596.5</ele>
        <time>2018-08-10T14:05:29Z</time>
      </trkpt>
      <trkpt lat="4.6122620" lon="-74.2823870">
        <ele>2596.8</ele>
        <time>2018-08-10T14:05:30Z</time>
      </trkpt>
      <trkpt lat="4.6123170" lon="-74.2823830">
        <ele>2597.2</ele>
        <time>2018-08-10T14:05:31Z</time>
      </trkpt>
      <trkpt lat="4.6123720" lon="-74.2823800">
        <ele>2597.5</ele>
        <time>2018-08-10T14:05:32Z</time>
      </trkpt>
      <trkpt lat="4.6124320" lon="-74.2823780">
        <ele>2597.8</ele>
        <time>2018-08-10T14:05:33Z</time>
      </trkpt>
      <trkpt lat="4.6124920" lon="-74.2823730">
        <ele>2598.1</ele>
        <time>2018-08-10T14:05:34Z</time>
      </trkpt>
      <trkpt lat="4.6125520" lon="-74.2823720">
        <ele>2598.4</ele>
        <time>2018-08-10T14:05:35Z</time>
      </trkpt>
      <trkpt lat="4.6126100" lon="-74.2823680">
        <ele>2598.6</ele>
        <time>2018-08-10T14:05:36Z</time>
      </trkpt>
      <trkpt lat="4.6126700" lon="-74.2823670">
        <ele>2598.7</ele>
        <time>2018-08-10T14:05:37Z</time>
      </trkpt>
      <trkpt lat="4.6127280" lon="-74.2823670">
        <ele>2598.9</ele>
        <time>2018-08-10T14:05:38Z</time>
      </trkpt>
      <trkpt lat="4.6127900" lon="-74.2823630">
        <ele>2599.1</ele>
        <time>2018-08-10T14:05:39Z</time>
      </trkpt>
      <trkpt lat="4.6128480" lon="-74.2823580">
        <ele>2599.3</ele>
        <time>2018-08-10T14:05:40Z</time>
      </trkpt>
      <trkpt lat="4.6129080" lon="-74.2823550">
        <ele>2599.4</ele>
        <time>2018-08-10T14:05:41Z</time>
      </trkpt>
      <trkpt lat="4.6129630" lon="-74.2823520">
        <ele>2599.6</ele>
        <time>2018-08-10T14:05:42Z</time>
      </trkpt>
      <trkpt lat="4.6130200" lon="-74.2823500">
        <ele>2599.8</ele>
        <time>2018-08-10T14:05:43Z</time>
      </trkpt>
      <trkpt lat="4.6130750" lon="-74.2823480">
        <ele>2599.9</ele>
        <time>2018-08-10T14:05:44Z</time>
      </trkpt>
      <trkpt lat="4.6131280" lon="-74.2823500">
        <ele>2600.1</ele>
        <time>2018-08-10T14:05:45Z</time>
      </trkpt>
      <trkpt lat="4.6131820" lon="-74.2823530">
        <ele>2600.2</ele>
        <time>2018-08-10T14:05:46Z</time>
      </trkpt>
      <trkpt lat="4.6132380" lon="-74.2823580">
        <ele>2600.4</ele>
        <time>2018-08-10T14:05:47Z</time>
      </trkpt>
      <trkpt lat="4.6132950" lon="-74.2823600">
        <ele>2600.7</ele>
        <time>2018-08-10T14:05:48Z</time>
      </trkpt>
      <trkpt lat="4.6133530" lon="-74.2823650">
        <ele>2601.0</ele>
        <time>2018-08-10T14:05:49Z</time>
      </trkpt>
      <trkpt lat="4.6134130" lon="-74.2823680">
        <ele>2601.2</ele>
        <time>2018-08-10T14:05:50Z</time>
      </trkpt>
      <trkpt lat="4.6134720" lon="-74.2823770">
        <ele>2601.3</ele>
        <time>2018-08-10T14:05:51Z</time>
      </trkpt>
      <trkpt lat="4.6135320" lon="-74.2823830">
        <ele>2601.4</ele>
        <time>2018-08-10T14:05:52Z</time>
      </trkpt>
      <trkpt lat="4.6135870" lon="-74.2823920">
        <ele>2601.5</ele>
        <time>2018-08-10T14:05:53Z</time>
      </trkpt>
      <trkpt lat="4.6136430" lon="-74.2824000">
        <ele>2601.5</ele>
        <time>2018-08-10T14:05:54Z</time>
      </trkpt>
      <trkpt lat="4.6137070" lon="-74.2824050">
        <ele>2601.6</ele>
        <time>2018-08-10T14:05:55Z</time>
      </trkpt>
      <trkpt lat="4.6137700" lon="-74.2824150">
        <ele>2601.7</ele>
        <time>2018-08-10T14:05:56Z</time>
      </trkpt>
      <trkpt lat="4.6138370" lon="-74.2824230">
        <ele>2601.9</ele>
        <time>2018-08-10T14:05:57Z</time>
      </trkpt>
      <trkpt lat="4.6139050" lon="-74.2824330">
        <ele>2602.0</ele>
        <time>2018-08-10T14:05:58Z</time>
      </trkpt>
      <trkpt lat="4.6139720" lon="-74.2824470">
        <ele>2602.1</ele>
        <time>2018-08-10T14:05:59Z</time>
      </trkpt>
      <trkpt lat="4.6140370" lon="-74.2824630">
        <ele>2602.2</ele>
        <time>2018-08-10T14:06:00Z</time>
      </trkpt>
      <trkpt lat="4.6141000" lon="-74.2824820">
        <ele>2602.3</ele>
        <time>2018-08-10T14:06:01Z</time>
      </trkpt>
      <trkpt lat="4.6141670" lon="-74.2824970">
        <ele>2602.4</ele>
        <time>2018-08-10T14:06:02Z</time>
      </trkpt>
      <trkpt lat="4.6142330" lon="-74.2825080">
        <ele>2602.6</ele>
        <time>2018-08-10T14:06:03Z</time>
      </trkpt>
      <trkpt lat="4.6142980" lon="-74.2825230">
        <ele>2602.7</ele>
        <time>2018-08-10T14:06:04Z</time>
      </trkpt>
      <trkpt lat="4.6143630" lon="-74.2825330">
        <ele>2602.8</ele>
        <time>2018-08-10T14:06:05Z</time>
      </trkpt>
      <trkpt lat="4.6144280" lon="-74.2825380">
        <ele>2602.9</ele>
        <time>2018-08-10T14:06:06Z</time>
      </trkpt>
      <trkpt lat="4.6144900" lon="-74.2825420">
        <ele>2602.9</ele>
        <time>2018-08-10T14:06:07Z</time>
      </trkpt>
      <trkpt lat="4.6145530" lon="-74.2825450">
        <ele>2603.0</ele>
        <time>2018-08-10T14:06:08Z</time>
      </trkpt>
      <trkpt lat="4.6146220" lon="-74.2825450">
        <ele>2603.1</ele>
        <time>2018-08-10T14:06:09Z</time>
      </trkpt>
      <trkpt lat="4.6146870" lon="-74.2825400">
        <ele>2603.2</ele>
        <time>2018-08-10T14:06:10Z</time>
      </trkpt>
      <trkpt lat="4.6147500" lon="-74.2825380">
        <ele>2603.3</ele>
        <time>2018-08-10T14:06:11Z</time>
      </trkpt>
      <trkpt lat="4.6148130" lon="-74.2825380">
        <ele>2603.4</ele>
        <time>2018-08-10T14:06:12Z</time>
      </trkpt>
      <trkpt lat="4.6148770" lon="-74.2825350">
        <ele>2603.5</ele>
        <time>2018-08-10T14:06:13Z</time>
      </trkpt>
      <trkpt lat="4.6149480" lon="-74.2825320">
        <ele>2603.5</ele>
        <time>2018-08-10T14:06:14Z</time>
      </trkpt>
      <trkpt lat="4.6150220" lon="-74.2825270">
        <ele>2603.6</ele>
        <time>2018-08-10T14:06:15Z</time>
      </trkpt>
      <trkpt lat="4.6150950" lon="-74.2825250">
        <ele>2603.7</ele>
        <time>2018-08-10T14:06:16Z</time>
      </trkpt>
      <trkpt lat="4.6151720" lon="-74.2825250">
        <ele>2603.8</ele>
        <time>2018-08-10T14:06:17Z</time>
      </trkpt>
      <trkpt lat="4.6152570" lon="-74.2825150">
        <ele>2603.9</ele>
        <time>2018-08-10T14:06:18Z</time>
      </trkpt>
      <trkpt lat="4.6153370" lon="-74.2825070">
        <ele>2604.0</ele>
        <time>2018-08-10T14:06:19Z</time>
      </trkpt>
      <trkpt lat="4.6154130" lon="-74.2825030">
        <ele>2604.0</ele>
        <time>2018-08-10T14:06:20Z</time>
      </trkpt>
      <trkpt lat="4.6154900" lon="-74.2825020">
        <ele>2603.9</ele>
        <time>2018-08-10T14:06:21Z</time>
      </trkpt>
      <trkpt lat="4.6155670" lon="-74.2824970">
        <ele>2603.9</ele>
        <time>2018-08-10T14:06:22Z</time>
      </trkpt>
      <trkpt lat="4.6156380" lon="-74.2824920">
        <ele>2603.9</ele>
        <time>2018-08-10T14:06:23Z</time>
      </trkpt>
      <trkpt lat="4.6157080" lon="-74.2824870">
        <ele>2603.9</ele>
        <time>2018-08-10T14:06:24Z</time>
      </trkpt>
      <trkpt lat="4.6157780" lon="-74.2824820">
        <ele>2603.8</ele>
        <time>2018-08-10T14:06:25Z</time>
      </trkpt>
      <trkpt lat="4.6158500" lon="-74.2824800">
        <ele>2603.8</ele>
        <time>2018-08-10T14:06:26Z</time>
      </trkpt>
      <trkpt lat="4.6159230" lon="-74.2824830">
        <ele>2603.8</ele>
        <time>2018-08-10T14:06:27Z</time>
      </trkpt>
      <trkpt lat="4.6159950" lon="-74.2824850">
        <ele>2603.8</ele>
        <time>2018-08-10T14:06:28Z</time>
      </trkpt>
      <trkpt lat="4.6160600" lon="-74.2824800">
        <ele>2603.7</ele>
        <time>2018-08-10T14:06:29Z</time>
      </trkpt>
      <trkpt lat="4.6161220" lon="-74.2824730">
        <ele>2603.7</ele>
        <time>2018-08-10T14:06:30Z</time>
      </trkpt>
      <trkpt lat="4.6161830" lon="-74.2824650">
        <ele>2603.7</ele>
        <time>2018-08-10T14:06:31Z</time>
      </trkpt>
      <trkpt lat="4.6162450" lon="-74.2824550">
        <ele>2603.7</ele>
        <time>2018-08-10T14:06:32Z</time>
      </trkpt>
      <trkpt lat="4.6163070" lon="-74.2824500">
        <ele>2603.7</ele>
        <time>2018-08-10T14:06:33Z</time>
      </trkpt>
      <trkpt lat="4.6163730" lon="-74.2824480">
        <ele>2603.6</ele>
        <time>2018-08-10T14:06:34Z</time>
      </trkpt>
      <trkpt lat="4.6164380" lon="-74.2824450">
        <ele>2603.6</ele>
        <time>2018-08-10T14:06:35Z</time>
      </trkpt>
      <trkpt lat="4.6164830" lon="-74.2824470">
        <ele>2603.6</ele>
        <time>2018-08-10T14:06:36Z</time>
      </trkpt>
      <trkpt lat="4.6165250" lon="-74.2824480">
        <ele>2603.6</ele>
        <time>2018-08-10T14:06:37Z</time>
      </trkpt>
      <trkpt lat="4.6165700" lon="-74.2824470">
        <ele>2603.6</ele>
        <time>2018-08-10T14:06:38Z</time>
      </trkpt>
      <trkpt lat="4.6166170" lon="-74.2824480">
        <ele>2603.6</ele>
        <time>2018-08-10T14:06:39Z</time>
      </trkpt>
      <trkpt lat="4.6166600" lon="-74.2824520">
        <ele>2603.6</ele>
        <time>2018-08-10T14:06:40Z</time>
      </trkpt>
      <trkpt lat="4.6167080" lon="-74.2824480">
        <ele>2603.6</ele>
        <time>2018-08-10T14:06:41Z</time>
      </trkpt>
      <trkpt lat="4.6167570" lon="-74.2824430">
        <ele>2603.6</ele>
        <time>2018-08-10T14:06:42Z</time>
      </trkpt>
      <trkpt lat="4.6168020" lon="-74.2824420">
        <ele>2603.6</ele>
        <time>2018-08-10T14:06:43Z</time>
      </trkpt>
      <trkpt lat="4.6168470" lon="-74.2824450">
        <ele>2603.5</ele>
        <time>2018-08-10T14:06:44Z</time>
      </trkpt>
      <trkpt lat="4.6169030" lon="-74.2824500">
        <ele>2603.5</ele>
        <time>2018-08-10T14:06:45Z</time>
      </trkpt>
      <trkpt lat="4.6169570" lon="-74.2824570">
        <ele>2603.5</ele>
        <time>2018-08-10T14:06:46Z</time>
      </trkpt>
      <trkpt lat="4.6170120" lon="-74.2824620">
        <ele>2603.5</ele>
        <time>2018-08-10T14:06:47Z</time>
      </trkpt>
      <trkpt lat="4.6170700" lon="-74.2824700">
        <ele>2603.5</ele>
        <time>2018-08-10T14:06:48Z</time>
      </trkpt>
      <trkpt lat="4.6171320" lon="-74.2824850">
        <ele>2603.5</ele>
        <time>2018-08-10T14:06:49Z</time>
      </trkpt>
      <trkpt lat="4.6171970" lon="-74.2825030">
        <ele>2603.6</ele>
        <time>2018-08-10T14:06:50Z</time>
      </trkpt>
      <trkpt lat="4.6172570" lon="-74.2825150">
        <ele>2603.6</ele>
        <time>2018-08-10T14:06:51Z</time>
      </trkpt>
      <trkpt lat="4.6173150" lon="-74.2825320">
        <ele>2603.6</ele>
        <time>2018-08-10T14:06:52Z</time>
      </trkpt>
      <trkpt lat="4.6173700" lon="-74.2825530">
        <ele>2603.6</ele>
        <time>2018-08-10T14:06:53Z</time>
      </trkpt>
      <trkpt lat="4.6174230" lon="-74.2825780">
        <ele>2603.6</ele>
        <time>2018-08-10T14:06:54Z</time>
      </trkpt>
      <trkpt lat="4.6174730" lon="-74.2826020">
        <ele>2603.7</ele>
        <time>2018-08-10T14:06:55Z</time>
      </trkpt>
      <trkpt lat="4.6175220" lon="-74.2826270">
        <ele>2603.7</ele>
        <time>2018-08-10T14:06:56Z</time>
      </trkpt>
      <trkpt lat="4.6175700" lon="-74.2826520">
        <ele>2603.7</ele>
        <time>2018-08-10T14:06:57Z</time>
      </trkpt>
      <trkpt lat="4.6176150" lon="-74.2826780">
        <ele>2603.8</ele>
        <time>2018-08-10T14:06:58Z</time>
      </trkpt>
      <trkpt lat="4.6176620" lon="-74.2827020">
        <ele>2603.8</ele>
        <time>2018-08-10T14:06:59Z</time>
      </trkpt>
      <trkpt lat="4.6177080" lon="-74.2827250">
        <ele>2603.9</ele>
        <time>2018-08-10T14:07:00Z</time>
      </trkpt>
      <trkpt lat="4.6177530" lon="-74.2827450">
        <ele>2603.9</ele>
        <time>2018-08-10T14:07:01Z</time>
      </trkpt>
      <trkpt lat="4.6177970" lon="-74.2827620">
        <ele>2603.9</ele>
        <time>2018-08-10T14:07:02Z</time>
      </trkpt>
      <trkpt lat="4.6178350" lon="-74.2827820">
        <ele>2604.0</ele>
        <time>2018-08-10T14:07:03Z</time>
      </trkpt>
      <trkpt lat="4.6178680" lon="-74.2828000">
        <ele>2604.0</ele>
        <time>2018-08-10T14:07:04Z</time>
      </trkpt>
      <trkpt lat="4.6178970" lon="-74.2828170">
        <ele>2604.0</ele>
        <time>2018-08-10T14:07:05Z</time>
      </trkpt>
      <trkpt lat="4.6179420" lon="-74.2828400">
        <ele>2604.1</ele>
        <time>2018-08-10T14:07:07Z</time>
      </trkpt>
      <trkpt lat="4.6179870" lon="-74.2828570">
        <ele>2604.1</ele>
        <time>2018-08-10T14:07:09Z</time>
      </trkpt>
      <trkpt lat="4.6180300" lon="-74.2828850">
        <ele>2604.2</ele>
        <time>2018-08-10T14:07:11Z</time>
      </trkpt>
      <trkpt lat="4.6180550" lon="-74.2829030">
        <ele>2604.2</ele>
        <time>2018-08-10T14:07:12Z</time>
      </trkpt>
      <trkpt lat="4.6180830" lon="-74.2829270">
        <ele>2604.2</ele>
        <time>2018-08-10T14:07:13Z</time>
      </trkpt>
      <trkpt lat="4.6181130" lon="-74.2829520">
        <ele>2604.2</ele>
        <time>2018-08-10T14:07:14Z</time>
      </trkpt>
      <trkpt lat="4.6181450" lon="-74.2829750">
        <ele>2604.2</ele>
        <time>2018-08-10T14:07:15Z</time>
      </trkpt>
      <trkpt lat="4.6181780" lon="-74.2829970">
        <ele>2604.3</ele>
        <time>2018-08-10T14:07:16Z</time>
      </trkpt>
      <trkpt lat="4.6182150" lon="-74.2830200">
        <ele>2604.3</ele>
        <time>2018-08-10T14:07:17Z</time>
      </trkpt>
      <trkpt lat="4.6182500" lon="-74.2830400">
        <ele>2604.3</ele>
        <time>2018-08-10T14:07:18Z</time>
      </trkpt>
      <trkpt lat="4.6182870" lon="-74.2830600">
        <ele>2604.3</ele>
        <time>2018-08-10T14:07:19Z</time>
      </trkpt>
      <trkpt lat="4.6183300" lon="-74.2830780">
        <ele>2604.3</ele>
        <time>2018-08-10T14:07:20Z</time>
      </trkpt>
      <trkpt lat="4.6183700" lon="-74.2830950">
        <ele>2604.3</ele>
        <time>2018-08-10T14:07:21Z</time>
      </trkpt>
      <trkpt lat="4.6184170" lon="-74.2831150">
        <ele>2604.4</ele>
        <time>2018-08-10T14:07:22Z</time>
      </trkpt>
      <trkpt lat="4.6184570" lon="-74.2831380">
        <ele>2604.4</ele>
        <time>2018-08-10T14:07:23Z</time>
      </trkpt>
      <trkpt lat="4.6185020" lon="-74.2831620">
        <ele>2604.4</ele>
        <time>2018-08-10T14:07:24Z</time>
      </trkpt>
      <trkpt lat="4.6185450" lon="-74.2831870">
        <ele>2604.4</ele>
        <time>2018-08-10T14:07:25Z</time>
      </trkpt>
      <trkpt lat="4.6185880" lon="-74.2832100">
        <ele>2604.4</ele>
        <time>2018-08-10T14:07:26Z</time>
      </trkpt>
      <trkpt lat="4.6186350" lon="-74.2832300">
        <ele>2604.4</ele>
        <time>2018-08-10T14:07:27Z</time>
      </trkpt>
      <trkpt lat="4.6186820" lon="-74.2832530">
        <ele>2604.4</ele>
        <time>2018-08-10T14:07:28Z</time>
      </trkpt>
      <trkpt lat="4.6187230" lon="-74.2832750">
        <ele>2604.5</ele>
        <time>2018-08-10T14:07:29Z</time>
      </trkpt>
      <trkpt lat="4.6187670" lon="-74.2832930">
        <ele>2604.5</ele>
        <time>2018-08-10T14:07:30Z</time>
      </trkpt>
      <trkpt lat="4.6188100" lon="-74.2833130">
        <ele>2604.5</ele>
        <time>2018-08-10T14:07:31Z</time>
      </trkpt>
      <trkpt lat="4.6188550" lon="-74.2833380">
        <ele>2604.5</ele>
        <time>2018-08-10T14:07:32Z</time>
      </trkpt>
      <trkpt lat="4.6188980" lon="-74.2833620">
        <ele>2604.5</ele>
        <time>2018-08-10T14:07:33Z</time>
      </trkpt>
      <trkpt lat="4.6189430" lon="-74.2833880">
        <ele>2604.6</ele>
        <time>2018-08-10T14:07:34Z</time>
      </trkpt>
      <trkpt lat="4.6189930" lon="-74.2834150">
        <ele>2604.6</ele>
        <time>2018-08-10T14:07:35Z</time>
      </trkpt>
      <trkpt lat="4.6190430" lon="-74.2834370">
        <ele>2604.7</ele>
        <time>2018-08-10T14:07:36Z</time>
      </trkpt>
      <trkpt lat="4.6190920" lon="-74.2834630">
        <ele>2604.7</ele>
        <time>2018-08-10T14:07:37Z</time>
      </trkpt>
      <trkpt lat="4.6191400" lon="-74.2834870">
        <ele>2604.8</ele>
        <time>2018-08-10T14:07:38Z</time>
      </trkpt>
      <trkpt lat="4.6191900" lon="-74.2835130">
        <ele>2604.9</ele>
        <time>2018-08-10T14:07:39Z</time>
      </trkpt>
      <trkpt lat="4.6192400" lon="-74.2835420">
        <ele>2605.0</ele>
        <time>2018-08-10T14:07:40Z</time>
      </trkpt>
      <trkpt lat="4.6192900" lon="-74.2835720">
        <ele>2605.1</ele>
        <time>2018-08-10T14:07:41Z</time>
      </trkpt>
      <trkpt lat="4.6193380" lon="-74.2835980">
        <ele>2605.2</ele>
        <time>2018-08-10T14:07:42Z</time>
      </trkpt>
      <trkpt lat="4.6193900" lon="-74.2836280">
        <ele>2605.2</ele>
        <time>2018-08-10T14:07:43Z</time>
      </trkpt>
      <trkpt lat="4.6194420" lon="-74.2836600">
        <ele>2605.3</ele>
        <time>2018-08-10T14:07:44Z</time>
      </trkpt>
      <trkpt lat="4.6194930" lon="-74.2836900">
        <ele>2605.4</ele>
        <time>2018-08-10T14:07:45Z</time>
      </trkpt>
      <trkpt lat="4.6195430" lon="-74.2837170">
        <ele>2605.5</ele>
        <time>2018-08-10T14:07:46Z</time>
      </trkpt>
      <trkpt lat="4.6195970" lon="-74.2837450">
        <ele>2605.5</ele>
        <time>2018-08-10T14:07:47Z</time>
      </trkpt>
      <trkpt lat="4.6196470" lon="-74.2837720">
        <ele>2605.6</ele>
        <time>2018-08-10T14:07:48Z</time>
      </trkpt>
      <trkpt lat="4.6196980" lon="-74.2838000">
        <ele>2605.6</ele>
        <time>2018-08-10T14:07:49Z</time>
      </trkpt>
      <trkpt lat="4.6197480" lon="-74.2838300">
        <ele>2605.6</ele>
        <time>2018-08-10T14:07:50Z</time>
      </trkpt>
      <trkpt lat="4.6197970" lon="-74.2838580">
        <ele>2605.7</ele>
        <time>2018-08-10T14:07:51Z</time>
      </trkpt>
      <trkpt lat="4.6198480" lon="-74.2838900">
        <ele>2605.7</ele>
        <time>2018-08-10T14:07:52Z</time>
      </trkpt>
      <trkpt lat="4.6198930" lon="-74.2839220">
        <ele>2605.7</ele>
        <time>2018-08-10T14:07:53Z</time>
      </trkpt>
      <trkpt lat="4.6199380" lon="-74.2839530">
        <ele>2605.8</ele>
        <time>2018-08-10T14:07:54Z</time>
      </trkpt>
      <trkpt lat="4.6199830" lon="-74.2839780">
        <ele>2605.8</ele>
        <time>2018-08-10T14:07:55Z</time>
      </trkpt>
      <trkpt lat="4.6200250" lon="-74.2840000">
        <ele>2605.9</ele>
        <time>2018-08-10T14:07:56Z</time>
      </trkpt>
      <trkpt lat="4.6200720" lon="-74.2840220">
        <ele>2605.9</ele>
        <time>2018-08-10T14:07:57Z</time>
      </trkpt>
      <trkpt lat="4.6201180" lon="-74.2840470">
        <ele>2605.9</ele>
        <time>2018-08-10T14:07:58Z</time>
      </trkpt>
      <trkpt lat="4.6201670" lon="-74.2840730">
        <ele>2606.0</ele>
        <time>2018-08-10T14:07:59Z</time>
      </trkpt>
      <trkpt lat="4.6202130" lon="-74.2840970">
        <ele>2606.0</ele>
        <time>2018-08-10T14:08:00Z</time>
      </trkpt>
      <trkpt lat="4.6202600" lon="-74.2841220">
        <ele>2606.1</ele>
        <time>2018-08-10T14:08:01Z</time>
      </trkpt>
      <trkpt lat="4.6203030" lon="-74.2841450">
        <ele>2606.2</ele>
        <time>2018-08-10T14:08:02Z</time>
      </trkpt>
      <trkpt lat="4.6203530" lon="-74.2841670">
        <ele>2606.2</ele>
        <time>2018-08-10T14:08:03Z</time>
      </trkpt>
      <trkpt lat="4.6204030" lon="-74.2841900">
        <ele>2606.3</ele>
        <time>2018-08-10T14:08:04Z</time>
      </trkpt>
      <trkpt lat="4.6204500" lon="-74.2842150">
        <ele>2606.4</ele>
        <time>2018-08-10T14:08:05Z</time>
      </trkpt>
      <trkpt lat="4.6204930" lon="-74.2842400">
        <ele>2606.4</ele>
        <time>2018-08-10T14:08:06Z</time>
      </trkpt>
      <trkpt lat="4.6205330" lon="-74.2842620">
        <ele>2606.5</ele>
        <time>2018-08-10T14:08:07Z</time>
      </trkpt>
      <trkpt lat="4.6205730" lon="-74.2842850">
        <ele>2606.6</ele>
        <time>2018-08-10T14:08:08Z</time>
      </trkpt>
      <trkpt lat="4.6206170" lon="-74.2843080">
        <ele>2606.6</ele>
        <time>2018-08-10T14:08:09Z</time>
      </trkpt>
      <trkpt lat="4.6206600" lon="-74.2843320">
        <ele>2606.7</ele>
        <time>2018-08-10T14:08:10Z</time>
      </trkpt>
      <trkpt lat="4.6207050" lon="-74.2843570">
        <ele>2606.7</ele>
        <time>2018-08-10T14:08:11Z</time>
      </trkpt>
      <trkpt lat="4.6207450" lon="-74.2843780">
        <ele>2606.8</ele>
        <time>2018-08-10T14:08:12Z</time>
      </trkpt>
      <trkpt lat="4.6207920" lon="-74.2844000">
        <ele>2606.8</ele>
        <time>2018-08-10T14:08:13Z</time>
      </trkpt>
      <trkpt lat="4.6208350" lon="-74.2844230">
        <ele>2606.8</ele>
        <time>2018-08-10T14:08:14Z</time>
      </trkpt>
      <trkpt lat="4.6208780" lon="-74.2844450">
        <ele>2606.9</ele>
        <time>2018-08-10T14:08:15Z</time>
      </trkpt>
      <trkpt lat="4.6209230" lon="-74.2844670">
        <ele>2606.9</ele>
        <time>2018-08-10T14:08:16Z</time>
      </trkpt>
      <trkpt lat="4.6209630" lon="-74.2844900">
        <ele>2606.9</ele>
        <time>2018-08-10T14:08:17Z</time>
      </trkpt>
      <trkpt lat="4.6210020" lon="-74.2845120">
        <ele>2607.0</ele>
        <time>2018-08-10T14:08:18Z</time>
      </trkpt>
      <trkpt lat="4.6210420" lon="-74.2845350">
        <ele>2607.0</ele>
        <time>2018-08-10T14:08:19Z</time>
      </trkpt>
      <trkpt lat="4.6210820" lon="-74.2845580">
        <ele>2607.0</ele>
        <time>2018-08-10T14:08:20Z</time>
      </trkpt>
      <trkpt lat="4.6211200" lon="-74.2845820">
        <ele>2607.0</ele>
        <time>2018-08-10T14:08:21Z</time>
      </trkpt>
      <trkpt lat="4.6211570" lon="-74.2846000">
        <ele>2607.1</ele>
        <time>2018-08-10T14:08:22Z</time>
      </trkpt>
      <trkpt lat="4.6211930" lon="-74.2846170">
        <ele>2607.1</ele>
        <time>2018-08-10T14:08:23Z</time>
      </trkpt>
      <trkpt lat="4.6212330" lon="-74.2846330">
        <ele>2607.1</ele>
        <time>2018-08-10T14:08:24Z</time>
      </trkpt>
      <trkpt lat="4.6212700" lon="-74.2846550">
        <ele>2607.1</ele>
        <time>2018-08-10T14:08:25Z</time>
      </trkpt>
      <trkpt lat="4.6213080" lon="-74.2846820">
        <ele>2607.2</ele>
        <time>2018-08-10T14:08:26Z</time>
      </trkpt>
      <trkpt lat="4.6213470" lon="-74.2847030">
        <ele>2607.2</ele>
        <time>2018-08-10T14:08:27Z</time>
      </trkpt>
      <trkpt lat="4.6213800" lon="-74.2847220">
        <ele>2607.2</ele>
        <time>2018-08-10T14:08:28Z</time>
      </trkpt>
      <trkpt lat="4.6214100" lon="-74.2847380">
        <ele>2607.2</ele>
        <time>2018-08-10T14:08:29Z</time>
      </trkpt>
      <trkpt lat="4.6214330" lon="-74.2847530">
        <ele>2607.3</ele>
        <time>2018-08-10T14:08:30Z</time>
      </trkpt>
      <trkpt lat="4.6214580" lon="-74.2847680">
        <ele>2607.3</ele>
        <time>2018-08-10T14:08:31Z</time>
      </trkpt>
      <trkpt lat="4.6214850" lon="-74.2847820">
        <ele>2607.3</ele>
        <time>2018-08-10T14:08:32Z</time>
      </trkpt>
      <trkpt lat="4.6215100" lon="-74.2847930">
        <ele>2607.3</ele>
        <time>2018-08-10T14:08:33Z</time>
      </trkpt>
      <trkpt lat="4.6215400" lon="-74.2848130">
        <ele>2607.3</ele>
        <time>2018-08-10T14:08:34Z</time>
      </trkpt>
      <trkpt lat="4.6215700" lon="-74.2848330">
        <ele>2607.4</ele>
        <time>2018-08-10T14:08:35Z</time>
      </trkpt>
      <trkpt lat="4.6216180" lon="-74.2848620">
        <ele>2607.4</ele>
        <time>2018-08-10T14:08:37Z</time>
      </trkpt>
      <trkpt lat="4.6216650" lon="-74.2848820">
        <ele>2607.5</ele>
        <time>2018-08-10T14:08:39Z</time>
      </trkpt>
      <trkpt lat="4.6217050" lon="-74.2849020">
        <ele>2607.6</ele>
        <time>2018-08-10T14:08:41Z</time>
      </trkpt>
      <trkpt lat="4.6217270" lon="-74.2849200">
        <ele>2607.7</ele>
        <time>2018-08-10T14:08:43Z</time>
      </trkpt>
      <trkpt lat="4.6217800" lon="-74.2849920">
        <ele>2607.9</ele>
        <time>2018-08-10T14:09:27Z</time>
      </trkpt>
      <trkpt lat="4.6218100" lon="-74.2850200">
        <ele>2608.0</ele>
        <time>2018-08-10T14:09:29Z</time>
      </trkpt>
      <trkpt lat="4.6218480" lon="-74.2850520">
        <ele>2608.1</ele>
        <time>2018-08-10T14:09:31Z</time>
      </trkpt>
      <trkpt lat="4.6218850" lon="-74.2850870">
        <ele>2608.2</ele>
        <time>2018-08-10T14:09:33Z</time>
      </trkpt>
      <trkpt lat="4.6219200" lon="-74.2851200">
        <ele>2608.3</ele>
        <time>2018-08-10T14:09:35Z</time>
      </trkpt>
      <trkpt lat="4.6219500" lon="-74.2851530">
        <ele>2608.4</ele>
        <time>2018-08-10T14:09:37Z</time>
      </trkpt>
      <trkpt lat="4.6219800" lon="-74.2851880">
        <ele>2608.5</ele>
        <time>2018-08-10T14:09:39Z</time>
      </trkpt>
      <trkpt lat="4.6220120" lon="-74.2852250">
        <ele>2608.6</ele>
        <time>2018-08-10T14:09:41Z</time>
      </trkpt>
      <trkpt lat="4.6220420" lon="-74.2852630">
        <ele>2608.7</ele>
        <time>2018-08-10T14:09:43Z</time>
      </trkpt>
      <trkpt lat="4.6220600" lon="-74.2852830">
        <ele>2608.8</ele>
        <time>2018-08-10T14:09:44Z</time>
      </trkpt>
      <trkpt lat="4.6220920" lon="-74.2853200">
        <ele>2609.0</ele>
        <time>2018-08-10T14:09:46Z</time>
      </trkpt>
      <trkpt lat="4.6221250" lon="-74.2853600">
        <ele>2609.2</ele>
        <time>2018-08-10T14:09:48Z</time>
      </trkpt>
      <trkpt lat="4.6221580" lon="-74.2853970">
        <ele>2609.3</ele>
        <time>2018-08-10T14:09:50Z</time>
      </trkpt>
      <trkpt lat="4.6221900" lon="-74.2854320">
        <ele>2609.4</ele>
        <time>2018-08-10T14:09:52Z</time>
      </trkpt>
      <trkpt lat="4.6222200" lon="-74.2854700">
        <ele>2609.6</ele>
        <time>2018-08-10T14:09:54Z</time>
      </trkpt>
      <trkpt lat="4.6222570" lon="-74.2855020">
        <ele>2609.8</ele>
        <time>2018-08-10T14:09:56Z</time>
      </trkpt>
      <trkpt lat="4.6222900" lon="-74.2855370">
        <ele>2610.0</ele>
        <time>2018-08-10T14:09:58Z</time>
      </trkpt>
      <trkpt lat="4.6223200" lon="-74.2855770">
        <ele>2610.2</ele>
        <time>2018-08-10T14:10:00Z</time>
      </trkpt>
      <trkpt lat="4.6223430" lon="-74.2856130">
        <ele>2610.4</ele>
        <time>2018-08-10T14:10:02Z</time>
      </trkpt>
      <trkpt lat="4.6223620" lon="-74.2856330">
        <ele>2610.5</ele>
        <time>2018-08-10T14:10:03Z</time>
      </trkpt>
      <trkpt lat="4.6223870" lon="-74.2856670">
        <ele>2610.8</ele>
        <time>2018-08-10T14:10:05Z</time>
      </trkpt>
      <trkpt lat="4.6224080" lon="-74.2857000">
        <ele>2611.0</ele>
        <time>2018-08-10T14:10:07Z</time>
      </trkpt>
      <trkpt lat="4.6224400" lon="-74.2857330">
        <ele>2611.2</ele>
        <time>2018-08-10T14:10:09Z</time>
      </trkpt>
      <trkpt lat="4.6224730" lon="-74.2857680">
        <ele>2611.5</ele>
        <time>2018-08-10T14:10:11Z</time>
      </trkpt>
      <trkpt lat="4.6225080" lon="-74.2858050">
        <ele>2611.8</ele>
        <time>2018-08-10T14:10:13Z</time>
      </trkpt>
      <trkpt lat="4.6225420" lon="-74.2858420">
        <ele>2612.1</ele>
        <time>2018-08-10T14:10:15Z</time>
      </trkpt>
      <trkpt lat="4.6225700" lon="-74.2858780">
        <ele>2612.4</ele>
        <time>2018-08-10T14:10:17Z</time>
      </trkpt>
      <trkpt lat="4.6225950" lon="-74.2859220">
        <ele>2612.7</ele>
        <time>2018-08-10T14:10:19Z</time>
      </trkpt>
      <trkpt lat="4.6226250" lon="-74.2859600">
        <ele>2612.9</ele>
        <time>2018-08-10T14:10:21Z</time>
      </trkpt>
      <trkpt lat="4.6226550" lon="-74.2859980">
        <ele>2613.2</ele>
        <time>2018-08-10T14:10:23Z</time>
      </trkpt>
      <trkpt lat="4.6226820" lon="-74.2860380">
        <ele>2613.5</ele>
        <time>2018-08-10T14:10:25Z</time>
      </trkpt>
      <trkpt lat="4.6227130" lon="-74.2860770">
        <ele>2613.8</ele>
        <time>2018-08-10T14:10:27Z</time>
      </trkpt>
      <trkpt lat="4.6227470" lon="-74.2861150">
        <ele>2614.1</ele>
        <time>2018-08-10T14:10:29Z</time>
      </trkpt>
      <trkpt lat="4.6227780" lon="-74.2861570">
        <ele>2614.3</ele>
        <time>2018-08-10T14:10:31Z</time>
      </trkpt>
      <trkpt lat="4.6227980" lon="-74.2861780">
        <ele>2614.4</ele>
        <time>2018-08-10T14:10:32Z</time>
      </trkpt>
      <trkpt lat="4.6228220" lon="-74.2861930">
        <ele>2614.6</ele>
        <time>2018-08-10T14:10:33Z</time>
      </trkpt>
      <trkpt lat="4.6228480" lon="-74.2862080">
        <ele>2614.7</ele>
        <time>2018-08-10T14:10:34Z</time>
      </trkpt>
      <trkpt lat="4.6228850" lon="-74.2862470">
        <ele>2615.1</ele>
        <time>2018-08-10T14:10:36Z</time>
      </trkpt>
      <trkpt lat="4.6229230" lon="-74.2862820">
        <ele>2615.4</ele>
        <time>2018-08-10T14:10:38Z</time>
      </trkpt>
      <trkpt lat="4.6229450" lon="-74.2863000">
        <ele>2615.6</ele>
        <time>2018-08-10T14:10:39Z</time>
      </trkpt>
      <trkpt lat="4.6229630" lon="-74.2863200">
        <ele>2615.8</ele>
        <time>2018-08-10T14:10:40Z</time>
      </trkpt>
      <trkpt lat="4.6229830" lon="-74.2863380">
        <ele>2615.9</ele>
        <time>2018-08-10T14:10:41Z</time>
      </trkpt>
      <trkpt lat="4.6230180" lon="-74.2863750">
        <ele>2616.2</ele>
        <time>2018-08-10T14:10:43Z</time>
      </trkpt>
      <trkpt lat="4.6230520" lon="-74.2864050">
        <ele>2616.5</ele>
        <time>2018-08-10T14:10:45Z</time>
      </trkpt>
      <trkpt lat="4.6230900" lon="-74.2864350">
        <ele>2616.8</ele>
        <time>2018-08-10T14:10:47Z</time>
      </trkpt>
      <trkpt lat="4.6231280" lon="-74.2864680">
        <ele>2617.1</ele>
        <time>2018-08-10T14:10:49Z</time>
      </trkpt>
      <trkpt lat="4.6231650" lon="-74.2865030">
        <ele>2617.3</ele>
        <time>2018-08-10T14:10:51Z</time>
      </trkpt>
      <trkpt lat="4.6231850" lon="-74.2865220">
        <ele>2617.4</ele>
        <time>2018-08-10T14:10:52Z</time>
      </trkpt>
      <trkpt lat="4.6232070" lon="-74.2865420">
        <ele>2617.5</ele>
        <time>2018-08-10T14:10:53Z</time>
      </trkpt>
      <trkpt lat="4.6232250" lon="-74.2865620">
        <ele>2617.6</ele>
        <time>2018-08-10T14:10:54Z</time>
      </trkpt>
      <trkpt lat="4.6232450" lon="-74.2865820">
        <ele>2617.8</ele>
        <time>2018-08-10T14:10:55Z</time>
      </trkpt>
      <trkpt lat="4.6232880" lon="-74.2866120">
        <ele>2618.1</ele>
        <time>2018-08-10T14:10:57Z</time>
      </trkpt>
      <trkpt lat="4.6233120" lon="-74.2866270">
        <ele>2618.3</ele>
        <time>2018-08-10T14:10:58Z</time>
      </trkpt>
      <trkpt lat="4.6233500" lon="-74.2866580">
        <ele>2618.5</ele>
        <time>2018-08-10T14:11:00Z</time>
      </trkpt>
      <trkpt lat="4.6233900" lon="-74.2866900">
        <ele>2618.8</ele>
        <time>2018-08-10T14:11:02Z</time>
      </trkpt>
      <trkpt lat="4.6234300" lon="-74.2867180">
        <ele>2619.0</ele>
        <time>2018-08-10T14:11:04Z</time>
      </trkpt>
      <trkpt lat="4.6234680" lon="-74.2867500">
        <ele>2619.3</ele>
        <time>2018-08-10T14:11:06Z</time>
      </trkpt>
      <trkpt lat="4.6234900" lon="-74.2867670">
        <ele>2619.4</ele>
        <time>2018-08-10T14:11:07Z</time>
      </trkpt>
      <trkpt lat="4.6235320" lon="-74.2867970">
        <ele>2619.7</ele>
        <time>2018-08-10T14:11:09Z</time>
      </trkpt>
      <trkpt lat="4.6235720" lon="-74.2868300">
        <ele>2620.0</ele>
        <time>2018-08-10T14:11:11Z</time>
      </trkpt>
      <trkpt lat="4.6236120" lon="-74.2868600">
        <ele>2620.3</ele>
        <time>2018-08-10T14:11:13Z</time>
      </trkpt>
      <trkpt lat="4.6236530" lon="-74.2868900">
        <ele>2620.6</ele>
        <time>2018-08-10T14:11:15Z</time>
      </trkpt>
      <trkpt lat="4.6236920" lon="-74.2869220">
        <ele>2620.9</ele>
        <time>2018-08-10T14:11:17Z</time>
      </trkpt>
      <trkpt lat="4.6237250" lon="-74.2869570">
        <ele>2621.2</ele>
        <time>2018-08-10T14:11:19Z</time>
      </trkpt>
      <trkpt lat="4.6237680" lon="-74.2869880">
        <ele>2621.5</ele>
        <time>2018-08-10T14:11:21Z</time>
      </trkpt>
      <trkpt lat="4.6238120" lon="-74.2870200">
        <ele>2621.8</ele>
        <time>2018-08-10T14:11:23Z</time>
      </trkpt>
      <trkpt lat="4.6238550" lon="-74.2870520">
        <ele>2622.0</ele>
        <time>2018-08-10T14:11:25Z</time>
      </trkpt>
      <trkpt lat="4.6238930" lon="-74.2870850">
        <ele>2622.2</ele>
        <time>2018-08-10T14:11:27Z</time>
      </trkpt>
      <trkpt lat="4.6239150" lon="-74.2871020">
        <ele>2622.3</ele>
        <time>2018-08-10T14:11:28Z</time>
      </trkpt>
      <trkpt lat="4.6239380" lon="-74.2871180">
        <ele>2622.5</ele>
        <time>2018-08-10T14:11:29Z</time>
      </trkpt>
      <trkpt lat="4.6239780" lon="-74.2871500">
        <ele>2622.8</ele>
        <time>2018-08-10T14:11:31Z</time>
      </trkpt>
      <trkpt lat="4.6240150" lon="-74.2871880">
        <ele>2623.1</ele>
        <time>2018-08-10T14:11:33Z</time>
      </trkpt>
      <trkpt lat="4.6240370" lon="-74.2872070">
        <ele>2623.3</ele>
        <time>2018-08-10T14:11:34Z</time>
      </trkpt>
      <trkpt lat="4.6240600" lon="-74.2872220">
        <ele>2623.5</ele>
        <time>2018-08-10T14:11:35Z</time>
      </trkpt>
      <trkpt lat="4.6240850" lon="-74.2872370">
        <ele>2623.7</ele>
        <time>2018-08-10T14:11:36Z</time>
      </trkpt>
      <trkpt lat="4.6241280" lon="-74.2872670">
        <ele>2624.0</ele>
        <time>2018-08-10T14:11:38Z</time>
      </trkpt>
      <trkpt lat="4.6241500" lon="-74.2872830">
        <ele>2624.1</ele>
        <time>2018-08-10T14:11:39Z</time>
      </trkpt>
      <trkpt lat="4.6241700" lon="-74.2873020">
        <ele>2624.3</ele>
        <time>2018-08-10T14:11:40Z</time>
      </trkpt>
      <trkpt lat="4.6242100" lon="-74.2873350">
        <ele>2624.6</ele>
        <time>2018-08-10T14:11:42Z</time>
      </trkpt>
      <trkpt lat="4.6242300" lon="-74.2873530">
        <ele>2624.8</ele>
        <time>2018-08-10T14:11:43Z</time>
      </trkpt>
      <trkpt lat="4.6242700" lon="-74.2873850">
        <ele>2625.0</ele>
        <time>2018-08-10T14:11:45Z</time>
      </trkpt>
      <trkpt lat="4.6243150" lon="-74.2874100">
        <ele>2625.3</ele>
        <time>2018-08-10T14:11:47Z</time>
      </trkpt>
      <trkpt lat="4.6243570" lon="-74.2874400">
        <ele>2625.6</ele>
        <time>2018-08-10T14:11:49Z</time>
      </trkpt>
      <trkpt lat="4.6244000" lon="-74.2874720">
        <ele>2625.9</ele>
        <time>2018-08-10T14:11:51Z</time>
      </trkpt>
      <trkpt lat="4.6244220" lon="-74.2874900">
        <ele>2626.0</ele>
        <time>2018-08-10T14:11:52Z</time>
      </trkpt>
      <trkpt lat="4.6244670" lon="-74.2875200">
        <ele>2626.3</ele>
        <time>2018-08-10T14:11:54Z</time>
      </trkpt>
      <trkpt lat="4.6244920" lon="-74.2875350">
        <ele>2626.5</ele>
        <time>2018-08-10T14:11:55Z</time>
      </trkpt>
      <trkpt lat="4.6245180" lon="-74.2875480">
        <ele>2626.6</ele>
        <time>2018-08-10T14:11:56Z</time>
      </trkpt>
      <trkpt lat="4.6245670" lon="-74.2875750">
        <ele>2626.9</ele>
        <time>2018-08-10T14:11:58Z</time>
      </trkpt>
      <trkpt lat="4.6245920" lon="-74.2875900">
        <ele>2627.1</ele>
        <time>2018-08-10T14:11:59Z</time>
      </trkpt>
      <trkpt lat="4.6246170" lon="-74.2876070">
        <ele>2627.3</ele>
        <time>2018-08-10T14:12:00Z</time>
      </trkpt>
      <trkpt lat="4.6246630" lon="-74.2876330">
        <ele>2627.6</ele>
        <time>2018-08-10T14:12:02Z</time>
      </trkpt>
      <trkpt lat="4.6246880" lon="-74.2876480">
        <ele>2627.8</ele>
        <time>2018-08-10T14:12:03Z</time>
      </trkpt>
      <trkpt lat="4.6247330" lon="-74.2876770">
        <ele>2628.1</ele>
        <time>2018-08-10T14:12:05Z</time>
      </trkpt>
      <trkpt lat="4.6247780" lon="-74.2877030">
        <ele>2628.4</ele>
        <time>2018-08-10T14:12:07Z</time>
      </trkpt>
      <trkpt lat="4.6248220" lon="-74.2877330">
        <ele>2628.7</ele>
        <time>2018-08-10T14:12:09Z</time>
      </trkpt>
      <trkpt lat="4.6248680" lon="-74.2877600">
        <ele>2629.0</ele>
        <time>2018-08-10T14:12:11Z</time>
      </trkpt>
      <trkpt lat="4.6249100" lon="-74.2877870">
        <ele>2629.3</ele>
        <time>2018-08-10T14:12:13Z</time>
      </trkpt>
      <trkpt lat="4.6249580" lon="-74.2878120">
        <ele>2629.6</ele>
        <time>2018-08-10T14:12:15Z</time>
      </trkpt>
      <trkpt lat="4.6249830" lon="-74.2878230">
        <ele>2629.7</ele>
        <time>2018-08-10T14:12:16Z</time>
      </trkpt>
      <trkpt lat="4.6250300" lon="-74.2878450">
        <ele>2630.0</ele>
        <time>2018-08-10T14:12:18Z</time>
      </trkpt>
      <trkpt lat="4.6250770" lon="-74.2878630">
        <ele>2630.3</ele>
        <time>2018-08-10T14:12:20Z</time>
      </trkpt>
      <trkpt lat="4.6251030" lon="-74.2878730">
        <ele>2630.5</ele>
        <time>2018-08-10T14:12:21Z</time>
      </trkpt>
      <trkpt lat="4.6251320" lon="-74.2878850">
        <ele>2630.7</ele>
        <time>2018-08-10T14:12:22Z</time>
      </trkpt>
      <trkpt lat="4.6251580" lon="-74.2878980">
        <ele>2630.9</ele>
        <time>2018-08-10T14:12:23Z</time>
      </trkpt>
      <trkpt lat="4.6252030" lon="-74.2879230">
        <ele>2631.1</ele>
        <time>2018-08-10T14:12:25Z</time>
      </trkpt>
      <trkpt lat="4.6252280" lon="-74.2879370">
        <ele>2631.3</ele>
        <time>2018-08-10T14:12:26Z</time>
      </trkpt>
      <trkpt lat="4.6252550" lon="-74.2879480">
        <ele>2631.5</ele>
        <time>2018-08-10T14:12:27Z</time>
      </trkpt>
      <trkpt lat="4.6252830" lon="-74.2879620">
        <ele>2631.6</ele>
        <time>2018-08-10T14:12:28Z</time>
      </trkpt>
      <trkpt lat="4.6253080" lon="-74.2879730">
        <ele>2631.8</ele>
        <time>2018-08-10T14:12:29Z</time>
      </trkpt>
      <trkpt lat="4.6253330" lon="-74.2879850">
        <ele>2631.9</ele>
        <time>2018-08-10T14:12:30Z</time>
      </trkpt>
      <trkpt lat="4.6253830" lon="-74.2880050">
        <ele>2632.2</ele>
        <time>2018-08-10T14:12:32Z</time>
      </trkpt>
      <trkpt lat="4.6254300" lon="-74.2880280">
        <ele>2632.6</ele>
        <time>2018-08-10T14:12:34Z</time>
      </trkpt>
      <trkpt lat="4.6254750" lon="-74.2880500">
        <ele>2632.8</ele>
        <time>2018-08-10T14:12:36Z</time>
      </trkpt>
      <trkpt lat="4.6255180" lon="-74.2880800">
        <ele>2633.1</ele>
        <time>2018-08-10T14:12:38Z</time>
      </trkpt>
      <trkpt lat="4.6255620" lon="-74.2881000">
        <ele>2633.3</ele>
        <time>2018-08-10T14:12:40Z</time>
      </trkpt>
      <trkpt lat="4.6256100" lon="-74.2881250">
        <ele>2633.6</ele>
        <time>2018-08-10T14:12:42Z</time>
      </trkpt>
      <trkpt lat="4.6256350" lon="-74.2881380">
        <ele>2633.7</ele>
        <time>2018-08-10T14:12:43Z</time>
      </trkpt>
      <trkpt lat="4.6256600" lon="-74.2881500">
        <ele>2633.9</ele>
        <time>2018-08-10T14:12:44Z</time>
      </trkpt>
      <trkpt lat="4.6256850" lon="-74.2881620">
        <ele>2634.0</ele>
        <time>2018-08-10T14:12:45Z</time>
      </trkpt>
      <trkpt lat="4.6257330" lon="-74.2881880">
        <ele>2634.3</ele>
        <time>2018-08-10T14:12:47Z</time>
      </trkpt>
      <trkpt lat="4.6257580" lon="-74.2882030">
        <ele>2634.5</ele>
        <time>2018-08-10T14:12:48Z</time>
      </trkpt>
      <trkpt lat="4.6257830" lon="-74.2882170">
        <ele>2634.6</ele>
        <time>2018-08-10T14:12:49Z</time>
      </trkpt>
      <trkpt lat="4.6258100" lon="-74.2882300">
        <ele>2634.8</ele>
        <time>2018-08-10T14:12:50Z</time>
      </trkpt>
      <trkpt lat="4.6258370" lon="-74.2882430">
        <ele>2634.9</ele>
        <time>2018-08-10T14:12:51Z</time>
      </trkpt>
      <trkpt lat="4.6258600" lon="-74.2882580">
        <ele>2635.1</ele>
        <time>2018-08-10T14:12:52Z</time>
      </trkpt>
      <trkpt lat="4.6258850" lon="-74.2882730">
        <ele>2635.2</ele>
        <time>2018-08-10T14:12:53Z</time>
      </trkpt>
      <trkpt lat="4.6259070" lon="-74.2882900">
        <ele>2635.4</ele>
        <time>2018-08-10T14:12:54Z</time>
      </trkpt>
      <trkpt lat="4.6259280" lon="-74.2883080">
        <ele>2635.5</ele>
        <time>2018-08-10T14:12:55Z</time>
      </trkpt>
      <trkpt lat="4.6259500" lon="-74.2883280">
        <ele>2635.7</ele>
        <time>2018-08-10T14:12:56Z</time>
      </trkpt>
      <trkpt lat="4.6259730" lon="-74.2883470">
        <ele>2635.8</ele>
        <time>2018-08-10T14:12:57Z</time>
      </trkpt>
      <trkpt lat="4.6259980" lon="-74.2883630">
        <ele>2636.1</ele>
        <time>2018-08-10T14:12:58Z</time>
      </trkpt>
      <trkpt lat="4.6260250" lon="-74.2883780">
        <ele>2636.3</ele>
        <time>2018-08-10T14:12:59Z</time>
      </trkpt>
      <trkpt lat="4.6260480" lon="-74.2883950">
        <ele>2636.4</ele>
        <time>2018-08-10T14:13:00Z</time>
      </trkpt>
      <trkpt lat="4.6260930" lon="-74.2884250">
        <ele>2636.7</ele>
        <time>2018-08-10T14:13:02Z</time>
      </trkpt>
      <trkpt lat="4.6261170" lon="-74.2884430">
        <ele>2636.9</ele>
        <time>2018-08-10T14:13:03Z</time>
      </trkpt>
      <trkpt lat="4.6261400" lon="-74.2884620">
        <ele>2637.0</ele>
        <time>2018-08-10T14:13:04Z</time>
      </trkpt>
      <trkpt lat="4.6261630" lon="-74.2884800">
        <ele>2637.2</ele>
        <time>2018-08-10T14:13:05Z</time>
      </trkpt>
      <trkpt lat="4.6261830" lon="-74.2884980">
        <ele>2637.3</ele>
        <time>2018-08-10T14:13:06Z</time>
      </trkpt>
      <trkpt lat="4.6262030" lon="-74.2885170">
        <ele>2637.5</ele>
        <time>2018-08-10T14:13:07Z</time>
      </trkpt>
      <trkpt lat="4.6262270" lon="-74.2885350">
        <ele>2637.7</ele>
        <time>2018-08-10T14:13:08Z</time>
      </trkpt>
      <trkpt lat="4.6262450" lon="-74.2885550">
        <ele>2637.8</ele>
        <time>2018-08-10T14:13:09Z</time>
      </trkpt>
      <trkpt lat="4.6262650" lon="-74.2885730">
        <ele>2638.0</ele>
        <time>2018-08-10T14:13:10Z</time>
      </trkpt>
      <trkpt lat="4.6262850" lon="-74.2885930">
        <ele>2638.2</ele>
        <time>2018-08-10T14:13:11Z</time>
      </trkpt>
      <trkpt lat="4.6263050" lon="-74.2886120">
        <ele>2638.3</ele>
        <time>2018-08-10T14:13:12Z</time>
      </trkpt>
      <trkpt lat="4.6263230" lon="-74.2886320">
        <ele>2638.5</ele>
        <time>2018-08-10T14:13:13Z</time>
      </trkpt>
      <trkpt lat="4.6263430" lon="-74.2886520">
        <ele>2638.7</ele>
        <time>2018-08-10T14:13:14Z</time>
      </trkpt>
      <trkpt lat="4.6263630" lon="-74.2886730">
        <ele>2638.8</ele>
        <time>2018-08-10T14:13:15Z</time>
      </trkpt>
      <trkpt lat="4.6263830" lon="-74.2886970">
        <ele>2639.0</ele>
        <time>2018-08-10T14:13:16Z</time>
      </trkpt>
      <trkpt lat="4.6264020" lon="-74.2887170">
        <ele>2639.1</ele>
        <time>2018-08-10T14:13:17Z</time>
      </trkpt>
      <trkpt lat="4.6264220" lon="-74.2887380">
        <ele>2639.3</ele>
        <time>2018-08-10T14:13:18Z</time>
      </trkpt>
      <trkpt lat="4.6264380" lon="-74.2887600">
        <ele>2639.4</ele>
        <time>2018-08-10T14:13:19Z</time>
      </trkpt>
      <trkpt lat="4.6264580" lon="-74.2887820">
        <ele>2639.6</ele>
        <time>2018-08-10T14:13:20Z</time>
      </trkpt>
      <trkpt lat="4.6264780" lon="-74.2888050">
        <ele>2639.7</ele>
        <time>2018-08-10T14:13:21Z</time>
      </trkpt>
      <trkpt lat="4.6264970" lon="-74.2888270">
        <ele>2639.8</ele>
        <time>2018-08-10T14:13:22Z</time>
      </trkpt>
      <trkpt lat="4.6265170" lon="-74.2888480">
        <ele>2639.9</ele>
        <time>2018-08-10T14:13:23Z</time>
      </trkpt>
      <trkpt lat="4.6265370" lon="-74.2888720">
        <ele>2640.0</ele>
        <time>2018-08-10T14:13:24Z</time>
      </trkpt>
      <trkpt lat="4.6265570" lon="-74.2888950">
        <ele>2640.1</ele>
        <time>2018-08-10T14:13:25Z</time>
      </trkpt>
      <trkpt lat="4.6265730" lon="-74.2889170">
        <ele>2640.2</ele>
        <time>2018-08-10T14:13:26Z</time>
      </trkpt>
      <trkpt lat="4.6265900" lon="-74.2889380">
        <ele>2640.4</ele>
        <time>2018-08-10T14:13:27Z</time>
      </trkpt>
      <trkpt lat="4.6266180" lon="-74.2889800">
        <ele>2640.6</ele>
        <time>2018-08-10T14:13:29Z</time>
      </trkpt>
      <trkpt lat="4.6266350" lon="-74.2890050">
        <ele>2640.8</ele>
        <time>2018-08-10T14:13:30Z</time>
      </trkpt>
      <trkpt lat="4.6266530" lon="-74.2890320">
        <ele>2640.9</ele>
        <time>2018-08-10T14:13:31Z</time>
      </trkpt>
      <trkpt lat="4.6266720" lon="-74.2890570">
        <ele>2641.1</ele>
        <time>2018-08-10T14:13:32Z</time>
      </trkpt>
      <trkpt lat="4.6266880" lon="-74.2890830">
        <ele>2641.2</ele>
        <time>2018-08-10T14:13:33Z</time>
      </trkpt>
      <trkpt lat="4.6267050" lon="-74.2891070">
        <ele>2641.4</ele>
        <time>2018-08-10T14:13:34Z</time>
      </trkpt>
      <trkpt lat="4.6267220" lon="-74.2891320">
        <ele>2641.6</ele>
        <time>2018-08-10T14:13:35Z</time>
      </trkpt>
      <trkpt lat="4.6267400" lon="-74.2891550">
        <ele>2641.7</ele>
        <time>2018-08-10T14:13:36Z</time>
      </trkpt>
      <trkpt lat="4.6267580" lon="-74.2891780">
        <ele>2641.9</ele>
        <time>2018-08-10T14:13:37Z</time>
      </trkpt>
      <trkpt lat="4.6267770" lon="-74.2892030">
        <ele>2642.1</ele>
        <time>2018-08-10T14:13:38Z</time>
      </trkpt>
      <trkpt lat="4.6267950" lon="-74.2892270">
        <ele>2642.2</ele>
        <time>2018-08-10T14:13:39Z</time>
      </trkpt>
      <trkpt lat="4.6268150" lon="-74.2892500">
        <ele>2642.4</ele>
        <time>2018-08-10T14:13:40Z</time>
      </trkpt>
      <trkpt lat="4.6268320" lon="-74.2892720">
        <ele>2642.5</ele>
        <time>2018-08-10T14:13:41Z</time>
      </trkpt>
      <trkpt lat="4.6268520" lon="-74.2892950">
        <ele>2642.7</ele>
        <time>2018-08-10T14:13:42Z</time>
      </trkpt>
      <trkpt lat="4.6268720" lon="-74.2893200">
        <ele>2642.9</ele>
        <time>2018-08-10T14:13:43Z</time>
      </trkpt>
      <trkpt lat="4.6268880" lon="-74.2893450">
        <ele>2643.0</ele>
        <time>2018-08-10T14:13:44Z</time>
      </trkpt>
      <trkpt lat="4.6269070" lon="-74.2893700">
        <ele>2643.2</ele>
        <time>2018-08-10T14:13:45Z</time>
      </trkpt>
      <trkpt lat="4.6269320" lon="-74.2893900">
        <ele>2643.4</ele>
        <time>2018-08-10T14:13:46Z</time>
      </trkpt>
      <trkpt lat="4.6269580" lon="-74.2894120">
        <ele>2643.6</ele>
        <time>2018-08-10T14:13:47Z</time>
      </trkpt>
      <trkpt lat="4.6269820" lon="-74.2894350">
        <ele>2643.8</ele>
        <time>2018-08-10T14:13:48Z</time>
      </trkpt>
      <trkpt lat="4.6270020" lon="-74.2894580">
        <ele>2643.9</ele>
        <time>2018-08-10T14:13:49Z</time>
      </trkpt>
      <trkpt lat="4.6270220" lon="-74.2894830">
        <ele>2644.1</ele>
        <time>2018-08-10T14:13:50Z</time>
      </trkpt>
      <trkpt lat="4.6270420" lon="-74.2895080">
        <ele>2644.3</ele>
        <time>2018-08-10T14:13:51Z</time>
      </trkpt>
      <trkpt lat="4.6270620" lon="-74.2895330">
        <ele>2644.4</ele>
        <time>2018-08-10T14:13:52Z</time>
      </trkpt>
      <trkpt lat="4.6270830" lon="-74.2895570">
        <ele>2644.6</ele>
        <time>2018-08-10T14:13:53Z</time>
      </trkpt>
      <trkpt lat="4.6271070" lon="-74.2895800">
        <ele>2644.8</ele>
        <time>2018-08-10T14:13:54Z</time>
      </trkpt>
      <trkpt lat="4.6271300" lon="-74.2896020">
        <ele>2644.9</ele>
        <time>2018-08-10T14:13:55Z</time>
      </trkpt>
      <trkpt lat="4.6271530" lon="-74.2896230">
        <ele>2645.1</ele>
        <time>2018-08-10T14:13:56Z</time>
      </trkpt>
      <trkpt lat="4.6271780" lon="-74.2896450">
        <ele>2645.3</ele>
        <time>2018-08-10T14:13:57Z</time>
      </trkpt>
      <trkpt lat="4.6272000" lon="-74.2896670">
        <ele>2645.4</ele>
        <time>2018-08-10T14:13:58Z</time>
      </trkpt>
      <trkpt lat="4.6272150" lon="-74.2896920">
        <ele>2645.6</ele>
        <time>2018-08-10T14:13:59Z</time>
      </trkpt>
      <trkpt lat="4.6272320" lon="-74.2897150">
        <ele>2645.8</ele>
        <time>2018-08-10T14:14:00Z</time>
      </trkpt>
      <trkpt lat="4.6272500" lon="-74.2897370">
        <ele>2645.9</ele>
        <time>2018-08-10T14:14:01Z</time>
      </trkpt>
      <trkpt lat="4.6272700" lon="-74.2897550">
        <ele>2646.1</ele>
        <time>2018-08-10T14:14:02Z</time>
      </trkpt>
      <trkpt lat="4.6272900" lon="-74.2897750">
        <ele>2646.2</ele>
        <time>2018-08-10T14:14:03Z</time>
      </trkpt>
      <trkpt lat="4.6273080" lon="-74.2897980">
        <ele>2646.4</ele>
        <time>2018-08-10T14:14:04Z</time>
      </trkpt>
      <trkpt lat="4.6273280" lon="-74.2898230">
        <ele>2646.6</ele>
        <time>2018-08-10T14:14:05Z</time>
      </trkpt>
      <trkpt lat="4.6273450" lon="-74.2898470">
        <ele>2646.7</ele>
        <time>2018-08-10T14:14:06Z</time>
      </trkpt>
      <trkpt lat="4.6273630" lon="-74.2898720">
        <ele>2646.9</ele>
        <time>2018-08-10T14:14:07Z</time>
      </trkpt>
      <trkpt lat="4.6273820" lon="-74.2898920">
        <ele>2647.1</ele>
        <time>2018-08-10T14:14:08Z</time>
      </trkpt>
      <trkpt lat="4.6274130" lon="-74.2899350">
        <ele>2647.3</ele>
        <time>2018-08-10T14:14:10Z</time>
      </trkpt>
      <trkpt lat="4.6274300" lon="-74.2899570">
        <ele>2647.4</ele>
        <time>2018-08-10T14:14:11Z</time>
      </trkpt>
      <trkpt lat="4.6274520" lon="-74.2899800">
        <ele>2647.7</ele>
        <time>2018-08-10T14:14:12Z</time>
      </trkpt>
      <trkpt lat="4.6274720" lon="-74.2900050">
        <ele>2647.8</ele>
        <time>2018-08-10T14:14:13Z</time>
      </trkpt>
      <trkpt lat="4.6274900" lon="-74.2900280">
        <ele>2647.9</ele>
        <time>2018-08-10T14:14:14Z</time>
      </trkpt>
      <trkpt lat="4.6275080" lon="-74.2900530">
        <ele>2648.0</ele>
        <time>2018-08-10T14:14:15Z</time>
      </trkpt>
      <trkpt lat="4.6275250" lon="-74.2900820">
        <ele>2648.2</ele>
        <time>2018-08-10T14:14:16Z</time>
      </trkpt>
      <trkpt lat="4.6275450" lon="-74.2901050">
        <ele>2648.3</ele>
        <time>2018-08-10T14:14:17Z</time>
      </trkpt>
      <trkpt lat="4.6275620" lon="-74.2901280">
        <ele>2648.5</ele>
        <time>2018-08-10T14:14:18Z</time>
      </trkpt>
      <trkpt lat="4.6275800" lon="-74.2901530">
        <ele>2648.6</ele>
        <time>2018-08-10T14:14:19Z</time>
      </trkpt>
      <trkpt lat="4.6275970" lon="-74.2901770">
        <ele>2648.7</ele>
        <time>2018-08-10T14:14:20Z</time>
      </trkpt>
      <trkpt lat="4.6276120" lon="-74.2902030">
        <ele>2648.8</ele>
        <time>2018-08-10T14:14:21Z</time>
      </trkpt>
      <trkpt lat="4.6276270" lon="-74.2902270">
        <ele>2649.0</ele>
        <time>2018-08-10T14:14:22Z</time>
      </trkpt>
      <trkpt lat="4.6276450" lon="-74.2902500">
        <ele>2649.1</ele>
        <time>2018-08-10T14:14:23Z</time>
      </trkpt>
      <trkpt lat="4.6276620" lon="-74.2902720">
        <ele>2649.2</ele>
        <time>2018-08-10T14:14:24Z</time>
      </trkpt>
      <trkpt lat="4.6276930" lon="-74.2903120">
        <ele>2649.5</ele>
        <time>2018-08-10T14:14:26Z</time>
      </trkpt>
      <trkpt lat="4.6277100" lon="-74.2903350">
        <ele>2649.6</ele>
        <time>2018-08-10T14:14:27Z</time>
      </trkpt>
      <trkpt lat="4.6277430" lon="-74.2903770">
        <ele>2649.8</ele>
        <time>2018-08-10T14:14:29Z</time>
      </trkpt>
      <trkpt lat="4.6277530" lon="-74.2904030">
        <ele>2649.9</ele>
        <time>2018-08-10T14:14:30Z</time>
      </trkpt>
      <trkpt lat="4.6277630" lon="-74.2904300">
        <ele>2650.1</ele>
        <time>2018-08-10T14:14:31Z</time>
      </trkpt>
      <trkpt lat="4.6277770" lon="-74.2904550">
        <ele>2650.2</ele>
        <time>2018-08-10T14:14:32Z</time>
      </trkpt>
      <trkpt lat="4.6277900" lon="-74.2904820">
        <ele>2650.4</ele>
        <time>2018-08-10T14:14:33Z</time>
      </trkpt>
      <trkpt lat="4.6278050" lon="-74.2905050">
        <ele>2650.5</ele>
        <time>2018-08-10T14:14:34Z</time>
      </trkpt>
      <trkpt lat="4.6278170" lon="-74.2905300">
        <ele>2650.6</ele>
        <time>2018-08-10T14:14:35Z</time>
      </trkpt>
      <trkpt lat="4.6278300" lon="-74.2905550">
        <ele>2650.8</ele>
        <time>2018-08-10T14:14:36Z</time>
      </trkpt>
      <trkpt lat="4.6278430" lon="-74.2905800">
        <ele>2650.9</ele>
        <time>2018-08-10T14:14:37Z</time>
      </trkpt>
      <trkpt lat="4.6278580" lon="-74.2906050">
        <ele>2651.1</ele>
        <time>2018-08-10T14:14:38Z</time>
      </trkpt>
      <trkpt lat="4.6278720" lon="-74.2906300">
        <ele>2651.2</ele>
        <time>2018-08-10T14:14:39Z</time>
      </trkpt>
      <trkpt lat="4.6278850" lon="-74.2906550">
        <ele>2651.4</ele>
        <time>2018-08-10T14:14:40Z</time>
      </trkpt>
      <trkpt lat="4.6278980" lon="-74.2906820">
        <ele>2651.5</ele>
        <time>2018-08-10T14:14:41Z</time>
      </trkpt>
      <trkpt lat="4.6279130" lon="-74.2907070">
        <ele>2651.7</ele>
        <time>2018-08-10T14:14:42Z</time>
      </trkpt>
      <trkpt lat="4.6279280" lon="-74.2907300">
        <ele>2651.8</ele>
        <time>2018-08-10T14:14:43Z</time>
      </trkpt>
      <trkpt lat="4.6279430" lon="-74.2907570">
        <ele>2652.0</ele>
        <time>2018-08-10T14:14:44Z</time>
      </trkpt>
      <trkpt lat="4.6279580" lon="-74.2907820">
        <ele>2652.1</ele>
        <time>2018-08-10T14:14:45Z</time>
      </trkpt>
      <trkpt lat="4.6279770" lon="-74.2908050">
        <ele>2652.3</ele>
        <time>2018-08-10T14:14:46Z</time>
      </trkpt>
      <trkpt lat="4.6279930" lon="-74.2908280">
        <ele>2652.4</ele>
        <time>2018-08-10T14:14:47Z</time>
      </trkpt>
      <trkpt lat="4.6280080" lon="-74.2908530">
        <ele>2652.6</ele>
        <time>2018-08-10T14:14:48Z</time>
      </trkpt>
      <trkpt lat="4.6280220" lon="-74.2908820">
        <ele>2652.8</ele>
        <time>2018-08-10T14:14:49Z</time>
      </trkpt>
      <trkpt lat="4.6280320" lon="-74.2909100">
        <ele>2652.9</ele>
        <time>2018-08-10T14:14:50Z</time>
      </trkpt>
      <trkpt lat="4.6280450" lon="-74.2909370">
        <ele>2653.1</ele>
        <time>2018-08-10T14:14:51Z</time>
      </trkpt>
      <trkpt lat="4.6280650" lon="-74.2909600">
        <ele>2653.2</ele>
        <time>2018-08-10T14:14:52Z</time>
      </trkpt>
      <trkpt lat="4.6280850" lon="-74.2909850">
        <ele>2653.4</ele>
        <time>2018-08-10T14:14:53Z</time>
      </trkpt>
      <trkpt lat="4.6281030" lon="-74.2910120">
        <ele>2653.6</ele>
        <time>2018-08-10T14:14:54Z</time>
      </trkpt>
      <trkpt lat="4.6281200" lon="-74.2910400">
        <ele>2653.8</ele>
        <time>2018-08-10T14:14:55Z</time>
      </trkpt>
      <trkpt lat="4.6281380" lon="-74.2910680">
        <ele>2654.0</ele>
        <time>2018-08-10T14:14:56Z</time>
      </trkpt>
      <trkpt lat="4.6281570" lon="-74.2910950">
        <ele>2654.2</ele>
        <time>2018-08-10T14:14:57Z</time>
      </trkpt>
      <trkpt lat="4.6281750" lon="-74.2911200">
        <ele>2654.3</ele>
        <time>2018-08-10T14:14:58Z</time>
      </trkpt>
      <trkpt lat="4.6281920" lon="-74.2911470">
        <ele>2654.5</ele>
        <time>2018-08-10T14:14:59Z</time>
      </trkpt>
      <trkpt lat="4.6282120" lon="-74.2911720">
        <ele>2654.7</ele>
        <time>2018-08-10T14:15:00Z</time>
      </trkpt>
      <trkpt lat="4.6282320" lon="-74.2912000">
        <ele>2654.9</ele>
        <time>2018-08-10T14:15:01Z</time>
      </trkpt>
      <trkpt lat="4.6282500" lon="-74.2912270">
        <ele>2655.0</ele>
        <time>2018-08-10T14:15:02Z</time>
      </trkpt>
      <trkpt lat="4.6282720" lon="-74.2912520">
        <ele>2655.2</ele>
        <time>2018-08-10T14:15:03Z</time>
      </trkpt>
      <trkpt lat="4.6282920" lon="-74.2912770">
        <ele>2655.4</ele>
        <time>2018-08-10T14:15:04Z</time>
      </trkpt>
      <trkpt lat="4.6283120" lon="-74.2913000">
        <ele>2655.6</ele>
        <time>2018-08-10T14:15:05Z</time>
      </trkpt>
      <trkpt lat="4.6283300" lon="-74.2913250">
        <ele>2655.8</ele>
        <time>2018-08-10T14:15:06Z</time>
      </trkpt>
      <trkpt lat="4.6283520" lon="-74.2913470">
        <ele>2655.9</ele>
        <time>2018-08-10T14:15:07Z</time>
      </trkpt>
      <trkpt lat="4.6283750" lon="-74.2913700">
        <ele>2656.1</ele>
        <time>2018-08-10T14:15:08Z</time>
      </trkpt>
      <trkpt lat="4.6283970" lon="-74.2913930">
        <ele>2656.2</ele>
        <time>2018-08-10T14:15:09Z</time>
      </trkpt>
      <trkpt lat="4.6284200" lon="-74.2914170">
        <ele>2656.4</ele>
        <time>2018-08-10T14:15:10Z</time>
      </trkpt>
      <trkpt lat="4.6284450" lon="-74.2914400">
        <ele>2656.6</ele>
        <time>2018-08-10T14:15:11Z</time>
      </trkpt>
      <trkpt lat="4.6284680" lon="-74.2914600">
        <ele>2656.8</ele>
        <time>2018-08-10T14:15:12Z</time>
      </trkpt>
      <trkpt lat="4.6284920" lon="-74.2914800">
        <ele>2657.0</ele>
        <time>2018-08-10T14:15:13Z</time>
      </trkpt>
      <trkpt lat="4.6285150" lon="-74.2915020">
        <ele>2657.1</ele>
        <time>2018-08-10T14:15:14Z</time>
      </trkpt>
      <trkpt lat="4.6285380" lon="-74.2915220">
        <ele>2657.2</ele>
        <time>2018-08-10T14:15:15Z</time>
      </trkpt>
      <trkpt lat="4.6285620" lon="-74.2915420">
        <ele>2657.3</ele>
        <time>2018-08-10T14:15:16Z</time>
      </trkpt>
      <trkpt lat="4.6285850" lon="-74.2915630">
        <ele>2657.4</ele>
        <time>2018-08-10T14:15:17Z</time>
      </trkpt>
      <trkpt lat="4.6286070" lon="-74.2915850">
        <ele>2657.5</ele>
        <time>2018-08-10T14:15:18Z</time>
      </trkpt>
      <trkpt lat="4.6286320" lon="-74.2916080">
        <ele>2657.6</ele>
        <time>2018-08-10T14:15:19Z</time>
      </trkpt>
      <trkpt lat="4.6286550" lon="-74.2916300">
        <ele>2657.7</ele>
        <time>2018-08-10T14:15:20Z</time>
      </trkpt>
      <trkpt lat="4.6286820" lon="-74.2916530">
        <ele>2657.9</ele>
        <time>2018-08-10T14:15:21Z</time>
      </trkpt>
      <trkpt lat="4.6287070" lon="-74.2916770">
        <ele>2658.0</ele>
        <time>2018-08-10T14:15:22Z</time>
      </trkpt>
      <trkpt lat="4.6287320" lon="-74.2917000">
        <ele>2658.1</ele>
        <time>2018-08-10T14:15:23Z</time>
      </trkpt>
      <trkpt lat="4.6287570" lon="-74.2917220">
        <ele>2658.3</ele>
        <time>2018-08-10T14:15:24Z</time>
      </trkpt>
      <trkpt lat="4.6287800" lon="-74.2917480">
        <ele>2658.4</ele>
        <time>2018-08-10T14:15:25Z</time>
      </trkpt>
      <trkpt lat="4.6288050" lon="-74.2917720">
        <ele>2658.5</ele>
        <time>2018-08-10T14:15:26Z</time>
      </trkpt>
      <trkpt lat="4.6288320" lon="-74.2917970">
        <ele>2658.7</ele>
        <time>2018-08-10T14:15:27Z</time>
      </trkpt>
      <trkpt lat="4.6288600" lon="-74.2918220">
        <ele>2658.8</ele>
        <time>2018-08-10T14:15:28Z</time>
      </trkpt>
      <trkpt lat="4.6288920" lon="-74.2918450">
        <ele>2658.9</ele>
        <time>2018-08-10T14:15:29Z</time>
      </trkpt>
      <trkpt lat="4.6289200" lon="-74.2918720">
        <ele>2659.1</ele>
        <time>2018-08-10T14:15:30Z</time>
      </trkpt>
      <trkpt lat="4.6289530" lon="-74.2918950">
        <ele>2659.2</ele>
        <time>2018-08-10T14:15:31Z</time>
      </trkpt>
      <trkpt lat="4.6289920" lon="-74.2919150">
        <ele>2659.3</ele>
        <time>2018-08-10T14:15:32Z</time>
      </trkpt>
      <trkpt lat="4.6290250" lon="-74.2919370">
        <ele>2659.3</ele>
        <time>2018-08-10T14:15:33Z</time>
      </trkpt>
      <trkpt lat="4.6290600" lon="-74.2919570">
        <ele>2659.4</ele>
        <time>2018-08-10T14:15:34Z</time>
      </trkpt>
      <trkpt lat="4.6290900" lon="-74.2919820">
        <ele>2659.5</ele>
        <time>2018-08-10T14:15:35Z</time>
      </trkpt>
      <trkpt lat="4.6291200" lon="-74.2920070">
        <ele>2659.5</ele>
        <time>2018-08-10T14:15:36Z</time>
      </trkpt>
      <trkpt lat="4.6291500" lon="-74.2920330">
        <ele>2659.6</ele>
        <time>2018-08-10T14:15:37Z</time>
      </trkpt>
      <trkpt lat="4.6291800" lon="-74.2920580">
        <ele>2659.7</ele>
        <time>2018-08-10T14:15:38Z</time>
      </trkpt>
      <trkpt lat="4.6292100" lon="-74.2920850">
        <ele>2659.8</ele>
        <time>2018-08-10T14:15:39Z</time>
      </trkpt>
      <trkpt lat="4.6292400" lon="-74.2921130">
        <ele>2659.9</ele>
        <time>2018-08-10T14:15:40Z</time>
      </trkpt>
      <trkpt lat="4.6292670" lon="-74.2921430">
        <ele>2660.1</ele>
        <time>2018-08-10T14:15:41Z</time>
      </trkpt>
      <trkpt lat="4.6292930" lon="-74.2921750">
        <ele>2660.2</ele>
        <time>2018-08-10T14:15:42Z</time>
      </trkpt>
      <trkpt lat="4.6293180" lon="-74.2922070">
        <ele>2660.3</ele>
        <time>2018-08-10T14:15:43Z</time>
      </trkpt>
      <trkpt lat="4.6293420" lon="-74.2922400">
        <ele>2660.4</ele>
        <time>2018-08-10T14:15:44Z</time>
      </trkpt>
      <trkpt lat="4.6293630" lon="-74.2922750">
        <ele>2660.5</ele>
        <time>2018-08-10T14:15:45Z</time>
      </trkpt>
      <trkpt lat="4.6293850" lon="-74.2923120">
        <ele>2660.6</ele>
        <time>2018-08-10T14:15:46Z</time>
      </trkpt>
      <trkpt lat="4.6294070" lon="-74.2923470">
        <ele>2660.7</ele>
        <time>2018-08-10T14:15:47Z</time>
      </trkpt>
      <trkpt lat="4.6294280" lon="-74.2923850">
        <ele>2660.8</ele>
        <time>2018-08-10T14:15:48Z</time>
      </trkpt>
      <trkpt lat="4.6294500" lon="-74.2924250">
        <ele>2660.9</ele>
        <time>2018-08-10T14:15:49Z</time>
      </trkpt>
      <trkpt lat="4.6294680" lon="-74.2924670">
        <ele>2661.0</ele>
        <time>2018-08-10T14:15:50Z</time>
      </trkpt>
      <trkpt lat="4.6294870" lon="-74.2925070">
        <ele>2661.0</ele>
        <time>2018-08-10T14:15:51Z</time>
      </trkpt>
      <trkpt lat="4.6295030" lon="-74.2925500">
        <ele>2661.1</ele>
        <time>2018-08-10T14:15:52Z</time>
      </trkpt>
      <trkpt lat="4.6295200" lon="-74.2925900">
        <ele>2661.1</ele>
        <time>2018-08-10T14:15:53Z</time>
      </trkpt>
      <trkpt lat="4.6295370" lon="-74.2926320">
        <ele>2661.2</ele>
        <time>2018-08-10T14:15:54Z</time>
      </trkpt>
      <trkpt lat="4.6295520" lon="-74.2926730">
        <ele>2661.2</ele>
        <time>2018-08-10T14:15:55Z</time>
      </trkpt>
      <trkpt lat="4.6295700" lon="-74.2927130">
        <ele>2661.3</ele>
        <time>2018-08-10T14:15:56Z</time>
      </trkpt>
      <trkpt lat="4.6295870" lon="-74.2927550">
        <ele>2661.3</ele>
        <time>2018-08-10T14:15:57Z</time>
      </trkpt>
      <trkpt lat="4.6296030" lon="-74.2927950">
        <ele>2661.4</ele>
        <time>2018-08-10T14:15:58Z</time>
      </trkpt>
      <trkpt lat="4.6296200" lon="-74.2928330">
        <ele>2661.4</ele>
        <time>2018-08-10T14:15:59Z</time>
      </trkpt>
      <trkpt lat="4.6296380" lon="-74.2928750">
        <ele>2661.5</ele>
        <time>2018-08-10T14:16:00Z</time>
      </trkpt>
      <trkpt lat="4.6296550" lon="-74.2929170">
        <ele>2661.5</ele>
        <time>2018-08-10T14:16:01Z</time>
      </trkpt>
      <trkpt lat="4.6296730" lon="-74.2929600">
        <ele>2661.6</ele>
        <time>2018-08-10T14:16:02Z</time>
      </trkpt>
      <trkpt lat="4.6296900" lon="-74.2930020">
        <ele>2661.6</ele>
        <time>2018-08-10T14:16:03Z</time>
      </trkpt>
      <trkpt lat="4.6297070" lon="-74.2930420">
        <ele>2661.7</ele>
        <time>2018-08-10T14:16:04Z</time>
      </trkpt>
      <trkpt lat="4.6297250" lon="-74.2930850">
        <ele>2661.7</ele>
        <time>2018-08-10T14:16:05Z</time>
      </trkpt>
      <trkpt lat="4.6297420" lon="-74.2931270">
        <ele>2661.8</ele>
        <time>2018-08-10T14:16:06Z</time>
      </trkpt>
      <trkpt lat="4.6297600" lon="-74.2931700">
        <ele>2661.9</ele>
        <time>2018-08-10T14:16:07Z</time>
      </trkpt>
      <trkpt lat="4.6297770" lon="-74.2932120">
        <ele>2662.0</ele>
        <time>2018-08-10T14:16:08Z</time>
      </trkpt>
      <trkpt lat="4.6297930" lon="-74.2932530">
        <ele>2662.1</ele>
        <time>2018-08-10T14:16:09Z</time>
      </trkpt>
      <trkpt lat="4.6298120" lon="-74.2932950">
        <ele>2662.2</ele>
        <time>2018-08-10T14:16:10Z</time>
      </trkpt>
      <trkpt lat="4.6298330" lon="-74.2933330">
        <ele>2662.3</ele>
        <time>2018-08-10T14:16:11Z</time>
      </trkpt>
      <trkpt lat="4.6298520" lon="-74.2933720">
        <ele>2662.4</ele>
        <time>2018-08-10T14:16:12Z</time>
      </trkpt>
      <trkpt lat="4.6298700" lon="-74.2934100">
        <ele>2662.6</ele>
        <time>2018-08-10T14:16:13Z</time>
      </trkpt>
      <trkpt lat="4.6298880" lon="-74.2934480">
        <ele>2662.7</ele>
        <time>2018-08-10T14:16:14Z</time>
      </trkpt>
      <trkpt lat="4.6299070" lon="-74.2934870">
        <ele>2662.7</ele>
        <time>2018-08-10T14:16:15Z</time>
      </trkpt>
      <trkpt lat="4.6299250" lon="-74.2935230">
        <ele>2662.8</ele>
        <time>2018-08-10T14:16:16Z</time>
      </trkpt>
      <trkpt lat="4.6299400" lon="-74.2935600">
        <ele>2662.9</ele>
        <time>2018-08-10T14:16:17Z</time>
      </trkpt>
      <trkpt lat="4.6299570" lon="-74.2935980">
        <ele>2662.9</ele>
        <time>2018-08-10T14:16:18Z</time>
      </trkpt>
      <trkpt lat="4.6299730" lon="-74.2936330">
        <ele>2663.0</ele>
        <time>2018-08-10T14:16:19Z</time>
      </trkpt>
      <trkpt lat="4.6299900" lon="-74.2936680">
        <ele>2663.0</ele>
        <time>2018-08-10T14:16:20Z</time>
      </trkpt>
      <trkpt lat="4.6300120" lon="-74.2937020">
        <ele>2663.1</ele>
        <time>2018-08-10T14:16:21Z</time>
      </trkpt>
      <trkpt lat="4.6300320" lon="-74.2937370">
        <ele>2663.2</ele>
        <time>2018-08-10T14:16:22Z</time>
      </trkpt>
      <trkpt lat="4.6300550" lon="-74.2937700">
        <ele>2663.2</ele>
        <time>2018-08-10T14:16:23Z</time>
      </trkpt>
      <trkpt lat="4.6300780" lon="-74.2938020">
        <ele>2663.4</ele>
        <time>2018-08-10T14:16:24Z</time>
      </trkpt>
      <trkpt lat="4.6301030" lon="-74.2938350">
        <ele>2663.5</ele>
        <time>2018-08-10T14:16:25Z</time>
      </trkpt>
      <trkpt lat="4.6301250" lon="-74.2938630">
        <ele>2663.6</ele>
        <time>2018-08-10T14:16:26Z</time>
      </trkpt>
      <trkpt lat="4.6301520" lon="-74.2938880">
        <ele>2663.7</ele>
        <time>2018-08-10T14:16:27Z</time>
      </trkpt>
      <trkpt lat="4.6301780" lon="-74.2939100">
        <ele>2663.8</ele>
        <time>2018-08-10T14:16:28Z</time>
      </trkpt>
      <trkpt lat="4.6302080" lon="-74.2939320">
        <ele>2663.9</ele>
        <time>2018-08-10T14:16:29Z</time>
      </trkpt>
      <trkpt lat="4.6302370" lon="-74.2939550">
        <ele>2664.0</ele>
        <time>2018-08-10T14:16:30Z</time>
      </trkpt>
      <trkpt lat="4.6302650" lon="-74.2939770">
        <ele>2664.2</ele>
        <time>2018-08-10T14:16:31Z</time>
      </trkpt>
      <trkpt lat="4.6302950" lon="-74.2939950">
        <ele>2664.3</ele>
        <time>2018-08-10T14:16:32Z</time>
      </trkpt>
      <trkpt lat="4.6303280" lon="-74.2940120">
        <ele>2664.4</ele>
        <time>2018-08-10T14:16:33Z</time>
      </trkpt>
      <trkpt lat="4.6303630" lon="-74.2940300">
        <ele>2664.6</ele>
        <time>2018-08-10T14:16:34Z</time>
      </trkpt>
      <trkpt lat="4.6304000" lon="-74.2940470">
        <ele>2664.7</ele>
        <time>2018-08-10T14:16:35Z</time>
      </trkpt>
      <trkpt lat="4.6304350" lon="-74.2940630">
        <ele>2664.8</ele>
        <time>2018-08-10T14:16:36Z</time>
      </trkpt>
      <trkpt lat="4.6304700" lon="-74.2940780">
        <ele>2665.0</ele>
        <time>2018-08-10T14:16:37Z</time>
      </trkpt>
      <trkpt lat="4.6305080" lon="-74.2940900">
        <ele>2665.1</ele>
        <time>2018-08-10T14:16:38Z</time>
      </trkpt>
      <trkpt lat="4.6305450" lon="-74.2941020">
        <ele>2665.2</ele>
        <time>2018-08-10T14:16:39Z</time>
      </trkpt>
      <trkpt lat="4.6305830" lon="-74.2941130">
        <ele>2665.4</ele>
        <time>2018-08-10T14:16:40Z</time>
      </trkpt>
      <trkpt lat="4.6306220" lon="-74.2941250">
        <ele>2665.5</ele>
        <time>2018-08-10T14:16:41Z</time>
      </trkpt>
      <trkpt lat="4.6306550" lon="-74.2941370">
        <ele>2665.6</ele>
        <time>2018-08-10T14:16:42Z</time>
      </trkpt>
      <trkpt lat="4.6306900" lon="-74.2941450">
        <ele>2665.8</ele>
        <time>2018-08-10T14:16:43Z</time>
      </trkpt>
      <trkpt lat="4.6307250" lon="-74.2941530">
        <ele>2665.9</ele>
        <time>2018-08-10T14:16:44Z</time>
      </trkpt>
      <trkpt lat="4.6307620" lon="-74.2941620">
        <ele>2666.0</ele>
        <time>2018-08-10T14:16:45Z</time>
      </trkpt>
      <trkpt lat="4.6307980" lon="-74.2941700">
        <ele>2666.1</ele>
        <time>2018-08-10T14:16:46Z</time>
      </trkpt>
      <trkpt lat="4.6308370" lon="-74.2941770">
        <ele>2666.3</ele>
        <time>2018-08-10T14:16:47Z</time>
      </trkpt>
      <trkpt lat="4.6308770" lon="-74.2941850">
        <ele>2666.4</ele>
        <time>2018-08-10T14:16:48Z</time>
      </trkpt>
      <trkpt lat="4.6309170" lon="-74.2941930">
        <ele>2666.6</ele>
        <time>2018-08-10T14:16:49Z</time>
      </trkpt>
      <trkpt lat="4.6309550" lon="-74.2942000">
        <ele>2666.8</ele>
        <time>2018-08-10T14:16:50Z</time>
      </trkpt>
      <trkpt lat="4.6309930" lon="-74.2942050">
        <ele>2667.0</ele>
        <time>2018-08-10T14:16:51Z</time>
      </trkpt>
      <trkpt lat="4.6310320" lon="-74.2942120">
        <ele>2667.1</ele>
        <time>2018-08-10T14:16:52Z</time>
      </trkpt>
      <trkpt lat="4.6310680" lon="-74.2942170">
        <ele>2667.4</ele>
        <time>2018-08-10T14:16:53Z</time>
      </trkpt>
      <trkpt lat="4.6311070" lon="-74.2942200">
        <ele>2667.6</ele>
        <time>2018-08-10T14:16:54Z</time>
      </trkpt>
      <trkpt lat="4.6311450" lon="-74.2942230">
        <ele>2667.8</ele>
        <time>2018-08-10T14:16:55Z</time>
      </trkpt>
      <trkpt lat="4.6311800" lon="-74.2942230">
        <ele>2668.0</ele>
        <time>2018-08-10T14:16:56Z</time>
      </trkpt>
      <trkpt lat="4.6312170" lon="-74.2942270">
        <ele>2668.1</ele>
        <time>2018-08-10T14:16:57Z</time>
      </trkpt>
      <trkpt lat="4.6312520" lon="-74.2942320">
        <ele>2668.3</ele>
        <time>2018-08-10T14:16:58Z</time>
      </trkpt>
      <trkpt lat="4.6312880" lon="-74.2942350">
        <ele>2668.4</ele>
        <time>2018-08-10T14:16:59Z</time>
      </trkpt>
      <trkpt lat="4.6313250" lon="-74.2942370">
        <ele>2668.6</ele>
        <time>2018-08-10T14:17:00Z</time>
      </trkpt>
      <trkpt lat="4.6313630" lon="-74.2942420">
        <ele>2668.8</ele>
        <time>2018-08-10T14:17:01Z</time>
      </trkpt>
      <trkpt lat="4.6313980" lon="-74.2942450">
        <ele>2668.9</ele>
        <time>2018-08-10T14:17:02Z</time>
      </trkpt>
      <trkpt lat="4.6314330" lon="-74.2942480">
        <ele>2669.1</ele>
        <time>2018-08-10T14:17:03Z</time>
      </trkpt>
      <trkpt lat="4.6314670" lon="-74.2942480">
        <ele>2669.2</ele>
        <time>2018-08-10T14:17:04Z</time>
      </trkpt>
      <trkpt lat="4.6315030" lon="-74.2942480">
        <ele>2669.2</ele>
        <time>2018-08-10T14:17:05Z</time>
      </trkpt>
      <trkpt lat="4.6315330" lon="-74.2942570">
        <ele>2669.3</ele>
        <time>2018-08-10T14:17:06Z</time>
      </trkpt>
      <trkpt lat="4.6315630" lon="-74.2942630">
        <ele>2669.4</ele>
        <time>2018-08-10T14:17:07Z</time>
      </trkpt>
      <trkpt lat="4.6315970" lon="-74.2942670">
        <ele>2669.5</ele>
        <time>2018-08-10T14:17:08Z</time>
      </trkpt>
      <trkpt lat="4.6316270" lon="-74.2942730">
        <ele>2669.5</ele>
        <time>2018-08-10T14:17:09Z</time>
      </trkpt>
      <trkpt lat="4.6316570" lon="-74.2942800">
        <ele>2669.6</ele>
        <time>2018-08-10T14:17:10Z</time>
      </trkpt>
      <trkpt lat="4.6316880" lon="-74.2942850">
        <ele>2669.7</ele>
        <time>2018-08-10T14:17:11Z</time>
      </trkpt>
      <trkpt lat="4.6317220" lon="-74.2942900">
        <ele>2669.7</ele>
        <time>2018-08-10T14:17:12Z</time>
      </trkpt>
      <trkpt lat="4.6317580" lon="-74.2942930">
        <ele>2669.8</ele>
        <time>2018-08-10T14:17:13Z</time>
      </trkpt>
      <trkpt lat="4.6317970" lon="-74.2943000">
        <ele>2670.0</ele>
        <time>2018-08-10T14:17:14Z</time>
      </trkpt>
      <trkpt lat="4.6318330" lon="-74.2943050">
        <ele>2670.2</ele>
        <time>2018-08-10T14:17:15Z</time>
      </trkpt>
      <trkpt lat="4.6318700" lon="-74.2943150">
        <ele>2670.3</ele>
        <time>2018-08-10T14:17:16Z</time>
      </trkpt>
      <trkpt lat="4.6319550" lon="-74.2943380">
        <ele>2670.7</ele>
        <time>2018-08-10T14:17:18Z</time>
      </trkpt>
      <trkpt lat="4.6320000" lon="-74.2943470">
        <ele>2670.9</ele>
        <time>2018-08-10T14:17:19Z</time>
      </trkpt>
      <trkpt lat="4.6320430" lon="-74.2943470">
        <ele>2671.1</ele>
        <time>2018-08-10T14:17:20Z</time>
      </trkpt>
      <trkpt lat="4.6320820" lon="-74.2943450">
        <ele>2671.3</ele>
        <time>2018-08-10T14:17:21Z</time>
      </trkpt>
      <trkpt lat="4.6321200" lon="-74.2943520">
        <ele>2671.4</ele>
        <time>2018-08-10T14:17:22Z</time>
      </trkpt>
      <trkpt lat="4.6321530" lon="-74.2943700">
        <ele>2671.6</ele>
        <time>2018-08-10T14:17:23Z</time>
      </trkpt>
      <trkpt lat="4.6321800" lon="-74.2943980">
        <ele>2671.7</ele>
        <time>2018-08-10T14:17:24Z</time>
      </trkpt>
      <trkpt lat="4.6322200" lon="-74.2944020">
        <ele>2671.9</ele>
        <time>2018-08-10T14:17:25Z</time>
      </trkpt>
      <trkpt lat="4.6322580" lon="-74.2944080">
        <ele>2672.0</ele>
        <time>2018-08-10T14:17:26Z</time>
      </trkpt>
      <trkpt lat="4.6322950" lon="-74.2944270">
        <ele>2672.2</ele>
        <time>2018-08-10T14:17:27Z</time>
      </trkpt>
      <trkpt lat="4.6323320" lon="-74.2944330">
        <ele>2672.3</ele>
        <time>2018-08-10T14:17:28Z</time>
      </trkpt>
      <trkpt lat="4.6323680" lon="-74.2944330">
        <ele>2672.5</ele>
        <time>2018-08-10T14:17:29Z</time>
      </trkpt>
      <trkpt lat="4.6323980" lon="-74.2944470">
        <ele>2672.6</ele>
        <time>2018-08-10T14:17:30Z</time>
      </trkpt>
      <trkpt lat="4.6324320" lon="-74.2944580">
        <ele>2672.7</ele>
        <time>2018-08-10T14:17:31Z</time>
      </trkpt>
      <trkpt lat="4.6324650" lon="-74.2944670">
        <ele>2672.8</ele>
        <time>2018-08-10T14:17:32Z</time>
      </trkpt>
      <trkpt lat="4.6324950" lon="-74.2944750">
        <ele>2672.9</ele>
        <time>2018-08-10T14:17:33Z</time>
      </trkpt>
      <trkpt lat="4.6325200" lon="-74.2944950">
        <ele>2673.0</ele>
        <time>2018-08-10T14:17:34Z</time>
      </trkpt>
      <trkpt lat="4.6325520" lon="-74.2945000">
        <ele>2673.0</ele>
        <time>2018-08-10T14:17:35Z</time>
      </trkpt>
      <trkpt lat="4.6325900" lon="-74.2944880">
        <ele>2673.1</ele>
        <time>2018-08-10T14:17:36Z</time>
      </trkpt>
      <trkpt lat="4.6326230" lon="-74.2944950">
        <ele>2673.2</ele>
        <time>2018-08-10T14:17:37Z</time>
      </trkpt>
      <trkpt lat="4.6326600" lon="-74.2944970">
        <ele>2673.3</ele>
        <time>2018-08-10T14:17:38Z</time>
      </trkpt>
      <trkpt lat="4.6326970" lon="-74.2944970">
        <ele>2673.4</ele>
        <time>2018-08-10T14:17:39Z</time>
      </trkpt>
      <trkpt lat="4.6327320" lon="-74.2944970">
        <ele>2673.6</ele>
        <time>2018-08-10T14:17:40Z</time>
      </trkpt>
      <trkpt lat="4.6327670" lon="-74.2944970">
        <ele>2673.7</ele>
        <time>2018-08-10T14:17:41Z</time>
      </trkpt>
      <trkpt lat="4.6328020" lon="-74.2945000">
        <ele>2673.8</ele>
        <time>2018-08-10T14:17:42Z</time>
      </trkpt>
      <trkpt lat="4.6328420" lon="-74.2944980">
        <ele>2674.0</ele>
        <time>2018-08-10T14:17:43Z</time>
      </trkpt>
      <trkpt lat="4.6328780" lon="-74.2944980">
        <ele>2674.1</ele>
        <time>2018-08-10T14:17:44Z</time>
      </trkpt>
      <trkpt lat="4.6329170" lon="-74.2945030">
        <ele>2674.2</ele>
        <time>2018-08-10T14:17:45Z</time>
      </trkpt>
      <trkpt lat="4.6329530" lon="-74.2945120">
        <ele>2674.3</ele>
        <time>2018-08-10T14:17:46Z</time>
      </trkpt>
      <trkpt lat="4.6329880" lon="-74.2945170">
        <ele>2674.4</ele>
        <time>2018-08-10T14:17:47Z</time>
      </trkpt>
      <trkpt lat="4.6330270" lon="-74.2945230">
        <ele>2674.5</ele>
        <time>2018-08-10T14:17:48Z</time>
      </trkpt>
      <trkpt lat="4.6330630" lon="-74.2945280">
        <ele>2674.6</ele>
        <time>2018-08-10T14:17:49Z</time>
      </trkpt>
      <trkpt lat="4.6330980" lon="-74.2945370">
        <ele>2674.7</ele>
        <time>2018-08-10T14:17:50Z</time>
      </trkpt>
      <trkpt lat="4.6331300" lon="-74.2945450">
        <ele>2674.7</ele>
        <time>2018-08-10T14:17:51Z</time>
      </trkpt>
      <trkpt lat="4.6331700" lon="-74.2945570">
        <ele>2674.8</ele>
        <time>2018-08-10T14:17:52Z</time>
      </trkpt>
      <trkpt lat="4.6332070" lon="-74.2945700">
        <ele>2674.9</ele>
        <time>2018-08-10T14:17:53Z</time>
      </trkpt>
      <trkpt lat="4.6332450" lon="-74.2945850">
        <ele>2675.0</ele>
        <time>2018-08-10T14:17:54Z</time>
      </trkpt>
      <trkpt lat="4.6332830" lon="-74.2946030">
        <ele>2675.0</ele>
        <time>2018-08-10T14:17:55Z</time>
      </trkpt>
      <trkpt lat="4.6333180" lon="-74.2946230">
        <ele>2675.1</ele>
        <time>2018-08-10T14:17:56Z</time>
      </trkpt>
      <trkpt lat="4.6333520" lon="-74.2946370">
        <ele>2675.2</ele>
        <time>2018-08-10T14:17:57Z</time>
      </trkpt>
      <trkpt lat="4.6333830" lon="-74.2946470">
        <ele>2675.4</ele>
        <time>2018-08-10T14:17:58Z</time>
      </trkpt>
      <trkpt lat="4.6334150" lon="-74.2946580">
        <ele>2675.5</ele>
        <time>2018-08-10T14:17:59Z</time>
      </trkpt>
      <trkpt lat="4.6334470" lon="-74.2946780">
        <ele>2675.6</ele>
        <time>2018-08-10T14:18:00Z</time>
      </trkpt>
      <trkpt lat="4.6334800" lon="-74.2946970">
        <ele>2675.7</ele>
        <time>2018-08-10T14:18:01Z</time>
      </trkpt>
      <trkpt lat="4.6335080" lon="-74.2947150">
        <ele>2675.8</ele>
        <time>2018-08-10T14:18:02Z</time>
      </trkpt>
      <trkpt lat="4.6335420" lon="-74.2947330">
        <ele>2676.0</ele>
        <time>2018-08-10T14:18:03Z</time>
      </trkpt>
      <trkpt lat="4.6335680" lon="-74.2947450">
        <ele>2676.1</ele>
        <time>2018-08-10T14:18:04Z</time>
      </trkpt>
      <trkpt lat="4.6336000" lon="-74.2947600">
        <ele>2676.2</ele>
        <time>2018-08-10T14:18:05Z</time>
      </trkpt>
      <trkpt lat="4.6336330" lon="-74.2947750">
        <ele>2676.3</ele>
        <time>2018-08-10T14:18:06Z</time>
      </trkpt>
      <trkpt lat="4.6336650" lon="-74.2947900">
        <ele>2676.4</ele>
        <time>2018-08-10T14:18:07Z</time>
      </trkpt>
      <trkpt lat="4.6336900" lon="-74.2948020">
        <ele>2676.6</ele>
        <time>2018-08-10T14:18:08Z</time>
      </trkpt>
      <trkpt lat="4.6337170" lon="-74.2948180">
        <ele>2676.7</ele>
        <time>2018-08-10T14:18:09Z</time>
      </trkpt>
      <trkpt lat="4.6337430" lon="-74.2948370">
        <ele>2676.8</ele>
        <time>2018-08-10T14:18:10Z</time>
      </trkpt>
      <trkpt lat="4.6337730" lon="-74.2948530">
        <ele>2677.0</ele>
        <time>2018-08-10T14:18:11Z</time>
      </trkpt>
      <trkpt lat="4.6338020" lon="-74.2948720">
        <ele>2677.1</ele>
        <time>2018-08-10T14:18:12Z</time>
      </trkpt>
      <trkpt lat="4.6338300" lon="-74.2948900">
        <ele>2677.3</ele>
        <time>2018-08-10T14:18:13Z</time>
      </trkpt>
      <trkpt lat="4.6338580" lon="-74.2949120">
        <ele>2677.4</ele>
        <time>2018-08-10T14:18:14Z</time>
      </trkpt>
      <trkpt lat="4.6338850" lon="-74.2949280">
        <ele>2677.6</ele>
        <time>2018-08-10T14:18:15Z</time>
      </trkpt>
      <trkpt lat="4.6339130" lon="-74.2949500">
        <ele>2677.8</ele>
        <time>2018-08-10T14:18:16Z</time>
      </trkpt>
      <trkpt lat="4.6339400" lon="-74.2949720">
        <ele>2678.0</ele>
        <time>2018-08-10T14:18:17Z</time>
      </trkpt>
      <trkpt lat="4.6339630" lon="-74.2949930">
        <ele>2678.2</ele>
        <time>2018-08-10T14:18:18Z</time>
      </trkpt>
      <trkpt lat="4.6339850" lon="-74.2950120">
        <ele>2678.4</ele>
        <time>2018-08-10T14:18:19Z</time>
      </trkpt>
      <trkpt lat="4.6340070" lon="-74.2950300">
        <ele>2678.5</ele>
        <time>2018-08-10T14:18:20Z</time>
      </trkpt>
      <trkpt lat="4.6340280" lon="-74.2950470">
        <ele>2678.6</ele>
        <time>2018-08-10T14:18:21Z</time>
      </trkpt>
      <trkpt lat="4.6340480" lon="-74.2950680">
        <ele>2678.8</ele>
        <time>2018-08-10T14:18:22Z</time>
      </trkpt>
      <trkpt lat="4.6340670" lon="-74.2950900">
        <ele>2678.9</ele>
        <time>2018-08-10T14:18:23Z</time>
      </trkpt>
      <trkpt lat="4.6340900" lon="-74.2951120">
        <ele>2679.1</ele>
        <time>2018-08-10T14:18:24Z</time>
      </trkpt>
      <trkpt lat="4.6341130" lon="-74.2951320">
        <ele>2679.2</ele>
        <time>2018-08-10T14:18:25Z</time>
      </trkpt>
      <trkpt lat="4.6341350" lon="-74.2951530">
        <ele>2679.4</ele>
        <time>2018-08-10T14:18:26Z</time>
      </trkpt>
      <trkpt lat="4.6341720" lon="-74.2951920">
        <ele>2679.7</ele>
        <time>2018-08-10T14:18:28Z</time>
      </trkpt>
      <trkpt lat="4.6341920" lon="-74.2952100">
        <ele>2679.9</ele>
        <time>2018-08-10T14:18:29Z</time>
      </trkpt>
      <trkpt lat="4.6342120" lon="-74.2952300">
        <ele>2680.0</ele>
        <time>2018-08-10T14:18:30Z</time>
      </trkpt>
      <trkpt lat="4.6342480" lon="-74.2952650">
        <ele>2680.3</ele>
        <time>2018-08-10T14:18:32Z</time>
      </trkpt>
      <trkpt lat="4.6342670" lon="-74.2952870">
        <ele>2680.5</ele>
        <time>2018-08-10T14:18:33Z</time>
      </trkpt>
      <trkpt lat="4.6342870" lon="-74.2953070">
        <ele>2680.6</ele>
        <time>2018-08-10T14:18:34Z</time>
      </trkpt>
      <trkpt lat="4.6343050" lon="-74.2953280">
        <ele>2680.9</ele>
        <time>2018-08-10T14:18:35Z</time>
      </trkpt>
      <trkpt lat="4.6343230" lon="-74.2953500">
        <ele>2681.1</ele>
        <time>2018-08-10T14:18:36Z</time>
      </trkpt>
      <trkpt lat="4.6343600" lon="-74.2953880">
        <ele>2681.4</ele>
        <time>2018-08-10T14:18:38Z</time>
      </trkpt>
      <trkpt lat="4.6344030" lon="-74.2954130">
        <ele>2681.8</ele>
        <time>2018-08-10T14:18:40Z</time>
      </trkpt>
      <trkpt lat="4.6344470" lon="-74.2954350">
        <ele>2682.8</ele>
        <time>2018-08-10T14:18:42Z</time>
      </trkpt>
      <trkpt lat="4.6344950" lon="-74.2954530">
        <ele>2683.7</ele>
        <time>2018-08-10T14:18:44Z</time>
      </trkpt>
      <trkpt lat="4.6345430" lon="-74.2954600">
        <ele>2684.6</ele>
        <time>2018-08-10T14:18:46Z</time>
      </trkpt>
      <trkpt lat="4.6345920" lon="-74.2954700">
        <ele>2685.5</ele>
        <time>2018-08-10T14:18:48Z</time>
      </trkpt>
      <trkpt lat="4.6346420" lon="-74.2954680">
        <ele>2686.6</ele>
        <time>2018-08-10T14:18:50Z</time>
      </trkpt>
      <trkpt lat="4.6346920" lon="-74.2954630">
        <ele>2687.6</ele>
        <time>2018-08-10T14:18:52Z</time>
      </trkpt>
      <trkpt lat="4.6347380" lon="-74.2954570">
        <ele>2688.4</ele>
        <time>2018-08-10T14:18:54Z</time>
      </trkpt>
      <trkpt lat="4.6347820" lon="-74.2954450">
        <ele>2689.1</ele>
        <time>2018-08-10T14:18:56Z</time>
      </trkpt>
      <trkpt lat="4.6348320" lon="-74.2954370">
        <ele>2690.0</ele>
        <time>2018-08-10T14:18:58Z</time>
      </trkpt>
      <trkpt lat="4.6348780" lon="-74.2954220">
        <ele>2690.9</ele>
        <time>2018-08-10T14:19:00Z</time>
      </trkpt>
      <trkpt lat="4.6349050" lon="-74.2954120">
        <ele>2691.4</ele>
        <time>2018-08-10T14:19:01Z</time>
      </trkpt>
      <trkpt lat="4.6349520" lon="-74.2953900">
        <ele>2692.3</ele>
        <time>2018-08-10T14:19:03Z</time>
      </trkpt>
      <trkpt lat="4.6349920" lon="-74.2953530">
        <ele>2693.4</ele>
        <time>2018-08-10T14:19:05Z</time>
      </trkpt>
      <trkpt lat="4.6350220" lon="-74.2953170">
        <ele>2694.4</ele>
        <time>2018-08-10T14:19:07Z</time>
      </trkpt>
      <trkpt lat="4.6350600" lon="-74.2952850">
        <ele>2695.3</ele>
        <time>2018-08-10T14:19:09Z</time>
      </trkpt>
      <trkpt lat="4.6351050" lon="-74.2952680">
        <ele>2696.1</ele>
        <time>2018-08-10T14:19:11Z</time>
      </trkpt>
      <trkpt lat="4.6351530" lon="-74.2952770">
        <ele>2696.8</ele>
        <time>2018-08-10T14:19:13Z</time>
      </trkpt>
      <trkpt lat="4.6351770" lon="-74.2952920">
        <ele>2697.4</ele>
        <time>2018-08-10T14:19:14Z</time>
      </trkpt>
      <trkpt lat="4.6351930" lon="-74.2953150">
        <ele>2697.1</ele>
        <time>2018-08-10T14:19:15Z</time>
      </trkpt>
      <trkpt lat="4.6352030" lon="-74.2953450">
        <ele>2696.8</ele>
        <time>2018-08-10T14:19:16Z</time>
      </trkpt>
      <trkpt lat="4.6352100" lon="-74.2953750">
        <ele>2696.5</ele>
        <time>2018-08-10T14:19:17Z</time>
      </trkpt>
      <trkpt lat="4.6352100" lon="-74.2954050">
        <ele>2696.0</ele>
        <time>2018-08-10T14:19:18Z</time>
      </trkpt>
      <trkpt lat="4.6352100" lon="-74.2954330">
        <ele>2695.5</ele>
        <time>2018-08-10T14:19:19Z</time>
      </trkpt>
      <trkpt lat="4.6352080" lon="-74.2954630">
        <ele>2694.9</ele>
        <time>2018-08-10T14:19:20Z</time>
      </trkpt>
      <trkpt lat="4.6352050" lon="-74.2954930">
        <ele>2694.3</ele>
        <time>2018-08-10T14:19:21Z</time>
      </trkpt>
      <trkpt lat="4.6352000" lon="-74.2955220">
        <ele>2693.8</ele>
        <time>2018-08-10T14:19:22Z</time>
      </trkpt>
      <trkpt lat="4.6351970" lon="-74.2955500">
        <ele>2693.3</ele>
        <time>2018-08-10T14:19:23Z</time>
      </trkpt>
      <trkpt lat="4.6351930" lon="-74.2955780">
        <ele>2692.9</ele>
        <time>2018-08-10T14:19:24Z</time>
      </trkpt>
      <trkpt lat="4.6351880" lon="-74.2956070">
        <ele>2692.4</ele>
        <time>2018-08-10T14:19:25Z</time>
      </trkpt>
      <trkpt lat="4.6351830" lon="-74.2956330">
        <ele>2691.9</ele>
        <time>2018-08-10T14:19:26Z</time>
      </trkpt>
      <trkpt lat="4.6351780" lon="-74.2956620">
        <ele>2691.6</ele>
        <time>2018-08-10T14:19:27Z</time>
      </trkpt>
      <trkpt lat="4.6351770" lon="-74.2956920">
        <ele>2691.3</ele>
        <time>2018-08-10T14:19:28Z</time>
      </trkpt>
      <trkpt lat="4.6351720" lon="-74.2957450">
        <ele>2690.9</ele>
        <time>2018-08-10T14:19:30Z</time>
      </trkpt>
      <trkpt lat="4.6351700" lon="-74.2958000">
        <ele>2690.5</ele>
        <time>2018-08-10T14:19:32Z</time>
      </trkpt>
      <trkpt lat="4.6351720" lon="-74.2958300">
        <ele>2690.3</ele>
        <time>2018-08-10T14:19:33Z</time>
      </trkpt>
      <trkpt lat="4.6351730" lon="-74.2958580">
        <ele>2690.0</ele>
        <time>2018-08-10T14:19:34Z</time>
      </trkpt>
      <trkpt lat="4.6351780" lon="-74.2958880">
        <ele>2690.0</ele>
        <time>2018-08-10T14:19:35Z</time>
      </trkpt>
      <trkpt lat="4.6351800" lon="-74.2959170">
        <ele>2690.1</ele>
        <time>2018-08-10T14:19:36Z</time>
      </trkpt>
      <trkpt lat="4.6351830" lon="-74.2959470">
        <ele>2690.1</ele>
        <time>2018-08-10T14:19:37Z</time>
      </trkpt>
      <trkpt lat="4.6351850" lon="-74.2959780">
        <ele>2690.1</ele>
        <time>2018-08-10T14:19:38Z</time>
      </trkpt>
      <trkpt lat="4.6351920" lon="-74.2960080">
        <ele>2690.2</ele>
        <time>2018-08-10T14:19:39Z</time>
      </trkpt>
      <trkpt lat="4.6352030" lon="-74.2960370">
        <ele>2690.2</ele>
        <time>2018-08-10T14:19:40Z</time>
      </trkpt>
      <trkpt lat="4.6352170" lon="-74.2960670">
        <ele>2690.3</ele>
        <time>2018-08-10T14:19:41Z</time>
      </trkpt>
      <trkpt lat="4.6352300" lon="-74.2960980">
        <ele>2690.3</ele>
        <time>2018-08-10T14:19:42Z</time>
      </trkpt>
      <trkpt lat="4.6352450" lon="-74.2961300">
        <ele>2690.3</ele>
        <time>2018-08-10T14:19:43Z</time>
      </trkpt>
      <trkpt lat="4.6352570" lon="-74.2961620">
        <ele>2690.3</ele>
        <time>2018-08-10T14:19:44Z</time>
      </trkpt>
      <trkpt lat="4.6352730" lon="-74.2961930">
        <ele>2690.3</ele>
        <time>2018-08-10T14:19:45Z</time>
      </trkpt>
      <trkpt lat="4.6352930" lon="-74.2962270">
        <ele>2690.3</ele>
        <time>2018-08-10T14:19:46Z</time>
      </trkpt>
      <trkpt lat="4.6353170" lon="-74.2962620">
        <ele>2690.3</ele>
        <time>2018-08-10T14:19:47Z</time>
      </trkpt>
      <trkpt lat="4.6353420" lon="-74.2962930">
        <ele>2690.3</ele>
        <time>2018-08-10T14:19:48Z</time>
      </trkpt>
      <trkpt lat="4.6353630" lon="-74.2963230">
        <ele>2690.3</ele>
        <time>2018-08-10T14:19:49Z</time>
      </trkpt>
      <trkpt lat="4.6353870" lon="-74.2963520">
        <ele>2690.3</ele>
        <time>2018-08-10T14:19:50Z</time>
      </trkpt>
      <trkpt lat="4.6354120" lon="-74.2963800">
        <ele>2690.3</ele>
        <time>2018-08-10T14:19:51Z</time>
      </trkpt>
      <trkpt lat="4.6354350" lon="-74.2964130">
        <ele>2690.3</ele>
        <time>2018-08-10T14:19:52Z</time>
      </trkpt>
      <trkpt lat="4.6354580" lon="-74.2964480">
        <ele>2690.3</ele>
        <time>2018-08-10T14:19:53Z</time>
      </trkpt>
      <trkpt lat="4.6354800" lon="-74.2964850">
        <ele>2690.3</ele>
        <time>2018-08-10T14:19:54Z</time>
      </trkpt>
      <trkpt lat="4.6355070" lon="-74.2965200">
        <ele>2690.3</ele>
        <time>2018-08-10T14:19:55Z</time>
      </trkpt>
      <trkpt lat="4.6355370" lon="-74.2965530">
        <ele>2690.2</ele>
        <time>2018-08-10T14:19:56Z</time>
      </trkpt>
      <trkpt lat="4.6355650" lon="-74.2965850">
        <ele>2690.2</ele>
        <time>2018-08-10T14:19:57Z</time>
      </trkpt>
      <trkpt lat="4.6355930" lon="-74.2966170">
        <ele>2690.2</ele>
        <time>2018-08-10T14:19:58Z</time>
      </trkpt>
      <trkpt lat="4.6356200" lon="-74.2966480">
        <ele>2690.2</ele>
        <time>2018-08-10T14:19:59Z</time>
      </trkpt>
      <trkpt lat="4.6356450" lon="-74.2966800">
        <ele>2690.2</ele>
        <time>2018-08-10T14:20:00Z</time>
      </trkpt>
      <trkpt lat="4.6356720" lon="-74.2967120">
        <ele>2690.2</ele>
        <time>2018-08-10T14:20:01Z</time>
      </trkpt>
      <trkpt lat="4.6357020" lon="-74.2967430">
        <ele>2690.1</ele>
        <time>2018-08-10T14:20:02Z</time>
      </trkpt>
      <trkpt lat="4.6357350" lon="-74.2967770">
        <ele>2690.1</ele>
        <time>2018-08-10T14:20:03Z</time>
      </trkpt>
      <trkpt lat="4.6357720" lon="-74.2968100">
        <ele>2690.1</ele>
        <time>2018-08-10T14:20:04Z</time>
      </trkpt>
      <trkpt lat="4.6358100" lon="-74.2968450">
        <ele>2690.1</ele>
        <time>2018-08-10T14:20:05Z</time>
      </trkpt>
      <trkpt lat="4.6358470" lon="-74.2968870">
        <ele>2690.0</ele>
        <time>2018-08-10T14:20:06Z</time>
      </trkpt>
      <trkpt lat="4.6358850" lon="-74.2969320">
        <ele>2690.0</ele>
        <time>2018-08-10T14:20:07Z</time>
      </trkpt>
      <trkpt lat="4.6359250" lon="-74.2969780">
        <ele>2690.0</ele>
        <time>2018-08-10T14:20:08Z</time>
      </trkpt>
      <trkpt lat="4.6359650" lon="-74.2970270">
        <ele>2689.9</ele>
        <time>2018-08-10T14:20:09Z</time>
      </trkpt>
      <trkpt lat="4.6360070" lon="-74.2970670">
        <ele>2689.9</ele>
        <time>2018-08-10T14:20:10Z</time>
      </trkpt>
      <trkpt lat="4.6360480" lon="-74.2971080">
        <ele>2689.9</ele>
        <time>2018-08-10T14:20:11Z</time>
      </trkpt>
      <trkpt lat="4.6360880" lon="-74.2971520">
        <ele>2689.8</ele>
        <time>2018-08-10T14:20:12Z</time>
      </trkpt>
      <trkpt lat="4.6361280" lon="-74.2971900">
        <ele>2689.8</ele>
        <time>2018-08-10T14:20:13Z</time>
      </trkpt>
      <trkpt lat="4.6361670" lon="-74.2972300">
        <ele>2689.8</ele>
        <time>2018-08-10T14:20:14Z</time>
      </trkpt>
      <trkpt lat="4.6362020" lon="-74.2972670">
        <ele>2689.7</ele>
        <time>2018-08-10T14:20:15Z</time>
      </trkpt>
      <trkpt lat="4.6362380" lon="-74.2972980">
        <ele>2689.7</ele>
        <time>2018-08-10T14:20:16Z</time>
      </trkpt>
      <trkpt lat="4.6362730" lon="-74.2973300">
        <ele>2689.7</ele>
        <time>2018-08-10T14:20:17Z</time>
      </trkpt>
      <trkpt lat="4.6363100" lon="-74.2973680">
        <ele>2689.6</ele>
        <time>2018-08-10T14:20:18Z</time>
      </trkpt>
      <trkpt lat="4.6363470" lon="-74.2974050">
        <ele>2689.6</ele>
        <time>2018-08-10T14:20:19Z</time>
      </trkpt>
      <trkpt lat="4.6363830" lon="-74.2974400">
        <ele>2689.5</ele>
        <time>2018-08-10T14:20:20Z</time>
      </trkpt>
      <trkpt lat="4.6364170" lon="-74.2974750">
        <ele>2689.4</ele>
        <time>2018-08-10T14:20:21Z</time>
      </trkpt>
      <trkpt lat="4.6364500" lon="-74.2975070">
        <ele>2689.3</ele>
        <time>2018-08-10T14:20:22Z</time>
      </trkpt>
      <trkpt lat="4.6364770" lon="-74.2975370">
        <ele>2689.2</ele>
        <time>2018-08-10T14:20:23Z</time>
      </trkpt>
      <trkpt lat="4.6365070" lon="-74.2975650">
        <ele>2689.1</ele>
        <time>2018-08-10T14:20:24Z</time>
      </trkpt>
      <trkpt lat="4.6365300" lon="-74.2975920">
        <ele>2689.1</ele>
        <time>2018-08-10T14:20:25Z</time>
      </trkpt>
      <trkpt lat="4.6365650" lon="-74.2976150">
        <ele>2689.0</ele>
        <time>2018-08-10T14:20:26Z</time>
      </trkpt>
      <trkpt lat="4.6365930" lon="-74.2976470">
        <ele>2688.8</ele>
        <time>2018-08-10T14:20:27Z</time>
      </trkpt>
      <trkpt lat="4.6366130" lon="-74.2976850">
        <ele>2688.7</ele>
        <time>2018-08-10T14:20:28Z</time>
      </trkpt>
      <trkpt lat="4.6366400" lon="-74.2977120">
        <ele>2688.6</ele>
        <time>2018-08-10T14:20:29Z</time>
      </trkpt>
      <trkpt lat="4.6366670" lon="-74.2977470">
        <ele>2688.5</ele>
        <time>2018-08-10T14:20:30Z</time>
      </trkpt>
      <trkpt lat="4.6367000" lon="-74.2977900">
        <ele>2688.2</ele>
        <time>2018-08-10T14:20:31Z</time>
      </trkpt>
      <trkpt lat="4.6367350" lon="-74.2978380">
        <ele>2687.9</ele>
        <time>2018-08-10T14:20:32Z</time>
      </trkpt>
      <trkpt lat="4.6367750" lon="-74.2978920">
        <ele>2687.6</ele>
        <time>2018-08-10T14:20:33Z</time>
      </trkpt>
      <trkpt lat="4.6368180" lon="-74.2979430">
        <ele>2687.2</ele>
        <time>2018-08-10T14:20:34Z</time>
      </trkpt>
      <trkpt lat="4.6368650" lon="-74.2980030">
        <ele>2686.7</ele>
        <time>2018-08-10T14:20:35Z</time>
      </trkpt>
      <trkpt lat="4.6369180" lon="-74.2980580">
        <ele>2686.2</ele>
        <time>2018-08-10T14:20:36Z</time>
      </trkpt>
      <trkpt lat="4.6369720" lon="-74.2981130">
        <ele>2685.7</ele>
        <time>2018-08-10T14:20:37Z</time>
      </trkpt>
      <trkpt lat="4.6370300" lon="-74.2981680">
        <ele>2685.2</ele>
        <time>2018-08-10T14:20:38Z</time>
      </trkpt>
      <trkpt lat="4.6370930" lon="-74.2982250">
        <ele>2684.6</ele>
        <time>2018-08-10T14:20:39Z</time>
      </trkpt>
      <trkpt lat="4.6371620" lon="-74.2982820">
        <ele>2684.1</ele>
        <time>2018-08-10T14:20:40Z</time>
      </trkpt>
      <trkpt lat="4.6372300" lon="-74.2983400">
        <ele>2683.5</ele>
        <time>2018-08-10T14:20:41Z</time>
      </trkpt>
      <trkpt lat="4.6373030" lon="-74.2984030">
        <ele>2682.8</ele>
        <time>2018-08-10T14:20:42Z</time>
      </trkpt>
      <trkpt lat="4.6373820" lon="-74.2984650">
        <ele>2682.2</ele>
        <time>2018-08-10T14:20:43Z</time>
      </trkpt>
      <trkpt lat="4.6374600" lon="-74.2985350">
        <ele>2681.5</ele>
        <time>2018-08-10T14:20:44Z</time>
      </trkpt>
      <trkpt lat="4.6375450" lon="-74.2986050">
        <ele>2680.9</ele>
        <time>2018-08-10T14:20:45Z</time>
      </trkpt>
      <trkpt lat="4.6376320" lon="-74.2986780">
        <ele>2680.2</ele>
        <time>2018-08-10T14:20:46Z</time>
      </trkpt>
      <trkpt lat="4.6377220" lon="-74.2987570">
        <ele>2679.6</ele>
        <time>2018-08-10T14:20:47Z</time>
      </trkpt>
      <trkpt lat="4.6378130" lon="-74.2988370">
        <ele>2678.9</ele>
        <time>2018-08-10T14:20:48Z</time>
      </trkpt>
      <trkpt lat="4.6379070" lon="-74.2989150">
        <ele>2678.2</ele>
        <time>2018-08-10T14:20:49Z</time>
      </trkpt>
      <trkpt lat="4.6380020" lon="-74.2989900">
        <ele>2677.4</ele>
        <time>2018-08-10T14:20:50Z</time>
      </trkpt>
      <trkpt lat="4.6380920" lon="-74.2990680">
        <ele>2676.7</ele>
        <time>2018-08-10T14:20:51Z</time>
      </trkpt>
      <trkpt lat="4.6381800" lon="-74.2991450">
        <ele>2676.0</ele>
        <time>2018-08-10T14:20:52Z</time>
      </trkpt>
      <trkpt lat="4.6382630" lon="-74.2992180">
        <ele>2675.4</ele>
        <time>2018-08-10T14:20:53Z</time>
      </trkpt>
      <trkpt lat="4.6383450" lon="-74.2992880">
        <ele>2674.7</ele>
        <time>2018-08-10T14:20:54Z</time>
      </trkpt>
      <trkpt lat="4.6384230" lon="-74.2993530">
        <ele>2674.1</ele>
        <time>2018-08-10T14:20:55Z</time>
      </trkpt>
      <trkpt lat="4.6385030" lon="-74.2994150">
        <ele>2673.6</ele>
        <time>2018-08-10T14:20:56Z</time>
      </trkpt>
      <trkpt lat="4.6385780" lon="-74.2994800">
        <ele>2673.1</ele>
        <time>2018-08-10T14:20:57Z</time>
      </trkpt>
      <trkpt lat="4.6386450" lon="-74.2995480">
        <ele>2672.6</ele>
        <time>2018-08-10T14:20:58Z</time>
      </trkpt>
      <trkpt lat="4.6387000" lon="-74.2996270">
        <ele>2672.1</ele>
        <time>2018-08-10T14:20:59Z</time>
      </trkpt>
      <trkpt lat="4.6387420" lon="-74.2997100">
        <ele>2671.7</ele>
        <time>2018-08-10T14:21:00Z</time>
      </trkpt>
      <trkpt lat="4.6387720" lon="-74.2997970">
        <ele>2671.2</ele>
        <time>2018-08-10T14:21:01Z</time>
      </trkpt>
      <trkpt lat="4.6387920" lon="-74.2998830">
        <ele>2670.8</ele>
        <time>2018-08-10T14:21:02Z</time>
      </trkpt>
      <trkpt lat="4.6388030" lon="-74.2999680">
        <ele>2670.3</ele>
        <time>2018-08-10T14:21:03Z</time>
      </trkpt>
      <trkpt lat="4.6388100" lon="-74.3000550">
        <ele>2669.9</ele>
        <time>2018-08-10T14:21:04Z</time>
      </trkpt>
      <trkpt lat="4.6388150" lon="-74.3001400">
        <ele>2669.5</ele>
        <time>2018-08-10T14:21:05Z</time>
      </trkpt>
      <trkpt lat="4.6388180" lon="-74.3002230">
        <ele>2669.1</ele>
        <time>2018-08-10T14:21:06Z</time>
      </trkpt>
      <trkpt lat="4.6388230" lon="-74.3003100">
        <ele>2668.7</ele>
        <time>2018-08-10T14:21:07Z</time>
      </trkpt>
      <trkpt lat="4.6388280" lon="-74.3003950">
        <ele>2668.3</ele>
        <time>2018-08-10T14:21:08Z</time>
      </trkpt>
      <trkpt lat="4.6388350" lon="-74.3004830">
        <ele>2667.8</ele>
        <time>2018-08-10T14:21:09Z</time>
      </trkpt>
      <trkpt lat="4.6388450" lon="-74.3005730">
        <ele>2667.3</ele>
        <time>2018-08-10T14:21:10Z</time>
      </trkpt>
      <trkpt lat="4.6388570" lon="-74.3006650">
        <ele>2666.8</ele>
        <time>2018-08-10T14:21:11Z</time>
      </trkpt>
      <trkpt lat="4.6388770" lon="-74.3007570">
        <ele>2666.2</ele>
        <time>2018-08-10T14:21:12Z</time>
      </trkpt>
      <trkpt lat="4.6389050" lon="-74.3008520">
        <ele>2665.6</ele>
        <time>2018-08-10T14:21:13Z</time>
      </trkpt>
      <trkpt lat="4.6389430" lon="-74.3009480">
        <ele>2664.9</ele>
        <time>2018-08-10T14:21:14Z</time>
      </trkpt>
      <trkpt lat="4.6389900" lon="-74.3010430">
        <ele>2664.2</ele>
        <time>2018-08-10T14:21:15Z</time>
      </trkpt>
      <trkpt lat="4.6390470" lon="-74.3011330">
        <ele>2663.5</ele>
        <time>2018-08-10T14:21:16Z</time>
      </trkpt>
      <trkpt lat="4.6391100" lon="-74.3012180">
        <ele>2662.8</ele>
        <time>2018-08-10T14:21:17Z</time>
      </trkpt>
      <trkpt lat="4.6391830" lon="-74.3012930">
        <ele>2662.2</ele>
        <time>2018-08-10T14:21:18Z</time>
      </trkpt>
      <trkpt lat="4.6392620" lon="-74.3013670">
        <ele>2661.6</ele>
        <time>2018-08-10T14:21:19Z</time>
      </trkpt>
      <trkpt lat="4.6393470" lon="-74.3014380">
        <ele>2660.9</ele>
        <time>2018-08-10T14:21:20Z</time>
      </trkpt>
      <trkpt lat="4.6394350" lon="-74.3015100">
        <ele>2660.2</ele>
        <time>2018-08-10T14:21:21Z</time>
      </trkpt>
      <trkpt lat="4.6395230" lon="-74.3015820">
        <ele>2659.5</ele>
        <time>2018-08-10T14:21:22Z</time>
      </trkpt>
      <trkpt lat="4.6396120" lon="-74.3016550">
        <ele>2658.8</ele>
        <time>2018-08-10T14:21:23Z</time>
      </trkpt>
      <trkpt lat="4.6397020" lon="-74.3017230">
        <ele>2658.0</ele>
        <time>2018-08-10T14:21:24Z</time>
      </trkpt>
      <trkpt lat="4.6397930" lon="-74.3017900">
        <ele>2657.3</ele>
        <time>2018-08-10T14:21:25Z</time>
      </trkpt>
      <trkpt lat="4.6398880" lon="-74.3018530">
        <ele>2656.6</ele>
        <time>2018-08-10T14:21:26Z</time>
      </trkpt>
      <trkpt lat="4.6399880" lon="-74.3019150">
        <ele>2655.8</ele>
        <time>2018-08-10T14:21:27Z</time>
      </trkpt>
      <trkpt lat="4.6400920" lon="-74.3019720">
        <ele>2655.0</ele>
        <time>2018-08-10T14:21:28Z</time>
      </trkpt>
      <trkpt lat="4.6401970" lon="-74.3020250">
        <ele>2654.3</ele>
        <time>2018-08-10T14:21:29Z</time>
      </trkpt>
      <trkpt lat="4.6403070" lon="-74.3020730">
        <ele>2653.5</ele>
        <time>2018-08-10T14:21:30Z</time>
      </trkpt>
      <trkpt lat="4.6404100" lon="-74.3021220">
        <ele>2652.7</ele>
        <time>2018-08-10T14:21:31Z</time>
      </trkpt>
      <trkpt lat="4.6405170" lon="-74.3021670">
        <ele>2651.8</ele>
        <time>2018-08-10T14:21:32Z</time>
      </trkpt>
      <trkpt lat="4.6406220" lon="-74.3022050">
        <ele>2651.1</ele>
        <time>2018-08-10T14:21:33Z</time>
      </trkpt>
      <trkpt lat="4.6407270" lon="-74.3022420">
        <ele>2650.4</ele>
        <time>2018-08-10T14:21:34Z</time>
      </trkpt>
      <trkpt lat="4.6408330" lon="-74.3022770">
        <ele>2649.8</ele>
        <time>2018-08-10T14:21:35Z</time>
      </trkpt>
      <trkpt lat="4.6409380" lon="-74.3023130">
        <ele>2649.4</ele>
        <time>2018-08-10T14:21:36Z</time>
      </trkpt>
      <trkpt lat="4.6410380" lon="-74.3023480">
        <ele>2649.0</ele>
        <time>2018-08-10T14:21:37Z</time>
      </trkpt>
      <trkpt lat="4.6411370" lon="-74.3023780">
        <ele>2648.4</ele>
        <time>2018-08-10T14:21:38Z</time>
      </trkpt>
      <trkpt lat="4.6412330" lon="-74.3024080">
        <ele>2647.9</ele>
        <time>2018-08-10T14:21:39Z</time>
      </trkpt>
      <trkpt lat="4.6413320" lon="-74.3024370">
        <ele>2647.4</ele>
        <time>2018-08-10T14:21:40Z</time>
      </trkpt>
      <trkpt lat="4.6414250" lon="-74.3024680">
        <ele>2646.8</ele>
        <time>2018-08-10T14:21:41Z</time>
      </trkpt>
      <trkpt lat="4.6415120" lon="-74.3025080">
        <ele>2646.2</ele>
        <time>2018-08-10T14:21:42Z</time>
      </trkpt>
      <trkpt lat="4.6415880" lon="-74.3025480">
        <ele>2646.0</ele>
        <time>2018-08-10T14:21:43Z</time>
      </trkpt>
      <trkpt lat="4.6416550" lon="-74.3025900">
        <ele>2646.0</ele>
        <time>2018-08-10T14:21:44Z</time>
      </trkpt>
      <trkpt lat="4.6417120" lon="-74.3026350">
        <ele>2645.5</ele>
        <time>2018-08-10T14:21:45Z</time>
      </trkpt>
      <trkpt lat="4.6417570" lon="-74.3026770">
        <ele>2644.6</ele>
        <time>2018-08-10T14:21:46Z</time>
      </trkpt>
      <trkpt lat="4.6418020" lon="-74.3027130">
        <ele>2644.0</ele>
        <time>2018-08-10T14:21:47Z</time>
      </trkpt>
      <trkpt lat="4.6418470" lon="-74.3027500">
        <ele>2643.3</ele>
        <time>2018-08-10T14:21:48Z</time>
      </trkpt>
      <trkpt lat="4.6418930" lon="-74.3027870">
        <ele>2642.6</ele>
        <time>2018-08-10T14:21:49Z</time>
      </trkpt>
      <trkpt lat="4.6419370" lon="-74.3028200">
        <ele>2642.0</ele>
        <time>2018-08-10T14:21:50Z</time>
      </trkpt>
      <trkpt lat="4.6419770" lon="-74.3028550">
        <ele>2641.4</ele>
        <time>2018-08-10T14:21:51Z</time>
      </trkpt>
      <trkpt lat="4.6420220" lon="-74.3028880">
        <ele>2641.0</ele>
        <time>2018-08-10T14:21:52Z</time>
      </trkpt>
      <trkpt lat="4.6420680" lon="-74.3029220">
        <ele>2640.6</ele>
        <time>2018-08-10T14:21:53Z</time>
      </trkpt>
      <trkpt lat="4.6421150" lon="-74.3029550">
        <ele>2640.7</ele>
        <time>2018-08-10T14:21:54Z</time>
      </trkpt>
      <trkpt lat="4.6421620" lon="-74.3029850">
        <ele>2640.6</ele>
        <time>2018-08-10T14:21:55Z</time>
      </trkpt>
      <trkpt lat="4.6422080" lon="-74.3030100">
        <ele>2640.4</ele>
        <time>2018-08-10T14:21:56Z</time>
      </trkpt>
      <trkpt lat="4.6422550" lon="-74.3030300">
        <ele>2640.5</ele>
        <time>2018-08-10T14:21:57Z</time>
      </trkpt>
      <trkpt lat="4.6423020" lon="-74.3030430">
        <ele>2640.9</ele>
        <time>2018-08-10T14:21:58Z</time>
      </trkpt>
      <trkpt lat="4.6423470" lon="-74.3030620">
        <ele>2641.6</ele>
        <time>2018-08-10T14:21:59Z</time>
      </trkpt>
      <trkpt lat="4.6423900" lon="-74.3030750">
        <ele>2641.8</ele>
        <time>2018-08-10T14:22:00Z</time>
      </trkpt>
      <trkpt lat="4.6424300" lon="-74.3030880">
        <ele>2642.0</ele>
        <time>2018-08-10T14:22:01Z</time>
      </trkpt>
      <trkpt lat="4.6424680" lon="-74.3031020">
        <ele>2642.3</ele>
        <time>2018-08-10T14:22:02Z</time>
      </trkpt>
      <trkpt lat="4.6425080" lon="-74.3031120">
        <ele>2642.7</ele>
        <time>2018-08-10T14:22:03Z</time>
      </trkpt>
      <trkpt lat="4.6425480" lon="-74.3031230">
        <ele>2643.5</ele>
        <time>2018-08-10T14:22:04Z</time>
      </trkpt>
      <trkpt lat="4.6425870" lon="-74.3031380">
        <ele>2644.0</ele>
        <time>2018-08-10T14:22:05Z</time>
      </trkpt>
      <trkpt lat="4.6426250" lon="-74.3031500">
        <ele>2644.2</ele>
        <time>2018-08-10T14:22:06Z</time>
      </trkpt>
      <trkpt lat="4.6426670" lon="-74.3031550">
        <ele>2644.6</ele>
        <time>2018-08-10T14:22:07Z</time>
      </trkpt>
      <trkpt lat="4.6427070" lon="-74.3031600">
        <ele>2645.0</ele>
        <time>2018-08-10T14:22:08Z</time>
      </trkpt>
      <trkpt lat="4.6427470" lon="-74.3031650">
        <ele>2645.0</ele>
        <time>2018-08-10T14:22:09Z</time>
      </trkpt>
      <trkpt lat="4.6427850" lon="-74.3031670">
        <ele>2644.9</ele>
        <time>2018-08-10T14:22:10Z</time>
      </trkpt>
      <trkpt lat="4.6428230" lon="-74.3031680">
        <ele>2645.0</ele>
        <time>2018-08-10T14:22:11Z</time>
      </trkpt>
      <trkpt lat="4.6428600" lon="-74.3031720">
        <ele>2645.2</ele>
        <time>2018-08-10T14:22:12Z</time>
      </trkpt>
      <trkpt lat="4.6428970" lon="-74.3031750">
        <ele>2645.3</ele>
        <time>2018-08-10T14:22:13Z</time>
      </trkpt>
      <trkpt lat="4.6429300" lon="-74.3031750">
        <ele>2645.5</ele>
        <time>2018-08-10T14:22:14Z</time>
      </trkpt>
      <trkpt lat="4.6429630" lon="-74.3031730">
        <ele>2645.7</ele>
        <time>2018-08-10T14:22:15Z</time>
      </trkpt>
      <trkpt lat="4.6429920" lon="-74.3031770">
        <ele>2645.9</ele>
        <time>2018-08-10T14:22:16Z</time>
      </trkpt>
      <trkpt lat="4.6430430" lon="-74.3031720">
        <ele>2646.2</ele>
        <time>2018-08-10T14:22:18Z</time>
      </trkpt>
      <trkpt lat="4.6430720" lon="-74.3031670">
        <ele>2646.2</ele>
        <time>2018-08-10T14:22:19Z</time>
      </trkpt>
      <trkpt lat="4.6431000" lon="-74.3031600">
        <ele>2646.1</ele>
        <time>2018-08-10T14:22:20Z</time>
      </trkpt>
      <trkpt lat="4.6431300" lon="-74.3031500">
        <ele>2646.4</ele>
        <time>2018-08-10T14:22:21Z</time>
      </trkpt>
      <trkpt lat="4.6431630" lon="-74.3031370">
        <ele>2646.9</ele>
        <time>2018-08-10T14:22:22Z</time>
      </trkpt>
      <trkpt lat="4.6432100" lon="-74.3031200">
        <ele>2647.4</ele>
        <time>2018-08-10T14:22:24Z</time>
      </trkpt>
      <trkpt lat="4.6432570" lon="-74.3030970">
        <ele>2647.9</ele>
        <time>2018-08-10T14:22:26Z</time>
      </trkpt>
      <trkpt lat="4.6433030" lon="-74.3030720">
        <ele>2648.8</ele>
        <time>2018-08-10T14:22:28Z</time>
      </trkpt>
      <trkpt lat="4.6433480" lon="-74.3030450">
        <ele>2649.6</ele>
        <time>2018-08-10T14:22:30Z</time>
      </trkpt>
      <trkpt lat="4.6433970" lon="-74.3030270">
        <ele>2650.4</ele>
        <time>2018-08-10T14:22:32Z</time>
      </trkpt>
      <trkpt lat="4.6434420" lon="-74.3030070">
        <ele>2650.9</ele>
        <time>2018-08-10T14:22:34Z</time>
      </trkpt>
      <trkpt lat="4.6434700" lon="-74.3029970">
        <ele>2651.2</ele>
        <time>2018-08-10T14:22:35Z</time>
      </trkpt>
      <trkpt lat="4.6435220" lon="-74.3029770">
        <ele>2651.6</ele>
        <time>2018-08-10T14:22:37Z</time>
      </trkpt>
      <trkpt lat="4.6435480" lon="-74.3029630">
        <ele>2651.8</ele>
        <time>2018-08-10T14:22:38Z</time>
      </trkpt>
      <trkpt lat="4.6435770" lon="-74.3029500">
        <ele>2652.2</ele>
        <time>2018-08-10T14:22:39Z</time>
      </trkpt>
      <trkpt lat="4.6436030" lon="-74.3029350">
        <ele>2652.5</ele>
        <time>2018-08-10T14:22:40Z</time>
      </trkpt>
      <trkpt lat="4.6436320" lon="-74.3029220">
        <ele>2652.8</ele>
        <time>2018-08-10T14:22:41Z</time>
      </trkpt>
      <trkpt lat="4.6436630" lon="-74.3029120">
        <ele>2652.8</ele>
        <time>2018-08-10T14:22:42Z</time>
      </trkpt>
      <trkpt lat="4.6436930" lon="-74.3029030">
        <ele>2653.0</ele>
        <time>2018-08-10T14:22:43Z</time>
      </trkpt>
      <trkpt lat="4.6437280" lon="-74.3028980">
        <ele>2653.6</ele>
        <time>2018-08-10T14:22:44Z</time>
      </trkpt>
      <trkpt lat="4.6437650" lon="-74.3028920">
        <ele>2654.1</ele>
        <time>2018-08-10T14:22:45Z</time>
      </trkpt>
      <trkpt lat="4.6438030" lon="-74.3028830">
        <ele>2654.2</ele>
        <time>2018-08-10T14:22:46Z</time>
      </trkpt>
      <trkpt lat="4.6438450" lon="-74.3028780">
        <ele>2654.3</ele>
        <time>2018-08-10T14:22:47Z</time>
      </trkpt>
      <trkpt lat="4.6438850" lon="-74.3028780">
        <ele>2654.3</ele>
        <time>2018-08-10T14:22:48Z</time>
      </trkpt>
      <trkpt lat="4.6439200" lon="-74.3028780">
        <ele>2654.2</ele>
        <time>2018-08-10T14:22:49Z</time>
      </trkpt>
      <trkpt lat="4.6439550" lon="-74.3028770">
        <ele>2654.2</ele>
        <time>2018-08-10T14:22:50Z</time>
      </trkpt>
      <trkpt lat="4.6439930" lon="-74.3028730">
        <ele>2654.1</ele>
        <time>2018-08-10T14:22:51Z</time>
      </trkpt>
      <trkpt lat="4.6440330" lon="-74.3028700">
        <ele>2653.9</ele>
        <time>2018-08-10T14:22:52Z</time>
      </trkpt>
      <trkpt lat="4.6440700" lon="-74.3028700">
        <ele>2653.7</ele>
        <time>2018-08-10T14:22:53Z</time>
      </trkpt>
      <trkpt lat="4.6441020" lon="-74.3028700">
        <ele>2653.9</ele>
        <time>2018-08-10T14:22:54Z</time>
      </trkpt>
      <trkpt lat="4.6441320" lon="-74.3028700">
        <ele>2654.2</ele>
        <time>2018-08-10T14:22:55Z</time>
      </trkpt>
      <trkpt lat="4.6441630" lon="-74.3028680">
        <ele>2654.4</ele>
        <time>2018-08-10T14:22:56Z</time>
      </trkpt>
      <trkpt lat="4.6441950" lon="-74.3028730">
        <ele>2654.0</ele>
        <time>2018-08-10T14:22:57Z</time>
      </trkpt>
      <trkpt lat="4.6442280" lon="-74.3028800">
        <ele>2653.6</ele>
        <time>2018-08-10T14:22:58Z</time>
      </trkpt>
      <trkpt lat="4.6442670" lon="-74.3028850">
        <ele>2652.8</ele>
        <time>2018-08-10T14:22:59Z</time>
      </trkpt>
      <trkpt lat="4.6443070" lon="-74.3028900">
        <ele>2651.7</ele>
        <time>2018-08-10T14:23:00Z</time>
      </trkpt>
      <trkpt lat="4.6443420" lon="-74.3028930">
        <ele>2651.3</ele>
        <time>2018-08-10T14:23:01Z</time>
      </trkpt>
      <trkpt lat="4.6443750" lon="-74.3028950">
        <ele>2651.2</ele>
        <time>2018-08-10T14:23:02Z</time>
      </trkpt>
      <trkpt lat="4.6444070" lon="-74.3028970">
        <ele>2651.0</ele>
        <time>2018-08-10T14:23:03Z</time>
      </trkpt>
      <trkpt lat="4.6444420" lon="-74.3029000">
        <ele>2650.8</ele>
        <time>2018-08-10T14:23:04Z</time>
      </trkpt>
      <trkpt lat="4.6444780" lon="-74.3029070">
        <ele>2650.5</ele>
        <time>2018-08-10T14:23:05Z</time>
      </trkpt>
      <trkpt lat="4.6445100" lon="-74.3029120">
        <ele>2650.3</ele>
        <time>2018-08-10T14:23:06Z</time>
      </trkpt>
      <trkpt lat="4.6445400" lon="-74.3029170">
        <ele>2650.1</ele>
        <time>2018-08-10T14:23:07Z</time>
      </trkpt>
      <trkpt lat="4.6445700" lon="-74.3029230">
        <ele>2650.1</ele>
        <time>2018-08-10T14:23:08Z</time>
      </trkpt>
      <trkpt lat="4.6446000" lon="-74.3029330">
        <ele>2650.1</ele>
        <time>2018-08-10T14:23:09Z</time>
      </trkpt>
      <trkpt lat="4.6446300" lon="-74.3029430">
        <ele>2649.9</ele>
        <time>2018-08-10T14:23:10Z</time>
      </trkpt>
      <trkpt lat="4.6446600" lon="-74.3029530">
        <ele>2649.7</ele>
        <time>2018-08-10T14:23:11Z</time>
      </trkpt>
      <trkpt lat="4.6447130" lon="-74.3029750">
        <ele>2649.5</ele>
        <time>2018-08-10T14:23:13Z</time>
      </trkpt>
      <trkpt lat="4.6447430" lon="-74.3029870">
        <ele>2649.6</ele>
        <time>2018-08-10T14:23:14Z</time>
      </trkpt>
      <trkpt lat="4.6447770" lon="-74.3029980">
        <ele>2649.8</ele>
        <time>2018-08-10T14:23:15Z</time>
      </trkpt>
      <trkpt lat="4.6448100" lon="-74.3030120">
        <ele>2650.3</ele>
        <time>2018-08-10T14:23:16Z</time>
      </trkpt>
      <trkpt lat="4.6448480" lon="-74.3030270">
        <ele>2650.9</ele>
        <time>2018-08-10T14:23:17Z</time>
      </trkpt>
      <trkpt lat="4.6448820" lon="-74.3030400">
        <ele>2651.4</ele>
        <time>2018-08-10T14:23:18Z</time>
      </trkpt>
      <trkpt lat="4.6449150" lon="-74.3030530">
        <ele>2651.9</ele>
        <time>2018-08-10T14:23:19Z</time>
      </trkpt>
      <trkpt lat="4.6449470" lon="-74.3030630">
        <ele>2652.3</ele>
        <time>2018-08-10T14:23:20Z</time>
      </trkpt>
      <trkpt lat="4.6449830" lon="-74.3030730">
        <ele>2652.9</ele>
        <time>2018-08-10T14:23:21Z</time>
      </trkpt>
      <trkpt lat="4.6450200" lon="-74.3030830">
        <ele>2653.2</ele>
        <time>2018-08-10T14:23:22Z</time>
      </trkpt>
      <trkpt lat="4.6450550" lon="-74.3030950">
        <ele>2653.4</ele>
        <time>2018-08-10T14:23:23Z</time>
      </trkpt>
      <trkpt lat="4.6450900" lon="-74.3031070">
        <ele>2653.4</ele>
        <time>2018-08-10T14:23:24Z</time>
      </trkpt>
      <trkpt lat="4.6451250" lon="-74.3031180">
        <ele>2653.3</ele>
        <time>2018-08-10T14:23:25Z</time>
      </trkpt>
      <trkpt lat="4.6451600" lon="-74.3031300">
        <ele>2653.1</ele>
        <time>2018-08-10T14:23:26Z</time>
      </trkpt>
      <trkpt lat="4.6451950" lon="-74.3031400">
        <ele>2652.9</ele>
        <time>2018-08-10T14:23:27Z</time>
      </trkpt>
      <trkpt lat="4.6452320" lon="-74.3031470">
        <ele>2652.6</ele>
        <time>2018-08-10T14:23:28Z</time>
      </trkpt>
      <trkpt lat="4.6452670" lon="-74.3031520">
        <ele>2652.7</ele>
        <time>2018-08-10T14:23:29Z</time>
      </trkpt>
      <trkpt lat="4.6452980" lon="-74.3031550">
        <ele>2652.7</ele>
        <time>2018-08-10T14:23:30Z</time>
      </trkpt>
      <trkpt lat="4.6453330" lon="-74.3031570">
        <ele>2652.9</ele>
        <time>2018-08-10T14:23:31Z</time>
      </trkpt>
      <trkpt lat="4.6453700" lon="-74.3031570">
        <ele>2653.1</ele>
        <time>2018-08-10T14:23:32Z</time>
      </trkpt>
      <trkpt lat="4.6454050" lon="-74.3031580">
        <ele>2653.4</ele>
        <time>2018-08-10T14:23:33Z</time>
      </trkpt>
      <trkpt lat="4.6454370" lon="-74.3031550">
        <ele>2653.7</ele>
        <time>2018-08-10T14:23:34Z</time>
      </trkpt>
      <trkpt lat="4.6454720" lon="-74.3031500">
        <ele>2654.0</ele>
        <time>2018-08-10T14:23:35Z</time>
      </trkpt>
      <trkpt lat="4.6455070" lon="-74.3031480">
        <ele>2654.1</ele>
        <time>2018-08-10T14:23:36Z</time>
      </trkpt>
      <trkpt lat="4.6455420" lon="-74.3031470">
        <ele>2654.2</ele>
        <time>2018-08-10T14:23:37Z</time>
      </trkpt>
      <trkpt lat="4.6455770" lon="-74.3031450">
        <ele>2654.2</ele>
        <time>2018-08-10T14:23:38Z</time>
      </trkpt>
      <trkpt lat="4.6456120" lon="-74.3031450">
        <ele>2654.2</ele>
        <time>2018-08-10T14:23:39Z</time>
      </trkpt>
      <trkpt lat="4.6456450" lon="-74.3031430">
        <ele>2654.2</ele>
        <time>2018-08-10T14:23:40Z</time>
      </trkpt>
      <trkpt lat="4.6456780" lon="-74.3031420">
        <ele>2654.4</ele>
        <time>2018-08-10T14:23:41Z</time>
      </trkpt>
      <trkpt lat="4.6457150" lon="-74.3031380">
        <ele>2654.6</ele>
        <time>2018-08-10T14:23:42Z</time>
      </trkpt>
      <trkpt lat="4.6457520" lon="-74.3031380">
        <ele>2654.8</ele>
        <time>2018-08-10T14:23:43Z</time>
      </trkpt>
      <trkpt lat="4.6457880" lon="-74.3031400">
        <ele>2655.1</ele>
        <time>2018-08-10T14:23:44Z</time>
      </trkpt>
      <trkpt lat="4.6458230" lon="-74.3031420">
        <ele>2655.4</ele>
        <time>2018-08-10T14:23:45Z</time>
      </trkpt>
      <trkpt lat="4.6458580" lon="-74.3031430">
        <ele>2655.5</ele>
        <time>2018-08-10T14:23:46Z</time>
      </trkpt>
      <trkpt lat="4.6458950" lon="-74.3031400">
        <ele>2655.5</ele>
        <time>2018-08-10T14:23:47Z</time>
      </trkpt>
      <trkpt lat="4.6459300" lon="-74.3031370">
        <ele>2655.6</ele>
        <time>2018-08-10T14:23:48Z</time>
      </trkpt>
      <trkpt lat="4.6459650" lon="-74.3031280">
        <ele>2655.5</ele>
        <time>2018-08-10T14:23:49Z</time>
      </trkpt>
      <trkpt lat="4.6460000" lon="-74.3031180">
        <ele>2655.5</ele>
        <time>2018-08-10T14:23:50Z</time>
      </trkpt>
      <trkpt lat="4.6460350" lon="-74.3031120">
        <ele>2655.6</ele>
        <time>2018-08-10T14:23:51Z</time>
      </trkpt>
      <trkpt lat="4.6460720" lon="-74.3031100">
        <ele>2655.7</ele>
        <time>2018-08-10T14:23:52Z</time>
      </trkpt>
      <trkpt lat="4.6461070" lon="-74.3031100">
        <ele>2655.9</ele>
        <time>2018-08-10T14:23:53Z</time>
      </trkpt>
      <trkpt lat="4.6461430" lon="-74.3031080">
        <ele>2656.2</ele>
        <time>2018-08-10T14:23:54Z</time>
      </trkpt>
      <trkpt lat="4.6461800" lon="-74.3031070">
        <ele>2656.6</ele>
        <time>2018-08-10T14:23:55Z</time>
      </trkpt>
      <trkpt lat="4.6462130" lon="-74.3031030">
        <ele>2656.9</ele>
        <time>2018-08-10T14:23:56Z</time>
      </trkpt>
      <trkpt lat="4.6462480" lon="-74.3030980">
        <ele>2657.2</ele>
        <time>2018-08-10T14:23:57Z</time>
      </trkpt>
      <trkpt lat="4.6462820" lon="-74.3030930">
        <ele>2657.5</ele>
        <time>2018-08-10T14:23:58Z</time>
      </trkpt>
      <trkpt lat="4.6463100" lon="-74.3030900">
        <ele>2657.8</ele>
        <time>2018-08-10T14:23:59Z</time>
      </trkpt>
      <trkpt lat="4.6463420" lon="-74.3030880">
        <ele>2658.0</ele>
        <time>2018-08-10T14:24:00Z</time>
      </trkpt>
      <trkpt lat="4.6463770" lon="-74.3030830">
        <ele>2658.2</ele>
        <time>2018-08-10T14:24:01Z</time>
      </trkpt>
      <trkpt lat="4.6464100" lon="-74.3030800">
        <ele>2658.4</ele>
        <time>2018-08-10T14:24:02Z</time>
      </trkpt>
      <trkpt lat="4.6464430" lon="-74.3030780">
        <ele>2658.5</ele>
        <time>2018-08-10T14:24:03Z</time>
      </trkpt>
      <trkpt lat="4.6464780" lon="-74.3030770">
        <ele>2658.5</ele>
        <time>2018-08-10T14:24:04Z</time>
      </trkpt>
      <trkpt lat="4.6465100" lon="-74.3030750">
        <ele>2658.5</ele>
        <time>2018-08-10T14:24:05Z</time>
      </trkpt>
      <trkpt lat="4.6465430" lon="-74.3030730">
        <ele>2658.3</ele>
        <time>2018-08-10T14:24:06Z</time>
      </trkpt>
      <trkpt lat="4.6465770" lon="-74.3030750">
        <ele>2658.1</ele>
        <time>2018-08-10T14:24:07Z</time>
      </trkpt>
      <trkpt lat="4.6466080" lon="-74.3030730">
        <ele>2657.9</ele>
        <time>2018-08-10T14:24:08Z</time>
      </trkpt>
      <trkpt lat="4.6466380" lon="-74.3030720">
        <ele>2657.8</ele>
        <time>2018-08-10T14:24:09Z</time>
      </trkpt>
      <trkpt lat="4.6466720" lon="-74.3030700">
        <ele>2657.7</ele>
        <time>2018-08-10T14:24:10Z</time>
      </trkpt>
      <trkpt lat="4.6467080" lon="-74.3030700">
        <ele>2657.6</ele>
        <time>2018-08-10T14:24:11Z</time>
      </trkpt>
      <trkpt lat="4.6467430" lon="-74.3030700">
        <ele>2657.5</ele>
        <time>2018-08-10T14:24:12Z</time>
      </trkpt>
      <trkpt lat="4.6467730" lon="-74.3030670">
        <ele>2657.4</ele>
        <time>2018-08-10T14:24:13Z</time>
      </trkpt>
      <trkpt lat="4.6468050" lon="-74.3030650">
        <ele>2657.4</ele>
        <time>2018-08-10T14:24:14Z</time>
      </trkpt>
      <trkpt lat="4.6468420" lon="-74.3030600">
        <ele>2657.4</ele>
        <time>2018-08-10T14:24:15Z</time>
      </trkpt>
      <trkpt lat="4.6468770" lon="-74.3030570">
        <ele>2657.3</ele>
        <time>2018-08-10T14:24:16Z</time>
      </trkpt>
      <trkpt lat="4.6469100" lon="-74.3030550">
        <ele>2657.2</ele>
        <time>2018-08-10T14:24:17Z</time>
      </trkpt>
      <trkpt lat="4.6469430" lon="-74.3030580">
        <ele>2657.0</ele>
        <time>2018-08-10T14:24:18Z</time>
      </trkpt>
      <trkpt lat="4.6469730" lon="-74.3030570">
        <ele>2656.9</ele>
        <time>2018-08-10T14:24:19Z</time>
      </trkpt>
      <trkpt lat="4.6470030" lon="-74.3030520">
        <ele>2656.9</ele>
        <time>2018-08-10T14:24:20Z</time>
      </trkpt>
      <trkpt lat="4.6470380" lon="-74.3030450">
        <ele>2656.8</ele>
        <time>2018-08-10T14:24:21Z</time>
      </trkpt>
      <trkpt lat="4.6470700" lon="-74.3030380">
        <ele>2657.1</ele>
        <time>2018-08-10T14:24:22Z</time>
      </trkpt>
      <trkpt lat="4.6471030" lon="-74.3030330">
        <ele>2657.5</ele>
        <time>2018-08-10T14:24:23Z</time>
      </trkpt>
      <trkpt lat="4.6471370" lon="-74.3030280">
        <ele>2658.0</ele>
        <time>2018-08-10T14:24:24Z</time>
      </trkpt>
      <trkpt lat="4.6471700" lon="-74.3030250">
        <ele>2658.6</ele>
        <time>2018-08-10T14:24:25Z</time>
      </trkpt>
      <trkpt lat="4.6472050" lon="-74.3030220">
        <ele>2659.3</ele>
        <time>2018-08-10T14:24:26Z</time>
      </trkpt>
      <trkpt lat="4.6472380" lon="-74.3030220">
        <ele>2659.8</ele>
        <time>2018-08-10T14:24:27Z</time>
      </trkpt>
      <trkpt lat="4.6472720" lon="-74.3030220">
        <ele>2660.2</ele>
        <time>2018-08-10T14:24:28Z</time>
      </trkpt>
      <trkpt lat="4.6473070" lon="-74.3030200">
        <ele>2660.6</ele>
        <time>2018-08-10T14:24:29Z</time>
      </trkpt>
      <trkpt lat="4.6473430" lon="-74.3030180">
        <ele>2661.1</ele>
        <time>2018-08-10T14:24:30Z</time>
      </trkpt>
      <trkpt lat="4.6473780" lon="-74.3030170">
        <ele>2661.6</ele>
        <time>2018-08-10T14:24:31Z</time>
      </trkpt>
      <trkpt lat="4.6474130" lon="-74.3030150">
        <ele>2662.1</ele>
        <time>2018-08-10T14:24:32Z</time>
      </trkpt>
      <trkpt lat="4.6474500" lon="-74.3030150">
        <ele>2662.7</ele>
        <time>2018-08-10T14:24:33Z</time>
      </trkpt>
      <trkpt lat="4.6474830" lon="-74.3030120">
        <ele>2663.1</ele>
        <time>2018-08-10T14:24:34Z</time>
      </trkpt>
      <trkpt lat="4.6475200" lon="-74.3030100">
        <ele>2663.5</ele>
        <time>2018-08-10T14:24:35Z</time>
      </trkpt>
      <trkpt lat="4.6475550" lon="-74.3030070">
        <ele>2663.9</ele>
        <time>2018-08-10T14:24:36Z</time>
      </trkpt>
      <trkpt lat="4.6475880" lon="-74.3030030">
        <ele>2664.0</ele>
        <time>2018-08-10T14:24:37Z</time>
      </trkpt>
      <trkpt lat="4.6476230" lon="-74.3029980">
        <ele>2664.0</ele>
        <time>2018-08-10T14:24:38Z</time>
      </trkpt>
      <trkpt lat="4.6476620" lon="-74.3029950">
        <ele>2664.0</ele>
        <time>2018-08-10T14:24:39Z</time>
      </trkpt>
      <trkpt lat="4.6477000" lon="-74.3029930">
        <ele>2664.0</ele>
        <time>2018-08-10T14:24:40Z</time>
      </trkpt>
      <trkpt lat="4.6477370" lon="-74.3029880">
        <ele>2664.0</ele>
        <time>2018-08-10T14:24:41Z</time>
      </trkpt>
      <trkpt lat="4.6477700" lon="-74.3029830">
        <ele>2664.0</ele>
        <time>2018-08-10T14:24:42Z</time>
      </trkpt>
      <trkpt lat="4.6478000" lon="-74.3029750">
        <ele>2664.0</ele>
        <time>2018-08-10T14:24:43Z</time>
      </trkpt>
      <trkpt lat="4.6478270" lon="-74.3029650">
        <ele>2664.1</ele>
        <time>2018-08-10T14:24:44Z</time>
      </trkpt>
      <trkpt lat="4.6478570" lon="-74.3029600">
        <ele>2664.0</ele>
        <time>2018-08-10T14:24:45Z</time>
      </trkpt>
      <trkpt lat="4.6478880" lon="-74.3029580">
        <ele>2664.0</ele>
        <time>2018-08-10T14:24:46Z</time>
      </trkpt>
      <trkpt lat="4.6479180" lon="-74.3029550">
        <ele>2664.0</ele>
        <time>2018-08-10T14:24:47Z</time>
      </trkpt>
      <trkpt lat="4.6479500" lon="-74.3029530">
        <ele>2663.8</ele>
        <time>2018-08-10T14:24:48Z</time>
      </trkpt>
      <trkpt lat="4.6479830" lon="-74.3029530">
        <ele>2663.6</ele>
        <time>2018-08-10T14:24:49Z</time>
      </trkpt>
      <trkpt lat="4.6480150" lon="-74.3029570">
        <ele>2663.4</ele>
        <time>2018-08-10T14:24:50Z</time>
      </trkpt>
      <trkpt lat="4.6480480" lon="-74.3029570">
        <ele>2663.3</ele>
        <time>2018-08-10T14:24:51Z</time>
      </trkpt>
      <trkpt lat="4.6480830" lon="-74.3029570">
        <ele>2663.1</ele>
        <time>2018-08-10T14:24:52Z</time>
      </trkpt>
      <trkpt lat="4.6481220" lon="-74.3029550">
        <ele>2662.9</ele>
        <time>2018-08-10T14:24:53Z</time>
      </trkpt>
      <trkpt lat="4.6481600" lon="-74.3029550">
        <ele>2662.7</ele>
        <time>2018-08-10T14:24:54Z</time>
      </trkpt>
      <trkpt lat="4.6481970" lon="-74.3029530">
        <ele>2662.5</ele>
        <time>2018-08-10T14:24:55Z</time>
      </trkpt>
      <trkpt lat="4.6482330" lon="-74.3029520">
        <ele>2662.2</ele>
        <time>2018-08-10T14:24:56Z</time>
      </trkpt>
      <trkpt lat="4.6482730" lon="-74.3029480">
        <ele>2661.9</ele>
        <time>2018-08-10T14:24:57Z</time>
      </trkpt>
      <trkpt lat="4.6483120" lon="-74.3029500">
        <ele>2661.5</ele>
        <time>2018-08-10T14:24:58Z</time>
      </trkpt>
      <trkpt lat="4.6483500" lon="-74.3029530">
        <ele>2661.1</ele>
        <time>2018-08-10T14:24:59Z</time>
      </trkpt>
      <trkpt lat="4.6483900" lon="-74.3029520">
        <ele>2660.6</ele>
        <time>2018-08-10T14:25:00Z</time>
      </trkpt>
      <trkpt lat="4.6484300" lon="-74.3029480">
        <ele>2660.1</ele>
        <time>2018-08-10T14:25:01Z</time>
      </trkpt>
      <trkpt lat="4.6484720" lon="-74.3029470">
        <ele>2659.6</ele>
        <time>2018-08-10T14:25:02Z</time>
      </trkpt>
      <trkpt lat="4.6485130" lon="-74.3029430">
        <ele>2659.2</ele>
        <time>2018-08-10T14:25:03Z</time>
      </trkpt>
      <trkpt lat="4.6485570" lon="-74.3029420">
        <ele>2658.7</ele>
        <time>2018-08-10T14:25:04Z</time>
      </trkpt>
      <trkpt lat="4.6486000" lon="-74.3029430">
        <ele>2658.3</ele>
        <time>2018-08-10T14:25:05Z</time>
      </trkpt>
      <trkpt lat="4.6486450" lon="-74.3029450">
        <ele>2657.9</ele>
        <time>2018-08-10T14:25:06Z</time>
      </trkpt>
      <trkpt lat="4.6486930" lon="-74.3029450">
        <ele>2657.5</ele>
        <time>2018-08-10T14:25:07Z</time>
      </trkpt>
      <trkpt lat="4.6487400" lon="-74.3029450">
        <ele>2657.2</ele>
        <time>2018-08-10T14:25:08Z</time>
      </trkpt>
      <trkpt lat="4.6487870" lon="-74.3029450">
        <ele>2657.0</ele>
        <time>2018-08-10T14:25:09Z</time>
      </trkpt>
      <trkpt lat="4.6488330" lon="-74.3029380">
        <ele>2657.0</ele>
        <time>2018-08-10T14:25:10Z</time>
      </trkpt>
      <trkpt lat="4.6488780" lon="-74.3029300">
        <ele>2657.0</ele>
        <time>2018-08-10T14:25:11Z</time>
      </trkpt>
      <trkpt lat="4.6489230" lon="-74.3029300">
        <ele>2657.3</ele>
        <time>2018-08-10T14:25:12Z</time>
      </trkpt>
      <trkpt lat="4.6489670" lon="-74.3029280">
        <ele>2657.5</ele>
        <time>2018-08-10T14:25:13Z</time>
      </trkpt>
      <trkpt lat="4.6490100" lon="-74.3029280">
        <ele>2657.9</ele>
        <time>2018-08-10T14:25:14Z</time>
      </trkpt>
      <trkpt lat="4.6490570" lon="-74.3029280">
        <ele>2658.3</ele>
        <time>2018-08-10T14:25:15Z</time>
      </trkpt>
      <trkpt lat="4.6491030" lon="-74.3029280">
        <ele>2658.8</ele>
        <time>2018-08-10T14:25:16Z</time>
      </trkpt>
      <trkpt lat="4.6491450" lon="-74.3029270">
        <ele>2659.3</ele>
        <time>2018-08-10T14:25:17Z</time>
      </trkpt>
      <trkpt lat="4.6491880" lon="-74.3029220">
        <ele>2659.8</ele>
        <time>2018-08-10T14:25:18Z</time>
      </trkpt>
      <trkpt lat="4.6492320" lon="-74.3029200">
        <ele>2660.1</ele>
        <time>2018-08-10T14:25:19Z</time>
      </trkpt>
      <trkpt lat="4.6492680" lon="-74.3029200">
        <ele>2660.3</ele>
        <time>2018-08-10T14:25:20Z</time>
      </trkpt>
      <trkpt lat="4.6493030" lon="-74.3029220">
        <ele>2660.3</ele>
        <time>2018-08-10T14:25:21Z</time>
      </trkpt>
      <trkpt lat="4.6493330" lon="-74.3029270">
        <ele>2660.1</ele>
        <time>2018-08-10T14:25:22Z</time>
      </trkpt>
      <trkpt lat="4.6493630" lon="-74.3029280">
        <ele>2659.9</ele>
        <time>2018-08-10T14:25:23Z</time>
      </trkpt>
      <trkpt lat="4.6493950" lon="-74.3029320">
        <ele>2659.7</ele>
        <time>2018-08-10T14:25:24Z</time>
      </trkpt>
      <trkpt lat="4.6494300" lon="-74.3029370">
        <ele>2659.3</ele>
        <time>2018-08-10T14:25:25Z</time>
      </trkpt>
      <trkpt lat="4.6494630" lon="-74.3029370">
        <ele>2658.9</ele>
        <time>2018-08-10T14:25:26Z</time>
      </trkpt>
      <trkpt lat="4.6494970" lon="-74.3029330">
        <ele>2658.6</ele>
        <time>2018-08-10T14:25:27Z</time>
      </trkpt>
      <trkpt lat="4.6495280" lon="-74.3029320">
        <ele>2658.3</ele>
        <time>2018-08-10T14:25:28Z</time>
      </trkpt>
      <trkpt lat="4.6495600" lon="-74.3029320">
        <ele>2658.0</ele>
        <time>2018-08-10T14:25:29Z</time>
      </trkpt>
      <trkpt lat="4.6495920" lon="-74.3029320">
        <ele>2657.6</ele>
        <time>2018-08-10T14:25:30Z</time>
      </trkpt>
      <trkpt lat="4.6496280" lon="-74.3029380">
        <ele>2657.2</ele>
        <time>2018-08-10T14:25:31Z</time>
      </trkpt>
      <trkpt lat="4.6496680" lon="-74.3029400">
        <ele>2656.8</ele>
        <time>2018-08-10T14:25:32Z</time>
      </trkpt>
      <trkpt lat="4.6497100" lon="-74.3029420">
        <ele>2656.2</ele>
        <time>2018-08-10T14:25:33Z</time>
      </trkpt>
      <trkpt lat="4.6497520" lon="-74.3029420">
        <ele>2655.7</ele>
        <time>2018-08-10T14:25:34Z</time>
      </trkpt>
      <trkpt lat="4.6497920" lon="-74.3029430">
        <ele>2655.2</ele>
        <time>2018-08-10T14:25:35Z</time>
      </trkpt>
      <trkpt lat="4.6498330" lon="-74.3029450">
        <ele>2654.7</ele>
        <time>2018-08-10T14:25:36Z</time>
      </trkpt>
      <trkpt lat="4.6498770" lon="-74.3029400">
        <ele>2654.1</ele>
        <time>2018-08-10T14:25:37Z</time>
      </trkpt>
      <trkpt lat="4.6499220" lon="-74.3029280">
        <ele>2653.7</ele>
        <time>2018-08-10T14:25:38Z</time>
      </trkpt>
      <trkpt lat="4.6499650" lon="-74.3029080">
        <ele>2653.3</ele>
        <time>2018-08-10T14:25:39Z</time>
      </trkpt>
      <trkpt lat="4.6500020" lon="-74.3028770">
        <ele>2653.0</ele>
        <time>2018-08-10T14:25:40Z</time>
      </trkpt>
      <trkpt lat="4.6500320" lon="-74.3028370">
        <ele>2652.6</ele>
        <time>2018-08-10T14:25:41Z</time>
      </trkpt>
      <trkpt lat="4.6500600" lon="-74.3027980">
        <ele>2652.2</ele>
        <time>2018-08-10T14:25:42Z</time>
      </trkpt>
      <trkpt lat="4.6500880" lon="-74.3027580">
        <ele>2651.8</ele>
        <time>2018-08-10T14:25:43Z</time>
      </trkpt>
      <trkpt lat="4.6501170" lon="-74.3027200">
        <ele>2651.5</ele>
        <time>2018-08-10T14:25:44Z</time>
      </trkpt>
      <trkpt lat="4.6501480" lon="-74.3026830">
        <ele>2651.6</ele>
        <time>2018-08-10T14:25:45Z</time>
      </trkpt>
      <trkpt lat="4.6501850" lon="-74.3026450">
        <ele>2651.9</ele>
        <time>2018-08-10T14:25:46Z</time>
      </trkpt>
      <trkpt lat="4.6502200" lon="-74.3026130">
        <ele>2652.3</ele>
        <time>2018-08-10T14:25:47Z</time>
      </trkpt>
      <trkpt lat="4.6502550" lon="-74.3025900">
        <ele>2652.3</ele>
        <time>2018-08-10T14:25:48Z</time>
      </trkpt>
      <trkpt lat="4.6502900" lon="-74.3025680">
        <ele>2652.3</ele>
        <time>2018-08-10T14:25:49Z</time>
      </trkpt>
      <trkpt lat="4.6503230" lon="-74.3025530">
        <ele>2651.8</ele>
        <time>2018-08-10T14:25:50Z</time>
      </trkpt>
      <trkpt lat="4.6503630" lon="-74.3025400">
        <ele>2651.4</ele>
        <time>2018-08-10T14:25:51Z</time>
      </trkpt>
      <trkpt lat="4.6504030" lon="-74.3025320">
        <ele>2651.1</ele>
        <time>2018-08-10T14:25:52Z</time>
      </trkpt>
      <trkpt lat="4.6504430" lon="-74.3025280">
        <ele>2650.7</ele>
        <time>2018-08-10T14:25:53Z</time>
      </trkpt>
      <trkpt lat="4.6504870" lon="-74.3025250">
        <ele>2650.3</ele>
        <time>2018-08-10T14:25:54Z</time>
      </trkpt>
      <trkpt lat="4.6505330" lon="-74.3025200">
        <ele>2650.1</ele>
        <time>2018-08-10T14:25:55Z</time>
      </trkpt>
      <trkpt lat="4.6505800" lon="-74.3025130">
        <ele>2650.0</ele>
        <time>2018-08-10T14:25:56Z</time>
      </trkpt>
      <trkpt lat="4.6506350" lon="-74.3025070">
        <ele>2649.8</ele>
        <time>2018-08-10T14:25:57Z</time>
      </trkpt>
      <trkpt lat="4.6506900" lon="-74.3024980">
        <ele>2649.5</ele>
        <time>2018-08-10T14:25:58Z</time>
      </trkpt>
      <trkpt lat="4.6507400" lon="-74.3024880">
        <ele>2649.4</ele>
        <time>2018-08-10T14:25:59Z</time>
      </trkpt>
      <trkpt lat="4.6507900" lon="-74.3024770">
        <ele>2649.4</ele>
        <time>2018-08-10T14:26:00Z</time>
      </trkpt>
      <trkpt lat="4.6508400" lon="-74.3024630">
        <ele>2649.5</ele>
        <time>2018-08-10T14:26:01Z</time>
      </trkpt>
      <trkpt lat="4.6508830" lon="-74.3024530">
        <ele>2649.6</ele>
        <time>2018-08-10T14:26:02Z</time>
      </trkpt>
      <trkpt lat="4.6509220" lon="-74.3024430">
        <ele>2649.6</ele>
        <time>2018-08-10T14:26:03Z</time>
      </trkpt>
      <trkpt lat="4.6509600" lon="-74.3024350">
        <ele>2649.3</ele>
        <time>2018-08-10T14:26:04Z</time>
      </trkpt>
      <trkpt lat="4.6509950" lon="-74.3024280">
        <ele>2649.0</ele>
        <time>2018-08-10T14:26:05Z</time>
      </trkpt>
      <trkpt lat="4.6510280" lon="-74.3024250">
        <ele>2648.6</ele>
        <time>2018-08-10T14:26:06Z</time>
      </trkpt>
      <trkpt lat="4.6510620" lon="-74.3024220">
        <ele>2648.3</ele>
        <time>2018-08-10T14:26:07Z</time>
      </trkpt>
      <trkpt lat="4.6510900" lon="-74.3024200">
        <ele>2647.9</ele>
        <time>2018-08-10T14:26:08Z</time>
      </trkpt>
      <trkpt lat="4.6511180" lon="-74.3024180">
        <ele>2647.3</ele>
        <time>2018-08-10T14:26:09Z</time>
      </trkpt>
      <trkpt lat="4.6511730" lon="-74.3024250">
        <ele>2646.1</ele>
        <time>2018-08-10T14:26:11Z</time>
      </trkpt>
      <trkpt lat="4.6512000" lon="-74.3024320">
        <ele>2645.3</ele>
        <time>2018-08-10T14:26:12Z</time>
      </trkpt>
      <trkpt lat="4.6512250" lon="-74.3024430">
        <ele>2644.6</ele>
        <time>2018-08-10T14:26:13Z</time>
      </trkpt>
      <trkpt lat="4.6512480" lon="-74.3024580">
        <ele>2644.3</ele>
        <time>2018-08-10T14:26:14Z</time>
      </trkpt>
      <trkpt lat="4.6512720" lon="-74.3024770">
        <ele>2644.2</ele>
        <time>2018-08-10T14:26:15Z</time>
      </trkpt>
      <trkpt lat="4.6512980" lon="-74.3025020">
        <ele>2644.0</ele>
        <time>2018-08-10T14:26:16Z</time>
      </trkpt>
      <trkpt lat="4.6513200" lon="-74.3025320">
        <ele>2643.5</ele>
        <time>2018-08-10T14:26:17Z</time>
      </trkpt>
      <trkpt lat="4.6513430" lon="-74.3025620">
        <ele>2643.0</ele>
        <time>2018-08-10T14:26:18Z</time>
      </trkpt>
      <trkpt lat="4.6513650" lon="-74.3025900">
        <ele>2642.6</ele>
        <time>2018-08-10T14:26:19Z</time>
      </trkpt>
      <trkpt lat="4.6513900" lon="-74.3026200">
        <ele>2642.3</ele>
        <time>2018-08-10T14:26:20Z</time>
      </trkpt>
      <trkpt lat="4.6514170" lon="-74.3026480">
        <ele>2641.5</ele>
        <time>2018-08-10T14:26:21Z</time>
      </trkpt>
      <trkpt lat="4.6514450" lon="-74.3026770">
        <ele>2640.4</ele>
        <time>2018-08-10T14:26:22Z</time>
      </trkpt>
      <trkpt lat="4.6514720" lon="-74.3027050">
        <ele>2640.0</ele>
        <time>2018-08-10T14:26:23Z</time>
      </trkpt>
      <trkpt lat="4.6514980" lon="-74.3027320">
        <ele>2640.1</ele>
        <time>2018-08-10T14:26:24Z</time>
      </trkpt>
      <trkpt lat="4.6515270" lon="-74.3027580">
        <ele>2640.1</ele>
        <time>2018-08-10T14:26:25Z</time>
      </trkpt>
      <trkpt lat="4.6515520" lon="-74.3027850">
        <ele>2639.8</ele>
        <time>2018-08-10T14:26:26Z</time>
      </trkpt>
      <trkpt lat="4.6515770" lon="-74.3028120">
        <ele>2639.4</ele>
        <time>2018-08-10T14:26:27Z</time>
      </trkpt>
      <trkpt lat="4.6516050" lon="-74.3028400">
        <ele>2638.0</ele>
        <time>2018-08-10T14:26:28Z</time>
      </trkpt>
      <trkpt lat="4.6516320" lon="-74.3028630">
        <ele>2636.8</ele>
        <time>2018-08-10T14:26:29Z</time>
      </trkpt>
      <trkpt lat="4.6516620" lon="-74.3028900">
        <ele>2635.6</ele>
        <time>2018-08-10T14:26:30Z</time>
      </trkpt>
      <trkpt lat="4.6516880" lon="-74.3029170">
        <ele>2634.6</ele>
        <time>2018-08-10T14:26:31Z</time>
      </trkpt>
      <trkpt lat="4.6517150" lon="-74.3029430">
        <ele>2633.6</ele>
        <time>2018-08-10T14:26:32Z</time>
      </trkpt>
      <trkpt lat="4.6517420" lon="-74.3029700">
        <ele>2632.6</ele>
        <time>2018-08-10T14:26:33Z</time>
      </trkpt>
      <trkpt lat="4.6517630" lon="-74.3029970">
        <ele>2631.9</ele>
        <time>2018-08-10T14:26:34Z</time>
      </trkpt>
      <trkpt lat="4.6517780" lon="-74.3030250">
        <ele>2631.3</ele>
        <time>2018-08-10T14:26:35Z</time>
      </trkpt>
      <trkpt lat="4.6517930" lon="-74.3030550">
        <ele>2630.7</ele>
        <time>2018-08-10T14:26:36Z</time>
      </trkpt>
      <trkpt lat="4.6518080" lon="-74.3030830">
        <ele>2630.5</ele>
        <time>2018-08-10T14:26:37Z</time>
      </trkpt>
      <trkpt lat="4.6518230" lon="-74.3031150">
        <ele>2630.2</ele>
        <time>2018-08-10T14:26:38Z</time>
      </trkpt>
      <trkpt lat="4.6518330" lon="-74.3031450">
        <ele>2630.4</ele>
        <time>2018-08-10T14:26:39Z</time>
      </trkpt>
      <trkpt lat="4.6518420" lon="-74.3031730">
        <ele>2630.7</ele>
        <time>2018-08-10T14:26:40Z</time>
      </trkpt>
      <trkpt lat="4.6518500" lon="-74.3032000">
        <ele>2631.1</ele>
        <time>2018-08-10T14:26:41Z</time>
      </trkpt>
      <trkpt lat="4.6518720" lon="-74.3032450">
        <ele>2632.0</ele>
        <time>2018-08-10T14:26:43Z</time>
      </trkpt>
      <trkpt lat="4.6519070" lon="-74.3032770">
        <ele>2632.3</ele>
        <time>2018-08-10T14:26:45Z</time>
      </trkpt>
      <trkpt lat="4.6519500" lon="-74.3032830">
        <ele>2631.1</ele>
        <time>2018-08-10T14:26:47Z</time>
      </trkpt>
      <trkpt lat="4.6520070" lon="-74.3032780">
        <ele>2630.4</ele>
        <time>2018-08-10T14:26:49Z</time>
      </trkpt>
      <trkpt lat="4.6520380" lon="-74.3032750">
        <ele>2629.9</ele>
        <time>2018-08-10T14:26:50Z</time>
      </trkpt>
      <trkpt lat="4.6520720" lon="-74.3032680">
        <ele>2629.2</ele>
        <time>2018-08-10T14:26:51Z</time>
      </trkpt>
      <trkpt lat="4.6521000" lon="-74.3032650">
        <ele>2628.9</ele>
        <time>2018-08-10T14:26:52Z</time>
      </trkpt>
      <trkpt lat="4.6521280" lon="-74.3032570">
        <ele>2628.8</ele>
        <time>2018-08-10T14:26:53Z</time>
      </trkpt>
      <trkpt lat="4.6521570" lon="-74.3032450">
        <ele>2628.6</ele>
        <time>2018-08-10T14:26:54Z</time>
      </trkpt>
      <trkpt lat="4.6521850" lon="-74.3032370">
        <ele>2628.3</ele>
        <time>2018-08-10T14:26:55Z</time>
      </trkpt>
      <trkpt lat="4.6522180" lon="-74.3032330">
        <ele>2627.9</ele>
        <time>2018-08-10T14:26:56Z</time>
      </trkpt>
      <trkpt lat="4.6522550" lon="-74.3032300">
        <ele>2628.3</ele>
        <time>2018-08-10T14:26:57Z</time>
      </trkpt>
      <trkpt lat="4.6522920" lon="-74.3032280">
        <ele>2628.7</ele>
        <time>2018-08-10T14:26:58Z</time>
      </trkpt>
      <trkpt lat="4.6523270" lon="-74.3032230">
        <ele>2628.9</ele>
        <time>2018-08-10T14:26:59Z</time>
      </trkpt>
      <trkpt lat="4.6523530" lon="-74.3032170">
        <ele>2629.1</ele>
        <time>2018-08-10T14:27:00Z</time>
      </trkpt>
      <trkpt lat="4.6523830" lon="-74.3032150">
        <ele>2629.3</ele>
        <time>2018-08-10T14:27:01Z</time>
      </trkpt>
      <trkpt lat="4.6524170" lon="-74.3032150">
        <ele>2629.5</ele>
        <time>2018-08-10T14:27:02Z</time>
      </trkpt>
      <trkpt lat="4.6524500" lon="-74.3032130">
        <ele>2629.6</ele>
        <time>2018-08-10T14:27:03Z</time>
      </trkpt>
      <trkpt lat="4.6524820" lon="-74.3032120">
        <ele>2629.6</ele>
        <time>2018-08-10T14:27:04Z</time>
      </trkpt>
      <trkpt lat="4.6525120" lon="-74.3032120">
        <ele>2629.6</ele>
        <time>2018-08-10T14:27:05Z</time>
      </trkpt>
      <trkpt lat="4.6525430" lon="-74.3032130">
        <ele>2629.6</ele>
        <time>2018-08-10T14:27:06Z</time>
      </trkpt>
      <trkpt lat="4.6525730" lon="-74.3032150">
        <ele>2629.6</ele>
        <time>2018-08-10T14:27:07Z</time>
      </trkpt>
      <trkpt lat="4.6526070" lon="-74.3032180">
        <ele>2629.4</ele>
        <time>2018-08-10T14:27:08Z</time>
      </trkpt>
      <trkpt lat="4.6526380" lon="-74.3032220">
        <ele>2629.1</ele>
        <time>2018-08-10T14:27:09Z</time>
      </trkpt>
      <trkpt lat="4.6526720" lon="-74.3032270">
        <ele>2628.7</ele>
        <time>2018-08-10T14:27:10Z</time>
      </trkpt>
      <trkpt lat="4.6527050" lon="-74.3032300">
        <ele>2628.1</ele>
        <time>2018-08-10T14:27:11Z</time>
      </trkpt>
      <trkpt lat="4.6527380" lon="-74.3032330">
        <ele>2627.8</ele>
        <time>2018-08-10T14:27:12Z</time>
      </trkpt>
      <trkpt lat="4.6527720" lon="-74.3032370">
        <ele>2628.0</ele>
        <time>2018-08-10T14:27:13Z</time>
      </trkpt>
      <trkpt lat="4.6528050" lon="-74.3032420">
        <ele>2628.2</ele>
        <time>2018-08-10T14:27:14Z</time>
      </trkpt>
      <trkpt lat="4.6528350" lon="-74.3032520">
        <ele>2627.5</ele>
        <time>2018-08-10T14:27:15Z</time>
      </trkpt>
      <trkpt lat="4.6528650" lon="-74.3032630">
        <ele>2626.8</ele>
        <time>2018-08-10T14:27:16Z</time>
      </trkpt>
      <trkpt lat="4.6528970" lon="-74.3032750">
        <ele>2626.7</ele>
        <time>2018-08-10T14:27:17Z</time>
      </trkpt>
      <trkpt lat="4.6529300" lon="-74.3032920">
        <ele>2627.1</ele>
        <time>2018-08-10T14:27:18Z</time>
      </trkpt>
      <trkpt lat="4.6529580" lon="-74.3033130">
        <ele>2627.1</ele>
        <time>2018-08-10T14:27:19Z</time>
      </trkpt>
      <trkpt lat="4.6529870" lon="-74.3033370">
        <ele>2627.1</ele>
        <time>2018-08-10T14:27:20Z</time>
      </trkpt>
      <trkpt lat="4.6530130" lon="-74.3033600">
        <ele>2627.4</ele>
        <time>2018-08-10T14:27:21Z</time>
      </trkpt>
      <trkpt lat="4.6530420" lon="-74.3033850">
        <ele>2627.7</ele>
        <time>2018-08-10T14:27:22Z</time>
      </trkpt>
      <trkpt lat="4.6530670" lon="-74.3034080">
        <ele>2627.9</ele>
        <time>2018-08-10T14:27:23Z</time>
      </trkpt>
      <trkpt lat="4.6530930" lon="-74.3034280">
        <ele>2628.1</ele>
        <time>2018-08-10T14:27:24Z</time>
      </trkpt>
      <trkpt lat="4.6531220" lon="-74.3034470">
        <ele>2626.5</ele>
        <time>2018-08-10T14:27:25Z</time>
      </trkpt>
      <trkpt lat="4.6531520" lon="-74.3034630">
        <ele>2624.9</ele>
        <time>2018-08-10T14:27:26Z</time>
      </trkpt>
      <trkpt lat="4.6531820" lon="-74.3034780">
        <ele>2624.8</ele>
        <time>2018-08-10T14:27:27Z</time>
      </trkpt>
      <trkpt lat="4.6532120" lon="-74.3034950">
        <ele>2624.8</ele>
        <time>2018-08-10T14:27:28Z</time>
      </trkpt>
      <trkpt lat="4.6532430" lon="-74.3035100">
        <ele>2624.3</ele>
        <time>2018-08-10T14:27:29Z</time>
      </trkpt>
      <trkpt lat="4.6532770" lon="-74.3035270">
        <ele>2623.5</ele>
        <time>2018-08-10T14:27:30Z</time>
      </trkpt>
      <trkpt lat="4.6533130" lon="-74.3035420">
        <ele>2623.6</ele>
        <time>2018-08-10T14:27:31Z</time>
      </trkpt>
      <trkpt lat="4.6533480" lon="-74.3035530">
        <ele>2623.8</ele>
        <time>2018-08-10T14:27:32Z</time>
      </trkpt>
      <trkpt lat="4.6533850" lon="-74.3035650">
        <ele>2622.4</ele>
        <time>2018-08-10T14:27:33Z</time>
      </trkpt>
      <trkpt lat="4.6534230" lon="-74.3035750">
        <ele>2621.0</ele>
        <time>2018-08-10T14:27:34Z</time>
      </trkpt>
      <trkpt lat="4.6534650" lon="-74.3035870">
        <ele>2620.8</ele>
        <time>2018-08-10T14:27:35Z</time>
      </trkpt>
      <trkpt lat="4.6535070" lon="-74.3036000">
        <ele>2620.5</ele>
        <time>2018-08-10T14:27:36Z</time>
      </trkpt>
      <trkpt lat="4.6535480" lon="-74.3036130">
        <ele>2620.1</ele>
        <time>2018-08-10T14:27:37Z</time>
      </trkpt>
      <trkpt lat="4.6535880" lon="-74.3036250">
        <ele>2619.8</ele>
        <time>2018-08-10T14:27:38Z</time>
      </trkpt>
      <trkpt lat="4.6536280" lon="-74.3036370">
        <ele>2619.9</ele>
        <time>2018-08-10T14:27:39Z</time>
      </trkpt>
      <trkpt lat="4.6536670" lon="-74.3036470">
        <ele>2619.9</ele>
        <time>2018-08-10T14:27:40Z</time>
      </trkpt>
      <trkpt lat="4.6537050" lon="-74.3036580">
        <ele>2619.7</ele>
        <time>2018-08-10T14:27:41Z</time>
      </trkpt>
      <trkpt lat="4.6537400" lon="-74.3036730">
        <ele>2619.6</ele>
        <time>2018-08-10T14:27:42Z</time>
      </trkpt>
      <trkpt lat="4.6537730" lon="-74.3036900">
        <ele>2619.2</ele>
        <time>2018-08-10T14:27:43Z</time>
      </trkpt>
      <trkpt lat="4.6538070" lon="-74.3037080">
        <ele>2618.9</ele>
        <time>2018-08-10T14:27:44Z</time>
      </trkpt>
      <trkpt lat="4.6538420" lon="-74.3037270">
        <ele>2618.6</ele>
        <time>2018-08-10T14:27:45Z</time>
      </trkpt>
      <trkpt lat="4.6538730" lon="-74.3037520">
        <ele>2618.4</ele>
        <time>2018-08-10T14:27:46Z</time>
      </trkpt>
      <trkpt lat="4.6539030" lon="-74.3037780">
        <ele>2618.2</ele>
        <time>2018-08-10T14:27:47Z</time>
      </trkpt>
      <trkpt lat="4.6539320" lon="-74.3038050">
        <ele>2617.8</ele>
        <time>2018-08-10T14:27:48Z</time>
      </trkpt>
      <trkpt lat="4.6539600" lon="-74.3038320">
        <ele>2617.4</ele>
        <time>2018-08-10T14:27:49Z</time>
      </trkpt>
      <trkpt lat="4.6539820" lon="-74.3038600">
        <ele>2617.0</ele>
        <time>2018-08-10T14:27:50Z</time>
      </trkpt>
      <trkpt lat="4.6540020" lon="-74.3038880">
        <ele>2616.5</ele>
        <time>2018-08-10T14:27:51Z</time>
      </trkpt>
      <trkpt lat="4.6540230" lon="-74.3039150">
        <ele>2615.5</ele>
        <time>2018-08-10T14:27:52Z</time>
      </trkpt>
      <trkpt lat="4.6540500" lon="-74.3039400">
        <ele>2614.4</ele>
        <time>2018-08-10T14:27:53Z</time>
      </trkpt>
      <trkpt lat="4.6540750" lon="-74.3039670">
        <ele>2613.7</ele>
        <time>2018-08-10T14:27:54Z</time>
      </trkpt>
      <trkpt lat="4.6540970" lon="-74.3039950">
        <ele>2613.2</ele>
        <time>2018-08-10T14:27:55Z</time>
      </trkpt>
      <trkpt lat="4.6541220" lon="-74.3040200">
        <ele>2612.6</ele>
        <time>2018-08-10T14:27:56Z</time>
      </trkpt>
      <trkpt lat="4.6541470" lon="-74.3040430">
        <ele>2612.1</ele>
        <time>2018-08-10T14:27:57Z</time>
      </trkpt>
      <trkpt lat="4.6541730" lon="-74.3040680">
        <ele>2611.3</ele>
        <time>2018-08-10T14:27:58Z</time>
      </trkpt>
      <trkpt lat="4.6542020" lon="-74.3040920">
        <ele>2609.9</ele>
        <time>2018-08-10T14:27:59Z</time>
      </trkpt>
      <trkpt lat="4.6542320" lon="-74.3041130">
        <ele>2609.0</ele>
        <time>2018-08-10T14:28:00Z</time>
      </trkpt>
      <trkpt lat="4.6542630" lon="-74.3041320">
        <ele>2608.3</ele>
        <time>2018-08-10T14:28:01Z</time>
      </trkpt>
      <trkpt lat="4.6542950" lon="-74.3041480">
        <ele>2607.7</ele>
        <time>2018-08-10T14:28:02Z</time>
      </trkpt>
      <trkpt lat="4.6543250" lon="-74.3041680">
        <ele>2607.1</ele>
        <time>2018-08-10T14:28:03Z</time>
      </trkpt>
      <trkpt lat="4.6543520" lon="-74.3041880">
        <ele>2606.5</ele>
        <time>2018-08-10T14:28:04Z</time>
      </trkpt>
      <trkpt lat="4.6543780" lon="-74.3042100">
        <ele>2605.8</ele>
        <time>2018-08-10T14:28:05Z</time>
      </trkpt>
      <trkpt lat="4.6544020" lon="-74.3042330">
        <ele>2605.3</ele>
        <time>2018-08-10T14:28:06Z</time>
      </trkpt>
      <trkpt lat="4.6544270" lon="-74.3042580">
        <ele>2604.7</ele>
        <time>2018-08-10T14:28:07Z</time>
      </trkpt>
      <trkpt lat="4.6544530" lon="-74.3042870">
        <ele>2604.4</ele>
        <time>2018-08-10T14:28:08Z</time>
      </trkpt>
      <trkpt lat="4.6544780" lon="-74.3043150">
        <ele>2604.3</ele>
        <time>2018-08-10T14:28:09Z</time>
      </trkpt>
      <trkpt lat="4.6545050" lon="-74.3043420">
        <ele>2604.2</ele>
        <time>2018-08-10T14:28:10Z</time>
      </trkpt>
      <trkpt lat="4.6545330" lon="-74.3043670">
        <ele>2604.2</ele>
        <time>2018-08-10T14:28:11Z</time>
      </trkpt>
      <trkpt lat="4.6545650" lon="-74.3043880">
        <ele>2603.7</ele>
        <time>2018-08-10T14:28:12Z</time>
      </trkpt>
      <trkpt lat="4.6545980" lon="-74.3044050">
        <ele>2603.3</ele>
        <time>2018-08-10T14:28:13Z</time>
      </trkpt>
      <trkpt lat="4.6546300" lon="-74.3044170">
        <ele>2603.3</ele>
        <time>2018-08-10T14:28:14Z</time>
      </trkpt>
      <trkpt lat="4.6546620" lon="-74.3044170">
        <ele>2602.9</ele>
        <time>2018-08-10T14:28:15Z</time>
      </trkpt>
      <trkpt lat="4.6546930" lon="-74.3044130">
        <ele>2602.3</ele>
        <time>2018-08-10T14:28:16Z</time>
      </trkpt>
      <trkpt lat="4.6547250" lon="-74.3044050">
        <ele>2601.6</ele>
        <time>2018-08-10T14:28:17Z</time>
      </trkpt>
      <trkpt lat="4.6547580" lon="-74.3043980">
        <ele>2601.0</ele>
        <time>2018-08-10T14:28:18Z</time>
      </trkpt>
      <trkpt lat="4.6547920" lon="-74.3043970">
        <ele>2600.3</ele>
        <time>2018-08-10T14:28:19Z</time>
      </trkpt>
      <trkpt lat="4.6548270" lon="-74.3043970">
        <ele>2599.7</ele>
        <time>2018-08-10T14:28:20Z</time>
      </trkpt>
      <trkpt lat="4.6548630" lon="-74.3043970">
        <ele>2599.0</ele>
        <time>2018-08-10T14:28:21Z</time>
      </trkpt>
      <trkpt lat="4.6548980" lon="-74.3043950">
        <ele>2598.7</ele>
        <time>2018-08-10T14:28:22Z</time>
      </trkpt>
      <trkpt lat="4.6549380" lon="-74.3043900">
        <ele>2598.3</ele>
        <time>2018-08-10T14:28:23Z</time>
      </trkpt>
      <trkpt lat="4.6549750" lon="-74.3043850">
        <ele>2597.5</ele>
        <time>2018-08-10T14:28:24Z</time>
      </trkpt>
      <trkpt lat="4.6550130" lon="-74.3043800">
        <ele>2596.8</ele>
        <time>2018-08-10T14:28:25Z</time>
      </trkpt>
      <trkpt lat="4.6550530" lon="-74.3043730">
        <ele>2596.3</ele>
        <time>2018-08-10T14:28:26Z</time>
      </trkpt>
      <trkpt lat="4.6550920" lon="-74.3043630">
        <ele>2595.3</ele>
        <time>2018-08-10T14:28:27Z</time>
      </trkpt>
      <trkpt lat="4.6551270" lon="-74.3043480">
        <ele>2594.5</ele>
        <time>2018-08-10T14:28:28Z</time>
      </trkpt>
      <trkpt lat="4.6551620" lon="-74.3043230">
        <ele>2593.7</ele>
        <time>2018-08-10T14:28:29Z</time>
      </trkpt>
      <trkpt lat="4.6551970" lon="-74.3043000">
        <ele>2593.0</ele>
        <time>2018-08-10T14:28:30Z</time>
      </trkpt>
      <trkpt lat="4.6552330" lon="-74.3042870">
        <ele>2592.4</ele>
        <time>2018-08-10T14:28:31Z</time>
      </trkpt>
      <trkpt lat="4.6552700" lon="-74.3042820">
        <ele>2592.1</ele>
        <time>2018-08-10T14:28:32Z</time>
      </trkpt>
      <trkpt lat="4.6553050" lon="-74.3042870">
        <ele>2591.9</ele>
        <time>2018-08-10T14:28:33Z</time>
      </trkpt>
      <trkpt lat="4.6553400" lon="-74.3042970">
        <ele>2591.7</ele>
        <time>2018-08-10T14:28:34Z</time>
      </trkpt>
      <trkpt lat="4.6553730" lon="-74.3043120">
        <ele>2591.6</ele>
        <time>2018-08-10T14:28:35Z</time>
      </trkpt>
      <trkpt lat="4.6554080" lon="-74.3043300">
        <ele>2591.4</ele>
        <time>2018-08-10T14:28:36Z</time>
      </trkpt>
      <trkpt lat="4.6554420" lon="-74.3043500">
        <ele>2591.2</ele>
        <time>2018-08-10T14:28:37Z</time>
      </trkpt>
      <trkpt lat="4.6554770" lon="-74.3043700">
        <ele>2591.0</ele>
        <time>2018-08-10T14:28:38Z</time>
      </trkpt>
      <trkpt lat="4.6555150" lon="-74.3043900">
        <ele>2590.9</ele>
        <time>2018-08-10T14:28:39Z</time>
      </trkpt>
      <trkpt lat="4.6555500" lon="-74.3044130">
        <ele>2590.8</ele>
        <time>2018-08-10T14:28:40Z</time>
      </trkpt>
      <trkpt lat="4.6555870" lon="-74.3044370">
        <ele>2590.5</ele>
        <time>2018-08-10T14:28:41Z</time>
      </trkpt>
      <trkpt lat="4.6556230" lon="-74.3044580">
        <ele>2590.3</ele>
        <time>2018-08-10T14:28:42Z</time>
      </trkpt>
      <trkpt lat="4.6556580" lon="-74.3044820">
        <ele>2590.0</ele>
        <time>2018-08-10T14:28:43Z</time>
      </trkpt>
      <trkpt lat="4.6556900" lon="-74.3045070">
        <ele>2589.8</ele>
        <time>2018-08-10T14:28:44Z</time>
      </trkpt>
      <trkpt lat="4.6557230" lon="-74.3045270">
        <ele>2589.3</ele>
        <time>2018-08-10T14:28:45Z</time>
      </trkpt>
      <trkpt lat="4.6557570" lon="-74.3045480">
        <ele>2588.8</ele>
        <time>2018-08-10T14:28:46Z</time>
      </trkpt>
      <trkpt lat="4.6557870" lon="-74.3045680">
        <ele>2588.4</ele>
        <time>2018-08-10T14:28:47Z</time>
      </trkpt>
      <trkpt lat="4.6558180" lon="-74.3045900">
        <ele>2587.9</ele>
        <time>2018-08-10T14:28:48Z</time>
      </trkpt>
      <trkpt lat="4.6558500" lon="-74.3046120">
        <ele>2587.6</ele>
        <time>2018-08-10T14:28:49Z</time>
      </trkpt>
      <trkpt lat="4.6558800" lon="-74.3046350">
        <ele>2587.4</ele>
        <time>2018-08-10T14:28:50Z</time>
      </trkpt>
      <trkpt lat="4.6559120" lon="-74.3046570">
        <ele>2587.3</ele>
        <time>2018-08-10T14:28:51Z</time>
      </trkpt>
      <trkpt lat="4.6559500" lon="-74.3046800">
        <ele>2586.8</ele>
        <time>2018-08-10T14:28:52Z</time>
      </trkpt>
      <trkpt lat="4.6559900" lon="-74.3047000">
        <ele>2586.4</ele>
        <time>2018-08-10T14:28:53Z</time>
      </trkpt>
      <trkpt lat="4.6560320" lon="-74.3047180">
        <ele>2586.3</ele>
        <time>2018-08-10T14:28:54Z</time>
      </trkpt>
      <trkpt lat="4.6560730" lon="-74.3047370">
        <ele>2586.3</ele>
        <time>2018-08-10T14:28:55Z</time>
      </trkpt>
      <trkpt lat="4.6561170" lon="-74.3047580">
        <ele>2585.6</ele>
        <time>2018-08-10T14:28:56Z</time>
      </trkpt>
      <trkpt lat="4.6561620" lon="-74.3047800">
        <ele>2585.0</ele>
        <time>2018-08-10T14:28:57Z</time>
      </trkpt>
      <trkpt lat="4.6562050" lon="-74.3048020">
        <ele>2584.5</ele>
        <time>2018-08-10T14:28:58Z</time>
      </trkpt>
      <trkpt lat="4.6562480" lon="-74.3048220">
        <ele>2584.1</ele>
        <time>2018-08-10T14:28:59Z</time>
      </trkpt>
      <trkpt lat="4.6562920" lon="-74.3048420">
        <ele>2584.0</ele>
        <time>2018-08-10T14:29:00Z</time>
      </trkpt>
      <trkpt lat="4.6563320" lon="-74.3048580">
        <ele>2584.0</ele>
        <time>2018-08-10T14:29:01Z</time>
      </trkpt>
      <trkpt lat="4.6563700" lon="-74.3048730">
        <ele>2584.1</ele>
        <time>2018-08-10T14:29:02Z</time>
      </trkpt>
      <trkpt lat="4.6564080" lon="-74.3048850">
        <ele>2584.2</ele>
        <time>2018-08-10T14:29:03Z</time>
      </trkpt>
      <trkpt lat="4.6564450" lon="-74.3048980">
        <ele>2584.3</ele>
        <time>2018-08-10T14:29:04Z</time>
      </trkpt>
      <trkpt lat="4.6564830" lon="-74.3049130">
        <ele>2584.4</ele>
        <time>2018-08-10T14:29:05Z</time>
      </trkpt>
      <trkpt lat="4.6565230" lon="-74.3049350">
        <ele>2584.2</ele>
        <time>2018-08-10T14:29:06Z</time>
      </trkpt>
      <trkpt lat="4.6565630" lon="-74.3049580">
        <ele>2584.0</ele>
        <time>2018-08-10T14:29:07Z</time>
      </trkpt>
      <trkpt lat="4.6566030" lon="-74.3049850">
        <ele>2583.6</ele>
        <time>2018-08-10T14:29:08Z</time>
      </trkpt>
      <trkpt lat="4.6566400" lon="-74.3050180">
        <ele>2583.2</ele>
        <time>2018-08-10T14:29:09Z</time>
      </trkpt>
      <trkpt lat="4.6566770" lon="-74.3050520">
        <ele>2582.7</ele>
        <time>2018-08-10T14:29:10Z</time>
      </trkpt>
      <trkpt lat="4.6567170" lon="-74.3050830">
        <ele>2582.2</ele>
        <time>2018-08-10T14:29:11Z</time>
      </trkpt>
      <trkpt lat="4.6567550" lon="-74.3051120">
        <ele>2581.7</ele>
        <time>2018-08-10T14:29:12Z</time>
      </trkpt>
      <trkpt lat="4.6567930" lon="-74.3051400">
        <ele>2581.1</ele>
        <time>2018-08-10T14:29:13Z</time>
      </trkpt>
      <trkpt lat="4.6568330" lon="-74.3051680">
        <ele>2580.9</ele>
        <time>2018-08-10T14:29:14Z</time>
      </trkpt>
      <trkpt lat="4.6568720" lon="-74.3051970">
        <ele>2580.6</ele>
        <time>2018-08-10T14:29:15Z</time>
      </trkpt>
      <trkpt lat="4.6569100" lon="-74.3052250">
        <ele>2580.3</ele>
        <time>2018-08-10T14:29:16Z</time>
      </trkpt>
      <trkpt lat="4.6569520" lon="-74.3052530">
        <ele>2580.1</ele>
        <time>2018-08-10T14:29:17Z</time>
      </trkpt>
      <trkpt lat="4.6569920" lon="-74.3052820">
        <ele>2580.1</ele>
        <time>2018-08-10T14:29:18Z</time>
      </trkpt>
      <trkpt lat="4.6570330" lon="-74.3053100">
        <ele>2580.1</ele>
        <time>2018-08-10T14:29:19Z</time>
      </trkpt>
      <trkpt lat="4.6570750" lon="-74.3053380">
        <ele>2580.2</ele>
        <time>2018-08-10T14:29:20Z</time>
      </trkpt>
      <trkpt lat="4.6571170" lon="-74.3053630">
        <ele>2580.1</ele>
        <time>2018-08-10T14:29:21Z</time>
      </trkpt>
      <trkpt lat="4.6571600" lon="-74.3053900">
        <ele>2579.8</ele>
        <time>2018-08-10T14:29:22Z</time>
      </trkpt>
      <trkpt lat="4.6572030" lon="-74.3054170">
        <ele>2579.5</ele>
        <time>2018-08-10T14:29:23Z</time>
      </trkpt>
      <trkpt lat="4.6572480" lon="-74.3054400">
        <ele>2579.0</ele>
        <time>2018-08-10T14:29:24Z</time>
      </trkpt>
      <trkpt lat="4.6572950" lon="-74.3054600">
        <ele>2578.2</ele>
        <time>2018-08-10T14:29:25Z</time>
      </trkpt>
      <trkpt lat="4.6573430" lon="-74.3054820">
        <ele>2577.4</ele>
        <time>2018-08-10T14:29:26Z</time>
      </trkpt>
      <trkpt lat="4.6573930" lon="-74.3055070">
        <ele>2576.6</ele>
        <time>2018-08-10T14:29:27Z</time>
      </trkpt>
      <trkpt lat="4.6574400" lon="-74.3055320">
        <ele>2576.0</ele>
        <time>2018-08-10T14:29:28Z</time>
      </trkpt>
      <trkpt lat="4.6574870" lon="-74.3055580">
        <ele>2575.3</ele>
        <time>2018-08-10T14:29:29Z</time>
      </trkpt>
      <trkpt lat="4.6575370" lon="-74.3055830">
        <ele>2574.9</ele>
        <time>2018-08-10T14:29:30Z</time>
      </trkpt>
      <trkpt lat="4.6575850" lon="-74.3056080">
        <ele>2574.9</ele>
        <time>2018-08-10T14:29:31Z</time>
      </trkpt>
      <trkpt lat="4.6576350" lon="-74.3056330">
        <ele>2575.1</ele>
        <time>2018-08-10T14:29:32Z</time>
      </trkpt>
      <trkpt lat="4.6576830" lon="-74.3056580">
        <ele>2575.2</ele>
        <time>2018-08-10T14:29:33Z</time>
      </trkpt>
      <trkpt lat="4.6577300" lon="-74.3056830">
        <ele>2575.4</ele>
        <time>2018-08-10T14:29:34Z</time>
      </trkpt>
      <trkpt lat="4.6577780" lon="-74.3057080">
        <ele>2575.6</ele>
        <time>2018-08-10T14:29:35Z</time>
      </trkpt>
      <trkpt lat="4.6578270" lon="-74.3057320">
        <ele>2575.9</ele>
        <time>2018-08-10T14:29:36Z</time>
      </trkpt>
      <trkpt lat="4.6578750" lon="-74.3057570">
        <ele>2576.2</ele>
        <time>2018-08-10T14:29:37Z</time>
      </trkpt>
      <trkpt lat="4.6579230" lon="-74.3057820">
        <ele>2576.4</ele>
        <time>2018-08-10T14:29:38Z</time>
      </trkpt>
      <trkpt lat="4.6579700" lon="-74.3058080">
        <ele>2576.6</ele>
        <time>2018-08-10T14:29:39Z</time>
      </trkpt>
      <trkpt lat="4.6580170" lon="-74.3058330">
        <ele>2576.5</ele>
        <time>2018-08-10T14:29:40Z</time>
      </trkpt>
      <trkpt lat="4.6580620" lon="-74.3058600">
        <ele>2576.6</ele>
        <time>2018-08-10T14:29:41Z</time>
      </trkpt>
      <trkpt lat="4.6581070" lon="-74.3058880">
        <ele>2576.8</ele>
        <time>2018-08-10T14:29:42Z</time>
      </trkpt>
      <trkpt lat="4.6581520" lon="-74.3059170">
        <ele>2577.0</ele>
        <time>2018-08-10T14:29:43Z</time>
      </trkpt>
      <trkpt lat="4.6581980" lon="-74.3059430">
        <ele>2577.1</ele>
        <time>2018-08-10T14:29:44Z</time>
      </trkpt>
      <trkpt lat="4.6582420" lon="-74.3059680">
        <ele>2577.2</ele>
        <time>2018-08-10T14:29:45Z</time>
      </trkpt>
      <trkpt lat="4.6582880" lon="-74.3059930">
        <ele>2577.2</ele>
        <time>2018-08-10T14:29:46Z</time>
      </trkpt>
      <trkpt lat="4.6583330" lon="-74.3060220">
        <ele>2577.4</ele>
        <time>2018-08-10T14:29:47Z</time>
      </trkpt>
      <trkpt lat="4.6583780" lon="-74.3060480">
        <ele>2577.4</ele>
        <time>2018-08-10T14:29:48Z</time>
      </trkpt>
      <trkpt lat="4.6584230" lon="-74.3060720">
        <ele>2577.4</ele>
        <time>2018-08-10T14:29:49Z</time>
      </trkpt>
      <trkpt lat="4.6584650" lon="-74.3060950">
        <ele>2577.3</ele>
        <time>2018-08-10T14:29:50Z</time>
      </trkpt>
      <trkpt lat="4.6585070" lon="-74.3061200">
        <ele>2577.3</ele>
        <time>2018-08-10T14:29:51Z</time>
      </trkpt>
      <trkpt lat="4.6585500" lon="-74.3061470">
        <ele>2577.2</ele>
        <time>2018-08-10T14:29:52Z</time>
      </trkpt>
      <trkpt lat="4.6585920" lon="-74.3061720">
        <ele>2577.1</ele>
        <time>2018-08-10T14:29:53Z</time>
      </trkpt>
      <trkpt lat="4.6586370" lon="-74.3061980">
        <ele>2577.0</ele>
        <time>2018-08-10T14:29:54Z</time>
      </trkpt>
      <trkpt lat="4.6586780" lon="-74.3062230">
        <ele>2576.7</ele>
        <time>2018-08-10T14:29:55Z</time>
      </trkpt>
      <trkpt lat="4.6587220" lon="-74.3062430">
        <ele>2576.4</ele>
        <time>2018-08-10T14:29:56Z</time>
      </trkpt>
      <trkpt lat="4.6587630" lon="-74.3062670">
        <ele>2576.0</ele>
        <time>2018-08-10T14:29:57Z</time>
      </trkpt>
      <trkpt lat="4.6588050" lon="-74.3062920">
        <ele>2575.7</ele>
        <time>2018-08-10T14:29:58Z</time>
      </trkpt>
      <trkpt lat="4.6588470" lon="-74.3063170">
        <ele>2575.6</ele>
        <time>2018-08-10T14:29:59Z</time>
      </trkpt>
      <trkpt lat="4.6588870" lon="-74.3063420">
        <ele>2575.7</ele>
        <time>2018-08-10T14:30:00Z</time>
      </trkpt>
      <trkpt lat="4.6589230" lon="-74.3063630">
        <ele>2575.9</ele>
        <time>2018-08-10T14:30:01Z</time>
      </trkpt>
      <trkpt lat="4.6589570" lon="-74.3063870">
        <ele>2576.1</ele>
        <time>2018-08-10T14:30:02Z</time>
      </trkpt>
      <trkpt lat="4.6589900" lon="-74.3064100">
        <ele>2576.4</ele>
        <time>2018-08-10T14:30:03Z</time>
      </trkpt>
      <trkpt lat="4.6590220" lon="-74.3064320">
        <ele>2576.7</ele>
        <time>2018-08-10T14:30:04Z</time>
      </trkpt>
      <trkpt lat="4.6590480" lon="-74.3064530">
        <ele>2577.0</ele>
        <time>2018-08-10T14:30:05Z</time>
      </trkpt>
      <trkpt lat="4.6590750" lon="-74.3064750">
        <ele>2577.4</ele>
        <time>2018-08-10T14:30:06Z</time>
      </trkpt>
      <trkpt lat="4.6591070" lon="-74.3064930">
        <ele>2577.8</ele>
        <time>2018-08-10T14:30:07Z</time>
      </trkpt>
      <trkpt lat="4.6591400" lon="-74.3065120">
        <ele>2578.2</ele>
        <time>2018-08-10T14:30:08Z</time>
      </trkpt>
      <trkpt lat="4.6591700" lon="-74.3065350">
        <ele>2578.6</ele>
        <time>2018-08-10T14:30:09Z</time>
      </trkpt>
      <trkpt lat="4.6592000" lon="-74.3065600">
        <ele>2578.9</ele>
        <time>2018-08-10T14:30:10Z</time>
      </trkpt>
      <trkpt lat="4.6592330" lon="-74.3065820">
        <ele>2579.2</ele>
        <time>2018-08-10T14:30:11Z</time>
      </trkpt>
      <trkpt lat="4.6592680" lon="-74.3065970">
        <ele>2579.5</ele>
        <time>2018-08-10T14:30:12Z</time>
      </trkpt>
      <trkpt lat="4.6593050" lon="-74.3066100">
        <ele>2579.9</ele>
        <time>2018-08-10T14:30:13Z</time>
      </trkpt>
      <trkpt lat="4.6593450" lon="-74.3066180">
        <ele>2580.1</ele>
        <time>2018-08-10T14:30:14Z</time>
      </trkpt>
      <trkpt lat="4.6593850" lon="-74.3066280">
        <ele>2580.2</ele>
        <time>2018-08-10T14:30:15Z</time>
      </trkpt>
      <trkpt lat="4.6594250" lon="-74.3066370">
        <ele>2580.3</ele>
        <time>2018-08-10T14:30:16Z</time>
      </trkpt>
      <trkpt lat="4.6594650" lon="-74.3066480">
        <ele>2580.3</ele>
        <time>2018-08-10T14:30:17Z</time>
      </trkpt>
      <trkpt lat="4.6595030" lon="-74.3066600">
        <ele>2580.2</ele>
        <time>2018-08-10T14:30:18Z</time>
      </trkpt>
      <trkpt lat="4.6595420" lon="-74.3066700">
        <ele>2580.1</ele>
        <time>2018-08-10T14:30:19Z</time>
      </trkpt>
      <trkpt lat="4.6595820" lon="-74.3066820">
        <ele>2579.8</ele>
        <time>2018-08-10T14:30:20Z</time>
      </trkpt>
      <trkpt lat="4.6596220" lon="-74.3066930">
        <ele>2579.5</ele>
        <time>2018-08-10T14:30:21Z</time>
      </trkpt>
      <trkpt lat="4.6596600" lon="-74.3067030">
        <ele>2579.2</ele>
        <time>2018-08-10T14:30:22Z</time>
      </trkpt>
      <trkpt lat="4.6596980" lon="-74.3067130">
        <ele>2579.0</ele>
        <time>2018-08-10T14:30:23Z</time>
      </trkpt>
      <trkpt lat="4.6597330" lon="-74.3067200">
        <ele>2578.9</ele>
        <time>2018-08-10T14:30:24Z</time>
      </trkpt>
      <trkpt lat="4.6597670" lon="-74.3067300">
        <ele>2578.4</ele>
        <time>2018-08-10T14:30:25Z</time>
      </trkpt>
      <trkpt lat="4.6598000" lon="-74.3067400">
        <ele>2577.9</ele>
        <time>2018-08-10T14:30:26Z</time>
      </trkpt>
      <trkpt lat="4.6598330" lon="-74.3067500">
        <ele>2577.4</ele>
        <time>2018-08-10T14:30:27Z</time>
      </trkpt>
      <trkpt lat="4.6598670" lon="-74.3067620">
        <ele>2577.0</ele>
        <time>2018-08-10T14:30:28Z</time>
      </trkpt>
      <trkpt lat="4.6599000" lon="-74.3067680">
        <ele>2576.5</ele>
        <time>2018-08-10T14:30:29Z</time>
      </trkpt>
      <trkpt lat="4.6599380" lon="-74.3067750">
        <ele>2575.9</ele>
        <time>2018-08-10T14:30:30Z</time>
      </trkpt>
      <trkpt lat="4.6599730" lon="-74.3067850">
        <ele>2575.3</ele>
        <time>2018-08-10T14:30:31Z</time>
      </trkpt>
      <trkpt lat="4.6600080" lon="-74.3067970">
        <ele>2575.0</ele>
        <time>2018-08-10T14:30:32Z</time>
      </trkpt>
      <trkpt lat="4.6600450" lon="-74.3068100">
        <ele>2574.8</ele>
        <time>2018-08-10T14:30:33Z</time>
      </trkpt>
      <trkpt lat="4.6600780" lon="-74.3068230">
        <ele>2574.7</ele>
        <time>2018-08-10T14:30:34Z</time>
      </trkpt>
      <trkpt lat="4.6601150" lon="-74.3068330">
        <ele>2574.9</ele>
        <time>2018-08-10T14:30:35Z</time>
      </trkpt>
      <trkpt lat="4.6601480" lon="-74.3068480">
        <ele>2575.1</ele>
        <time>2018-08-10T14:30:36Z</time>
      </trkpt>
      <trkpt lat="4.6601800" lon="-74.3068670">
        <ele>2575.3</ele>
        <time>2018-08-10T14:30:37Z</time>
      </trkpt>
      <trkpt lat="4.6602120" lon="-74.3068880">
        <ele>2575.6</ele>
        <time>2018-08-10T14:30:38Z</time>
      </trkpt>
      <trkpt lat="4.6602400" lon="-74.3069120">
        <ele>2576.0</ele>
        <time>2018-08-10T14:30:39Z</time>
      </trkpt>
      <trkpt lat="4.6602680" lon="-74.3069380">
        <ele>2576.5</ele>
        <time>2018-08-10T14:30:40Z</time>
      </trkpt>
      <trkpt lat="4.6602970" lon="-74.3069670">
        <ele>2576.8</ele>
        <time>2018-08-10T14:30:41Z</time>
      </trkpt>
      <trkpt lat="4.6603220" lon="-74.3069980">
        <ele>2577.0</ele>
        <time>2018-08-10T14:30:42Z</time>
      </trkpt>
      <trkpt lat="4.6603450" lon="-74.3070320">
        <ele>2577.4</ele>
        <time>2018-08-10T14:30:43Z</time>
      </trkpt>
      <trkpt lat="4.6603680" lon="-74.3070630">
        <ele>2577.7</ele>
        <time>2018-08-10T14:30:44Z</time>
      </trkpt>
      <trkpt lat="4.6603930" lon="-74.3070950">
        <ele>2578.4</ele>
        <time>2018-08-10T14:30:45Z</time>
      </trkpt>
      <trkpt lat="4.6604170" lon="-74.3071250">
        <ele>2579.0</ele>
        <time>2018-08-10T14:30:46Z</time>
      </trkpt>
      <trkpt lat="4.6604400" lon="-74.3071480">
        <ele>2579.4</ele>
        <time>2018-08-10T14:30:47Z</time>
      </trkpt>
      <trkpt lat="4.6604730" lon="-74.3071650">
        <ele>2579.7</ele>
        <time>2018-08-10T14:30:49Z</time>
      </trkpt>
      <trkpt lat="4.6604930" lon="-74.3071920">
        <ele>2580.0</ele>
        <time>2018-08-10T14:31:19Z</time>
      </trkpt>
      <trkpt lat="4.6605050" lon="-74.3072170">
        <ele>2580.1</ele>
        <time>2018-08-10T14:31:21Z</time>
      </trkpt>
      <trkpt lat="4.6605100" lon="-74.3072500">
        <ele>2580.2</ele>
        <time>2018-08-10T14:31:23Z</time>
      </trkpt>
      <trkpt lat="4.6605300" lon="-74.3072930">
        <ele>2580.3</ele>
        <time>2018-08-10T14:31:25Z</time>
      </trkpt>
      <trkpt lat="4.6605430" lon="-74.3073180">
        <ele>2580.4</ele>
        <time>2018-08-10T14:31:26Z</time>
      </trkpt>
      <trkpt lat="4.6605600" lon="-74.3073400">
        <ele>2580.5</ele>
        <time>2018-08-10T14:31:27Z</time>
      </trkpt>
      <trkpt lat="4.6605780" lon="-74.3073630">
        <ele>2580.5</ele>
        <time>2018-08-10T14:31:28Z</time>
      </trkpt>
      <trkpt lat="4.6605970" lon="-74.3073870">
        <ele>2580.6</ele>
        <time>2018-08-10T14:31:29Z</time>
      </trkpt>
      <trkpt lat="4.6606130" lon="-74.3074100">
        <ele>2580.6</ele>
        <time>2018-08-10T14:31:30Z</time>
      </trkpt>
      <trkpt lat="4.6606300" lon="-74.3074330">
        <ele>2580.7</ele>
        <time>2018-08-10T14:31:31Z</time>
      </trkpt>
      <trkpt lat="4.6606500" lon="-74.3074570">
        <ele>2580.9</ele>
        <time>2018-08-10T14:31:32Z</time>
      </trkpt>
      <trkpt lat="4.6606680" lon="-74.3074820">
        <ele>2581.1</ele>
        <time>2018-08-10T14:31:33Z</time>
      </trkpt>
      <trkpt lat="4.6606870" lon="-74.3075080">
        <ele>2581.3</ele>
        <time>2018-08-10T14:31:34Z</time>
      </trkpt>
      <trkpt lat="4.6607070" lon="-74.3075330">
        <ele>2581.5</ele>
        <time>2018-08-10T14:31:35Z</time>
      </trkpt>
      <trkpt lat="4.6607270" lon="-74.3075580">
        <ele>2581.8</ele>
        <time>2018-08-10T14:31:36Z</time>
      </trkpt>
      <trkpt lat="4.6607470" lon="-74.3075800">
        <ele>2582.1</ele>
        <time>2018-08-10T14:31:37Z</time>
      </trkpt>
      <trkpt lat="4.6607650" lon="-74.3076030">
        <ele>2582.4</ele>
        <time>2018-08-10T14:31:38Z</time>
      </trkpt>
      <trkpt lat="4.6607820" lon="-74.3076270">
        <ele>2582.7</ele>
        <time>2018-08-10T14:31:39Z</time>
      </trkpt>
      <trkpt lat="4.6607970" lon="-74.3076530">
        <ele>2582.9</ele>
        <time>2018-08-10T14:31:40Z</time>
      </trkpt>
      <trkpt lat="4.6608170" lon="-74.3076800">
        <ele>2583.1</ele>
        <time>2018-08-10T14:31:41Z</time>
      </trkpt>
      <trkpt lat="4.6608420" lon="-74.3077020">
        <ele>2583.4</ele>
        <time>2018-08-10T14:31:42Z</time>
      </trkpt>
      <trkpt lat="4.6608670" lon="-74.3077200">
        <ele>2583.8</ele>
        <time>2018-08-10T14:31:43Z</time>
      </trkpt>
      <trkpt lat="4.6608900" lon="-74.3077400">
        <ele>2584.2</ele>
        <time>2018-08-10T14:31:44Z</time>
      </trkpt>
      <trkpt lat="4.6609130" lon="-74.3077620">
        <ele>2584.7</ele>
        <time>2018-08-10T14:31:45Z</time>
      </trkpt>
      <trkpt lat="4.6609320" lon="-74.3077880">
        <ele>2585.3</ele>
        <time>2018-08-10T14:31:46Z</time>
      </trkpt>
      <trkpt lat="4.6609520" lon="-74.3078150">
        <ele>2585.9</ele>
        <time>2018-08-10T14:31:47Z</time>
      </trkpt>
      <trkpt lat="4.6609680" lon="-74.3078400">
        <ele>2586.6</ele>
        <time>2018-08-10T14:31:48Z</time>
      </trkpt>
      <trkpt lat="4.6609850" lon="-74.3078650">
        <ele>2587.4</ele>
        <time>2018-08-10T14:31:49Z</time>
      </trkpt>
      <trkpt lat="4.6610020" lon="-74.3078880">
        <ele>2588.1</ele>
        <time>2018-08-10T14:31:50Z</time>
      </trkpt>
      <trkpt lat="4.6610200" lon="-74.3079120">
        <ele>2588.6</ele>
        <time>2018-08-10T14:31:51Z</time>
      </trkpt>
      <trkpt lat="4.6610420" lon="-74.3079350">
        <ele>2588.9</ele>
        <time>2018-08-10T14:31:52Z</time>
      </trkpt>
      <trkpt lat="4.6610620" lon="-74.3079580">
        <ele>2589.2</ele>
        <time>2018-08-10T14:31:53Z</time>
      </trkpt>
      <trkpt lat="4.6610820" lon="-74.3079830">
        <ele>2589.4</ele>
        <time>2018-08-10T14:31:54Z</time>
      </trkpt>
      <trkpt lat="4.6611020" lon="-74.3080100">
        <ele>2589.4</ele>
        <time>2018-08-10T14:31:55Z</time>
      </trkpt>
      <trkpt lat="4.6611200" lon="-74.3080370">
        <ele>2589.5</ele>
        <time>2018-08-10T14:31:56Z</time>
      </trkpt>
      <trkpt lat="4.6611380" lon="-74.3080670">
        <ele>2589.5</ele>
        <time>2018-08-10T14:31:57Z</time>
      </trkpt>
      <trkpt lat="4.6611550" lon="-74.3080970">
        <ele>2589.5</ele>
        <time>2018-08-10T14:31:58Z</time>
      </trkpt>
      <trkpt lat="4.6611750" lon="-74.3081270">
        <ele>2589.4</ele>
        <time>2018-08-10T14:31:59Z</time>
      </trkpt>
      <trkpt lat="4.6611970" lon="-74.3081570">
        <ele>2589.3</ele>
        <time>2018-08-10T14:32:00Z</time>
      </trkpt>
      <trkpt lat="4.6612180" lon="-74.3081880">
        <ele>2589.1</ele>
        <time>2018-08-10T14:32:01Z</time>
      </trkpt>
      <trkpt lat="4.6612380" lon="-74.3082180">
        <ele>2589.2</ele>
        <time>2018-08-10T14:32:02Z</time>
      </trkpt>
      <trkpt lat="4.6612580" lon="-74.3082470">
        <ele>2589.3</ele>
        <time>2018-08-10T14:32:03Z</time>
      </trkpt>
      <trkpt lat="4.6612800" lon="-74.3082770">
        <ele>2589.3</ele>
        <time>2018-08-10T14:32:04Z</time>
      </trkpt>
      <trkpt lat="4.6613020" lon="-74.3083070">
        <ele>2589.2</ele>
        <time>2018-08-10T14:32:05Z</time>
      </trkpt>
      <trkpt lat="4.6613270" lon="-74.3083330">
        <ele>2589.2</ele>
        <time>2018-08-10T14:32:06Z</time>
      </trkpt>
      <trkpt lat="4.6613530" lon="-74.3083620">
        <ele>2589.7</ele>
        <time>2018-08-10T14:32:07Z</time>
      </trkpt>
      <trkpt lat="4.6613750" lon="-74.3083930">
        <ele>2590.2</ele>
        <time>2018-08-10T14:32:08Z</time>
      </trkpt>
      <trkpt lat="4.6613970" lon="-74.3084250">
        <ele>2590.5</ele>
        <time>2018-08-10T14:32:09Z</time>
      </trkpt>
      <trkpt lat="4.6614200" lon="-74.3084580">
        <ele>2590.9</ele>
        <time>2018-08-10T14:32:10Z</time>
      </trkpt>
      <trkpt lat="4.6614430" lon="-74.3084900">
        <ele>2591.2</ele>
        <time>2018-08-10T14:32:11Z</time>
      </trkpt>
      <trkpt lat="4.6614670" lon="-74.3085250">
        <ele>2591.5</ele>
        <time>2018-08-10T14:32:12Z</time>
      </trkpt>
      <trkpt lat="4.6614880" lon="-74.3085600">
        <ele>2591.5</ele>
        <time>2018-08-10T14:32:13Z</time>
      </trkpt>
      <trkpt lat="4.6615120" lon="-74.3085930">
        <ele>2591.4</ele>
        <time>2018-08-10T14:32:14Z</time>
      </trkpt>
      <trkpt lat="4.6615320" lon="-74.3086230">
        <ele>2591.5</ele>
        <time>2018-08-10T14:32:15Z</time>
      </trkpt>
      <trkpt lat="4.6615550" lon="-74.3086530">
        <ele>2592.1</ele>
        <time>2018-08-10T14:32:16Z</time>
      </trkpt>
      <trkpt lat="4.6615780" lon="-74.3086830">
        <ele>2592.6</ele>
        <time>2018-08-10T14:32:17Z</time>
      </trkpt>
      <trkpt lat="4.6616050" lon="-74.3087100">
        <ele>2592.5</ele>
        <time>2018-08-10T14:32:18Z</time>
      </trkpt>
      <trkpt lat="4.6616320" lon="-74.3087350">
        <ele>2592.2</ele>
        <time>2018-08-10T14:32:19Z</time>
      </trkpt>
      <trkpt lat="4.6616580" lon="-74.3087620">
        <ele>2592.0</ele>
        <time>2018-08-10T14:32:20Z</time>
      </trkpt>
      <trkpt lat="4.6616820" lon="-74.3087920">
        <ele>2591.7</ele>
        <time>2018-08-10T14:32:21Z</time>
      </trkpt>
      <trkpt lat="4.6617050" lon="-74.3088200">
        <ele>2591.5</ele>
        <time>2018-08-10T14:32:22Z</time>
      </trkpt>
      <trkpt lat="4.6617230" lon="-74.3088480">
        <ele>2591.7</ele>
        <time>2018-08-10T14:32:23Z</time>
      </trkpt>
      <trkpt lat="4.6617470" lon="-74.3088770">
        <ele>2591.9</ele>
        <time>2018-08-10T14:32:24Z</time>
      </trkpt>
      <trkpt lat="4.6617700" lon="-74.3089020">
        <ele>2592.1</ele>
        <time>2018-08-10T14:32:25Z</time>
      </trkpt>
      <trkpt lat="4.6617930" lon="-74.3089320">
        <ele>2592.4</ele>
        <time>2018-08-10T14:32:26Z</time>
      </trkpt>
      <trkpt lat="4.6618170" lon="-74.3089650">
        <ele>2592.7</ele>
        <time>2018-08-10T14:32:27Z</time>
      </trkpt>
      <trkpt lat="4.6618370" lon="-74.3090000">
        <ele>2592.8</ele>
        <time>2018-08-10T14:32:28Z</time>
      </trkpt>
      <trkpt lat="4.6618580" lon="-74.3090300">
        <ele>2592.9</ele>
        <time>2018-08-10T14:32:29Z</time>
      </trkpt>
      <trkpt lat="4.6618780" lon="-74.3090630">
        <ele>2592.6</ele>
        <time>2018-08-10T14:32:30Z</time>
      </trkpt>
      <trkpt lat="4.6618970" lon="-74.3090980">
        <ele>2592.3</ele>
        <time>2018-08-10T14:32:31Z</time>
      </trkpt>
      <trkpt lat="4.6619170" lon="-74.3091350">
        <ele>2592.0</ele>
        <time>2018-08-10T14:32:32Z</time>
      </trkpt>
      <trkpt lat="4.6619350" lon="-74.3091720">
        <ele>2591.7</ele>
        <time>2018-08-10T14:32:33Z</time>
      </trkpt>
      <trkpt lat="4.6619570" lon="-74.3092080">
        <ele>2591.3</ele>
        <time>2018-08-10T14:32:34Z</time>
      </trkpt>
      <trkpt lat="4.6619770" lon="-74.3092450">
        <ele>2590.8</ele>
        <time>2018-08-10T14:32:35Z</time>
      </trkpt>
      <trkpt lat="4.6619970" lon="-74.3092820">
        <ele>2590.6</ele>
        <time>2018-08-10T14:32:36Z</time>
      </trkpt>
      <trkpt lat="4.6620180" lon="-74.3093180">
        <ele>2590.6</ele>
        <time>2018-08-10T14:32:37Z</time>
      </trkpt>
      <trkpt lat="4.6620400" lon="-74.3093550">
        <ele>2590.6</ele>
        <time>2018-08-10T14:32:38Z</time>
      </trkpt>
      <trkpt lat="4.6620630" lon="-74.3093880">
        <ele>2590.5</ele>
        <time>2018-08-10T14:32:39Z</time>
      </trkpt>
      <trkpt lat="4.6620870" lon="-74.3094180">
        <ele>2590.6</ele>
        <time>2018-08-10T14:32:40Z</time>
      </trkpt>
      <trkpt lat="4.6621050" lon="-74.3094470">
        <ele>2591.0</ele>
        <time>2018-08-10T14:32:41Z</time>
      </trkpt>
      <trkpt lat="4.6621230" lon="-74.3094770">
        <ele>2591.4</ele>
        <time>2018-08-10T14:32:42Z</time>
      </trkpt>
      <trkpt lat="4.6621380" lon="-74.3095080">
        <ele>2591.6</ele>
        <time>2018-08-10T14:32:43Z</time>
      </trkpt>
      <trkpt lat="4.6621550" lon="-74.3095400">
        <ele>2591.9</ele>
        <time>2018-08-10T14:32:44Z</time>
      </trkpt>
      <trkpt lat="4.6621720" lon="-74.3095750">
        <ele>2592.2</ele>
        <time>2018-08-10T14:32:45Z</time>
      </trkpt>
      <trkpt lat="4.6621900" lon="-74.3096070">
        <ele>2592.4</ele>
        <time>2018-08-10T14:32:46Z</time>
      </trkpt>
      <trkpt lat="4.6622100" lon="-74.3096380">
        <ele>2592.6</ele>
        <time>2018-08-10T14:32:47Z</time>
      </trkpt>
      <trkpt lat="4.6622270" lon="-74.3096730">
        <ele>2592.8</ele>
        <time>2018-08-10T14:32:48Z</time>
      </trkpt>
      <trkpt lat="4.6622480" lon="-74.3097030">
        <ele>2593.0</ele>
        <time>2018-08-10T14:32:49Z</time>
      </trkpt>
      <trkpt lat="4.6622680" lon="-74.3097370">
        <ele>2593.1</ele>
        <time>2018-08-10T14:32:50Z</time>
      </trkpt>
      <trkpt lat="4.6622870" lon="-74.3097700">
        <ele>2593.1</ele>
        <time>2018-08-10T14:32:51Z</time>
      </trkpt>
      <trkpt lat="4.6623020" lon="-74.3098120">
        <ele>2593.0</ele>
        <time>2018-08-10T14:32:52Z</time>
      </trkpt>
      <trkpt lat="4.6623180" lon="-74.3098480">
        <ele>2592.8</ele>
        <time>2018-08-10T14:32:53Z</time>
      </trkpt>
      <trkpt lat="4.6623380" lon="-74.3098830">
        <ele>2592.6</ele>
        <time>2018-08-10T14:32:54Z</time>
      </trkpt>
      <trkpt lat="4.6623580" lon="-74.3099150">
        <ele>2592.5</ele>
        <time>2018-08-10T14:32:55Z</time>
      </trkpt>
      <trkpt lat="4.6623770" lon="-74.3099500">
        <ele>2592.4</ele>
        <time>2018-08-10T14:32:56Z</time>
      </trkpt>
      <trkpt lat="4.6623970" lon="-74.3099850">
        <ele>2592.2</ele>
        <time>2018-08-10T14:32:57Z</time>
      </trkpt>
      <trkpt lat="4.6624220" lon="-74.3100120">
        <ele>2592.0</ele>
        <time>2018-08-10T14:32:58Z</time>
      </trkpt>
      <trkpt lat="4.6624420" lon="-74.3100400">
        <ele>2591.9</ele>
        <time>2018-08-10T14:32:59Z</time>
      </trkpt>
      <trkpt lat="4.6624600" lon="-74.3100750">
        <ele>2591.8</ele>
        <time>2018-08-10T14:33:00Z</time>
      </trkpt>
      <trkpt lat="4.6624780" lon="-74.3101070">
        <ele>2591.8</ele>
        <time>2018-08-10T14:33:01Z</time>
      </trkpt>
      <trkpt lat="4.6625000" lon="-74.3101370">
        <ele>2591.8</ele>
        <time>2018-08-10T14:33:02Z</time>
      </trkpt>
      <trkpt lat="4.6625170" lon="-74.3101670">
        <ele>2591.9</ele>
        <time>2018-08-10T14:33:03Z</time>
      </trkpt>
      <trkpt lat="4.6625380" lon="-74.3101980">
        <ele>2591.9</ele>
        <time>2018-08-10T14:33:04Z</time>
      </trkpt>
      <trkpt lat="4.6625620" lon="-74.3102280">
        <ele>2592.0</ele>
        <time>2018-08-10T14:33:05Z</time>
      </trkpt>
      <trkpt lat="4.6625870" lon="-74.3102600">
        <ele>2592.0</ele>
        <time>2018-08-10T14:33:06Z</time>
      </trkpt>
      <trkpt lat="4.6626120" lon="-74.3102920">
        <ele>2592.0</ele>
        <time>2018-08-10T14:33:07Z</time>
      </trkpt>
      <trkpt lat="4.6626330" lon="-74.3103230">
        <ele>2591.9</ele>
        <time>2018-08-10T14:33:08Z</time>
      </trkpt>
      <trkpt lat="4.6626520" lon="-74.3103570">
        <ele>2591.8</ele>
        <time>2018-08-10T14:33:09Z</time>
      </trkpt>
      <trkpt lat="4.6626750" lon="-74.3103880">
        <ele>2591.6</ele>
        <time>2018-08-10T14:33:10Z</time>
      </trkpt>
      <trkpt lat="4.6626950" lon="-74.3104200">
        <ele>2591.5</ele>
        <time>2018-08-10T14:33:11Z</time>
      </trkpt>
      <trkpt lat="4.6627130" lon="-74.3104530">
        <ele>2591.5</ele>
        <time>2018-08-10T14:33:12Z</time>
      </trkpt>
      <trkpt lat="4.6627320" lon="-74.3104880">
        <ele>2591.7</ele>
        <time>2018-08-10T14:33:13Z</time>
      </trkpt>
      <trkpt lat="4.6627520" lon="-74.3105200">
        <ele>2591.9</ele>
        <time>2018-08-10T14:33:14Z</time>
      </trkpt>
      <trkpt lat="4.6627680" lon="-74.3105520">
        <ele>2592.2</ele>
        <time>2018-08-10T14:33:15Z</time>
      </trkpt>
      <trkpt lat="4.6627870" lon="-74.3105830">
        <ele>2592.6</ele>
        <time>2018-08-10T14:33:16Z</time>
      </trkpt>
      <trkpt lat="4.6628030" lon="-74.3106150">
        <ele>2592.8</ele>
        <time>2018-08-10T14:33:17Z</time>
      </trkpt>
      <trkpt lat="4.6628200" lon="-74.3106480">
        <ele>2592.9</ele>
        <time>2018-08-10T14:33:18Z</time>
      </trkpt>
      <trkpt lat="4.6628380" lon="-74.3106780">
        <ele>2593.0</ele>
        <time>2018-08-10T14:33:19Z</time>
      </trkpt>
      <trkpt lat="4.6628580" lon="-74.3107100">
        <ele>2593.1</ele>
        <time>2018-08-10T14:33:20Z</time>
      </trkpt>
      <trkpt lat="4.6628780" lon="-74.3107420">
        <ele>2593.2</ele>
        <time>2018-08-10T14:33:21Z</time>
      </trkpt>
      <trkpt lat="4.6628950" lon="-74.3107780">
        <ele>2593.3</ele>
        <time>2018-08-10T14:33:22Z</time>
      </trkpt>
      <trkpt lat="4.6629120" lon="-74.3108150">
        <ele>2593.4</ele>
        <time>2018-08-10T14:33:23Z</time>
      </trkpt>
      <trkpt lat="4.6629320" lon="-74.3108500">
        <ele>2593.4</ele>
        <time>2018-08-10T14:33:24Z</time>
      </trkpt>
      <trkpt lat="4.6629500" lon="-74.3108830">
        <ele>2593.3</ele>
        <time>2018-08-10T14:33:25Z</time>
      </trkpt>
      <trkpt lat="4.6629670" lon="-74.3109180">
        <ele>2593.2</ele>
        <time>2018-08-10T14:33:26Z</time>
      </trkpt>
      <trkpt lat="4.6629820" lon="-74.3109550">
        <ele>2593.3</ele>
        <time>2018-08-10T14:33:27Z</time>
      </trkpt>
      <trkpt lat="4.6630020" lon="-74.3109880">
        <ele>2593.4</ele>
        <time>2018-08-10T14:33:28Z</time>
      </trkpt>
      <trkpt lat="4.6630250" lon="-74.3110230">
        <ele>2593.8</ele>
        <time>2018-08-10T14:33:29Z</time>
      </trkpt>
      <trkpt lat="4.6630430" lon="-74.3110570">
        <ele>2594.2</ele>
        <time>2018-08-10T14:33:30Z</time>
      </trkpt>
      <trkpt lat="4.6630670" lon="-74.3110730">
        <ele>2594.5</ele>
        <time>2018-08-10T14:33:31Z</time>
      </trkpt>
      <trkpt lat="4.6630930" lon="-74.3110930">
        <ele>2594.7</ele>
        <time>2018-08-10T14:33:32Z</time>
      </trkpt>
      <trkpt lat="4.6631180" lon="-74.3111230">
        <ele>2595.0</ele>
        <time>2018-08-10T14:33:33Z</time>
      </trkpt>
      <trkpt lat="4.6631420" lon="-74.3111600">
        <ele>2595.0</ele>
        <time>2018-08-10T14:33:34Z</time>
      </trkpt>
      <trkpt lat="4.6631650" lon="-74.3112000">
        <ele>2595.1</ele>
        <time>2018-08-10T14:33:35Z</time>
      </trkpt>
      <trkpt lat="4.6631920" lon="-74.3112320">
        <ele>2595.4</ele>
        <time>2018-08-10T14:33:36Z</time>
      </trkpt>
      <trkpt lat="4.6632180" lon="-74.3112620">
        <ele>2595.6</ele>
        <time>2018-08-10T14:33:37Z</time>
      </trkpt>
      <trkpt lat="4.6632420" lon="-74.3112930">
        <ele>2596.2</ele>
        <time>2018-08-10T14:33:38Z</time>
      </trkpt>
      <trkpt lat="4.6632630" lon="-74.3113320">
        <ele>2596.9</ele>
        <time>2018-08-10T14:33:39Z</time>
      </trkpt>
      <trkpt lat="4.6632850" lon="-74.3113720">
        <ele>2597.3</ele>
        <time>2018-08-10T14:33:40Z</time>
      </trkpt>
      <trkpt lat="4.6633030" lon="-74.3114120">
        <ele>2597.7</ele>
        <time>2018-08-10T14:33:41Z</time>
      </trkpt>
      <trkpt lat="4.6633220" lon="-74.3114520">
        <ele>2597.8</ele>
        <time>2018-08-10T14:33:42Z</time>
      </trkpt>
      <trkpt lat="4.6633380" lon="-74.3114920">
        <ele>2597.8</ele>
        <time>2018-08-10T14:33:43Z</time>
      </trkpt>
      <trkpt lat="4.6633550" lon="-74.3115300">
        <ele>2598.1</ele>
        <time>2018-08-10T14:33:44Z</time>
      </trkpt>
      <trkpt lat="4.6633780" lon="-74.3115630">
        <ele>2598.4</ele>
        <time>2018-08-10T14:33:45Z</time>
      </trkpt>
      <trkpt lat="4.6634080" lon="-74.3115950">
        <ele>2598.3</ele>
        <time>2018-08-10T14:33:46Z</time>
      </trkpt>
      <trkpt lat="4.6634350" lon="-74.3116250">
        <ele>2598.1</ele>
        <time>2018-08-10T14:33:47Z</time>
      </trkpt>
      <trkpt lat="4.6634580" lon="-74.3116570">
        <ele>2598.2</ele>
        <time>2018-08-10T14:33:48Z</time>
      </trkpt>
      <trkpt lat="4.6634870" lon="-74.3116870">
        <ele>2598.3</ele>
        <time>2018-08-10T14:33:49Z</time>
      </trkpt>
      <trkpt lat="4.6635100" lon="-74.3117220">
        <ele>2598.5</ele>
        <time>2018-08-10T14:33:50Z</time>
      </trkpt>
      <trkpt lat="4.6635280" lon="-74.3117580">
        <ele>2598.7</ele>
        <time>2018-08-10T14:33:51Z</time>
      </trkpt>
      <trkpt lat="4.6635480" lon="-74.3117930">
        <ele>2598.7</ele>
        <time>2018-08-10T14:33:52Z</time>
      </trkpt>
      <trkpt lat="4.6635720" lon="-74.3118280">
        <ele>2598.7</ele>
        <time>2018-08-10T14:33:53Z</time>
      </trkpt>
      <trkpt lat="4.6635950" lon="-74.3118630">
        <ele>2598.8</ele>
        <time>2018-08-10T14:33:54Z</time>
      </trkpt>
      <trkpt lat="4.6636170" lon="-74.3119020">
        <ele>2599.0</ele>
        <time>2018-08-10T14:33:55Z</time>
      </trkpt>
      <trkpt lat="4.6636350" lon="-74.3119380">
        <ele>2599.2</ele>
        <time>2018-08-10T14:33:56Z</time>
      </trkpt>
      <trkpt lat="4.6636530" lon="-74.3119750">
        <ele>2599.3</ele>
        <time>2018-08-10T14:33:57Z</time>
      </trkpt>
      <trkpt lat="4.6636720" lon="-74.3120100">
        <ele>2598.9</ele>
        <time>2018-08-10T14:33:58Z</time>
      </trkpt>
      <trkpt lat="4.6636900" lon="-74.3120480">
        <ele>2598.5</ele>
        <time>2018-08-10T14:33:59Z</time>
      </trkpt>
      <trkpt lat="4.6637080" lon="-74.3120880">
        <ele>2599.0</ele>
        <time>2018-08-10T14:34:00Z</time>
      </trkpt>
      <trkpt lat="4.6637280" lon="-74.3121270">
        <ele>2599.4</ele>
        <time>2018-08-10T14:34:01Z</time>
      </trkpt>
      <trkpt lat="4.6637530" lon="-74.3121630">
        <ele>2599.1</ele>
        <time>2018-08-10T14:34:02Z</time>
      </trkpt>
      <trkpt lat="4.6637780" lon="-74.3121980">
        <ele>2598.8</ele>
        <time>2018-08-10T14:34:03Z</time>
      </trkpt>
      <trkpt lat="4.6638050" lon="-74.3122330">
        <ele>2598.9</ele>
        <time>2018-08-10T14:34:04Z</time>
      </trkpt>
      <trkpt lat="4.6638320" lon="-74.3122680">
        <ele>2598.9</ele>
        <time>2018-08-10T14:34:05Z</time>
      </trkpt>
      <trkpt lat="4.6638580" lon="-74.3123050">
        <ele>2598.7</ele>
        <time>2018-08-10T14:34:06Z</time>
      </trkpt>
      <trkpt lat="4.6638850" lon="-74.3123420">
        <ele>2598.7</ele>
        <time>2018-08-10T14:34:07Z</time>
      </trkpt>
      <trkpt lat="4.6639130" lon="-74.3123730">
        <ele>2599.0</ele>
        <time>2018-08-10T14:34:08Z</time>
      </trkpt>
      <trkpt lat="4.6639420" lon="-74.3124020">
        <ele>2599.2</ele>
        <time>2018-08-10T14:34:09Z</time>
      </trkpt>
      <trkpt lat="4.6639720" lon="-74.3124280">
        <ele>2599.1</ele>
        <time>2018-08-10T14:34:10Z</time>
      </trkpt>
      <trkpt lat="4.6640000" lon="-74.3124570">
        <ele>2599.1</ele>
        <time>2018-08-10T14:34:11Z</time>
      </trkpt>
      <trkpt lat="4.6640270" lon="-74.3124830">
        <ele>2599.6</ele>
        <time>2018-08-10T14:34:12Z</time>
      </trkpt>
      <trkpt lat="4.6640550" lon="-74.3125070">
        <ele>2600.0</ele>
        <time>2018-08-10T14:34:13Z</time>
      </trkpt>
      <trkpt lat="4.6640880" lon="-74.3125270">
        <ele>2600.3</ele>
        <time>2018-08-10T14:34:14Z</time>
      </trkpt>
      <trkpt lat="4.6641180" lon="-74.3125450">
        <ele>2600.6</ele>
        <time>2018-08-10T14:34:15Z</time>
      </trkpt>
      <trkpt lat="4.6641470" lon="-74.3125670">
        <ele>2600.4</ele>
        <time>2018-08-10T14:34:16Z</time>
      </trkpt>
      <trkpt lat="4.6641680" lon="-74.3125950">
        <ele>2600.0</ele>
        <time>2018-08-10T14:34:17Z</time>
      </trkpt>
      <trkpt lat="4.6641880" lon="-74.3126230">
        <ele>2599.7</ele>
        <time>2018-08-10T14:34:18Z</time>
      </trkpt>
      <trkpt lat="4.6642070" lon="-74.3126500">
        <ele>2599.8</ele>
        <time>2018-08-10T14:34:19Z</time>
      </trkpt>
      <trkpt lat="4.6642320" lon="-74.3126700">
        <ele>2599.9</ele>
        <time>2018-08-10T14:34:20Z</time>
      </trkpt>
      <trkpt lat="4.6642580" lon="-74.3126880">
        <ele>2600.1</ele>
        <time>2018-08-10T14:34:21Z</time>
      </trkpt>
      <trkpt lat="4.6642850" lon="-74.3127070">
        <ele>2600.3</ele>
        <time>2018-08-10T14:34:22Z</time>
      </trkpt>
      <trkpt lat="4.6643130" lon="-74.3127320">
        <ele>2600.4</ele>
        <time>2018-08-10T14:34:23Z</time>
      </trkpt>
      <trkpt lat="4.6643420" lon="-74.3127570">
        <ele>2600.6</ele>
        <time>2018-08-10T14:34:24Z</time>
      </trkpt>
      <trkpt lat="4.6643720" lon="-74.3127800">
        <ele>2600.9</ele>
        <time>2018-08-10T14:34:25Z</time>
      </trkpt>
      <trkpt lat="4.6644020" lon="-74.3128020">
        <ele>2602.0</ele>
        <time>2018-08-10T14:34:26Z</time>
      </trkpt>
      <trkpt lat="4.6644300" lon="-74.3128230">
        <ele>2602.7</ele>
        <time>2018-08-10T14:34:27Z</time>
      </trkpt>
      <trkpt lat="4.6644550" lon="-74.3128470">
        <ele>2603.2</ele>
        <time>2018-08-10T14:34:28Z</time>
      </trkpt>
      <trkpt lat="4.6644800" lon="-74.3128680">
        <ele>2603.7</ele>
        <time>2018-08-10T14:34:29Z</time>
      </trkpt>
      <trkpt lat="4.6645100" lon="-74.3128880">
        <ele>2604.3</ele>
        <time>2018-08-10T14:34:30Z</time>
      </trkpt>
      <trkpt lat="4.6645400" lon="-74.3129100">
        <ele>2605.2</ele>
        <time>2018-08-10T14:34:31Z</time>
      </trkpt>
      <trkpt lat="4.6645700" lon="-74.3129280">
        <ele>2606.1</ele>
        <time>2018-08-10T14:34:32Z</time>
      </trkpt>
      <trkpt lat="4.6645980" lon="-74.3129470">
        <ele>2606.9</ele>
        <time>2018-08-10T14:34:33Z</time>
      </trkpt>
      <trkpt lat="4.6646250" lon="-74.3129650">
        <ele>2607.6</ele>
        <time>2018-08-10T14:34:34Z</time>
      </trkpt>
      <trkpt lat="4.6646530" lon="-74.3129800">
        <ele>2608.3</ele>
        <time>2018-08-10T14:34:35Z</time>
      </trkpt>
      <trkpt lat="4.6646830" lon="-74.3129920">
        <ele>2609.0</ele>
        <time>2018-08-10T14:34:36Z</time>
      </trkpt>
      <trkpt lat="4.6647130" lon="-74.3130050">
        <ele>2609.7</ele>
        <time>2018-08-10T14:34:37Z</time>
      </trkpt>
      <trkpt lat="4.6647430" lon="-74.3130220">
        <ele>2610.4</ele>
        <time>2018-08-10T14:34:38Z</time>
      </trkpt>
      <trkpt lat="4.6647730" lon="-74.3130370">
        <ele>2610.9</ele>
        <time>2018-08-10T14:34:39Z</time>
      </trkpt>
      <trkpt lat="4.6648000" lon="-74.3130530">
        <ele>2611.3</ele>
        <time>2018-08-10T14:34:40Z</time>
      </trkpt>
      <trkpt lat="4.6648280" lon="-74.3130730">
        <ele>2611.7</ele>
        <time>2018-08-10T14:34:41Z</time>
      </trkpt>
      <trkpt lat="4.6648550" lon="-74.3130930">
        <ele>2612.1</ele>
        <time>2018-08-10T14:34:42Z</time>
      </trkpt>
      <trkpt lat="4.6648800" lon="-74.3131130">
        <ele>2612.5</ele>
        <time>2018-08-10T14:34:43Z</time>
      </trkpt>
      <trkpt lat="4.6649050" lon="-74.3131370">
        <ele>2613.4</ele>
        <time>2018-08-10T14:34:44Z</time>
      </trkpt>
      <trkpt lat="4.6649320" lon="-74.3131630">
        <ele>2614.1</ele>
        <time>2018-08-10T14:34:45Z</time>
      </trkpt>
      <trkpt lat="4.6649600" lon="-74.3131870">
        <ele>2614.4</ele>
        <time>2018-08-10T14:34:46Z</time>
      </trkpt>
      <trkpt lat="4.6649870" lon="-74.3132120">
        <ele>2614.6</ele>
        <time>2018-08-10T14:34:47Z</time>
      </trkpt>
      <trkpt lat="4.6650120" lon="-74.3132380">
        <ele>2614.3</ele>
        <time>2018-08-10T14:34:48Z</time>
      </trkpt>
      <trkpt lat="4.6650350" lon="-74.3132650">
        <ele>2614.1</ele>
        <time>2018-08-10T14:34:49Z</time>
      </trkpt>
      <trkpt lat="4.6650600" lon="-74.3132930">
        <ele>2613.9</ele>
        <time>2018-08-10T14:34:50Z</time>
      </trkpt>
      <trkpt lat="4.6650830" lon="-74.3133200">
        <ele>2613.8</ele>
        <time>2018-08-10T14:34:51Z</time>
      </trkpt>
      <trkpt lat="4.6651050" lon="-74.3133480">
        <ele>2613.8</ele>
        <time>2018-08-10T14:34:52Z</time>
      </trkpt>
      <trkpt lat="4.6651230" lon="-74.3133780">
        <ele>2614.0</ele>
        <time>2018-08-10T14:34:53Z</time>
      </trkpt>
      <trkpt lat="4.6651420" lon="-74.3134130">
        <ele>2614.1</ele>
        <time>2018-08-10T14:34:54Z</time>
      </trkpt>
      <trkpt lat="4.6651550" lon="-74.3134470">
        <ele>2614.1</ele>
        <time>2018-08-10T14:34:55Z</time>
      </trkpt>
      <trkpt lat="4.6651670" lon="-74.3134780">
        <ele>2614.1</ele>
        <time>2018-08-10T14:34:56Z</time>
      </trkpt>
      <trkpt lat="4.6651750" lon="-74.3135070">
        <ele>2614.2</ele>
        <time>2018-08-10T14:34:57Z</time>
      </trkpt>
      <trkpt lat="4.6651870" lon="-74.3135350">
        <ele>2614.4</ele>
        <time>2018-08-10T14:34:58Z</time>
      </trkpt>
      <trkpt lat="4.6652020" lon="-74.3135630">
        <ele>2614.6</ele>
        <time>2018-08-10T14:34:59Z</time>
      </trkpt>
      <trkpt lat="4.6652130" lon="-74.3135900">
        <ele>2614.9</ele>
        <time>2018-08-10T14:35:00Z</time>
      </trkpt>
      <trkpt lat="4.6652270" lon="-74.3136180">
        <ele>2615.2</ele>
        <time>2018-08-10T14:35:01Z</time>
      </trkpt>
      <trkpt lat="4.6652380" lon="-74.3136450">
        <ele>2615.4</ele>
        <time>2018-08-10T14:35:02Z</time>
      </trkpt>
      <trkpt lat="4.6652500" lon="-74.3136720">
        <ele>2615.5</ele>
        <time>2018-08-10T14:35:03Z</time>
      </trkpt>
      <trkpt lat="4.6652730" lon="-74.3137220">
        <ele>2615.9</ele>
        <time>2018-08-10T14:35:05Z</time>
      </trkpt>
      <trkpt lat="4.6652830" lon="-74.3137480">
        <ele>2616.4</ele>
        <time>2018-08-10T14:35:06Z</time>
      </trkpt>
      <trkpt lat="4.6653120" lon="-74.3137950">
        <ele>2617.1</ele>
        <time>2018-08-10T14:35:08Z</time>
      </trkpt>
      <trkpt lat="4.6653220" lon="-74.3138220">
        <ele>2617.4</ele>
        <time>2018-08-10T14:35:09Z</time>
      </trkpt>
      <trkpt lat="4.6653320" lon="-74.3138730">
        <ele>2617.4</ele>
        <time>2018-08-10T14:35:11Z</time>
      </trkpt>
      <trkpt lat="4.6653400" lon="-74.3139000">
        <ele>2617.3</ele>
        <time>2018-08-10T14:35:12Z</time>
      </trkpt>
      <trkpt lat="4.6653530" lon="-74.3139270">
        <ele>2617.4</ele>
        <time>2018-08-10T14:35:13Z</time>
      </trkpt>
      <trkpt lat="4.6653620" lon="-74.3139550">
        <ele>2617.5</ele>
        <time>2018-08-10T14:35:14Z</time>
      </trkpt>
      <trkpt lat="4.6653720" lon="-74.3139820">
        <ele>2617.7</ele>
        <time>2018-08-10T14:35:15Z</time>
      </trkpt>
      <trkpt lat="4.6653850" lon="-74.3140120">
        <ele>2617.9</ele>
        <time>2018-08-10T14:35:16Z</time>
      </trkpt>
      <trkpt lat="4.6654000" lon="-74.3140420">
        <ele>2618.1</ele>
        <time>2018-08-10T14:35:17Z</time>
      </trkpt>
      <trkpt lat="4.6654130" lon="-74.3140720">
        <ele>2617.9</ele>
        <time>2018-08-10T14:35:18Z</time>
      </trkpt>
      <trkpt lat="4.6654250" lon="-74.3141020">
        <ele>2617.6</ele>
        <time>2018-08-10T14:35:19Z</time>
      </trkpt>
      <trkpt lat="4.6654370" lon="-74.3141320">
        <ele>2617.7</ele>
        <time>2018-08-10T14:35:20Z</time>
      </trkpt>
      <trkpt lat="4.6654500" lon="-74.3141600">
        <ele>2617.9</ele>
        <time>2018-08-10T14:35:21Z</time>
      </trkpt>
      <trkpt lat="4.6654650" lon="-74.3141870">
        <ele>2618.1</ele>
        <time>2018-08-10T14:35:22Z</time>
      </trkpt>
      <trkpt lat="4.6654800" lon="-74.3142130">
        <ele>2618.4</ele>
        <time>2018-08-10T14:35:23Z</time>
      </trkpt>
      <trkpt lat="4.6654930" lon="-74.3142420">
        <ele>2618.6</ele>
        <time>2018-08-10T14:35:24Z</time>
      </trkpt>
      <trkpt lat="4.6655100" lon="-74.3142680">
        <ele>2618.9</ele>
        <time>2018-08-10T14:35:25Z</time>
      </trkpt>
      <trkpt lat="4.6655280" lon="-74.3142930">
        <ele>2619.0</ele>
        <time>2018-08-10T14:35:26Z</time>
      </trkpt>
      <trkpt lat="4.6655500" lon="-74.3143180">
        <ele>2619.2</ele>
        <time>2018-08-10T14:35:27Z</time>
      </trkpt>
      <trkpt lat="4.6655680" lon="-74.3143450">
        <ele>2619.1</ele>
        <time>2018-08-10T14:35:28Z</time>
      </trkpt>
      <trkpt lat="4.6655880" lon="-74.3143680">
        <ele>2619.0</ele>
        <time>2018-08-10T14:35:29Z</time>
      </trkpt>
      <trkpt lat="4.6656080" lon="-74.3143930">
        <ele>2618.9</ele>
        <time>2018-08-10T14:35:30Z</time>
      </trkpt>
      <trkpt lat="4.6656270" lon="-74.3144200">
        <ele>2618.7</ele>
        <time>2018-08-10T14:35:31Z</time>
      </trkpt>
      <trkpt lat="4.6656470" lon="-74.3144430">
        <ele>2618.5</ele>
        <time>2018-08-10T14:35:32Z</time>
      </trkpt>
      <trkpt lat="4.6656670" lon="-74.3144670">
        <ele>2618.3</ele>
        <time>2018-08-10T14:35:33Z</time>
      </trkpt>
      <trkpt lat="4.6656930" lon="-74.3144900">
        <ele>2618.2</ele>
        <time>2018-08-10T14:35:34Z</time>
      </trkpt>
      <trkpt lat="4.6657220" lon="-74.3145080">
        <ele>2618.1</ele>
        <time>2018-08-10T14:35:35Z</time>
      </trkpt>
      <trkpt lat="4.6657470" lon="-74.3145300">
        <ele>2617.7</ele>
        <time>2018-08-10T14:35:36Z</time>
      </trkpt>
      <trkpt lat="4.6657700" lon="-74.3145530">
        <ele>2617.3</ele>
        <time>2018-08-10T14:35:37Z</time>
      </trkpt>
      <trkpt lat="4.6657920" lon="-74.3145770">
        <ele>2617.0</ele>
        <time>2018-08-10T14:35:38Z</time>
      </trkpt>
      <trkpt lat="4.6658130" lon="-74.3146000">
        <ele>2617.3</ele>
        <time>2018-08-10T14:35:39Z</time>
      </trkpt>
      <trkpt lat="4.6658330" lon="-74.3146250">
        <ele>2617.7</ele>
        <time>2018-08-10T14:35:40Z</time>
      </trkpt>
      <trkpt lat="4.6658550" lon="-74.3146450">
        <ele>2618.0</ele>
        <time>2018-08-10T14:35:41Z</time>
      </trkpt>
      <trkpt lat="4.6658920" lon="-74.3146800">
        <ele>2618.5</ele>
        <time>2018-08-10T14:35:43Z</time>
      </trkpt>
      <trkpt lat="4.6659120" lon="-74.3146980">
        <ele>2618.8</ele>
        <time>2018-08-10T14:35:44Z</time>
      </trkpt>
      <trkpt lat="4.6659350" lon="-74.3147170">
        <ele>2619.1</ele>
        <time>2018-08-10T14:35:45Z</time>
      </trkpt>
      <trkpt lat="4.6659620" lon="-74.3147330">
        <ele>2619.4</ele>
        <time>2018-08-10T14:35:46Z</time>
      </trkpt>
      <trkpt lat="4.6659880" lon="-74.3147500">
        <ele>2619.7</ele>
        <time>2018-08-10T14:35:47Z</time>
      </trkpt>
      <trkpt lat="4.6660150" lon="-74.3147670">
        <ele>2620.0</ele>
        <time>2018-08-10T14:35:48Z</time>
      </trkpt>
      <trkpt lat="4.6660380" lon="-74.3147870">
        <ele>2620.3</ele>
        <time>2018-08-10T14:35:49Z</time>
      </trkpt>
      <trkpt lat="4.6660620" lon="-74.3148020">
        <ele>2620.6</ele>
        <time>2018-08-10T14:35:50Z</time>
      </trkpt>
      <trkpt lat="4.6661030" lon="-74.3148330">
        <ele>2621.1</ele>
        <time>2018-08-10T14:35:52Z</time>
      </trkpt>
      <trkpt lat="4.6661470" lon="-74.3148620">
        <ele>2621.6</ele>
        <time>2018-08-10T14:35:54Z</time>
      </trkpt>
      <trkpt lat="4.6661900" lon="-74.3148780">
        <ele>2622.1</ele>
        <time>2018-08-10T14:35:56Z</time>
      </trkpt>
      <trkpt lat="4.6662420" lon="-74.3148920">
        <ele>2622.6</ele>
        <time>2018-08-10T14:35:58Z</time>
      </trkpt>
      <trkpt lat="4.6662670" lon="-74.3149030">
        <ele>2622.8</ele>
        <time>2018-08-10T14:35:59Z</time>
      </trkpt>
      <trkpt lat="4.6663120" lon="-74.3149320">
        <ele>2623.3</ele>
        <time>2018-08-10T14:36:01Z</time>
      </trkpt>
      <trkpt lat="4.6663330" lon="-74.3149500">
        <ele>2623.6</ele>
        <time>2018-08-10T14:36:02Z</time>
      </trkpt>
      <trkpt lat="4.6663700" lon="-74.3149780">
        <ele>2624.0</ele>
        <time>2018-08-10T14:36:04Z</time>
      </trkpt>
      <trkpt lat="4.6664100" lon="-74.3149980">
        <ele>2624.4</ele>
        <time>2018-08-10T14:36:06Z</time>
      </trkpt>
      <trkpt lat="4.6664430" lon="-74.3150130">
        <ele>2624.8</ele>
        <time>2018-08-10T14:36:08Z</time>
      </trkpt>
      <trkpt lat="4.6664770" lon="-74.3150280">
        <ele>2625.1</ele>
        <time>2018-08-10T14:36:10Z</time>
      </trkpt>
      <trkpt lat="4.6665070" lon="-74.3150450">
        <ele>2625.4</ele>
        <time>2018-08-10T14:36:12Z</time>
      </trkpt>
      <trkpt lat="4.6665330" lon="-74.3150720">
        <ele>2625.7</ele>
        <time>2018-08-10T14:36:14Z</time>
      </trkpt>
      <trkpt lat="4.6665630" lon="-74.3150950">
        <ele>2626.0</ele>
        <time>2018-08-10T14:36:16Z</time>
      </trkpt>
      <trkpt lat="4.6665930" lon="-74.3151320">
        <ele>2626.3</ele>
        <time>2018-08-10T14:36:18Z</time>
      </trkpt>
      <trkpt lat="4.6666170" lon="-74.3151770">
        <ele>2626.7</ele>
        <time>2018-08-10T14:36:20Z</time>
      </trkpt>
      <trkpt lat="4.6666400" lon="-74.3152230">
        <ele>2627.0</ele>
        <time>2018-08-10T14:36:22Z</time>
      </trkpt>
      <trkpt lat="4.6666620" lon="-74.3152700">
        <ele>2627.4</ele>
        <time>2018-08-10T14:36:24Z</time>
      </trkpt>
      <trkpt lat="4.6666900" lon="-74.3153120">
        <ele>2627.7</ele>
        <time>2018-08-10T14:36:26Z</time>
      </trkpt>
      <trkpt lat="4.6667220" lon="-74.3153520">
        <ele>2628.0</ele>
        <time>2018-08-10T14:36:28Z</time>
      </trkpt>
      <trkpt lat="4.6667380" lon="-74.3153730">
        <ele>2628.2</ele>
        <time>2018-08-10T14:36:29Z</time>
      </trkpt>
      <trkpt lat="4.6667570" lon="-74.3153950">
        <ele>2628.4</ele>
        <time>2018-08-10T14:36:30Z</time>
      </trkpt>
      <trkpt lat="4.6667720" lon="-74.3154180">
        <ele>2628.6</ele>
        <time>2018-08-10T14:36:31Z</time>
      </trkpt>
      <trkpt lat="4.6667880" lon="-74.3154400">
        <ele>2628.7</ele>
        <time>2018-08-10T14:36:32Z</time>
      </trkpt>
      <trkpt lat="4.6668220" lon="-74.3154820">
        <ele>2629.1</ele>
        <time>2018-08-10T14:36:34Z</time>
      </trkpt>
      <trkpt lat="4.6668400" lon="-74.3155020">
        <ele>2629.2</ele>
        <time>2018-08-10T14:36:35Z</time>
      </trkpt>
      <trkpt lat="4.6668600" lon="-74.3155220">
        <ele>2629.4</ele>
        <time>2018-08-10T14:36:36Z</time>
      </trkpt>
      <trkpt lat="4.6668800" lon="-74.3155420">
        <ele>2629.6</ele>
        <time>2018-08-10T14:36:37Z</time>
      </trkpt>
      <trkpt lat="4.6669020" lon="-74.3155600">
        <ele>2629.7</ele>
        <time>2018-08-10T14:36:38Z</time>
      </trkpt>
      <trkpt lat="4.6669220" lon="-74.3155780">
        <ele>2629.9</ele>
        <time>2018-08-10T14:36:39Z</time>
      </trkpt>
      <trkpt lat="4.6669550" lon="-74.3156170">
        <ele>2630.2</ele>
        <time>2018-08-10T14:36:41Z</time>
      </trkpt>
      <trkpt lat="4.6669730" lon="-74.3156380">
        <ele>2630.4</ele>
        <time>2018-08-10T14:36:42Z</time>
      </trkpt>
      <trkpt lat="4.6670120" lon="-74.3156700">
        <ele>2630.6</ele>
        <time>2018-08-10T14:36:44Z</time>
      </trkpt>
      <trkpt lat="4.6670500" lon="-74.3157000">
        <ele>2630.9</ele>
        <time>2018-08-10T14:36:46Z</time>
      </trkpt>
      <trkpt lat="4.6670880" lon="-74.3157300">
        <ele>2631.2</ele>
        <time>2018-08-10T14:36:48Z</time>
      </trkpt>
      <trkpt lat="4.6671300" lon="-74.3157530">
        <ele>2631.4</ele>
        <time>2018-08-10T14:36:50Z</time>
      </trkpt>
      <trkpt lat="4.6671670" lon="-74.3157820">
        <ele>2631.7</ele>
        <time>2018-08-10T14:36:52Z</time>
      </trkpt>
      <trkpt lat="4.6672080" lon="-74.3158080">
        <ele>2631.9</ele>
        <time>2018-08-10T14:36:54Z</time>
      </trkpt>
      <trkpt lat="4.6672470" lon="-74.3158300">
        <ele>2632.1</ele>
        <time>2018-08-10T14:36:56Z</time>
      </trkpt>
      <trkpt lat="4.6672850" lon="-74.3158550">
        <ele>2632.3</ele>
        <time>2018-08-10T14:36:58Z</time>
      </trkpt>
      <trkpt lat="4.6673180" lon="-74.3158770">
        <ele>2632.5</ele>
        <time>2018-08-10T14:37:00Z</time>
      </trkpt>
      <trkpt lat="4.6673480" lon="-74.3158970">
        <ele>2632.7</ele>
        <time>2018-08-10T14:37:02Z</time>
      </trkpt>
      <trkpt lat="4.6673850" lon="-74.3159180">
        <ele>2632.9</ele>
        <time>2018-08-10T14:37:04Z</time>
      </trkpt>
      <trkpt lat="4.6674270" lon="-74.3159430">
        <ele>2633.0</ele>
        <time>2018-08-10T14:37:06Z</time>
      </trkpt>
      <trkpt lat="4.6674650" lon="-74.3159670">
        <ele>2633.1</ele>
        <time>2018-08-10T14:37:08Z</time>
      </trkpt>
      <trkpt lat="4.6675030" lon="-74.3159920">
        <ele>2633.2</ele>
        <time>2018-08-10T14:37:10Z</time>
      </trkpt>
      <trkpt lat="4.6675450" lon="-74.3160280">
        <ele>2633.3</ele>
        <time>2018-08-10T14:37:12Z</time>
      </trkpt>
      <trkpt lat="4.6675830" lon="-74.3160600">
        <ele>2633.4</ele>
        <time>2018-08-10T14:37:14Z</time>
      </trkpt>
      <trkpt lat="4.6676050" lon="-74.3160780">
        <ele>2633.5</ele>
        <time>2018-08-10T14:37:15Z</time>
      </trkpt>
      <trkpt lat="4.6676300" lon="-74.3160980">
        <ele>2633.5</ele>
        <time>2018-08-10T14:37:16Z</time>
      </trkpt>
      <trkpt lat="4.6676520" lon="-74.3161150">
        <ele>2633.6</ele>
        <time>2018-08-10T14:37:17Z</time>
      </trkpt>
      <trkpt lat="4.6676750" lon="-74.3161320">
        <ele>2633.6</ele>
        <time>2018-08-10T14:37:18Z</time>
      </trkpt>
      <trkpt lat="4.6677180" lon="-74.3161630">
        <ele>2633.8</ele>
        <time>2018-08-10T14:37:20Z</time>
      </trkpt>
      <trkpt lat="4.6677570" lon="-74.3161870">
        <ele>2633.9</ele>
        <time>2018-08-10T14:37:22Z</time>
      </trkpt>
      <trkpt lat="4.6677950" lon="-74.3162070">
        <ele>2633.9</ele>
        <time>2018-08-10T14:37:24Z</time>
      </trkpt>
      <trkpt lat="4.6678330" lon="-74.3162330">
        <ele>2634.1</ele>
        <time>2018-08-10T14:37:26Z</time>
      </trkpt>
      <trkpt lat="4.6678730" lon="-74.3162550">
        <ele>2634.3</ele>
        <time>2018-08-10T14:37:28Z</time>
      </trkpt>
      <trkpt lat="4.6679120" lon="-74.3162720">
        <ele>2634.6</ele>
        <time>2018-08-10T14:37:30Z</time>
      </trkpt>
      <trkpt lat="4.6679550" lon="-74.3162950">
        <ele>2634.9</ele>
        <time>2018-08-10T14:37:32Z</time>
      </trkpt>
      <trkpt lat="4.6679800" lon="-74.3163100">
        <ele>2635.0</ele>
        <time>2018-08-10T14:37:33Z</time>
      </trkpt>
      <trkpt lat="4.6680030" lon="-74.3163250">
        <ele>2635.2</ele>
        <time>2018-08-10T14:37:34Z</time>
      </trkpt>
      <trkpt lat="4.6680450" lon="-74.3163580">
        <ele>2635.5</ele>
        <time>2018-08-10T14:37:36Z</time>
      </trkpt>
      <trkpt lat="4.6680730" lon="-74.3163730">
        <ele>2635.7</ele>
        <time>2018-08-10T14:37:37Z</time>
      </trkpt>
      <trkpt lat="4.6681000" lon="-74.3163870">
        <ele>2635.8</ele>
        <time>2018-08-10T14:37:38Z</time>
      </trkpt>
      <trkpt lat="4.6681280" lon="-74.3164030">
        <ele>2635.9</ele>
        <time>2018-08-10T14:37:39Z</time>
      </trkpt>
      <trkpt lat="4.6681570" lon="-74.3164170">
        <ele>2636.0</ele>
        <time>2018-08-10T14:37:40Z</time>
      </trkpt>
      <trkpt lat="4.6682100" lon="-74.3164430">
        <ele>2636.2</ele>
        <time>2018-08-10T14:37:42Z</time>
      </trkpt>
      <trkpt lat="4.6682350" lon="-74.3164570">
        <ele>2636.3</ele>
        <time>2018-08-10T14:37:43Z</time>
      </trkpt>
      <trkpt lat="4.6682600" lon="-74.3164680">
        <ele>2636.4</ele>
        <time>2018-08-10T14:37:44Z</time>
      </trkpt>
      <trkpt lat="4.6682850" lon="-74.3164820">
        <ele>2636.5</ele>
        <time>2018-08-10T14:37:45Z</time>
      </trkpt>
      <trkpt lat="4.6683070" lon="-74.3165000">
        <ele>2636.6</ele>
        <time>2018-08-10T14:37:46Z</time>
      </trkpt>
      <trkpt lat="4.6683530" lon="-74.3165250">
        <ele>2636.8</ele>
        <time>2018-08-10T14:37:48Z</time>
      </trkpt>
      <trkpt lat="4.6683780" lon="-74.3165420">
        <ele>2636.9</ele>
        <time>2018-08-10T14:37:49Z</time>
      </trkpt>
      <trkpt lat="4.6684050" lon="-74.3165580">
        <ele>2637.1</ele>
        <time>2018-08-10T14:37:50Z</time>
      </trkpt>
      <trkpt lat="4.6684280" lon="-74.3165770">
        <ele>2637.2</ele>
        <time>2018-08-10T14:37:51Z</time>
      </trkpt>
      <trkpt lat="4.6684520" lon="-74.3165970">
        <ele>2637.4</ele>
        <time>2018-08-10T14:37:52Z</time>
      </trkpt>
      <trkpt lat="4.6684770" lon="-74.3166130">
        <ele>2637.5</ele>
        <time>2018-08-10T14:37:53Z</time>
      </trkpt>
      <trkpt lat="4.6685000" lon="-74.3166330">
        <ele>2637.7</ele>
        <time>2018-08-10T14:37:54Z</time>
      </trkpt>
      <trkpt lat="4.6685270" lon="-74.3166450">
        <ele>2637.9</ele>
        <time>2018-08-10T14:37:55Z</time>
      </trkpt>
      <trkpt lat="4.6685750" lon="-74.3166620">
        <ele>2638.2</ele>
        <time>2018-08-10T14:37:57Z</time>
      </trkpt>
      <trkpt lat="4.6686200" lon="-74.3166850">
        <ele>2638.5</ele>
        <time>2018-08-10T14:37:59Z</time>
      </trkpt>
      <trkpt lat="4.6686630" lon="-74.3167100">
        <ele>2638.8</ele>
        <time>2018-08-10T14:38:01Z</time>
      </trkpt>
      <trkpt lat="4.6687100" lon="-74.3167380">
        <ele>2639.1</ele>
        <time>2018-08-10T14:38:03Z</time>
      </trkpt>
      <trkpt lat="4.6687380" lon="-74.3167550">
        <ele>2639.3</ele>
        <time>2018-08-10T14:38:04Z</time>
      </trkpt>
      <trkpt lat="4.6687650" lon="-74.3167650">
        <ele>2639.3</ele>
        <time>2018-08-10T14:38:05Z</time>
      </trkpt>
      <trkpt lat="4.6687920" lon="-74.3167720">
        <ele>2639.4</ele>
        <time>2018-08-10T14:38:06Z</time>
      </trkpt>
      <trkpt lat="4.6688180" lon="-74.3167820">
        <ele>2639.5</ele>
        <time>2018-08-10T14:38:07Z</time>
      </trkpt>
      <trkpt lat="4.6688450" lon="-74.3167920">
        <ele>2639.5</ele>
        <time>2018-08-10T14:38:08Z</time>
      </trkpt>
      <trkpt lat="4.6688720" lon="-74.3168020">
        <ele>2639.6</ele>
        <time>2018-08-10T14:38:09Z</time>
      </trkpt>
      <trkpt lat="4.6688980" lon="-74.3168120">
        <ele>2639.7</ele>
        <time>2018-08-10T14:38:10Z</time>
      </trkpt>
      <trkpt lat="4.6689250" lon="-74.3168200">
        <ele>2639.8</ele>
        <time>2018-08-10T14:38:11Z</time>
      </trkpt>
      <trkpt lat="4.6689520" lon="-74.3168280">
        <ele>2639.8</ele>
        <time>2018-08-10T14:38:12Z</time>
      </trkpt>
      <trkpt lat="4.6690000" lon="-74.3168470">
        <ele>2640.0</ele>
        <time>2018-08-10T14:38:14Z</time>
      </trkpt>
      <trkpt lat="4.6690270" lon="-74.3168550">
        <ele>2640.0</ele>
        <time>2018-08-10T14:38:15Z</time>
      </trkpt>
      <trkpt lat="4.6690770" lon="-74.3168700">
        <ele>2640.2</ele>
        <time>2018-08-10T14:38:17Z</time>
      </trkpt>
      <trkpt lat="4.6691230" lon="-74.3168920">
        <ele>2640.3</ele>
        <time>2018-08-10T14:38:19Z</time>
      </trkpt>
      <trkpt lat="4.6691750" lon="-74.3169070">
        <ele>2640.5</ele>
        <time>2018-08-10T14:38:21Z</time>
      </trkpt>
      <trkpt lat="4.6692020" lon="-74.3169170">
        <ele>2640.7</ele>
        <time>2018-08-10T14:38:22Z</time>
      </trkpt>
      <trkpt lat="4.6692280" lon="-74.3169270">
        <ele>2640.9</ele>
        <time>2018-08-10T14:38:23Z</time>
      </trkpt>
      <trkpt lat="4.6692570" lon="-74.3169350">
        <ele>2641.0</ele>
        <time>2018-08-10T14:38:24Z</time>
      </trkpt>
      <trkpt lat="4.6692820" lon="-74.3169470">
        <ele>2641.2</ele>
        <time>2018-08-10T14:38:25Z</time>
      </trkpt>
      <trkpt lat="4.6693080" lon="-74.3169550">
        <ele>2641.4</ele>
        <time>2018-08-10T14:38:26Z</time>
      </trkpt>
      <trkpt lat="4.6693350" lon="-74.3169620">
        <ele>2641.6</ele>
        <time>2018-08-10T14:38:27Z</time>
      </trkpt>
      <trkpt lat="4.6693620" lon="-74.3169700">
        <ele>2641.8</ele>
        <time>2018-08-10T14:38:28Z</time>
      </trkpt>
      <trkpt lat="4.6693900" lon="-74.3169800">
        <ele>2642.0</ele>
        <time>2018-08-10T14:38:29Z</time>
      </trkpt>
      <trkpt lat="4.6694170" lon="-74.3169880">
        <ele>2642.2</ele>
        <time>2018-08-10T14:38:30Z</time>
      </trkpt>
      <trkpt lat="4.6694430" lon="-74.3169950">
        <ele>2642.3</ele>
        <time>2018-08-10T14:38:31Z</time>
      </trkpt>
      <trkpt lat="4.6694730" lon="-74.3170020">
        <ele>2642.5</ele>
        <time>2018-08-10T14:38:32Z</time>
      </trkpt>
      <trkpt lat="4.6695050" lon="-74.3170080">
        <ele>2642.7</ele>
        <time>2018-08-10T14:38:33Z</time>
      </trkpt>
      <trkpt lat="4.6695370" lon="-74.3170130">
        <ele>2642.8</ele>
        <time>2018-08-10T14:38:34Z</time>
      </trkpt>
      <trkpt lat="4.6695670" lon="-74.3170200">
        <ele>2642.9</ele>
        <time>2018-08-10T14:38:35Z</time>
      </trkpt>
      <trkpt lat="4.6695970" lon="-74.3170270">
        <ele>2643.0</ele>
        <time>2018-08-10T14:38:36Z</time>
      </trkpt>
      <trkpt lat="4.6696270" lon="-74.3170350">
        <ele>2643.1</ele>
        <time>2018-08-10T14:38:37Z</time>
      </trkpt>
      <trkpt lat="4.6696550" lon="-74.3170470">
        <ele>2643.2</ele>
        <time>2018-08-10T14:38:38Z</time>
      </trkpt>
      <trkpt lat="4.6696870" lon="-74.3170570">
        <ele>2643.3</ele>
        <time>2018-08-10T14:38:39Z</time>
      </trkpt>
      <trkpt lat="4.6697170" lon="-74.3170650">
        <ele>2643.4</ele>
        <time>2018-08-10T14:38:40Z</time>
      </trkpt>
      <trkpt lat="4.6697500" lon="-74.3170750">
        <ele>2643.4</ele>
        <time>2018-08-10T14:38:41Z</time>
      </trkpt>
      <trkpt lat="4.6697800" lon="-74.3170830">
        <ele>2643.5</ele>
        <time>2018-08-10T14:38:42Z</time>
      </trkpt>
      <trkpt lat="4.6698080" lon="-74.3170900">
        <ele>2643.5</ele>
        <time>2018-08-10T14:38:43Z</time>
      </trkpt>
      <trkpt lat="4.6698370" lon="-74.3170950">
        <ele>2643.6</ele>
        <time>2018-08-10T14:38:44Z</time>
      </trkpt>
      <trkpt lat="4.6698670" lon="-74.3171020">
        <ele>2643.6</ele>
        <time>2018-08-10T14:38:45Z</time>
      </trkpt>
      <trkpt lat="4.6698950" lon="-74.3171080">
        <ele>2643.6</ele>
        <time>2018-08-10T14:38:46Z</time>
      </trkpt>
      <trkpt lat="4.6699220" lon="-74.3171170">
        <ele>2643.7</ele>
        <time>2018-08-10T14:38:47Z</time>
      </trkpt>
      <trkpt lat="4.6699480" lon="-74.3171270">
        <ele>2643.7</ele>
        <time>2018-08-10T14:38:48Z</time>
      </trkpt>
      <trkpt lat="4.6699770" lon="-74.3171370">
        <ele>2643.7</ele>
        <time>2018-08-10T14:38:49Z</time>
      </trkpt>
      <trkpt lat="4.6700050" lon="-74.3171450">
        <ele>2643.8</ele>
        <time>2018-08-10T14:38:50Z</time>
      </trkpt>
      <trkpt lat="4.6700330" lon="-74.3171520">
        <ele>2643.8</ele>
        <time>2018-08-10T14:38:51Z</time>
      </trkpt>
      <trkpt lat="4.6700620" lon="-74.3171530">
        <ele>2643.8</ele>
        <time>2018-08-10T14:38:52Z</time>
      </trkpt>
      <trkpt lat="4.6700900" lon="-74.3171570">
        <ele>2643.9</ele>
        <time>2018-08-10T14:38:53Z</time>
      </trkpt>
      <trkpt lat="4.6701430" lon="-74.3171570">
        <ele>2643.9</ele>
        <time>2018-08-10T14:38:55Z</time>
      </trkpt>
      <trkpt lat="4.6701720" lon="-74.3171580">
        <ele>2644.0</ele>
        <time>2018-08-10T14:38:56Z</time>
      </trkpt>
      <trkpt lat="4.6702180" lon="-74.3171620">
        <ele>2644.0</ele>
        <time>2018-08-10T14:38:58Z</time>
      </trkpt>
      <trkpt lat="4.6702630" lon="-74.3171750">
        <ele>2644.1</ele>
        <time>2018-08-10T14:39:00Z</time>
      </trkpt>
      <trkpt lat="4.6703080" lon="-74.3171820">
        <ele>2644.1</ele>
        <time>2018-08-10T14:39:02Z</time>
      </trkpt>
      <trkpt lat="4.6703530" lon="-74.3171880">
        <ele>2644.1</ele>
        <time>2018-08-10T14:39:04Z</time>
      </trkpt>
      <trkpt lat="4.6704030" lon="-74.3171920">
        <ele>2644.2</ele>
        <time>2018-08-10T14:39:06Z</time>
      </trkpt>
      <trkpt lat="4.6704520" lon="-74.3171950">
        <ele>2644.2</ele>
        <time>2018-08-10T14:39:08Z</time>
      </trkpt>
      <trkpt lat="4.6704980" lon="-74.3171980">
        <ele>2644.3</ele>
        <time>2018-08-10T14:39:10Z</time>
      </trkpt>
      <trkpt lat="4.6705400" lon="-74.3172080">
        <ele>2644.3</ele>
        <time>2018-08-10T14:39:12Z</time>
      </trkpt>
      <trkpt lat="4.6705920" lon="-74.3172050">
        <ele>2644.3</ele>
        <time>2018-08-10T14:39:14Z</time>
      </trkpt>
      <trkpt lat="4.6706430" lon="-74.3172050">
        <ele>2644.4</ele>
        <time>2018-08-10T14:39:16Z</time>
      </trkpt>
      <trkpt lat="4.6707000" lon="-74.3172020">
        <ele>2644.4</ele>
        <time>2018-08-10T14:39:18Z</time>
      </trkpt>
      <trkpt lat="4.6707550" lon="-74.3172050">
        <ele>2644.5</ele>
        <time>2018-08-10T14:39:20Z</time>
      </trkpt>
      <trkpt lat="4.6707850" lon="-74.3172070">
        <ele>2644.5</ele>
        <time>2018-08-10T14:39:21Z</time>
      </trkpt>
      <trkpt lat="4.6708130" lon="-74.3172070">
        <ele>2644.5</ele>
        <time>2018-08-10T14:39:22Z</time>
      </trkpt>
      <trkpt lat="4.6708430" lon="-74.3172080">
        <ele>2644.5</ele>
        <time>2018-08-10T14:39:23Z</time>
      </trkpt>
      <trkpt lat="4.6708720" lon="-74.3172070">
        <ele>2644.5</ele>
        <time>2018-08-10T14:39:24Z</time>
      </trkpt>
      <trkpt lat="4.6709000" lon="-74.3172000">
        <ele>2644.6</ele>
        <time>2018-08-10T14:39:25Z</time>
      </trkpt>
      <trkpt lat="4.6709300" lon="-74.3171930">
        <ele>2644.6</ele>
        <time>2018-08-10T14:39:26Z</time>
      </trkpt>
      <trkpt lat="4.6709600" lon="-74.3171900">
        <ele>2644.6</ele>
        <time>2018-08-10T14:39:27Z</time>
      </trkpt>
      <trkpt lat="4.6709920" lon="-74.3171880">
        <ele>2644.6</ele>
        <time>2018-08-10T14:39:28Z</time>
      </trkpt>
      <trkpt lat="4.6710220" lon="-74.3171850">
        <ele>2644.6</ele>
        <time>2018-08-10T14:39:29Z</time>
      </trkpt>
      <trkpt lat="4.6710530" lon="-74.3171800">
        <ele>2644.6</ele>
        <time>2018-08-10T14:39:30Z</time>
      </trkpt>
      <trkpt lat="4.6710830" lon="-74.3171750">
        <ele>2644.6</ele>
        <time>2018-08-10T14:39:31Z</time>
      </trkpt>
      <trkpt lat="4.6711120" lon="-74.3171730">
        <ele>2644.6</ele>
        <time>2018-08-10T14:39:32Z</time>
      </trkpt>
      <trkpt lat="4.6711650" lon="-74.3171750">
        <ele>2644.6</ele>
        <time>2018-08-10T14:39:34Z</time>
      </trkpt>
      <trkpt lat="4.6711930" lon="-74.3171750">
        <ele>2644.6</ele>
        <time>2018-08-10T14:39:35Z</time>
      </trkpt>
      <trkpt lat="4.6712220" lon="-74.3171700">
        <ele>2644.5</ele>
        <time>2018-08-10T14:39:36Z</time>
      </trkpt>
      <trkpt lat="4.6712520" lon="-74.3171700">
        <ele>2644.5</ele>
        <time>2018-08-10T14:39:37Z</time>
      </trkpt>
      <trkpt lat="4.6713050" lon="-74.3171780">
        <ele>2644.3</ele>
        <time>2018-08-10T14:39:39Z</time>
      </trkpt>
      <trkpt lat="4.6713320" lon="-74.3171870">
        <ele>2644.1</ele>
        <time>2018-08-10T14:39:40Z</time>
      </trkpt>
      <trkpt lat="4.6713620" lon="-74.3172000">
        <ele>2644.0</ele>
        <time>2018-08-10T14:39:41Z</time>
      </trkpt>
      <trkpt lat="4.6713920" lon="-74.3172120">
        <ele>2643.9</ele>
        <time>2018-08-10T14:39:42Z</time>
      </trkpt>
      <trkpt lat="4.6714220" lon="-74.3172200">
        <ele>2643.8</ele>
        <time>2018-08-10T14:39:43Z</time>
      </trkpt>
      <trkpt lat="4.6714580" lon="-74.3172320">
        <ele>2643.6</ele>
        <time>2018-08-10T14:39:44Z</time>
      </trkpt>
      <trkpt lat="4.6714920" lon="-74.3172400">
        <ele>2643.5</ele>
        <time>2018-08-10T14:39:45Z</time>
      </trkpt>
      <trkpt lat="4.6715220" lon="-74.3172480">
        <ele>2643.3</ele>
        <time>2018-08-10T14:39:46Z</time>
      </trkpt>
      <trkpt lat="4.6715520" lon="-74.3172600">
        <ele>2643.2</ele>
        <time>2018-08-10T14:39:47Z</time>
      </trkpt>
      <trkpt lat="4.6715800" lon="-74.3172770">
        <ele>2643.2</ele>
        <time>2018-08-10T14:39:48Z</time>
      </trkpt>
      <trkpt lat="4.6716050" lon="-74.3172970">
        <ele>2643.1</ele>
        <time>2018-08-10T14:39:49Z</time>
      </trkpt>
      <trkpt lat="4.6716220" lon="-74.3173180">
        <ele>2643.1</ele>
        <time>2018-08-10T14:39:50Z</time>
      </trkpt>
      <trkpt lat="4.6716370" lon="-74.3173420">
        <ele>2643.1</ele>
        <time>2018-08-10T14:39:51Z</time>
      </trkpt>
      <trkpt lat="4.6716530" lon="-74.3173670">
        <ele>2643.0</ele>
        <time>2018-08-10T14:39:52Z</time>
      </trkpt>
      <trkpt lat="4.6716700" lon="-74.3173930">
        <ele>2643.0</ele>
        <time>2018-08-10T14:39:53Z</time>
      </trkpt>
      <trkpt lat="4.6716850" lon="-74.3174230">
        <ele>2642.9</ele>
        <time>2018-08-10T14:39:54Z</time>
      </trkpt>
      <trkpt lat="4.6717000" lon="-74.3174570">
        <ele>2642.8</ele>
        <time>2018-08-10T14:39:55Z</time>
      </trkpt>
      <trkpt lat="4.6717150" lon="-74.3174880">
        <ele>2642.7</ele>
        <time>2018-08-10T14:39:56Z</time>
      </trkpt>
      <trkpt lat="4.6717330" lon="-74.3175230">
        <ele>2642.5</ele>
        <time>2018-08-10T14:39:57Z</time>
      </trkpt>
      <trkpt lat="4.6717500" lon="-74.3175580">
        <ele>2642.5</ele>
        <time>2018-08-10T14:39:58Z</time>
      </trkpt>
      <trkpt lat="4.6717630" lon="-74.3175970">
        <ele>2642.4</ele>
        <time>2018-08-10T14:39:59Z</time>
      </trkpt>
      <trkpt lat="4.6717780" lon="-74.3176300">
        <ele>2642.4</ele>
        <time>2018-08-10T14:40:00Z</time>
      </trkpt>
      <trkpt lat="4.6717950" lon="-74.3176600">
        <ele>2642.4</ele>
        <time>2018-08-10T14:40:01Z</time>
      </trkpt>
      <trkpt lat="4.6718100" lon="-74.3176980">
        <ele>2642.4</ele>
        <time>2018-08-10T14:40:02Z</time>
      </trkpt>
      <trkpt lat="4.6718270" lon="-74.3177370">
        <ele>2642.3</ele>
        <time>2018-08-10T14:40:03Z</time>
      </trkpt>
      <trkpt lat="4.6718420" lon="-74.3177750">
        <ele>2642.3</ele>
        <time>2018-08-10T14:40:04Z</time>
      </trkpt>
      <trkpt lat="4.6718570" lon="-74.3178120">
        <ele>2642.3</ele>
        <time>2018-08-10T14:40:05Z</time>
      </trkpt>
      <trkpt lat="4.6718770" lon="-74.3178470">
        <ele>2642.3</ele>
        <time>2018-08-10T14:40:06Z</time>
      </trkpt>
      <trkpt lat="4.6718970" lon="-74.3178820">
        <ele>2642.3</ele>
        <time>2018-08-10T14:40:07Z</time>
      </trkpt>
      <trkpt lat="4.6719180" lon="-74.3179120">
        <ele>2642.3</ele>
        <time>2018-08-10T14:40:08Z</time>
      </trkpt>
      <trkpt lat="4.6719450" lon="-74.3179380">
        <ele>2642.3</ele>
        <time>2018-08-10T14:40:09Z</time>
      </trkpt>
      <trkpt lat="4.6719650" lon="-74.3179630">
        <ele>2642.3</ele>
        <time>2018-08-10T14:40:10Z</time>
      </trkpt>
      <trkpt lat="4.6719870" lon="-74.3179850">
        <ele>2642.3</ele>
        <time>2018-08-10T14:40:11Z</time>
      </trkpt>
      <trkpt lat="4.6720180" lon="-74.3180230">
        <ele>2642.3</ele>
        <time>2018-08-10T14:40:13Z</time>
      </trkpt>
      <trkpt lat="4.6720430" lon="-74.3180550">
        <ele>2642.3</ele>
        <time>2018-08-10T14:40:15Z</time>
      </trkpt>
      <trkpt lat="4.6720670" lon="-74.3180900">
        <ele>2642.3</ele>
        <time>2018-08-10T14:40:17Z</time>
      </trkpt>
      <trkpt lat="4.6720820" lon="-74.3181130">
        <ele>2642.3</ele>
        <time>2018-08-10T14:40:18Z</time>
      </trkpt>
      <trkpt lat="4.6720980" lon="-74.3181370">
        <ele>2642.3</ele>
        <time>2018-08-10T14:40:19Z</time>
      </trkpt>
      <trkpt lat="4.6721180" lon="-74.3181650">
        <ele>2642.3</ele>
        <time>2018-08-10T14:40:20Z</time>
      </trkpt>
      <trkpt lat="4.6721370" lon="-74.3181880">
        <ele>2642.3</ele>
        <time>2018-08-10T14:40:21Z</time>
      </trkpt>
      <trkpt lat="4.6721600" lon="-74.3182120">
        <ele>2642.2</ele>
        <time>2018-08-10T14:40:22Z</time>
      </trkpt>
      <trkpt lat="4.6721870" lon="-74.3182350">
        <ele>2642.2</ele>
        <time>2018-08-10T14:40:23Z</time>
      </trkpt>
      <trkpt lat="4.6722080" lon="-74.3182600">
        <ele>2642.1</ele>
        <time>2018-08-10T14:40:24Z</time>
      </trkpt>
      <trkpt lat="4.6722280" lon="-74.3182800">
        <ele>2642.0</ele>
        <time>2018-08-10T14:40:25Z</time>
      </trkpt>
      <trkpt lat="4.6722630" lon="-74.3183200">
        <ele>2641.9</ele>
        <time>2018-08-10T14:40:27Z</time>
      </trkpt>
      <trkpt lat="4.6722820" lon="-74.3183430">
        <ele>2641.9</ele>
        <time>2018-08-10T14:40:28Z</time>
      </trkpt>
      <trkpt lat="4.6723020" lon="-74.3183680">
        <ele>2641.9</ele>
        <time>2018-08-10T14:40:29Z</time>
      </trkpt>
      <trkpt lat="4.6723250" lon="-74.3183950">
        <ele>2641.8</ele>
        <time>2018-08-10T14:40:30Z</time>
      </trkpt>
      <trkpt lat="4.6723480" lon="-74.3184200">
        <ele>2641.8</ele>
        <time>2018-08-10T14:40:31Z</time>
      </trkpt>
      <trkpt lat="4.6723730" lon="-74.3184470">
        <ele>2641.8</ele>
        <time>2018-08-10T14:40:32Z</time>
      </trkpt>
      <trkpt lat="4.6723930" lon="-74.3184770">
        <ele>2641.8</ele>
        <time>2018-08-10T14:40:33Z</time>
      </trkpt>
      <trkpt lat="4.6724130" lon="-74.3185030">
        <ele>2641.7</ele>
        <time>2018-08-10T14:40:34Z</time>
      </trkpt>
      <trkpt lat="4.6724330" lon="-74.3185300">
        <ele>2641.7</ele>
        <time>2018-08-10T14:40:35Z</time>
      </trkpt>
      <trkpt lat="4.6724580" lon="-74.3185550">
        <ele>2641.7</ele>
        <time>2018-08-10T14:40:36Z</time>
      </trkpt>
      <trkpt lat="4.6724870" lon="-74.3185820">
        <ele>2641.6</ele>
        <time>2018-08-10T14:40:37Z</time>
      </trkpt>
      <trkpt lat="4.6725150" lon="-74.3186050">
        <ele>2641.5</ele>
        <time>2018-08-10T14:40:38Z</time>
      </trkpt>
      <trkpt lat="4.6725480" lon="-74.3186220">
        <ele>2641.4</ele>
        <time>2018-08-10T14:40:39Z</time>
      </trkpt>
      <trkpt lat="4.6725830" lon="-74.3186270">
        <ele>2641.3</ele>
        <time>2018-08-10T14:40:40Z</time>
      </trkpt>
      <trkpt lat="4.6726150" lon="-74.3186220">
        <ele>2641.2</ele>
        <time>2018-08-10T14:40:41Z</time>
      </trkpt>
      <trkpt lat="4.6726480" lon="-74.3186080">
        <ele>2641.2</ele>
        <time>2018-08-10T14:40:42Z</time>
      </trkpt>
      <trkpt lat="4.6726780" lon="-74.3185880">
        <ele>2641.1</ele>
        <time>2018-08-10T14:40:43Z</time>
      </trkpt>
      <trkpt lat="4.6727120" lon="-74.3185720">
        <ele>2641.1</ele>
        <time>2018-08-10T14:40:44Z</time>
      </trkpt>
      <trkpt lat="4.6727470" lon="-74.3185550">
        <ele>2641.1</ele>
        <time>2018-08-10T14:40:45Z</time>
      </trkpt>
      <trkpt lat="4.6727780" lon="-74.3185370">
        <ele>2641.1</ele>
        <time>2018-08-10T14:40:46Z</time>
      </trkpt>
      <trkpt lat="4.6728100" lon="-74.3185180">
        <ele>2641.1</ele>
        <time>2018-08-10T14:40:47Z</time>
      </trkpt>
      <trkpt lat="4.6728400" lon="-74.3184980">
        <ele>2641.1</ele>
        <time>2018-08-10T14:40:48Z</time>
      </trkpt>
      <trkpt lat="4.6728700" lon="-74.3184770">
        <ele>2641.1</ele>
        <time>2018-08-10T14:40:49Z</time>
      </trkpt>
      <trkpt lat="4.6729050" lon="-74.3184620">
        <ele>2641.1</ele>
        <time>2018-08-10T14:40:50Z</time>
      </trkpt>
      <trkpt lat="4.6729380" lon="-74.3184450">
        <ele>2641.1</ele>
        <time>2018-08-10T14:40:51Z</time>
      </trkpt>
      <trkpt lat="4.6729720" lon="-74.3184270">
        <ele>2641.1</ele>
        <time>2018-08-10T14:40:52Z</time>
      </trkpt>
      <trkpt lat="4.6730070" lon="-74.3184100">
        <ele>2641.2</ele>
        <time>2018-08-10T14:40:53Z</time>
      </trkpt>
      <trkpt lat="4.6730420" lon="-74.3183950">
        <ele>2641.2</ele>
        <time>2018-08-10T14:40:54Z</time>
      </trkpt>
      <trkpt lat="4.6730770" lon="-74.3183780">
        <ele>2641.2</ele>
        <time>2018-08-10T14:40:55Z</time>
      </trkpt>
      <trkpt lat="4.6731150" lon="-74.3183650">
        <ele>2641.2</ele>
        <time>2018-08-10T14:40:56Z</time>
      </trkpt>
      <trkpt lat="4.6731500" lon="-74.3183450">
        <ele>2641.2</ele>
        <time>2018-08-10T14:40:57Z</time>
      </trkpt>
      <trkpt lat="4.6731820" lon="-74.3183230">
        <ele>2641.2</ele>
        <time>2018-08-10T14:40:58Z</time>
      </trkpt>
      <trkpt lat="4.6732200" lon="-74.3183070">
        <ele>2641.2</ele>
        <time>2018-08-10T14:40:59Z</time>
      </trkpt>
      <trkpt lat="4.6732600" lon="-74.3182900">
        <ele>2641.2</ele>
        <time>2018-08-10T14:41:00Z</time>
      </trkpt>
      <trkpt lat="4.6732970" lon="-74.3182750">
        <ele>2641.1</ele>
        <time>2018-08-10T14:41:01Z</time>
      </trkpt>
      <trkpt lat="4.6733320" lon="-74.3182620">
        <ele>2641.0</ele>
        <time>2018-08-10T14:41:02Z</time>
      </trkpt>
      <trkpt lat="4.6733650" lon="-74.3182420">
        <ele>2640.9</ele>
        <time>2018-08-10T14:41:03Z</time>
      </trkpt>
      <trkpt lat="4.6733970" lon="-74.3182230">
        <ele>2640.8</ele>
        <time>2018-08-10T14:41:04Z</time>
      </trkpt>
      <trkpt lat="4.6734300" lon="-74.3182050">
        <ele>2640.8</ele>
        <time>2018-08-10T14:41:05Z</time>
      </trkpt>
      <trkpt lat="4.6734630" lon="-74.3181870">
        <ele>2640.8</ele>
        <time>2018-08-10T14:41:06Z</time>
      </trkpt>
      <trkpt lat="4.6734970" lon="-74.3181720">
        <ele>2640.7</ele>
        <time>2018-08-10T14:41:07Z</time>
      </trkpt>
      <trkpt lat="4.6735280" lon="-74.3181570">
        <ele>2640.7</ele>
        <time>2018-08-10T14:41:08Z</time>
      </trkpt>
      <trkpt lat="4.6735620" lon="-74.3181430">
        <ele>2640.7</ele>
        <time>2018-08-10T14:41:09Z</time>
      </trkpt>
      <trkpt lat="4.6735920" lon="-74.3181280">
        <ele>2640.7</ele>
        <time>2018-08-10T14:41:10Z</time>
      </trkpt>
      <trkpt lat="4.6736180" lon="-74.3181050">
        <ele>2640.7</ele>
        <time>2018-08-10T14:41:11Z</time>
      </trkpt>
      <trkpt lat="4.6736470" lon="-74.3180850">
        <ele>2640.7</ele>
        <time>2018-08-10T14:41:12Z</time>
      </trkpt>
      <trkpt lat="4.6736770" lon="-74.3180680">
        <ele>2640.8</ele>
        <time>2018-08-10T14:41:13Z</time>
      </trkpt>
      <trkpt lat="4.6737100" lon="-74.3180570">
        <ele>2640.8</ele>
        <time>2018-08-10T14:41:14Z</time>
      </trkpt>
      <trkpt lat="4.6737420" lon="-74.3180500">
        <ele>2640.8</ele>
        <time>2018-08-10T14:41:15Z</time>
      </trkpt>
      <trkpt lat="4.6737730" lon="-74.3180420">
        <ele>2640.8</ele>
        <time>2018-08-10T14:41:16Z</time>
      </trkpt>
      <trkpt lat="4.6738000" lon="-74.3180280">
        <ele>2640.8</ele>
        <time>2018-08-10T14:41:17Z</time>
      </trkpt>
      <trkpt lat="4.6738270" lon="-74.3180150">
        <ele>2640.8</ele>
        <time>2018-08-10T14:41:18Z</time>
      </trkpt>
      <trkpt lat="4.6738520" lon="-74.3180000">
        <ele>2640.8</ele>
        <time>2018-08-10T14:41:19Z</time>
      </trkpt>
      <trkpt lat="4.6738920" lon="-74.3179700">
        <ele>2640.9</ele>
        <time>2018-08-10T14:41:21Z</time>
      </trkpt>
      <trkpt lat="4.6739300" lon="-74.3179400">
        <ele>2640.9</ele>
        <time>2018-08-10T14:41:23Z</time>
      </trkpt>
      <trkpt lat="4.6739480" lon="-74.3179200">
        <ele>2640.9</ele>
        <time>2018-08-10T14:41:24Z</time>
      </trkpt>
      <trkpt lat="4.6739900" lon="-74.3178850">
        <ele>2640.9</ele>
        <time>2018-08-10T14:41:26Z</time>
      </trkpt>
      <trkpt lat="4.6740150" lon="-74.3178720">
        <ele>2640.9</ele>
        <time>2018-08-10T14:41:27Z</time>
      </trkpt>
      <trkpt lat="4.6740620" lon="-74.3178420">
        <ele>2640.9</ele>
        <time>2018-08-10T14:41:29Z</time>
      </trkpt>
      <trkpt lat="4.6740870" lon="-74.3178270">
        <ele>2640.9</ele>
        <time>2018-08-10T14:41:30Z</time>
      </trkpt>
      <trkpt lat="4.6741130" lon="-74.3178120">
        <ele>2640.9</ele>
        <time>2018-08-10T14:41:31Z</time>
      </trkpt>
      <trkpt lat="4.6741420" lon="-74.3177920">
        <ele>2640.8</ele>
        <time>2018-08-10T14:41:32Z</time>
      </trkpt>
      <trkpt lat="4.6741700" lon="-74.3177700">
        <ele>2640.8</ele>
        <time>2018-08-10T14:41:33Z</time>
      </trkpt>
      <trkpt lat="4.6741980" lon="-74.3177530">
        <ele>2640.7</ele>
        <time>2018-08-10T14:41:34Z</time>
      </trkpt>
      <trkpt lat="4.6742230" lon="-74.3177350">
        <ele>2640.6</ele>
        <time>2018-08-10T14:41:35Z</time>
      </trkpt>
      <trkpt lat="4.6742520" lon="-74.3177180">
        <ele>2640.6</ele>
        <time>2018-08-10T14:41:36Z</time>
      </trkpt>
      <trkpt lat="4.6742800" lon="-74.3177020">
        <ele>2640.5</ele>
        <time>2018-08-10T14:41:37Z</time>
      </trkpt>
      <trkpt lat="4.6743120" lon="-74.3176830">
        <ele>2640.5</ele>
        <time>2018-08-10T14:41:38Z</time>
      </trkpt>
      <trkpt lat="4.6743420" lon="-74.3176670">
        <ele>2640.5</ele>
        <time>2018-08-10T14:41:39Z</time>
      </trkpt>
      <trkpt lat="4.6743680" lon="-74.3176500">
        <ele>2640.4</ele>
        <time>2018-08-10T14:41:40Z</time>
      </trkpt>
      <trkpt lat="4.6743980" lon="-74.3176330">
        <ele>2640.4</ele>
        <time>2018-08-10T14:41:41Z</time>
      </trkpt>
      <trkpt lat="4.6744280" lon="-74.3176170">
        <ele>2640.4</ele>
        <time>2018-08-10T14:41:42Z</time>
      </trkpt>
      <trkpt lat="4.6744580" lon="-74.3176000">
        <ele>2640.4</ele>
        <time>2018-08-10T14:41:43Z</time>
      </trkpt>
      <trkpt lat="4.6744850" lon="-74.3175870">
        <ele>2640.4</ele>
        <time>2018-08-10T14:41:44Z</time>
      </trkpt>
      <trkpt lat="4.6745130" lon="-74.3175700">
        <ele>2640.4</ele>
        <time>2018-08-10T14:41:45Z</time>
      </trkpt>
      <trkpt lat="4.6745400" lon="-74.3175520">
        <ele>2640.4</ele>
        <time>2018-08-10T14:41:46Z</time>
      </trkpt>
      <trkpt lat="4.6745670" lon="-74.3175350">
        <ele>2640.3</ele>
        <time>2018-08-10T14:41:47Z</time>
      </trkpt>
      <trkpt lat="4.6745950" lon="-74.3175180">
        <ele>2640.3</ele>
        <time>2018-08-10T14:41:48Z</time>
      </trkpt>
      <trkpt lat="4.6746250" lon="-74.3175030">
        <ele>2640.2</ele>
        <time>2018-08-10T14:41:49Z</time>
      </trkpt>
      <trkpt lat="4.6746580" lon="-74.3174920">
        <ele>2640.2</ele>
        <time>2018-08-10T14:41:50Z</time>
      </trkpt>
      <trkpt lat="4.6746900" lon="-74.3174830">
        <ele>2640.1</ele>
        <time>2018-08-10T14:41:51Z</time>
      </trkpt>
      <trkpt lat="4.6747180" lon="-74.3174750">
        <ele>2640.0</ele>
        <time>2018-08-10T14:41:52Z</time>
      </trkpt>
      <trkpt lat="4.6747450" lon="-74.3174650">
        <ele>2640.0</ele>
        <time>2018-08-10T14:41:53Z</time>
      </trkpt>
      <trkpt lat="4.6747730" lon="-74.3174530">
        <ele>2639.9</ele>
        <time>2018-08-10T14:41:54Z</time>
      </trkpt>
      <trkpt lat="4.6748020" lon="-74.3174450">
        <ele>2639.9</ele>
        <time>2018-08-10T14:41:55Z</time>
      </trkpt>
      <trkpt lat="4.6748320" lon="-74.3174370">
        <ele>2639.8</ele>
        <time>2018-08-10T14:41:56Z</time>
      </trkpt>
      <trkpt lat="4.6748630" lon="-74.3174250">
        <ele>2639.8</ele>
        <time>2018-08-10T14:41:57Z</time>
      </trkpt>
      <trkpt lat="4.6748920" lon="-74.3174120">
        <ele>2639.8</ele>
        <time>2018-08-10T14:41:58Z</time>
      </trkpt>
      <trkpt lat="4.6749220" lon="-74.3174000">
        <ele>2639.8</ele>
        <time>2018-08-10T14:41:59Z</time>
      </trkpt>
      <trkpt lat="4.6749520" lon="-74.3173900">
        <ele>2639.8</ele>
        <time>2018-08-10T14:42:00Z</time>
      </trkpt>
      <trkpt lat="4.6749830" lon="-74.3173830">
        <ele>2639.8</ele>
        <time>2018-08-10T14:42:01Z</time>
      </trkpt>
      <trkpt lat="4.6750150" lon="-74.3173800">
        <ele>2639.7</ele>
        <time>2018-08-10T14:42:02Z</time>
      </trkpt>
      <trkpt lat="4.6750450" lon="-74.3173750">
        <ele>2639.7</ele>
        <time>2018-08-10T14:42:03Z</time>
      </trkpt>
      <trkpt lat="4.6750780" lon="-74.3173670">
        <ele>2639.7</ele>
        <time>2018-08-10T14:42:04Z</time>
      </trkpt>
      <trkpt lat="4.6751100" lon="-74.3173570">
        <ele>2639.7</ele>
        <time>2018-08-10T14:42:05Z</time>
      </trkpt>
      <trkpt lat="4.6751400" lon="-74.3173480">
        <ele>2639.6</ele>
        <time>2018-08-10T14:42:06Z</time>
      </trkpt>
      <trkpt lat="4.6751700" lon="-74.3173400">
        <ele>2639.5</ele>
        <time>2018-08-10T14:42:07Z</time>
      </trkpt>
      <trkpt lat="4.6752000" lon="-74.3173320">
        <ele>2639.4</ele>
        <time>2018-08-10T14:42:08Z</time>
      </trkpt>
      <trkpt lat="4.6752320" lon="-74.3173200">
        <ele>2639.3</ele>
        <time>2018-08-10T14:42:09Z</time>
      </trkpt>
      <trkpt lat="4.6752630" lon="-74.3173100">
        <ele>2639.2</ele>
        <time>2018-08-10T14:42:10Z</time>
      </trkpt>
      <trkpt lat="4.6752970" lon="-74.3173000">
        <ele>2639.1</ele>
        <time>2018-08-10T14:42:11Z</time>
      </trkpt>
      <trkpt lat="4.6753280" lon="-74.3172930">
        <ele>2639.1</ele>
        <time>2018-08-10T14:42:12Z</time>
      </trkpt>
      <trkpt lat="4.6753580" lon="-74.3172850">
        <ele>2639.0</ele>
        <time>2018-08-10T14:42:13Z</time>
      </trkpt>
      <trkpt lat="4.6753900" lon="-74.3172820">
        <ele>2639.0</ele>
        <time>2018-08-10T14:42:14Z</time>
      </trkpt>
      <trkpt lat="4.6754220" lon="-74.3172770">
        <ele>2639.0</ele>
        <time>2018-08-10T14:42:15Z</time>
      </trkpt>
      <trkpt lat="4.6754520" lon="-74.3172650">
        <ele>2638.9</ele>
        <time>2018-08-10T14:42:16Z</time>
      </trkpt>
      <trkpt lat="4.6754820" lon="-74.3172520">
        <ele>2638.9</ele>
        <time>2018-08-10T14:42:17Z</time>
      </trkpt>
      <trkpt lat="4.6755130" lon="-74.3172380">
        <ele>2638.8</ele>
        <time>2018-08-10T14:42:18Z</time>
      </trkpt>
      <trkpt lat="4.6755470" lon="-74.3172270">
        <ele>2638.6</ele>
        <time>2018-08-10T14:42:19Z</time>
      </trkpt>
      <trkpt lat="4.6755780" lon="-74.3172100">
        <ele>2638.5</ele>
        <time>2018-08-10T14:42:20Z</time>
      </trkpt>
      <trkpt lat="4.6756120" lon="-74.3171970">
        <ele>2638.3</ele>
        <time>2018-08-10T14:42:21Z</time>
      </trkpt>
      <trkpt lat="4.6756450" lon="-74.3171820">
        <ele>2638.1</ele>
        <time>2018-08-10T14:42:22Z</time>
      </trkpt>
      <trkpt lat="4.6756730" lon="-74.3171680">
        <ele>2637.9</ele>
        <time>2018-08-10T14:42:23Z</time>
      </trkpt>
      <trkpt lat="4.6757070" lon="-74.3171530">
        <ele>2637.8</ele>
        <time>2018-08-10T14:42:24Z</time>
      </trkpt>
      <trkpt lat="4.6757400" lon="-74.3171420">
        <ele>2637.7</ele>
        <time>2018-08-10T14:42:25Z</time>
      </trkpt>
      <trkpt lat="4.6757720" lon="-74.3171300">
        <ele>2637.6</ele>
        <time>2018-08-10T14:42:26Z</time>
      </trkpt>
      <trkpt lat="4.6758050" lon="-74.3171170">
        <ele>2637.4</ele>
        <time>2018-08-10T14:42:27Z</time>
      </trkpt>
      <trkpt lat="4.6758380" lon="-74.3171030">
        <ele>2637.2</ele>
        <time>2018-08-10T14:42:28Z</time>
      </trkpt>
      <trkpt lat="4.6758700" lon="-74.3170870">
        <ele>2637.0</ele>
        <time>2018-08-10T14:42:29Z</time>
      </trkpt>
      <trkpt lat="4.6759030" lon="-74.3170730">
        <ele>2636.9</ele>
        <time>2018-08-10T14:42:30Z</time>
      </trkpt>
      <trkpt lat="4.6759380" lon="-74.3170570">
        <ele>2636.8</ele>
        <time>2018-08-10T14:42:31Z</time>
      </trkpt>
      <trkpt lat="4.6759750" lon="-74.3170400">
        <ele>2636.8</ele>
        <time>2018-08-10T14:42:32Z</time>
      </trkpt>
      <trkpt lat="4.6760080" lon="-74.3170250">
        <ele>2636.8</ele>
        <time>2018-08-10T14:42:33Z</time>
      </trkpt>
      <trkpt lat="4.6760420" lon="-74.3170080">
        <ele>2636.8</ele>
        <time>2018-08-10T14:42:34Z</time>
      </trkpt>
      <trkpt lat="4.6760770" lon="-74.3169900">
        <ele>2636.7</ele>
        <time>2018-08-10T14:42:35Z</time>
      </trkpt>
      <trkpt lat="4.6761100" lon="-74.3169770">
        <ele>2636.7</ele>
        <time>2018-08-10T14:42:36Z</time>
      </trkpt>
      <trkpt lat="4.6761420" lon="-74.3169600">
        <ele>2636.7</ele>
        <time>2018-08-10T14:42:37Z</time>
      </trkpt>
      <trkpt lat="4.6761780" lon="-74.3169430">
        <ele>2636.7</ele>
        <time>2018-08-10T14:42:38Z</time>
      </trkpt>
      <trkpt lat="4.6762130" lon="-74.3169280">
        <ele>2636.7</ele>
        <time>2018-08-10T14:42:39Z</time>
      </trkpt>
      <trkpt lat="4.6762470" lon="-74.3169150">
        <ele>2636.7</ele>
        <time>2018-08-10T14:42:40Z</time>
      </trkpt>
      <trkpt lat="4.6762770" lon="-74.3168970">
        <ele>2636.7</ele>
        <time>2018-08-10T14:42:41Z</time>
      </trkpt>
      <trkpt lat="4.6763070" lon="-74.3168750">
        <ele>2636.7</ele>
        <time>2018-08-10T14:42:42Z</time>
      </trkpt>
      <trkpt lat="4.6763350" lon="-74.3168530">
        <ele>2636.7</ele>
        <time>2018-08-10T14:42:43Z</time>
      </trkpt>
      <trkpt lat="4.6763650" lon="-74.3168320">
        <ele>2636.7</ele>
        <time>2018-08-10T14:42:44Z</time>
      </trkpt>
      <trkpt lat="4.6763980" lon="-74.3168130">
        <ele>2636.7</ele>
        <time>2018-08-10T14:42:45Z</time>
      </trkpt>
      <trkpt lat="4.6764280" lon="-74.3167930">
        <ele>2636.8</ele>
        <time>2018-08-10T14:42:46Z</time>
      </trkpt>
      <trkpt lat="4.6764580" lon="-74.3167720">
        <ele>2636.8</ele>
        <time>2018-08-10T14:42:47Z</time>
      </trkpt>
      <trkpt lat="4.6764850" lon="-74.3167500">
        <ele>2636.8</ele>
        <time>2018-08-10T14:42:48Z</time>
      </trkpt>
      <trkpt lat="4.6765080" lon="-74.3167330">
        <ele>2636.8</ele>
        <time>2018-08-10T14:42:49Z</time>
      </trkpt>
      <trkpt lat="4.6765370" lon="-74.3167080">
        <ele>2636.9</ele>
        <time>2018-08-10T14:42:51Z</time>
      </trkpt>
      <trkpt lat="4.6765770" lon="-74.3166820">
        <ele>2636.9</ele>
        <time>2018-08-10T14:43:37Z</time>
      </trkpt>
      <trkpt lat="4.6766030" lon="-74.3166550">
        <ele>2637.0</ele>
        <time>2018-08-10T14:43:39Z</time>
      </trkpt>
      <trkpt lat="4.6766550" lon="-74.3166350">
        <ele>2633.8</ele>
        <time>2018-08-10T14:43:41Z</time>
      </trkpt>
      <trkpt lat="4.6767020" lon="-74.3166170">
        <ele>2630.4</ele>
        <time>2018-08-10T14:43:43Z</time>
      </trkpt>
      <trkpt lat="4.6767480" lon="-74.3166000">
        <ele>2627.2</ele>
        <time>2018-08-10T14:43:45Z</time>
      </trkpt>
      <trkpt lat="4.6767970" lon="-74.3166000">
        <ele>2623.9</ele>
        <time>2018-08-10T14:43:47Z</time>
      </trkpt>
      <trkpt lat="4.6768500" lon="-74.3165950">
        <ele>2620.3</ele>
        <time>2018-08-10T14:43:49Z</time>
      </trkpt>
      <trkpt lat="4.6769030" lon="-74.3165970">
        <ele>2616.8</ele>
        <time>2018-08-10T14:43:51Z</time>
      </trkpt>
      <trkpt lat="4.6769320" lon="-74.3166000">
        <ele>2615.0</ele>
        <time>2018-08-10T14:43:52Z</time>
      </trkpt>
      <trkpt lat="4.6769870" lon="-74.3166030">
        <ele>2614.6</ele>
        <time>2018-08-10T14:43:54Z</time>
      </trkpt>
      <trkpt lat="4.6770130" lon="-74.3166120">
        <ele>2614.5</ele>
        <time>2018-08-10T14:43:55Z</time>
      </trkpt>
      <trkpt lat="4.6770580" lon="-74.3166380">
        <ele>2614.1</ele>
        <time>2018-08-10T14:43:57Z</time>
      </trkpt>
      <trkpt lat="4.6771030" lon="-74.3166550">
        <ele>2613.8</ele>
        <time>2018-08-10T14:43:59Z</time>
      </trkpt>
      <trkpt lat="4.6771550" lon="-74.3166680">
        <ele>2613.6</ele>
        <time>2018-08-10T14:44:01Z</time>
      </trkpt>
      <trkpt lat="4.6771830" lon="-74.3166780">
        <ele>2613.5</ele>
        <time>2018-08-10T14:44:02Z</time>
      </trkpt>
      <trkpt lat="4.6772080" lon="-74.3166900">
        <ele>2613.5</ele>
        <time>2018-08-10T14:44:03Z</time>
      </trkpt>
      <trkpt lat="4.6772330" lon="-74.3167030">
        <ele>2613.4</ele>
        <time>2018-08-10T14:44:04Z</time>
      </trkpt>
      <trkpt lat="4.6772600" lon="-74.3167180">
        <ele>2613.4</ele>
        <time>2018-08-10T14:44:05Z</time>
      </trkpt>
      <trkpt lat="4.6772880" lon="-74.3167320">
        <ele>2613.4</ele>
        <time>2018-08-10T14:44:06Z</time>
      </trkpt>
      <trkpt lat="4.6773170" lon="-74.3167430">
        <ele>2613.4</ele>
        <time>2018-08-10T14:44:07Z</time>
      </trkpt>
      <trkpt lat="4.6773470" lon="-74.3167570">
        <ele>2613.4</ele>
        <time>2018-08-10T14:44:08Z</time>
      </trkpt>
      <trkpt lat="4.6773770" lon="-74.3167680">
        <ele>2613.3</ele>
        <time>2018-08-10T14:44:09Z</time>
      </trkpt>
      <trkpt lat="4.6774070" lon="-74.3167820">
        <ele>2613.3</ele>
        <time>2018-08-10T14:44:10Z</time>
      </trkpt>
      <trkpt lat="4.6774370" lon="-74.3167970">
        <ele>2613.3</ele>
        <time>2018-08-10T14:44:11Z</time>
      </trkpt>
      <trkpt lat="4.6774650" lon="-74.3168120">
        <ele>2613.3</ele>
        <time>2018-08-10T14:44:12Z</time>
      </trkpt>
      <trkpt lat="4.6774920" lon="-74.3168250">
        <ele>2613.3</ele>
        <time>2018-08-10T14:44:13Z</time>
      </trkpt>
      <trkpt lat="4.6775230" lon="-74.3168400">
        <ele>2613.3</ele>
        <time>2018-08-10T14:44:14Z</time>
      </trkpt>
      <trkpt lat="4.6775530" lon="-74.3168580">
        <ele>2613.3</ele>
        <time>2018-08-10T14:44:15Z</time>
      </trkpt>
      <trkpt lat="4.6775820" lon="-74.3168800">
        <ele>2613.4</ele>
        <time>2018-08-10T14:44:16Z</time>
      </trkpt>
      <trkpt lat="4.6776120" lon="-74.3168970">
        <ele>2613.4</ele>
        <time>2018-08-10T14:44:17Z</time>
      </trkpt>
      <trkpt lat="4.6776470" lon="-74.3169170">
        <ele>2613.4</ele>
        <time>2018-08-10T14:44:18Z</time>
      </trkpt>
      <trkpt lat="4.6776870" lon="-74.3169400">
        <ele>2613.4</ele>
        <time>2018-08-10T14:44:19Z</time>
      </trkpt>
      <trkpt lat="4.6777280" lon="-74.3169600">
        <ele>2613.4</ele>
        <time>2018-08-10T14:44:20Z</time>
      </trkpt>
      <trkpt lat="4.6777720" lon="-74.3169820">
        <ele>2613.4</ele>
        <time>2018-08-10T14:44:21Z</time>
      </trkpt>
      <trkpt lat="4.6778170" lon="-74.3170100">
        <ele>2613.4</ele>
        <time>2018-08-10T14:44:22Z</time>
      </trkpt>
      <trkpt lat="4.6778620" lon="-74.3170400">
        <ele>2613.4</ele>
        <time>2018-08-10T14:44:23Z</time>
      </trkpt>
      <trkpt lat="4.6779050" lon="-74.3170680">
        <ele>2613.4</ele>
        <time>2018-08-10T14:44:24Z</time>
      </trkpt>
      <trkpt lat="4.6779480" lon="-74.3170920">
        <ele>2613.3</ele>
        <time>2018-08-10T14:44:25Z</time>
      </trkpt>
      <trkpt lat="4.6779920" lon="-74.3171100">
        <ele>2613.3</ele>
        <time>2018-08-10T14:44:26Z</time>
      </trkpt>
      <trkpt lat="4.6780370" lon="-74.3171270">
        <ele>2613.3</ele>
        <time>2018-08-10T14:44:27Z</time>
      </trkpt>
      <trkpt lat="4.6780800" lon="-74.3171430">
        <ele>2613.3</ele>
        <time>2018-08-10T14:44:28Z</time>
      </trkpt>
      <trkpt lat="4.6781200" lon="-74.3171600">
        <ele>2613.2</ele>
        <time>2018-08-10T14:44:29Z</time>
      </trkpt>
      <trkpt lat="4.6781600" lon="-74.3171750">
        <ele>2613.2</ele>
        <time>2018-08-10T14:44:30Z</time>
      </trkpt>
      <trkpt lat="4.6781970" lon="-74.3171930">
        <ele>2613.1</ele>
        <time>2018-08-10T14:44:31Z</time>
      </trkpt>
      <trkpt lat="4.6782320" lon="-74.3172130">
        <ele>2613.1</ele>
        <time>2018-08-10T14:44:32Z</time>
      </trkpt>
      <trkpt lat="4.6782650" lon="-74.3172330">
        <ele>2613.0</ele>
        <time>2018-08-10T14:44:33Z</time>
      </trkpt>
      <trkpt lat="4.6782980" lon="-74.3172480">
        <ele>2613.0</ele>
        <time>2018-08-10T14:44:34Z</time>
      </trkpt>
      <trkpt lat="4.6783320" lon="-74.3172630">
        <ele>2612.9</ele>
        <time>2018-08-10T14:44:35Z</time>
      </trkpt>
      <trkpt lat="4.6783650" lon="-74.3172820">
        <ele>2612.8</ele>
        <time>2018-08-10T14:44:36Z</time>
      </trkpt>
      <trkpt lat="4.6783970" lon="-74.3172980">
        <ele>2612.7</ele>
        <time>2018-08-10T14:44:37Z</time>
      </trkpt>
      <trkpt lat="4.6784270" lon="-74.3173100">
        <ele>2612.6</ele>
        <time>2018-08-10T14:44:38Z</time>
      </trkpt>
      <trkpt lat="4.6784580" lon="-74.3173230">
        <ele>2612.5</ele>
        <time>2018-08-10T14:44:39Z</time>
      </trkpt>
      <trkpt lat="4.6784920" lon="-74.3173350">
        <ele>2612.4</ele>
        <time>2018-08-10T14:44:40Z</time>
      </trkpt>
      <trkpt lat="4.6785220" lon="-74.3173430">
        <ele>2612.3</ele>
        <time>2018-08-10T14:44:41Z</time>
      </trkpt>
      <trkpt lat="4.6785520" lon="-74.3173530">
        <ele>2612.2</ele>
        <time>2018-08-10T14:44:42Z</time>
      </trkpt>
      <trkpt lat="4.6785800" lon="-74.3173620">
        <ele>2612.2</ele>
        <time>2018-08-10T14:44:43Z</time>
      </trkpt>
      <trkpt lat="4.6786120" lon="-74.3173730">
        <ele>2612.1</ele>
        <time>2018-08-10T14:44:44Z</time>
      </trkpt>
      <trkpt lat="4.6786400" lon="-74.3173850">
        <ele>2612.1</ele>
        <time>2018-08-10T14:44:45Z</time>
      </trkpt>
      <trkpt lat="4.6786650" lon="-74.3174000">
        <ele>2612.1</ele>
        <time>2018-08-10T14:44:46Z</time>
      </trkpt>
      <trkpt lat="4.6786930" lon="-74.3174130">
        <ele>2612.1</ele>
        <time>2018-08-10T14:44:47Z</time>
      </trkpt>
      <trkpt lat="4.6787380" lon="-74.3174330">
        <ele>2612.1</ele>
        <time>2018-08-10T14:44:49Z</time>
      </trkpt>
      <trkpt lat="4.6787880" lon="-74.3174550">
        <ele>2612.0</ele>
        <time>2018-08-10T14:44:51Z</time>
      </trkpt>
      <trkpt lat="4.6788170" lon="-74.3174670">
        <ele>2612.0</ele>
        <time>2018-08-10T14:44:52Z</time>
      </trkpt>
      <trkpt lat="4.6788450" lon="-74.3174820">
        <ele>2612.0</ele>
        <time>2018-08-10T14:44:53Z</time>
      </trkpt>
      <trkpt lat="4.6788720" lon="-74.3174970">
        <ele>2612.0</ele>
        <time>2018-08-10T14:44:54Z</time>
      </trkpt>
      <trkpt lat="4.6789000" lon="-74.3175100">
        <ele>2612.0</ele>
        <time>2018-08-10T14:44:55Z</time>
      </trkpt>
      <trkpt lat="4.6789270" lon="-74.3175270">
        <ele>2612.0</ele>
        <time>2018-08-10T14:44:56Z</time>
      </trkpt>
      <trkpt lat="4.6789530" lon="-74.3175400">
        <ele>2612.0</ele>
        <time>2018-08-10T14:44:57Z</time>
      </trkpt>
      <trkpt lat="4.6789820" lon="-74.3175500">
        <ele>2612.0</ele>
        <time>2018-08-10T14:44:58Z</time>
      </trkpt>
      <trkpt lat="4.6790120" lon="-74.3175600">
        <ele>2611.9</ele>
        <time>2018-08-10T14:44:59Z</time>
      </trkpt>
      <trkpt lat="4.6790400" lon="-74.3175720">
        <ele>2611.9</ele>
        <time>2018-08-10T14:45:00Z</time>
      </trkpt>
      <trkpt lat="4.6790700" lon="-74.3175870">
        <ele>2611.9</ele>
        <time>2018-08-10T14:45:01Z</time>
      </trkpt>
      <trkpt lat="4.6790980" lon="-74.3175950">
        <ele>2611.9</ele>
        <time>2018-08-10T14:45:02Z</time>
      </trkpt>
      <trkpt lat="4.6791280" lon="-74.3175930">
        <ele>2611.9</ele>
        <time>2018-08-10T14:45:03Z</time>
      </trkpt>
      <trkpt lat="4.6791580" lon="-74.3175920">
        <ele>2611.9</ele>
        <time>2018-08-10T14:45:04Z</time>
      </trkpt>
      <trkpt lat="4.6791930" lon="-74.3175880">
        <ele>2611.9</ele>
        <time>2018-08-10T14:45:05Z</time>
      </trkpt>
      <trkpt lat="4.6792230" lon="-74.3175800">
        <ele>2611.9</ele>
        <time>2018-08-10T14:45:06Z</time>
      </trkpt>
      <trkpt lat="4.6792550" lon="-74.3175700">
        <ele>2611.9</ele>
        <time>2018-08-10T14:45:07Z</time>
      </trkpt>
      <trkpt lat="4.6792850" lon="-74.3175620">
        <ele>2611.9</ele>
        <time>2018-08-10T14:45:08Z</time>
      </trkpt>
      <trkpt lat="4.6793120" lon="-74.3175520">
        <ele>2611.9</ele>
        <time>2018-08-10T14:45:09Z</time>
      </trkpt>
      <trkpt lat="4.6793350" lon="-74.3175370">
        <ele>2611.8</ele>
        <time>2018-08-10T14:45:10Z</time>
      </trkpt>
      <trkpt lat="4.6793570" lon="-74.3175180">
        <ele>2611.8</ele>
        <time>2018-08-10T14:45:11Z</time>
      </trkpt>
      <trkpt lat="4.6793780" lon="-74.3174980">
        <ele>2611.8</ele>
        <time>2018-08-10T14:45:12Z</time>
      </trkpt>
      <trkpt lat="4.6794020" lon="-74.3174800">
        <ele>2611.8</ele>
        <time>2018-08-10T14:45:13Z</time>
      </trkpt>
      <trkpt lat="4.6794270" lon="-74.3174670">
        <ele>2611.8</ele>
        <time>2018-08-10T14:45:14Z</time>
      </trkpt>
      <trkpt lat="4.6794530" lon="-74.3174550">
        <ele>2611.8</ele>
        <time>2018-08-10T14:45:15Z</time>
      </trkpt>
      <trkpt lat="4.6794820" lon="-74.3174420">
        <ele>2611.8</ele>
        <time>2018-08-10T14:45:16Z</time>
      </trkpt>
      <trkpt lat="4.6795100" lon="-74.3174280">
        <ele>2611.8</ele>
        <time>2018-08-10T14:45:17Z</time>
      </trkpt>
      <trkpt lat="4.6795380" lon="-74.3174170">
        <ele>2611.8</ele>
        <time>2018-08-10T14:45:18Z</time>
      </trkpt>
      <trkpt lat="4.6795670" lon="-74.3174050">
        <ele>2611.8</ele>
        <time>2018-08-10T14:45:19Z</time>
      </trkpt>
      <trkpt lat="4.6795950" lon="-74.3173900">
        <ele>2611.7</ele>
        <time>2018-08-10T14:45:20Z</time>
      </trkpt>
      <trkpt lat="4.6796220" lon="-74.3173770">
        <ele>2611.7</ele>
        <time>2018-08-10T14:45:21Z</time>
      </trkpt>
      <trkpt lat="4.6796500" lon="-74.3173670">
        <ele>2611.7</ele>
        <time>2018-08-10T14:45:22Z</time>
      </trkpt>
      <trkpt lat="4.6796800" lon="-74.3173570">
        <ele>2611.7</ele>
        <time>2018-08-10T14:45:23Z</time>
      </trkpt>
      <trkpt lat="4.6797130" lon="-74.3173530">
        <ele>2611.6</ele>
        <time>2018-08-10T14:45:24Z</time>
      </trkpt>
      <trkpt lat="4.6797470" lon="-74.3173530">
        <ele>2611.6</ele>
        <time>2018-08-10T14:45:25Z</time>
      </trkpt>
      <trkpt lat="4.6797800" lon="-74.3173550">
        <ele>2611.6</ele>
        <time>2018-08-10T14:45:26Z</time>
      </trkpt>
      <trkpt lat="4.6798130" lon="-74.3173570">
        <ele>2611.5</ele>
        <time>2018-08-10T14:45:27Z</time>
      </trkpt>
      <trkpt lat="4.6798450" lon="-74.3173600">
        <ele>2611.4</ele>
        <time>2018-08-10T14:45:28Z</time>
      </trkpt>
      <trkpt lat="4.6798780" lon="-74.3173670">
        <ele>2611.4</ele>
        <time>2018-08-10T14:45:29Z</time>
      </trkpt>
      <trkpt lat="4.6799100" lon="-74.3173750">
        <ele>2611.3</ele>
        <time>2018-08-10T14:45:30Z</time>
      </trkpt>
      <trkpt lat="4.6799400" lon="-74.3173800">
        <ele>2611.2</ele>
        <time>2018-08-10T14:45:31Z</time>
      </trkpt>
      <trkpt lat="4.6799720" lon="-74.3173850">
        <ele>2611.1</ele>
        <time>2018-08-10T14:45:32Z</time>
      </trkpt>
      <trkpt lat="4.6800020" lon="-74.3173850">
        <ele>2611.0</ele>
        <time>2018-08-10T14:45:33Z</time>
      </trkpt>
      <trkpt lat="4.6800300" lon="-74.3173850">
        <ele>2611.0</ele>
        <time>2018-08-10T14:45:34Z</time>
      </trkpt>
      <trkpt lat="4.6800570" lon="-74.3173800">
        <ele>2610.9</ele>
        <time>2018-08-10T14:45:35Z</time>
      </trkpt>
      <trkpt lat="4.6801100" lon="-74.3173780">
        <ele>2610.8</ele>
        <time>2018-08-10T14:45:37Z</time>
      </trkpt>
      <trkpt lat="4.6801620" lon="-74.3173850">
        <ele>2610.8</ele>
        <time>2018-08-10T14:45:39Z</time>
      </trkpt>
      <trkpt lat="4.6801880" lon="-74.3173920">
        <ele>2610.8</ele>
        <time>2018-08-10T14:45:40Z</time>
      </trkpt>
      <trkpt lat="4.6802180" lon="-74.3173930">
        <ele>2610.8</ele>
        <time>2018-08-10T14:45:41Z</time>
      </trkpt>
      <trkpt lat="4.6802470" lon="-74.3173950">
        <ele>2610.8</ele>
        <time>2018-08-10T14:45:42Z</time>
      </trkpt>
      <trkpt lat="4.6802750" lon="-74.3173970">
        <ele>2610.8</ele>
        <time>2018-08-10T14:45:43Z</time>
      </trkpt>
      <trkpt lat="4.6803280" lon="-74.3173930">
        <ele>2610.8</ele>
        <time>2018-08-10T14:45:45Z</time>
      </trkpt>
      <trkpt lat="4.6803570" lon="-74.3173930">
        <ele>2610.8</ele>
        <time>2018-08-10T14:45:46Z</time>
      </trkpt>
      <trkpt lat="4.6803880" lon="-74.3173970">
        <ele>2610.8</ele>
        <time>2018-08-10T14:45:47Z</time>
      </trkpt>
      <trkpt lat="4.6804180" lon="-74.3174000">
        <ele>2610.8</ele>
        <time>2018-08-10T14:45:48Z</time>
      </trkpt>
      <trkpt lat="4.6804480" lon="-74.3174020">
        <ele>2610.8</ele>
        <time>2018-08-10T14:45:49Z</time>
      </trkpt>
      <trkpt lat="4.6804780" lon="-74.3174020">
        <ele>2610.8</ele>
        <time>2018-08-10T14:45:50Z</time>
      </trkpt>
      <trkpt lat="4.6805080" lon="-74.3174070">
        <ele>2610.8</ele>
        <time>2018-08-10T14:45:51Z</time>
      </trkpt>
      <trkpt lat="4.6805370" lon="-74.3174100">
        <ele>2610.8</ele>
        <time>2018-08-10T14:45:52Z</time>
      </trkpt>
      <trkpt lat="4.6805900" lon="-74.3174180">
        <ele>2610.8</ele>
        <time>2018-08-10T14:45:54Z</time>
      </trkpt>
      <trkpt lat="4.6806200" lon="-74.3174270">
        <ele>2610.8</ele>
        <time>2018-08-10T14:45:55Z</time>
      </trkpt>
      <trkpt lat="4.6806450" lon="-74.3174380">
        <ele>2610.8</ele>
        <time>2018-08-10T14:45:56Z</time>
      </trkpt>
      <trkpt lat="4.6806900" lon="-74.3174680">
        <ele>2610.9</ele>
        <time>2018-08-10T14:45:58Z</time>
      </trkpt>
      <trkpt lat="4.6807350" lon="-74.3174870">
        <ele>2610.9</ele>
        <time>2018-08-10T14:46:00Z</time>
      </trkpt>
      <trkpt lat="4.6807770" lon="-74.3175030">
        <ele>2610.9</ele>
        <time>2018-08-10T14:46:02Z</time>
      </trkpt>
      <trkpt lat="4.6808150" lon="-74.3175300">
        <ele>2610.9</ele>
        <time>2018-08-10T14:46:04Z</time>
      </trkpt>
      <trkpt lat="4.6808520" lon="-74.3175430">
        <ele>2611.0</ele>
        <time>2018-08-10T14:46:06Z</time>
      </trkpt>
      <trkpt lat="4.6808800" lon="-74.3175470">
        <ele>2611.1</ele>
        <time>2018-08-10T14:46:08Z</time>
      </trkpt>
      <trkpt lat="4.6809120" lon="-74.3175800">
        <ele>2611.2</ele>
        <time>2018-08-10T14:46:52Z</time>
      </trkpt>
      <trkpt lat="4.6809550" lon="-74.3176000">
        <ele>2611.3</ele>
        <time>2018-08-10T14:46:54Z</time>
      </trkpt>
      <trkpt lat="4.6809830" lon="-74.3176150">
        <ele>2611.3</ele>
        <time>2018-08-10T14:46:55Z</time>
      </trkpt>
      <trkpt lat="4.6810150" lon="-74.3176320">
        <ele>2611.4</ele>
        <time>2018-08-10T14:46:56Z</time>
      </trkpt>
      <trkpt lat="4.6810520" lon="-74.3176500">
        <ele>2611.5</ele>
        <time>2018-08-10T14:46:57Z</time>
      </trkpt>
      <trkpt lat="4.6810900" lon="-74.3176720">
        <ele>2611.6</ele>
        <time>2018-08-10T14:46:58Z</time>
      </trkpt>
      <trkpt lat="4.6811300" lon="-74.3176950">
        <ele>2611.7</ele>
        <time>2018-08-10T14:46:59Z</time>
      </trkpt>
      <trkpt lat="4.6811730" lon="-74.3177170">
        <ele>2611.9</ele>
        <time>2018-08-10T14:47:00Z</time>
      </trkpt>
      <trkpt lat="4.6812170" lon="-74.3177380">
        <ele>2612.2</ele>
        <time>2018-08-10T14:47:01Z</time>
      </trkpt>
      <trkpt lat="4.6812600" lon="-74.3177650">
        <ele>2612.4</ele>
        <time>2018-08-10T14:47:02Z</time>
      </trkpt>
      <trkpt lat="4.6812980" lon="-74.3177950">
        <ele>2612.6</ele>
        <time>2018-08-10T14:47:03Z</time>
      </trkpt>
      <trkpt lat="4.6813400" lon="-74.3178230">
        <ele>2612.7</ele>
        <time>2018-08-10T14:47:04Z</time>
      </trkpt>
      <trkpt lat="4.6813830" lon="-74.3178480">
        <ele>2612.8</ele>
        <time>2018-08-10T14:47:05Z</time>
      </trkpt>
      <trkpt lat="4.6814270" lon="-74.3178750">
        <ele>2612.8</ele>
        <time>2018-08-10T14:47:06Z</time>
      </trkpt>
      <trkpt lat="4.6814700" lon="-74.3179030">
        <ele>2612.9</ele>
        <time>2018-08-10T14:47:07Z</time>
      </trkpt>
      <trkpt lat="4.6815170" lon="-74.3179280">
        <ele>2612.9</ele>
        <time>2018-08-10T14:47:08Z</time>
      </trkpt>
      <trkpt lat="4.6815650" lon="-74.3179550">
        <ele>2612.9</ele>
        <time>2018-08-10T14:47:09Z</time>
      </trkpt>
      <trkpt lat="4.6816130" lon="-74.3179820">
        <ele>2612.9</ele>
        <time>2018-08-10T14:47:10Z</time>
      </trkpt>
      <trkpt lat="4.6816620" lon="-74.3180120">
        <ele>2612.9</ele>
        <time>2018-08-10T14:47:11Z</time>
      </trkpt>
      <trkpt lat="4.6817120" lon="-74.3180430">
        <ele>2612.9</ele>
        <time>2018-08-10T14:47:12Z</time>
      </trkpt>
      <trkpt lat="4.6817650" lon="-74.3180750">
        <ele>2612.8</ele>
        <time>2018-08-10T14:47:13Z</time>
      </trkpt>
      <trkpt lat="4.6818170" lon="-74.3181080">
        <ele>2612.7</ele>
        <time>2018-08-10T14:47:14Z</time>
      </trkpt>
      <trkpt lat="4.6818630" lon="-74.3181450">
        <ele>2612.6</ele>
        <time>2018-08-10T14:47:15Z</time>
      </trkpt>
      <trkpt lat="4.6819050" lon="-74.3181830">
        <ele>2612.4</ele>
        <time>2018-08-10T14:47:16Z</time>
      </trkpt>
      <trkpt lat="4.6819470" lon="-74.3182220">
        <ele>2612.2</ele>
        <time>2018-08-10T14:47:17Z</time>
      </trkpt>
      <trkpt lat="4.6819870" lon="-74.3182600">
        <ele>2612.1</ele>
        <time>2018-08-10T14:47:18Z</time>
      </trkpt>
      <trkpt lat="4.6820270" lon="-74.3182950">
        <ele>2612.3</ele>
        <time>2018-08-10T14:47:19Z</time>
      </trkpt>
      <trkpt lat="4.6820670" lon="-74.3183330">
        <ele>2612.6</ele>
        <time>2018-08-10T14:47:20Z</time>
      </trkpt>
      <trkpt lat="4.6821100" lon="-74.3183670">
        <ele>2613.0</ele>
        <time>2018-08-10T14:47:21Z</time>
      </trkpt>
      <trkpt lat="4.6821570" lon="-74.3184000">
        <ele>2613.3</ele>
        <time>2018-08-10T14:47:22Z</time>
      </trkpt>
      <trkpt lat="4.6822070" lon="-74.3184320">
        <ele>2613.7</ele>
        <time>2018-08-10T14:47:23Z</time>
      </trkpt>
      <trkpt lat="4.6822550" lon="-74.3184630">
        <ele>2614.0</ele>
        <time>2018-08-10T14:47:24Z</time>
      </trkpt>
      <trkpt lat="4.6823030" lon="-74.3184970">
        <ele>2614.4</ele>
        <time>2018-08-10T14:47:25Z</time>
      </trkpt>
      <trkpt lat="4.6823480" lon="-74.3185280">
        <ele>2614.7</ele>
        <time>2018-08-10T14:47:26Z</time>
      </trkpt>
      <trkpt lat="4.6823930" lon="-74.3185630">
        <ele>2615.0</ele>
        <time>2018-08-10T14:47:27Z</time>
      </trkpt>
      <trkpt lat="4.6824380" lon="-74.3186000">
        <ele>2615.3</ele>
        <time>2018-08-10T14:47:28Z</time>
      </trkpt>
      <trkpt lat="4.6824820" lon="-74.3186370">
        <ele>2615.6</ele>
        <time>2018-08-10T14:47:29Z</time>
      </trkpt>
      <trkpt lat="4.6825230" lon="-74.3186730">
        <ele>2615.9</ele>
        <time>2018-08-10T14:47:30Z</time>
      </trkpt>
      <trkpt lat="4.6825670" lon="-74.3187080">
        <ele>2616.2</ele>
        <time>2018-08-10T14:47:31Z</time>
      </trkpt>
      <trkpt lat="4.6826080" lon="-74.3187400">
        <ele>2616.4</ele>
        <time>2018-08-10T14:47:32Z</time>
      </trkpt>
      <trkpt lat="4.6826480" lon="-74.3187700">
        <ele>2616.6</ele>
        <time>2018-08-10T14:47:33Z</time>
      </trkpt>
      <trkpt lat="4.6826870" lon="-74.3187970">
        <ele>2616.7</ele>
        <time>2018-08-10T14:47:34Z</time>
      </trkpt>
      <trkpt lat="4.6827220" lon="-74.3188220">
        <ele>2616.8</ele>
        <time>2018-08-10T14:47:35Z</time>
      </trkpt>
      <trkpt lat="4.6827570" lon="-74.3188520">
        <ele>2616.9</ele>
        <time>2018-08-10T14:47:36Z</time>
      </trkpt>
      <trkpt lat="4.6827880" lon="-74.3188770">
        <ele>2617.0</ele>
        <time>2018-08-10T14:47:37Z</time>
      </trkpt>
      <trkpt lat="4.6828220" lon="-74.3189020">
        <ele>2617.0</ele>
        <time>2018-08-10T14:47:38Z</time>
      </trkpt>
      <trkpt lat="4.6828580" lon="-74.3189330">
        <ele>2617.1</ele>
        <time>2018-08-10T14:47:39Z</time>
      </trkpt>
      <trkpt lat="4.6828930" lon="-74.3189730">
        <ele>2617.3</ele>
        <time>2018-08-10T14:47:40Z</time>
      </trkpt>
      <trkpt lat="4.6829300" lon="-74.3190180">
        <ele>2617.4</ele>
        <time>2018-08-10T14:47:41Z</time>
      </trkpt>
      <trkpt lat="4.6829700" lon="-74.3190720">
        <ele>2617.5</ele>
        <time>2018-08-10T14:47:42Z</time>
      </trkpt>
      <trkpt lat="4.6830120" lon="-74.3191250">
        <ele>2617.7</ele>
        <time>2018-08-10T14:47:43Z</time>
      </trkpt>
      <trkpt lat="4.6830530" lon="-74.3191780">
        <ele>2617.8</ele>
        <time>2018-08-10T14:47:44Z</time>
      </trkpt>
      <trkpt lat="4.6830920" lon="-74.3192280">
        <ele>2618.1</ele>
        <time>2018-08-10T14:47:45Z</time>
      </trkpt>
      <trkpt lat="4.6831320" lon="-74.3192770">
        <ele>2618.3</ele>
        <time>2018-08-10T14:47:46Z</time>
      </trkpt>
      <trkpt lat="4.6831730" lon="-74.3193200">
        <ele>2618.5</ele>
        <time>2018-08-10T14:47:47Z</time>
      </trkpt>
      <trkpt lat="4.6832120" lon="-74.3193650">
        <ele>2618.8</ele>
        <time>2018-08-10T14:47:48Z</time>
      </trkpt>
      <trkpt lat="4.6832450" lon="-74.3194020">
        <ele>2619.0</ele>
        <time>2018-08-10T14:47:49Z</time>
      </trkpt>
      <trkpt lat="4.6832680" lon="-74.3194280">
        <ele>2619.1</ele>
        <time>2018-08-10T14:47:50Z</time>
      </trkpt>
      <trkpt lat="4.6832870" lon="-74.3194550">
        <ele>2619.2</ele>
        <time>2018-08-10T14:47:51Z</time>
      </trkpt>
      <trkpt lat="4.6833020" lon="-74.3194920">
        <ele>2619.3</ele>
        <time>2018-08-10T14:47:52Z</time>
      </trkpt>
      <trkpt lat="4.6833170" lon="-74.3195320">
        <ele>2619.3</ele>
        <time>2018-08-10T14:47:53Z</time>
      </trkpt>
      <trkpt lat="4.6833330" lon="-74.3195750">
        <ele>2619.4</ele>
        <time>2018-08-10T14:47:54Z</time>
      </trkpt>
      <trkpt lat="4.6833550" lon="-74.3196230">
        <ele>2619.5</ele>
        <time>2018-08-10T14:47:55Z</time>
      </trkpt>
      <trkpt lat="4.6833770" lon="-74.3196770">
        <ele>2619.7</ele>
        <time>2018-08-10T14:47:56Z</time>
      </trkpt>
      <trkpt lat="4.6834020" lon="-74.3197350">
        <ele>2619.8</ele>
        <time>2018-08-10T14:47:57Z</time>
      </trkpt>
      <trkpt lat="4.6834320" lon="-74.3197870">
        <ele>2619.9</ele>
        <time>2018-08-10T14:47:58Z</time>
      </trkpt>
      <trkpt lat="4.6834650" lon="-74.3198370">
        <ele>2619.9</ele>
        <time>2018-08-10T14:47:59Z</time>
      </trkpt>
      <trkpt lat="4.6834970" lon="-74.3198830">
        <ele>2620.0</ele>
        <time>2018-08-10T14:48:00Z</time>
      </trkpt>
      <trkpt lat="4.6835270" lon="-74.3199320">
        <ele>2620.0</ele>
        <time>2018-08-10T14:48:01Z</time>
      </trkpt>
      <trkpt lat="4.6835580" lon="-74.3199820">
        <ele>2620.1</ele>
        <time>2018-08-10T14:48:02Z</time>
      </trkpt>
      <trkpt lat="4.6835920" lon="-74.3200300">
        <ele>2620.1</ele>
        <time>2018-08-10T14:48:03Z</time>
      </trkpt>
      <trkpt lat="4.6836320" lon="-74.3200870">
        <ele>2620.2</ele>
        <time>2018-08-10T14:48:04Z</time>
      </trkpt>
      <trkpt lat="4.6836720" lon="-74.3201350">
        <ele>2620.2</ele>
        <time>2018-08-10T14:48:05Z</time>
      </trkpt>
      <trkpt lat="4.6837130" lon="-74.3201880">
        <ele>2620.3</ele>
        <time>2018-08-10T14:48:06Z</time>
      </trkpt>
      <trkpt lat="4.6837500" lon="-74.3202420">
        <ele>2620.4</ele>
        <time>2018-08-10T14:48:07Z</time>
      </trkpt>
      <trkpt lat="4.6837930" lon="-74.3202930">
        <ele>2620.4</ele>
        <time>2018-08-10T14:48:08Z</time>
      </trkpt>
      <trkpt lat="4.6838350" lon="-74.3203530">
        <ele>2620.5</ele>
        <time>2018-08-10T14:48:09Z</time>
      </trkpt>
      <trkpt lat="4.6838720" lon="-74.3204030">
        <ele>2620.7</ele>
        <time>2018-08-10T14:48:10Z</time>
      </trkpt>
      <trkpt lat="4.6839100" lon="-74.3204570">
        <ele>2620.9</ele>
        <time>2018-08-10T14:48:11Z</time>
      </trkpt>
      <trkpt lat="4.6839500" lon="-74.3205120">
        <ele>2621.2</ele>
        <time>2018-08-10T14:48:12Z</time>
      </trkpt>
      <trkpt lat="4.6839830" lon="-74.3205680">
        <ele>2621.4</ele>
        <time>2018-08-10T14:48:13Z</time>
      </trkpt>
      <trkpt lat="4.6840220" lon="-74.3206230">
        <ele>2621.7</ele>
        <time>2018-08-10T14:48:14Z</time>
      </trkpt>
      <trkpt lat="4.6840620" lon="-74.3206820">
        <ele>2621.9</ele>
        <time>2018-08-10T14:48:15Z</time>
      </trkpt>
      <trkpt lat="4.6841030" lon="-74.3207420">
        <ele>2622.1</ele>
        <time>2018-08-10T14:48:16Z</time>
      </trkpt>
      <trkpt lat="4.6841420" lon="-74.3207980">
        <ele>2622.2</ele>
        <time>2018-08-10T14:48:17Z</time>
      </trkpt>
      <trkpt lat="4.6841850" lon="-74.3208600">
        <ele>2622.4</ele>
        <time>2018-08-10T14:48:18Z</time>
      </trkpt>
      <trkpt lat="4.6842270" lon="-74.3209200">
        <ele>2622.5</ele>
        <time>2018-08-10T14:48:19Z</time>
      </trkpt>
      <trkpt lat="4.6842680" lon="-74.3209780">
        <ele>2622.7</ele>
        <time>2018-08-10T14:48:20Z</time>
      </trkpt>
      <trkpt lat="4.6843120" lon="-74.3210420">
        <ele>2622.9</ele>
        <time>2018-08-10T14:48:21Z</time>
      </trkpt>
      <trkpt lat="4.6843530" lon="-74.3211000">
        <ele>2623.0</ele>
        <time>2018-08-10T14:48:22Z</time>
      </trkpt>
      <trkpt lat="4.6843930" lon="-74.3211570">
        <ele>2623.2</ele>
        <time>2018-08-10T14:48:23Z</time>
      </trkpt>
      <trkpt lat="4.6844330" lon="-74.3212120">
        <ele>2623.5</ele>
        <time>2018-08-10T14:48:24Z</time>
      </trkpt>
      <trkpt lat="4.6844700" lon="-74.3212650">
        <ele>2623.9</ele>
        <time>2018-08-10T14:48:25Z</time>
      </trkpt>
      <trkpt lat="4.6845050" lon="-74.3213170">
        <ele>2624.3</ele>
        <time>2018-08-10T14:48:26Z</time>
      </trkpt>
      <trkpt lat="4.6845400" lon="-74.3213620">
        <ele>2624.6</ele>
        <time>2018-08-10T14:48:27Z</time>
      </trkpt>
      <trkpt lat="4.6845850" lon="-74.3214130">
        <ele>2625.1</ele>
        <time>2018-08-10T14:48:28Z</time>
      </trkpt>
      <trkpt lat="4.6846230" lon="-74.3214650">
        <ele>2625.6</ele>
        <time>2018-08-10T14:48:29Z</time>
      </trkpt>
      <trkpt lat="4.6846670" lon="-74.3215220">
        <ele>2626.2</ele>
        <time>2018-08-10T14:48:30Z</time>
      </trkpt>
      <trkpt lat="4.6847080" lon="-74.3215780">
        <ele>2626.7</ele>
        <time>2018-08-10T14:48:31Z</time>
      </trkpt>
      <trkpt lat="4.6847480" lon="-74.3216300">
        <ele>2627.3</ele>
        <time>2018-08-10T14:48:32Z</time>
      </trkpt>
      <trkpt lat="4.6847980" lon="-74.3216880">
        <ele>2627.9</ele>
        <time>2018-08-10T14:48:33Z</time>
      </trkpt>
      <trkpt lat="4.6848420" lon="-74.3217400">
        <ele>2628.4</ele>
        <time>2018-08-10T14:48:34Z</time>
      </trkpt>
      <trkpt lat="4.6848850" lon="-74.3217850">
        <ele>2628.9</ele>
        <time>2018-08-10T14:48:35Z</time>
      </trkpt>
      <trkpt lat="4.6849280" lon="-74.3218220">
        <ele>2629.4</ele>
        <time>2018-08-10T14:48:36Z</time>
      </trkpt>
      <trkpt lat="4.6849630" lon="-74.3218550">
        <ele>2629.8</ele>
        <time>2018-08-10T14:48:37Z</time>
      </trkpt>
      <trkpt lat="4.6849970" lon="-74.3218900">
        <ele>2630.2</ele>
        <time>2018-08-10T14:48:38Z</time>
      </trkpt>
      <trkpt lat="4.6850300" lon="-74.3219180">
        <ele>2630.5</ele>
        <time>2018-08-10T14:48:39Z</time>
      </trkpt>
      <trkpt lat="4.6850600" lon="-74.3219470">
        <ele>2630.9</ele>
        <time>2018-08-10T14:48:40Z</time>
      </trkpt>
      <trkpt lat="4.6850870" lon="-74.3219770">
        <ele>2631.2</ele>
        <time>2018-08-10T14:48:41Z</time>
      </trkpt>
      <trkpt lat="4.6851150" lon="-74.3220080">
        <ele>2631.5</ele>
        <time>2018-08-10T14:48:42Z</time>
      </trkpt>
      <trkpt lat="4.6851430" lon="-74.3220350">
        <ele>2631.9</ele>
        <time>2018-08-10T14:48:43Z</time>
      </trkpt>
      <trkpt lat="4.6851720" lon="-74.3220620">
        <ele>2632.2</ele>
        <time>2018-08-10T14:48:44Z</time>
      </trkpt>
      <trkpt lat="4.6851980" lon="-74.3220900">
        <ele>2632.6</ele>
        <time>2018-08-10T14:48:45Z</time>
      </trkpt>
      <trkpt lat="4.6852270" lon="-74.3221180">
        <ele>2632.9</ele>
        <time>2018-08-10T14:48:46Z</time>
      </trkpt>
      <trkpt lat="4.6852550" lon="-74.3221500">
        <ele>2633.3</ele>
        <time>2018-08-10T14:48:47Z</time>
      </trkpt>
      <trkpt lat="4.6852880" lon="-74.3221770">
        <ele>2633.8</ele>
        <time>2018-08-10T14:48:48Z</time>
      </trkpt>
      <trkpt lat="4.6853200" lon="-74.3222030">
        <ele>2634.2</ele>
        <time>2018-08-10T14:48:49Z</time>
      </trkpt>
      <trkpt lat="4.6853450" lon="-74.3222370">
        <ele>2634.6</ele>
        <time>2018-08-10T14:48:50Z</time>
      </trkpt>
      <trkpt lat="4.6853670" lon="-74.3222750">
        <ele>2635.1</ele>
        <time>2018-08-10T14:48:51Z</time>
      </trkpt>
      <trkpt lat="4.6853900" lon="-74.3223070">
        <ele>2635.5</ele>
        <time>2018-08-10T14:48:52Z</time>
      </trkpt>
      <trkpt lat="4.6854170" lon="-74.3223400">
        <ele>2636.0</ele>
        <time>2018-08-10T14:48:53Z</time>
      </trkpt>
      <trkpt lat="4.6854480" lon="-74.3223730">
        <ele>2636.5</ele>
        <time>2018-08-10T14:48:54Z</time>
      </trkpt>
      <trkpt lat="4.6854870" lon="-74.3224020">
        <ele>2637.0</ele>
        <time>2018-08-10T14:48:55Z</time>
      </trkpt>
      <trkpt lat="4.6855300" lon="-74.3224280">
        <ele>2637.6</ele>
        <time>2018-08-10T14:48:56Z</time>
      </trkpt>
      <trkpt lat="4.6855700" lon="-74.3224500">
        <ele>2638.2</ele>
        <time>2018-08-10T14:48:57Z</time>
      </trkpt>
      <trkpt lat="4.6856120" lon="-74.3224750">
        <ele>2638.8</ele>
        <time>2018-08-10T14:48:58Z</time>
      </trkpt>
      <trkpt lat="4.6856530" lon="-74.3224980">
        <ele>2639.3</ele>
        <time>2018-08-10T14:48:59Z</time>
      </trkpt>
      <trkpt lat="4.6856930" lon="-74.3225180">
        <ele>2639.9</ele>
        <time>2018-08-10T14:49:00Z</time>
      </trkpt>
      <trkpt lat="4.6857330" lon="-74.3225380">
        <ele>2640.5</ele>
        <time>2018-08-10T14:49:01Z</time>
      </trkpt>
      <trkpt lat="4.6857720" lon="-74.3225620">
        <ele>2641.1</ele>
        <time>2018-08-10T14:49:02Z</time>
      </trkpt>
      <trkpt lat="4.6858100" lon="-74.3225820">
        <ele>2641.7</ele>
        <time>2018-08-10T14:49:03Z</time>
      </trkpt>
      <trkpt lat="4.6858480" lon="-74.3225980">
        <ele>2642.2</ele>
        <time>2018-08-10T14:49:04Z</time>
      </trkpt>
      <trkpt lat="4.6858870" lon="-74.3226130">
        <ele>2642.8</ele>
        <time>2018-08-10T14:49:05Z</time>
      </trkpt>
      <trkpt lat="4.6859220" lon="-74.3226320">
        <ele>2643.3</ele>
        <time>2018-08-10T14:49:06Z</time>
      </trkpt>
      <trkpt lat="4.6859500" lon="-74.3226450">
        <ele>2643.8</ele>
        <time>2018-08-10T14:49:07Z</time>
      </trkpt>
      <trkpt lat="4.6859770" lon="-74.3226600">
        <ele>2644.2</ele>
        <time>2018-08-10T14:49:08Z</time>
      </trkpt>
      <trkpt lat="4.6860020" lon="-74.3226780">
        <ele>2644.6</ele>
        <time>2018-08-10T14:49:09Z</time>
      </trkpt>
      <trkpt lat="4.6860480" lon="-74.3227030">
        <ele>2645.3</ele>
        <time>2018-08-10T14:49:11Z</time>
      </trkpt>
      <trkpt lat="4.6860730" lon="-74.3227180">
        <ele>2645.7</ele>
        <time>2018-08-10T14:49:12Z</time>
      </trkpt>
      <trkpt lat="4.6861150" lon="-74.3227420">
        <ele>2646.3</ele>
        <time>2018-08-10T14:49:14Z</time>
      </trkpt>
      <trkpt lat="4.6861570" lon="-74.3227750">
        <ele>2647.0</ele>
        <time>2018-08-10T14:49:16Z</time>
      </trkpt>
      <trkpt lat="4.6861780" lon="-74.3227920">
        <ele>2647.4</ele>
        <time>2018-08-10T14:49:17Z</time>
      </trkpt>
      <trkpt lat="4.6862200" lon="-74.3228270">
        <ele>2648.0</ele>
        <time>2018-08-10T14:49:19Z</time>
      </trkpt>
      <trkpt lat="4.6862470" lon="-74.3228470">
        <ele>2648.4</ele>
        <time>2018-08-10T14:49:20Z</time>
      </trkpt>
      <trkpt lat="4.6862670" lon="-74.3228650">
        <ele>2648.6</ele>
        <time>2018-08-10T14:49:21Z</time>
      </trkpt>
      <trkpt lat="4.6862870" lon="-74.3228830">
        <ele>2648.8</ele>
        <time>2018-08-10T14:49:22Z</time>
      </trkpt>
      <trkpt lat="4.6863170" lon="-74.3229020">
        <ele>2649.2</ele>
        <time>2018-08-10T14:49:23Z</time>
      </trkpt>
      <trkpt lat="4.6863450" lon="-74.3229230">
        <ele>2649.5</ele>
        <time>2018-08-10T14:49:24Z</time>
      </trkpt>
      <trkpt lat="4.6863730" lon="-74.3229670">
        <ele>2649.9</ele>
        <time>2018-08-10T14:49:25Z</time>
      </trkpt>
      <trkpt lat="4.6863920" lon="-74.3229980">
        <ele>2650.2</ele>
        <time>2018-08-10T14:49:26Z</time>
      </trkpt>
      <trkpt lat="4.6864100" lon="-74.3230250">
        <ele>2650.5</ele>
        <time>2018-08-10T14:49:27Z</time>
      </trkpt>
      <trkpt lat="4.6864300" lon="-74.3230500">
        <ele>2650.7</ele>
        <time>2018-08-10T14:49:28Z</time>
      </trkpt>
      <trkpt lat="4.6864480" lon="-74.3230700">
        <ele>2651.0</ele>
        <time>2018-08-10T14:49:29Z</time>
      </trkpt>
      <trkpt lat="4.6864680" lon="-74.3231020">
        <ele>2651.2</ele>
        <time>2018-08-10T14:49:30Z</time>
      </trkpt>
      <trkpt lat="4.6864900" lon="-74.3231300">
        <ele>2651.5</ele>
        <time>2018-08-10T14:49:31Z</time>
      </trkpt>
      <trkpt lat="4.6865120" lon="-74.3231550">
        <ele>2651.8</ele>
        <time>2018-08-10T14:49:32Z</time>
      </trkpt>
      <trkpt lat="4.6865370" lon="-74.3231830">
        <ele>2652.1</ele>
        <time>2018-08-10T14:49:33Z</time>
      </trkpt>
      <trkpt lat="4.6865680" lon="-74.3232330">
        <ele>2652.5</ele>
        <time>2018-08-10T14:49:35Z</time>
      </trkpt>
      <trkpt lat="4.6865900" lon="-74.3232730">
        <ele>2652.8</ele>
        <time>2018-08-10T14:49:36Z</time>
      </trkpt>
      <trkpt lat="4.6866070" lon="-74.3233100">
        <ele>2653.1</ele>
        <time>2018-08-10T14:49:37Z</time>
      </trkpt>
      <trkpt lat="4.6866220" lon="-74.3233420">
        <ele>2653.4</ele>
        <time>2018-08-10T14:49:38Z</time>
      </trkpt>
      <trkpt lat="4.6866350" lon="-74.3233670">
        <ele>2653.6</ele>
        <time>2018-08-10T14:49:39Z</time>
      </trkpt>
      <trkpt lat="4.6866580" lon="-74.3233970">
        <ele>2653.9</ele>
        <time>2018-08-10T14:49:40Z</time>
      </trkpt>
      <trkpt lat="4.6866780" lon="-74.3234380">
        <ele>2654.2</ele>
        <time>2018-08-10T14:49:41Z</time>
      </trkpt>
      <trkpt lat="4.6866980" lon="-74.3234780">
        <ele>2654.6</ele>
        <time>2018-08-10T14:49:42Z</time>
      </trkpt>
      <trkpt lat="4.6867250" lon="-74.3235230">
        <ele>2655.0</ele>
        <time>2018-08-10T14:49:43Z</time>
      </trkpt>
      <trkpt lat="4.6867530" lon="-74.3235720">
        <ele>2655.4</ele>
        <time>2018-08-10T14:49:44Z</time>
      </trkpt>
      <trkpt lat="4.6867800" lon="-74.3236130">
        <ele>2655.8</ele>
        <time>2018-08-10T14:49:45Z</time>
      </trkpt>
      <trkpt lat="4.6868070" lon="-74.3236530">
        <ele>2656.2</ele>
        <time>2018-08-10T14:49:46Z</time>
      </trkpt>
      <trkpt lat="4.6868270" lon="-74.3236930">
        <ele>2656.5</ele>
        <time>2018-08-10T14:49:47Z</time>
      </trkpt>
      <trkpt lat="4.6868450" lon="-74.3237270">
        <ele>2656.8</ele>
        <time>2018-08-10T14:49:48Z</time>
      </trkpt>
      <trkpt lat="4.6868680" lon="-74.3237580">
        <ele>2657.1</ele>
        <time>2018-08-10T14:49:49Z</time>
      </trkpt>
      <trkpt lat="4.6868980" lon="-74.3237920">
        <ele>2657.5</ele>
        <time>2018-08-10T14:49:50Z</time>
      </trkpt>
      <trkpt lat="4.6869270" lon="-74.3238220">
        <ele>2657.9</ele>
        <time>2018-08-10T14:49:51Z</time>
      </trkpt>
      <trkpt lat="4.6869530" lon="-74.3238520">
        <ele>2658.2</ele>
        <time>2018-08-10T14:49:52Z</time>
      </trkpt>
      <trkpt lat="4.6869830" lon="-74.3238870">
        <ele>2658.6</ele>
        <time>2018-08-10T14:49:53Z</time>
      </trkpt>
      <trkpt lat="4.6870080" lon="-74.3239150">
        <ele>2658.9</ele>
        <time>2018-08-10T14:49:54Z</time>
      </trkpt>
      <trkpt lat="4.6870370" lon="-74.3239420">
        <ele>2659.2</ele>
        <time>2018-08-10T14:49:55Z</time>
      </trkpt>
      <trkpt lat="4.6870600" lon="-74.3239670">
        <ele>2659.5</ele>
        <time>2018-08-10T14:49:56Z</time>
      </trkpt>
      <trkpt lat="4.6870750" lon="-74.3239920">
        <ele>2659.7</ele>
        <time>2018-08-10T14:49:57Z</time>
      </trkpt>
      <trkpt lat="4.6870930" lon="-74.3240200">
        <ele>2660.0</ele>
        <time>2018-08-10T14:49:58Z</time>
      </trkpt>
      <trkpt lat="4.6871130" lon="-74.3240470">
        <ele>2660.3</ele>
        <time>2018-08-10T14:49:59Z</time>
      </trkpt>
      <trkpt lat="4.6871350" lon="-74.3240780">
        <ele>2660.6</ele>
        <time>2018-08-10T14:50:00Z</time>
      </trkpt>
      <trkpt lat="4.6871600" lon="-74.3241080">
        <ele>2661.0</ele>
        <time>2018-08-10T14:50:01Z</time>
      </trkpt>
      <trkpt lat="4.6871820" lon="-74.3241330">
        <ele>2661.3</ele>
        <time>2018-08-10T14:50:02Z</time>
      </trkpt>
      <trkpt lat="4.6871980" lon="-74.3241600">
        <ele>2661.5</ele>
        <time>2018-08-10T14:50:03Z</time>
      </trkpt>
      <trkpt lat="4.6872220" lon="-74.3241850">
        <ele>2661.8</ele>
        <time>2018-08-10T14:50:04Z</time>
      </trkpt>
      <trkpt lat="4.6872500" lon="-74.3242330">
        <ele>2662.3</ele>
        <time>2018-08-10T14:50:06Z</time>
      </trkpt>
      <trkpt lat="4.6872720" lon="-74.3242570">
        <ele>2662.6</ele>
        <time>2018-08-10T14:50:07Z</time>
      </trkpt>
      <trkpt lat="4.6872980" lon="-74.3242780">
        <ele>2662.9</ele>
        <time>2018-08-10T14:50:08Z</time>
      </trkpt>
      <trkpt lat="4.6873180" lon="-74.3243030">
        <ele>2663.2</ele>
        <time>2018-08-10T14:50:09Z</time>
      </trkpt>
      <trkpt lat="4.6873430" lon="-74.3243220">
        <ele>2663.5</ele>
        <time>2018-08-10T14:50:10Z</time>
      </trkpt>
      <trkpt lat="4.6873680" lon="-74.3243530">
        <ele>2663.8</ele>
        <time>2018-08-10T14:50:11Z</time>
      </trkpt>
      <trkpt lat="4.6873980" lon="-74.3243870">
        <ele>2664.2</ele>
        <time>2018-08-10T14:50:12Z</time>
      </trkpt>
      <trkpt lat="4.6874200" lon="-74.3244150">
        <ele>2664.5</ele>
        <time>2018-08-10T14:50:13Z</time>
      </trkpt>
      <trkpt lat="4.6874450" lon="-74.3244480">
        <ele>2664.9</ele>
        <time>2018-08-10T14:50:14Z</time>
      </trkpt>
      <trkpt lat="4.6874830" lon="-74.3244850">
        <ele>2665.4</ele>
        <time>2018-08-10T14:50:15Z</time>
      </trkpt>
      <trkpt lat="4.6875180" lon="-74.3245200">
        <ele>2665.8</ele>
        <time>2018-08-10T14:50:16Z</time>
      </trkpt>
      <trkpt lat="4.6875530" lon="-74.3245620">
        <ele>2666.3</ele>
        <time>2018-08-10T14:50:17Z</time>
      </trkpt>
      <trkpt lat="4.6875820" lon="-74.3246000">
        <ele>2666.8</ele>
        <time>2018-08-10T14:50:18Z</time>
      </trkpt>
      <trkpt lat="4.6876120" lon="-74.3246380">
        <ele>2667.2</ele>
        <time>2018-08-10T14:50:19Z</time>
      </trkpt>
      <trkpt lat="4.6876400" lon="-74.3246750">
        <ele>2667.6</ele>
        <time>2018-08-10T14:50:20Z</time>
      </trkpt>
      <trkpt lat="4.6876680" lon="-74.3247100">
        <ele>2668.0</ele>
        <time>2018-08-10T14:50:21Z</time>
      </trkpt>
      <trkpt lat="4.6877020" lon="-74.3247470">
        <ele>2668.5</ele>
        <time>2018-08-10T14:50:22Z</time>
      </trkpt>
      <trkpt lat="4.6877280" lon="-74.3247800">
        <ele>2668.8</ele>
        <time>2018-08-10T14:50:23Z</time>
      </trkpt>
      <trkpt lat="4.6877530" lon="-74.3248080">
        <ele>2669.2</ele>
        <time>2018-08-10T14:50:24Z</time>
      </trkpt>
      <trkpt lat="4.6877800" lon="-74.3248400">
        <ele>2669.6</ele>
        <time>2018-08-10T14:50:25Z</time>
      </trkpt>
      <trkpt lat="4.6878080" lon="-74.3248750">
        <ele>2670.0</ele>
        <time>2018-08-10T14:50:26Z</time>
      </trkpt>
      <trkpt lat="4.6878430" lon="-74.3249150">
        <ele>2670.5</ele>
        <time>2018-08-10T14:50:27Z</time>
      </trkpt>
      <trkpt lat="4.6878780" lon="-74.3249530">
        <ele>2671.0</ele>
        <time>2018-08-10T14:50:28Z</time>
      </trkpt>
      <trkpt lat="4.6879080" lon="-74.3249900">
        <ele>2671.4</ele>
        <time>2018-08-10T14:50:29Z</time>
      </trkpt>
      <trkpt lat="4.6879370" lon="-74.3250270">
        <ele>2671.8</ele>
        <time>2018-08-10T14:50:30Z</time>
      </trkpt>
      <trkpt lat="4.6879670" lon="-74.3250620">
        <ele>2672.3</ele>
        <time>2018-08-10T14:50:31Z</time>
      </trkpt>
      <trkpt lat="4.6879970" lon="-74.3250980">
        <ele>2672.7</ele>
        <time>2018-08-10T14:50:32Z</time>
      </trkpt>
      <trkpt lat="4.6880220" lon="-74.3251350">
        <ele>2673.0</ele>
        <time>2018-08-10T14:50:33Z</time>
      </trkpt>
      <trkpt lat="4.6880430" lon="-74.3251700">
        <ele>2673.1</ele>
        <time>2018-08-10T14:50:34Z</time>
      </trkpt>
      <trkpt lat="4.6880670" lon="-74.3252030">
        <ele>2673.6</ele>
        <time>2018-08-10T14:50:35Z</time>
      </trkpt>
      <trkpt lat="4.6880920" lon="-74.3252330">
        <ele>2674.7</ele>
        <time>2018-08-10T14:50:36Z</time>
      </trkpt>
      <trkpt lat="4.6881180" lon="-74.3252600">
        <ele>2676.0</ele>
        <time>2018-08-10T14:50:37Z</time>
      </trkpt>
      <trkpt lat="4.6881430" lon="-74.3252900">
        <ele>2675.9</ele>
        <time>2018-08-10T14:50:38Z</time>
      </trkpt>
      <trkpt lat="4.6881650" lon="-74.3253230">
        <ele>2677.2</ele>
        <time>2018-08-10T14:50:39Z</time>
      </trkpt>
      <trkpt lat="4.6881870" lon="-74.3253520">
        <ele>2678.2</ele>
        <time>2018-08-10T14:50:40Z</time>
      </trkpt>
      <trkpt lat="4.6882050" lon="-74.3253800">
        <ele>2678.4</ele>
        <time>2018-08-10T14:50:41Z</time>
      </trkpt>
      <trkpt lat="4.6882230" lon="-74.3254080">
        <ele>2679.3</ele>
        <time>2018-08-10T14:50:42Z</time>
      </trkpt>
      <trkpt lat="4.6882400" lon="-74.3254400">
        <ele>2680.4</ele>
        <time>2018-08-10T14:50:43Z</time>
      </trkpt>
      <trkpt lat="4.6882600" lon="-74.3254700">
        <ele>2680.3</ele>
        <time>2018-08-10T14:50:44Z</time>
      </trkpt>
      <trkpt lat="4.6882800" lon="-74.3254980">
        <ele>2681.3</ele>
        <time>2018-08-10T14:50:45Z</time>
      </trkpt>
      <trkpt lat="4.6882980" lon="-74.3255300">
        <ele>2682.4</ele>
        <time>2018-08-10T14:50:46Z</time>
      </trkpt>
      <trkpt lat="4.6883200" lon="-74.3255650">
        <ele>2683.3</ele>
        <time>2018-08-10T14:50:47Z</time>
      </trkpt>
      <trkpt lat="4.6883430" lon="-74.3255980">
        <ele>2683.2</ele>
        <time>2018-08-10T14:50:48Z</time>
      </trkpt>
      <trkpt lat="4.6883670" lon="-74.3256320">
        <ele>2684.0</ele>
        <time>2018-08-10T14:50:49Z</time>
      </trkpt>
      <trkpt lat="4.6883980" lon="-74.3256650">
        <ele>2684.4</ele>
        <time>2018-08-10T14:50:50Z</time>
      </trkpt>
      <trkpt lat="4.6884250" lon="-74.3256970">
        <ele>2684.6</ele>
        <time>2018-08-10T14:50:51Z</time>
      </trkpt>
      <trkpt lat="4.6884480" lon="-74.3257270">
        <ele>2684.6</ele>
        <time>2018-08-10T14:50:52Z</time>
      </trkpt>
      <trkpt lat="4.6884650" lon="-74.3257570">
        <ele>2684.8</ele>
        <time>2018-08-10T14:50:53Z</time>
      </trkpt>
      <trkpt lat="4.6884780" lon="-74.3257830">
        <ele>2685.3</ele>
        <time>2018-08-10T14:50:54Z</time>
      </trkpt>
      <trkpt lat="4.6884970" lon="-74.3258120">
        <ele>2684.9</ele>
        <time>2018-08-10T14:50:55Z</time>
      </trkpt>
      <trkpt lat="4.6885200" lon="-74.3258420">
        <ele>2685.4</ele>
        <time>2018-08-10T14:50:56Z</time>
      </trkpt>
      <trkpt lat="4.6885480" lon="-74.3258650">
        <ele>2685.6</ele>
        <time>2018-08-10T14:50:57Z</time>
      </trkpt>
      <trkpt lat="4.6885770" lon="-74.3258850">
        <ele>2685.6</ele>
        <time>2018-08-10T14:50:58Z</time>
      </trkpt>
      <trkpt lat="4.6886000" lon="-74.3259130">
        <ele>2685.9</ele>
        <time>2018-08-10T14:50:59Z</time>
      </trkpt>
      <trkpt lat="4.6886230" lon="-74.3259400">
        <ele>2685.8</ele>
        <time>2018-08-10T14:51:00Z</time>
      </trkpt>
      <trkpt lat="4.6886420" lon="-74.3259670">
        <ele>2686.4</ele>
        <time>2018-08-10T14:51:01Z</time>
      </trkpt>
      <trkpt lat="4.6886580" lon="-74.3259950">
        <ele>2687.2</ele>
        <time>2018-08-10T14:51:02Z</time>
      </trkpt>
      <trkpt lat="4.6886780" lon="-74.3260230">
        <ele>2687.2</ele>
        <time>2018-08-10T14:51:03Z</time>
      </trkpt>
      <trkpt lat="4.6886930" lon="-74.3260550">
        <ele>2688.1</ele>
        <time>2018-08-10T14:51:04Z</time>
      </trkpt>
      <trkpt lat="4.6887150" lon="-74.3260800">
        <ele>2689.0</ele>
        <time>2018-08-10T14:51:05Z</time>
      </trkpt>
      <trkpt lat="4.6887350" lon="-74.3261070">
        <ele>2688.9</ele>
        <time>2018-08-10T14:51:06Z</time>
      </trkpt>
      <trkpt lat="4.6887650" lon="-74.3261400">
        <ele>2689.6</ele>
        <time>2018-08-10T14:51:07Z</time>
      </trkpt>
      <trkpt lat="4.6887900" lon="-74.3261750">
        <ele>2690.2</ele>
        <time>2018-08-10T14:51:08Z</time>
      </trkpt>
      <trkpt lat="4.6888200" lon="-74.3262120">
        <ele>2690.1</ele>
        <time>2018-08-10T14:51:09Z</time>
      </trkpt>
      <trkpt lat="4.6888570" lon="-74.3262500">
        <ele>2689.6</ele>
        <time>2018-08-10T14:51:10Z</time>
      </trkpt>
      <trkpt lat="4.6888830" lon="-74.3262870">
        <ele>2689.1</ele>
        <time>2018-08-10T14:51:11Z</time>
      </trkpt>
      <trkpt lat="4.6889150" lon="-74.3263150">
        <ele>2689.1</ele>
        <time>2018-08-10T14:51:12Z</time>
      </trkpt>
      <trkpt lat="4.6889380" lon="-74.3263350">
        <ele>2689.0</ele>
        <time>2018-08-10T14:51:13Z</time>
      </trkpt>
      <trkpt lat="4.6889650" lon="-74.3263680">
        <ele>2688.9</ele>
        <time>2018-08-10T14:51:14Z</time>
      </trkpt>
      <trkpt lat="4.6890000" lon="-74.3264030">
        <ele>2689.4</ele>
        <time>2018-08-10T14:51:15Z</time>
      </trkpt>
      <trkpt lat="4.6890330" lon="-74.3264350">
        <ele>2690.1</ele>
        <time>2018-08-10T14:51:16Z</time>
      </trkpt>
      <trkpt lat="4.6890600" lon="-74.3264680">
        <ele>2690.7</ele>
        <time>2018-08-10T14:51:17Z</time>
      </trkpt>
      <trkpt lat="4.6890850" lon="-74.3264980">
        <ele>2690.6</ele>
        <time>2018-08-10T14:51:18Z</time>
      </trkpt>
      <trkpt lat="4.6891180" lon="-74.3265330">
        <ele>2690.9</ele>
        <time>2018-08-10T14:51:19Z</time>
      </trkpt>
      <trkpt lat="4.6891500" lon="-74.3265600">
        <ele>2691.0</ele>
        <time>2018-08-10T14:51:20Z</time>
      </trkpt>
      <trkpt lat="4.6892050" lon="-74.3265970">
        <ele>2691.0</ele>
        <time>2018-08-10T14:51:21Z</time>
      </trkpt>
      <trkpt lat="4.6892570" lon="-74.3266370">
        <ele>2690.9</ele>
        <time>2018-08-10T14:51:22Z</time>
      </trkpt>
      <trkpt lat="4.6892930" lon="-74.3266750">
        <ele>2690.9</ele>
        <time>2018-08-10T14:51:23Z</time>
      </trkpt>
      <trkpt lat="4.6893230" lon="-74.3267100">
        <ele>2691.3</ele>
        <time>2018-08-10T14:51:24Z</time>
      </trkpt>
      <trkpt lat="4.6893630" lon="-74.3267470">
        <ele>2691.9</ele>
        <time>2018-08-10T14:51:25Z</time>
      </trkpt>
      <trkpt lat="4.6893930" lon="-74.3267780">
        <ele>2692.1</ele>
        <time>2018-08-10T14:51:26Z</time>
      </trkpt>
      <trkpt lat="4.6894250" lon="-74.3268070">
        <ele>2692.9</ele>
        <time>2018-08-10T14:51:27Z</time>
      </trkpt>
      <trkpt lat="4.6894580" lon="-74.3268470">
        <ele>2693.6</ele>
        <time>2018-08-10T14:51:28Z</time>
      </trkpt>
      <trkpt lat="4.6894880" lon="-74.3268970">
        <ele>2694.4</ele>
        <time>2018-08-10T14:51:29Z</time>
      </trkpt>
      <trkpt lat="4.6895270" lon="-74.3269380">
        <ele>2695.4</ele>
        <time>2018-08-10T14:51:30Z</time>
      </trkpt>
      <trkpt lat="4.6895700" lon="-74.3269830">
        <ele>2696.4</ele>
        <time>2018-08-10T14:51:31Z</time>
      </trkpt>
      <trkpt lat="4.6896130" lon="-74.3270250">
        <ele>2697.5</ele>
        <time>2018-08-10T14:51:32Z</time>
      </trkpt>
      <trkpt lat="4.6896530" lon="-74.3270600">
        <ele>2698.3</ele>
        <time>2018-08-10T14:51:33Z</time>
      </trkpt>
      <trkpt lat="4.6896880" lon="-74.3270920">
        <ele>2698.3</ele>
        <time>2018-08-10T14:51:34Z</time>
      </trkpt>
      <trkpt lat="4.6897270" lon="-74.3271280">
        <ele>2698.9</ele>
        <time>2018-08-10T14:51:35Z</time>
      </trkpt>
      <trkpt lat="4.6897600" lon="-74.3271580">
        <ele>2699.1</ele>
        <time>2018-08-10T14:51:36Z</time>
      </trkpt>
      <trkpt lat="4.6897880" lon="-74.3271870">
        <ele>2699.2</ele>
        <time>2018-08-10T14:51:37Z</time>
      </trkpt>
      <trkpt lat="4.6898180" lon="-74.3272120">
        <ele>2699.0</ele>
        <time>2018-08-10T14:51:38Z</time>
      </trkpt>
      <trkpt lat="4.6898520" lon="-74.3272350">
        <ele>2698.7</ele>
        <time>2018-08-10T14:51:39Z</time>
      </trkpt>
      <trkpt lat="4.6898870" lon="-74.3272650">
        <ele>2698.3</ele>
        <time>2018-08-10T14:51:40Z</time>
      </trkpt>
      <trkpt lat="4.6899170" lon="-74.3272970">
        <ele>2697.6</ele>
        <time>2018-08-10T14:51:41Z</time>
      </trkpt>
      <trkpt lat="4.6899470" lon="-74.3273250">
        <ele>2697.4</ele>
        <time>2018-08-10T14:51:42Z</time>
      </trkpt>
      <trkpt lat="4.6899830" lon="-74.3273550">
        <ele>2696.8</ele>
        <time>2018-08-10T14:51:43Z</time>
      </trkpt>
      <trkpt lat="4.6900220" lon="-74.3273850">
        <ele>2695.9</ele>
        <time>2018-08-10T14:51:44Z</time>
      </trkpt>
      <trkpt lat="4.6900620" lon="-74.3274100">
        <ele>2695.0</ele>
        <time>2018-08-10T14:51:45Z</time>
      </trkpt>
      <trkpt lat="4.6901020" lon="-74.3274350">
        <ele>2694.5</ele>
        <time>2018-08-10T14:51:46Z</time>
      </trkpt>
      <trkpt lat="4.6901400" lon="-74.3274600">
        <ele>2693.8</ele>
        <time>2018-08-10T14:51:47Z</time>
      </trkpt>
      <trkpt lat="4.6901800" lon="-74.3274870">
        <ele>2693.7</ele>
        <time>2018-08-10T14:51:48Z</time>
      </trkpt>
      <trkpt lat="4.6902150" lon="-74.3275120">
        <ele>2693.2</ele>
        <time>2018-08-10T14:51:49Z</time>
      </trkpt>
      <trkpt lat="4.6902520" lon="-74.3275320">
        <ele>2692.7</ele>
        <time>2018-08-10T14:51:50Z</time>
      </trkpt>
      <trkpt lat="4.6902970" lon="-74.3275570">
        <ele>2692.8</ele>
        <time>2018-08-10T14:51:51Z</time>
      </trkpt>
      <trkpt lat="4.6903450" lon="-74.3275800">
        <ele>2692.1</ele>
        <time>2018-08-10T14:51:52Z</time>
      </trkpt>
      <trkpt lat="4.6903900" lon="-74.3276080">
        <ele>2692.4</ele>
        <time>2018-08-10T14:51:53Z</time>
      </trkpt>
      <trkpt lat="4.6904350" lon="-74.3276400">
        <ele>2691.8</ele>
        <time>2018-08-10T14:51:54Z</time>
      </trkpt>
      <trkpt lat="4.6904780" lon="-74.3276620">
        <ele>2691.4</ele>
        <time>2018-08-10T14:51:55Z</time>
      </trkpt>
      <trkpt lat="4.6905200" lon="-74.3276830">
        <ele>2691.9</ele>
        <time>2018-08-10T14:51:56Z</time>
      </trkpt>
      <trkpt lat="4.6905620" lon="-74.3277070">
        <ele>2691.7</ele>
        <time>2018-08-10T14:51:57Z</time>
      </trkpt>
      <trkpt lat="4.6905980" lon="-74.3277320">
        <ele>2692.1</ele>
        <time>2018-08-10T14:51:58Z</time>
      </trkpt>
      <trkpt lat="4.6906300" lon="-74.3277620">
        <ele>2691.5</ele>
        <time>2018-08-10T14:51:59Z</time>
      </trkpt>
      <trkpt lat="4.6906600" lon="-74.3277930">
        <ele>2691.2</ele>
        <time>2018-08-10T14:52:00Z</time>
      </trkpt>
      <trkpt lat="4.6906920" lon="-74.3278170">
        <ele>2691.2</ele>
        <time>2018-08-10T14:52:01Z</time>
      </trkpt>
      <trkpt lat="4.6907270" lon="-74.3278400">
        <ele>2690.4</ele>
        <time>2018-08-10T14:52:02Z</time>
      </trkpt>
      <trkpt lat="4.6907570" lon="-74.3278650">
        <ele>2690.3</ele>
        <time>2018-08-10T14:52:03Z</time>
      </trkpt>
      <trkpt lat="4.6907830" lon="-74.3278880">
        <ele>2689.2</ele>
        <time>2018-08-10T14:52:04Z</time>
      </trkpt>
      <trkpt lat="4.6908100" lon="-74.3279050">
        <ele>2688.7</ele>
        <time>2018-08-10T14:52:05Z</time>
      </trkpt>
      <trkpt lat="4.6908370" lon="-74.3279230">
        <ele>2688.0</ele>
        <time>2018-08-10T14:52:06Z</time>
      </trkpt>
      <trkpt lat="4.6908630" lon="-74.3279550">
        <ele>2687.4</ele>
        <time>2018-08-10T14:52:07Z</time>
      </trkpt>
      <trkpt lat="4.6909000" lon="-74.3279920">
        <ele>2686.3</ele>
        <time>2018-08-10T14:52:08Z</time>
      </trkpt>
      <trkpt lat="4.6909280" lon="-74.3280250">
        <ele>2685.7</ele>
        <time>2018-08-10T14:52:09Z</time>
      </trkpt>
      <trkpt lat="4.6909550" lon="-74.3280600">
        <ele>2684.7</ele>
        <time>2018-08-10T14:52:10Z</time>
      </trkpt>
      <trkpt lat="4.6909900" lon="-74.3280870">
        <ele>2684.3</ele>
        <time>2018-08-10T14:52:11Z</time>
      </trkpt>
      <trkpt lat="4.6910250" lon="-74.3281080">
        <ele>2683.5</ele>
        <time>2018-08-10T14:52:12Z</time>
      </trkpt>
      <trkpt lat="4.6910530" lon="-74.3281300">
        <ele>2683.4</ele>
        <time>2018-08-10T14:52:13Z</time>
      </trkpt>
      <trkpt lat="4.6910830" lon="-74.3281580">
        <ele>2682.7</ele>
        <time>2018-08-10T14:52:14Z</time>
      </trkpt>
      <trkpt lat="4.6911120" lon="-74.3281780">
        <ele>2681.9</ele>
        <time>2018-08-10T14:52:15Z</time>
      </trkpt>
      <trkpt lat="4.6911430" lon="-74.3282030">
        <ele>2681.8</ele>
        <time>2018-08-10T14:52:16Z</time>
      </trkpt>
      <trkpt lat="4.6911730" lon="-74.3282230">
        <ele>2681.1</ele>
        <time>2018-08-10T14:52:17Z</time>
      </trkpt>
      <trkpt lat="4.6911980" lon="-74.3282450">
        <ele>2680.9</ele>
        <time>2018-08-10T14:52:18Z</time>
      </trkpt>
      <trkpt lat="4.6912200" lon="-74.3282700">
        <ele>2680.4</ele>
        <time>2018-08-10T14:52:19Z</time>
      </trkpt>
      <trkpt lat="4.6912430" lon="-74.3282970">
        <ele>2680.3</ele>
        <time>2018-08-10T14:52:20Z</time>
      </trkpt>
      <trkpt lat="4.6912680" lon="-74.3283200">
        <ele>2679.6</ele>
        <time>2018-08-10T14:52:21Z</time>
      </trkpt>
      <trkpt lat="4.6912900" lon="-74.3283380">
        <ele>2679.4</ele>
        <time>2018-08-10T14:52:22Z</time>
      </trkpt>
      <trkpt lat="4.6913120" lon="-74.3283600">
        <ele>2678.7</ele>
        <time>2018-08-10T14:52:23Z</time>
      </trkpt>
      <trkpt lat="4.6913380" lon="-74.3283830">
        <ele>2678.5</ele>
        <time>2018-08-10T14:52:24Z</time>
      </trkpt>
      <trkpt lat="4.6913780" lon="-74.3284270">
        <ele>2677.8</ele>
        <time>2018-08-10T14:52:26Z</time>
      </trkpt>
      <trkpt lat="4.6914030" lon="-74.3284530">
        <ele>2677.3</ele>
        <time>2018-08-10T14:52:27Z</time>
      </trkpt>
      <trkpt lat="4.6914400" lon="-74.3284800">
        <ele>2677.1</ele>
        <time>2018-08-10T14:52:28Z</time>
      </trkpt>
      <trkpt lat="4.6914720" lon="-74.3285070">
        <ele>2677.4</ele>
        <time>2018-08-10T14:52:29Z</time>
      </trkpt>
      <trkpt lat="4.6914970" lon="-74.3285370">
        <ele>2677.6</ele>
        <time>2018-08-10T14:52:30Z</time>
      </trkpt>
      <trkpt lat="4.6915200" lon="-74.3285670">
        <ele>2677.4</ele>
        <time>2018-08-10T14:52:31Z</time>
      </trkpt>
      <trkpt lat="4.6915550" lon="-74.3285920">
        <ele>2677.8</ele>
        <time>2018-08-10T14:52:32Z</time>
      </trkpt>
      <trkpt lat="4.6915800" lon="-74.3286230">
        <ele>2677.8</ele>
        <time>2018-08-10T14:52:33Z</time>
      </trkpt>
      <trkpt lat="4.6915930" lon="-74.3286500">
        <ele>2677.6</ele>
        <time>2018-08-10T14:52:34Z</time>
      </trkpt>
      <trkpt lat="4.6916050" lon="-74.3286830">
        <ele>2677.6</ele>
        <time>2018-08-10T14:52:35Z</time>
      </trkpt>
      <trkpt lat="4.6916230" lon="-74.3287150">
        <ele>2677.3</ele>
        <time>2018-08-10T14:52:36Z</time>
      </trkpt>
      <trkpt lat="4.6916430" lon="-74.3287430">
        <ele>2677.2</ele>
        <time>2018-08-10T14:52:37Z</time>
      </trkpt>
      <trkpt lat="4.6916620" lon="-74.3287700">
        <ele>2676.8</ele>
        <time>2018-08-10T14:52:38Z</time>
      </trkpt>
      <trkpt lat="4.6916800" lon="-74.3287980">
        <ele>2676.6</ele>
        <time>2018-08-10T14:52:39Z</time>
      </trkpt>
      <trkpt lat="4.6917000" lon="-74.3288270">
        <ele>2676.6</ele>
        <time>2018-08-10T14:52:40Z</time>
      </trkpt>
      <trkpt lat="4.6917180" lon="-74.3288550">
        <ele>2676.0</ele>
        <time>2018-08-10T14:52:41Z</time>
      </trkpt>
      <trkpt lat="4.6917350" lon="-74.3288830">
        <ele>2676.1</ele>
        <time>2018-08-10T14:52:42Z</time>
      </trkpt>
      <trkpt lat="4.6917480" lon="-74.3289130">
        <ele>2675.6</ele>
        <time>2018-08-10T14:52:43Z</time>
      </trkpt>
      <trkpt lat="4.6917680" lon="-74.3289430">
        <ele>2675.6</ele>
        <time>2018-08-10T14:52:44Z</time>
      </trkpt>
      <trkpt lat="4.6917880" lon="-74.3289680">
        <ele>2675.8</ele>
        <time>2018-08-10T14:52:45Z</time>
      </trkpt>
      <trkpt lat="4.6918180" lon="-74.3289880">
        <ele>2674.9</ele>
        <time>2018-08-10T14:52:46Z</time>
      </trkpt>
      <trkpt lat="4.6918520" lon="-74.3290100">
        <ele>2674.0</ele>
        <time>2018-08-10T14:52:47Z</time>
      </trkpt>
      <trkpt lat="4.6918870" lon="-74.3290270">
        <ele>2673.1</ele>
        <time>2018-08-10T14:52:48Z</time>
      </trkpt>
      <trkpt lat="4.6919250" lon="-74.3290320">
        <ele>2672.4</ele>
        <time>2018-08-10T14:52:49Z</time>
      </trkpt>
      <trkpt lat="4.6919570" lon="-74.3290400">
        <ele>2672.1</ele>
        <time>2018-08-10T14:52:50Z</time>
      </trkpt>
      <trkpt lat="4.6920050" lon="-74.3290630">
        <ele>2671.0</ele>
        <time>2018-08-10T14:52:52Z</time>
      </trkpt>
      <trkpt lat="4.6920370" lon="-74.3290780">
        <ele>2670.8</ele>
        <time>2018-08-10T14:52:53Z</time>
      </trkpt>
      <trkpt lat="4.6920630" lon="-74.3290980">
        <ele>2670.5</ele>
        <time>2018-08-10T14:52:54Z</time>
      </trkpt>
      <trkpt lat="4.6920880" lon="-74.3291200">
        <ele>2670.6</ele>
        <time>2018-08-10T14:52:55Z</time>
      </trkpt>
      <trkpt lat="4.6921030" lon="-74.3291570">
        <ele>2670.3</ele>
        <time>2018-08-10T14:52:56Z</time>
      </trkpt>
      <trkpt lat="4.6921200" lon="-74.3291900">
        <ele>2670.6</ele>
        <time>2018-08-10T14:52:57Z</time>
      </trkpt>
      <trkpt lat="4.6921470" lon="-74.3292220">
        <ele>2670.6</ele>
        <time>2018-08-10T14:52:58Z</time>
      </trkpt>
      <trkpt lat="4.6921730" lon="-74.3292430">
        <ele>2670.5</ele>
        <time>2018-08-10T14:52:59Z</time>
      </trkpt>
      <trkpt lat="4.6922050" lon="-74.3292630">
        <ele>2670.2</ele>
        <time>2018-08-10T14:53:00Z</time>
      </trkpt>
      <trkpt lat="4.6922270" lon="-74.3292870">
        <ele>2669.4</ele>
        <time>2018-08-10T14:53:01Z</time>
      </trkpt>
      <trkpt lat="4.6922470" lon="-74.3293100">
        <ele>2669.4</ele>
        <time>2018-08-10T14:53:02Z</time>
      </trkpt>
      <trkpt lat="4.6922720" lon="-74.3293280">
        <ele>2668.5</ele>
        <time>2018-08-10T14:53:03Z</time>
      </trkpt>
      <trkpt lat="4.6923030" lon="-74.3293430">
        <ele>2667.2</ele>
        <time>2018-08-10T14:53:04Z</time>
      </trkpt>
      <trkpt lat="4.6923370" lon="-74.3293520">
        <ele>2667.2</ele>
        <time>2018-08-10T14:53:05Z</time>
      </trkpt>
      <trkpt lat="4.6923670" lon="-74.3293670">
        <ele>2666.3</ele>
        <time>2018-08-10T14:53:06Z</time>
      </trkpt>
      <trkpt lat="4.6923950" lon="-74.3293800">
        <ele>2665.1</ele>
        <time>2018-08-10T14:53:07Z</time>
      </trkpt>
      <trkpt lat="4.6924300" lon="-74.3294050">
        <ele>2665.0</ele>
        <time>2018-08-10T14:53:08Z</time>
      </trkpt>
      <trkpt lat="4.6924680" lon="-74.3294380">
        <ele>2664.4</ele>
        <time>2018-08-10T14:53:09Z</time>
      </trkpt>
      <trkpt lat="4.6925130" lon="-74.3294580">
        <ele>2664.2</ele>
        <time>2018-08-10T14:53:10Z</time>
      </trkpt>
      <trkpt lat="4.6925570" lon="-74.3294770">
        <ele>2664.4</ele>
        <time>2018-08-10T14:53:11Z</time>
      </trkpt>
      <trkpt lat="4.6926080" lon="-74.3295070">
        <ele>2664.9</ele>
        <time>2018-08-10T14:53:12Z</time>
      </trkpt>
      <trkpt lat="4.6926550" lon="-74.3295330">
        <ele>2665.2</ele>
        <time>2018-08-10T14:53:13Z</time>
      </trkpt>
      <trkpt lat="4.6927050" lon="-74.3295580">
        <ele>2665.3</ele>
        <time>2018-08-10T14:53:14Z</time>
      </trkpt>
      <trkpt lat="4.6927500" lon="-74.3295870">
        <ele>2665.7</ele>
        <time>2018-08-10T14:53:15Z</time>
      </trkpt>
      <trkpt lat="4.6928020" lon="-74.3296050">
        <ele>2665.6</ele>
        <time>2018-08-10T14:53:16Z</time>
      </trkpt>
      <trkpt lat="4.6928430" lon="-74.3296270">
        <ele>2666.0</ele>
        <time>2018-08-10T14:53:17Z</time>
      </trkpt>
      <trkpt lat="4.6928780" lon="-74.3296450">
        <ele>2665.8</ele>
        <time>2018-08-10T14:53:18Z</time>
      </trkpt>
      <trkpt lat="4.6929250" lon="-74.3296530">
        <ele>2665.9</ele>
        <time>2018-08-10T14:53:19Z</time>
      </trkpt>
      <trkpt lat="4.6929630" lon="-74.3296770">
        <ele>2665.4</ele>
        <time>2018-08-10T14:53:20Z</time>
      </trkpt>
      <trkpt lat="4.6930070" lon="-74.3296980">
        <ele>2665.5</ele>
        <time>2018-08-10T14:53:21Z</time>
      </trkpt>
      <trkpt lat="4.6930430" lon="-74.3297170">
        <ele>2665.5</ele>
        <time>2018-08-10T14:53:22Z</time>
      </trkpt>
      <trkpt lat="4.6930900" lon="-74.3297470">
        <ele>2664.4</ele>
        <time>2018-08-10T14:53:23Z</time>
      </trkpt>
      <trkpt lat="4.6931250" lon="-74.3297720">
        <ele>2663.0</ele>
        <time>2018-08-10T14:53:24Z</time>
      </trkpt>
      <trkpt lat="4.6931620" lon="-74.3297950">
        <ele>2662.5</ele>
        <time>2018-08-10T14:53:25Z</time>
      </trkpt>
      <trkpt lat="4.6932130" lon="-74.3298030">
        <ele>2662.2</ele>
        <time>2018-08-10T14:53:26Z</time>
      </trkpt>
      <trkpt lat="4.6932530" lon="-74.3298220">
        <ele>2660.6</ele>
        <time>2018-08-10T14:53:27Z</time>
      </trkpt>
      <trkpt lat="4.6932950" lon="-74.3298420">
        <ele>2660.5</ele>
        <time>2018-08-10T14:53:28Z</time>
      </trkpt>
      <trkpt lat="4.6933420" lon="-74.3298570">
        <ele>2659.1</ele>
        <time>2018-08-10T14:53:29Z</time>
      </trkpt>
      <trkpt lat="4.6933750" lon="-74.3298770">
        <ele>2659.2</ele>
        <time>2018-08-10T14:53:30Z</time>
      </trkpt>
      <trkpt lat="4.6934180" lon="-74.3298930">
        <ele>2658.0</ele>
        <time>2018-08-10T14:53:31Z</time>
      </trkpt>
      <trkpt lat="4.6934600" lon="-74.3299120">
        <ele>2657.9</ele>
        <time>2018-08-10T14:53:32Z</time>
      </trkpt>
      <trkpt lat="4.6934980" lon="-74.3299330">
        <ele>2657.5</ele>
        <time>2018-08-10T14:53:33Z</time>
      </trkpt>
      <trkpt lat="4.6935380" lon="-74.3299530">
        <ele>2657.1</ele>
        <time>2018-08-10T14:53:34Z</time>
      </trkpt>
      <trkpt lat="4.6935720" lon="-74.3299750">
        <ele>2656.6</ele>
        <time>2018-08-10T14:53:35Z</time>
      </trkpt>
      <trkpt lat="4.6936070" lon="-74.3299930">
        <ele>2656.3</ele>
        <time>2018-08-10T14:53:36Z</time>
      </trkpt>
      <trkpt lat="4.6936530" lon="-74.3300130">
        <ele>2655.9</ele>
        <time>2018-08-10T14:53:37Z</time>
      </trkpt>
      <trkpt lat="4.6936950" lon="-74.3300350">
        <ele>2655.6</ele>
        <time>2018-08-10T14:53:38Z</time>
      </trkpt>
      <trkpt lat="4.6937280" lon="-74.3300530">
        <ele>2655.2</ele>
        <time>2018-08-10T14:53:39Z</time>
      </trkpt>
      <trkpt lat="4.6937550" lon="-74.3300670">
        <ele>2654.9</ele>
        <time>2018-08-10T14:53:40Z</time>
      </trkpt>
      <trkpt lat="4.6937820" lon="-74.3300830">
        <ele>2654.6</ele>
        <time>2018-08-10T14:53:41Z</time>
      </trkpt>
      <trkpt lat="4.6938170" lon="-74.3300950">
        <ele>2654.3</ele>
        <time>2018-08-10T14:53:42Z</time>
      </trkpt>
      <trkpt lat="4.6938520" lon="-74.3301050">
        <ele>2654.0</ele>
        <time>2018-08-10T14:53:43Z</time>
      </trkpt>
      <trkpt lat="4.6938850" lon="-74.3301150">
        <ele>2653.8</ele>
        <time>2018-08-10T14:53:44Z</time>
      </trkpt>
      <trkpt lat="4.6939180" lon="-74.3301280">
        <ele>2653.7</ele>
        <time>2018-08-10T14:53:45Z</time>
      </trkpt>
      <trkpt lat="4.6939580" lon="-74.3301450">
        <ele>2653.6</ele>
        <time>2018-08-10T14:53:46Z</time>
      </trkpt>
      <trkpt lat="4.6939980" lon="-74.3301620">
        <ele>2653.5</ele>
        <time>2018-08-10T14:53:47Z</time>
      </trkpt>
      <trkpt lat="4.6940350" lon="-74.3301820">
        <ele>2653.3</ele>
        <time>2018-08-10T14:53:48Z</time>
      </trkpt>
      <trkpt lat="4.6940750" lon="-74.3301920">
        <ele>2653.2</ele>
        <time>2018-08-10T14:53:49Z</time>
      </trkpt>
      <trkpt lat="4.6941150" lon="-74.3302070">
        <ele>2653.0</ele>
        <time>2018-08-10T14:53:50Z</time>
      </trkpt>
      <trkpt lat="4.6941520" lon="-74.3302230">
        <ele>2652.6</ele>
        <time>2018-08-10T14:53:51Z</time>
      </trkpt>
      <trkpt lat="4.6941950" lon="-74.3302420">
        <ele>2652.3</ele>
        <time>2018-08-10T14:53:52Z</time>
      </trkpt>
      <trkpt lat="4.6942350" lon="-74.3302580">
        <ele>2651.9</ele>
        <time>2018-08-10T14:53:53Z</time>
      </trkpt>
      <trkpt lat="4.6942680" lon="-74.3302720">
        <ele>2651.6</ele>
        <time>2018-08-10T14:53:54Z</time>
      </trkpt>
      <trkpt lat="4.6943100" lon="-74.3302830">
        <ele>2651.3</ele>
        <time>2018-08-10T14:53:55Z</time>
      </trkpt>
      <trkpt lat="4.6943470" lon="-74.3302980">
        <ele>2651.2</ele>
        <time>2018-08-10T14:53:56Z</time>
      </trkpt>
      <trkpt lat="4.6943800" lon="-74.3303200">
        <ele>2651.0</ele>
        <time>2018-08-10T14:53:57Z</time>
      </trkpt>
      <trkpt lat="4.6944170" lon="-74.3303350">
        <ele>2650.9</ele>
        <time>2018-08-10T14:53:58Z</time>
      </trkpt>
      <trkpt lat="4.6944480" lon="-74.3303630">
        <ele>2650.7</ele>
        <time>2018-08-10T14:53:59Z</time>
      </trkpt>
      <trkpt lat="4.6944780" lon="-74.3303970">
        <ele>2650.3</ele>
        <time>2018-08-10T14:54:00Z</time>
      </trkpt>
      <trkpt lat="4.6945020" lon="-74.3304400">
        <ele>2649.9</ele>
        <time>2018-08-10T14:54:01Z</time>
      </trkpt>
      <trkpt lat="4.6945320" lon="-74.3304680">
        <ele>2649.6</ele>
        <time>2018-08-10T14:54:02Z</time>
      </trkpt>
      <trkpt lat="4.6945630" lon="-74.3304920">
        <ele>2649.4</ele>
        <time>2018-08-10T14:54:03Z</time>
      </trkpt>
      <trkpt lat="4.6945950" lon="-74.3305100">
        <ele>2649.2</ele>
        <time>2018-08-10T14:54:04Z</time>
      </trkpt>
      <trkpt lat="4.6946320" lon="-74.3305250">
        <ele>2649.1</ele>
        <time>2018-08-10T14:54:05Z</time>
      </trkpt>
      <trkpt lat="4.6946730" lon="-74.3305300">
        <ele>2648.9</ele>
        <time>2018-08-10T14:54:06Z</time>
      </trkpt>
      <trkpt lat="4.6947120" lon="-74.3305350">
        <ele>2648.7</ele>
        <time>2018-08-10T14:54:07Z</time>
      </trkpt>
      <trkpt lat="4.6947470" lon="-74.3305430">
        <ele>2648.5</ele>
        <time>2018-08-10T14:54:08Z</time>
      </trkpt>
      <trkpt lat="4.6947820" lon="-74.3305480">
        <ele>2648.2</ele>
        <time>2018-08-10T14:54:09Z</time>
      </trkpt>
      <trkpt lat="4.6948220" lon="-74.3305550">
        <ele>2648.3</ele>
        <time>2018-08-10T14:54:10Z</time>
      </trkpt>
      <trkpt lat="4.6948630" lon="-74.3305630">
        <ele>2648.5</ele>
        <time>2018-08-10T14:54:11Z</time>
      </trkpt>
      <trkpt lat="4.6949070" lon="-74.3305680">
        <ele>2648.6</ele>
        <time>2018-08-10T14:54:12Z</time>
      </trkpt>
      <trkpt lat="4.6949500" lon="-74.3305750">
        <ele>2648.7</ele>
        <time>2018-08-10T14:54:13Z</time>
      </trkpt>
      <trkpt lat="4.6949920" lon="-74.3305920">
        <ele>2648.0</ele>
        <time>2018-08-10T14:54:14Z</time>
      </trkpt>
      <trkpt lat="4.6950320" lon="-74.3306080">
        <ele>2648.0</ele>
        <time>2018-08-10T14:54:15Z</time>
      </trkpt>
      <trkpt lat="4.6950730" lon="-74.3306270">
        <ele>2647.6</ele>
        <time>2018-08-10T14:54:16Z</time>
      </trkpt>
      <trkpt lat="4.6951080" lon="-74.3306430">
        <ele>2647.6</ele>
        <time>2018-08-10T14:54:17Z</time>
      </trkpt>
      <trkpt lat="4.6951420" lon="-74.3306630">
        <ele>2647.5</ele>
        <time>2018-08-10T14:54:18Z</time>
      </trkpt>
      <trkpt lat="4.6951720" lon="-74.3306820">
        <ele>2647.1</ele>
        <time>2018-08-10T14:54:19Z</time>
      </trkpt>
      <trkpt lat="4.6952070" lon="-74.3307020">
        <ele>2647.0</ele>
        <time>2018-08-10T14:54:20Z</time>
      </trkpt>
      <trkpt lat="4.6952400" lon="-74.3307250">
        <ele>2646.4</ele>
        <time>2018-08-10T14:54:21Z</time>
      </trkpt>
      <trkpt lat="4.6952700" lon="-74.3307530">
        <ele>2645.9</ele>
        <time>2018-08-10T14:54:22Z</time>
      </trkpt>
      <trkpt lat="4.6953030" lon="-74.3307770">
        <ele>2646.0</ele>
        <time>2018-08-10T14:54:23Z</time>
      </trkpt>
      <trkpt lat="4.6953350" lon="-74.3308050">
        <ele>2645.3</ele>
        <time>2018-08-10T14:54:24Z</time>
      </trkpt>
      <trkpt lat="4.6953620" lon="-74.3308370">
        <ele>2644.8</ele>
        <time>2018-08-10T14:54:25Z</time>
      </trkpt>
      <trkpt lat="4.6953850" lon="-74.3308670">
        <ele>2645.0</ele>
        <time>2018-08-10T14:54:26Z</time>
      </trkpt>
      <trkpt lat="4.6954100" lon="-74.3308930">
        <ele>2644.1</ele>
        <time>2018-08-10T14:54:27Z</time>
      </trkpt>
      <trkpt lat="4.6954380" lon="-74.3309180">
        <ele>2644.5</ele>
        <time>2018-08-10T14:54:28Z</time>
      </trkpt>
      <trkpt lat="4.6954730" lon="-74.3309430">
        <ele>2644.1</ele>
        <time>2018-08-10T14:54:29Z</time>
      </trkpt>
      <trkpt lat="4.6955000" lon="-74.3309680">
        <ele>2643.2</ele>
        <time>2018-08-10T14:54:30Z</time>
      </trkpt>
      <trkpt lat="4.6955300" lon="-74.3309920">
        <ele>2643.7</ele>
        <time>2018-08-10T14:54:31Z</time>
      </trkpt>
      <trkpt lat="4.6955650" lon="-74.3310170">
        <ele>2643.3</ele>
        <time>2018-08-10T14:54:32Z</time>
      </trkpt>
      <trkpt lat="4.6955970" lon="-74.3310430">
        <ele>2643.8</ele>
        <time>2018-08-10T14:54:33Z</time>
      </trkpt>
      <trkpt lat="4.6956300" lon="-74.3310700">
        <ele>2642.7</ele>
        <time>2018-08-10T14:54:34Z</time>
      </trkpt>
      <trkpt lat="4.6956630" lon="-74.3310970">
        <ele>2642.2</ele>
        <time>2018-08-10T14:54:35Z</time>
      </trkpt>
      <trkpt lat="4.6956980" lon="-74.3311200">
        <ele>2642.5</ele>
        <time>2018-08-10T14:54:36Z</time>
      </trkpt>
      <trkpt lat="4.6957320" lon="-74.3311370">
        <ele>2642.0</ele>
        <time>2018-08-10T14:54:37Z</time>
      </trkpt>
      <trkpt lat="4.6957730" lon="-74.3311580">
        <ele>2642.2</ele>
        <time>2018-08-10T14:54:38Z</time>
      </trkpt>
      <trkpt lat="4.6958100" lon="-74.3311830">
        <ele>2641.4</ele>
        <time>2018-08-10T14:54:39Z</time>
      </trkpt>
      <trkpt lat="4.6958450" lon="-74.3312050">
        <ele>2641.3</ele>
        <time>2018-08-10T14:54:40Z</time>
      </trkpt>
      <trkpt lat="4.6958830" lon="-74.3312300">
        <ele>2640.5</ele>
        <time>2018-08-10T14:54:41Z</time>
      </trkpt>
      <trkpt lat="4.6959180" lon="-74.3312520">
        <ele>2640.7</ele>
        <time>2018-08-10T14:54:42Z</time>
      </trkpt>
      <trkpt lat="4.6959650" lon="-74.3312600">
        <ele>2640.9</ele>
        <time>2018-08-10T14:54:43Z</time>
      </trkpt>
      <trkpt lat="4.6960000" lon="-74.3312770">
        <ele>2640.3</ele>
        <time>2018-08-10T14:54:44Z</time>
      </trkpt>
      <trkpt lat="4.6960380" lon="-74.3312880">
        <ele>2640.5</ele>
        <time>2018-08-10T14:54:45Z</time>
      </trkpt>
      <trkpt lat="4.6960800" lon="-74.3313020">
        <ele>2640.8</ele>
        <time>2018-08-10T14:54:46Z</time>
      </trkpt>
      <trkpt lat="4.6961150" lon="-74.3313170">
        <ele>2640.1</ele>
        <time>2018-08-10T14:54:47Z</time>
      </trkpt>
      <trkpt lat="4.6961470" lon="-74.3313300">
        <ele>2640.1</ele>
        <time>2018-08-10T14:54:48Z</time>
      </trkpt>
      <trkpt lat="4.6961830" lon="-74.3313480">
        <ele>2640.3</ele>
        <time>2018-08-10T14:54:49Z</time>
      </trkpt>
      <trkpt lat="4.6962200" lon="-74.3313670">
        <ele>2639.8</ele>
        <time>2018-08-10T14:54:50Z</time>
      </trkpt>
      <trkpt lat="4.6962600" lon="-74.3313770">
        <ele>2640.0</ele>
        <time>2018-08-10T14:54:51Z</time>
      </trkpt>
      <trkpt lat="4.6962950" lon="-74.3313900">
        <ele>2640.1</ele>
        <time>2018-08-10T14:54:52Z</time>
      </trkpt>
      <trkpt lat="4.6963280" lon="-74.3314100">
        <ele>2639.7</ele>
        <time>2018-08-10T14:54:53Z</time>
      </trkpt>
      <trkpt lat="4.6963600" lon="-74.3314320">
        <ele>2639.6</ele>
        <time>2018-08-10T14:54:54Z</time>
      </trkpt>
      <trkpt lat="4.6963900" lon="-74.3314570">
        <ele>2639.6</ele>
        <time>2018-08-10T14:54:55Z</time>
      </trkpt>
      <trkpt lat="4.6964170" lon="-74.3314820">
        <ele>2639.7</ele>
        <time>2018-08-10T14:54:56Z</time>
      </trkpt>
      <trkpt lat="4.6964470" lon="-74.3315000">
        <ele>2639.6</ele>
        <time>2018-08-10T14:54:57Z</time>
      </trkpt>
      <trkpt lat="4.6964770" lon="-74.3315200">
        <ele>2639.7</ele>
        <time>2018-08-10T14:54:58Z</time>
      </trkpt>
      <trkpt lat="4.6965020" lon="-74.3315420">
        <ele>2639.6</ele>
        <time>2018-08-10T14:54:59Z</time>
      </trkpt>
      <trkpt lat="4.6965250" lon="-74.3315670">
        <ele>2639.3</ele>
        <time>2018-08-10T14:55:00Z</time>
      </trkpt>
      <trkpt lat="4.6965480" lon="-74.3315900">
        <ele>2639.1</ele>
        <time>2018-08-10T14:55:01Z</time>
      </trkpt>
      <trkpt lat="4.6965720" lon="-74.3316150">
        <ele>2638.7</ele>
        <time>2018-08-10T14:55:02Z</time>
      </trkpt>
      <trkpt lat="4.6965930" lon="-74.3316380">
        <ele>2638.3</ele>
        <time>2018-08-10T14:55:03Z</time>
      </trkpt>
      <trkpt lat="4.6966180" lon="-74.3316550">
        <ele>2637.9</ele>
        <time>2018-08-10T14:55:04Z</time>
      </trkpt>
      <trkpt lat="4.6966480" lon="-74.3316720">
        <ele>2637.7</ele>
        <time>2018-08-10T14:55:05Z</time>
      </trkpt>
      <trkpt lat="4.6966720" lon="-74.3316900">
        <ele>2637.4</ele>
        <time>2018-08-10T14:55:06Z</time>
      </trkpt>
      <trkpt lat="4.6966930" lon="-74.3317100">
        <ele>2637.2</ele>
        <time>2018-08-10T14:55:07Z</time>
      </trkpt>
      <trkpt lat="4.6967120" lon="-74.3317370">
        <ele>2637.0</ele>
        <time>2018-08-10T14:55:08Z</time>
      </trkpt>
      <trkpt lat="4.6967370" lon="-74.3317600">
        <ele>2636.8</ele>
        <time>2018-08-10T14:55:09Z</time>
      </trkpt>
      <trkpt lat="4.6967600" lon="-74.3317870">
        <ele>2636.7</ele>
        <time>2018-08-10T14:55:10Z</time>
      </trkpt>
      <trkpt lat="4.6967880" lon="-74.3318120">
        <ele>2636.6</ele>
        <time>2018-08-10T14:55:11Z</time>
      </trkpt>
      <trkpt lat="4.6968130" lon="-74.3318370">
        <ele>2636.6</ele>
        <time>2018-08-10T14:55:12Z</time>
      </trkpt>
      <trkpt lat="4.6968380" lon="-74.3318570">
        <ele>2636.5</ele>
        <time>2018-08-10T14:55:13Z</time>
      </trkpt>
      <trkpt lat="4.6968630" lon="-74.3318730">
        <ele>2636.4</ele>
        <time>2018-08-10T14:55:14Z</time>
      </trkpt>
      <trkpt lat="4.6968920" lon="-74.3318870">
        <ele>2636.3</ele>
        <time>2018-08-10T14:55:15Z</time>
      </trkpt>
      <trkpt lat="4.6969230" lon="-74.3318980">
        <ele>2636.3</ele>
        <time>2018-08-10T14:55:16Z</time>
      </trkpt>
      <trkpt lat="4.6969550" lon="-74.3319170">
        <ele>2636.2</ele>
        <time>2018-08-10T14:55:17Z</time>
      </trkpt>
      <trkpt lat="4.6969870" lon="-74.3319450">
        <ele>2636.1</ele>
        <time>2018-08-10T14:55:18Z</time>
      </trkpt>
      <trkpt lat="4.6970230" lon="-74.3319720">
        <ele>2636.0</ele>
        <time>2018-08-10T14:55:19Z</time>
      </trkpt>
      <trkpt lat="4.6970600" lon="-74.3319920">
        <ele>2635.9</ele>
        <time>2018-08-10T14:55:20Z</time>
      </trkpt>
      <trkpt lat="4.6971000" lon="-74.3320120">
        <ele>2635.8</ele>
        <time>2018-08-10T14:55:21Z</time>
      </trkpt>
      <trkpt lat="4.6971380" lon="-74.3320320">
        <ele>2635.7</ele>
        <time>2018-08-10T14:55:22Z</time>
      </trkpt>
      <trkpt lat="4.6971720" lon="-74.3320570">
        <ele>2635.4</ele>
        <time>2018-08-10T14:55:23Z</time>
      </trkpt>
      <trkpt lat="4.6972070" lon="-74.3320850">
        <ele>2635.2</ele>
        <time>2018-08-10T14:55:24Z</time>
      </trkpt>
      <trkpt lat="4.6972420" lon="-74.3321080">
        <ele>2634.9</ele>
        <time>2018-08-10T14:55:25Z</time>
      </trkpt>
      <trkpt lat="4.6972820" lon="-74.3321280">
        <ele>2634.7</ele>
        <time>2018-08-10T14:55:26Z</time>
      </trkpt>
      <trkpt lat="4.6973020" lon="-74.3321550">
        <ele>2634.6</ele>
        <time>2018-08-10T14:55:27Z</time>
      </trkpt>
      <trkpt lat="4.6973370" lon="-74.3321750">
        <ele>2634.5</ele>
        <time>2018-08-10T14:55:28Z</time>
      </trkpt>
      <trkpt lat="4.6973700" lon="-74.3321930">
        <ele>2634.4</ele>
        <time>2018-08-10T14:55:29Z</time>
      </trkpt>
      <trkpt lat="4.6974070" lon="-74.3322080">
        <ele>2634.3</ele>
        <time>2018-08-10T14:55:30Z</time>
      </trkpt>
      <trkpt lat="4.6974430" lon="-74.3322280">
        <ele>2634.2</ele>
        <time>2018-08-10T14:55:31Z</time>
      </trkpt>
      <trkpt lat="4.6974750" lon="-74.3322570">
        <ele>2634.1</ele>
        <time>2018-08-10T14:55:32Z</time>
      </trkpt>
      <trkpt lat="4.6975100" lon="-74.3322800">
        <ele>2634.0</ele>
        <time>2018-08-10T14:55:33Z</time>
      </trkpt>
      <trkpt lat="4.6975470" lon="-74.3323030">
        <ele>2633.9</ele>
        <time>2018-08-10T14:55:34Z</time>
      </trkpt>
      <trkpt lat="4.6975830" lon="-74.3323270">
        <ele>2633.8</ele>
        <time>2018-08-10T14:55:35Z</time>
      </trkpt>
      <trkpt lat="4.6976220" lon="-74.3323500">
        <ele>2633.7</ele>
        <time>2018-08-10T14:55:36Z</time>
      </trkpt>
      <trkpt lat="4.6976600" lon="-74.3323730">
        <ele>2633.6</ele>
        <time>2018-08-10T14:55:37Z</time>
      </trkpt>
      <trkpt lat="4.6976970" lon="-74.3323980">
        <ele>2633.3</ele>
        <time>2018-08-10T14:55:38Z</time>
      </trkpt>
      <trkpt lat="4.6977350" lon="-74.3324250">
        <ele>2633.0</ele>
        <time>2018-08-10T14:55:39Z</time>
      </trkpt>
      <trkpt lat="4.6977680" lon="-74.3324500">
        <ele>2632.7</ele>
        <time>2018-08-10T14:55:40Z</time>
      </trkpt>
      <trkpt lat="4.6978030" lon="-74.3324780">
        <ele>2632.4</ele>
        <time>2018-08-10T14:55:41Z</time>
      </trkpt>
      <trkpt lat="4.6978350" lon="-74.3325100">
        <ele>2632.3</ele>
        <time>2018-08-10T14:55:42Z</time>
      </trkpt>
      <trkpt lat="4.6978670" lon="-74.3325420">
        <ele>2632.2</ele>
        <time>2018-08-10T14:55:43Z</time>
      </trkpt>
      <trkpt lat="4.6978950" lon="-74.3325720">
        <ele>2632.0</ele>
        <time>2018-08-10T14:55:44Z</time>
      </trkpt>
      <trkpt lat="4.6979230" lon="-74.3326020">
        <ele>2631.9</ele>
        <time>2018-08-10T14:55:45Z</time>
      </trkpt>
      <trkpt lat="4.6979500" lon="-74.3326270">
        <ele>2631.8</ele>
        <time>2018-08-10T14:55:46Z</time>
      </trkpt>
      <trkpt lat="4.6979730" lon="-74.3326480">
        <ele>2631.6</ele>
        <time>2018-08-10T14:55:47Z</time>
      </trkpt>
      <trkpt lat="4.6979920" lon="-74.3326680">
        <ele>2631.5</ele>
        <time>2018-08-10T14:55:48Z</time>
      </trkpt>
      <trkpt lat="4.6980050" lon="-74.3327100">
        <ele>2633.4</ele>
        <time>2018-08-10T14:55:50Z</time>
      </trkpt>
      <trkpt lat="4.6980130" lon="-74.3327400">
        <ele>2635.3</ele>
        <time>2018-08-10T14:55:52Z</time>
      </trkpt>
      <trkpt lat="4.6980320" lon="-74.3327680">
        <ele>2637.0</ele>
        <time>2018-08-10T14:55:54Z</time>
      </trkpt>
      <trkpt lat="4.6980620" lon="-74.3327980">
        <ele>2636.9</ele>
        <time>2018-08-10T14:55:56Z</time>
      </trkpt>
      <trkpt lat="4.6980950" lon="-74.3328180">
        <ele>2638.0</ele>
        <time>2018-08-10T14:55:58Z</time>
      </trkpt>
      <trkpt lat="4.6981450" lon="-74.3328300">
        <ele>2637.8</ele>
        <time>2018-08-10T14:56:00Z</time>
      </trkpt>
      <trkpt lat="4.6981870" lon="-74.3328450">
        <ele>2637.4</ele>
        <time>2018-08-10T14:56:02Z</time>
      </trkpt>
      <trkpt lat="4.6982280" lon="-74.3328630">
        <ele>2637.9</ele>
        <time>2018-08-10T14:56:04Z</time>
      </trkpt>
      <trkpt lat="4.6982700" lon="-74.3328750">
        <ele>2637.2</ele>
        <time>2018-08-10T14:56:06Z</time>
      </trkpt>
      <trkpt lat="4.6983100" lon="-74.3328920">
        <ele>2636.3</ele>
        <time>2018-08-10T14:56:08Z</time>
      </trkpt>
      <trkpt lat="4.6983470" lon="-74.3329080">
        <ele>2636.3</ele>
        <time>2018-08-10T14:56:10Z</time>
      </trkpt>
      <trkpt lat="4.6983770" lon="-74.3329200">
        <ele>2635.4</ele>
        <time>2018-08-10T14:56:12Z</time>
      </trkpt>
      <trkpt lat="4.6984070" lon="-74.3329270">
        <ele>2635.7</ele>
        <time>2018-08-10T14:56:14Z</time>
      </trkpt>
      <trkpt lat="4.6984350" lon="-74.3329420">
        <ele>2635.5</ele>
        <time>2018-08-10T14:56:16Z</time>
      </trkpt>
      <trkpt lat="4.6984770" lon="-74.3329570">
        <ele>2634.6</ele>
        <time>2018-08-10T14:56:18Z</time>
      </trkpt>
      <trkpt lat="4.6985150" lon="-74.3329820">
        <ele>2634.7</ele>
        <time>2018-08-10T14:56:20Z</time>
      </trkpt>
      <trkpt lat="4.6985480" lon="-74.3330050">
        <ele>2633.8</ele>
        <time>2018-08-10T14:56:22Z</time>
      </trkpt>
      <trkpt lat="4.6985920" lon="-74.3330320">
        <ele>2634.3</ele>
        <time>2018-08-10T14:56:24Z</time>
      </trkpt>
      <trkpt lat="4.6986130" lon="-74.3330520">
        <ele>2634.6</ele>
        <time>2018-08-10T14:56:25Z</time>
      </trkpt>
      <trkpt lat="4.6986530" lon="-74.3330820">
        <ele>2635.3</ele>
        <time>2018-08-10T14:56:27Z</time>
      </trkpt>
      <trkpt lat="4.6986900" lon="-74.3331100">
        <ele>2636.2</ele>
        <time>2018-08-10T14:56:29Z</time>
      </trkpt>
      <trkpt lat="4.6987220" lon="-74.3331430">
        <ele>2635.4</ele>
        <time>2018-08-10T14:56:31Z</time>
      </trkpt>
      <trkpt lat="4.6987570" lon="-74.3331800">
        <ele>2637.4</ele>
        <time>2018-08-10T14:56:33Z</time>
      </trkpt>
      <trkpt lat="4.6987830" lon="-74.3331970">
        <ele>2638.5</ele>
        <time>2018-08-10T14:56:34Z</time>
      </trkpt>
      <trkpt lat="4.6988070" lon="-74.3332170">
        <ele>2638.1</ele>
        <time>2018-08-10T14:56:35Z</time>
      </trkpt>
      <trkpt lat="4.6988300" lon="-74.3332350">
        <ele>2638.5</ele>
        <time>2018-08-10T14:56:36Z</time>
      </trkpt>
      <trkpt lat="4.6988520" lon="-74.3332570">
        <ele>2639.7</ele>
        <time>2018-08-10T14:56:37Z</time>
      </trkpt>
      <trkpt lat="4.6988700" lon="-74.3332770">
        <ele>2640.0</ele>
        <time>2018-08-10T14:56:38Z</time>
      </trkpt>
      <trkpt lat="4.6989080" lon="-74.3333050">
        <ele>2641.1</ele>
        <time>2018-08-10T14:56:40Z</time>
      </trkpt>
      <trkpt lat="4.6989400" lon="-74.3333300">
        <ele>2642.2</ele>
        <time>2018-08-10T14:56:42Z</time>
      </trkpt>
      <trkpt lat="4.6989720" lon="-74.3333580">
        <ele>2642.5</ele>
        <time>2018-08-10T14:56:44Z</time>
      </trkpt>
      <trkpt lat="4.6989930" lon="-74.3333900">
        <ele>2643.5</ele>
        <time>2018-08-10T14:56:46Z</time>
      </trkpt>
      <trkpt lat="4.6990180" lon="-74.3334250">
        <ele>2644.6</ele>
        <time>2018-08-10T14:56:48Z</time>
      </trkpt>
      <trkpt lat="4.6990380" lon="-74.3334570">
        <ele>2646.1</ele>
        <time>2018-08-10T14:56:50Z</time>
      </trkpt>
      <trkpt lat="4.6990630" lon="-74.3334900">
        <ele>2646.0</ele>
        <time>2018-08-10T14:56:52Z</time>
      </trkpt>
      <trkpt lat="4.6990780" lon="-74.3335300">
        <ele>2648.3</ele>
        <time>2018-08-10T14:56:54Z</time>
      </trkpt>
      <trkpt lat="4.6991020" lon="-74.3335680">
        <ele>2649.9</ele>
        <time>2018-08-10T14:56:56Z</time>
      </trkpt>
      <trkpt lat="4.6991250" lon="-74.3336030">
        <ele>2650.9</ele>
        <time>2018-08-10T14:56:58Z</time>
      </trkpt>
      <trkpt lat="4.6991480" lon="-74.3336380">
        <ele>2651.7</ele>
        <time>2018-08-10T14:57:00Z</time>
      </trkpt>
      <trkpt lat="4.6991670" lon="-74.3336750">
        <ele>2653.0</ele>
        <time>2018-08-10T14:57:02Z</time>
      </trkpt>
      <trkpt lat="4.6991850" lon="-74.3337080">
        <ele>2653.3</ele>
        <time>2018-08-10T14:57:04Z</time>
      </trkpt>
      <trkpt lat="4.6992150" lon="-74.3337450">
        <ele>2653.5</ele>
        <time>2018-08-10T14:57:06Z</time>
      </trkpt>
      <trkpt lat="4.6992430" lon="-74.3337870">
        <ele>2653.5</ele>
        <time>2018-08-10T14:57:08Z</time>
      </trkpt>
      <trkpt lat="4.6992770" lon="-74.3338300">
        <ele>2653.3</ele>
        <time>2018-08-10T14:57:10Z</time>
      </trkpt>
      <trkpt lat="4.6992980" lon="-74.3338530">
        <ele>2654.1</ele>
        <time>2018-08-10T14:57:11Z</time>
      </trkpt>
      <trkpt lat="4.6993180" lon="-74.3338780">
        <ele>2653.4</ele>
        <time>2018-08-10T14:57:12Z</time>
      </trkpt>
      <trkpt lat="4.6993370" lon="-74.3339030">
        <ele>2654.1</ele>
        <time>2018-08-10T14:57:13Z</time>
      </trkpt>
      <trkpt lat="4.6993520" lon="-74.3339350">
        <ele>2654.7</ele>
        <time>2018-08-10T14:57:14Z</time>
      </trkpt>
      <trkpt lat="4.6993670" lon="-74.3339680">
        <ele>2654.4</ele>
        <time>2018-08-10T14:57:15Z</time>
      </trkpt>
      <trkpt lat="4.6993770" lon="-74.3340000">
        <ele>2655.1</ele>
        <time>2018-08-10T14:57:16Z</time>
      </trkpt>
      <trkpt lat="4.6993930" lon="-74.3340350">
        <ele>2655.8</ele>
        <time>2018-08-10T14:57:17Z</time>
      </trkpt>
      <trkpt lat="4.6994130" lon="-74.3340680">
        <ele>2656.3</ele>
        <time>2018-08-10T14:57:18Z</time>
      </trkpt>
      <trkpt lat="4.6994270" lon="-74.3341020">
        <ele>2656.8</ele>
        <time>2018-08-10T14:57:19Z</time>
      </trkpt>
      <trkpt lat="4.6994420" lon="-74.3341380">
        <ele>2657.1</ele>
        <time>2018-08-10T14:57:20Z</time>
      </trkpt>
      <trkpt lat="4.6994530" lon="-74.3341770">
        <ele>2657.5</ele>
        <time>2018-08-10T14:57:21Z</time>
      </trkpt>
      <trkpt lat="4.6994670" lon="-74.3342130">
        <ele>2658.0</ele>
        <time>2018-08-10T14:57:22Z</time>
      </trkpt>
      <trkpt lat="4.6994770" lon="-74.3342500">
        <ele>2658.4</ele>
        <time>2018-08-10T14:57:23Z</time>
      </trkpt>
      <trkpt lat="4.6994850" lon="-74.3342820">
        <ele>2658.8</ele>
        <time>2018-08-10T14:57:24Z</time>
      </trkpt>
      <trkpt lat="4.6994900" lon="-74.3343120">
        <ele>2658.8</ele>
        <time>2018-08-10T14:57:25Z</time>
      </trkpt>
      <trkpt lat="4.6994930" lon="-74.3343420">
        <ele>2659.1</ele>
        <time>2018-08-10T14:57:26Z</time>
      </trkpt>
      <trkpt lat="4.6994880" lon="-74.3343950">
        <ele>2659.8</ele>
        <time>2018-08-10T14:57:28Z</time>
      </trkpt>
      <trkpt lat="4.6994830" lon="-74.3344420">
        <ele>2660.2</ele>
        <time>2018-08-10T14:57:30Z</time>
      </trkpt>
      <trkpt lat="4.6994830" lon="-74.3344850">
        <ele>2660.5</ele>
        <time>2018-08-10T14:57:32Z</time>
      </trkpt>
      <trkpt lat="4.6994820" lon="-74.3345330">
        <ele>2660.9</ele>
        <time>2018-08-10T14:57:34Z</time>
      </trkpt>
      <trkpt lat="4.6994750" lon="-74.3345850">
        <ele>2661.1</ele>
        <time>2018-08-10T14:57:36Z</time>
      </trkpt>
      <trkpt lat="4.6994670" lon="-74.3346330">
        <ele>2661.4</ele>
        <time>2018-08-10T14:57:38Z</time>
      </trkpt>
      <trkpt lat="4.6994650" lon="-74.3346630">
        <ele>2661.6</ele>
        <time>2018-08-10T14:57:39Z</time>
      </trkpt>
      <trkpt lat="4.6994600" lon="-74.3346920">
        <ele>2662.0</ele>
        <time>2018-08-10T14:57:40Z</time>
      </trkpt>
      <trkpt lat="4.6994580" lon="-74.3347200">
        <ele>2662.2</ele>
        <time>2018-08-10T14:57:41Z</time>
      </trkpt>
      <trkpt lat="4.6994470" lon="-74.3347670">
        <ele>2662.4</ele>
        <time>2018-08-10T14:57:43Z</time>
      </trkpt>
      <trkpt lat="4.6994250" lon="-74.3348130">
        <ele>2663.6</ele>
        <time>2018-08-10T14:57:45Z</time>
      </trkpt>
      <trkpt lat="4.6994120" lon="-74.3348570">
        <ele>2664.0</ele>
        <time>2018-08-10T14:57:47Z</time>
      </trkpt>
      <trkpt lat="4.6993980" lon="-74.3348880">
        <ele>2665.7</ele>
        <time>2018-08-10T14:57:48Z</time>
      </trkpt>
      <trkpt lat="4.6993900" lon="-74.3349170">
        <ele>2666.1</ele>
        <time>2018-08-10T14:57:49Z</time>
      </trkpt>
      <trkpt lat="4.6993670" lon="-74.3349650">
        <ele>2666.6</ele>
        <time>2018-08-10T14:57:51Z</time>
      </trkpt>
      <trkpt lat="4.6993450" lon="-74.3350080">
        <ele>2668.3</ele>
        <time>2018-08-10T14:57:53Z</time>
      </trkpt>
      <trkpt lat="4.6993200" lon="-74.3350480">
        <ele>2668.6</ele>
        <time>2018-08-10T14:57:55Z</time>
      </trkpt>
      <trkpt lat="4.6992970" lon="-74.3350850">
        <ele>2669.9</ele>
        <time>2018-08-10T14:57:57Z</time>
      </trkpt>
      <trkpt lat="4.6992780" lon="-74.3351200">
        <ele>2670.2</ele>
        <time>2018-08-10T14:57:59Z</time>
      </trkpt>
      <trkpt lat="4.6992650" lon="-74.3351450">
        <ele>2671.1</ele>
        <time>2018-08-10T14:58:00Z</time>
      </trkpt>
      <trkpt lat="4.6992630" lon="-74.3351900">
        <ele>2670.9</ele>
        <time>2018-08-10T14:58:02Z</time>
      </trkpt>
      <trkpt lat="4.6992550" lon="-74.3352170">
        <ele>2670.7</ele>
        <time>2018-08-10T14:58:03Z</time>
      </trkpt>
      <trkpt lat="4.6992420" lon="-74.3352420">
        <ele>2671.0</ele>
        <time>2018-08-10T14:58:04Z</time>
      </trkpt>
      <trkpt lat="4.6992230" lon="-74.3352830">
        <ele>2671.7</ele>
        <time>2018-08-10T14:58:06Z</time>
      </trkpt>
      <trkpt lat="4.6991950" lon="-74.3353120">
        <ele>2671.7</ele>
        <time>2018-08-10T14:58:08Z</time>
      </trkpt>
      <trkpt lat="4.6991680" lon="-74.3353450">
        <ele>2672.5</ele>
        <time>2018-08-10T14:58:10Z</time>
      </trkpt>
      <trkpt lat="4.6991430" lon="-74.3353880">
        <ele>2673.2</ele>
        <time>2018-08-10T14:58:12Z</time>
      </trkpt>
      <trkpt lat="4.6991330" lon="-74.3354370">
        <ele>2673.1</ele>
        <time>2018-08-10T14:58:14Z</time>
      </trkpt>
      <trkpt lat="4.6991420" lon="-74.3354820">
        <ele>2672.9</ele>
        <time>2018-08-10T14:58:16Z</time>
      </trkpt>
      <trkpt lat="4.6991620" lon="-74.3355100">
        <ele>2672.8</ele>
        <time>2018-08-10T14:58:19Z</time>
      </trkpt>
      <trkpt lat="4.6991880" lon="-74.3355230">
        <ele>2672.8</ele>
        <time>2018-08-10T14:58:22Z</time>
      </trkpt>
      <trkpt lat="4.6992250" lon="-74.3355280">
        <ele>2672.9</ele>
        <time>2018-08-10T14:58:24Z</time>
      </trkpt>
      <trkpt lat="4.6992630" lon="-74.3355320">
        <ele>2673.0</ele>
        <time>2018-08-10T14:58:26Z</time>
      </trkpt>
      <trkpt lat="4.6992980" lon="-74.3355300">
        <ele>2673.3</ele>
        <time>2018-08-10T14:58:28Z</time>
      </trkpt>
      <trkpt lat="4.6993350" lon="-74.3355380">
        <ele>2673.6</ele>
        <time>2018-08-10T14:58:30Z</time>
      </trkpt>
      <trkpt lat="4.6993680" lon="-74.3355470">
        <ele>2673.9</ele>
        <time>2018-08-10T14:58:32Z</time>
      </trkpt>
      <trkpt lat="4.6994030" lon="-74.3355550">
        <ele>2674.3</ele>
        <time>2018-08-10T14:58:34Z</time>
      </trkpt>
      <trkpt lat="4.6994330" lon="-74.3355700">
        <ele>2674.8</ele>
        <time>2018-08-10T14:58:36Z</time>
      </trkpt>
      <trkpt lat="4.6994670" lon="-74.3355680">
        <ele>2675.7</ele>
        <time>2018-08-10T14:58:39Z</time>
      </trkpt>
      <trkpt lat="4.6995020" lon="-74.3355600">
        <ele>2676.6</ele>
        <time>2018-08-10T14:58:41Z</time>
      </trkpt>
      <trkpt lat="4.6995470" lon="-74.3355520">
        <ele>2677.3</ele>
        <time>2018-08-10T14:58:43Z</time>
      </trkpt>
      <trkpt lat="4.6995780" lon="-74.3355600">
        <ele>2677.7</ele>
        <time>2018-08-10T14:58:45Z</time>
      </trkpt>
      <trkpt lat="4.6996130" lon="-74.3355770">
        <ele>2678.0</ele>
        <time>2018-08-10T14:58:47Z</time>
      </trkpt>
      <trkpt lat="4.6996650" lon="-74.3355830">
        <ele>2678.2</ele>
        <time>2018-08-10T14:58:49Z</time>
      </trkpt>
      <trkpt lat="4.6997180" lon="-74.3355800">
        <ele>2678.0</ele>
        <time>2018-08-10T14:58:51Z</time>
      </trkpt>
      <trkpt lat="4.6997470" lon="-74.3355830">
        <ele>2677.8</ele>
        <time>2018-08-10T14:58:52Z</time>
      </trkpt>
      <trkpt lat="4.6997770" lon="-74.3355850">
        <ele>2677.6</ele>
        <time>2018-08-10T14:58:53Z</time>
      </trkpt>
      <trkpt lat="4.6998070" lon="-74.3355870">
        <ele>2677.2</ele>
        <time>2018-08-10T14:58:54Z</time>
      </trkpt>
      <trkpt lat="4.6998380" lon="-74.3355920">
        <ele>2676.8</ele>
        <time>2018-08-10T14:58:55Z</time>
      </trkpt>
      <trkpt lat="4.6998680" lon="-74.3355970">
        <ele>2676.6</ele>
        <time>2018-08-10T14:58:56Z</time>
      </trkpt>
      <trkpt lat="4.6998970" lon="-74.3355970">
        <ele>2676.5</ele>
        <time>2018-08-10T14:58:57Z</time>
      </trkpt>
      <trkpt lat="4.6999280" lon="-74.3355980">
        <ele>2676.4</ele>
        <time>2018-08-10T14:58:58Z</time>
      </trkpt>
      <trkpt lat="4.6999580" lon="-74.3356020">
        <ele>2676.2</ele>
        <time>2018-08-10T14:58:59Z</time>
      </trkpt>
      <trkpt lat="4.7000130" lon="-74.3356100">
        <ele>2675.8</ele>
        <time>2018-08-10T14:59:01Z</time>
      </trkpt>
      <trkpt lat="4.7000430" lon="-74.3356200">
        <ele>2676.0</ele>
        <time>2018-08-10T14:59:02Z</time>
      </trkpt>
      <trkpt lat="4.7000730" lon="-74.3356320">
        <ele>2676.4</ele>
        <time>2018-08-10T14:59:03Z</time>
      </trkpt>
      <trkpt lat="4.7001080" lon="-74.3356420">
        <ele>2676.8</ele>
        <time>2018-08-10T14:59:04Z</time>
      </trkpt>
      <trkpt lat="4.7001420" lon="-74.3356550">
        <ele>2677.1</ele>
        <time>2018-08-10T14:59:05Z</time>
      </trkpt>
      <trkpt lat="4.7001780" lon="-74.3356630">
        <ele>2677.4</ele>
        <time>2018-08-10T14:59:06Z</time>
      </trkpt>
      <trkpt lat="4.7002170" lon="-74.3356730">
        <ele>2677.2</ele>
        <time>2018-08-10T14:59:07Z</time>
      </trkpt>
      <trkpt lat="4.7002570" lon="-74.3356870">
        <ele>2676.9</ele>
        <time>2018-08-10T14:59:08Z</time>
      </trkpt>
      <trkpt lat="4.7002970" lon="-74.3357030">
        <ele>2676.8</ele>
        <time>2018-08-10T14:59:09Z</time>
      </trkpt>
      <trkpt lat="4.7003330" lon="-74.3357230">
        <ele>2676.8</ele>
        <time>2018-08-10T14:59:10Z</time>
      </trkpt>
      <trkpt lat="4.7003700" lon="-74.3357450">
        <ele>2676.9</ele>
        <time>2018-08-10T14:59:11Z</time>
      </trkpt>
      <trkpt lat="4.7004030" lon="-74.3357750">
        <ele>2677.0</ele>
        <time>2018-08-10T14:59:12Z</time>
      </trkpt>
      <trkpt lat="4.7004330" lon="-74.3358070">
        <ele>2677.1</ele>
        <time>2018-08-10T14:59:13Z</time>
      </trkpt>
      <trkpt lat="4.7004580" lon="-74.3358350">
        <ele>2677.1</ele>
        <time>2018-08-10T14:59:14Z</time>
      </trkpt>
      <trkpt lat="4.7004820" lon="-74.3358620">
        <ele>2677.1</ele>
        <time>2018-08-10T14:59:15Z</time>
      </trkpt>
      <trkpt lat="4.7005070" lon="-74.3358880">
        <ele>2677.1</ele>
        <time>2018-08-10T14:59:16Z</time>
      </trkpt>
      <trkpt lat="4.7005400" lon="-74.3359150">
        <ele>2677.2</ele>
        <time>2018-08-10T14:59:17Z</time>
      </trkpt>
      <trkpt lat="4.7005820" lon="-74.3359380">
        <ele>2676.3</ele>
        <time>2018-08-10T14:59:18Z</time>
      </trkpt>
      <trkpt lat="4.7006300" lon="-74.3359600">
        <ele>2675.1</ele>
        <time>2018-08-10T14:59:19Z</time>
      </trkpt>
      <trkpt lat="4.7006780" lon="-74.3359750">
        <ele>2673.1</ele>
        <time>2018-08-10T14:59:20Z</time>
      </trkpt>
      <trkpt lat="4.7007270" lon="-74.3359880">
        <ele>2671.5</ele>
        <time>2018-08-10T14:59:21Z</time>
      </trkpt>
      <trkpt lat="4.7007700" lon="-74.3359970">
        <ele>2670.9</ele>
        <time>2018-08-10T14:59:22Z</time>
      </trkpt>
      <trkpt lat="4.7008200" lon="-74.3359970">
        <ele>2669.7</ele>
        <time>2018-08-10T14:59:23Z</time>
      </trkpt>
      <trkpt lat="4.7008680" lon="-74.3359930">
        <ele>2668.1</ele>
        <time>2018-08-10T14:59:24Z</time>
      </trkpt>
      <trkpt lat="4.7009130" lon="-74.3359900">
        <ele>2666.2</ele>
        <time>2018-08-10T14:59:25Z</time>
      </trkpt>
      <trkpt lat="4.7009580" lon="-74.3359880">
        <ele>2664.5</ele>
        <time>2018-08-10T14:59:26Z</time>
      </trkpt>
      <trkpt lat="4.7010000" lon="-74.3359830">
        <ele>2664.1</ele>
        <time>2018-08-10T14:59:27Z</time>
      </trkpt>
      <trkpt lat="4.7010430" lon="-74.3359830">
        <ele>2663.6</ele>
        <time>2018-08-10T14:59:28Z</time>
      </trkpt>
      <trkpt lat="4.7010820" lon="-74.3359800">
        <ele>2663.0</ele>
        <time>2018-08-10T14:59:29Z</time>
      </trkpt>
      <trkpt lat="4.7011100" lon="-74.3359780">
        <ele>2662.7</ele>
        <time>2018-08-10T14:59:30Z</time>
      </trkpt>
      <trkpt lat="4.7011450" lon="-74.3359780">
        <ele>2662.9</ele>
        <time>2018-08-10T14:59:32Z</time>
      </trkpt>
      <trkpt lat="4.7011950" lon="-74.3359780">
        <ele>2663.0</ele>
        <time>2018-08-10T14:59:34Z</time>
      </trkpt>
      <trkpt lat="4.7012480" lon="-74.3359930">
        <ele>2663.1</ele>
        <time>2018-08-10T14:59:36Z</time>
      </trkpt>
      <trkpt lat="4.7012800" lon="-74.3360150">
        <ele>2663.6</ele>
        <time>2018-08-10T14:59:37Z</time>
      </trkpt>
      <trkpt lat="4.7013080" lon="-74.3360380">
        <ele>2663.9</ele>
        <time>2018-08-10T14:59:38Z</time>
      </trkpt>
      <trkpt lat="4.7013330" lon="-74.3360620">
        <ele>2664.2</ele>
        <time>2018-08-10T14:59:39Z</time>
      </trkpt>
      <trkpt lat="4.7013550" lon="-74.3360880">
        <ele>2664.5</ele>
        <time>2018-08-10T14:59:40Z</time>
      </trkpt>
      <trkpt lat="4.7013720" lon="-74.3361120">
        <ele>2664.6</ele>
        <time>2018-08-10T14:59:41Z</time>
      </trkpt>
      <trkpt lat="4.7013950" lon="-74.3361550">
        <ele>2664.9</ele>
        <time>2018-08-10T14:59:43Z</time>
      </trkpt>
      <trkpt lat="4.7014200" lon="-74.3361880">
        <ele>2665.1</ele>
        <time>2018-08-10T14:59:45Z</time>
      </trkpt>
      <trkpt lat="4.7014400" lon="-74.3362200">
        <ele>2665.2</ele>
        <time>2018-08-10T14:59:47Z</time>
      </trkpt>
      <trkpt lat="4.7014620" lon="-74.3362530">
        <ele>2665.3</ele>
        <time>2018-08-10T14:59:49Z</time>
      </trkpt>
      <trkpt lat="4.7014780" lon="-74.3362830">
        <ele>2665.4</ele>
        <time>2018-08-10T14:59:51Z</time>
      </trkpt>
      <trkpt lat="4.7014950" lon="-74.3363130">
        <ele>2665.5</ele>
        <time>2018-08-10T14:59:53Z</time>
      </trkpt>
      <trkpt lat="4.7015100" lon="-74.3363470">
        <ele>2665.6</ele>
        <time>2018-08-10T14:59:55Z</time>
      </trkpt>
      <trkpt lat="4.7015270" lon="-74.3363750">
        <ele>2665.7</ele>
        <time>2018-08-10T14:59:57Z</time>
      </trkpt>
      <trkpt lat="4.7015400" lon="-74.3364050">
        <ele>2665.8</ele>
        <time>2018-08-10T14:59:59Z</time>
      </trkpt>
      <trkpt lat="4.7015550" lon="-74.3364330">
        <ele>2665.9</ele>
        <time>2018-08-10T15:00:01Z</time>
      </trkpt>
      <trkpt lat="4.7015800" lon="-74.3364570">
        <ele>2665.9</ele>
        <time>2018-08-10T15:00:03Z</time>
      </trkpt>
      <trkpt lat="4.7016030" lon="-74.3364800">
        <ele>2666.0</ele>
        <time>2018-08-10T15:00:05Z</time>
      </trkpt>
      <trkpt lat="4.7016150" lon="-74.3365070">
        <ele>2666.0</ele>
        <time>2018-08-10T15:00:07Z</time>
      </trkpt>
      <trkpt lat="4.7016270" lon="-74.3365380">
        <ele>2666.0</ele>
        <time>2018-08-10T15:00:09Z</time>
      </trkpt>
      <trkpt lat="4.7016430" lon="-74.3365700">
        <ele>2666.0</ele>
        <time>2018-08-10T15:00:11Z</time>
      </trkpt>
      <trkpt lat="4.7016550" lon="-74.3366030">
        <ele>2666.0</ele>
        <time>2018-08-10T15:00:13Z</time>
      </trkpt>
      <trkpt lat="4.7016720" lon="-74.3366370">
        <ele>2666.0</ele>
        <time>2018-08-10T15:00:15Z</time>
      </trkpt>
      <trkpt lat="4.7016880" lon="-74.3366770">
        <ele>2665.9</ele>
        <time>2018-08-10T15:00:17Z</time>
      </trkpt>
      <trkpt lat="4.7017070" lon="-74.3367130">
        <ele>2665.9</ele>
        <time>2018-08-10T15:00:19Z</time>
      </trkpt>
      <trkpt lat="4.7017180" lon="-74.3367500">
        <ele>2665.8</ele>
        <time>2018-08-10T15:00:21Z</time>
      </trkpt>
      <trkpt lat="4.7017350" lon="-74.3367920">
        <ele>2665.7</ele>
        <time>2018-08-10T15:00:23Z</time>
      </trkpt>
      <trkpt lat="4.7017550" lon="-74.3368330">
        <ele>2665.6</ele>
        <time>2018-08-10T15:00:25Z</time>
      </trkpt>
      <trkpt lat="4.7017730" lon="-74.3368730">
        <ele>2665.5</ele>
        <time>2018-08-10T15:00:27Z</time>
      </trkpt>
      <trkpt lat="4.7017880" lon="-74.3369150">
        <ele>2665.3</ele>
        <time>2018-08-10T15:00:29Z</time>
      </trkpt>
      <trkpt lat="4.7018030" lon="-74.3369620">
        <ele>2665.1</ele>
        <time>2018-08-10T15:00:31Z</time>
      </trkpt>
      <trkpt lat="4.7018200" lon="-74.3370130">
        <ele>2664.8</ele>
        <time>2018-08-10T15:00:33Z</time>
      </trkpt>
      <trkpt lat="4.7018280" lon="-74.3370400">
        <ele>2664.6</ele>
        <time>2018-08-10T15:00:34Z</time>
      </trkpt>
      <trkpt lat="4.7018330" lon="-74.3370980">
        <ele>2663.9</ele>
        <time>2018-08-10T15:00:36Z</time>
      </trkpt>
      <trkpt lat="4.7018400" lon="-74.3371470">
        <ele>2663.3</ele>
        <time>2018-08-10T15:00:38Z</time>
      </trkpt>
      <trkpt lat="4.7018430" lon="-74.3371750">
        <ele>2663.0</ele>
        <time>2018-08-10T15:00:39Z</time>
      </trkpt>
      <trkpt lat="4.7018480" lon="-74.3372020">
        <ele>2662.7</ele>
        <time>2018-08-10T15:00:40Z</time>
      </trkpt>
      <trkpt lat="4.7018550" lon="-74.3372320">
        <ele>2662.6</ele>
        <time>2018-08-10T15:00:41Z</time>
      </trkpt>
      <trkpt lat="4.7018620" lon="-74.3372630">
        <ele>2662.5</ele>
        <time>2018-08-10T15:00:42Z</time>
      </trkpt>
      <trkpt lat="4.7018720" lon="-74.3373030">
        <ele>2662.3</ele>
        <time>2018-08-10T15:00:43Z</time>
      </trkpt>
      <trkpt lat="4.7018820" lon="-74.3373480">
        <ele>2662.1</ele>
        <time>2018-08-10T15:00:44Z</time>
      </trkpt>
      <trkpt lat="4.7018930" lon="-74.3373980">
        <ele>2661.8</ele>
        <time>2018-08-10T15:00:45Z</time>
      </trkpt>
      <trkpt lat="4.7019080" lon="-74.3374500">
        <ele>2661.6</ele>
        <time>2018-08-10T15:00:46Z</time>
      </trkpt>
      <trkpt lat="4.7019230" lon="-74.3375000">
        <ele>2661.4</ele>
        <time>2018-08-10T15:00:47Z</time>
      </trkpt>
      <trkpt lat="4.7019450" lon="-74.3375450">
        <ele>2661.2</ele>
        <time>2018-08-10T15:00:48Z</time>
      </trkpt>
      <trkpt lat="4.7019670" lon="-74.3375880">
        <ele>2661.0</ele>
        <time>2018-08-10T15:00:49Z</time>
      </trkpt>
      <trkpt lat="4.7019900" lon="-74.3376280">
        <ele>2660.9</ele>
        <time>2018-08-10T15:00:50Z</time>
      </trkpt>
      <trkpt lat="4.7020150" lon="-74.3376680">
        <ele>2660.8</ele>
        <time>2018-08-10T15:00:51Z</time>
      </trkpt>
      <trkpt lat="4.7020450" lon="-74.3377070">
        <ele>2660.7</ele>
        <time>2018-08-10T15:00:52Z</time>
      </trkpt>
      <trkpt lat="4.7020770" lon="-74.3377450">
        <ele>2660.5</ele>
        <time>2018-08-10T15:00:53Z</time>
      </trkpt>
      <trkpt lat="4.7021100" lon="-74.3377900">
        <ele>2660.4</ele>
        <time>2018-08-10T15:00:54Z</time>
      </trkpt>
      <trkpt lat="4.7021450" lon="-74.3378370">
        <ele>2660.4</ele>
        <time>2018-08-10T15:00:55Z</time>
      </trkpt>
      <trkpt lat="4.7021830" lon="-74.3378870">
        <ele>2660.3</ele>
        <time>2018-08-10T15:00:56Z</time>
      </trkpt>
      <trkpt lat="4.7022200" lon="-74.3379330">
        <ele>2660.2</ele>
        <time>2018-08-10T15:00:57Z</time>
      </trkpt>
      <trkpt lat="4.7022570" lon="-74.3379780">
        <ele>2660.1</ele>
        <time>2018-08-10T15:00:58Z</time>
      </trkpt>
      <trkpt lat="4.7022950" lon="-74.3380200">
        <ele>2660.0</ele>
        <time>2018-08-10T15:00:59Z</time>
      </trkpt>
      <trkpt lat="4.7023330" lon="-74.3380620">
        <ele>2660.0</ele>
        <time>2018-08-10T15:01:00Z</time>
      </trkpt>
      <trkpt lat="4.7023700" lon="-74.3381030">
        <ele>2659.9</ele>
        <time>2018-08-10T15:01:01Z</time>
      </trkpt>
      <trkpt lat="4.7024050" lon="-74.3381420">
        <ele>2659.9</ele>
        <time>2018-08-10T15:01:02Z</time>
      </trkpt>
      <trkpt lat="4.7024450" lon="-74.3381750">
        <ele>2659.8</ele>
        <time>2018-08-10T15:01:03Z</time>
      </trkpt>
      <trkpt lat="4.7024880" lon="-74.3382020">
        <ele>2659.8</ele>
        <time>2018-08-10T15:01:04Z</time>
      </trkpt>
      <trkpt lat="4.7025350" lon="-74.3382220">
        <ele>2659.8</ele>
        <time>2018-08-10T15:01:05Z</time>
      </trkpt>
      <trkpt lat="4.7025850" lon="-74.3382430">
        <ele>2659.9</ele>
        <time>2018-08-10T15:01:06Z</time>
      </trkpt>
      <trkpt lat="4.7026380" lon="-74.3382670">
        <ele>2659.9</ele>
        <time>2018-08-10T15:01:07Z</time>
      </trkpt>
      <trkpt lat="4.7026920" lon="-74.3382900">
        <ele>2660.0</ele>
        <time>2018-08-10T15:01:08Z</time>
      </trkpt>
      <trkpt lat="4.7027420" lon="-74.3383150">
        <ele>2660.0</ele>
        <time>2018-08-10T15:01:09Z</time>
      </trkpt>
      <trkpt lat="4.7027900" lon="-74.3383350">
        <ele>2660.0</ele>
        <time>2018-08-10T15:01:10Z</time>
      </trkpt>
      <trkpt lat="4.7028380" lon="-74.3383550">
        <ele>2660.0</ele>
        <time>2018-08-10T15:01:11Z</time>
      </trkpt>
      <trkpt lat="4.7028850" lon="-74.3383750">
        <ele>2660.0</ele>
        <time>2018-08-10T15:01:12Z</time>
      </trkpt>
      <trkpt lat="4.7029280" lon="-74.3383930">
        <ele>2660.0</ele>
        <time>2018-08-10T15:01:13Z</time>
      </trkpt>
      <trkpt lat="4.7029730" lon="-74.3384130">
        <ele>2659.9</ele>
        <time>2018-08-10T15:01:14Z</time>
      </trkpt>
      <trkpt lat="4.7030180" lon="-74.3384330">
        <ele>2659.9</ele>
        <time>2018-08-10T15:01:15Z</time>
      </trkpt>
      <trkpt lat="4.7030630" lon="-74.3384520">
        <ele>2659.8</ele>
        <time>2018-08-10T15:01:16Z</time>
      </trkpt>
      <trkpt lat="4.7031130" lon="-74.3384730">
        <ele>2659.7</ele>
        <time>2018-08-10T15:01:17Z</time>
      </trkpt>
      <trkpt lat="4.7031650" lon="-74.3384950">
        <ele>2659.6</ele>
        <time>2018-08-10T15:01:18Z</time>
      </trkpt>
      <trkpt lat="4.7032170" lon="-74.3385130">
        <ele>2659.6</ele>
        <time>2018-08-10T15:01:19Z</time>
      </trkpt>
      <trkpt lat="4.7032630" lon="-74.3385330">
        <ele>2659.6</ele>
        <time>2018-08-10T15:01:20Z</time>
      </trkpt>
      <trkpt lat="4.7033100" lon="-74.3385470">
        <ele>2659.6</ele>
        <time>2018-08-10T15:01:21Z</time>
      </trkpt>
      <trkpt lat="4.7033550" lon="-74.3385580">
        <ele>2659.7</ele>
        <time>2018-08-10T15:01:22Z</time>
      </trkpt>
      <trkpt lat="4.7033980" lon="-74.3385700">
        <ele>2659.8</ele>
        <time>2018-08-10T15:01:23Z</time>
      </trkpt>
      <trkpt lat="4.7034450" lon="-74.3385770">
        <ele>2660.0</ele>
        <time>2018-08-10T15:01:24Z</time>
      </trkpt>
      <trkpt lat="4.7034950" lon="-74.3385830">
        <ele>2660.2</ele>
        <time>2018-08-10T15:01:25Z</time>
      </trkpt>
      <trkpt lat="4.7035400" lon="-74.3385850">
        <ele>2660.5</ele>
        <time>2018-08-10T15:01:26Z</time>
      </trkpt>
      <trkpt lat="4.7035830" lon="-74.3385850">
        <ele>2660.8</ele>
        <time>2018-08-10T15:01:27Z</time>
      </trkpt>
      <trkpt lat="4.7036200" lon="-74.3385850">
        <ele>2661.1</ele>
        <time>2018-08-10T15:01:28Z</time>
      </trkpt>
      <trkpt lat="4.7036570" lon="-74.3385870">
        <ele>2661.4</ele>
        <time>2018-08-10T15:01:29Z</time>
      </trkpt>
      <trkpt lat="4.7036900" lon="-74.3385920">
        <ele>2661.7</ele>
        <time>2018-08-10T15:01:30Z</time>
      </trkpt>
      <trkpt lat="4.7037200" lon="-74.3386020">
        <ele>2662.0</ele>
        <time>2018-08-10T15:01:31Z</time>
      </trkpt>
      <trkpt lat="4.7037450" lon="-74.3386150">
        <ele>2662.3</ele>
        <time>2018-08-10T15:01:32Z</time>
      </trkpt>
      <trkpt lat="4.7037680" lon="-74.3386300">
        <ele>2662.6</ele>
        <time>2018-08-10T15:01:33Z</time>
      </trkpt>
      <trkpt lat="4.7038100" lon="-74.3386570">
        <ele>2663.2</ele>
        <time>2018-08-10T15:01:35Z</time>
      </trkpt>
      <trkpt lat="4.7038600" lon="-74.3386800">
        <ele>2663.8</ele>
        <time>2018-08-10T15:01:37Z</time>
      </trkpt>
      <trkpt lat="4.7038880" lon="-74.3386880">
        <ele>2664.1</ele>
        <time>2018-08-10T15:01:38Z</time>
      </trkpt>
      <trkpt lat="4.7039130" lon="-74.3387030">
        <ele>2664.5</ele>
        <time>2018-08-10T15:01:39Z</time>
      </trkpt>
      <trkpt lat="4.7039580" lon="-74.3387280">
        <ele>2665.0</ele>
        <time>2018-08-10T15:01:41Z</time>
      </trkpt>
      <trkpt lat="4.7040050" lon="-74.3387530">
        <ele>2665.7</ele>
        <time>2018-08-10T15:01:43Z</time>
      </trkpt>
      <trkpt lat="4.7040500" lon="-74.3387620">
        <ele>2666.3</ele>
        <time>2018-08-10T15:01:45Z</time>
      </trkpt>
      <trkpt lat="4.7040930" lon="-74.3387700">
        <ele>2666.8</ele>
        <time>2018-08-10T15:01:47Z</time>
      </trkpt>
      <trkpt lat="4.7041320" lon="-74.3387750">
        <ele>2667.3</ele>
        <time>2018-08-10T15:01:49Z</time>
      </trkpt>
      <trkpt lat="4.7041700" lon="-74.3387800">
        <ele>2667.7</ele>
        <time>2018-08-10T15:01:51Z</time>
      </trkpt>
      <trkpt lat="4.7042120" lon="-74.3387830">
        <ele>2668.1</ele>
        <time>2018-08-10T15:01:53Z</time>
      </trkpt>
      <trkpt lat="4.7042380" lon="-74.3387880">
        <ele>2668.4</ele>
        <time>2018-08-10T15:01:54Z</time>
      </trkpt>
      <trkpt lat="4.7042650" lon="-74.3387980">
        <ele>2668.6</ele>
        <time>2018-08-10T15:01:55Z</time>
      </trkpt>
      <trkpt lat="4.7043180" lon="-74.3388180">
        <ele>2669.0</ele>
        <time>2018-08-10T15:01:57Z</time>
      </trkpt>
      <trkpt lat="4.7043480" lon="-74.3388300">
        <ele>2669.2</ele>
        <time>2018-08-10T15:01:58Z</time>
      </trkpt>
      <trkpt lat="4.7043770" lon="-74.3388470">
        <ele>2669.4</ele>
        <time>2018-08-10T15:01:59Z</time>
      </trkpt>
      <trkpt lat="4.7044080" lon="-74.3388570">
        <ele>2670.0</ele>
        <time>2018-08-10T15:02:00Z</time>
      </trkpt>
      <trkpt lat="4.7044330" lon="-74.3388680">
        <ele>2670.6</ele>
        <time>2018-08-10T15:02:01Z</time>
      </trkpt>
      <trkpt lat="4.7044600" lon="-74.3388730">
        <ele>2671.7</ele>
        <time>2018-08-10T15:02:02Z</time>
      </trkpt>
      <trkpt lat="4.7044930" lon="-74.3388780">
        <ele>2672.2</ele>
        <time>2018-08-10T15:02:03Z</time>
      </trkpt>
      <trkpt lat="4.7045220" lon="-74.3388870">
        <ele>2672.6</ele>
        <time>2018-08-10T15:02:04Z</time>
      </trkpt>
      <trkpt lat="4.7045480" lon="-74.3389020">
        <ele>2673.0</ele>
        <time>2018-08-10T15:02:05Z</time>
      </trkpt>
      <trkpt lat="4.7045720" lon="-74.3389170">
        <ele>2673.3</ele>
        <time>2018-08-10T15:02:06Z</time>
      </trkpt>
      <trkpt lat="4.7045970" lon="-74.3389320">
        <ele>2673.5</ele>
        <time>2018-08-10T15:02:07Z</time>
      </trkpt>
      <trkpt lat="4.7046220" lon="-74.3389430">
        <ele>2673.7</ele>
        <time>2018-08-10T15:02:08Z</time>
      </trkpt>
      <trkpt lat="4.7046450" lon="-74.3389580">
        <ele>2673.9</ele>
        <time>2018-08-10T15:02:09Z</time>
      </trkpt>
      <trkpt lat="4.7046680" lon="-74.3389730">
        <ele>2674.0</ele>
        <time>2018-08-10T15:02:10Z</time>
      </trkpt>
      <trkpt lat="4.7046930" lon="-74.3389850">
        <ele>2674.2</ele>
        <time>2018-08-10T15:02:11Z</time>
      </trkpt>
      <trkpt lat="4.7047420" lon="-74.3390120">
        <ele>2674.5</ele>
        <time>2018-08-10T15:02:13Z</time>
      </trkpt>
      <trkpt lat="4.7047650" lon="-74.3390270">
        <ele>2674.7</ele>
        <time>2018-08-10T15:02:14Z</time>
      </trkpt>
      <trkpt lat="4.7047880" lon="-74.3390450">
        <ele>2674.9</ele>
        <time>2018-08-10T15:02:15Z</time>
      </trkpt>
      <trkpt lat="4.7048100" lon="-74.3390670">
        <ele>2675.1</ele>
        <time>2018-08-10T15:02:16Z</time>
      </trkpt>
      <trkpt lat="4.7048320" lon="-74.3390900">
        <ele>2675.4</ele>
        <time>2018-08-10T15:02:17Z</time>
      </trkpt>
      <trkpt lat="4.7048520" lon="-74.3391180">
        <ele>2675.7</ele>
        <time>2018-08-10T15:02:18Z</time>
      </trkpt>
      <trkpt lat="4.7048720" lon="-74.3391480">
        <ele>2675.9</ele>
        <time>2018-08-10T15:02:19Z</time>
      </trkpt>
      <trkpt lat="4.7048920" lon="-74.3391770">
        <ele>2676.2</ele>
        <time>2018-08-10T15:02:20Z</time>
      </trkpt>
      <trkpt lat="4.7049150" lon="-74.3392020">
        <ele>2676.4</ele>
        <time>2018-08-10T15:02:21Z</time>
      </trkpt>
      <trkpt lat="4.7049400" lon="-74.3392300">
        <ele>2676.6</ele>
        <time>2018-08-10T15:02:22Z</time>
      </trkpt>
      <trkpt lat="4.7049630" lon="-74.3392570">
        <ele>2676.7</ele>
        <time>2018-08-10T15:02:23Z</time>
      </trkpt>
      <trkpt lat="4.7049900" lon="-74.3392850">
        <ele>2676.9</ele>
        <time>2018-08-10T15:02:24Z</time>
      </trkpt>
      <trkpt lat="4.7050170" lon="-74.3393100">
        <ele>2677.0</ele>
        <time>2018-08-10T15:02:25Z</time>
      </trkpt>
      <trkpt lat="4.7050420" lon="-74.3393380">
        <ele>2677.1</ele>
        <time>2018-08-10T15:02:26Z</time>
      </trkpt>
      <trkpt lat="4.7050680" lon="-74.3393650">
        <ele>2677.2</ele>
        <time>2018-08-10T15:02:27Z</time>
      </trkpt>
      <trkpt lat="4.7050950" lon="-74.3393900">
        <ele>2677.3</ele>
        <time>2018-08-10T15:02:28Z</time>
      </trkpt>
      <trkpt lat="4.7051200" lon="-74.3394130">
        <ele>2677.3</ele>
        <time>2018-08-10T15:02:29Z</time>
      </trkpt>
      <trkpt lat="4.7051450" lon="-74.3394380">
        <ele>2677.4</ele>
        <time>2018-08-10T15:02:30Z</time>
      </trkpt>
      <trkpt lat="4.7051670" lon="-74.3394630">
        <ele>2677.5</ele>
        <time>2018-08-10T15:02:31Z</time>
      </trkpt>
      <trkpt lat="4.7051850" lon="-74.3394850">
        <ele>2677.6</ele>
        <time>2018-08-10T15:02:32Z</time>
      </trkpt>
      <trkpt lat="4.7052050" lon="-74.3395080">
        <ele>2677.7</ele>
        <time>2018-08-10T15:02:33Z</time>
      </trkpt>
      <trkpt lat="4.7052270" lon="-74.3395330">
        <ele>2677.7</ele>
        <time>2018-08-10T15:02:34Z</time>
      </trkpt>
      <trkpt lat="4.7052470" lon="-74.3395580">
        <ele>2677.8</ele>
        <time>2018-08-10T15:02:35Z</time>
      </trkpt>
      <trkpt lat="4.7052650" lon="-74.3395830">
        <ele>2677.9</ele>
        <time>2018-08-10T15:02:36Z</time>
      </trkpt>
      <trkpt lat="4.7052830" lon="-74.3396050">
        <ele>2677.9</ele>
        <time>2018-08-10T15:02:37Z</time>
      </trkpt>
      <trkpt lat="4.7053020" lon="-74.3396280">
        <ele>2678.0</ele>
        <time>2018-08-10T15:02:38Z</time>
      </trkpt>
      <trkpt lat="4.7053270" lon="-74.3396650">
        <ele>2678.1</ele>
        <time>2018-08-10T15:02:40Z</time>
      </trkpt>
      <trkpt lat="4.7053680" lon="-74.3396880">
        <ele>2678.2</ele>
        <time>2018-08-10T15:02:42Z</time>
      </trkpt>
      <trkpt lat="4.7054000" lon="-74.3397120">
        <ele>2678.3</ele>
        <time>2018-08-10T15:02:43Z</time>
      </trkpt>
      <trkpt lat="4.7054270" lon="-74.3397330">
        <ele>2678.4</ele>
        <time>2018-08-10T15:02:44Z</time>
      </trkpt>
      <trkpt lat="4.7054650" lon="-74.3397530">
        <ele>2678.5</ele>
        <time>2018-08-10T15:02:45Z</time>
      </trkpt>
      <trkpt lat="4.7054970" lon="-74.3397720">
        <ele>2678.6</ele>
        <time>2018-08-10T15:02:46Z</time>
      </trkpt>
      <trkpt lat="4.7055230" lon="-74.3397880">
        <ele>2678.6</ele>
        <time>2018-08-10T15:02:47Z</time>
      </trkpt>
      <trkpt lat="4.7055480" lon="-74.3398050">
        <ele>2678.7</ele>
        <time>2018-08-10T15:02:48Z</time>
      </trkpt>
      <trkpt lat="4.7055750" lon="-74.3398250">
        <ele>2678.7</ele>
        <time>2018-08-10T15:02:49Z</time>
      </trkpt>
      <trkpt lat="4.7056050" lon="-74.3398380">
        <ele>2678.8</ele>
        <time>2018-08-10T15:02:50Z</time>
      </trkpt>
      <trkpt lat="4.7056350" lon="-74.3398530">
        <ele>2678.8</ele>
        <time>2018-08-10T15:02:51Z</time>
      </trkpt>
      <trkpt lat="4.7056670" lon="-74.3398680">
        <ele>2678.9</ele>
        <time>2018-08-10T15:02:52Z</time>
      </trkpt>
      <trkpt lat="4.7056930" lon="-74.3398900">
        <ele>2678.9</ele>
        <time>2018-08-10T15:02:53Z</time>
      </trkpt>
      <trkpt lat="4.7057150" lon="-74.3399270">
        <ele>2679.0</ele>
        <time>2018-08-10T15:02:54Z</time>
      </trkpt>
      <trkpt lat="4.7057200" lon="-74.3399630">
        <ele>2679.0</ele>
        <time>2018-08-10T15:02:55Z</time>
      </trkpt>
      <trkpt lat="4.7057100" lon="-74.3399970">
        <ele>2679.3</ele>
        <time>2018-08-10T15:02:56Z</time>
      </trkpt>
      <trkpt lat="4.7056900" lon="-74.3400270">
        <ele>2680.2</ele>
        <time>2018-08-10T15:02:57Z</time>
      </trkpt>
      <trkpt lat="4.7056720" lon="-74.3400570">
        <ele>2681.1</ele>
        <time>2018-08-10T15:02:58Z</time>
      </trkpt>
      <trkpt lat="4.7056500" lon="-74.3400850">
        <ele>2681.8</ele>
        <time>2018-08-10T15:02:59Z</time>
      </trkpt>
      <trkpt lat="4.7056270" lon="-74.3401120">
        <ele>2682.4</ele>
        <time>2018-08-10T15:03:00Z</time>
      </trkpt>
      <trkpt lat="4.7056030" lon="-74.3401380">
        <ele>2683.0</ele>
        <time>2018-08-10T15:03:01Z</time>
      </trkpt>
      <trkpt lat="4.7055820" lon="-74.3401670">
        <ele>2683.6</ele>
        <time>2018-08-10T15:03:02Z</time>
      </trkpt>
      <trkpt lat="4.7055580" lon="-74.3401950">
        <ele>2684.2</ele>
        <time>2018-08-10T15:03:03Z</time>
      </trkpt>
      <trkpt lat="4.7055350" lon="-74.3402230">
        <ele>2685.0</ele>
        <time>2018-08-10T15:03:04Z</time>
      </trkpt>
      <trkpt lat="4.7055120" lon="-74.3402530">
        <ele>2685.8</ele>
        <time>2018-08-10T15:03:05Z</time>
      </trkpt>
      <trkpt lat="4.7054950" lon="-74.3402850">
        <ele>2686.2</ele>
        <time>2018-08-10T15:03:06Z</time>
      </trkpt>
      <trkpt lat="4.7054830" lon="-74.3403200">
        <ele>2686.5</ele>
        <time>2018-08-10T15:03:07Z</time>
      </trkpt>
      <trkpt lat="4.7054800" lon="-74.3403570">
        <ele>2686.7</ele>
        <time>2018-08-10T15:03:08Z</time>
      </trkpt>
      <trkpt lat="4.7054900" lon="-74.3403950">
        <ele>2687.0</ele>
        <time>2018-08-10T15:03:09Z</time>
      </trkpt>
      <trkpt lat="4.7055080" lon="-74.3404320">
        <ele>2687.3</ele>
        <time>2018-08-10T15:03:10Z</time>
      </trkpt>
      <trkpt lat="4.7055320" lon="-74.3404700">
        <ele>2687.7</ele>
        <time>2018-08-10T15:03:11Z</time>
      </trkpt>
      <trkpt lat="4.7055530" lon="-74.3405050">
        <ele>2688.0</ele>
        <time>2018-08-10T15:03:12Z</time>
      </trkpt>
      <trkpt lat="4.7055780" lon="-74.3405420">
        <ele>2688.3</ele>
        <time>2018-08-10T15:03:13Z</time>
      </trkpt>
      <trkpt lat="4.7056030" lon="-74.3405830">
        <ele>2688.7</ele>
        <time>2018-08-10T15:03:14Z</time>
      </trkpt>
      <trkpt lat="4.7056320" lon="-74.3406270">
        <ele>2689.1</ele>
        <time>2018-08-10T15:03:15Z</time>
      </trkpt>
      <trkpt lat="4.7056580" lon="-74.3406670">
        <ele>2689.4</ele>
        <time>2018-08-10T15:03:16Z</time>
      </trkpt>
      <trkpt lat="4.7056870" lon="-74.3407080">
        <ele>2689.8</ele>
        <time>2018-08-10T15:03:17Z</time>
      </trkpt>
      <trkpt lat="4.7057180" lon="-74.3407520">
        <ele>2690.2</ele>
        <time>2018-08-10T15:03:18Z</time>
      </trkpt>
      <trkpt lat="4.7057480" lon="-74.3407970">
        <ele>2690.7</ele>
        <time>2018-08-10T15:03:19Z</time>
      </trkpt>
      <trkpt lat="4.7057800" lon="-74.3408430">
        <ele>2691.1</ele>
        <time>2018-08-10T15:03:20Z</time>
      </trkpt>
      <trkpt lat="4.7058130" lon="-74.3408920">
        <ele>2691.6</ele>
        <time>2018-08-10T15:03:21Z</time>
      </trkpt>
      <trkpt lat="4.7058500" lon="-74.3409400">
        <ele>2692.0</ele>
        <time>2018-08-10T15:03:22Z</time>
      </trkpt>
      <trkpt lat="4.7058850" lon="-74.3409900">
        <ele>2692.5</ele>
        <time>2018-08-10T15:03:23Z</time>
      </trkpt>
      <trkpt lat="4.7059200" lon="-74.3410400">
        <ele>2693.0</ele>
        <time>2018-08-10T15:03:24Z</time>
      </trkpt>
      <trkpt lat="4.7059520" lon="-74.3410880">
        <ele>2693.5</ele>
        <time>2018-08-10T15:03:25Z</time>
      </trkpt>
      <trkpt lat="4.7059830" lon="-74.3411370">
        <ele>2693.9</ele>
        <time>2018-08-10T15:03:26Z</time>
      </trkpt>
      <trkpt lat="4.7060170" lon="-74.3411830">
        <ele>2695.1</ele>
        <time>2018-08-10T15:03:27Z</time>
      </trkpt>
      <trkpt lat="4.7060520" lon="-74.3412270">
        <ele>2696.5</ele>
        <time>2018-08-10T15:03:28Z</time>
      </trkpt>
      <trkpt lat="4.7060880" lon="-74.3412670">
        <ele>2697.5</ele>
        <time>2018-08-10T15:03:29Z</time>
      </trkpt>
      <trkpt lat="4.7061220" lon="-74.3413020">
        <ele>2698.5</ele>
        <time>2018-08-10T15:03:30Z</time>
      </trkpt>
      <trkpt lat="4.7061470" lon="-74.3413280">
        <ele>2699.2</ele>
        <time>2018-08-10T15:03:31Z</time>
      </trkpt>
      <trkpt lat="4.7062020" lon="-74.3413380">
        <ele>2699.3</ele>
        <time>2018-08-10T15:03:33Z</time>
      </trkpt>
      <trkpt lat="4.7062280" lon="-74.3413250">
        <ele>2699.0</ele>
        <time>2018-08-10T15:03:34Z</time>
      </trkpt>
      <trkpt lat="4.7062550" lon="-74.3413050">
        <ele>2698.6</ele>
        <time>2018-08-10T15:03:35Z</time>
      </trkpt>
      <trkpt lat="4.7062780" lon="-74.3412870">
        <ele>2698.2</ele>
        <time>2018-08-10T15:03:36Z</time>
      </trkpt>
      <trkpt lat="4.7062980" lon="-74.3412680">
        <ele>2697.9</ele>
        <time>2018-08-10T15:03:37Z</time>
      </trkpt>
      <trkpt lat="4.7063230" lon="-74.3412500">
        <ele>2697.5</ele>
        <time>2018-08-10T15:03:38Z</time>
      </trkpt>
      <trkpt lat="4.7063520" lon="-74.3412320">
        <ele>2697.1</ele>
        <time>2018-08-10T15:03:39Z</time>
      </trkpt>
      <trkpt lat="4.7063830" lon="-74.3412130">
        <ele>2696.7</ele>
        <time>2018-08-10T15:03:40Z</time>
      </trkpt>
      <trkpt lat="4.7064130" lon="-74.3412020">
        <ele>2696.2</ele>
        <time>2018-08-10T15:03:41Z</time>
      </trkpt>
      <trkpt lat="4.7064400" lon="-74.3411920">
        <ele>2695.8</ele>
        <time>2018-08-10T15:03:42Z</time>
      </trkpt>
      <trkpt lat="4.7064700" lon="-74.3411880">
        <ele>2695.4</ele>
        <time>2018-08-10T15:03:43Z</time>
      </trkpt>
      <trkpt lat="4.7064980" lon="-74.3411820">
        <ele>2695.4</ele>
        <time>2018-08-10T15:03:44Z</time>
      </trkpt>
      <trkpt lat="4.7065250" lon="-74.3411730">
        <ele>2695.6</ele>
        <time>2018-08-10T15:03:45Z</time>
      </trkpt>
      <trkpt lat="4.7065530" lon="-74.3411670">
        <ele>2695.7</ele>
        <time>2018-08-10T15:03:46Z</time>
      </trkpt>
      <trkpt lat="4.7065820" lon="-74.3411550">
        <ele>2696.3</ele>
        <time>2018-08-10T15:03:47Z</time>
      </trkpt>
      <trkpt lat="4.7066100" lon="-74.3411480">
        <ele>2696.8</ele>
        <time>2018-08-10T15:03:48Z</time>
      </trkpt>
      <trkpt lat="4.7066430" lon="-74.3411380">
        <ele>2697.3</ele>
        <time>2018-08-10T15:03:49Z</time>
      </trkpt>
      <trkpt lat="4.7066770" lon="-74.3411270">
        <ele>2697.7</ele>
        <time>2018-08-10T15:03:50Z</time>
      </trkpt>
      <trkpt lat="4.7067080" lon="-74.3411180">
        <ele>2698.1</ele>
        <time>2018-08-10T15:03:51Z</time>
      </trkpt>
      <trkpt lat="4.7067430" lon="-74.3411080">
        <ele>2698.8</ele>
        <time>2018-08-10T15:03:52Z</time>
      </trkpt>
      <trkpt lat="4.7067780" lon="-74.3410970">
        <ele>2699.5</ele>
        <time>2018-08-10T15:03:53Z</time>
      </trkpt>
      <trkpt lat="4.7068130" lon="-74.3410880">
        <ele>2699.6</ele>
        <time>2018-08-10T15:03:54Z</time>
      </trkpt>
      <trkpt lat="4.7068500" lon="-74.3410830">
        <ele>2699.4</ele>
        <time>2018-08-10T15:03:55Z</time>
      </trkpt>
      <trkpt lat="4.7068830" lon="-74.3410720">
        <ele>2699.6</ele>
        <time>2018-08-10T15:03:56Z</time>
      </trkpt>
      <trkpt lat="4.7069200" lon="-74.3410650">
        <ele>2700.0</ele>
        <time>2018-08-10T15:03:57Z</time>
      </trkpt>
      <trkpt lat="4.7069550" lon="-74.3410580">
        <ele>2700.4</ele>
        <time>2018-08-10T15:03:58Z</time>
      </trkpt>
      <trkpt lat="4.7069880" lon="-74.3410520">
        <ele>2700.8</ele>
        <time>2018-08-10T15:03:59Z</time>
      </trkpt>
      <trkpt lat="4.7070230" lon="-74.3410520">
        <ele>2701.1</ele>
        <time>2018-08-10T15:04:00Z</time>
      </trkpt>
      <trkpt lat="4.7070600" lon="-74.3410570">
        <ele>2700.9</ele>
        <time>2018-08-10T15:04:01Z</time>
      </trkpt>
      <trkpt lat="4.7070950" lon="-74.3410700">
        <ele>2700.7</ele>
        <time>2018-08-10T15:04:02Z</time>
      </trkpt>
      <trkpt lat="4.7071230" lon="-74.3410880">
        <ele>2700.7</ele>
        <time>2018-08-10T15:04:03Z</time>
      </trkpt>
      <trkpt lat="4.7071520" lon="-74.3411100">
        <ele>2700.9</ele>
        <time>2018-08-10T15:04:04Z</time>
      </trkpt>
      <trkpt lat="4.7071770" lon="-74.3411320">
        <ele>2700.9</ele>
        <time>2018-08-10T15:04:05Z</time>
      </trkpt>
      <trkpt lat="4.7072000" lon="-74.3411550">
        <ele>2700.6</ele>
        <time>2018-08-10T15:04:06Z</time>
      </trkpt>
      <trkpt lat="4.7072250" lon="-74.3411770">
        <ele>2700.3</ele>
        <time>2018-08-10T15:04:07Z</time>
      </trkpt>
      <trkpt lat="4.7072470" lon="-74.3411950">
        <ele>2699.9</ele>
        <time>2018-08-10T15:04:08Z</time>
      </trkpt>
      <trkpt lat="4.7072730" lon="-74.3412150">
        <ele>2699.3</ele>
        <time>2018-08-10T15:04:09Z</time>
      </trkpt>
      <trkpt lat="4.7073000" lon="-74.3412420">
        <ele>2698.6</ele>
        <time>2018-08-10T15:04:10Z</time>
      </trkpt>
      <trkpt lat="4.7073250" lon="-74.3412720">
        <ele>2696.8</ele>
        <time>2018-08-10T15:04:11Z</time>
      </trkpt>
      <trkpt lat="4.7073530" lon="-74.3413000">
        <ele>2695.0</ele>
        <time>2018-08-10T15:04:12Z</time>
      </trkpt>
      <trkpt lat="4.7073870" lon="-74.3413300">
        <ele>2693.6</ele>
        <time>2018-08-10T15:04:13Z</time>
      </trkpt>
      <trkpt lat="4.7074300" lon="-74.3413570">
        <ele>2692.0</ele>
        <time>2018-08-10T15:04:14Z</time>
      </trkpt>
      <trkpt lat="4.7074670" lon="-74.3413880">
        <ele>2689.6</ele>
        <time>2018-08-10T15:04:15Z</time>
      </trkpt>
      <trkpt lat="4.7075000" lon="-74.3414180">
        <ele>2687.3</ele>
        <time>2018-08-10T15:04:16Z</time>
      </trkpt>
      <trkpt lat="4.7075420" lon="-74.3414480">
        <ele>2684.8</ele>
        <time>2018-08-10T15:04:17Z</time>
      </trkpt>
      <trkpt lat="4.7075830" lon="-74.3414800">
        <ele>2683.2</ele>
        <time>2018-08-10T15:04:18Z</time>
      </trkpt>
      <trkpt lat="4.7076320" lon="-74.3415100">
        <ele>2682.3</ele>
        <time>2018-08-10T15:04:19Z</time>
      </trkpt>
      <trkpt lat="4.7076770" lon="-74.3415380">
        <ele>2681.1</ele>
        <time>2018-08-10T15:04:20Z</time>
      </trkpt>
      <trkpt lat="4.7077270" lon="-74.3415680">
        <ele>2679.9</ele>
        <time>2018-08-10T15:04:21Z</time>
      </trkpt>
      <trkpt lat="4.7077780" lon="-74.3415950">
        <ele>2678.8</ele>
        <time>2018-08-10T15:04:22Z</time>
      </trkpt>
      <trkpt lat="4.7078230" lon="-74.3416220">
        <ele>2678.3</ele>
        <time>2018-08-10T15:04:23Z</time>
      </trkpt>
      <trkpt lat="4.7078730" lon="-74.3416480">
        <ele>2678.0</ele>
        <time>2018-08-10T15:04:24Z</time>
      </trkpt>
      <trkpt lat="4.7079250" lon="-74.3416770">
        <ele>2678.1</ele>
        <time>2018-08-10T15:04:25Z</time>
      </trkpt>
      <trkpt lat="4.7079770" lon="-74.3417030">
        <ele>2678.2</ele>
        <time>2018-08-10T15:04:26Z</time>
      </trkpt>
      <trkpt lat="4.7080270" lon="-74.3417220">
        <ele>2678.2</ele>
        <time>2018-08-10T15:04:27Z</time>
      </trkpt>
      <trkpt lat="4.7080730" lon="-74.3417500">
        <ele>2678.2</ele>
        <time>2018-08-10T15:04:28Z</time>
      </trkpt>
      <trkpt lat="4.7081200" lon="-74.3417800">
        <ele>2678.5</ele>
        <time>2018-08-10T15:04:29Z</time>
      </trkpt>
      <trkpt lat="4.7081600" lon="-74.3418070">
        <ele>2678.7</ele>
        <time>2018-08-10T15:04:30Z</time>
      </trkpt>
      <trkpt lat="4.7081970" lon="-74.3418250">
        <ele>2678.8</ele>
        <time>2018-08-10T15:04:31Z</time>
      </trkpt>
      <trkpt lat="4.7082330" lon="-74.3418380">
        <ele>2678.9</ele>
        <time>2018-08-10T15:04:32Z</time>
      </trkpt>
      <trkpt lat="4.7082720" lon="-74.3418500">
        <ele>2679.1</ele>
        <time>2018-08-10T15:04:33Z</time>
      </trkpt>
      <trkpt lat="4.7083050" lon="-74.3418630">
        <ele>2679.4</ele>
        <time>2018-08-10T15:04:34Z</time>
      </trkpt>
      <trkpt lat="4.7083400" lon="-74.3418800">
        <ele>2679.5</ele>
        <time>2018-08-10T15:04:35Z</time>
      </trkpt>
      <trkpt lat="4.7083730" lon="-74.3418980">
        <ele>2679.6</ele>
        <time>2018-08-10T15:04:36Z</time>
      </trkpt>
      <trkpt lat="4.7084030" lon="-74.3419180">
        <ele>2679.8</ele>
        <time>2018-08-10T15:04:37Z</time>
      </trkpt>
      <trkpt lat="4.7084350" lon="-74.3419380">
        <ele>2680.2</ele>
        <time>2018-08-10T15:04:38Z</time>
      </trkpt>
      <trkpt lat="4.7084630" lon="-74.3419620">
        <ele>2680.5</ele>
        <time>2018-08-10T15:04:39Z</time>
      </trkpt>
      <trkpt lat="4.7084900" lon="-74.3419850">
        <ele>2680.8</ele>
        <time>2018-08-10T15:04:40Z</time>
      </trkpt>
      <trkpt lat="4.7085170" lon="-74.3420050">
        <ele>2681.1</ele>
        <time>2018-08-10T15:04:41Z</time>
      </trkpt>
      <trkpt lat="4.7085430" lon="-74.3420220">
        <ele>2681.4</ele>
        <time>2018-08-10T15:04:42Z</time>
      </trkpt>
      <trkpt lat="4.7085670" lon="-74.3420370">
        <ele>2681.9</ele>
        <time>2018-08-10T15:04:43Z</time>
      </trkpt>
      <trkpt lat="4.7085950" lon="-74.3420480">
        <ele>2682.4</ele>
        <time>2018-08-10T15:04:44Z</time>
      </trkpt>
      <trkpt lat="4.7086200" lon="-74.3420650">
        <ele>2682.7</ele>
        <time>2018-08-10T15:04:45Z</time>
      </trkpt>
      <trkpt lat="4.7086430" lon="-74.3420900">
        <ele>2682.8</ele>
        <time>2018-08-10T15:04:46Z</time>
      </trkpt>
      <trkpt lat="4.7086630" lon="-74.3421150">
        <ele>2683.0</ele>
        <time>2018-08-10T15:04:47Z</time>
      </trkpt>
      <trkpt lat="4.7086820" lon="-74.3421400">
        <ele>2683.1</ele>
        <time>2018-08-10T15:04:48Z</time>
      </trkpt>
      <trkpt lat="4.7087050" lon="-74.3421750">
        <ele>2683.3</ele>
        <time>2018-08-10T15:04:49Z</time>
      </trkpt>
      <trkpt lat="4.7087320" lon="-74.3422030">
        <ele>2682.9</ele>
        <time>2018-08-10T15:04:50Z</time>
      </trkpt>
      <trkpt lat="4.7087520" lon="-74.3422330">
        <ele>2682.4</ele>
        <time>2018-08-10T15:04:51Z</time>
      </trkpt>
      <trkpt lat="4.7087700" lon="-74.3422650">
        <ele>2682.0</ele>
        <time>2018-08-10T15:04:52Z</time>
      </trkpt>
      <trkpt lat="4.7087870" lon="-74.3422880">
        <ele>2681.8</ele>
        <time>2018-08-10T15:04:53Z</time>
      </trkpt>
      <trkpt lat="4.7088080" lon="-74.3423100">
        <ele>2681.5</ele>
        <time>2018-08-10T15:04:54Z</time>
      </trkpt>
      <trkpt lat="4.7088280" lon="-74.3423370">
        <ele>2681.0</ele>
        <time>2018-08-10T15:04:55Z</time>
      </trkpt>
      <trkpt lat="4.7088470" lon="-74.3423700">
        <ele>2680.4</ele>
        <time>2018-08-10T15:04:56Z</time>
      </trkpt>
      <trkpt lat="4.7088700" lon="-74.3424030">
        <ele>2679.9</ele>
        <time>2018-08-10T15:04:57Z</time>
      </trkpt>
      <trkpt lat="4.7088950" lon="-74.3424380">
        <ele>2679.6</ele>
        <time>2018-08-10T15:04:58Z</time>
      </trkpt>
      <trkpt lat="4.7089170" lon="-74.3424770">
        <ele>2679.3</ele>
        <time>2018-08-10T15:04:59Z</time>
      </trkpt>
      <trkpt lat="4.7089420" lon="-74.3425230">
        <ele>2678.9</ele>
        <time>2018-08-10T15:05:00Z</time>
      </trkpt>
      <trkpt lat="4.7089650" lon="-74.3425630">
        <ele>2679.0</ele>
        <time>2018-08-10T15:05:01Z</time>
      </trkpt>
      <trkpt lat="4.7089870" lon="-74.3425980">
        <ele>2679.2</ele>
        <time>2018-08-10T15:05:02Z</time>
      </trkpt>
      <trkpt lat="4.7090120" lon="-74.3426270">
        <ele>2679.5</ele>
        <time>2018-08-10T15:05:03Z</time>
      </trkpt>
      <trkpt lat="4.7090400" lon="-74.3426530">
        <ele>2679.8</ele>
        <time>2018-08-10T15:05:04Z</time>
      </trkpt>
      <trkpt lat="4.7090680" lon="-74.3426780">
        <ele>2679.8</ele>
        <time>2018-08-10T15:05:05Z</time>
      </trkpt>
      <trkpt lat="4.7091000" lon="-74.3427030">
        <ele>2679.9</ele>
        <time>2018-08-10T15:05:06Z</time>
      </trkpt>
      <trkpt lat="4.7091320" lon="-74.3427320">
        <ele>2679.6</ele>
        <time>2018-08-10T15:05:07Z</time>
      </trkpt>
      <trkpt lat="4.7091670" lon="-74.3427550">
        <ele>2679.4</ele>
        <time>2018-08-10T15:05:08Z</time>
      </trkpt>
      <trkpt lat="4.7092020" lon="-74.3427780">
        <ele>2678.8</ele>
        <time>2018-08-10T15:05:09Z</time>
      </trkpt>
      <trkpt lat="4.7092400" lon="-74.3428020">
        <ele>2678.2</ele>
        <time>2018-08-10T15:05:10Z</time>
      </trkpt>
      <trkpt lat="4.7092770" lon="-74.3428280">
        <ele>2677.5</ele>
        <time>2018-08-10T15:05:11Z</time>
      </trkpt>
      <trkpt lat="4.7093230" lon="-74.3428530">
        <ele>2676.6</ele>
        <time>2018-08-10T15:05:12Z</time>
      </trkpt>
      <trkpt lat="4.7093650" lon="-74.3428770">
        <ele>2675.6</ele>
        <time>2018-08-10T15:05:13Z</time>
      </trkpt>
      <trkpt lat="4.7094030" lon="-74.3428980">
        <ele>2674.7</ele>
        <time>2018-08-10T15:05:14Z</time>
      </trkpt>
      <trkpt lat="4.7094480" lon="-74.3429220">
        <ele>2673.6</ele>
        <time>2018-08-10T15:05:15Z</time>
      </trkpt>
      <trkpt lat="4.7094930" lon="-74.3429600">
        <ele>2673.2</ele>
        <time>2018-08-10T15:05:16Z</time>
      </trkpt>
      <trkpt lat="4.7095370" lon="-74.3429980">
        <ele>2672.6</ele>
        <time>2018-08-10T15:05:17Z</time>
      </trkpt>
      <trkpt lat="4.7095820" lon="-74.3430370">
        <ele>2671.8</ele>
        <time>2018-08-10T15:05:18Z</time>
      </trkpt>
      <trkpt lat="4.7096280" lon="-74.3430730">
        <ele>2672.0</ele>
        <time>2018-08-10T15:05:19Z</time>
      </trkpt>
      <trkpt lat="4.7096750" lon="-74.3431070">
        <ele>2672.2</ele>
        <time>2018-08-10T15:05:20Z</time>
      </trkpt>
      <trkpt lat="4.7097170" lon="-74.3431430">
        <ele>2672.5</ele>
        <time>2018-08-10T15:05:21Z</time>
      </trkpt>
      <trkpt lat="4.7097570" lon="-74.3431780">
        <ele>2672.9</ele>
        <time>2018-08-10T15:05:22Z</time>
      </trkpt>
      <trkpt lat="4.7097950" lon="-74.3432220">
        <ele>2673.7</ele>
        <time>2018-08-10T15:05:23Z</time>
      </trkpt>
      <trkpt lat="4.7098420" lon="-74.3432630">
        <ele>2674.8</ele>
        <time>2018-08-10T15:05:24Z</time>
      </trkpt>
      <trkpt lat="4.7098820" lon="-74.3433030">
        <ele>2674.9</ele>
        <time>2018-08-10T15:05:25Z</time>
      </trkpt>
      <trkpt lat="4.7099270" lon="-74.3433370">
        <ele>2674.5</ele>
        <time>2018-08-10T15:05:26Z</time>
      </trkpt>
      <trkpt lat="4.7099770" lon="-74.3433600">
        <ele>2673.8</ele>
        <time>2018-08-10T15:05:27Z</time>
      </trkpt>
      <trkpt lat="4.7100200" lon="-74.3433770">
        <ele>2673.2</ele>
        <time>2018-08-10T15:05:28Z</time>
      </trkpt>
      <trkpt lat="4.7100600" lon="-74.3434000">
        <ele>2672.3</ele>
        <time>2018-08-10T15:05:29Z</time>
      </trkpt>
      <trkpt lat="4.7100980" lon="-74.3434170">
        <ele>2670.9</ele>
        <time>2018-08-10T15:05:30Z</time>
      </trkpt>
      <trkpt lat="4.7101450" lon="-74.3434370">
        <ele>2669.4</ele>
        <time>2018-08-10T15:05:31Z</time>
      </trkpt>
      <trkpt lat="4.7101920" lon="-74.3434600">
        <ele>2668.0</ele>
        <time>2018-08-10T15:05:32Z</time>
      </trkpt>
      <trkpt lat="4.7102400" lon="-74.3434780">
        <ele>2667.3</ele>
        <time>2018-08-10T15:05:33Z</time>
      </trkpt>
      <trkpt lat="4.7102820" lon="-74.3434920">
        <ele>2666.8</ele>
        <time>2018-08-10T15:05:34Z</time>
      </trkpt>
      <trkpt lat="4.7103270" lon="-74.3435030">
        <ele>2666.0</ele>
        <time>2018-08-10T15:05:35Z</time>
      </trkpt>
      <trkpt lat="4.7103730" lon="-74.3435200">
        <ele>2665.3</ele>
        <time>2018-08-10T15:05:36Z</time>
      </trkpt>
      <trkpt lat="4.7104220" lon="-74.3435420">
        <ele>2664.8</ele>
        <time>2018-08-10T15:05:37Z</time>
      </trkpt>
      <trkpt lat="4.7104720" lon="-74.3435580">
        <ele>2664.3</ele>
        <time>2018-08-10T15:05:38Z</time>
      </trkpt>
      <trkpt lat="4.7105150" lon="-74.3435720">
        <ele>2663.9</ele>
        <time>2018-08-10T15:05:39Z</time>
      </trkpt>
      <trkpt lat="4.7105570" lon="-74.3435920">
        <ele>2663.8</ele>
        <time>2018-08-10T15:05:40Z</time>
      </trkpt>
      <trkpt lat="4.7105950" lon="-74.3436130">
        <ele>2663.7</ele>
        <time>2018-08-10T15:05:41Z</time>
      </trkpt>
      <trkpt lat="4.7106370" lon="-74.3436320">
        <ele>2663.2</ele>
        <time>2018-08-10T15:05:42Z</time>
      </trkpt>
      <trkpt lat="4.7106770" lon="-74.3436470">
        <ele>2662.7</ele>
        <time>2018-08-10T15:05:43Z</time>
      </trkpt>
      <trkpt lat="4.7107180" lon="-74.3436620">
        <ele>2662.3</ele>
        <time>2018-08-10T15:05:44Z</time>
      </trkpt>
      <trkpt lat="4.7107580" lon="-74.3436680">
        <ele>2662.0</ele>
        <time>2018-08-10T15:05:45Z</time>
      </trkpt>
      <trkpt lat="4.7108030" lon="-74.3436700">
        <ele>2662.0</ele>
        <time>2018-08-10T15:05:46Z</time>
      </trkpt>
      <trkpt lat="4.7108450" lon="-74.3436750">
        <ele>2661.8</ele>
        <time>2018-08-10T15:05:47Z</time>
      </trkpt>
      <trkpt lat="4.7108870" lon="-74.3436830">
        <ele>2661.5</ele>
        <time>2018-08-10T15:05:48Z</time>
      </trkpt>
      <trkpt lat="4.7109270" lon="-74.3436900">
        <ele>2661.0</ele>
        <time>2018-08-10T15:05:49Z</time>
      </trkpt>
      <trkpt lat="4.7109650" lon="-74.3437000">
        <ele>2660.2</ele>
        <time>2018-08-10T15:05:50Z</time>
      </trkpt>
      <trkpt lat="4.7110050" lon="-74.3437070">
        <ele>2659.4</ele>
        <time>2018-08-10T15:05:51Z</time>
      </trkpt>
      <trkpt lat="4.7110430" lon="-74.3437130">
        <ele>2658.8</ele>
        <time>2018-08-10T15:05:52Z</time>
      </trkpt>
      <trkpt lat="4.7110870" lon="-74.3437200">
        <ele>2658.0</ele>
        <time>2018-08-10T15:05:53Z</time>
      </trkpt>
      <trkpt lat="4.7111270" lon="-74.3437300">
        <ele>2657.3</ele>
        <time>2018-08-10T15:05:54Z</time>
      </trkpt>
      <trkpt lat="4.7111630" lon="-74.3437400">
        <ele>2656.7</ele>
        <time>2018-08-10T15:05:55Z</time>
      </trkpt>
      <trkpt lat="4.7112020" lon="-74.3437470">
        <ele>2656.1</ele>
        <time>2018-08-10T15:05:56Z</time>
      </trkpt>
      <trkpt lat="4.7112370" lon="-74.3437570">
        <ele>2655.6</ele>
        <time>2018-08-10T15:05:57Z</time>
      </trkpt>
      <trkpt lat="4.7112700" lon="-74.3437650">
        <ele>2655.0</ele>
        <time>2018-08-10T15:05:58Z</time>
      </trkpt>
      <trkpt lat="4.7113000" lon="-74.3437770">
        <ele>2654.4</ele>
        <time>2018-08-10T15:05:59Z</time>
      </trkpt>
      <trkpt lat="4.7113300" lon="-74.3437880">
        <ele>2654.2</ele>
        <time>2018-08-10T15:06:00Z</time>
      </trkpt>
      <trkpt lat="4.7113620" lon="-74.3438020">
        <ele>2654.1</ele>
        <time>2018-08-10T15:06:01Z</time>
      </trkpt>
      <trkpt lat="4.7113930" lon="-74.3438180">
        <ele>2653.9</ele>
        <time>2018-08-10T15:06:02Z</time>
      </trkpt>
      <trkpt lat="4.7114230" lon="-74.3438320">
        <ele>2653.3</ele>
        <time>2018-08-10T15:06:03Z</time>
      </trkpt>
      <trkpt lat="4.7114530" lon="-74.3438470">
        <ele>2652.8</ele>
        <time>2018-08-10T15:06:04Z</time>
      </trkpt>
      <trkpt lat="4.7114820" lon="-74.3438600">
        <ele>2652.1</ele>
        <time>2018-08-10T15:06:05Z</time>
      </trkpt>
      <trkpt lat="4.7115150" lon="-74.3438770">
        <ele>2651.2</ele>
        <time>2018-08-10T15:06:06Z</time>
      </trkpt>
      <trkpt lat="4.7115480" lon="-74.3438950">
        <ele>2650.6</ele>
        <time>2018-08-10T15:06:07Z</time>
      </trkpt>
      <trkpt lat="4.7115820" lon="-74.3439130">
        <ele>2650.1</ele>
        <time>2018-08-10T15:06:08Z</time>
      </trkpt>
      <trkpt lat="4.7116130" lon="-74.3439300">
        <ele>2649.5</ele>
        <time>2018-08-10T15:06:09Z</time>
      </trkpt>
      <trkpt lat="4.7116470" lon="-74.3439500">
        <ele>2648.2</ele>
        <time>2018-08-10T15:06:10Z</time>
      </trkpt>
      <trkpt lat="4.7116780" lon="-74.3439720">
        <ele>2647.1</ele>
        <time>2018-08-10T15:06:11Z</time>
      </trkpt>
      <trkpt lat="4.7117120" lon="-74.3439900">
        <ele>2646.3</ele>
        <time>2018-08-10T15:06:12Z</time>
      </trkpt>
      <trkpt lat="4.7117450" lon="-74.3440100">
        <ele>2645.5</ele>
        <time>2018-08-10T15:06:13Z</time>
      </trkpt>
      <trkpt lat="4.7117770" lon="-74.3440280">
        <ele>2644.0</ele>
        <time>2018-08-10T15:06:14Z</time>
      </trkpt>
      <trkpt lat="4.7118070" lon="-74.3440470">
        <ele>2642.5</ele>
        <time>2018-08-10T15:06:15Z</time>
      </trkpt>
      <trkpt lat="4.7118330" lon="-74.3440630">
        <ele>2641.5</ele>
        <time>2018-08-10T15:06:16Z</time>
      </trkpt>
      <trkpt lat="4.7118600" lon="-74.3440770">
        <ele>2640.5</ele>
        <time>2018-08-10T15:06:17Z</time>
      </trkpt>
      <trkpt lat="4.7118920" lon="-74.3440930">
        <ele>2639.5</ele>
        <time>2018-08-10T15:06:18Z</time>
      </trkpt>
      <trkpt lat="4.7119270" lon="-74.3441130">
        <ele>2639.1</ele>
        <time>2018-08-10T15:06:19Z</time>
      </trkpt>
      <trkpt lat="4.7119630" lon="-74.3441370">
        <ele>2638.5</ele>
        <time>2018-08-10T15:06:20Z</time>
      </trkpt>
      <trkpt lat="4.7120000" lon="-74.3441570">
        <ele>2637.9</ele>
        <time>2018-08-10T15:06:21Z</time>
      </trkpt>
      <trkpt lat="4.7120350" lon="-74.3441770">
        <ele>2637.3</ele>
        <time>2018-08-10T15:06:22Z</time>
      </trkpt>
      <trkpt lat="4.7120720" lon="-74.3441930">
        <ele>2636.7</ele>
        <time>2018-08-10T15:06:23Z</time>
      </trkpt>
      <trkpt lat="4.7121100" lon="-74.3442100">
        <ele>2636.1</ele>
        <time>2018-08-10T15:06:24Z</time>
      </trkpt>
      <trkpt lat="4.7121480" lon="-74.3442270">
        <ele>2635.8</ele>
        <time>2018-08-10T15:06:25Z</time>
      </trkpt>
      <trkpt lat="4.7121870" lon="-74.3442420">
        <ele>2635.5</ele>
        <time>2018-08-10T15:06:26Z</time>
      </trkpt>
      <trkpt lat="4.7122230" lon="-74.3442580">
        <ele>2635.4</ele>
        <time>2018-08-10T15:06:27Z</time>
      </trkpt>
      <trkpt lat="4.7122600" lon="-74.3442730">
        <ele>2635.4</ele>
        <time>2018-08-10T15:06:28Z</time>
      </trkpt>
      <trkpt lat="4.7122970" lon="-74.3442870">
        <ele>2635.4</ele>
        <time>2018-08-10T15:06:29Z</time>
      </trkpt>
      <trkpt lat="4.7123380" lon="-74.3443000">
        <ele>2635.4</ele>
        <time>2018-08-10T15:06:30Z</time>
      </trkpt>
      <trkpt lat="4.7123800" lon="-74.3443130">
        <ele>2635.4</ele>
        <time>2018-08-10T15:06:31Z</time>
      </trkpt>
      <trkpt lat="4.7124200" lon="-74.3443270">
        <ele>2635.5</ele>
        <time>2018-08-10T15:06:32Z</time>
      </trkpt>
      <trkpt lat="4.7124630" lon="-74.3443380">
        <ele>2635.7</ele>
        <time>2018-08-10T15:06:33Z</time>
      </trkpt>
      <trkpt lat="4.7125050" lon="-74.3443480">
        <ele>2636.1</ele>
        <time>2018-08-10T15:06:34Z</time>
      </trkpt>
      <trkpt lat="4.7125480" lon="-74.3443620">
        <ele>2636.5</ele>
        <time>2018-08-10T15:06:35Z</time>
      </trkpt>
      <trkpt lat="4.7125900" lon="-74.3443750">
        <ele>2636.8</ele>
        <time>2018-08-10T15:06:36Z</time>
      </trkpt>
      <trkpt lat="4.7126300" lon="-74.3443880">
        <ele>2637.3</ele>
        <time>2018-08-10T15:06:37Z</time>
      </trkpt>
      <trkpt lat="4.7126680" lon="-74.3444020">
        <ele>2638.0</ele>
        <time>2018-08-10T15:06:38Z</time>
      </trkpt>
      <trkpt lat="4.7127070" lon="-74.3444100">
        <ele>2638.3</ele>
        <time>2018-08-10T15:06:39Z</time>
      </trkpt>
      <trkpt lat="4.7127450" lon="-74.3444170">
        <ele>2638.4</ele>
        <time>2018-08-10T15:06:40Z</time>
      </trkpt>
      <trkpt lat="4.7127850" lon="-74.3444220">
        <ele>2638.4</ele>
        <time>2018-08-10T15:06:41Z</time>
      </trkpt>
      <trkpt lat="4.7128230" lon="-74.3444270">
        <ele>2638.5</ele>
        <time>2018-08-10T15:06:42Z</time>
      </trkpt>
      <trkpt lat="4.7128620" lon="-74.3444320">
        <ele>2638.3</ele>
        <time>2018-08-10T15:06:43Z</time>
      </trkpt>
      <trkpt lat="4.7129030" lon="-74.3444370">
        <ele>2638.1</ele>
        <time>2018-08-10T15:06:44Z</time>
      </trkpt>
      <trkpt lat="4.7129470" lon="-74.3444430">
        <ele>2638.1</ele>
        <time>2018-08-10T15:06:45Z</time>
      </trkpt>
      <trkpt lat="4.7129900" lon="-74.3444480">
        <ele>2637.8</ele>
        <time>2018-08-10T15:06:46Z</time>
      </trkpt>
      <trkpt lat="4.7130320" lon="-74.3444500">
        <ele>2637.0</ele>
        <time>2018-08-10T15:06:47Z</time>
      </trkpt>
      <trkpt lat="4.7130720" lon="-74.3444450">
        <ele>2636.3</ele>
        <time>2018-08-10T15:06:48Z</time>
      </trkpt>
      <trkpt lat="4.7131120" lon="-74.3444380">
        <ele>2635.5</ele>
        <time>2018-08-10T15:06:49Z</time>
      </trkpt>
      <trkpt lat="4.7131470" lon="-74.3444320">
        <ele>2634.7</ele>
        <time>2018-08-10T15:06:50Z</time>
      </trkpt>
      <trkpt lat="4.7131780" lon="-74.3444230">
        <ele>2634.0</ele>
        <time>2018-08-10T15:06:51Z</time>
      </trkpt>
      <trkpt lat="4.7132100" lon="-74.3444150">
        <ele>2633.4</ele>
        <time>2018-08-10T15:06:52Z</time>
      </trkpt>
      <trkpt lat="4.7132370" lon="-74.3444070">
        <ele>2633.1</ele>
        <time>2018-08-10T15:06:53Z</time>
      </trkpt>
      <trkpt lat="4.7132830" lon="-74.3443920">
        <ele>2632.6</ele>
        <time>2018-08-10T15:06:55Z</time>
      </trkpt>
      <trkpt lat="4.7133220" lon="-74.3443830">
        <ele>2631.8</ele>
        <time>2018-08-10T15:06:56Z</time>
      </trkpt>
      <trkpt lat="4.7133670" lon="-74.3443750">
        <ele>2630.9</ele>
        <time>2018-08-10T15:06:57Z</time>
      </trkpt>
      <trkpt lat="4.7133970" lon="-74.3443670">
        <ele>2630.3</ele>
        <time>2018-08-10T15:06:58Z</time>
      </trkpt>
      <trkpt lat="4.7134270" lon="-74.3443570">
        <ele>2629.8</ele>
        <time>2018-08-10T15:06:59Z</time>
      </trkpt>
      <trkpt lat="4.7134580" lon="-74.3443470">
        <ele>2629.2</ele>
        <time>2018-08-10T15:07:00Z</time>
      </trkpt>
      <trkpt lat="4.7134920" lon="-74.3443450">
        <ele>2628.7</ele>
        <time>2018-08-10T15:07:01Z</time>
      </trkpt>
      <trkpt lat="4.7135280" lon="-74.3443380">
        <ele>2628.3</ele>
        <time>2018-08-10T15:07:02Z</time>
      </trkpt>
      <trkpt lat="4.7135670" lon="-74.3443320">
        <ele>2628.0</ele>
        <time>2018-08-10T15:07:03Z</time>
      </trkpt>
      <trkpt lat="4.7136100" lon="-74.3443270">
        <ele>2627.9</ele>
        <time>2018-08-10T15:07:04Z</time>
      </trkpt>
      <trkpt lat="4.7136580" lon="-74.3443200">
        <ele>2627.8</ele>
        <time>2018-08-10T15:07:05Z</time>
      </trkpt>
      <trkpt lat="4.7137030" lon="-74.3443150">
        <ele>2627.7</ele>
        <time>2018-08-10T15:07:06Z</time>
      </trkpt>
      <trkpt lat="4.7137480" lon="-74.3443120">
        <ele>2627.4</ele>
        <time>2018-08-10T15:07:07Z</time>
      </trkpt>
      <trkpt lat="4.7137900" lon="-74.3443080">
        <ele>2626.8</ele>
        <time>2018-08-10T15:07:08Z</time>
      </trkpt>
      <trkpt lat="4.7138300" lon="-74.3443080">
        <ele>2626.1</ele>
        <time>2018-08-10T15:07:09Z</time>
      </trkpt>
      <trkpt lat="4.7138700" lon="-74.3443120">
        <ele>2625.3</ele>
        <time>2018-08-10T15:07:10Z</time>
      </trkpt>
      <trkpt lat="4.7139100" lon="-74.3443130">
        <ele>2624.4</ele>
        <time>2018-08-10T15:07:11Z</time>
      </trkpt>
      <trkpt lat="4.7139550" lon="-74.3443200">
        <ele>2623.3</ele>
        <time>2018-08-10T15:07:12Z</time>
      </trkpt>
      <trkpt lat="4.7139980" lon="-74.3443270">
        <ele>2622.3</ele>
        <time>2018-08-10T15:07:13Z</time>
      </trkpt>
      <trkpt lat="4.7140400" lon="-74.3443400">
        <ele>2621.4</ele>
        <time>2018-08-10T15:07:14Z</time>
      </trkpt>
      <trkpt lat="4.7140820" lon="-74.3443530">
        <ele>2620.4</ele>
        <time>2018-08-10T15:07:15Z</time>
      </trkpt>
      <trkpt lat="4.7141250" lon="-74.3443630">
        <ele>2619.6</ele>
        <time>2018-08-10T15:07:16Z</time>
      </trkpt>
      <trkpt lat="4.7141670" lon="-74.3443700">
        <ele>2618.7</ele>
        <time>2018-08-10T15:07:17Z</time>
      </trkpt>
      <trkpt lat="4.7142080" lon="-74.3443770">
        <ele>2617.8</ele>
        <time>2018-08-10T15:07:18Z</time>
      </trkpt>
      <trkpt lat="4.7142470" lon="-74.3443820">
        <ele>2617.0</ele>
        <time>2018-08-10T15:07:19Z</time>
      </trkpt>
      <trkpt lat="4.7142880" lon="-74.3443930">
        <ele>2616.5</ele>
        <time>2018-08-10T15:07:20Z</time>
      </trkpt>
      <trkpt lat="4.7143320" lon="-74.3444020">
        <ele>2615.9</ele>
        <time>2018-08-10T15:07:21Z</time>
      </trkpt>
      <trkpt lat="4.7143720" lon="-74.3444100">
        <ele>2615.5</ele>
        <time>2018-08-10T15:07:22Z</time>
      </trkpt>
      <trkpt lat="4.7144100" lon="-74.3444180">
        <ele>2615.0</ele>
        <time>2018-08-10T15:07:23Z</time>
      </trkpt>
      <trkpt lat="4.7144450" lon="-74.3444250">
        <ele>2614.5</ele>
        <time>2018-08-10T15:07:24Z</time>
      </trkpt>
      <trkpt lat="4.7144770" lon="-74.3444350">
        <ele>2614.0</ele>
        <time>2018-08-10T15:07:25Z</time>
      </trkpt>
      <trkpt lat="4.7145100" lon="-74.3444450">
        <ele>2613.6</ele>
        <time>2018-08-10T15:07:26Z</time>
      </trkpt>
      <trkpt lat="4.7145420" lon="-74.3444550">
        <ele>2613.3</ele>
        <time>2018-08-10T15:07:27Z</time>
      </trkpt>
      <trkpt lat="4.7145730" lon="-74.3444650">
        <ele>2613.0</ele>
        <time>2018-08-10T15:07:28Z</time>
      </trkpt>
      <trkpt lat="4.7146030" lon="-74.3444730">
        <ele>2612.8</ele>
        <time>2018-08-10T15:07:29Z</time>
      </trkpt>
      <trkpt lat="4.7146370" lon="-74.3444730">
        <ele>2612.5</ele>
        <time>2018-08-10T15:07:30Z</time>
      </trkpt>
      <trkpt lat="4.7146730" lon="-74.3444700">
        <ele>2612.3</ele>
        <time>2018-08-10T15:07:31Z</time>
      </trkpt>
      <trkpt lat="4.7147100" lon="-74.3444680">
        <ele>2612.0</ele>
        <time>2018-08-10T15:07:32Z</time>
      </trkpt>
      <trkpt lat="4.7147480" lon="-74.3444650">
        <ele>2611.7</ele>
        <time>2018-08-10T15:07:33Z</time>
      </trkpt>
      <trkpt lat="4.7147870" lon="-74.3444600">
        <ele>2611.3</ele>
        <time>2018-08-10T15:07:34Z</time>
      </trkpt>
      <trkpt lat="4.7148230" lon="-74.3444520">
        <ele>2610.9</ele>
        <time>2018-08-10T15:07:35Z</time>
      </trkpt>
      <trkpt lat="4.7148600" lon="-74.3444430">
        <ele>2610.5</ele>
        <time>2018-08-10T15:07:36Z</time>
      </trkpt>
      <trkpt lat="4.7148970" lon="-74.3444370">
        <ele>2610.2</ele>
        <time>2018-08-10T15:07:37Z</time>
      </trkpt>
      <trkpt lat="4.7149320" lon="-74.3444320">
        <ele>2609.9</ele>
        <time>2018-08-10T15:07:38Z</time>
      </trkpt>
      <trkpt lat="4.7149670" lon="-74.3444300">
        <ele>2609.8</ele>
        <time>2018-08-10T15:07:39Z</time>
      </trkpt>
      <trkpt lat="4.7150030" lon="-74.3444270">
        <ele>2609.7</ele>
        <time>2018-08-10T15:07:40Z</time>
      </trkpt>
      <trkpt lat="4.7150430" lon="-74.3444200">
        <ele>2610.1</ele>
        <time>2018-08-10T15:07:41Z</time>
      </trkpt>
      <trkpt lat="4.7150880" lon="-74.3444100">
        <ele>2610.6</ele>
        <time>2018-08-10T15:07:42Z</time>
      </trkpt>
      <trkpt lat="4.7151330" lon="-74.3444020">
        <ele>2610.3</ele>
        <time>2018-08-10T15:07:43Z</time>
      </trkpt>
      <trkpt lat="4.7151770" lon="-74.3443900">
        <ele>2609.9</ele>
        <time>2018-08-10T15:07:44Z</time>
      </trkpt>
      <trkpt lat="4.7152170" lon="-74.3443800">
        <ele>2609.4</ele>
        <time>2018-08-10T15:07:45Z</time>
      </trkpt>
      <trkpt lat="4.7152570" lon="-74.3443730">
        <ele>2608.9</ele>
        <time>2018-08-10T15:07:46Z</time>
      </trkpt>
      <trkpt lat="4.7152950" lon="-74.3443670">
        <ele>2608.4</ele>
        <time>2018-08-10T15:07:47Z</time>
      </trkpt>
      <trkpt lat="4.7153300" lon="-74.3443630">
        <ele>2607.9</ele>
        <time>2018-08-10T15:07:48Z</time>
      </trkpt>
      <trkpt lat="4.7153670" lon="-74.3443600">
        <ele>2607.0</ele>
        <time>2018-08-10T15:07:49Z</time>
      </trkpt>
      <trkpt lat="4.7154020" lon="-74.3443580">
        <ele>2606.2</ele>
        <time>2018-08-10T15:07:50Z</time>
      </trkpt>
      <trkpt lat="4.7154420" lon="-74.3443500">
        <ele>2605.5</ele>
        <time>2018-08-10T15:07:51Z</time>
      </trkpt>
      <trkpt lat="4.7154830" lon="-74.3443450">
        <ele>2604.8</ele>
        <time>2018-08-10T15:07:52Z</time>
      </trkpt>
      <trkpt lat="4.7155230" lon="-74.3443430">
        <ele>2604.3</ele>
        <time>2018-08-10T15:07:53Z</time>
      </trkpt>
      <trkpt lat="4.7155650" lon="-74.3443420">
        <ele>2603.8</ele>
        <time>2018-08-10T15:07:54Z</time>
      </trkpt>
      <trkpt lat="4.7156080" lon="-74.3443320">
        <ele>2603.3</ele>
        <time>2018-08-10T15:07:55Z</time>
      </trkpt>
      <trkpt lat="4.7156520" lon="-74.3443280">
        <ele>2602.7</ele>
        <time>2018-08-10T15:07:56Z</time>
      </trkpt>
      <trkpt lat="4.7156970" lon="-74.3443250">
        <ele>2602.2</ele>
        <time>2018-08-10T15:07:57Z</time>
      </trkpt>
      <trkpt lat="4.7157450" lon="-74.3443250">
        <ele>2601.7</ele>
        <time>2018-08-10T15:07:58Z</time>
      </trkpt>
      <trkpt lat="4.7157920" lon="-74.3443200">
        <ele>2601.2</ele>
        <time>2018-08-10T15:07:59Z</time>
      </trkpt>
      <trkpt lat="4.7158400" lon="-74.3443170">
        <ele>2600.9</ele>
        <time>2018-08-10T15:08:00Z</time>
      </trkpt>
      <trkpt lat="4.7158920" lon="-74.3443280">
        <ele>2600.6</ele>
        <time>2018-08-10T15:08:01Z</time>
      </trkpt>
      <trkpt lat="4.7159430" lon="-74.3443400">
        <ele>2600.3</ele>
        <time>2018-08-10T15:08:02Z</time>
      </trkpt>
      <trkpt lat="4.7159980" lon="-74.3443430">
        <ele>2600.0</ele>
        <time>2018-08-10T15:08:03Z</time>
      </trkpt>
      <trkpt lat="4.7160550" lon="-74.3443530">
        <ele>2599.6</ele>
        <time>2018-08-10T15:08:04Z</time>
      </trkpt>
      <trkpt lat="4.7161100" lon="-74.3443620">
        <ele>2599.4</ele>
        <time>2018-08-10T15:08:05Z</time>
      </trkpt>
      <trkpt lat="4.7161620" lon="-74.3443670">
        <ele>2599.2</ele>
        <time>2018-08-10T15:08:06Z</time>
      </trkpt>
      <trkpt lat="4.7162170" lon="-74.3443720">
        <ele>2599.2</ele>
        <time>2018-08-10T15:08:07Z</time>
      </trkpt>
      <trkpt lat="4.7162720" lon="-74.3443750">
        <ele>2599.3</ele>
        <time>2018-08-10T15:08:08Z</time>
      </trkpt>
      <trkpt lat="4.7163200" lon="-74.3443750">
        <ele>2599.4</ele>
        <time>2018-08-10T15:08:09Z</time>
      </trkpt>
      <trkpt lat="4.7163600" lon="-74.3443800">
        <ele>2599.5</ele>
        <time>2018-08-10T15:08:10Z</time>
      </trkpt>
      <trkpt lat="4.7164000" lon="-74.3443880">
        <ele>2599.6</ele>
        <time>2018-08-10T15:08:11Z</time>
      </trkpt>
      <trkpt lat="4.7164380" lon="-74.3443980">
        <ele>2599.5</ele>
        <time>2018-08-10T15:08:12Z</time>
      </trkpt>
      <trkpt lat="4.7164770" lon="-74.3444070">
        <ele>2599.4</ele>
        <time>2018-08-10T15:08:13Z</time>
      </trkpt>
      <trkpt lat="4.7165170" lon="-74.3444100">
        <ele>2599.1</ele>
        <time>2018-08-10T15:08:14Z</time>
      </trkpt>
      <trkpt lat="4.7165580" lon="-74.3444150">
        <ele>2598.8</ele>
        <time>2018-08-10T15:08:15Z</time>
      </trkpt>
      <trkpt lat="4.7166030" lon="-74.3444180">
        <ele>2598.5</ele>
        <time>2018-08-10T15:08:16Z</time>
      </trkpt>
      <trkpt lat="4.7166500" lon="-74.3444220">
        <ele>2598.3</ele>
        <time>2018-08-10T15:08:17Z</time>
      </trkpt>
      <trkpt lat="4.7166970" lon="-74.3444250">
        <ele>2598.5</ele>
        <time>2018-08-10T15:08:18Z</time>
      </trkpt>
      <trkpt lat="4.7167450" lon="-74.3444350">
        <ele>2598.7</ele>
        <time>2018-08-10T15:08:19Z</time>
      </trkpt>
      <trkpt lat="4.7167920" lon="-74.3444420">
        <ele>2599.2</ele>
        <time>2018-08-10T15:08:20Z</time>
      </trkpt>
      <trkpt lat="4.7168350" lon="-74.3444480">
        <ele>2599.5</ele>
        <time>2018-08-10T15:08:21Z</time>
      </trkpt>
      <trkpt lat="4.7168750" lon="-74.3444550">
        <ele>2599.8</ele>
        <time>2018-08-10T15:08:22Z</time>
      </trkpt>
      <trkpt lat="4.7169130" lon="-74.3444580">
        <ele>2600.0</ele>
        <time>2018-08-10T15:08:23Z</time>
      </trkpt>
      <trkpt lat="4.7169500" lon="-74.3444630">
        <ele>2600.1</ele>
        <time>2018-08-10T15:08:24Z</time>
      </trkpt>
      <trkpt lat="4.7169850" lon="-74.3444680">
        <ele>2600.2</ele>
        <time>2018-08-10T15:08:25Z</time>
      </trkpt>
      <trkpt lat="4.7170200" lon="-74.3444780">
        <ele>2600.4</ele>
        <time>2018-08-10T15:08:26Z</time>
      </trkpt>
      <trkpt lat="4.7170600" lon="-74.3444830">
        <ele>2600.5</ele>
        <time>2018-08-10T15:08:27Z</time>
      </trkpt>
      <trkpt lat="4.7171030" lon="-74.3444870">
        <ele>2600.5</ele>
        <time>2018-08-10T15:08:28Z</time>
      </trkpt>
      <trkpt lat="4.7171480" lon="-74.3444880">
        <ele>2600.5</ele>
        <time>2018-08-10T15:08:29Z</time>
      </trkpt>
      <trkpt lat="4.7171920" lon="-74.3444880">
        <ele>2600.3</ele>
        <time>2018-08-10T15:08:30Z</time>
      </trkpt>
      <trkpt lat="4.7172300" lon="-74.3444900">
        <ele>2600.1</ele>
        <time>2018-08-10T15:08:31Z</time>
      </trkpt>
      <trkpt lat="4.7172670" lon="-74.3444900">
        <ele>2599.9</ele>
        <time>2018-08-10T15:08:32Z</time>
      </trkpt>
      <trkpt lat="4.7173020" lon="-74.3444900">
        <ele>2599.6</ele>
        <time>2018-08-10T15:08:33Z</time>
      </trkpt>
      <trkpt lat="4.7173350" lon="-74.3444900">
        <ele>2599.4</ele>
        <time>2018-08-10T15:08:34Z</time>
      </trkpt>
      <trkpt lat="4.7173730" lon="-74.3444930">
        <ele>2599.2</ele>
        <time>2018-08-10T15:08:35Z</time>
      </trkpt>
      <trkpt lat="4.7174120" lon="-74.3444970">
        <ele>2598.9</ele>
        <time>2018-08-10T15:08:36Z</time>
      </trkpt>
      <trkpt lat="4.7174550" lon="-74.3445000">
        <ele>2598.7</ele>
        <time>2018-08-10T15:08:37Z</time>
      </trkpt>
      <trkpt lat="4.7174980" lon="-74.3445030">
        <ele>2598.5</ele>
        <time>2018-08-10T15:08:38Z</time>
      </trkpt>
      <trkpt lat="4.7175480" lon="-74.3445050">
        <ele>2598.3</ele>
        <time>2018-08-10T15:08:39Z</time>
      </trkpt>
      <trkpt lat="4.7176000" lon="-74.3445050">
        <ele>2597.9</ele>
        <time>2018-08-10T15:08:40Z</time>
      </trkpt>
      <trkpt lat="4.7176550" lon="-74.3445080">
        <ele>2597.5</ele>
        <time>2018-08-10T15:08:41Z</time>
      </trkpt>
      <trkpt lat="4.7177100" lon="-74.3445100">
        <ele>2597.0</ele>
        <time>2018-08-10T15:08:42Z</time>
      </trkpt>
      <trkpt lat="4.7177630" lon="-74.3445100">
        <ele>2596.5</ele>
        <time>2018-08-10T15:08:43Z</time>
      </trkpt>
      <trkpt lat="4.7178180" lon="-74.3445050">
        <ele>2595.8</ele>
        <time>2018-08-10T15:08:44Z</time>
      </trkpt>
      <trkpt lat="4.7178750" lon="-74.3445070">
        <ele>2595.0</ele>
        <time>2018-08-10T15:08:45Z</time>
      </trkpt>
      <trkpt lat="4.7179320" lon="-74.3445070">
        <ele>2594.3</ele>
        <time>2018-08-10T15:08:46Z</time>
      </trkpt>
      <trkpt lat="4.7179830" lon="-74.3445080">
        <ele>2593.6</ele>
        <time>2018-08-10T15:08:47Z</time>
      </trkpt>
      <trkpt lat="4.7180300" lon="-74.3445080">
        <ele>2593.1</ele>
        <time>2018-08-10T15:08:48Z</time>
      </trkpt>
      <trkpt lat="4.7180770" lon="-74.3445080">
        <ele>2592.6</ele>
        <time>2018-08-10T15:08:49Z</time>
      </trkpt>
      <trkpt lat="4.7181220" lon="-74.3445050">
        <ele>2592.3</ele>
        <time>2018-08-10T15:08:50Z</time>
      </trkpt>
      <trkpt lat="4.7181670" lon="-74.3445020">
        <ele>2592.1</ele>
        <time>2018-08-10T15:08:51Z</time>
      </trkpt>
      <trkpt lat="4.7182100" lon="-74.3445020">
        <ele>2592.1</ele>
        <time>2018-08-10T15:08:52Z</time>
      </trkpt>
      <trkpt lat="4.7182580" lon="-74.3445030">
        <ele>2592.1</ele>
        <time>2018-08-10T15:08:53Z</time>
      </trkpt>
      <trkpt lat="4.7183080" lon="-74.3445070">
        <ele>2592.1</ele>
        <time>2018-08-10T15:08:54Z</time>
      </trkpt>
      <trkpt lat="4.7183580" lon="-74.3445080">
        <ele>2592.1</ele>
        <time>2018-08-10T15:08:55Z</time>
      </trkpt>
      <trkpt lat="4.7184070" lon="-74.3445120">
        <ele>2592.0</ele>
        <time>2018-08-10T15:08:56Z</time>
      </trkpt>
      <trkpt lat="4.7184520" lon="-74.3445170">
        <ele>2592.0</ele>
        <time>2018-08-10T15:08:57Z</time>
      </trkpt>
      <trkpt lat="4.7184930" lon="-74.3445180">
        <ele>2592.0</ele>
        <time>2018-08-10T15:08:58Z</time>
      </trkpt>
      <trkpt lat="4.7185320" lon="-74.3445200">
        <ele>2592.0</ele>
        <time>2018-08-10T15:08:59Z</time>
      </trkpt>
      <trkpt lat="4.7185700" lon="-74.3445180">
        <ele>2592.2</ele>
        <time>2018-08-10T15:09:00Z</time>
      </trkpt>
      <trkpt lat="4.7186080" lon="-74.3445130">
        <ele>2592.4</ele>
        <time>2018-08-10T15:09:01Z</time>
      </trkpt>
      <trkpt lat="4.7186450" lon="-74.3445030">
        <ele>2592.6</ele>
        <time>2018-08-10T15:09:02Z</time>
      </trkpt>
      <trkpt lat="4.7186830" lon="-74.3444950">
        <ele>2592.7</ele>
        <time>2018-08-10T15:09:03Z</time>
      </trkpt>
      <trkpt lat="4.7187230" lon="-74.3444920">
        <ele>2592.7</ele>
        <time>2018-08-10T15:09:04Z</time>
      </trkpt>
      <trkpt lat="4.7187630" lon="-74.3444850">
        <ele>2592.5</ele>
        <time>2018-08-10T15:09:05Z</time>
      </trkpt>
      <trkpt lat="4.7188050" lon="-74.3444770">
        <ele>2592.1</ele>
        <time>2018-08-10T15:09:06Z</time>
      </trkpt>
      <trkpt lat="4.7188450" lon="-74.3444680">
        <ele>2591.9</ele>
        <time>2018-08-10T15:09:07Z</time>
      </trkpt>
      <trkpt lat="4.7188850" lon="-74.3444600">
        <ele>2591.9</ele>
        <time>2018-08-10T15:09:08Z</time>
      </trkpt>
      <trkpt lat="4.7189250" lon="-74.3444520">
        <ele>2591.7</ele>
        <time>2018-08-10T15:09:09Z</time>
      </trkpt>
      <trkpt lat="4.7189650" lon="-74.3444430">
        <ele>2591.4</ele>
        <time>2018-08-10T15:09:10Z</time>
      </trkpt>
      <trkpt lat="4.7190030" lon="-74.3444330">
        <ele>2591.1</ele>
        <time>2018-08-10T15:09:11Z</time>
      </trkpt>
      <trkpt lat="4.7190450" lon="-74.3444230">
        <ele>2590.8</ele>
        <time>2018-08-10T15:09:12Z</time>
      </trkpt>
      <trkpt lat="4.7190870" lon="-74.3444130">
        <ele>2590.5</ele>
        <time>2018-08-10T15:09:13Z</time>
      </trkpt>
      <trkpt lat="4.7191270" lon="-74.3444030">
        <ele>2590.2</ele>
        <time>2018-08-10T15:09:14Z</time>
      </trkpt>
      <trkpt lat="4.7191670" lon="-74.3443930">
        <ele>2590.0</ele>
        <time>2018-08-10T15:09:15Z</time>
      </trkpt>
      <trkpt lat="4.7192100" lon="-74.3443870">
        <ele>2589.8</ele>
        <time>2018-08-10T15:09:16Z</time>
      </trkpt>
      <trkpt lat="4.7192530" lon="-74.3443770">
        <ele>2589.6</ele>
        <time>2018-08-10T15:09:17Z</time>
      </trkpt>
      <trkpt lat="4.7192970" lon="-74.3443650">
        <ele>2589.3</ele>
        <time>2018-08-10T15:09:18Z</time>
      </trkpt>
      <trkpt lat="4.7193400" lon="-74.3443550">
        <ele>2589.1</ele>
        <time>2018-08-10T15:09:19Z</time>
      </trkpt>
      <trkpt lat="4.7193830" lon="-74.3443400">
        <ele>2589.1</ele>
        <time>2018-08-10T15:09:20Z</time>
      </trkpt>
      <trkpt lat="4.7194230" lon="-74.3443230">
        <ele>2589.1</ele>
        <time>2018-08-10T15:09:21Z</time>
      </trkpt>
      <trkpt lat="4.7194650" lon="-74.3443070">
        <ele>2588.9</ele>
        <time>2018-08-10T15:09:22Z</time>
      </trkpt>
      <trkpt lat="4.7195050" lon="-74.3442870">
        <ele>2589.3</ele>
        <time>2018-08-10T15:09:23Z</time>
      </trkpt>
      <trkpt lat="4.7195430" lon="-74.3442670">
        <ele>2589.7</ele>
        <time>2018-08-10T15:09:24Z</time>
      </trkpt>
      <trkpt lat="4.7195820" lon="-74.3442480">
        <ele>2590.0</ele>
        <time>2018-08-10T15:09:25Z</time>
      </trkpt>
      <trkpt lat="4.7196230" lon="-74.3442330">
        <ele>2590.0</ele>
        <time>2018-08-10T15:09:26Z</time>
      </trkpt>
      <trkpt lat="4.7196630" lon="-74.3442170">
        <ele>2589.7</ele>
        <time>2018-08-10T15:09:27Z</time>
      </trkpt>
      <trkpt lat="4.7197030" lon="-74.3441970">
        <ele>2589.3</ele>
        <time>2018-08-10T15:09:28Z</time>
      </trkpt>
      <trkpt lat="4.7197450" lon="-74.3441770">
        <ele>2589.0</ele>
        <time>2018-08-10T15:09:29Z</time>
      </trkpt>
      <trkpt lat="4.7197850" lon="-74.3441500">
        <ele>2588.6</ele>
        <time>2018-08-10T15:09:30Z</time>
      </trkpt>
      <trkpt lat="4.7198220" lon="-74.3441250">
        <ele>2588.3</ele>
        <time>2018-08-10T15:09:31Z</time>
      </trkpt>
      <trkpt lat="4.7198570" lon="-74.3440980">
        <ele>2588.0</ele>
        <time>2018-08-10T15:09:32Z</time>
      </trkpt>
      <trkpt lat="4.7198920" lon="-74.3440750">
        <ele>2587.7</ele>
        <time>2018-08-10T15:09:33Z</time>
      </trkpt>
      <trkpt lat="4.7199280" lon="-74.3440480">
        <ele>2587.4</ele>
        <time>2018-08-10T15:09:34Z</time>
      </trkpt>
      <trkpt lat="4.7199630" lon="-74.3440180">
        <ele>2587.1</ele>
        <time>2018-08-10T15:09:35Z</time>
      </trkpt>
      <trkpt lat="4.7200000" lon="-74.3439880">
        <ele>2586.8</ele>
        <time>2018-08-10T15:09:36Z</time>
      </trkpt>
      <trkpt lat="4.7200380" lon="-74.3439550">
        <ele>2586.6</ele>
        <time>2018-08-10T15:09:37Z</time>
      </trkpt>
      <trkpt lat="4.7200730" lon="-74.3439220">
        <ele>2586.4</ele>
        <time>2018-08-10T15:09:38Z</time>
      </trkpt>
      <trkpt lat="4.7201050" lon="-74.3438920">
        <ele>2586.2</ele>
        <time>2018-08-10T15:09:39Z</time>
      </trkpt>
      <trkpt lat="4.7201330" lon="-74.3438650">
        <ele>2586.1</ele>
        <time>2018-08-10T15:09:40Z</time>
      </trkpt>
      <trkpt lat="4.7201580" lon="-74.3438380">
        <ele>2585.9</ele>
        <time>2018-08-10T15:09:41Z</time>
      </trkpt>
      <trkpt lat="4.7201850" lon="-74.3438130">
        <ele>2585.7</ele>
        <time>2018-08-10T15:09:42Z</time>
      </trkpt>
      <trkpt lat="4.7202120" lon="-74.3437900">
        <ele>2585.5</ele>
        <time>2018-08-10T15:09:43Z</time>
      </trkpt>
      <trkpt lat="4.7202370" lon="-74.3437630">
        <ele>2585.3</ele>
        <time>2018-08-10T15:09:44Z</time>
      </trkpt>
      <trkpt lat="4.7202620" lon="-74.3437350">
        <ele>2585.1</ele>
        <time>2018-08-10T15:09:45Z</time>
      </trkpt>
      <trkpt lat="4.7202900" lon="-74.3437050">
        <ele>2584.9</ele>
        <time>2018-08-10T15:09:46Z</time>
      </trkpt>
      <trkpt lat="4.7203180" lon="-74.3436730">
        <ele>2584.7</ele>
        <time>2018-08-10T15:09:47Z</time>
      </trkpt>
      <trkpt lat="4.7203500" lon="-74.3436430">
        <ele>2584.5</ele>
        <time>2018-08-10T15:09:48Z</time>
      </trkpt>
      <trkpt lat="4.7203800" lon="-74.3436130">
        <ele>2584.3</ele>
        <time>2018-08-10T15:09:49Z</time>
      </trkpt>
      <trkpt lat="4.7204130" lon="-74.3435870">
        <ele>2584.1</ele>
        <time>2018-08-10T15:09:50Z</time>
      </trkpt>
      <trkpt lat="4.7204470" lon="-74.3435620">
        <ele>2584.0</ele>
        <time>2018-08-10T15:09:51Z</time>
      </trkpt>
      <trkpt lat="4.7204820" lon="-74.3435370">
        <ele>2583.9</ele>
        <time>2018-08-10T15:09:52Z</time>
      </trkpt>
      <trkpt lat="4.7205170" lon="-74.3435100">
        <ele>2583.8</ele>
        <time>2018-08-10T15:09:53Z</time>
      </trkpt>
      <trkpt lat="4.7205550" lon="-74.3434850">
        <ele>2583.7</ele>
        <time>2018-08-10T15:09:54Z</time>
      </trkpt>
      <trkpt lat="4.7205900" lon="-74.3434550">
        <ele>2583.6</ele>
        <time>2018-08-10T15:09:55Z</time>
      </trkpt>
      <trkpt lat="4.7206250" lon="-74.3434220">
        <ele>2583.5</ele>
        <time>2018-08-10T15:09:56Z</time>
      </trkpt>
      <trkpt lat="4.7206620" lon="-74.3433880">
        <ele>2583.4</ele>
        <time>2018-08-10T15:09:57Z</time>
      </trkpt>
      <trkpt lat="4.7206980" lon="-74.3433570">
        <ele>2583.4</ele>
        <time>2018-08-10T15:09:58Z</time>
      </trkpt>
      <trkpt lat="4.7207300" lon="-74.3433250">
        <ele>2583.3</ele>
        <time>2018-08-10T15:09:59Z</time>
      </trkpt>
      <trkpt lat="4.7207620" lon="-74.3432980">
        <ele>2583.2</ele>
        <time>2018-08-10T15:10:00Z</time>
      </trkpt>
      <trkpt lat="4.7207970" lon="-74.3432780">
        <ele>2583.2</ele>
        <time>2018-08-10T15:10:01Z</time>
      </trkpt>
      <trkpt lat="4.7208280" lon="-74.3432620">
        <ele>2583.1</ele>
        <time>2018-08-10T15:10:02Z</time>
      </trkpt>
      <trkpt lat="4.7208580" lon="-74.3432400">
        <ele>2583.1</ele>
        <time>2018-08-10T15:10:03Z</time>
      </trkpt>
      <trkpt lat="4.7208880" lon="-74.3432180">
        <ele>2583.0</ele>
        <time>2018-08-10T15:10:04Z</time>
      </trkpt>
      <trkpt lat="4.7209220" lon="-74.3431970">
        <ele>2583.0</ele>
        <time>2018-08-10T15:10:05Z</time>
      </trkpt>
      <trkpt lat="4.7209580" lon="-74.3431750">
        <ele>2582.9</ele>
        <time>2018-08-10T15:10:06Z</time>
      </trkpt>
      <trkpt lat="4.7209970" lon="-74.3431480">
        <ele>2582.8</ele>
        <time>2018-08-10T15:10:07Z</time>
      </trkpt>
      <trkpt lat="4.7210370" lon="-74.3431250">
        <ele>2582.8</ele>
        <time>2018-08-10T15:10:08Z</time>
      </trkpt>
      <trkpt lat="4.7210770" lon="-74.3431030">
        <ele>2582.7</ele>
        <time>2018-08-10T15:10:09Z</time>
      </trkpt>
      <trkpt lat="4.7211170" lon="-74.3430800">
        <ele>2582.6</ele>
        <time>2018-08-10T15:10:10Z</time>
      </trkpt>
      <trkpt lat="4.7211550" lon="-74.3430550">
        <ele>2582.6</ele>
        <time>2018-08-10T15:10:11Z</time>
      </trkpt>
      <trkpt lat="4.7211950" lon="-74.3430330">
        <ele>2582.5</ele>
        <time>2018-08-10T15:10:12Z</time>
      </trkpt>
      <trkpt lat="4.7212330" lon="-74.3430130">
        <ele>2582.3</ele>
        <time>2018-08-10T15:10:13Z</time>
      </trkpt>
      <trkpt lat="4.7212730" lon="-74.3429920">
        <ele>2582.1</ele>
        <time>2018-08-10T15:10:14Z</time>
      </trkpt>
      <trkpt lat="4.7213100" lon="-74.3429700">
        <ele>2582.0</ele>
        <time>2018-08-10T15:10:15Z</time>
      </trkpt>
      <trkpt lat="4.7213470" lon="-74.3429500">
        <ele>2581.8</ele>
        <time>2018-08-10T15:10:16Z</time>
      </trkpt>
      <trkpt lat="4.7213830" lon="-74.3429320">
        <ele>2581.6</ele>
        <time>2018-08-10T15:10:17Z</time>
      </trkpt>
      <trkpt lat="4.7214180" lon="-74.3429150">
        <ele>2581.4</ele>
        <time>2018-08-10T15:10:18Z</time>
      </trkpt>
      <trkpt lat="4.7214530" lon="-74.3428980">
        <ele>2581.2</ele>
        <time>2018-08-10T15:10:19Z</time>
      </trkpt>
      <trkpt lat="4.7214880" lon="-74.3428830">
        <ele>2581.0</ele>
        <time>2018-08-10T15:10:20Z</time>
      </trkpt>
      <trkpt lat="4.7215230" lon="-74.3428670">
        <ele>2580.8</ele>
        <time>2018-08-10T15:10:21Z</time>
      </trkpt>
      <trkpt lat="4.7215570" lon="-74.3428480">
        <ele>2580.6</ele>
        <time>2018-08-10T15:10:22Z</time>
      </trkpt>
      <trkpt lat="4.7215920" lon="-74.3428320">
        <ele>2580.4</ele>
        <time>2018-08-10T15:10:23Z</time>
      </trkpt>
      <trkpt lat="4.7216270" lon="-74.3428180">
        <ele>2580.1</ele>
        <time>2018-08-10T15:10:24Z</time>
      </trkpt>
      <trkpt lat="4.7216600" lon="-74.3428070">
        <ele>2580.0</ele>
        <time>2018-08-10T15:10:25Z</time>
      </trkpt>
      <trkpt lat="4.7216930" lon="-74.3427930">
        <ele>2579.8</ele>
        <time>2018-08-10T15:10:26Z</time>
      </trkpt>
      <trkpt lat="4.7217250" lon="-74.3427830">
        <ele>2579.7</ele>
        <time>2018-08-10T15:10:27Z</time>
      </trkpt>
      <trkpt lat="4.7217550" lon="-74.3427720">
        <ele>2579.6</ele>
        <time>2018-08-10T15:10:28Z</time>
      </trkpt>
      <trkpt lat="4.7217850" lon="-74.3427600">
        <ele>2579.5</ele>
        <time>2018-08-10T15:10:29Z</time>
      </trkpt>
      <trkpt lat="4.7218200" lon="-74.3427500">
        <ele>2579.3</ele>
        <time>2018-08-10T15:10:30Z</time>
      </trkpt>
      <trkpt lat="4.7218570" lon="-74.3427420">
        <ele>2579.2</ele>
        <time>2018-08-10T15:10:31Z</time>
      </trkpt>
      <trkpt lat="4.7218930" lon="-74.3427320">
        <ele>2579.1</ele>
        <time>2018-08-10T15:10:32Z</time>
      </trkpt>
      <trkpt lat="4.7219300" lon="-74.3427230">
        <ele>2579.1</ele>
        <time>2018-08-10T15:10:33Z</time>
      </trkpt>
      <trkpt lat="4.7219650" lon="-74.3427130">
        <ele>2579.3</ele>
        <time>2018-08-10T15:10:34Z</time>
      </trkpt>
      <trkpt lat="4.7219970" lon="-74.3427000">
        <ele>2579.5</ele>
        <time>2018-08-10T15:10:35Z</time>
      </trkpt>
      <trkpt lat="4.7220320" lon="-74.3426900">
        <ele>2579.6</ele>
        <time>2018-08-10T15:10:36Z</time>
      </trkpt>
      <trkpt lat="4.7220680" lon="-74.3426830">
        <ele>2579.7</ele>
        <time>2018-08-10T15:10:37Z</time>
      </trkpt>
      <trkpt lat="4.7221050" lon="-74.3426800">
        <ele>2579.7</ele>
        <time>2018-08-10T15:10:38Z</time>
      </trkpt>
      <trkpt lat="4.7221430" lon="-74.3426750">
        <ele>2579.7</ele>
        <time>2018-08-10T15:10:39Z</time>
      </trkpt>
      <trkpt lat="4.7221800" lon="-74.3426650">
        <ele>2579.7</ele>
        <time>2018-08-10T15:10:40Z</time>
      </trkpt>
      <trkpt lat="4.7222170" lon="-74.3426530">
        <ele>2579.8</ele>
        <time>2018-08-10T15:10:41Z</time>
      </trkpt>
      <trkpt lat="4.7222550" lon="-74.3426450">
        <ele>2579.8</ele>
        <time>2018-08-10T15:10:42Z</time>
      </trkpt>
      <trkpt lat="4.7222880" lon="-74.3426380">
        <ele>2579.8</ele>
        <time>2018-08-10T15:10:43Z</time>
      </trkpt>
      <trkpt lat="4.7223230" lon="-74.3426330">
        <ele>2579.8</ele>
        <time>2018-08-10T15:10:44Z</time>
      </trkpt>
      <trkpt lat="4.7223580" lon="-74.3426270">
        <ele>2579.8</ele>
        <time>2018-08-10T15:10:45Z</time>
      </trkpt>
      <trkpt lat="4.7223920" lon="-74.3426220">
        <ele>2579.9</ele>
        <time>2018-08-10T15:10:46Z</time>
      </trkpt>
      <trkpt lat="4.7224230" lon="-74.3426130">
        <ele>2579.9</ele>
        <time>2018-08-10T15:10:47Z</time>
      </trkpt>
      <trkpt lat="4.7224550" lon="-74.3426080">
        <ele>2579.9</ele>
        <time>2018-08-10T15:10:48Z</time>
      </trkpt>
      <trkpt lat="4.7224850" lon="-74.3426030">
        <ele>2579.9</ele>
        <time>2018-08-10T15:10:49Z</time>
      </trkpt>
      <trkpt lat="4.7225150" lon="-74.3425980">
        <ele>2579.9</ele>
        <time>2018-08-10T15:10:50Z</time>
      </trkpt>
      <trkpt lat="4.7225480" lon="-74.3425930">
        <ele>2579.9</ele>
        <time>2018-08-10T15:10:51Z</time>
      </trkpt>
      <trkpt lat="4.7225830" lon="-74.3425850">
        <ele>2579.9</ele>
        <time>2018-08-10T15:10:52Z</time>
      </trkpt>
      <trkpt lat="4.7226180" lon="-74.3425770">
        <ele>2580.0</ele>
        <time>2018-08-10T15:10:53Z</time>
      </trkpt>
      <trkpt lat="4.7226530" lon="-74.3425700">
        <ele>2580.0</ele>
        <time>2018-08-10T15:10:54Z</time>
      </trkpt>
      <trkpt lat="4.7226870" lon="-74.3425620">
        <ele>2580.0</ele>
        <time>2018-08-10T15:10:55Z</time>
      </trkpt>
      <trkpt lat="4.7227180" lon="-74.3425570">
        <ele>2580.0</ele>
        <time>2018-08-10T15:10:56Z</time>
      </trkpt>
      <trkpt lat="4.7227500" lon="-74.3425480">
        <ele>2580.0</ele>
        <time>2018-08-10T15:10:57Z</time>
      </trkpt>
      <trkpt lat="4.7227800" lon="-74.3425380">
        <ele>2580.0</ele>
        <time>2018-08-10T15:10:58Z</time>
      </trkpt>
      <trkpt lat="4.7228080" lon="-74.3425300">
        <ele>2580.0</ele>
        <time>2018-08-10T15:10:59Z</time>
      </trkpt>
      <trkpt lat="4.7228370" lon="-74.3425230">
        <ele>2580.0</ele>
        <time>2018-08-10T15:11:00Z</time>
      </trkpt>
      <trkpt lat="4.7228670" lon="-74.3425180">
        <ele>2580.0</ele>
        <time>2018-08-10T15:11:01Z</time>
      </trkpt>
      <trkpt lat="4.7228950" lon="-74.3425130">
        <ele>2580.0</ele>
        <time>2018-08-10T15:11:02Z</time>
      </trkpt>
      <trkpt lat="4.7229270" lon="-74.3425100">
        <ele>2580.0</ele>
        <time>2018-08-10T15:11:03Z</time>
      </trkpt>
      <trkpt lat="4.7229580" lon="-74.3425050">
        <ele>2580.0</ele>
        <time>2018-08-10T15:11:04Z</time>
      </trkpt>
      <trkpt lat="4.7229900" lon="-74.3424970">
        <ele>2580.1</ele>
        <time>2018-08-10T15:11:05Z</time>
      </trkpt>
      <trkpt lat="4.7230220" lon="-74.3424870">
        <ele>2580.1</ele>
        <time>2018-08-10T15:11:06Z</time>
      </trkpt>
      <trkpt lat="4.7230530" lon="-74.3424750">
        <ele>2580.1</ele>
        <time>2018-08-10T15:11:07Z</time>
      </trkpt>
      <trkpt lat="4.7230830" lon="-74.3424620">
        <ele>2580.1</ele>
        <time>2018-08-10T15:11:08Z</time>
      </trkpt>
      <trkpt lat="4.7231130" lon="-74.3424500">
        <ele>2580.1</ele>
        <time>2018-08-10T15:11:09Z</time>
      </trkpt>
      <trkpt lat="4.7231430" lon="-74.3424420">
        <ele>2580.1</ele>
        <time>2018-08-10T15:11:10Z</time>
      </trkpt>
      <trkpt lat="4.7231730" lon="-74.3424350">
        <ele>2580.1</ele>
        <time>2018-08-10T15:11:11Z</time>
      </trkpt>
      <trkpt lat="4.7232050" lon="-74.3424280">
        <ele>2580.1</ele>
        <time>2018-08-10T15:11:12Z</time>
      </trkpt>
      <trkpt lat="4.7232380" lon="-74.3424200">
        <ele>2580.1</ele>
        <time>2018-08-10T15:11:13Z</time>
      </trkpt>
      <trkpt lat="4.7232730" lon="-74.3424130">
        <ele>2580.1</ele>
        <time>2018-08-10T15:11:14Z</time>
      </trkpt>
      <trkpt lat="4.7233080" lon="-74.3424050">
        <ele>2580.1</ele>
        <time>2018-08-10T15:11:15Z</time>
      </trkpt>
      <trkpt lat="4.7233430" lon="-74.3423930">
        <ele>2580.2</ele>
        <time>2018-08-10T15:11:16Z</time>
      </trkpt>
      <trkpt lat="4.7233770" lon="-74.3423780">
        <ele>2580.2</ele>
        <time>2018-08-10T15:11:17Z</time>
      </trkpt>
      <trkpt lat="4.7234100" lon="-74.3423620">
        <ele>2580.2</ele>
        <time>2018-08-10T15:11:18Z</time>
      </trkpt>
      <trkpt lat="4.7234430" lon="-74.3423520">
        <ele>2580.2</ele>
        <time>2018-08-10T15:11:19Z</time>
      </trkpt>
      <trkpt lat="4.7234780" lon="-74.3423450">
        <ele>2580.2</ele>
        <time>2018-08-10T15:11:20Z</time>
      </trkpt>
      <trkpt lat="4.7235170" lon="-74.3423380">
        <ele>2580.2</ele>
        <time>2018-08-10T15:11:21Z</time>
      </trkpt>
      <trkpt lat="4.7235570" lon="-74.3423280">
        <ele>2580.2</ele>
        <time>2018-08-10T15:11:22Z</time>
      </trkpt>
      <trkpt lat="4.7235980" lon="-74.3423180">
        <ele>2580.2</ele>
        <time>2018-08-10T15:11:23Z</time>
      </trkpt>
      <trkpt lat="4.7236400" lon="-74.3423070">
        <ele>2580.2</ele>
        <time>2018-08-10T15:11:24Z</time>
      </trkpt>
      <trkpt lat="4.7236830" lon="-74.3422900">
        <ele>2580.2</ele>
        <time>2018-08-10T15:11:25Z</time>
      </trkpt>
      <trkpt lat="4.7237230" lon="-74.3422750">
        <ele>2580.2</ele>
        <time>2018-08-10T15:11:26Z</time>
      </trkpt>
      <trkpt lat="4.7237650" lon="-74.3422630">
        <ele>2580.2</ele>
        <time>2018-08-10T15:11:27Z</time>
      </trkpt>
      <trkpt lat="4.7238070" lon="-74.3422530">
        <ele>2580.2</ele>
        <time>2018-08-10T15:11:28Z</time>
      </trkpt>
      <trkpt lat="4.7238450" lon="-74.3422450">
        <ele>2580.2</ele>
        <time>2018-08-10T15:11:29Z</time>
      </trkpt>
      <trkpt lat="4.7238830" lon="-74.3422380">
        <ele>2580.2</ele>
        <time>2018-08-10T15:11:30Z</time>
      </trkpt>
      <trkpt lat="4.7239180" lon="-74.3422320">
        <ele>2580.3</ele>
        <time>2018-08-10T15:11:31Z</time>
      </trkpt>
      <trkpt lat="4.7239550" lon="-74.3422230">
        <ele>2580.3</ele>
        <time>2018-08-10T15:11:32Z</time>
      </trkpt>
      <trkpt lat="4.7239930" lon="-74.3422200">
        <ele>2580.3</ele>
        <time>2018-08-10T15:11:33Z</time>
      </trkpt>
      <trkpt lat="4.7240330" lon="-74.3422150">
        <ele>2580.3</ele>
        <time>2018-08-10T15:11:34Z</time>
      </trkpt>
      <trkpt lat="4.7240750" lon="-74.3422150">
        <ele>2580.3</ele>
        <time>2018-08-10T15:11:35Z</time>
      </trkpt>
      <trkpt lat="4.7241150" lon="-74.3422170">
        <ele>2580.3</ele>
        <time>2018-08-10T15:11:36Z</time>
      </trkpt>
      <trkpt lat="4.7241570" lon="-74.3422170">
        <ele>2580.3</ele>
        <time>2018-08-10T15:11:37Z</time>
      </trkpt>
      <trkpt lat="4.7241950" lon="-74.3422150">
        <ele>2580.3</ele>
        <time>2018-08-10T15:11:38Z</time>
      </trkpt>
      <trkpt lat="4.7242330" lon="-74.3422170">
        <ele>2580.3</ele>
        <time>2018-08-10T15:11:39Z</time>
      </trkpt>
      <trkpt lat="4.7242700" lon="-74.3422220">
        <ele>2580.3</ele>
        <time>2018-08-10T15:11:40Z</time>
      </trkpt>
      <trkpt lat="4.7243080" lon="-74.3422280">
        <ele>2580.3</ele>
        <time>2018-08-10T15:11:41Z</time>
      </trkpt>
      <trkpt lat="4.7243470" lon="-74.3422350">
        <ele>2580.3</ele>
        <time>2018-08-10T15:11:42Z</time>
      </trkpt>
      <trkpt lat="4.7243880" lon="-74.3422420">
        <ele>2580.3</ele>
        <time>2018-08-10T15:11:43Z</time>
      </trkpt>
      <trkpt lat="4.7244300" lon="-74.3422470">
        <ele>2580.3</ele>
        <time>2018-08-10T15:11:44Z</time>
      </trkpt>
      <trkpt lat="4.7244680" lon="-74.3422520">
        <ele>2580.3</ele>
        <time>2018-08-10T15:11:45Z</time>
      </trkpt>
      <trkpt lat="4.7245050" lon="-74.3422570">
        <ele>2580.3</ele>
        <time>2018-08-10T15:11:46Z</time>
      </trkpt>
      <trkpt lat="4.7245420" lon="-74.3422630">
        <ele>2580.3</ele>
        <time>2018-08-10T15:11:47Z</time>
      </trkpt>
      <trkpt lat="4.7245780" lon="-74.3422700">
        <ele>2580.3</ele>
        <time>2018-08-10T15:11:48Z</time>
      </trkpt>
      <trkpt lat="4.7246130" lon="-74.3422750">
        <ele>2580.4</ele>
        <time>2018-08-10T15:11:49Z</time>
      </trkpt>
      <trkpt lat="4.7246450" lon="-74.3422770">
        <ele>2580.4</ele>
        <time>2018-08-10T15:11:50Z</time>
      </trkpt>
      <trkpt lat="4.7246780" lon="-74.3422770">
        <ele>2580.4</ele>
        <time>2018-08-10T15:11:51Z</time>
      </trkpt>
      <trkpt lat="4.7247100" lon="-74.3422770">
        <ele>2580.4</ele>
        <time>2018-08-10T15:11:52Z</time>
      </trkpt>
      <trkpt lat="4.7247430" lon="-74.3422750">
        <ele>2580.4</ele>
        <time>2018-08-10T15:11:53Z</time>
      </trkpt>
      <trkpt lat="4.7247770" lon="-74.3422720">
        <ele>2580.4</ele>
        <time>2018-08-10T15:11:54Z</time>
      </trkpt>
      <trkpt lat="4.7248100" lon="-74.3422730">
        <ele>2580.4</ele>
        <time>2018-08-10T15:11:55Z</time>
      </trkpt>
      <trkpt lat="4.7248430" lon="-74.3422770">
        <ele>2580.4</ele>
        <time>2018-08-10T15:11:56Z</time>
      </trkpt>
      <trkpt lat="4.7248750" lon="-74.3422830">
        <ele>2580.4</ele>
        <time>2018-08-10T15:11:57Z</time>
      </trkpt>
      <trkpt lat="4.7249050" lon="-74.3422900">
        <ele>2580.4</ele>
        <time>2018-08-10T15:11:58Z</time>
      </trkpt>
      <trkpt lat="4.7249350" lon="-74.3422970">
        <ele>2580.4</ele>
        <time>2018-08-10T15:11:59Z</time>
      </trkpt>
      <trkpt lat="4.7249630" lon="-74.3423020">
        <ele>2580.4</ele>
        <time>2018-08-10T15:12:00Z</time>
      </trkpt>
      <trkpt lat="4.7249930" lon="-74.3423070">
        <ele>2580.4</ele>
        <time>2018-08-10T15:12:01Z</time>
      </trkpt>
      <trkpt lat="4.7250250" lon="-74.3423130">
        <ele>2580.4</ele>
        <time>2018-08-10T15:12:02Z</time>
      </trkpt>
      <trkpt lat="4.7250570" lon="-74.3423200">
        <ele>2580.4</ele>
        <time>2018-08-10T15:12:03Z</time>
      </trkpt>
      <trkpt lat="4.7250900" lon="-74.3423250">
        <ele>2580.4</ele>
        <time>2018-08-10T15:12:04Z</time>
      </trkpt>
      <trkpt lat="4.7251220" lon="-74.3423280">
        <ele>2580.4</ele>
        <time>2018-08-10T15:12:05Z</time>
      </trkpt>
      <trkpt lat="4.7251500" lon="-74.3423280">
        <ele>2580.4</ele>
        <time>2018-08-10T15:12:06Z</time>
      </trkpt>
      <trkpt lat="4.7251780" lon="-74.3423270">
        <ele>2580.4</ele>
        <time>2018-08-10T15:12:07Z</time>
      </trkpt>
      <trkpt lat="4.7252120" lon="-74.3423300">
        <ele>2580.4</ele>
        <time>2018-08-10T15:12:08Z</time>
      </trkpt>
      <trkpt lat="4.7252420" lon="-74.3423380">
        <ele>2580.4</ele>
        <time>2018-08-10T15:12:09Z</time>
      </trkpt>
      <trkpt lat="4.7252700" lon="-74.3423420">
        <ele>2580.4</ele>
        <time>2018-08-10T15:12:10Z</time>
      </trkpt>
      <trkpt lat="4.7253000" lon="-74.3423420">
        <ele>2580.4</ele>
        <time>2018-08-10T15:12:11Z</time>
      </trkpt>
      <trkpt lat="4.7253280" lon="-74.3423420">
        <ele>2580.4</ele>
        <time>2018-08-10T15:12:12Z</time>
      </trkpt>
      <trkpt lat="4.7253800" lon="-74.3423450">
        <ele>2580.4</ele>
        <time>2018-08-10T15:12:14Z</time>
      </trkpt>
      <trkpt lat="4.7254070" lon="-74.3423500">
        <ele>2580.4</ele>
        <time>2018-08-10T15:12:15Z</time>
      </trkpt>
      <trkpt lat="4.7254350" lon="-74.3423530">
        <ele>2580.4</ele>
        <time>2018-08-10T15:12:16Z</time>
      </trkpt>
      <trkpt lat="4.7254670" lon="-74.3423550">
        <ele>2580.4</ele>
        <time>2018-08-10T15:12:17Z</time>
      </trkpt>
      <trkpt lat="4.7254970" lon="-74.3423570">
        <ele>2580.4</ele>
        <time>2018-08-10T15:12:18Z</time>
      </trkpt>
      <trkpt lat="4.7255280" lon="-74.3423570">
        <ele>2580.5</ele>
        <time>2018-08-10T15:12:19Z</time>
      </trkpt>
      <trkpt lat="4.7255600" lon="-74.3423550">
        <ele>2580.5</ele>
        <time>2018-08-10T15:12:20Z</time>
      </trkpt>
      <trkpt lat="4.7255900" lon="-74.3423570">
        <ele>2580.5</ele>
        <time>2018-08-10T15:12:21Z</time>
      </trkpt>
      <trkpt lat="4.7256200" lon="-74.3423630">
        <ele>2580.5</ele>
        <time>2018-08-10T15:12:22Z</time>
      </trkpt>
      <trkpt lat="4.7256550" lon="-74.3423680">
        <ele>2580.5</ele>
        <time>2018-08-10T15:12:23Z</time>
      </trkpt>
      <trkpt lat="4.7256920" lon="-74.3423730">
        <ele>2580.5</ele>
        <time>2018-08-10T15:12:24Z</time>
      </trkpt>
      <trkpt lat="4.7257330" lon="-74.3423750">
        <ele>2580.5</ele>
        <time>2018-08-10T15:12:25Z</time>
      </trkpt>
      <trkpt lat="4.7257730" lon="-74.3423800">
        <ele>2580.5</ele>
        <time>2018-08-10T15:12:26Z</time>
      </trkpt>
      <trkpt lat="4.7258130" lon="-74.3423800">
        <ele>2580.5</ele>
        <time>2018-08-10T15:12:27Z</time>
      </trkpt>
      <trkpt lat="4.7258530" lon="-74.3423850">
        <ele>2580.5</ele>
        <time>2018-08-10T15:12:28Z</time>
      </trkpt>
      <trkpt lat="4.7258900" lon="-74.3423930">
        <ele>2580.5</ele>
        <time>2018-08-10T15:12:29Z</time>
      </trkpt>
      <trkpt lat="4.7259250" lon="-74.3424020">
        <ele>2580.5</ele>
        <time>2018-08-10T15:12:30Z</time>
      </trkpt>
      <trkpt lat="4.7259570" lon="-74.3424050">
        <ele>2580.5</ele>
        <time>2018-08-10T15:12:31Z</time>
      </trkpt>
      <trkpt lat="4.7259920" lon="-74.3424050">
        <ele>2580.5</ele>
        <time>2018-08-10T15:12:32Z</time>
      </trkpt>
      <trkpt lat="4.7260230" lon="-74.3424050">
        <ele>2580.5</ele>
        <time>2018-08-10T15:12:33Z</time>
      </trkpt>
      <trkpt lat="4.7260530" lon="-74.3423980">
        <ele>2580.5</ele>
        <time>2018-08-10T15:12:34Z</time>
      </trkpt>
      <trkpt lat="4.7260850" lon="-74.3423950">
        <ele>2580.5</ele>
        <time>2018-08-10T15:12:35Z</time>
      </trkpt>
      <trkpt lat="4.7261170" lon="-74.3423930">
        <ele>2580.5</ele>
        <time>2018-08-10T15:12:36Z</time>
      </trkpt>
      <trkpt lat="4.7261500" lon="-74.3423950">
        <ele>2580.5</ele>
        <time>2018-08-10T15:12:37Z</time>
      </trkpt>
      <trkpt lat="4.7261820" lon="-74.3423970">
        <ele>2580.6</ele>
        <time>2018-08-10T15:12:38Z</time>
      </trkpt>
      <trkpt lat="4.7262120" lon="-74.3423970">
        <ele>2580.6</ele>
        <time>2018-08-10T15:12:39Z</time>
      </trkpt>
      <trkpt lat="4.7262450" lon="-74.3423980">
        <ele>2580.6</ele>
        <time>2018-08-10T15:12:40Z</time>
      </trkpt>
      <trkpt lat="4.7262830" lon="-74.3423980">
        <ele>2580.6</ele>
        <time>2018-08-10T15:12:41Z</time>
      </trkpt>
      <trkpt lat="4.7263230" lon="-74.3423980">
        <ele>2580.6</ele>
        <time>2018-08-10T15:12:42Z</time>
      </trkpt>
      <trkpt lat="4.7263650" lon="-74.3423930">
        <ele>2580.6</ele>
        <time>2018-08-10T15:12:43Z</time>
      </trkpt>
      <trkpt lat="4.7264070" lon="-74.3423870">
        <ele>2580.6</ele>
        <time>2018-08-10T15:12:44Z</time>
      </trkpt>
      <trkpt lat="4.7264480" lon="-74.3423820">
        <ele>2580.6</ele>
        <time>2018-08-10T15:12:45Z</time>
      </trkpt>
      <trkpt lat="4.7264900" lon="-74.3423850">
        <ele>2580.6</ele>
        <time>2018-08-10T15:12:46Z</time>
      </trkpt>
      <trkpt lat="4.7265280" lon="-74.3423900">
        <ele>2580.6</ele>
        <time>2018-08-10T15:12:47Z</time>
      </trkpt>
      <trkpt lat="4.7265670" lon="-74.3423930">
        <ele>2580.6</ele>
        <time>2018-08-10T15:12:48Z</time>
      </trkpt>
      <trkpt lat="4.7266050" lon="-74.3424000">
        <ele>2580.6</ele>
        <time>2018-08-10T15:12:49Z</time>
      </trkpt>
      <trkpt lat="4.7266420" lon="-74.3423980">
        <ele>2580.6</ele>
        <time>2018-08-10T15:12:50Z</time>
      </trkpt>
      <trkpt lat="4.7266780" lon="-74.3423900">
        <ele>2580.6</ele>
        <time>2018-08-10T15:12:51Z</time>
      </trkpt>
      <trkpt lat="4.7267150" lon="-74.3423870">
        <ele>2580.6</ele>
        <time>2018-08-10T15:12:52Z</time>
      </trkpt>
      <trkpt lat="4.7267530" lon="-74.3423850">
        <ele>2580.6</ele>
        <time>2018-08-10T15:12:53Z</time>
      </trkpt>
      <trkpt lat="4.7267900" lon="-74.3423820">
        <ele>2580.6</ele>
        <time>2018-08-10T15:12:54Z</time>
      </trkpt>
      <trkpt lat="4.7268280" lon="-74.3423800">
        <ele>2580.7</ele>
        <time>2018-08-10T15:12:55Z</time>
      </trkpt>
      <trkpt lat="4.7268700" lon="-74.3423800">
        <ele>2580.7</ele>
        <time>2018-08-10T15:12:56Z</time>
      </trkpt>
      <trkpt lat="4.7269120" lon="-74.3423830">
        <ele>2580.7</ele>
        <time>2018-08-10T15:12:57Z</time>
      </trkpt>
      <trkpt lat="4.7269550" lon="-74.3423870">
        <ele>2580.7</ele>
        <time>2018-08-10T15:12:58Z</time>
      </trkpt>
      <trkpt lat="4.7270000" lon="-74.3423850">
        <ele>2580.7</ele>
        <time>2018-08-10T15:12:59Z</time>
      </trkpt>
      <trkpt lat="4.7270480" lon="-74.3423850">
        <ele>2580.7</ele>
        <time>2018-08-10T15:13:00Z</time>
      </trkpt>
      <trkpt lat="4.7270970" lon="-74.3423850">
        <ele>2580.7</ele>
        <time>2018-08-10T15:13:01Z</time>
      </trkpt>
      <trkpt lat="4.7271450" lon="-74.3423880">
        <ele>2580.7</ele>
        <time>2018-08-10T15:13:02Z</time>
      </trkpt>
      <trkpt lat="4.7271920" lon="-74.3423920">
        <ele>2580.7</ele>
        <time>2018-08-10T15:13:03Z</time>
      </trkpt>
      <trkpt lat="4.7272330" lon="-74.3423880">
        <ele>2580.7</ele>
        <time>2018-08-10T15:13:04Z</time>
      </trkpt>
      <trkpt lat="4.7272770" lon="-74.3423880">
        <ele>2580.7</ele>
        <time>2018-08-10T15:13:05Z</time>
      </trkpt>
      <trkpt lat="4.7273150" lon="-74.3423850">
        <ele>2580.7</ele>
        <time>2018-08-10T15:13:06Z</time>
      </trkpt>
      <trkpt lat="4.7273550" lon="-74.3423850">
        <ele>2580.7</ele>
        <time>2018-08-10T15:13:07Z</time>
      </trkpt>
      <trkpt lat="4.7273950" lon="-74.3423870">
        <ele>2580.7</ele>
        <time>2018-08-10T15:13:08Z</time>
      </trkpt>
      <trkpt lat="4.7274320" lon="-74.3423850">
        <ele>2580.7</ele>
        <time>2018-08-10T15:13:09Z</time>
      </trkpt>
      <trkpt lat="4.7274680" lon="-74.3423830">
        <ele>2580.7</ele>
        <time>2018-08-10T15:13:10Z</time>
      </trkpt>
      <trkpt lat="4.7275050" lon="-74.3423820">
        <ele>2580.7</ele>
        <time>2018-08-10T15:13:11Z</time>
      </trkpt>
      <trkpt lat="4.7275400" lon="-74.3423780">
        <ele>2580.8</ele>
        <time>2018-08-10T15:13:12Z</time>
      </trkpt>
      <trkpt lat="4.7275750" lon="-74.3423770">
        <ele>2580.8</ele>
        <time>2018-08-10T15:13:13Z</time>
      </trkpt>
      <trkpt lat="4.7276120" lon="-74.3423750">
        <ele>2580.8</ele>
        <time>2018-08-10T15:13:14Z</time>
      </trkpt>
      <trkpt lat="4.7276470" lon="-74.3423770">
        <ele>2580.8</ele>
        <time>2018-08-10T15:13:15Z</time>
      </trkpt>
      <trkpt lat="4.7276780" lon="-74.3423830">
        <ele>2580.8</ele>
        <time>2018-08-10T15:13:16Z</time>
      </trkpt>
      <trkpt lat="4.7277120" lon="-74.3423880">
        <ele>2580.8</ele>
        <time>2018-08-10T15:13:17Z</time>
      </trkpt>
      <trkpt lat="4.7277480" lon="-74.3423880">
        <ele>2580.8</ele>
        <time>2018-08-10T15:13:18Z</time>
      </trkpt>
      <trkpt lat="4.7277850" lon="-74.3423830">
        <ele>2580.8</ele>
        <time>2018-08-10T15:13:19Z</time>
      </trkpt>
      <trkpt lat="4.7278220" lon="-74.3423800">
        <ele>2580.8</ele>
        <time>2018-08-10T15:13:20Z</time>
      </trkpt>
      <trkpt lat="4.7278620" lon="-74.3423770">
        <ele>2580.8</ele>
        <time>2018-08-10T15:13:21Z</time>
      </trkpt>
      <trkpt lat="4.7279030" lon="-74.3423730">
        <ele>2580.8</ele>
        <time>2018-08-10T15:13:22Z</time>
      </trkpt>
      <trkpt lat="4.7279450" lon="-74.3423730">
        <ele>2580.8</ele>
        <time>2018-08-10T15:13:23Z</time>
      </trkpt>
      <trkpt lat="4.7279850" lon="-74.3423720">
        <ele>2580.8</ele>
        <time>2018-08-10T15:13:24Z</time>
      </trkpt>
      <trkpt lat="4.7280230" lon="-74.3423630">
        <ele>2580.8</ele>
        <time>2018-08-10T15:13:25Z</time>
      </trkpt>
      <trkpt lat="4.7280580" lon="-74.3423570">
        <ele>2580.8</ele>
        <time>2018-08-10T15:13:26Z</time>
      </trkpt>
      <trkpt lat="4.7280930" lon="-74.3423550">
        <ele>2580.8</ele>
        <time>2018-08-10T15:13:27Z</time>
      </trkpt>
      <trkpt lat="4.7281300" lon="-74.3423570">
        <ele>2580.8</ele>
        <time>2018-08-10T15:13:28Z</time>
      </trkpt>
      <trkpt lat="4.7281630" lon="-74.3423620">
        <ele>2580.8</ele>
        <time>2018-08-10T15:13:29Z</time>
      </trkpt>
      <trkpt lat="4.7281950" lon="-74.3423700">
        <ele>2580.8</ele>
        <time>2018-08-10T15:13:30Z</time>
      </trkpt>
      <trkpt lat="4.7282220" lon="-74.3423900">
        <ele>2580.8</ele>
        <time>2018-08-10T15:13:31Z</time>
      </trkpt>
      <trkpt lat="4.7282450" lon="-74.3424120">
        <ele>2580.9</ele>
        <time>2018-08-10T15:13:32Z</time>
      </trkpt>
      <trkpt lat="4.7282620" lon="-74.3424420">
        <ele>2580.9</ele>
        <time>2018-08-10T15:13:33Z</time>
      </trkpt>
      <trkpt lat="4.7282700" lon="-74.3424730">
        <ele>2580.9</ele>
        <time>2018-08-10T15:13:34Z</time>
      </trkpt>
      <trkpt lat="4.7282700" lon="-74.3425080">
        <ele>2580.9</ele>
        <time>2018-08-10T15:13:35Z</time>
      </trkpt>
      <trkpt lat="4.7282700" lon="-74.3425430">
        <ele>2580.5</ele>
        <time>2018-08-10T15:13:36Z</time>
      </trkpt>
      <trkpt lat="4.7282720" lon="-74.3425770">
        <ele>2580.1</ele>
        <time>2018-08-10T15:13:37Z</time>
      </trkpt>
      <trkpt lat="4.7282700" lon="-74.3426070">
        <ele>2579.8</ele>
        <time>2018-08-10T15:13:38Z</time>
      </trkpt>
      <trkpt lat="4.7282630" lon="-74.3426350">
        <ele>2579.9</ele>
        <time>2018-08-10T15:13:39Z</time>
      </trkpt>
      <trkpt lat="4.7282600" lon="-74.3426670">
        <ele>2579.7</ele>
        <time>2018-08-10T15:13:40Z</time>
      </trkpt>
      <trkpt lat="4.7282620" lon="-74.3427000">
        <ele>2579.6</ele>
        <time>2018-08-10T15:13:41Z</time>
      </trkpt>
      <trkpt lat="4.7282680" lon="-74.3427370">
        <ele>2579.7</ele>
        <time>2018-08-10T15:13:42Z</time>
      </trkpt>
      <trkpt lat="4.7282800" lon="-74.3427720">
        <ele>2579.7</ele>
        <time>2018-08-10T15:13:43Z</time>
      </trkpt>
      <trkpt lat="4.7283030" lon="-74.3427970">
        <ele>2579.8</ele>
        <time>2018-08-10T15:13:44Z</time>
      </trkpt>
      <trkpt lat="4.7283330" lon="-74.3428070">
        <ele>2579.8</ele>
        <time>2018-08-10T15:13:45Z</time>
      </trkpt>
      <trkpt lat="4.7283630" lon="-74.3428130">
        <ele>2579.7</ele>
        <time>2018-08-10T15:13:46Z</time>
      </trkpt>
      <trkpt lat="4.7283980" lon="-74.3428170">
        <ele>2579.8</ele>
        <time>2018-08-10T15:13:47Z</time>
      </trkpt>
      <trkpt lat="4.7284320" lon="-74.3428180">
        <ele>2579.9</ele>
        <time>2018-08-10T15:13:48Z</time>
      </trkpt>
      <trkpt lat="4.7284630" lon="-74.3428220">
        <ele>2580.2</ele>
        <time>2018-08-10T15:13:49Z</time>
      </trkpt>
      <trkpt lat="4.7285000" lon="-74.3428270">
        <ele>2580.1</ele>
        <time>2018-08-10T15:13:50Z</time>
      </trkpt>
      <trkpt lat="4.7285350" lon="-74.3428280">
        <ele>2580.1</ele>
        <time>2018-08-10T15:13:51Z</time>
      </trkpt>
      <trkpt lat="4.7285680" lon="-74.3428300">
        <ele>2580.1</ele>
        <time>2018-08-10T15:13:52Z</time>
      </trkpt>
      <trkpt lat="4.7285980" lon="-74.3428330">
        <ele>2580.1</ele>
        <time>2018-08-10T15:13:53Z</time>
      </trkpt>
      <trkpt lat="4.7286280" lon="-74.3428420">
        <ele>2580.0</ele>
        <time>2018-08-10T15:13:54Z</time>
      </trkpt>
      <trkpt lat="4.7286620" lon="-74.3428470">
        <ele>2580.0</ele>
        <time>2018-08-10T15:13:55Z</time>
      </trkpt>
      <trkpt lat="4.7286950" lon="-74.3428520">
        <ele>2580.0</ele>
        <time>2018-08-10T15:13:56Z</time>
      </trkpt>
      <trkpt lat="4.7287270" lon="-74.3428580">
        <ele>2580.1</ele>
        <time>2018-08-10T15:13:57Z</time>
      </trkpt>
      <trkpt lat="4.7287600" lon="-74.3428650">
        <ele>2580.2</ele>
        <time>2018-08-10T15:13:58Z</time>
      </trkpt>
      <trkpt lat="4.7287930" lon="-74.3428670">
        <ele>2580.3</ele>
        <time>2018-08-10T15:13:59Z</time>
      </trkpt>
      <trkpt lat="4.7288300" lon="-74.3428630">
        <ele>2580.5</ele>
        <time>2018-08-10T15:14:00Z</time>
      </trkpt>
      <trkpt lat="4.7288630" lon="-74.3428630">
        <ele>2580.6</ele>
        <time>2018-08-10T15:14:01Z</time>
      </trkpt>
      <trkpt lat="4.7288970" lon="-74.3428700">
        <ele>2580.8</ele>
        <time>2018-08-10T15:14:02Z</time>
      </trkpt>
      <trkpt lat="4.7289320" lon="-74.3428780">
        <ele>2580.9</ele>
        <time>2018-08-10T15:14:03Z</time>
      </trkpt>
      <trkpt lat="4.7289650" lon="-74.3428850">
        <ele>2581.1</ele>
        <time>2018-08-10T15:14:04Z</time>
      </trkpt>
      <trkpt lat="4.7289950" lon="-74.3428880">
        <ele>2581.2</ele>
        <time>2018-08-10T15:14:05Z</time>
      </trkpt>
      <trkpt lat="4.7290270" lon="-74.3428930">
        <ele>2581.4</ele>
        <time>2018-08-10T15:14:06Z</time>
      </trkpt>
      <trkpt lat="4.7290600" lon="-74.3428970">
        <ele>2581.5</ele>
        <time>2018-08-10T15:14:07Z</time>
      </trkpt>
      <trkpt lat="4.7290930" lon="-74.3429000">
        <ele>2581.7</ele>
        <time>2018-08-10T15:14:08Z</time>
      </trkpt>
      <trkpt lat="4.7291280" lon="-74.3429000">
        <ele>2581.9</ele>
        <time>2018-08-10T15:14:09Z</time>
      </trkpt>
      <trkpt lat="4.7291650" lon="-74.3429020">
        <ele>2582.1</ele>
        <time>2018-08-10T15:14:10Z</time>
      </trkpt>
      <trkpt lat="4.7292000" lon="-74.3429030">
        <ele>2582.2</ele>
        <time>2018-08-10T15:14:11Z</time>
      </trkpt>
      <trkpt lat="4.7292370" lon="-74.3429050">
        <ele>2582.4</ele>
        <time>2018-08-10T15:14:12Z</time>
      </trkpt>
      <trkpt lat="4.7292720" lon="-74.3429080">
        <ele>2582.5</ele>
        <time>2018-08-10T15:14:13Z</time>
      </trkpt>
      <trkpt lat="4.7293070" lon="-74.3429100">
        <ele>2582.6</ele>
        <time>2018-08-10T15:14:14Z</time>
      </trkpt>
      <trkpt lat="4.7293400" lon="-74.3429100">
        <ele>2582.7</ele>
        <time>2018-08-10T15:14:15Z</time>
      </trkpt>
      <trkpt lat="4.7293730" lon="-74.3429100">
        <ele>2582.8</ele>
        <time>2018-08-10T15:14:16Z</time>
      </trkpt>
      <trkpt lat="4.7294050" lon="-74.3429080">
        <ele>2582.9</ele>
        <time>2018-08-10T15:14:17Z</time>
      </trkpt>
      <trkpt lat="4.7294330" lon="-74.3429120">
        <ele>2583.0</ele>
        <time>2018-08-10T15:14:18Z</time>
      </trkpt>
      <trkpt lat="4.7294880" lon="-74.3429170">
        <ele>2583.2</ele>
        <time>2018-08-10T15:14:20Z</time>
      </trkpt>
      <trkpt lat="4.7295170" lon="-74.3429180">
        <ele>2583.3</ele>
        <time>2018-08-10T15:14:21Z</time>
      </trkpt>
      <trkpt lat="4.7295450" lon="-74.3429180">
        <ele>2583.4</ele>
        <time>2018-08-10T15:14:22Z</time>
      </trkpt>
      <trkpt lat="4.7295770" lon="-74.3429180">
        <ele>2583.5</ele>
        <time>2018-08-10T15:14:23Z</time>
      </trkpt>
      <trkpt lat="4.7296120" lon="-74.3429220">
        <ele>2583.6</ele>
        <time>2018-08-10T15:14:24Z</time>
      </trkpt>
      <trkpt lat="4.7296500" lon="-74.3429220">
        <ele>2583.7</ele>
        <time>2018-08-10T15:14:25Z</time>
      </trkpt>
      <trkpt lat="4.7296900" lon="-74.3429270">
        <ele>2583.9</ele>
        <time>2018-08-10T15:14:26Z</time>
      </trkpt>
      <trkpt lat="4.7297320" lon="-74.3429320">
        <ele>2584.0</ele>
        <time>2018-08-10T15:14:27Z</time>
      </trkpt>
      <trkpt lat="4.7297730" lon="-74.3429380">
        <ele>2583.8</ele>
        <time>2018-08-10T15:14:28Z</time>
      </trkpt>
      <trkpt lat="4.7298120" lon="-74.3429420">
        <ele>2583.6</ele>
        <time>2018-08-10T15:14:29Z</time>
      </trkpt>
      <trkpt lat="4.7298470" lon="-74.3429470">
        <ele>2583.4</ele>
        <time>2018-08-10T15:14:30Z</time>
      </trkpt>
      <trkpt lat="4.7298830" lon="-74.3429530">
        <ele>2583.3</ele>
        <time>2018-08-10T15:14:31Z</time>
      </trkpt>
      <trkpt lat="4.7299180" lon="-74.3429530">
        <ele>2583.1</ele>
        <time>2018-08-10T15:14:32Z</time>
      </trkpt>
      <trkpt lat="4.7299520" lon="-74.3429530">
        <ele>2582.9</ele>
        <time>2018-08-10T15:14:33Z</time>
      </trkpt>
      <trkpt lat="4.7299830" lon="-74.3429550">
        <ele>2582.8</ele>
        <time>2018-08-10T15:14:34Z</time>
      </trkpt>
      <trkpt lat="4.7300180" lon="-74.3429570">
        <ele>2582.6</ele>
        <time>2018-08-10T15:14:35Z</time>
      </trkpt>
      <trkpt lat="4.7300500" lon="-74.3429570">
        <ele>2582.5</ele>
        <time>2018-08-10T15:14:36Z</time>
      </trkpt>
      <trkpt lat="4.7300820" lon="-74.3429580">
        <ele>2582.3</ele>
        <time>2018-08-10T15:14:37Z</time>
      </trkpt>
      <trkpt lat="4.7301100" lon="-74.3429600">
        <ele>2582.2</ele>
        <time>2018-08-10T15:14:38Z</time>
      </trkpt>
      <trkpt lat="4.7301380" lon="-74.3429600">
        <ele>2582.1</ele>
        <time>2018-08-10T15:14:39Z</time>
      </trkpt>
      <trkpt lat="4.7301670" lon="-74.3429570">
        <ele>2582.0</ele>
        <time>2018-08-10T15:14:40Z</time>
      </trkpt>
      <trkpt lat="4.7302170" lon="-74.3429580">
        <ele>2581.8</ele>
        <time>2018-08-10T15:14:42Z</time>
      </trkpt>
      <trkpt lat="4.7302620" lon="-74.3429620">
        <ele>2581.7</ele>
        <time>2018-08-10T15:14:44Z</time>
      </trkpt>
      <trkpt lat="4.7303080" lon="-74.3429580">
        <ele>2581.6</ele>
        <time>2018-08-10T15:14:46Z</time>
      </trkpt>
      <trkpt lat="4.7303370" lon="-74.3429580">
        <ele>2581.5</ele>
        <time>2018-08-10T15:14:47Z</time>
      </trkpt>
      <trkpt lat="4.7303670" lon="-74.3429620">
        <ele>2581.5</ele>
        <time>2018-08-10T15:14:48Z</time>
      </trkpt>
      <trkpt lat="4.7303970" lon="-74.3429670">
        <ele>2581.4</ele>
        <time>2018-08-10T15:14:49Z</time>
      </trkpt>
      <trkpt lat="4.7304270" lon="-74.3429700">
        <ele>2581.3</ele>
        <time>2018-08-10T15:14:50Z</time>
      </trkpt>
      <trkpt lat="4.7304600" lon="-74.3429750">
        <ele>2581.3</ele>
        <time>2018-08-10T15:14:51Z</time>
      </trkpt>
      <trkpt lat="4.7304930" lon="-74.3429780">
        <ele>2581.2</ele>
        <time>2018-08-10T15:14:52Z</time>
      </trkpt>
      <trkpt lat="4.7305300" lon="-74.3429830">
        <ele>2581.1</ele>
        <time>2018-08-10T15:14:53Z</time>
      </trkpt>
      <trkpt lat="4.7305670" lon="-74.3429850">
        <ele>2581.1</ele>
        <time>2018-08-10T15:14:54Z</time>
      </trkpt>
      <trkpt lat="4.7306000" lon="-74.3429880">
        <ele>2581.0</ele>
        <time>2018-08-10T15:14:55Z</time>
      </trkpt>
      <trkpt lat="4.7306350" lon="-74.3429930">
        <ele>2580.9</ele>
        <time>2018-08-10T15:14:56Z</time>
      </trkpt>
      <trkpt lat="4.7306730" lon="-74.3430000">
        <ele>2580.9</ele>
        <time>2018-08-10T15:14:57Z</time>
      </trkpt>
      <trkpt lat="4.7307150" lon="-74.3430070">
        <ele>2580.8</ele>
        <time>2018-08-10T15:14:58Z</time>
      </trkpt>
      <trkpt lat="4.7307550" lon="-74.3430080">
        <ele>2580.7</ele>
        <time>2018-08-10T15:14:59Z</time>
      </trkpt>
      <trkpt lat="4.7307920" lon="-74.3430100">
        <ele>2580.6</ele>
        <time>2018-08-10T15:15:00Z</time>
      </trkpt>
      <trkpt lat="4.7308300" lon="-74.3430120">
        <ele>2580.6</ele>
        <time>2018-08-10T15:15:01Z</time>
      </trkpt>
      <trkpt lat="4.7308720" lon="-74.3430150">
        <ele>2580.5</ele>
        <time>2018-08-10T15:15:02Z</time>
      </trkpt>
      <trkpt lat="4.7309120" lon="-74.3430180">
        <ele>2580.4</ele>
        <time>2018-08-10T15:15:03Z</time>
      </trkpt>
      <trkpt lat="4.7309520" lon="-74.3430180">
        <ele>2580.4</ele>
        <time>2018-08-10T15:15:04Z</time>
      </trkpt>
      <trkpt lat="4.7309920" lon="-74.3430200">
        <ele>2580.3</ele>
        <time>2018-08-10T15:15:05Z</time>
      </trkpt>
      <trkpt lat="4.7310330" lon="-74.3430200">
        <ele>2580.2</ele>
        <time>2018-08-10T15:15:06Z</time>
      </trkpt>
      <trkpt lat="4.7310730" lon="-74.3430230">
        <ele>2580.1</ele>
        <time>2018-08-10T15:15:07Z</time>
      </trkpt>
      <trkpt lat="4.7311170" lon="-74.3430250">
        <ele>2580.1</ele>
        <time>2018-08-10T15:15:08Z</time>
      </trkpt>
      <trkpt lat="4.7311570" lon="-74.3430280">
        <ele>2580.0</ele>
        <time>2018-08-10T15:15:09Z</time>
      </trkpt>
      <trkpt lat="4.7311950" lon="-74.3430320">
        <ele>2579.9</ele>
        <time>2018-08-10T15:15:10Z</time>
      </trkpt>
      <trkpt lat="4.7312370" lon="-74.3430420">
        <ele>2579.8</ele>
        <time>2018-08-10T15:15:11Z</time>
      </trkpt>
      <trkpt lat="4.7312750" lon="-74.3430500">
        <ele>2579.8</ele>
        <time>2018-08-10T15:15:12Z</time>
      </trkpt>
      <trkpt lat="4.7313120" lon="-74.3430550">
        <ele>2579.7</ele>
        <time>2018-08-10T15:15:13Z</time>
      </trkpt>
      <trkpt lat="4.7313520" lon="-74.3430570">
        <ele>2579.6</ele>
        <time>2018-08-10T15:15:14Z</time>
      </trkpt>
      <trkpt lat="4.7313900" lon="-74.3430600">
        <ele>2579.5</ele>
        <time>2018-08-10T15:15:15Z</time>
      </trkpt>
      <trkpt lat="4.7314280" lon="-74.3430670">
        <ele>2579.4</ele>
        <time>2018-08-10T15:15:16Z</time>
      </trkpt>
      <trkpt lat="4.7314670" lon="-74.3430720">
        <ele>2579.4</ele>
        <time>2018-08-10T15:15:17Z</time>
      </trkpt>
      <trkpt lat="4.7315070" lon="-74.3430730">
        <ele>2579.3</ele>
        <time>2018-08-10T15:15:18Z</time>
      </trkpt>
      <trkpt lat="4.7315470" lon="-74.3430750">
        <ele>2579.2</ele>
        <time>2018-08-10T15:15:19Z</time>
      </trkpt>
      <trkpt lat="4.7315880" lon="-74.3430730">
        <ele>2579.1</ele>
        <time>2018-08-10T15:15:20Z</time>
      </trkpt>
      <trkpt lat="4.7316320" lon="-74.3430750">
        <ele>2579.0</ele>
        <time>2018-08-10T15:15:21Z</time>
      </trkpt>
      <trkpt lat="4.7316730" lon="-74.3430780">
        <ele>2579.0</ele>
        <time>2018-08-10T15:15:22Z</time>
      </trkpt>
      <trkpt lat="4.7317130" lon="-74.3430800">
        <ele>2579.0</ele>
        <time>2018-08-10T15:15:23Z</time>
      </trkpt>
      <trkpt lat="4.7317530" lon="-74.3430850">
        <ele>2579.1</ele>
        <time>2018-08-10T15:15:24Z</time>
      </trkpt>
      <trkpt lat="4.7317950" lon="-74.3430880">
        <ele>2579.1</ele>
        <time>2018-08-10T15:15:25Z</time>
      </trkpt>
      <trkpt lat="4.7318330" lon="-74.3430930">
        <ele>2579.1</ele>
        <time>2018-08-10T15:15:26Z</time>
      </trkpt>
      <trkpt lat="4.7318730" lon="-74.3431020">
        <ele>2579.1</ele>
        <time>2018-08-10T15:15:27Z</time>
      </trkpt>
      <trkpt lat="4.7319130" lon="-74.3431100">
        <ele>2579.1</ele>
        <time>2018-08-10T15:15:28Z</time>
      </trkpt>
      <trkpt lat="4.7319500" lon="-74.3431180">
        <ele>2579.2</ele>
        <time>2018-08-10T15:15:29Z</time>
      </trkpt>
      <trkpt lat="4.7319870" lon="-74.3431250">
        <ele>2579.2</ele>
        <time>2018-08-10T15:15:30Z</time>
      </trkpt>
      <trkpt lat="4.7320230" lon="-74.3431320">
        <ele>2579.2</ele>
        <time>2018-08-10T15:15:31Z</time>
      </trkpt>
      <trkpt lat="4.7320600" lon="-74.3431370">
        <ele>2579.2</ele>
        <time>2018-08-10T15:15:32Z</time>
      </trkpt>
      <trkpt lat="4.7321280" lon="-74.3431450">
        <ele>2579.2</ele>
        <time>2018-08-10T15:15:34Z</time>
      </trkpt>
      <trkpt lat="4.7321620" lon="-74.3431530">
        <ele>2579.2</ele>
        <time>2018-08-10T15:15:35Z</time>
      </trkpt>
      <trkpt lat="4.7322020" lon="-74.3431620">
        <ele>2579.2</ele>
        <time>2018-08-10T15:15:36Z</time>
      </trkpt>
      <trkpt lat="4.7322470" lon="-74.3431770">
        <ele>2579.2</ele>
        <time>2018-08-10T15:15:37Z</time>
      </trkpt>
      <trkpt lat="4.7322830" lon="-74.3431850">
        <ele>2579.2</ele>
        <time>2018-08-10T15:15:38Z</time>
      </trkpt>
      <trkpt lat="4.7323180" lon="-74.3431900">
        <ele>2579.2</ele>
        <time>2018-08-10T15:15:39Z</time>
      </trkpt>
      <trkpt lat="4.7323500" lon="-74.3431970">
        <ele>2579.2</ele>
        <time>2018-08-10T15:15:40Z</time>
      </trkpt>
      <trkpt lat="4.7323820" lon="-74.3431980">
        <ele>2579.1</ele>
        <time>2018-08-10T15:15:41Z</time>
      </trkpt>
      <trkpt lat="4.7324150" lon="-74.3432050">
        <ele>2579.1</ele>
        <time>2018-08-10T15:15:42Z</time>
      </trkpt>
      <trkpt lat="4.7324470" lon="-74.3432070">
        <ele>2579.1</ele>
        <time>2018-08-10T15:15:43Z</time>
      </trkpt>
      <trkpt lat="4.7324770" lon="-74.3432080">
        <ele>2579.1</ele>
        <time>2018-08-10T15:15:44Z</time>
      </trkpt>
      <trkpt lat="4.7325120" lon="-74.3432120">
        <ele>2579.0</ele>
        <time>2018-08-10T15:15:45Z</time>
      </trkpt>
      <trkpt lat="4.7325420" lon="-74.3432080">
        <ele>2579.0</ele>
        <time>2018-08-10T15:15:46Z</time>
      </trkpt>
      <trkpt lat="4.7325770" lon="-74.3432130">
        <ele>2579.0</ele>
        <time>2018-08-10T15:15:47Z</time>
      </trkpt>
      <trkpt lat="4.7326130" lon="-74.3432220">
        <ele>2579.1</ele>
        <time>2018-08-10T15:15:48Z</time>
      </trkpt>
      <trkpt lat="4.7326480" lon="-74.3432250">
        <ele>2579.2</ele>
        <time>2018-08-10T15:15:49Z</time>
      </trkpt>
      <trkpt lat="4.7327050" lon="-74.3432230">
        <ele>2579.3</ele>
        <time>2018-08-10T15:15:51Z</time>
      </trkpt>
      <trkpt lat="4.7327570" lon="-74.3432220">
        <ele>2579.4</ele>
        <time>2018-08-10T15:15:53Z</time>
      </trkpt>
      <trkpt lat="4.7327970" lon="-74.3432250">
        <ele>2579.5</ele>
        <time>2018-08-10T15:15:55Z</time>
      </trkpt>
      <trkpt lat="4.7328350" lon="-74.3432250">
        <ele>2579.6</ele>
        <time>2018-08-10T15:15:59Z</time>
      </trkpt>
      <trkpt lat="4.7329130" lon="-74.3432950">
        <ele>2579.4</ele>
        <time>2018-08-10T15:20:29Z</time>
      </trkpt>
      <trkpt lat="4.7329250" lon="-74.3432530">
        <ele>2579.7</ele>
        <time>2018-08-10T15:20:31Z</time>
      </trkpt>
      <trkpt lat="4.7329520" lon="-74.3432380">
        <ele>2579.8</ele>
        <time>2018-08-10T15:20:35Z</time>
      </trkpt>
      <trkpt lat="4.7329880" lon="-74.3432380">
        <ele>2579.9</ele>
        <time>2018-08-10T15:20:37Z</time>
      </trkpt>
      <trkpt lat="4.7330270" lon="-74.3432430">
        <ele>2579.9</ele>
        <time>2018-08-10T15:20:39Z</time>
      </trkpt>
      <trkpt lat="4.7330800" lon="-74.3432530">
        <ele>2580.0</ele>
        <time>2018-08-10T15:20:41Z</time>
      </trkpt>
      <trkpt lat="4.7331070" lon="-74.3432650">
        <ele>2580.1</ele>
        <time>2018-08-10T15:20:42Z</time>
      </trkpt>
      <trkpt lat="4.7331580" lon="-74.3432770">
        <ele>2580.3</ele>
        <time>2018-08-10T15:20:44Z</time>
      </trkpt>
      <trkpt lat="4.7332070" lon="-74.3432820">
        <ele>2580.4</ele>
        <time>2018-08-10T15:20:46Z</time>
      </trkpt>
      <trkpt lat="4.7332330" lon="-74.3432870">
        <ele>2580.5</ele>
        <time>2018-08-10T15:20:47Z</time>
      </trkpt>
      <trkpt lat="4.7332830" lon="-74.3433000">
        <ele>2580.6</ele>
        <time>2018-08-10T15:20:49Z</time>
      </trkpt>
      <trkpt lat="4.7333120" lon="-74.3433080">
        <ele>2580.7</ele>
        <time>2018-08-10T15:20:50Z</time>
      </trkpt>
      <trkpt lat="4.7333400" lon="-74.3433120">
        <ele>2580.8</ele>
        <time>2018-08-10T15:20:51Z</time>
      </trkpt>
      <trkpt lat="4.7333680" lon="-74.3433130">
        <ele>2580.8</ele>
        <time>2018-08-10T15:20:52Z</time>
      </trkpt>
      <trkpt lat="4.7334180" lon="-74.3433050">
        <ele>2580.9</ele>
        <time>2018-08-10T15:20:54Z</time>
      </trkpt>
      <trkpt lat="4.7334600" lon="-74.3432680">
        <ele>2581.0</ele>
        <time>2018-08-10T15:20:56Z</time>
      </trkpt>
      <trkpt lat="4.7334670" lon="-74.3432420">
        <ele>2581.0</ele>
        <time>2018-08-10T15:20:57Z</time>
      </trkpt>
      <trkpt lat="4.7334730" lon="-74.3432070">
        <ele>2581.0</ele>
        <time>2018-08-10T15:20:58Z</time>
      </trkpt>
      <trkpt lat="4.7334770" lon="-74.3431700">
        <ele>2581.0</ele>
        <time>2018-08-10T15:20:59Z</time>
      </trkpt>
      <trkpt lat="4.7334820" lon="-74.3431380">
        <ele>2581.0</ele>
        <time>2018-08-10T15:21:00Z</time>
      </trkpt>
      <trkpt lat="4.7334870" lon="-74.3431120">
        <ele>2581.0</ele>
        <time>2018-08-10T15:21:01Z</time>
      </trkpt>
      <trkpt lat="4.7334930" lon="-74.3430800">
        <ele>2581.0</ele>
        <time>2018-08-10T15:21:02Z</time>
      </trkpt>
      <trkpt lat="4.7335080" lon="-74.3430500">
        <ele>2581.0</ele>
        <time>2018-08-10T15:21:03Z</time>
      </trkpt>
      <trkpt lat="4.7335320" lon="-74.3430270">
        <ele>2580.6</ele>
        <time>2018-08-10T15:21:04Z</time>
      </trkpt>
      <trkpt lat="4.7335600" lon="-74.3430070">
        <ele>2580.3</ele>
        <time>2018-08-10T15:21:05Z</time>
      </trkpt>
      <trkpt lat="4.7335930" lon="-74.3429970">
        <ele>2580.0</ele>
        <time>2018-08-10T15:21:06Z</time>
      </trkpt>
      <trkpt lat="4.7336330" lon="-74.3429950">
        <ele>2579.6</ele>
        <time>2018-08-10T15:21:07Z</time>
      </trkpt>
      <trkpt lat="4.7336750" lon="-74.3430000">
        <ele>2579.5</ele>
        <time>2018-08-10T15:21:08Z</time>
      </trkpt>
      <trkpt lat="4.7337200" lon="-74.3430030">
        <ele>2579.4</ele>
        <time>2018-08-10T15:21:09Z</time>
      </trkpt>
      <trkpt lat="4.7337650" lon="-74.3430070">
        <ele>2579.3</ele>
        <time>2018-08-10T15:21:10Z</time>
      </trkpt>
      <trkpt lat="4.7338080" lon="-74.3430080">
        <ele>2579.3</ele>
        <time>2018-08-10T15:21:11Z</time>
      </trkpt>
      <trkpt lat="4.7338530" lon="-74.3430130">
        <ele>2579.3</ele>
        <time>2018-08-10T15:21:12Z</time>
      </trkpt>
      <trkpt lat="4.7339000" lon="-74.3430200">
        <ele>2579.3</ele>
        <time>2018-08-10T15:21:13Z</time>
      </trkpt>
      <trkpt lat="4.7339450" lon="-74.3430230">
        <ele>2579.1</ele>
        <time>2018-08-10T15:21:14Z</time>
      </trkpt>
      <trkpt lat="4.7339920" lon="-74.3430280">
        <ele>2578.9</ele>
        <time>2018-08-10T15:21:15Z</time>
      </trkpt>
      <trkpt lat="4.7340350" lon="-74.3430330">
        <ele>2578.8</ele>
        <time>2018-08-10T15:21:16Z</time>
      </trkpt>
      <trkpt lat="4.7340780" lon="-74.3430380">
        <ele>2578.6</ele>
        <time>2018-08-10T15:21:17Z</time>
      </trkpt>
      <trkpt lat="4.7341220" lon="-74.3430420">
        <ele>2578.5</ele>
        <time>2018-08-10T15:21:18Z</time>
      </trkpt>
      <trkpt lat="4.7341600" lon="-74.3430430">
        <ele>2578.4</ele>
        <time>2018-08-10T15:21:19Z</time>
      </trkpt>
      <trkpt lat="4.7341980" lon="-74.3430450">
        <ele>2578.3</ele>
        <time>2018-08-10T15:21:20Z</time>
      </trkpt>
      <trkpt lat="4.7342380" lon="-74.3430480">
        <ele>2578.3</ele>
        <time>2018-08-10T15:21:21Z</time>
      </trkpt>
      <trkpt lat="4.7342820" lon="-74.3430550">
        <ele>2578.3</ele>
        <time>2018-08-10T15:21:22Z</time>
      </trkpt>
      <trkpt lat="4.7343220" lon="-74.3430630">
        <ele>2578.2</ele>
        <time>2018-08-10T15:21:23Z</time>
      </trkpt>
      <trkpt lat="4.7343600" lon="-74.3430720">
        <ele>2578.2</ele>
        <time>2018-08-10T15:21:24Z</time>
      </trkpt>
      <trkpt lat="4.7343970" lon="-74.3430780">
        <ele>2578.3</ele>
        <time>2018-08-10T15:21:25Z</time>
      </trkpt>
      <trkpt lat="4.7344300" lon="-74.3430880">
        <ele>2578.3</ele>
        <time>2018-08-10T15:21:26Z</time>
      </trkpt>
      <trkpt lat="4.7344650" lon="-74.3430970">
        <ele>2578.3</ele>
        <time>2018-08-10T15:21:27Z</time>
      </trkpt>
      <trkpt lat="4.7345030" lon="-74.3431070">
        <ele>2578.4</ele>
        <time>2018-08-10T15:21:28Z</time>
      </trkpt>
      <trkpt lat="4.7345430" lon="-74.3431180">
        <ele>2578.4</ele>
        <time>2018-08-10T15:21:29Z</time>
      </trkpt>
      <trkpt lat="4.7345820" lon="-74.3431300">
        <ele>2578.4</ele>
        <time>2018-08-10T15:21:30Z</time>
      </trkpt>
      <trkpt lat="4.7346220" lon="-74.3431430">
        <ele>2578.4</ele>
        <time>2018-08-10T15:21:31Z</time>
      </trkpt>
      <trkpt lat="4.7346630" lon="-74.3431600">
        <ele>2578.5</ele>
        <time>2018-08-10T15:21:32Z</time>
      </trkpt>
      <trkpt lat="4.7347070" lon="-74.3431820">
        <ele>2578.6</ele>
        <time>2018-08-10T15:21:33Z</time>
      </trkpt>
      <trkpt lat="4.7347470" lon="-74.3432080">
        <ele>2578.7</ele>
        <time>2018-08-10T15:21:34Z</time>
      </trkpt>
      <trkpt lat="4.7347880" lon="-74.3432320">
        <ele>2578.9</ele>
        <time>2018-08-10T15:21:35Z</time>
      </trkpt>
      <trkpt lat="4.7348280" lon="-74.3432550">
        <ele>2579.0</ele>
        <time>2018-08-10T15:21:36Z</time>
      </trkpt>
      <trkpt lat="4.7348670" lon="-74.3432800">
        <ele>2579.2</ele>
        <time>2018-08-10T15:21:37Z</time>
      </trkpt>
      <trkpt lat="4.7349030" lon="-74.3433080">
        <ele>2579.3</ele>
        <time>2018-08-10T15:21:38Z</time>
      </trkpt>
      <trkpt lat="4.7349430" lon="-74.3433420">
        <ele>2579.6</ele>
        <time>2018-08-10T15:21:39Z</time>
      </trkpt>
      <trkpt lat="4.7349850" lon="-74.3433720">
        <ele>2579.7</ele>
        <time>2018-08-10T15:21:40Z</time>
      </trkpt>
      <trkpt lat="4.7350220" lon="-74.3433970">
        <ele>2579.8</ele>
        <time>2018-08-10T15:21:41Z</time>
      </trkpt>
      <trkpt lat="4.7350600" lon="-74.3434220">
        <ele>2579.7</ele>
        <time>2018-08-10T15:21:42Z</time>
      </trkpt>
      <trkpt lat="4.7350970" lon="-74.3434500">
        <ele>2579.5</ele>
        <time>2018-08-10T15:21:43Z</time>
      </trkpt>
      <trkpt lat="4.7351330" lon="-74.3434780">
        <ele>2579.5</ele>
        <time>2018-08-10T15:21:44Z</time>
      </trkpt>
      <trkpt lat="4.7351730" lon="-74.3435000">
        <ele>2579.5</ele>
        <time>2018-08-10T15:21:45Z</time>
      </trkpt>
      <trkpt lat="4.7352120" lon="-74.3435220">
        <ele>2579.5</ele>
        <time>2018-08-10T15:21:46Z</time>
      </trkpt>
      <trkpt lat="4.7352520" lon="-74.3435520">
        <ele>2579.5</ele>
        <time>2018-08-10T15:21:47Z</time>
      </trkpt>
      <trkpt lat="4.7352900" lon="-74.3435830">
        <ele>2579.6</ele>
        <time>2018-08-10T15:21:48Z</time>
      </trkpt>
      <trkpt lat="4.7353270" lon="-74.3436180">
        <ele>2579.6</ele>
        <time>2018-08-10T15:21:49Z</time>
      </trkpt>
      <trkpt lat="4.7353630" lon="-74.3436530">
        <ele>2579.5</ele>
        <time>2018-08-10T15:21:50Z</time>
      </trkpt>
      <trkpt lat="4.7353970" lon="-74.3436880">
        <ele>2579.6</ele>
        <time>2018-08-10T15:21:51Z</time>
      </trkpt>
      <trkpt lat="4.7354350" lon="-74.3437200">
        <ele>2579.6</ele>
        <time>2018-08-10T15:21:52Z</time>
      </trkpt>
      <trkpt lat="4.7354730" lon="-74.3437530">
        <ele>2579.6</ele>
        <time>2018-08-10T15:21:53Z</time>
      </trkpt>
      <trkpt lat="4.7355150" lon="-74.3437870">
        <ele>2579.6</ele>
        <time>2018-08-10T15:21:54Z</time>
      </trkpt>
      <trkpt lat="4.7355570" lon="-74.3438180">
        <ele>2579.7</ele>
        <time>2018-08-10T15:21:55Z</time>
      </trkpt>
      <trkpt lat="4.7355980" lon="-74.3438530">
        <ele>2579.7</ele>
        <time>2018-08-10T15:21:56Z</time>
      </trkpt>
      <trkpt lat="4.7356370" lon="-74.3438880">
        <ele>2579.7</ele>
        <time>2018-08-10T15:21:57Z</time>
      </trkpt>
      <trkpt lat="4.7356750" lon="-74.3439250">
        <ele>2579.8</ele>
        <time>2018-08-10T15:21:58Z</time>
      </trkpt>
      <trkpt lat="4.7357150" lon="-74.3439570">
        <ele>2579.9</ele>
        <time>2018-08-10T15:21:59Z</time>
      </trkpt>
      <trkpt lat="4.7357500" lon="-74.3439870">
        <ele>2580.1</ele>
        <time>2018-08-10T15:22:00Z</time>
      </trkpt>
      <trkpt lat="4.7357850" lon="-74.3440180">
        <ele>2580.4</ele>
        <time>2018-08-10T15:22:01Z</time>
      </trkpt>
      <trkpt lat="4.7358180" lon="-74.3440530">
        <ele>2580.8</ele>
        <time>2018-08-10T15:22:02Z</time>
      </trkpt>
      <trkpt lat="4.7358550" lon="-74.3440900">
        <ele>2580.9</ele>
        <time>2018-08-10T15:22:03Z</time>
      </trkpt>
      <trkpt lat="4.7358880" lon="-74.3441220">
        <ele>2581.0</ele>
        <time>2018-08-10T15:22:04Z</time>
      </trkpt>
      <trkpt lat="4.7359230" lon="-74.3441720">
        <ele>2581.0</ele>
        <time>2018-08-10T15:22:05Z</time>
      </trkpt>
      <trkpt lat="4.7359550" lon="-74.3442000">
        <ele>2581.0</ele>
        <time>2018-08-10T15:22:06Z</time>
      </trkpt>
      <trkpt lat="4.7359920" lon="-74.3442250">
        <ele>2581.0</ele>
        <time>2018-08-10T15:22:07Z</time>
      </trkpt>
      <trkpt lat="4.7360280" lon="-74.3442470">
        <ele>2581.0</ele>
        <time>2018-08-10T15:22:08Z</time>
      </trkpt>
      <trkpt lat="4.7360630" lon="-74.3442730">
        <ele>2581.0</ele>
        <time>2018-08-10T15:22:09Z</time>
      </trkpt>
      <trkpt lat="4.7360950" lon="-74.3443030">
        <ele>2581.0</ele>
        <time>2018-08-10T15:22:10Z</time>
      </trkpt>
      <trkpt lat="4.7361270" lon="-74.3443280">
        <ele>2581.0</ele>
        <time>2018-08-10T15:22:11Z</time>
      </trkpt>
      <trkpt lat="4.7361600" lon="-74.3443550">
        <ele>2581.0</ele>
        <time>2018-08-10T15:22:12Z</time>
      </trkpt>
      <trkpt lat="4.7361930" lon="-74.3443850">
        <ele>2581.0</ele>
        <time>2018-08-10T15:22:13Z</time>
      </trkpt>
      <trkpt lat="4.7362250" lon="-74.3444080">
        <ele>2581.0</ele>
        <time>2018-08-10T15:22:14Z</time>
      </trkpt>
      <trkpt lat="4.7362600" lon="-74.3444270">
        <ele>2581.0</ele>
        <time>2018-08-10T15:22:15Z</time>
      </trkpt>
      <trkpt lat="4.7362950" lon="-74.3444520">
        <ele>2581.0</ele>
        <time>2018-08-10T15:22:16Z</time>
      </trkpt>
      <trkpt lat="4.7363280" lon="-74.3444820">
        <ele>2581.0</ele>
        <time>2018-08-10T15:22:17Z</time>
      </trkpt>
      <trkpt lat="4.7363620" lon="-74.3445100">
        <ele>2581.0</ele>
        <time>2018-08-10T15:22:18Z</time>
      </trkpt>
      <trkpt lat="4.7363970" lon="-74.3445370">
        <ele>2581.0</ele>
        <time>2018-08-10T15:22:19Z</time>
      </trkpt>
      <trkpt lat="4.7364330" lon="-74.3445670">
        <ele>2581.0</ele>
        <time>2018-08-10T15:22:20Z</time>
      </trkpt>
      <trkpt lat="4.7364730" lon="-74.3445900">
        <ele>2581.0</ele>
        <time>2018-08-10T15:22:21Z</time>
      </trkpt>
      <trkpt lat="4.7365130" lon="-74.3446130">
        <ele>2580.9</ele>
        <time>2018-08-10T15:22:22Z</time>
      </trkpt>
      <trkpt lat="4.7365500" lon="-74.3446350">
        <ele>2580.9</ele>
        <time>2018-08-10T15:22:23Z</time>
      </trkpt>
      <trkpt lat="4.7365900" lon="-74.3446630">
        <ele>2580.9</ele>
        <time>2018-08-10T15:22:24Z</time>
      </trkpt>
      <trkpt lat="4.7366280" lon="-74.3446870">
        <ele>2580.9</ele>
        <time>2018-08-10T15:22:25Z</time>
      </trkpt>
      <trkpt lat="4.7366670" lon="-74.3447100">
        <ele>2580.8</ele>
        <time>2018-08-10T15:22:26Z</time>
      </trkpt>
      <trkpt lat="4.7367050" lon="-74.3447380">
        <ele>2580.8</ele>
        <time>2018-08-10T15:22:27Z</time>
      </trkpt>
      <trkpt lat="4.7367450" lon="-74.3447700">
        <ele>2580.7</ele>
        <time>2018-08-10T15:22:28Z</time>
      </trkpt>
      <trkpt lat="4.7367830" lon="-74.3447980">
        <ele>2580.7</ele>
        <time>2018-08-10T15:22:29Z</time>
      </trkpt>
      <trkpt lat="4.7368180" lon="-74.3448320">
        <ele>2580.6</ele>
        <time>2018-08-10T15:22:30Z</time>
      </trkpt>
      <trkpt lat="4.7368570" lon="-74.3448600">
        <ele>2580.6</ele>
        <time>2018-08-10T15:22:31Z</time>
      </trkpt>
      <trkpt lat="4.7368970" lon="-74.3448870">
        <ele>2580.5</ele>
        <time>2018-08-10T15:22:32Z</time>
      </trkpt>
      <trkpt lat="4.7369350" lon="-74.3449170">
        <ele>2580.5</ele>
        <time>2018-08-10T15:22:33Z</time>
      </trkpt>
      <trkpt lat="4.7369700" lon="-74.3449500">
        <ele>2580.4</ele>
        <time>2018-08-10T15:22:34Z</time>
      </trkpt>
      <trkpt lat="4.7370020" lon="-74.3449820">
        <ele>2580.4</ele>
        <time>2018-08-10T15:22:35Z</time>
      </trkpt>
      <trkpt lat="4.7370350" lon="-74.3450150">
        <ele>2580.4</ele>
        <time>2018-08-10T15:22:36Z</time>
      </trkpt>
      <trkpt lat="4.7370680" lon="-74.3450550">
        <ele>2580.3</ele>
        <time>2018-08-10T15:22:37Z</time>
      </trkpt>
      <trkpt lat="4.7370970" lon="-74.3450930">
        <ele>2580.3</ele>
        <time>2018-08-10T15:22:38Z</time>
      </trkpt>
      <trkpt lat="4.7371270" lon="-74.3451300">
        <ele>2580.2</ele>
        <time>2018-08-10T15:22:39Z</time>
      </trkpt>
      <trkpt lat="4.7371550" lon="-74.3451680">
        <ele>2580.2</ele>
        <time>2018-08-10T15:22:40Z</time>
      </trkpt>
      <trkpt lat="4.7371880" lon="-74.3452030">
        <ele>2580.1</ele>
        <time>2018-08-10T15:22:41Z</time>
      </trkpt>
      <trkpt lat="4.7372250" lon="-74.3452370">
        <ele>2580.0</ele>
        <time>2018-08-10T15:22:42Z</time>
      </trkpt>
      <trkpt lat="4.7372620" lon="-74.3452630">
        <ele>2579.9</ele>
        <time>2018-08-10T15:22:43Z</time>
      </trkpt>
      <trkpt lat="4.7373030" lon="-74.3452820">
        <ele>2579.9</ele>
        <time>2018-08-10T15:22:44Z</time>
      </trkpt>
      <trkpt lat="4.7373500" lon="-74.3452870">
        <ele>2579.8</ele>
        <time>2018-08-10T15:22:45Z</time>
      </trkpt>
      <trkpt lat="4.7373920" lon="-74.3452800">
        <ele>2579.7</ele>
        <time>2018-08-10T15:22:46Z</time>
      </trkpt>
      <trkpt lat="4.7374300" lon="-74.3452570">
        <ele>2579.5</ele>
        <time>2018-08-10T15:22:47Z</time>
      </trkpt>
      <trkpt lat="4.7374670" lon="-74.3452300">
        <ele>2579.5</ele>
        <time>2018-08-10T15:22:48Z</time>
      </trkpt>
      <trkpt lat="4.7374980" lon="-74.3452050">
        <ele>2579.4</ele>
        <time>2018-08-10T15:22:49Z</time>
      </trkpt>
      <trkpt lat="4.7375300" lon="-74.3451780">
        <ele>2579.3</ele>
        <time>2018-08-10T15:22:50Z</time>
      </trkpt>
      <trkpt lat="4.7375580" lon="-74.3451520">
        <ele>2579.3</ele>
        <time>2018-08-10T15:22:51Z</time>
      </trkpt>
      <trkpt lat="4.7375850" lon="-74.3451270">
        <ele>2579.2</ele>
        <time>2018-08-10T15:22:52Z</time>
      </trkpt>
      <trkpt lat="4.7376080" lon="-74.3450980">
        <ele>2579.2</ele>
        <time>2018-08-10T15:22:53Z</time>
      </trkpt>
      <trkpt lat="4.7376320" lon="-74.3450700">
        <ele>2579.2</ele>
        <time>2018-08-10T15:22:54Z</time>
      </trkpt>
      <trkpt lat="4.7376580" lon="-74.3450500">
        <ele>2579.1</ele>
        <time>2018-08-10T15:22:55Z</time>
      </trkpt>
      <trkpt lat="4.7376800" lon="-74.3450320">
        <ele>2579.1</ele>
        <time>2018-08-10T15:22:56Z</time>
      </trkpt>
      <trkpt lat="4.7377030" lon="-74.3450170">
        <ele>2579.1</ele>
        <time>2018-08-10T15:22:57Z</time>
      </trkpt>
      <trkpt lat="4.7377450" lon="-74.3449970">
        <ele>2579.0</ele>
        <time>2018-08-10T15:22:59Z</time>
      </trkpt>
      <trkpt lat="4.7377730" lon="-74.3449980">
        <ele>2579.0</ele>
        <time>2018-08-10T15:23:00Z</time>
      </trkpt>
      <trkpt lat="4.7378050" lon="-74.3450100">
        <ele>2578.9</ele>
        <time>2018-08-10T15:23:01Z</time>
      </trkpt>
      <trkpt lat="4.7378350" lon="-74.3450270">
        <ele>2578.8</ele>
        <time>2018-08-10T15:23:02Z</time>
      </trkpt>
      <trkpt lat="4.7378650" lon="-74.3450480">
        <ele>2578.7</ele>
        <time>2018-08-10T15:23:03Z</time>
      </trkpt>
      <trkpt lat="4.7378970" lon="-74.3450770">
        <ele>2578.5</ele>
        <time>2018-08-10T15:23:04Z</time>
      </trkpt>
      <trkpt lat="4.7379350" lon="-74.3451130">
        <ele>2578.5</ele>
        <time>2018-08-10T15:23:05Z</time>
      </trkpt>
      <trkpt lat="4.7379670" lon="-74.3451420">
        <ele>2578.6</ele>
        <time>2018-08-10T15:23:06Z</time>
      </trkpt>
      <trkpt lat="4.7379970" lon="-74.3451780">
        <ele>2578.4</ele>
        <time>2018-08-10T15:23:07Z</time>
      </trkpt>
      <trkpt lat="4.7380250" lon="-74.3452100">
        <ele>2578.3</ele>
        <time>2018-08-10T15:23:08Z</time>
      </trkpt>
      <trkpt lat="4.7380550" lon="-74.3452380">
        <ele>2578.4</ele>
        <time>2018-08-10T15:23:09Z</time>
      </trkpt>
      <trkpt lat="4.7380850" lon="-74.3452700">
        <ele>2578.4</ele>
        <time>2018-08-10T15:23:10Z</time>
      </trkpt>
      <trkpt lat="4.7381130" lon="-74.3453020">
        <ele>2578.6</ele>
        <time>2018-08-10T15:23:11Z</time>
      </trkpt>
      <trkpt lat="4.7381470" lon="-74.3453350">
        <ele>2578.8</ele>
        <time>2018-08-10T15:23:12Z</time>
      </trkpt>
      <trkpt lat="4.7381830" lon="-74.3453700">
        <ele>2579.0</ele>
        <time>2018-08-10T15:23:13Z</time>
      </trkpt>
      <trkpt lat="4.7382230" lon="-74.3454050">
        <ele>2579.1</ele>
        <time>2018-08-10T15:23:14Z</time>
      </trkpt>
      <trkpt lat="4.7382630" lon="-74.3454400">
        <ele>2579.2</ele>
        <time>2018-08-10T15:23:15Z</time>
      </trkpt>
      <trkpt lat="4.7383070" lon="-74.3454730">
        <ele>2579.4</ele>
        <time>2018-08-10T15:23:16Z</time>
      </trkpt>
      <trkpt lat="4.7383570" lon="-74.3454980">
        <ele>2579.7</ele>
        <time>2018-08-10T15:23:17Z</time>
      </trkpt>
      <trkpt lat="4.7384120" lon="-74.3455180">
        <ele>2580.5</ele>
        <time>2018-08-10T15:23:18Z</time>
      </trkpt>
      <trkpt lat="4.7384700" lon="-74.3455330">
        <ele>2580.9</ele>
        <time>2018-08-10T15:23:19Z</time>
      </trkpt>
      <trkpt lat="4.7385330" lon="-74.3455500">
        <ele>2581.6</ele>
        <time>2018-08-10T15:23:20Z</time>
      </trkpt>
      <trkpt lat="4.7386000" lon="-74.3455650">
        <ele>2582.5</ele>
        <time>2018-08-10T15:23:21Z</time>
      </trkpt>
      <trkpt lat="4.7386650" lon="-74.3455800">
        <ele>2583.2</ele>
        <time>2018-08-10T15:23:22Z</time>
      </trkpt>
      <trkpt lat="4.7387300" lon="-74.3455920">
        <ele>2582.9</ele>
        <time>2018-08-10T15:23:23Z</time>
      </trkpt>
      <trkpt lat="4.7387920" lon="-74.3455930">
        <ele>2582.5</ele>
        <time>2018-08-10T15:23:24Z</time>
      </trkpt>
      <trkpt lat="4.7388570" lon="-74.3456030">
        <ele>2582.1</ele>
        <time>2018-08-10T15:23:25Z</time>
      </trkpt>
      <trkpt lat="4.7389200" lon="-74.3456100">
        <ele>2582.0</ele>
        <time>2018-08-10T15:23:26Z</time>
      </trkpt>
      <trkpt lat="4.7389820" lon="-74.3456220">
        <ele>2581.3</ele>
        <time>2018-08-10T15:23:27Z</time>
      </trkpt>
      <trkpt lat="4.7390430" lon="-74.3456320">
        <ele>2580.5</ele>
        <time>2018-08-10T15:23:28Z</time>
      </trkpt>
      <trkpt lat="4.7391070" lon="-74.3456470">
        <ele>2579.6</ele>
        <time>2018-08-10T15:23:29Z</time>
      </trkpt>
      <trkpt lat="4.7391680" lon="-74.3456570">
        <ele>2578.8</ele>
        <time>2018-08-10T15:23:30Z</time>
      </trkpt>
      <trkpt lat="4.7392320" lon="-74.3456680">
        <ele>2578.5</ele>
        <time>2018-08-10T15:23:31Z</time>
      </trkpt>
      <trkpt lat="4.7392930" lon="-74.3456780">
        <ele>2578.4</ele>
        <time>2018-08-10T15:23:32Z</time>
      </trkpt>
      <trkpt lat="4.7393580" lon="-74.3456920">
        <ele>2578.4</ele>
        <time>2018-08-10T15:23:33Z</time>
      </trkpt>
      <trkpt lat="4.7394270" lon="-74.3457070">
        <ele>2578.6</ele>
        <time>2018-08-10T15:23:34Z</time>
      </trkpt>
      <trkpt lat="4.7394920" lon="-74.3457220">
        <ele>2578.3</ele>
        <time>2018-08-10T15:23:35Z</time>
      </trkpt>
      <trkpt lat="4.7395530" lon="-74.3457370">
        <ele>2577.9</ele>
        <time>2018-08-10T15:23:36Z</time>
      </trkpt>
      <trkpt lat="4.7396130" lon="-74.3457500">
        <ele>2577.7</ele>
        <time>2018-08-10T15:23:37Z</time>
      </trkpt>
      <trkpt lat="4.7397020" lon="-74.3457730">
        <ele>2577.9</ele>
        <time>2018-08-10T15:23:38Z</time>
      </trkpt>
      <trkpt lat="4.7397650" lon="-74.3457920">
        <ele>2577.9</ele>
        <time>2018-08-10T15:23:39Z</time>
      </trkpt>
      <trkpt lat="4.7398220" lon="-74.3457970">
        <ele>2577.9</ele>
        <time>2018-08-10T15:23:40Z</time>
      </trkpt>
      <trkpt lat="4.7398630" lon="-74.3458100">
        <ele>2578.0</ele>
        <time>2018-08-10T15:23:41Z</time>
      </trkpt>
      <trkpt lat="4.7399080" lon="-74.3458100">
        <ele>2578.0</ele>
        <time>2018-08-10T15:23:42Z</time>
      </trkpt>
      <trkpt lat="4.7399580" lon="-74.3458230">
        <ele>2578.0</ele>
        <time>2018-08-10T15:23:43Z</time>
      </trkpt>
      <trkpt lat="4.7400130" lon="-74.3458370">
        <ele>2578.0</ele>
        <time>2018-08-10T15:23:44Z</time>
      </trkpt>
      <trkpt lat="4.7400670" lon="-74.3458430">
        <ele>2578.1</ele>
        <time>2018-08-10T15:23:45Z</time>
      </trkpt>
      <trkpt lat="4.7401200" lon="-74.3458550">
        <ele>2578.1</ele>
        <time>2018-08-10T15:23:46Z</time>
      </trkpt>
      <trkpt lat="4.7401800" lon="-74.3458700">
        <ele>2578.1</ele>
        <time>2018-08-10T15:23:47Z</time>
      </trkpt>
      <trkpt lat="4.7402300" lon="-74.3458780">
        <ele>2578.1</ele>
        <time>2018-08-10T15:23:48Z</time>
      </trkpt>
      <trkpt lat="4.7402770" lon="-74.3458850">
        <ele>2578.1</ele>
        <time>2018-08-10T15:23:49Z</time>
      </trkpt>
      <trkpt lat="4.7403280" lon="-74.3458920">
        <ele>2578.0</ele>
        <time>2018-08-10T15:23:50Z</time>
      </trkpt>
      <trkpt lat="4.7403820" lon="-74.3458950">
        <ele>2578.0</ele>
        <time>2018-08-10T15:23:51Z</time>
      </trkpt>
      <trkpt lat="4.7404350" lon="-74.3458980">
        <ele>2578.0</ele>
        <time>2018-08-10T15:23:52Z</time>
      </trkpt>
      <trkpt lat="4.7404880" lon="-74.3458970">
        <ele>2578.2</ele>
        <time>2018-08-10T15:23:53Z</time>
      </trkpt>
      <trkpt lat="4.7405400" lon="-74.3458930">
        <ele>2578.5</ele>
        <time>2018-08-10T15:23:54Z</time>
      </trkpt>
      <trkpt lat="4.7405970" lon="-74.3458970">
        <ele>2578.9</ele>
        <time>2018-08-10T15:23:55Z</time>
      </trkpt>
      <trkpt lat="4.7406520" lon="-74.3458950">
        <ele>2579.4</ele>
        <time>2018-08-10T15:23:56Z</time>
      </trkpt>
      <trkpt lat="4.7407070" lon="-74.3458980">
        <ele>2580.1</ele>
        <time>2018-08-10T15:23:57Z</time>
      </trkpt>
      <trkpt lat="4.7407580" lon="-74.3459000">
        <ele>2580.2</ele>
        <time>2018-08-10T15:23:58Z</time>
      </trkpt>
      <trkpt lat="4.7408080" lon="-74.3459000">
        <ele>2580.2</ele>
        <time>2018-08-10T15:23:59Z</time>
      </trkpt>
      <trkpt lat="4.7408600" lon="-74.3459050">
        <ele>2579.8</ele>
        <time>2018-08-10T15:24:00Z</time>
      </trkpt>
      <trkpt lat="4.7409080" lon="-74.3459050">
        <ele>2579.5</ele>
        <time>2018-08-10T15:24:01Z</time>
      </trkpt>
      <trkpt lat="4.7409550" lon="-74.3459050">
        <ele>2579.1</ele>
        <time>2018-08-10T15:24:02Z</time>
      </trkpt>
      <trkpt lat="4.7410000" lon="-74.3459080">
        <ele>2579.0</ele>
        <time>2018-08-10T15:24:03Z</time>
      </trkpt>
      <trkpt lat="4.7410470" lon="-74.3459100">
        <ele>2579.0</ele>
        <time>2018-08-10T15:24:04Z</time>
      </trkpt>
      <trkpt lat="4.7410950" lon="-74.3459130">
        <ele>2578.6</ele>
        <time>2018-08-10T15:24:05Z</time>
      </trkpt>
      <trkpt lat="4.7411430" lon="-74.3459130">
        <ele>2578.1</ele>
        <time>2018-08-10T15:24:06Z</time>
      </trkpt>
      <trkpt lat="4.7411930" lon="-74.3459150">
        <ele>2577.6</ele>
        <time>2018-08-10T15:24:07Z</time>
      </trkpt>
      <trkpt lat="4.7412430" lon="-74.3459170">
        <ele>2577.2</ele>
        <time>2018-08-10T15:24:08Z</time>
      </trkpt>
      <trkpt lat="4.7413020" lon="-74.3459250">
        <ele>2576.7</ele>
        <time>2018-08-10T15:24:09Z</time>
      </trkpt>
      <trkpt lat="4.7413550" lon="-74.3459320">
        <ele>2576.3</ele>
        <time>2018-08-10T15:24:10Z</time>
      </trkpt>
      <trkpt lat="4.7414120" lon="-74.3459370">
        <ele>2576.1</ele>
        <time>2018-08-10T15:24:11Z</time>
      </trkpt>
      <trkpt lat="4.7414650" lon="-74.3459420">
        <ele>2576.0</ele>
        <time>2018-08-10T15:24:12Z</time>
      </trkpt>
      <trkpt lat="4.7415220" lon="-74.3459520">
        <ele>2575.8</ele>
        <time>2018-08-10T15:24:13Z</time>
      </trkpt>
      <trkpt lat="4.7415750" lon="-74.3459580">
        <ele>2575.6</ele>
        <time>2018-08-10T15:24:14Z</time>
      </trkpt>
      <trkpt lat="4.7416270" lon="-74.3459700">
        <ele>2575.4</ele>
        <time>2018-08-10T15:24:15Z</time>
      </trkpt>
      <trkpt lat="4.7416770" lon="-74.3459900">
        <ele>2575.3</ele>
        <time>2018-08-10T15:24:16Z</time>
      </trkpt>
      <trkpt lat="4.7417230" lon="-74.3460220">
        <ele>2575.1</ele>
        <time>2018-08-10T15:24:17Z</time>
      </trkpt>
      <trkpt lat="4.7417720" lon="-74.3460550">
        <ele>2574.9</ele>
        <time>2018-08-10T15:24:18Z</time>
      </trkpt>
      <trkpt lat="4.7418200" lon="-74.3460920">
        <ele>2574.8</ele>
        <time>2018-08-10T15:24:19Z</time>
      </trkpt>
      <trkpt lat="4.7418670" lon="-74.3461230">
        <ele>2574.6</ele>
        <time>2018-08-10T15:24:20Z</time>
      </trkpt>
      <trkpt lat="4.7419150" lon="-74.3461530">
        <ele>2574.5</ele>
        <time>2018-08-10T15:24:21Z</time>
      </trkpt>
      <trkpt lat="4.7419650" lon="-74.3461920">
        <ele>2574.3</ele>
        <time>2018-08-10T15:24:22Z</time>
      </trkpt>
      <trkpt lat="4.7420130" lon="-74.3462300">
        <ele>2574.1</ele>
        <time>2018-08-10T15:24:23Z</time>
      </trkpt>
      <trkpt lat="4.7420630" lon="-74.3462620">
        <ele>2574.0</ele>
        <time>2018-08-10T15:24:24Z</time>
      </trkpt>
      <trkpt lat="4.7421130" lon="-74.3462930">
        <ele>2573.9</ele>
        <time>2018-08-10T15:24:25Z</time>
      </trkpt>
      <trkpt lat="4.7421650" lon="-74.3463250">
        <ele>2573.9</ele>
        <time>2018-08-10T15:24:26Z</time>
      </trkpt>
      <trkpt lat="4.7422150" lon="-74.3463570">
        <ele>2573.9</ele>
        <time>2018-08-10T15:24:27Z</time>
      </trkpt>
      <trkpt lat="4.7422650" lon="-74.3463920">
        <ele>2573.8</ele>
        <time>2018-08-10T15:24:28Z</time>
      </trkpt>
      <trkpt lat="4.7423170" lon="-74.3464300">
        <ele>2573.8</ele>
        <time>2018-08-10T15:24:29Z</time>
      </trkpt>
      <trkpt lat="4.7423630" lon="-74.3464720">
        <ele>2573.7</ele>
        <time>2018-08-10T15:24:30Z</time>
      </trkpt>
      <trkpt lat="4.7424130" lon="-74.3465080">
        <ele>2573.6</ele>
        <time>2018-08-10T15:24:31Z</time>
      </trkpt>
      <trkpt lat="4.7424670" lon="-74.3465500">
        <ele>2573.5</ele>
        <time>2018-08-10T15:24:32Z</time>
      </trkpt>
      <trkpt lat="4.7425220" lon="-74.3465930">
        <ele>2573.4</ele>
        <time>2018-08-10T15:24:33Z</time>
      </trkpt>
      <trkpt lat="4.7425780" lon="-74.3466330">
        <ele>2573.1</ele>
        <time>2018-08-10T15:24:34Z</time>
      </trkpt>
      <trkpt lat="4.7426330" lon="-74.3466730">
        <ele>2572.8</ele>
        <time>2018-08-10T15:24:35Z</time>
      </trkpt>
      <trkpt lat="4.7426880" lon="-74.3467130">
        <ele>2572.6</ele>
        <time>2018-08-10T15:24:36Z</time>
      </trkpt>
      <trkpt lat="4.7427420" lon="-74.3467500">
        <ele>2572.4</ele>
        <time>2018-08-10T15:24:37Z</time>
      </trkpt>
      <trkpt lat="4.7427900" lon="-74.3467830">
        <ele>2572.4</ele>
        <time>2018-08-10T15:24:38Z</time>
      </trkpt>
      <trkpt lat="4.7428370" lon="-74.3468180">
        <ele>2572.3</ele>
        <time>2018-08-10T15:24:39Z</time>
      </trkpt>
      <trkpt lat="4.7428780" lon="-74.3468470">
        <ele>2572.3</ele>
        <time>2018-08-10T15:24:40Z</time>
      </trkpt>
      <trkpt lat="4.7429200" lon="-74.3468820">
        <ele>2572.3</ele>
        <time>2018-08-10T15:24:41Z</time>
      </trkpt>
      <trkpt lat="4.7429570" lon="-74.3469050">
        <ele>2572.2</ele>
        <time>2018-08-10T15:24:42Z</time>
      </trkpt>
      <trkpt lat="4.7429930" lon="-74.3469300">
        <ele>2572.2</ele>
        <time>2018-08-10T15:24:43Z</time>
      </trkpt>
      <trkpt lat="4.7430300" lon="-74.3469500">
        <ele>2572.2</ele>
        <time>2018-08-10T15:24:44Z</time>
      </trkpt>
      <trkpt lat="4.7430720" lon="-74.3469700">
        <ele>2572.2</ele>
        <time>2018-08-10T15:24:45Z</time>
      </trkpt>
      <trkpt lat="4.7431080" lon="-74.3469970">
        <ele>2572.2</ele>
        <time>2018-08-10T15:24:46Z</time>
      </trkpt>
      <trkpt lat="4.7431400" lon="-74.3470250">
        <ele>2572.2</ele>
        <time>2018-08-10T15:24:47Z</time>
      </trkpt>
      <trkpt lat="4.7431700" lon="-74.3470530">
        <ele>2572.2</ele>
        <time>2018-08-10T15:24:48Z</time>
      </trkpt>
      <trkpt lat="4.7431950" lon="-74.3470770">
        <ele>2572.2</ele>
        <time>2018-08-10T15:24:49Z</time>
      </trkpt>
      <trkpt lat="4.7432250" lon="-74.3470950">
        <ele>2572.2</ele>
        <time>2018-08-10T15:24:50Z</time>
      </trkpt>
      <trkpt lat="4.7432580" lon="-74.3471130">
        <ele>2572.2</ele>
        <time>2018-08-10T15:24:51Z</time>
      </trkpt>
      <trkpt lat="4.7432930" lon="-74.3471280">
        <ele>2572.2</ele>
        <time>2018-08-10T15:24:52Z</time>
      </trkpt>
      <trkpt lat="4.7433270" lon="-74.3471430">
        <ele>2572.2</ele>
        <time>2018-08-10T15:24:53Z</time>
      </trkpt>
      <trkpt lat="4.7433600" lon="-74.3471650">
        <ele>2572.2</ele>
        <time>2018-08-10T15:24:54Z</time>
      </trkpt>
      <trkpt lat="4.7433950" lon="-74.3471870">
        <ele>2572.3</ele>
        <time>2018-08-10T15:24:55Z</time>
      </trkpt>
      <trkpt lat="4.7434300" lon="-74.3472100">
        <ele>2572.3</ele>
        <time>2018-08-10T15:24:56Z</time>
      </trkpt>
      <trkpt lat="4.7434670" lon="-74.3472370">
        <ele>2572.3</ele>
        <time>2018-08-10T15:24:57Z</time>
      </trkpt>
      <trkpt lat="4.7435020" lon="-74.3472630">
        <ele>2572.3</ele>
        <time>2018-08-10T15:24:58Z</time>
      </trkpt>
      <trkpt lat="4.7435330" lon="-74.3472950">
        <ele>2572.3</ele>
        <time>2018-08-10T15:24:59Z</time>
      </trkpt>
      <trkpt lat="4.7435670" lon="-74.3473250">
        <ele>2572.3</ele>
        <time>2018-08-10T15:25:00Z</time>
      </trkpt>
      <trkpt lat="4.7435980" lon="-74.3473570">
        <ele>2572.3</ele>
        <time>2018-08-10T15:25:01Z</time>
      </trkpt>
      <trkpt lat="4.7436320" lon="-74.3473880">
        <ele>2572.3</ele>
        <time>2018-08-10T15:25:02Z</time>
      </trkpt>
      <trkpt lat="4.7436650" lon="-74.3474180">
        <ele>2572.3</ele>
        <time>2018-08-10T15:25:03Z</time>
      </trkpt>
      <trkpt lat="4.7436970" lon="-74.3474520">
        <ele>2572.4</ele>
        <time>2018-08-10T15:25:04Z</time>
      </trkpt>
      <trkpt lat="4.7437280" lon="-74.3474780">
        <ele>2572.4</ele>
        <time>2018-08-10T15:25:05Z</time>
      </trkpt>
      <trkpt lat="4.7437580" lon="-74.3475080">
        <ele>2572.4</ele>
        <time>2018-08-10T15:25:06Z</time>
      </trkpt>
      <trkpt lat="4.7437870" lon="-74.3475350">
        <ele>2572.4</ele>
        <time>2018-08-10T15:25:07Z</time>
      </trkpt>
      <trkpt lat="4.7438170" lon="-74.3475600">
        <ele>2572.4</ele>
        <time>2018-08-10T15:25:08Z</time>
      </trkpt>
      <trkpt lat="4.7438450" lon="-74.3475900">
        <ele>2572.4</ele>
        <time>2018-08-10T15:25:09Z</time>
      </trkpt>
      <trkpt lat="4.7438750" lon="-74.3476230">
        <ele>2572.4</ele>
        <time>2018-08-10T15:25:10Z</time>
      </trkpt>
      <trkpt lat="4.7439000" lon="-74.3476620">
        <ele>2572.4</ele>
        <time>2018-08-10T15:25:11Z</time>
      </trkpt>
      <trkpt lat="4.7439330" lon="-74.3476920">
        <ele>2572.4</ele>
        <time>2018-08-10T15:25:12Z</time>
      </trkpt>
      <trkpt lat="4.7439650" lon="-74.3477180">
        <ele>2572.5</ele>
        <time>2018-08-10T15:25:13Z</time>
      </trkpt>
      <trkpt lat="4.7439970" lon="-74.3477430">
        <ele>2572.5</ele>
        <time>2018-08-10T15:25:14Z</time>
      </trkpt>
      <trkpt lat="4.7440220" lon="-74.3477730">
        <ele>2572.5</ele>
        <time>2018-08-10T15:25:15Z</time>
      </trkpt>
      <trkpt lat="4.7440450" lon="-74.3478020">
        <ele>2572.5</ele>
        <time>2018-08-10T15:25:16Z</time>
      </trkpt>
      <trkpt lat="4.7440700" lon="-74.3478320">
        <ele>2572.5</ele>
        <time>2018-08-10T15:25:17Z</time>
      </trkpt>
      <trkpt lat="4.7440980" lon="-74.3478550">
        <ele>2572.5</ele>
        <time>2018-08-10T15:25:18Z</time>
      </trkpt>
      <trkpt lat="4.7441270" lon="-74.3478800">
        <ele>2572.5</ele>
        <time>2018-08-10T15:25:19Z</time>
      </trkpt>
      <trkpt lat="4.7441550" lon="-74.3479100">
        <ele>2572.5</ele>
        <time>2018-08-10T15:25:20Z</time>
      </trkpt>
      <trkpt lat="4.7441880" lon="-74.3479330">
        <ele>2572.5</ele>
        <time>2018-08-10T15:25:21Z</time>
      </trkpt>
      <trkpt lat="4.7442170" lon="-74.3479570">
        <ele>2572.5</ele>
        <time>2018-08-10T15:25:22Z</time>
      </trkpt>
      <trkpt lat="4.7442500" lon="-74.3479830">
        <ele>2572.6</ele>
        <time>2018-08-10T15:25:23Z</time>
      </trkpt>
      <trkpt lat="4.7442780" lon="-74.3480100">
        <ele>2572.6</ele>
        <time>2018-08-10T15:25:24Z</time>
      </trkpt>
      <trkpt lat="4.7443020" lon="-74.3480380">
        <ele>2572.6</ele>
        <time>2018-08-10T15:25:25Z</time>
      </trkpt>
      <trkpt lat="4.7443230" lon="-74.3480670">
        <ele>2572.6</ele>
        <time>2018-08-10T15:25:26Z</time>
      </trkpt>
      <trkpt lat="4.7443480" lon="-74.3480970">
        <ele>2572.6</ele>
        <time>2018-08-10T15:25:27Z</time>
      </trkpt>
      <trkpt lat="4.7443730" lon="-74.3481250">
        <ele>2572.6</ele>
        <time>2018-08-10T15:25:28Z</time>
      </trkpt>
      <trkpt lat="4.7443970" lon="-74.3481570">
        <ele>2572.6</ele>
        <time>2018-08-10T15:25:29Z</time>
      </trkpt>
      <trkpt lat="4.7444200" lon="-74.3481850">
        <ele>2572.6</ele>
        <time>2018-08-10T15:25:30Z</time>
      </trkpt>
      <trkpt lat="4.7444450" lon="-74.3482130">
        <ele>2572.7</ele>
        <time>2018-08-10T15:25:31Z</time>
      </trkpt>
      <trkpt lat="4.7444680" lon="-74.3482400">
        <ele>2572.7</ele>
        <time>2018-08-10T15:25:32Z</time>
      </trkpt>
      <trkpt lat="4.7444930" lon="-74.3482670">
        <ele>2572.7</ele>
        <time>2018-08-10T15:25:33Z</time>
      </trkpt>
      <trkpt lat="4.7445170" lon="-74.3482900">
        <ele>2572.8</ele>
        <time>2018-08-10T15:25:34Z</time>
      </trkpt>
      <trkpt lat="4.7445420" lon="-74.3483120">
        <ele>2572.8</ele>
        <time>2018-08-10T15:25:35Z</time>
      </trkpt>
      <trkpt lat="4.7445650" lon="-74.3483370">
        <ele>2572.9</ele>
        <time>2018-08-10T15:25:36Z</time>
      </trkpt>
      <trkpt lat="4.7445850" lon="-74.3483620">
        <ele>2573.0</ele>
        <time>2018-08-10T15:25:37Z</time>
      </trkpt>
      <trkpt lat="4.7446050" lon="-74.3483880">
        <ele>2573.0</ele>
        <time>2018-08-10T15:25:38Z</time>
      </trkpt>
      <trkpt lat="4.7446250" lon="-74.3484170">
        <ele>2573.1</ele>
        <time>2018-08-10T15:25:39Z</time>
      </trkpt>
      <trkpt lat="4.7446480" lon="-74.3484400">
        <ele>2573.1</ele>
        <time>2018-08-10T15:25:40Z</time>
      </trkpt>
      <trkpt lat="4.7446720" lon="-74.3484600">
        <ele>2573.2</ele>
        <time>2018-08-10T15:25:41Z</time>
      </trkpt>
      <trkpt lat="4.7446970" lon="-74.3484780">
        <ele>2573.3</ele>
        <time>2018-08-10T15:25:42Z</time>
      </trkpt>
      <trkpt lat="4.7447380" lon="-74.3485120">
        <ele>2573.5</ele>
        <time>2018-08-10T15:25:44Z</time>
      </trkpt>
      <trkpt lat="4.7447600" lon="-74.3485320">
        <ele>2573.6</ele>
        <time>2018-08-10T15:25:45Z</time>
      </trkpt>
      <trkpt lat="4.7447800" lon="-74.3485550">
        <ele>2573.7</ele>
        <time>2018-08-10T15:25:46Z</time>
      </trkpt>
      <trkpt lat="4.7448020" lon="-74.3485830">
        <ele>2574.2</ele>
        <time>2018-08-10T15:25:47Z</time>
      </trkpt>
      <trkpt lat="4.7448220" lon="-74.3486070">
        <ele>2574.5</ele>
        <time>2018-08-10T15:25:48Z</time>
      </trkpt>
      <trkpt lat="4.7448420" lon="-74.3486350">
        <ele>2574.7</ele>
        <time>2018-08-10T15:25:49Z</time>
      </trkpt>
      <trkpt lat="4.7448570" lon="-74.3486600">
        <ele>2574.9</ele>
        <time>2018-08-10T15:25:50Z</time>
      </trkpt>
      <trkpt lat="4.7448730" lon="-74.3486830">
        <ele>2575.1</ele>
        <time>2018-08-10T15:25:51Z</time>
      </trkpt>
      <trkpt lat="4.7449080" lon="-74.3487180">
        <ele>2575.4</ele>
        <time>2018-08-10T15:25:53Z</time>
      </trkpt>
      <trkpt lat="4.7449430" lon="-74.3487470">
        <ele>2575.7</ele>
        <time>2018-08-10T15:25:55Z</time>
      </trkpt>
      <trkpt lat="4.7449850" lon="-74.3487750">
        <ele>2576.3</ele>
        <time>2018-08-10T15:25:57Z</time>
      </trkpt>
      <trkpt lat="4.7450220" lon="-74.3488180">
        <ele>2577.4</ele>
        <time>2018-08-10T15:25:59Z</time>
      </trkpt>
      <trkpt lat="4.7450580" lon="-74.3488530">
        <ele>2577.9</ele>
        <time>2018-08-10T15:26:01Z</time>
      </trkpt>
      <trkpt lat="4.7450980" lon="-74.3488780">
        <ele>2578.3</ele>
        <time>2018-08-10T15:26:03Z</time>
      </trkpt>
      <trkpt lat="4.7451150" lon="-74.3489020">
        <ele>2578.8</ele>
        <time>2018-08-10T15:26:04Z</time>
      </trkpt>
      <trkpt lat="4.7451480" lon="-74.3489380">
        <ele>2579.6</ele>
        <time>2018-08-10T15:26:06Z</time>
      </trkpt>
      <trkpt lat="4.7451680" lon="-74.3489600">
        <ele>2580.0</ele>
        <time>2018-08-10T15:26:07Z</time>
      </trkpt>
      <trkpt lat="4.7452070" lon="-74.3489880">
        <ele>2580.6</ele>
        <time>2018-08-10T15:26:09Z</time>
      </trkpt>
      <trkpt lat="4.7452370" lon="-74.3490180">
        <ele>2581.6</ele>
        <time>2018-08-10T15:26:11Z</time>
      </trkpt>
      <trkpt lat="4.7452670" lon="-74.3490620">
        <ele>2582.3</ele>
        <time>2018-08-10T15:26:13Z</time>
      </trkpt>
      <trkpt lat="4.7453000" lon="-74.3490920">
        <ele>2582.7</ele>
        <time>2018-08-10T15:26:15Z</time>
      </trkpt>
      <trkpt lat="4.7453350" lon="-74.3491130">
        <ele>2583.6</ele>
        <time>2018-08-10T15:26:17Z</time>
      </trkpt>
      <trkpt lat="4.7453700" lon="-74.3491430">
        <ele>2584.6</ele>
        <time>2018-08-10T15:26:19Z</time>
      </trkpt>
      <trkpt lat="4.7454020" lon="-74.3491780">
        <ele>2585.8</ele>
        <time>2018-08-10T15:26:21Z</time>
      </trkpt>
      <trkpt lat="4.7454380" lon="-74.3492050">
        <ele>2586.7</ele>
        <time>2018-08-10T15:26:23Z</time>
      </trkpt>
      <trkpt lat="4.7454770" lon="-74.3492250">
        <ele>2587.4</ele>
        <time>2018-08-10T15:26:25Z</time>
      </trkpt>
      <trkpt lat="4.7455180" lon="-74.3492470">
        <ele>2588.6</ele>
        <time>2018-08-10T15:26:27Z</time>
      </trkpt>
      <trkpt lat="4.7455580" lon="-74.3492670">
        <ele>2589.1</ele>
        <time>2018-08-10T15:26:29Z</time>
      </trkpt>
      <trkpt lat="4.7456000" lon="-74.3492650">
        <ele>2589.6</ele>
        <time>2018-08-10T15:26:31Z</time>
      </trkpt>
      <trkpt lat="4.7456480" lon="-74.3492570">
        <ele>2590.6</ele>
        <time>2018-08-10T15:26:33Z</time>
      </trkpt>
      <trkpt lat="4.7456900" lon="-74.3492500">
        <ele>2591.1</ele>
        <time>2018-08-10T15:26:35Z</time>
      </trkpt>
      <trkpt lat="4.7457380" lon="-74.3492370">
        <ele>2591.6</ele>
        <time>2018-08-10T15:26:37Z</time>
      </trkpt>
      <trkpt lat="4.7457850" lon="-74.3492230">
        <ele>2592.4</ele>
        <time>2018-08-10T15:26:39Z</time>
      </trkpt>
      <trkpt lat="4.7458330" lon="-74.3492250">
        <ele>2593.4</ele>
        <time>2018-08-10T15:26:41Z</time>
      </trkpt>
      <trkpt lat="4.7458720" lon="-74.3492570">
        <ele>2593.9</ele>
        <time>2018-08-10T15:26:43Z</time>
      </trkpt>
      <trkpt lat="4.7459080" lon="-74.3492930">
        <ele>2594.8</ele>
        <time>2018-08-10T15:26:45Z</time>
      </trkpt>
      <trkpt lat="4.7459330" lon="-74.3493250">
        <ele>2595.6</ele>
        <time>2018-08-10T15:26:47Z</time>
      </trkpt>
      <trkpt lat="4.7459670" lon="-74.3493580">
        <ele>2596.1</ele>
        <time>2018-08-10T15:26:49Z</time>
      </trkpt>
      <trkpt lat="4.7459980" lon="-74.3493930">
        <ele>2596.9</ele>
        <time>2018-08-10T15:26:51Z</time>
      </trkpt>
      <trkpt lat="4.7460330" lon="-74.3494270">
        <ele>2598.0</ele>
        <time>2018-08-10T15:26:53Z</time>
      </trkpt>
      <trkpt lat="4.7460670" lon="-74.3494480">
        <ele>2598.7</ele>
        <time>2018-08-10T15:26:55Z</time>
      </trkpt>
      <trkpt lat="4.7461070" lon="-74.3494600">
        <ele>2599.7</ele>
        <time>2018-08-10T15:26:57Z</time>
      </trkpt>
      <trkpt lat="4.7461400" lon="-74.3494450">
        <ele>2600.7</ele>
        <time>2018-08-10T15:26:59Z</time>
      </trkpt>
      <trkpt lat="4.7461600" lon="-74.3494130">
        <ele>2601.8</ele>
        <time>2018-08-10T15:27:01Z</time>
      </trkpt>
      <trkpt lat="4.7461700" lon="-74.3493650">
        <ele>2603.0</ele>
        <time>2018-08-10T15:27:03Z</time>
      </trkpt>
      <trkpt lat="4.7461600" lon="-74.3493230">
        <ele>2604.3</ele>
        <time>2018-08-10T15:27:05Z</time>
      </trkpt>
      <trkpt lat="4.7461650" lon="-74.3492800">
        <ele>2605.1</ele>
        <time>2018-08-10T15:27:07Z</time>
      </trkpt>
      <trkpt lat="4.7461730" lon="-74.3492350">
        <ele>2606.0</ele>
        <time>2018-08-10T15:27:09Z</time>
      </trkpt>
      <trkpt lat="4.7461850" lon="-74.3491920">
        <ele>2607.4</ele>
        <time>2018-08-10T15:27:11Z</time>
      </trkpt>
      <trkpt lat="4.7462150" lon="-74.3491530">
        <ele>2608.7</ele>
        <time>2018-08-10T15:27:13Z</time>
      </trkpt>
      <trkpt lat="4.7462550" lon="-74.3491370">
        <ele>2609.8</ele>
        <time>2018-08-10T15:27:15Z</time>
      </trkpt>
      <trkpt lat="4.7462950" lon="-74.3491430">
        <ele>2610.2</ele>
        <time>2018-08-10T15:27:17Z</time>
      </trkpt>
      <trkpt lat="4.7463330" lon="-74.3491730">
        <ele>2611.0</ele>
        <time>2018-08-10T15:27:19Z</time>
      </trkpt>
      <trkpt lat="4.7463670" lon="-74.3492050">
        <ele>2612.1</ele>
        <time>2018-08-10T15:27:21Z</time>
      </trkpt>
      <trkpt lat="4.7463950" lon="-74.3492320">
        <ele>2612.7</ele>
        <time>2018-08-10T15:27:23Z</time>
      </trkpt>
      <trkpt lat="4.7464220" lon="-74.3492600">
        <ele>2613.4</ele>
        <time>2018-08-10T15:27:25Z</time>
      </trkpt>
      <trkpt lat="4.7464500" lon="-74.3492930">
        <ele>2614.6</ele>
        <time>2018-08-10T15:27:27Z</time>
      </trkpt>
      <trkpt lat="4.7464780" lon="-74.3493250">
        <ele>2615.3</ele>
        <time>2018-08-10T15:27:29Z</time>
      </trkpt>
      <trkpt lat="4.7465050" lon="-74.3493650">
        <ele>2616.8</ele>
        <time>2018-08-10T15:27:31Z</time>
      </trkpt>
      <trkpt lat="4.7465350" lon="-74.3494020">
        <ele>2617.9</ele>
        <time>2018-08-10T15:27:33Z</time>
      </trkpt>
      <trkpt lat="4.7465630" lon="-74.3494270">
        <ele>2619.2</ele>
        <time>2018-08-10T15:27:35Z</time>
      </trkpt>
      <trkpt lat="4.7465880" lon="-74.3494480">
        <ele>2619.7</ele>
        <time>2018-08-10T15:27:37Z</time>
      </trkpt>
      <trkpt lat="4.7466120" lon="-74.3494730">
        <ele>2620.6</ele>
        <time>2018-08-10T15:27:39Z</time>
      </trkpt>
      <trkpt lat="4.7466370" lon="-74.3495000">
        <ele>2621.5</ele>
        <time>2018-08-10T15:27:41Z</time>
      </trkpt>
      <trkpt lat="4.7466600" lon="-74.3495230">
        <ele>2622.0</ele>
        <time>2018-08-10T15:27:43Z</time>
      </trkpt>
      <trkpt lat="4.7466850" lon="-74.3495520">
        <ele>2623.0</ele>
        <time>2018-08-10T15:27:45Z</time>
      </trkpt>
      <trkpt lat="4.7467050" lon="-74.3495770">
        <ele>2623.5</ele>
        <time>2018-08-10T15:27:46Z</time>
      </trkpt>
      <trkpt lat="4.7467220" lon="-74.3496030">
        <ele>2623.8</ele>
        <time>2018-08-10T15:27:47Z</time>
      </trkpt>
      <trkpt lat="4.7467480" lon="-74.3496320">
        <ele>2624.5</ele>
        <time>2018-08-10T15:27:49Z</time>
      </trkpt>
      <trkpt lat="4.7467820" lon="-74.3496630">
        <ele>2625.7</ele>
        <time>2018-08-10T15:27:51Z</time>
      </trkpt>
      <trkpt lat="4.7468130" lon="-74.3497000">
        <ele>2626.5</ele>
        <time>2018-08-10T15:27:53Z</time>
      </trkpt>
      <trkpt lat="4.7468500" lon="-74.3497200">
        <ele>2627.0</ele>
        <time>2018-08-10T15:27:55Z</time>
      </trkpt>
      <trkpt lat="4.7468880" lon="-74.3497350">
        <ele>2627.9</ele>
        <time>2018-08-10T15:27:57Z</time>
      </trkpt>
      <trkpt lat="4.7469370" lon="-74.3497500">
        <ele>2628.6</ele>
        <time>2018-08-10T15:27:59Z</time>
      </trkpt>
      <trkpt lat="4.7469800" lon="-74.3497570">
        <ele>2629.0</ele>
        <time>2018-08-10T15:28:01Z</time>
      </trkpt>
      <trkpt lat="4.7470200" lon="-74.3497600">
        <ele>2629.3</ele>
        <time>2018-08-10T15:28:03Z</time>
      </trkpt>
      <trkpt lat="4.7470570" lon="-74.3497580">
        <ele>2629.9</ele>
        <time>2018-08-10T15:28:05Z</time>
      </trkpt>
      <trkpt lat="4.7470970" lon="-74.3497550">
        <ele>2630.7</ele>
        <time>2018-08-10T15:28:07Z</time>
      </trkpt>
      <trkpt lat="4.7471380" lon="-74.3497480">
        <ele>2631.3</ele>
        <time>2018-08-10T15:28:09Z</time>
      </trkpt>
      <trkpt lat="4.7471730" lon="-74.3497470">
        <ele>2632.0</ele>
        <time>2018-08-10T15:28:11Z</time>
      </trkpt>
      <trkpt lat="4.7472070" lon="-74.3497280">
        <ele>2633.1</ele>
        <time>2018-08-10T15:28:13Z</time>
      </trkpt>
      <trkpt lat="4.7472430" lon="-74.3497200">
        <ele>2633.9</ele>
        <time>2018-08-10T15:28:15Z</time>
      </trkpt>
      <trkpt lat="4.7472830" lon="-74.3497480">
        <ele>2635.0</ele>
        <time>2018-08-10T15:28:17Z</time>
      </trkpt>
      <trkpt lat="4.7473130" lon="-74.3497820">
        <ele>2635.7</ele>
        <time>2018-08-10T15:28:18Z</time>
      </trkpt>
      <trkpt lat="4.7473550" lon="-74.3498000">
        <ele>2636.2</ele>
        <time>2018-08-10T15:28:20Z</time>
      </trkpt>
      <trkpt lat="4.7473980" lon="-74.3498120">
        <ele>2637.0</ele>
        <time>2018-08-10T15:28:22Z</time>
      </trkpt>
      <trkpt lat="4.7474400" lon="-74.3498100">
        <ele>2637.7</ele>
        <time>2018-08-10T15:28:24Z</time>
      </trkpt>
      <trkpt lat="4.7474900" lon="-74.3498020">
        <ele>2638.2</ele>
        <time>2018-08-10T15:28:26Z</time>
      </trkpt>
      <trkpt lat="4.7475300" lon="-74.3498030">
        <ele>2638.7</ele>
        <time>2018-08-10T15:28:28Z</time>
      </trkpt>
      <trkpt lat="4.7475750" lon="-74.3497950">
        <ele>2639.7</ele>
        <time>2018-08-10T15:28:30Z</time>
      </trkpt>
      <trkpt lat="4.7476180" lon="-74.3497980">
        <ele>2640.3</ele>
        <time>2018-08-10T15:28:32Z</time>
      </trkpt>
      <trkpt lat="4.7476600" lon="-74.3498230">
        <ele>2640.7</ele>
        <time>2018-08-10T15:28:34Z</time>
      </trkpt>
      <trkpt lat="4.7477020" lon="-74.3498330">
        <ele>2641.3</ele>
        <time>2018-08-10T15:28:36Z</time>
      </trkpt>
      <trkpt lat="4.7477350" lon="-74.3498470">
        <ele>2642.2</ele>
        <time>2018-08-10T15:28:38Z</time>
      </trkpt>
      <trkpt lat="4.7477700" lon="-74.3498720">
        <ele>2642.7</ele>
        <time>2018-08-10T15:28:40Z</time>
      </trkpt>
      <trkpt lat="4.7477980" lon="-74.3498920">
        <ele>2643.1</ele>
        <time>2018-08-10T15:28:42Z</time>
      </trkpt>
      <trkpt lat="4.7478380" lon="-74.3499020">
        <ele>2644.1</ele>
        <time>2018-08-10T15:28:44Z</time>
      </trkpt>
      <trkpt lat="4.7478800" lon="-74.3499080">
        <ele>2645.0</ele>
        <time>2018-08-10T15:28:46Z</time>
      </trkpt>
      <trkpt lat="4.7479230" lon="-74.3499120">
        <ele>2645.6</ele>
        <time>2018-08-10T15:28:48Z</time>
      </trkpt>
      <trkpt lat="4.7479680" lon="-74.3499130">
        <ele>2646.6</ele>
        <time>2018-08-10T15:28:50Z</time>
      </trkpt>
      <trkpt lat="4.7480150" lon="-74.3499200">
        <ele>2647.2</ele>
        <time>2018-08-10T15:28:52Z</time>
      </trkpt>
      <trkpt lat="4.7480520" lon="-74.3499400">
        <ele>2647.6</ele>
        <time>2018-08-10T15:28:54Z</time>
      </trkpt>
      <trkpt lat="4.7480950" lon="-74.3499580">
        <ele>2648.0</ele>
        <time>2018-08-10T15:28:56Z</time>
      </trkpt>
      <trkpt lat="4.7481370" lon="-74.3499780">
        <ele>2649.0</ele>
        <time>2018-08-10T15:28:58Z</time>
      </trkpt>
      <trkpt lat="4.7481570" lon="-74.3499970">
        <ele>2649.3</ele>
        <time>2018-08-10T15:28:59Z</time>
      </trkpt>
      <trkpt lat="4.7482000" lon="-74.3500250">
        <ele>2649.8</ele>
        <time>2018-08-10T15:29:01Z</time>
      </trkpt>
      <trkpt lat="4.7482400" lon="-74.3500620">
        <ele>2650.7</ele>
        <time>2018-08-10T15:29:03Z</time>
      </trkpt>
      <trkpt lat="4.7482800" lon="-74.3500950">
        <ele>2651.6</ele>
        <time>2018-08-10T15:29:05Z</time>
      </trkpt>
      <trkpt lat="4.7483120" lon="-74.3501200">
        <ele>2651.9</ele>
        <time>2018-08-10T15:29:07Z</time>
      </trkpt>
      <trkpt lat="4.7483370" lon="-74.3501380">
        <ele>2652.1</ele>
        <time>2018-08-10T15:29:09Z</time>
      </trkpt>
      <trkpt lat="4.7483650" lon="-74.3501620">
        <ele>2652.4</ele>
        <time>2018-08-10T15:29:11Z</time>
      </trkpt>
      <trkpt lat="4.7483970" lon="-74.3501900">
        <ele>2652.7</ele>
        <time>2018-08-10T15:29:13Z</time>
      </trkpt>
      <trkpt lat="4.7484350" lon="-74.3502200">
        <ele>2653.4</ele>
        <time>2018-08-10T15:29:15Z</time>
      </trkpt>
      <trkpt lat="4.7484720" lon="-74.3502480">
        <ele>2653.9</ele>
        <time>2018-08-10T15:29:17Z</time>
      </trkpt>
      <trkpt lat="4.7485030" lon="-74.3502720">
        <ele>2654.2</ele>
        <time>2018-08-10T15:29:19Z</time>
      </trkpt>
      <trkpt lat="4.7485470" lon="-74.3502970">
        <ele>2654.6</ele>
        <time>2018-08-10T15:29:21Z</time>
      </trkpt>
      <trkpt lat="4.7485930" lon="-74.3503180">
        <ele>2655.0</ele>
        <time>2018-08-10T15:29:23Z</time>
      </trkpt>
      <trkpt lat="4.7486280" lon="-74.3503450">
        <ele>2655.8</ele>
        <time>2018-08-10T15:29:25Z</time>
      </trkpt>
      <trkpt lat="4.7486600" lon="-74.3503820">
        <ele>2656.7</ele>
        <time>2018-08-10T15:29:27Z</time>
      </trkpt>
      <trkpt lat="4.7487020" lon="-74.3504050">
        <ele>2657.4</ele>
        <time>2018-08-10T15:29:29Z</time>
      </trkpt>
      <trkpt lat="4.7487470" lon="-74.3504200">
        <ele>2658.4</ele>
        <time>2018-08-10T15:29:31Z</time>
      </trkpt>
      <trkpt lat="4.7487820" lon="-74.3504370">
        <ele>2659.2</ele>
        <time>2018-08-10T15:29:33Z</time>
      </trkpt>
      <trkpt lat="4.7488130" lon="-74.3504450">
        <ele>2660.1</ele>
        <time>2018-08-10T15:29:35Z</time>
      </trkpt>
      <trkpt lat="4.7488400" lon="-74.3504600">
        <ele>2660.8</ele>
        <time>2018-08-10T15:29:37Z</time>
      </trkpt>
      <trkpt lat="4.7488730" lon="-74.3504700">
        <ele>2661.2</ele>
        <time>2018-08-10T15:29:39Z</time>
      </trkpt>
      <trkpt lat="4.7489130" lon="-74.3504830">
        <ele>2661.8</ele>
        <time>2018-08-10T15:29:41Z</time>
      </trkpt>
      <trkpt lat="4.7489500" lon="-74.3504920">
        <ele>2662.6</ele>
        <time>2018-08-10T15:29:43Z</time>
      </trkpt>
      <trkpt lat="4.7489850" lon="-74.3505130">
        <ele>2663.6</ele>
        <time>2018-08-10T15:29:45Z</time>
      </trkpt>
      <trkpt lat="4.7490230" lon="-74.3505250">
        <ele>2664.3</ele>
        <time>2018-08-10T15:29:47Z</time>
      </trkpt>
      <trkpt lat="4.7490700" lon="-74.3505400">
        <ele>2665.4</ele>
        <time>2018-08-10T15:29:49Z</time>
      </trkpt>
      <trkpt lat="4.7491100" lon="-74.3505650">
        <ele>2665.8</ele>
        <time>2018-08-10T15:29:51Z</time>
      </trkpt>
      <trkpt lat="4.7491400" lon="-74.3505900">
        <ele>2666.1</ele>
        <time>2018-08-10T15:29:53Z</time>
      </trkpt>
      <trkpt lat="4.7491850" lon="-74.3506150">
        <ele>2667.1</ele>
        <time>2018-08-10T15:29:55Z</time>
      </trkpt>
      <trkpt lat="4.7492270" lon="-74.3506380">
        <ele>2667.8</ele>
        <time>2018-08-10T15:29:57Z</time>
      </trkpt>
      <trkpt lat="4.7492720" lon="-74.3506630">
        <ele>2668.3</ele>
        <time>2018-08-10T15:29:59Z</time>
      </trkpt>
      <trkpt lat="4.7493180" lon="-74.3506850">
        <ele>2668.6</ele>
        <time>2018-08-10T15:30:01Z</time>
      </trkpt>
      <trkpt lat="4.7493430" lon="-74.3506970">
        <ele>2669.2</ele>
        <time>2018-08-10T15:30:02Z</time>
      </trkpt>
      <trkpt lat="4.7493870" lon="-74.3507000">
        <ele>2670.0</ele>
        <time>2018-08-10T15:30:04Z</time>
      </trkpt>
      <trkpt lat="4.7494250" lon="-74.3507200">
        <ele>2670.5</ele>
        <time>2018-08-10T15:30:06Z</time>
      </trkpt>
      <trkpt lat="4.7494680" lon="-74.3507370">
        <ele>2670.9</ele>
        <time>2018-08-10T15:30:08Z</time>
      </trkpt>
      <trkpt lat="4.7495080" lon="-74.3507530">
        <ele>2671.6</ele>
        <time>2018-08-10T15:30:10Z</time>
      </trkpt>
      <trkpt lat="4.7495480" lon="-74.3507700">
        <ele>2672.3</ele>
        <time>2018-08-10T15:30:12Z</time>
      </trkpt>
      <trkpt lat="4.7495880" lon="-74.3507780">
        <ele>2672.7</ele>
        <time>2018-08-10T15:30:14Z</time>
      </trkpt>
      <trkpt lat="4.7496250" lon="-74.3507900">
        <ele>2673.0</ele>
        <time>2018-08-10T15:30:16Z</time>
      </trkpt>
      <trkpt lat="4.7496720" lon="-74.3508050">
        <ele>2674.0</ele>
        <time>2018-08-10T15:30:18Z</time>
      </trkpt>
      <trkpt lat="4.7497200" lon="-74.3508130">
        <ele>2674.9</ele>
        <time>2018-08-10T15:30:20Z</time>
      </trkpt>
      <trkpt lat="4.7497520" lon="-74.3508370">
        <ele>2675.1</ele>
        <time>2018-08-10T15:30:22Z</time>
      </trkpt>
      <trkpt lat="4.7497950" lon="-74.3508580">
        <ele>2675.5</ele>
        <time>2018-08-10T15:30:24Z</time>
      </trkpt>
      <trkpt lat="4.7498250" lon="-74.3508670">
        <ele>2675.9</ele>
        <time>2018-08-10T15:30:25Z</time>
      </trkpt>
      <trkpt lat="4.7498530" lon="-74.3508750">
        <ele>2676.5</ele>
        <time>2018-08-10T15:30:26Z</time>
      </trkpt>
      <trkpt lat="4.7498820" lon="-74.3508780">
        <ele>2677.0</ele>
        <time>2018-08-10T15:30:27Z</time>
      </trkpt>
      <trkpt lat="4.7499270" lon="-74.3508900">
        <ele>2677.5</ele>
        <time>2018-08-10T15:30:29Z</time>
      </trkpt>
      <trkpt lat="4.7499700" lon="-74.3509070">
        <ele>2677.9</ele>
        <time>2018-08-10T15:30:31Z</time>
      </trkpt>
      <trkpt lat="4.7500150" lon="-74.3509280">
        <ele>2678.6</ele>
        <time>2018-08-10T15:30:33Z</time>
      </trkpt>
      <trkpt lat="4.7500550" lon="-74.3509430">
        <ele>2679.4</ele>
        <time>2018-08-10T15:30:35Z</time>
      </trkpt>
      <trkpt lat="4.7500980" lon="-74.3509420">
        <ele>2679.8</ele>
        <time>2018-08-10T15:30:37Z</time>
      </trkpt>
      <trkpt lat="4.7501370" lon="-74.3509450">
        <ele>2680.2</ele>
        <time>2018-08-10T15:30:39Z</time>
      </trkpt>
      <trkpt lat="4.7501730" lon="-74.3509370">
        <ele>2680.8</ele>
        <time>2018-08-10T15:30:41Z</time>
      </trkpt>
      <trkpt lat="4.7502100" lon="-74.3509350">
        <ele>2681.8</ele>
        <time>2018-08-10T15:30:43Z</time>
      </trkpt>
      <trkpt lat="4.7502450" lon="-74.3509300">
        <ele>2682.3</ele>
        <time>2018-08-10T15:30:45Z</time>
      </trkpt>
      <trkpt lat="4.7502800" lon="-74.3509380">
        <ele>2682.7</ele>
        <time>2018-08-10T15:30:47Z</time>
      </trkpt>
      <trkpt lat="4.7503130" lon="-74.3509400">
        <ele>2683.7</ele>
        <time>2018-08-10T15:30:49Z</time>
      </trkpt>
      <trkpt lat="4.7503470" lon="-74.3509580">
        <ele>2684.6</ele>
        <time>2018-08-10T15:30:51Z</time>
      </trkpt>
      <trkpt lat="4.7503820" lon="-74.3509670">
        <ele>2685.4</ele>
        <time>2018-08-10T15:30:53Z</time>
      </trkpt>
      <trkpt lat="4.7504100" lon="-74.3509700">
        <ele>2686.4</ele>
        <time>2018-08-10T15:30:55Z</time>
      </trkpt>
      <trkpt lat="4.7504470" lon="-74.3509620">
        <ele>2687.4</ele>
        <time>2018-08-10T15:30:57Z</time>
      </trkpt>
      <trkpt lat="4.7504830" lon="-74.3509580">
        <ele>2688.6</ele>
        <time>2018-08-10T15:30:59Z</time>
      </trkpt>
      <trkpt lat="4.7505180" lon="-74.3509570">
        <ele>2689.3</ele>
        <time>2018-08-10T15:31:01Z</time>
      </trkpt>
      <trkpt lat="4.7505530" lon="-74.3509520">
        <ele>2689.9</ele>
        <time>2018-08-10T15:31:03Z</time>
      </trkpt>
      <trkpt lat="4.7505870" lon="-74.3509470">
        <ele>2690.9</ele>
        <time>2018-08-10T15:31:05Z</time>
      </trkpt>
      <trkpt lat="4.7506200" lon="-74.3509450">
        <ele>2691.4</ele>
        <time>2018-08-10T15:31:07Z</time>
      </trkpt>
      <trkpt lat="4.7506520" lon="-74.3509430">
        <ele>2691.9</ele>
        <time>2018-08-10T15:31:09Z</time>
      </trkpt>
      <trkpt lat="4.7506900" lon="-74.3509480">
        <ele>2693.0</ele>
        <time>2018-08-10T15:31:11Z</time>
      </trkpt>
      <trkpt lat="4.7507250" lon="-74.3509530">
        <ele>2693.7</ele>
        <time>2018-08-10T15:31:13Z</time>
      </trkpt>
      <trkpt lat="4.7507630" lon="-74.3509520">
        <ele>2694.4</ele>
        <time>2018-08-10T15:31:15Z</time>
      </trkpt>
      <trkpt lat="4.7507970" lon="-74.3509450">
        <ele>2695.2</ele>
        <time>2018-08-10T15:31:17Z</time>
      </trkpt>
      <trkpt lat="4.7508300" lon="-74.3509500">
        <ele>2696.0</ele>
        <time>2018-08-10T15:31:19Z</time>
      </trkpt>
      <trkpt lat="4.7508680" lon="-74.3509580">
        <ele>2696.6</ele>
        <time>2018-08-10T15:31:21Z</time>
      </trkpt>
      <trkpt lat="4.7509050" lon="-74.3509680">
        <ele>2698.1</ele>
        <time>2018-08-10T15:31:23Z</time>
      </trkpt>
      <trkpt lat="4.7509370" lon="-74.3509720">
        <ele>2699.0</ele>
        <time>2018-08-10T15:31:24Z</time>
      </trkpt>
      <trkpt lat="4.7509750" lon="-74.3509670">
        <ele>2700.1</ele>
        <time>2018-08-10T15:31:26Z</time>
      </trkpt>
      <trkpt lat="4.7510050" lon="-74.3509630">
        <ele>2700.8</ele>
        <time>2018-08-10T15:31:28Z</time>
      </trkpt>
      <trkpt lat="4.7510470" lon="-74.3509680">
        <ele>2701.4</ele>
        <time>2018-08-10T15:31:31Z</time>
      </trkpt>
      <trkpt lat="4.7510770" lon="-74.3509750">
        <ele>2702.1</ele>
        <time>2018-08-10T15:31:33Z</time>
      </trkpt>
      <trkpt lat="4.7511050" lon="-74.3509780">
        <ele>2702.9</ele>
        <time>2018-08-10T15:31:35Z</time>
      </trkpt>
      <trkpt lat="4.7511370" lon="-74.3509980">
        <ele>2703.7</ele>
        <time>2018-08-10T15:31:38Z</time>
      </trkpt>
      <trkpt lat="4.7511750" lon="-74.3509850">
        <ele>2705.1</ele>
        <time>2018-08-10T15:31:40Z</time>
      </trkpt>
      <trkpt lat="4.7512120" lon="-74.3509750">
        <ele>2705.7</ele>
        <time>2018-08-10T15:31:43Z</time>
      </trkpt>
      <trkpt lat="4.7512470" lon="-74.3509850">
        <ele>2706.8</ele>
        <time>2018-08-10T15:31:45Z</time>
      </trkpt>
      <trkpt lat="4.7512820" lon="-74.3510150">
        <ele>2707.9</ele>
        <time>2018-08-10T15:31:47Z</time>
      </trkpt>
      <trkpt lat="4.7513070" lon="-74.3510270">
        <ele>2708.6</ele>
        <time>2018-08-10T15:31:48Z</time>
      </trkpt>
      <trkpt lat="4.7513450" lon="-74.3510420">
        <ele>2709.9</ele>
        <time>2018-08-10T15:31:50Z</time>
      </trkpt>
      <trkpt lat="4.7513820" lon="-74.3510520">
        <ele>2710.4</ele>
        <time>2018-08-10T15:31:52Z</time>
      </trkpt>
      <trkpt lat="4.7514220" lon="-74.3510700">
        <ele>2711.6</ele>
        <time>2018-08-10T15:31:54Z</time>
      </trkpt>
      <trkpt lat="4.7514550" lon="-74.3511150">
        <ele>2712.7</ele>
        <time>2018-08-10T15:31:55Z</time>
      </trkpt>
      <trkpt lat="4.7515020" lon="-74.3511300">
        <ele>2713.5</ele>
        <time>2018-08-10T15:31:57Z</time>
      </trkpt>
      <trkpt lat="4.7515350" lon="-74.3511280">
        <ele>2714.3</ele>
        <time>2018-08-10T15:31:59Z</time>
      </trkpt>
      <trkpt lat="4.7515680" lon="-74.3511180">
        <ele>2714.9</ele>
        <time>2018-08-10T15:32:01Z</time>
      </trkpt>
      <trkpt lat="4.7516030" lon="-74.3511180">
        <ele>2715.1</ele>
        <time>2018-08-10T15:32:03Z</time>
      </trkpt>
      <trkpt lat="4.7516400" lon="-74.3511350">
        <ele>2715.5</ele>
        <time>2018-08-10T15:32:05Z</time>
      </trkpt>
      <trkpt lat="4.7516800" lon="-74.3511450">
        <ele>2716.1</ele>
        <time>2018-08-10T15:32:07Z</time>
      </trkpt>
      <trkpt lat="4.7517180" lon="-74.3511520">
        <ele>2716.9</ele>
        <time>2018-08-10T15:32:09Z</time>
      </trkpt>
      <trkpt lat="4.7517550" lon="-74.3511580">
        <ele>2717.4</ele>
        <time>2018-08-10T15:32:11Z</time>
      </trkpt>
      <trkpt lat="4.7517950" lon="-74.3511680">
        <ele>2717.8</ele>
        <time>2018-08-10T15:32:13Z</time>
      </trkpt>
      <trkpt lat="4.7518320" lon="-74.3511800">
        <ele>2718.3</ele>
        <time>2018-08-10T15:32:15Z</time>
      </trkpt>
      <trkpt lat="4.7518750" lon="-74.3511880">
        <ele>2719.5</ele>
        <time>2018-08-10T15:32:17Z</time>
      </trkpt>
      <trkpt lat="4.7519170" lon="-74.3511950">
        <ele>2720.0</ele>
        <time>2018-08-10T15:32:19Z</time>
      </trkpt>
      <trkpt lat="4.7519580" lon="-74.3512050">
        <ele>2720.6</ele>
        <time>2018-08-10T15:32:21Z</time>
      </trkpt>
      <trkpt lat="4.7520080" lon="-74.3512070">
        <ele>2721.6</ele>
        <time>2018-08-10T15:32:23Z</time>
      </trkpt>
      <trkpt lat="4.7520550" lon="-74.3512080">
        <ele>2722.3</ele>
        <time>2018-08-10T15:32:25Z</time>
      </trkpt>
      <trkpt lat="4.7520980" lon="-74.3512250">
        <ele>2722.7</ele>
        <time>2018-08-10T15:32:27Z</time>
      </trkpt>
      <trkpt lat="4.7521270" lon="-74.3512420">
        <ele>2723.5</ele>
        <time>2018-08-10T15:32:28Z</time>
      </trkpt>
      <trkpt lat="4.7521520" lon="-74.3512530">
        <ele>2724.0</ele>
        <time>2018-08-10T15:32:29Z</time>
      </trkpt>
      <trkpt lat="4.7521850" lon="-74.3512620">
        <ele>2724.4</ele>
        <time>2018-08-10T15:32:30Z</time>
      </trkpt>
      <trkpt lat="4.7522120" lon="-74.3512680">
        <ele>2724.7</ele>
        <time>2018-08-10T15:32:31Z</time>
      </trkpt>
      <trkpt lat="4.7522680" lon="-74.3512750">
        <ele>2725.7</ele>
        <time>2018-08-10T15:32:33Z</time>
      </trkpt>
      <trkpt lat="4.7522970" lon="-74.3512800">
        <ele>2726.2</ele>
        <time>2018-08-10T15:32:34Z</time>
      </trkpt>
      <trkpt lat="4.7523220" lon="-74.3512920">
        <ele>2726.4</ele>
        <time>2018-08-10T15:32:35Z</time>
      </trkpt>
      <trkpt lat="4.7523650" lon="-74.3513120">
        <ele>2726.8</ele>
        <time>2018-08-10T15:32:37Z</time>
      </trkpt>
      <trkpt lat="4.7523950" lon="-74.3513230">
        <ele>2727.2</ele>
        <time>2018-08-10T15:32:38Z</time>
      </trkpt>
      <trkpt lat="4.7524280" lon="-74.3513270">
        <ele>2727.8</ele>
        <time>2018-08-10T15:32:39Z</time>
      </trkpt>
      <trkpt lat="4.7524600" lon="-74.3513250">
        <ele>2728.3</ele>
        <time>2018-08-10T15:32:40Z</time>
      </trkpt>
      <trkpt lat="4.7524920" lon="-74.3513230">
        <ele>2728.6</ele>
        <time>2018-08-10T15:32:41Z</time>
      </trkpt>
      <trkpt lat="4.7525270" lon="-74.3513220">
        <ele>2728.8</ele>
        <time>2018-08-10T15:32:42Z</time>
      </trkpt>
      <trkpt lat="4.7525600" lon="-74.3513180">
        <ele>2728.9</ele>
        <time>2018-08-10T15:32:43Z</time>
      </trkpt>
      <trkpt lat="4.7525970" lon="-74.3513170">
        <ele>2729.1</ele>
        <time>2018-08-10T15:32:44Z</time>
      </trkpt>
      <trkpt lat="4.7526350" lon="-74.3513180">
        <ele>2729.3</ele>
        <time>2018-08-10T15:32:45Z</time>
      </trkpt>
      <trkpt lat="4.7526730" lon="-74.3513150">
        <ele>2729.4</ele>
        <time>2018-08-10T15:32:46Z</time>
      </trkpt>
      <trkpt lat="4.7527050" lon="-74.3513080">
        <ele>2729.6</ele>
        <time>2018-08-10T15:32:47Z</time>
      </trkpt>
      <trkpt lat="4.7527320" lon="-74.3513000">
        <ele>2729.8</ele>
        <time>2018-08-10T15:32:48Z</time>
      </trkpt>
      <trkpt lat="4.7527670" lon="-74.3512930">
        <ele>2730.3</ele>
        <time>2018-08-10T15:32:49Z</time>
      </trkpt>
      <trkpt lat="4.7528020" lon="-74.3512900">
        <ele>2730.9</ele>
        <time>2018-08-10T15:32:50Z</time>
      </trkpt>
      <trkpt lat="4.7528330" lon="-74.3512870">
        <ele>2731.2</ele>
        <time>2018-08-10T15:32:51Z</time>
      </trkpt>
      <trkpt lat="4.7528670" lon="-74.3512780">
        <ele>2731.4</ele>
        <time>2018-08-10T15:32:52Z</time>
      </trkpt>
      <trkpt lat="4.7529030" lon="-74.3512820">
        <ele>2731.6</ele>
        <time>2018-08-10T15:32:53Z</time>
      </trkpt>
      <trkpt lat="4.7529420" lon="-74.3512820">
        <ele>2731.9</ele>
        <time>2018-08-10T15:32:54Z</time>
      </trkpt>
      <trkpt lat="4.7529800" lon="-74.3512830">
        <ele>2732.3</ele>
        <time>2018-08-10T15:32:55Z</time>
      </trkpt>
      <trkpt lat="4.7530150" lon="-74.3512880">
        <ele>2732.8</ele>
        <time>2018-08-10T15:32:56Z</time>
      </trkpt>
      <trkpt lat="4.7530520" lon="-74.3513070">
        <ele>2733.1</ele>
        <time>2018-08-10T15:32:57Z</time>
      </trkpt>
      <trkpt lat="4.7530920" lon="-74.3513320">
        <ele>2733.3</ele>
        <time>2018-08-10T15:32:58Z</time>
      </trkpt>
      <trkpt lat="4.7531370" lon="-74.3513350">
        <ele>2733.5</ele>
        <time>2018-08-10T15:32:59Z</time>
      </trkpt>
      <trkpt lat="4.7531770" lon="-74.3513370">
        <ele>2733.6</ele>
        <time>2018-08-10T15:33:00Z</time>
      </trkpt>
      <trkpt lat="4.7532120" lon="-74.3513370">
        <ele>2733.7</ele>
        <time>2018-08-10T15:33:01Z</time>
      </trkpt>
      <trkpt lat="4.7532530" lon="-74.3513520">
        <ele>2733.8</ele>
        <time>2018-08-10T15:33:02Z</time>
      </trkpt>
      <trkpt lat="4.7532880" lon="-74.3513580">
        <ele>2733.9</ele>
        <time>2018-08-10T15:33:03Z</time>
      </trkpt>
      <trkpt lat="4.7533220" lon="-74.3513630">
        <ele>2734.0</ele>
        <time>2018-08-10T15:33:04Z</time>
      </trkpt>
      <trkpt lat="4.7533580" lon="-74.3513720">
        <ele>2734.1</ele>
        <time>2018-08-10T15:33:05Z</time>
      </trkpt>
      <trkpt lat="4.7533930" lon="-74.3513780">
        <ele>2734.2</ele>
        <time>2018-08-10T15:33:06Z</time>
      </trkpt>
      <trkpt lat="4.7534230" lon="-74.3513880">
        <ele>2734.3</ele>
        <time>2018-08-10T15:33:07Z</time>
      </trkpt>
      <trkpt lat="4.7534570" lon="-74.3513980">
        <ele>2734.6</ele>
        <time>2018-08-10T15:33:08Z</time>
      </trkpt>
      <trkpt lat="4.7534920" lon="-74.3514080">
        <ele>2735.1</ele>
        <time>2018-08-10T15:33:09Z</time>
      </trkpt>
      <trkpt lat="4.7535300" lon="-74.3514200">
        <ele>2735.6</ele>
        <time>2018-08-10T15:33:10Z</time>
      </trkpt>
      <trkpt lat="4.7535700" lon="-74.3514270">
        <ele>2736.0</ele>
        <time>2018-08-10T15:33:11Z</time>
      </trkpt>
      <trkpt lat="4.7536180" lon="-74.3514370">
        <ele>2736.2</ele>
        <time>2018-08-10T15:33:12Z</time>
      </trkpt>
      <trkpt lat="4.7536700" lon="-74.3514500">
        <ele>2736.6</ele>
        <time>2018-08-10T15:33:13Z</time>
      </trkpt>
      <trkpt lat="4.7537250" lon="-74.3514620">
        <ele>2737.3</ele>
        <time>2018-08-10T15:33:14Z</time>
      </trkpt>
      <trkpt lat="4.7537820" lon="-74.3514730">
        <ele>2737.7</ele>
        <time>2018-08-10T15:33:15Z</time>
      </trkpt>
      <trkpt lat="4.7538420" lon="-74.3514830">
        <ele>2737.9</ele>
        <time>2018-08-10T15:33:16Z</time>
      </trkpt>
      <trkpt lat="4.7539000" lon="-74.3514920">
        <ele>2737.9</ele>
        <time>2018-08-10T15:33:17Z</time>
      </trkpt>
      <trkpt lat="4.7539550" lon="-74.3515000">
        <ele>2737.9</ele>
        <time>2018-08-10T15:33:18Z</time>
      </trkpt>
      <trkpt lat="4.7540080" lon="-74.3515030">
        <ele>2738.0</ele>
        <time>2018-08-10T15:33:19Z</time>
      </trkpt>
      <trkpt lat="4.7540580" lon="-74.3515080">
        <ele>2738.0</ele>
        <time>2018-08-10T15:33:20Z</time>
      </trkpt>
      <trkpt lat="4.7541070" lon="-74.3515130">
        <ele>2737.9</ele>
        <time>2018-08-10T15:33:21Z</time>
      </trkpt>
      <trkpt lat="4.7541580" lon="-74.3515120">
        <ele>2737.9</ele>
        <time>2018-08-10T15:33:22Z</time>
      </trkpt>
      <trkpt lat="4.7542120" lon="-74.3515180">
        <ele>2737.9</ele>
        <time>2018-08-10T15:33:23Z</time>
      </trkpt>
      <trkpt lat="4.7542620" lon="-74.3515150">
        <ele>2737.8</ele>
        <time>2018-08-10T15:33:24Z</time>
      </trkpt>
      <trkpt lat="4.7543130" lon="-74.3515220">
        <ele>2737.6</ele>
        <time>2018-08-10T15:33:25Z</time>
      </trkpt>
      <trkpt lat="4.7543650" lon="-74.3515250">
        <ele>2737.4</ele>
        <time>2018-08-10T15:33:26Z</time>
      </trkpt>
      <trkpt lat="4.7544150" lon="-74.3515270">
        <ele>2737.1</ele>
        <time>2018-08-10T15:33:27Z</time>
      </trkpt>
      <trkpt lat="4.7544650" lon="-74.3515300">
        <ele>2736.9</ele>
        <time>2018-08-10T15:33:28Z</time>
      </trkpt>
      <trkpt lat="4.7545230" lon="-74.3515350">
        <ele>2736.7</ele>
        <time>2018-08-10T15:33:29Z</time>
      </trkpt>
      <trkpt lat="4.7545870" lon="-74.3515420">
        <ele>2736.7</ele>
        <time>2018-08-10T15:33:30Z</time>
      </trkpt>
      <trkpt lat="4.7546470" lon="-74.3515470">
        <ele>2736.6</ele>
        <time>2018-08-10T15:33:31Z</time>
      </trkpt>
      <trkpt lat="4.7547030" lon="-74.3515570">
        <ele>2736.5</ele>
        <time>2018-08-10T15:33:32Z</time>
      </trkpt>
      <trkpt lat="4.7547570" lon="-74.3515580">
        <ele>2736.5</ele>
        <time>2018-08-10T15:33:33Z</time>
      </trkpt>
      <trkpt lat="4.7548150" lon="-74.3515670">
        <ele>2736.5</ele>
        <time>2018-08-10T15:33:34Z</time>
      </trkpt>
      <trkpt lat="4.7548730" lon="-74.3515780">
        <ele>2736.5</ele>
        <time>2018-08-10T15:33:35Z</time>
      </trkpt>
      <trkpt lat="4.7549250" lon="-74.3515900">
        <ele>2736.5</ele>
        <time>2018-08-10T15:33:36Z</time>
      </trkpt>
      <trkpt lat="4.7549730" lon="-74.3516050">
        <ele>2736.5</ele>
        <time>2018-08-10T15:33:37Z</time>
      </trkpt>
      <trkpt lat="4.7550220" lon="-74.3516230">
        <ele>2736.5</ele>
        <time>2018-08-10T15:33:38Z</time>
      </trkpt>
      <trkpt lat="4.7550700" lon="-74.3516380">
        <ele>2736.5</ele>
        <time>2018-08-10T15:33:39Z</time>
      </trkpt>
      <trkpt lat="4.7551180" lon="-74.3516550">
        <ele>2736.5</ele>
        <time>2018-08-10T15:33:40Z</time>
      </trkpt>
      <trkpt lat="4.7551620" lon="-74.3516700">
        <ele>2736.5</ele>
        <time>2018-08-10T15:33:41Z</time>
      </trkpt>
      <trkpt lat="4.7552030" lon="-74.3516830">
        <ele>2736.5</ele>
        <time>2018-08-10T15:33:42Z</time>
      </trkpt>
      <trkpt lat="4.7552430" lon="-74.3516930">
        <ele>2736.6</ele>
        <time>2018-08-10T15:33:43Z</time>
      </trkpt>
      <trkpt lat="4.7552820" lon="-74.3517070">
        <ele>2736.6</ele>
        <time>2018-08-10T15:33:44Z</time>
      </trkpt>
      <trkpt lat="4.7553200" lon="-74.3517280">
        <ele>2736.7</ele>
        <time>2018-08-10T15:33:45Z</time>
      </trkpt>
      <trkpt lat="4.7553600" lon="-74.3517520">
        <ele>2736.8</ele>
        <time>2018-08-10T15:33:46Z</time>
      </trkpt>
      <trkpt lat="4.7553980" lon="-74.3517750">
        <ele>2736.8</ele>
        <time>2018-08-10T15:33:47Z</time>
      </trkpt>
      <trkpt lat="4.7554330" lon="-74.3517930">
        <ele>2736.9</ele>
        <time>2018-08-10T15:33:48Z</time>
      </trkpt>
      <trkpt lat="4.7554680" lon="-74.3518050">
        <ele>2737.0</ele>
        <time>2018-08-10T15:33:49Z</time>
      </trkpt>
      <trkpt lat="4.7555030" lon="-74.3518280">
        <ele>2737.1</ele>
        <time>2018-08-10T15:33:50Z</time>
      </trkpt>
      <trkpt lat="4.7555430" lon="-74.3518570">
        <ele>2737.2</ele>
        <time>2018-08-10T15:33:51Z</time>
      </trkpt>
      <trkpt lat="4.7555820" lon="-74.3518820">
        <ele>2737.4</ele>
        <time>2018-08-10T15:33:52Z</time>
      </trkpt>
      <trkpt lat="4.7556170" lon="-74.3519080">
        <ele>2737.5</ele>
        <time>2018-08-10T15:33:53Z</time>
      </trkpt>
      <trkpt lat="4.7556520" lon="-74.3519330">
        <ele>2737.7</ele>
        <time>2018-08-10T15:33:54Z</time>
      </trkpt>
      <trkpt lat="4.7556920" lon="-74.3519630">
        <ele>2738.2</ele>
        <time>2018-08-10T15:33:55Z</time>
      </trkpt>
      <trkpt lat="4.7557270" lon="-74.3519920">
        <ele>2738.6</ele>
        <time>2018-08-10T15:33:56Z</time>
      </trkpt>
      <trkpt lat="4.7557570" lon="-74.3520200">
        <ele>2738.8</ele>
        <time>2018-08-10T15:33:57Z</time>
      </trkpt>
      <trkpt lat="4.7557880" lon="-74.3520470">
        <ele>2739.0</ele>
        <time>2018-08-10T15:33:58Z</time>
      </trkpt>
      <trkpt lat="4.7558130" lon="-74.3521000">
        <ele>2739.2</ele>
        <time>2018-08-10T15:33:59Z</time>
      </trkpt>
      <trkpt lat="4.7558550" lon="-74.3521300">
        <ele>2739.4</ele>
        <time>2018-08-10T15:34:00Z</time>
      </trkpt>
      <trkpt lat="4.7558900" lon="-74.3521600">
        <ele>2739.6</ele>
        <time>2018-08-10T15:34:01Z</time>
      </trkpt>
      <trkpt lat="4.7559200" lon="-74.3521820">
        <ele>2739.8</ele>
        <time>2018-08-10T15:34:02Z</time>
      </trkpt>
      <trkpt lat="4.7559480" lon="-74.3522020">
        <ele>2740.0</ele>
        <time>2018-08-10T15:34:03Z</time>
      </trkpt>
      <trkpt lat="4.7559770" lon="-74.3522270">
        <ele>2740.5</ele>
        <time>2018-08-10T15:34:04Z</time>
      </trkpt>
      <trkpt lat="4.7560120" lon="-74.3522530">
        <ele>2741.0</ele>
        <time>2018-08-10T15:34:05Z</time>
      </trkpt>
      <trkpt lat="4.7560430" lon="-74.3522770">
        <ele>2741.3</ele>
        <time>2018-08-10T15:34:06Z</time>
      </trkpt>
      <trkpt lat="4.7560720" lon="-74.3522900">
        <ele>2741.5</ele>
        <time>2018-08-10T15:34:07Z</time>
      </trkpt>
      <trkpt lat="4.7561020" lon="-74.3523080">
        <ele>2741.8</ele>
        <time>2018-08-10T15:34:08Z</time>
      </trkpt>
      <trkpt lat="4.7561280" lon="-74.3523270">
        <ele>2742.1</ele>
        <time>2018-08-10T15:34:09Z</time>
      </trkpt>
      <trkpt lat="4.7561500" lon="-74.3523430">
        <ele>2742.5</ele>
        <time>2018-08-10T15:34:10Z</time>
      </trkpt>
      <trkpt lat="4.7561770" lon="-74.3523620">
        <ele>2743.2</ele>
        <time>2018-08-10T15:34:11Z</time>
      </trkpt>
      <trkpt lat="4.7562020" lon="-74.3523800">
        <ele>2743.6</ele>
        <time>2018-08-10T15:34:12Z</time>
      </trkpt>
      <trkpt lat="4.7562250" lon="-74.3523980">
        <ele>2743.9</ele>
        <time>2018-08-10T15:34:13Z</time>
      </trkpt>
      <trkpt lat="4.7562670" lon="-74.3524270">
        <ele>2744.3</ele>
        <time>2018-08-10T15:34:15Z</time>
      </trkpt>
      <trkpt lat="4.7563050" lon="-74.3524500">
        <ele>2744.8</ele>
        <time>2018-08-10T15:34:17Z</time>
      </trkpt>
      <trkpt lat="4.7563420" lon="-74.3524720">
        <ele>2745.7</ele>
        <time>2018-08-10T15:34:19Z</time>
      </trkpt>
      <trkpt lat="4.7563800" lon="-74.3525000">
        <ele>2746.4</ele>
        <time>2018-08-10T15:34:21Z</time>
      </trkpt>
      <trkpt lat="4.7564270" lon="-74.3525220">
        <ele>2747.0</ele>
        <time>2018-08-10T15:34:23Z</time>
      </trkpt>
      <trkpt lat="4.7564670" lon="-74.3525320">
        <ele>2748.2</ele>
        <time>2018-08-10T15:34:25Z</time>
      </trkpt>
      <trkpt lat="4.7565080" lon="-74.3525470">
        <ele>2748.8</ele>
        <time>2018-08-10T15:34:27Z</time>
      </trkpt>
      <trkpt lat="4.7565470" lon="-74.3525630">
        <ele>2749.9</ele>
        <time>2018-08-10T15:34:29Z</time>
      </trkpt>
      <trkpt lat="4.7565830" lon="-74.3525850">
        <ele>2750.9</ele>
        <time>2018-08-10T15:34:31Z</time>
      </trkpt>
      <trkpt lat="4.7566120" lon="-74.3526050">
        <ele>2752.0</ele>
        <time>2018-08-10T15:34:33Z</time>
      </trkpt>
      <trkpt lat="4.7566430" lon="-74.3526170">
        <ele>2753.1</ele>
        <time>2018-08-10T15:34:35Z</time>
      </trkpt>
      <trkpt lat="4.7566770" lon="-74.3526180">
        <ele>2753.8</ele>
        <time>2018-08-10T15:34:37Z</time>
      </trkpt>
      <trkpt lat="4.7567070" lon="-74.3526320">
        <ele>2755.0</ele>
        <time>2018-08-10T15:34:39Z</time>
      </trkpt>
      <trkpt lat="4.7567350" lon="-74.3526430">
        <ele>2755.6</ele>
        <time>2018-08-10T15:34:41Z</time>
      </trkpt>
      <trkpt lat="4.7567630" lon="-74.3526600">
        <ele>2756.7</ele>
        <time>2018-08-10T15:34:43Z</time>
      </trkpt>
      <trkpt lat="4.7567880" lon="-74.3526730">
        <ele>2757.4</ele>
        <time>2018-08-10T15:34:45Z</time>
      </trkpt>
      <trkpt lat="4.7568200" lon="-74.3526880">
        <ele>2758.0</ele>
        <time>2018-08-10T15:34:47Z</time>
      </trkpt>
      <trkpt lat="4.7568580" lon="-74.3527020">
        <ele>2759.6</ele>
        <time>2018-08-10T15:34:50Z</time>
      </trkpt>
      <trkpt lat="4.7568880" lon="-74.3527080">
        <ele>2760.3</ele>
        <time>2018-08-10T15:34:52Z</time>
      </trkpt>
      <trkpt lat="4.7569150" lon="-74.3527300">
        <ele>2761.4</ele>
        <time>2018-08-10T15:34:54Z</time>
      </trkpt>
      <trkpt lat="4.7569470" lon="-74.3527420">
        <ele>2762.3</ele>
        <time>2018-08-10T15:34:56Z</time>
      </trkpt>
      <trkpt lat="4.7569780" lon="-74.3527500">
        <ele>2763.2</ele>
        <time>2018-08-10T15:34:58Z</time>
      </trkpt>
      <trkpt lat="4.7570120" lon="-74.3527700">
        <ele>2764.5</ele>
        <time>2018-08-10T15:35:01Z</time>
      </trkpt>
      <trkpt lat="4.7570300" lon="-74.3527920">
        <ele>2765.2</ele>
        <time>2018-08-10T15:35:03Z</time>
      </trkpt>
      <trkpt lat="4.7570600" lon="-74.3527950">
        <ele>2766.0</ele>
        <time>2018-08-10T15:35:05Z</time>
      </trkpt>
      <trkpt lat="4.7570880" lon="-74.3528080">
        <ele>2766.4</ele>
        <time>2018-08-10T15:35:07Z</time>
      </trkpt>
      <trkpt lat="4.7571250" lon="-74.3528230">
        <ele>2766.9</ele>
        <time>2018-08-10T15:35:09Z</time>
      </trkpt>
      <trkpt lat="4.7571650" lon="-74.3528300">
        <ele>2767.1</ele>
        <time>2018-08-10T15:35:11Z</time>
      </trkpt>
      <trkpt lat="4.7572030" lon="-74.3528370">
        <ele>2767.3</ele>
        <time>2018-08-10T15:35:13Z</time>
      </trkpt>
      <trkpt lat="4.7572480" lon="-74.3528480">
        <ele>2767.6</ele>
        <time>2018-08-10T15:35:15Z</time>
      </trkpt>
      <trkpt lat="4.7572850" lon="-74.3528600">
        <ele>2767.8</ele>
        <time>2018-08-10T15:35:17Z</time>
      </trkpt>
      <trkpt lat="4.7573220" lon="-74.3528670">
        <ele>2768.0</ele>
        <time>2018-08-10T15:35:19Z</time>
      </trkpt>
      <trkpt lat="4.7573650" lon="-74.3528900">
        <ele>2768.2</ele>
        <time>2018-08-10T15:35:21Z</time>
      </trkpt>
      <trkpt lat="4.7574130" lon="-74.3529200">
        <ele>2768.4</ele>
        <time>2018-08-10T15:35:23Z</time>
      </trkpt>
      <trkpt lat="4.7574330" lon="-74.3529380">
        <ele>2768.4</ele>
        <time>2018-08-10T15:35:24Z</time>
      </trkpt>
      <trkpt lat="4.7574800" lon="-74.3529620">
        <ele>2768.6</ele>
        <time>2018-08-10T15:35:26Z</time>
      </trkpt>
      <trkpt lat="4.7575270" lon="-74.3529780">
        <ele>2768.8</ele>
        <time>2018-08-10T15:35:28Z</time>
      </trkpt>
      <trkpt lat="4.7575530" lon="-74.3529900">
        <ele>2768.9</ele>
        <time>2018-08-10T15:35:29Z</time>
      </trkpt>
      <trkpt lat="4.7575970" lon="-74.3530170">
        <ele>2769.0</ele>
        <time>2018-08-10T15:35:31Z</time>
      </trkpt>
      <trkpt lat="4.7576200" lon="-74.3530420">
        <ele>2769.1</ele>
        <time>2018-08-10T15:35:32Z</time>
      </trkpt>
      <trkpt lat="4.7576720" lon="-74.3530670">
        <ele>2769.3</ele>
        <time>2018-08-10T15:35:34Z</time>
      </trkpt>
      <trkpt lat="4.7577020" lon="-74.3530750">
        <ele>2769.4</ele>
        <time>2018-08-10T15:35:35Z</time>
      </trkpt>
      <trkpt lat="4.7577300" lon="-74.3530870">
        <ele>2769.5</ele>
        <time>2018-08-10T15:35:36Z</time>
      </trkpt>
      <trkpt lat="4.7577670" lon="-74.3531000">
        <ele>2769.7</ele>
        <time>2018-08-10T15:35:38Z</time>
      </trkpt>
      <trkpt lat="4.7577920" lon="-74.3531520">
        <ele>2769.9</ele>
        <time>2018-08-10T15:35:40Z</time>
      </trkpt>
      <trkpt lat="4.7578270" lon="-74.3531870">
        <ele>2769.6</ele>
        <time>2018-08-10T15:35:42Z</time>
      </trkpt>
      <trkpt lat="4.7578530" lon="-74.3532120">
        <ele>2769.1</ele>
        <time>2018-08-10T15:35:44Z</time>
      </trkpt>
      <trkpt lat="4.7578880" lon="-74.3532370">
        <ele>2768.5</ele>
        <time>2018-08-10T15:35:46Z</time>
      </trkpt>
      <trkpt lat="4.7579220" lon="-74.3532550">
        <ele>2767.9</ele>
        <time>2018-08-10T15:35:48Z</time>
      </trkpt>
      <trkpt lat="4.7579430" lon="-74.3532770">
        <ele>2767.5</ele>
        <time>2018-08-10T15:35:50Z</time>
      </trkpt>
      <trkpt lat="4.7579620" lon="-74.3533020">
        <ele>2767.1</ele>
        <time>2018-08-10T15:35:52Z</time>
      </trkpt>
      <trkpt lat="4.7579930" lon="-74.3533270">
        <ele>2766.5</ele>
        <time>2018-08-10T15:35:54Z</time>
      </trkpt>
      <trkpt lat="4.7580180" lon="-74.3533550">
        <ele>2765.9</ele>
        <time>2018-08-10T15:35:56Z</time>
      </trkpt>
      <trkpt lat="4.7580430" lon="-74.3533850">
        <ele>2765.3</ele>
        <time>2018-08-10T15:35:58Z</time>
      </trkpt>
      <trkpt lat="4.7580680" lon="-74.3534180">
        <ele>2764.7</ele>
        <time>2018-08-10T15:36:00Z</time>
      </trkpt>
      <trkpt lat="4.7580880" lon="-74.3534400">
        <ele>2764.2</ele>
        <time>2018-08-10T15:36:02Z</time>
      </trkpt>
      <trkpt lat="4.7581020" lon="-74.3534720">
        <ele>2763.7</ele>
        <time>2018-08-10T15:36:04Z</time>
      </trkpt>
      <trkpt lat="4.7581130" lon="-74.3534970">
        <ele>2763.3</ele>
        <time>2018-08-10T15:36:05Z</time>
      </trkpt>
      <trkpt lat="4.7581380" lon="-74.3535350">
        <ele>2762.6</ele>
        <time>2018-08-10T15:36:07Z</time>
      </trkpt>
      <trkpt lat="4.7581650" lon="-74.3535780">
        <ele>2761.8</ele>
        <time>2018-08-10T15:36:09Z</time>
      </trkpt>
      <trkpt lat="4.7581870" lon="-74.3536170">
        <ele>2761.2</ele>
        <time>2018-08-10T15:36:11Z</time>
      </trkpt>
      <trkpt lat="4.7582070" lon="-74.3536370">
        <ele>2760.8</ele>
        <time>2018-08-10T15:36:12Z</time>
      </trkpt>
      <trkpt lat="4.7582250" lon="-74.3536580">
        <ele>2760.4</ele>
        <time>2018-08-10T15:36:13Z</time>
      </trkpt>
      <trkpt lat="4.7582580" lon="-74.3536920">
        <ele>2759.7</ele>
        <time>2018-08-10T15:36:15Z</time>
      </trkpt>
      <trkpt lat="4.7582870" lon="-74.3537130">
        <ele>2759.2</ele>
        <time>2018-08-10T15:36:17Z</time>
      </trkpt>
      <trkpt lat="4.7583030" lon="-74.3537350">
        <ele>2758.8</ele>
        <time>2018-08-10T15:36:18Z</time>
      </trkpt>
      <trkpt lat="4.7583370" lon="-74.3537670">
        <ele>2758.2</ele>
        <time>2018-08-10T15:36:20Z</time>
      </trkpt>
      <trkpt lat="4.7583600" lon="-74.3537830">
        <ele>2757.9</ele>
        <time>2018-08-10T15:36:21Z</time>
      </trkpt>
      <trkpt lat="4.7584050" lon="-74.3538100">
        <ele>2757.2</ele>
        <time>2018-08-10T15:36:23Z</time>
      </trkpt>
      <trkpt lat="4.7584450" lon="-74.3538380">
        <ele>2756.6</ele>
        <time>2018-08-10T15:36:25Z</time>
      </trkpt>
      <trkpt lat="4.7584850" lon="-74.3538530">
        <ele>2756.1</ele>
        <time>2018-08-10T15:36:27Z</time>
      </trkpt>
      <trkpt lat="4.7585280" lon="-74.3538850">
        <ele>2755.5</ele>
        <time>2018-08-10T15:36:29Z</time>
      </trkpt>
      <trkpt lat="4.7585530" lon="-74.3538980">
        <ele>2755.2</ele>
        <time>2018-08-10T15:36:30Z</time>
      </trkpt>
      <trkpt lat="4.7585720" lon="-74.3539230">
        <ele>2754.9</ele>
        <time>2018-08-10T15:36:31Z</time>
      </trkpt>
      <trkpt lat="4.7586000" lon="-74.3539620">
        <ele>2754.4</ele>
        <time>2018-08-10T15:36:33Z</time>
      </trkpt>
      <trkpt lat="4.7586370" lon="-74.3539850">
        <ele>2753.9</ele>
        <time>2018-08-10T15:36:36Z</time>
      </trkpt>
      <trkpt lat="4.7586630" lon="-74.3540220">
        <ele>2753.5</ele>
        <time>2018-08-10T15:36:38Z</time>
      </trkpt>
      <trkpt lat="4.7586830" lon="-74.3540680">
        <ele>2753.1</ele>
        <time>2018-08-10T15:36:40Z</time>
      </trkpt>
      <trkpt lat="4.7587070" lon="-74.3541120">
        <ele>2752.6</ele>
        <time>2018-08-10T15:36:42Z</time>
      </trkpt>
      <trkpt lat="4.7587330" lon="-74.3541430">
        <ele>2752.3</ele>
        <time>2018-08-10T15:36:44Z</time>
      </trkpt>
      <trkpt lat="4.7587420" lon="-74.3541700">
        <ele>2752.1</ele>
        <time>2018-08-10T15:36:45Z</time>
      </trkpt>
      <trkpt lat="4.7587570" lon="-74.3542000">
        <ele>2751.8</ele>
        <time>2018-08-10T15:36:47Z</time>
      </trkpt>
      <trkpt lat="4.7587630" lon="-74.3542500">
        <ele>2751.3</ele>
        <time>2018-08-10T15:36:49Z</time>
      </trkpt>
      <trkpt lat="4.7587870" lon="-74.3542850">
        <ele>2751.0</ele>
        <time>2018-08-10T15:36:51Z</time>
      </trkpt>
      <trkpt lat="4.7588080" lon="-74.3543200">
        <ele>2750.6</ele>
        <time>2018-08-10T15:36:53Z</time>
      </trkpt>
      <trkpt lat="4.7588330" lon="-74.3543520">
        <ele>2750.2</ele>
        <time>2018-08-10T15:36:55Z</time>
      </trkpt>
      <trkpt lat="4.7588570" lon="-74.3543820">
        <ele>2749.8</ele>
        <time>2018-08-10T15:36:57Z</time>
      </trkpt>
      <trkpt lat="4.7588800" lon="-74.3544100">
        <ele>2749.3</ele>
        <time>2018-08-10T15:36:59Z</time>
      </trkpt>
      <trkpt lat="4.7589000" lon="-74.3544400">
        <ele>2748.9</ele>
        <time>2018-08-10T15:37:01Z</time>
      </trkpt>
      <trkpt lat="4.7589180" lon="-74.3544730">
        <ele>2748.4</ele>
        <time>2018-08-10T15:37:03Z</time>
      </trkpt>
      <trkpt lat="4.7589350" lon="-74.3545030">
        <ele>2747.9</ele>
        <time>2018-08-10T15:37:05Z</time>
      </trkpt>
      <trkpt lat="4.7589650" lon="-74.3545180">
        <ele>2747.4</ele>
        <time>2018-08-10T15:37:07Z</time>
      </trkpt>
      <trkpt lat="4.7590020" lon="-74.3545120">
        <ele>2746.8</ele>
        <time>2018-08-10T15:37:10Z</time>
      </trkpt>
      <trkpt lat="4.7590450" lon="-74.3545570">
        <ele>2745.8</ele>
        <time>2018-08-10T15:37:16Z</time>
      </trkpt>
      <trkpt lat="4.7590930" lon="-74.3547530">
        <ele>2742.2</ele>
        <time>2018-08-10T15:37:26Z</time>
      </trkpt>
      <trkpt lat="4.7591100" lon="-74.3547900">
        <ele>2741.4</ele>
        <time>2018-08-10T15:37:28Z</time>
      </trkpt>
      <trkpt lat="4.7591200" lon="-74.3548230">
        <ele>2740.8</ele>
        <time>2018-08-10T15:37:30Z</time>
      </trkpt>
      <trkpt lat="4.7591350" lon="-74.3548630">
        <ele>2740.0</ele>
        <time>2018-08-10T15:37:32Z</time>
      </trkpt>
      <trkpt lat="4.7591450" lon="-74.3548970">
        <ele>2739.4</ele>
        <time>2018-08-10T15:37:34Z</time>
      </trkpt>
      <trkpt lat="4.7591480" lon="-74.3549300">
        <ele>2738.8</ele>
        <time>2018-08-10T15:37:36Z</time>
      </trkpt>
      <trkpt lat="4.7591700" lon="-74.3549580">
        <ele>2738.1</ele>
        <time>2018-08-10T15:37:38Z</time>
      </trkpt>
      <trkpt lat="4.7591850" lon="-74.3549900">
        <ele>2737.5</ele>
        <time>2018-08-10T15:37:40Z</time>
      </trkpt>
      <trkpt lat="4.7591970" lon="-74.3550200">
        <ele>2737.0</ele>
        <time>2018-08-10T15:37:42Z</time>
      </trkpt>
      <trkpt lat="4.7592170" lon="-74.3550420">
        <ele>2736.5</ele>
        <time>2018-08-10T15:37:44Z</time>
      </trkpt>
      <trkpt lat="4.7592280" lon="-74.3550800">
        <ele>2735.8</ele>
        <time>2018-08-10T15:37:51Z</time>
      </trkpt>
      <trkpt lat="4.7592430" lon="-74.3551030">
        <ele>2735.4</ele>
        <time>2018-08-10T15:37:53Z</time>
      </trkpt>
      <trkpt lat="4.7592820" lon="-74.3551350">
        <ele>2734.6</ele>
        <time>2018-08-10T15:37:55Z</time>
      </trkpt>
      <trkpt lat="4.7593080" lon="-74.3551720">
        <ele>2734.0</ele>
        <time>2018-08-10T15:37:57Z</time>
      </trkpt>
      <trkpt lat="4.7593280" lon="-74.3552050">
        <ele>2733.5</ele>
        <time>2018-08-10T15:37:59Z</time>
      </trkpt>
      <trkpt lat="4.7593500" lon="-74.3552380">
        <ele>2732.9</ele>
        <time>2018-08-10T15:38:01Z</time>
      </trkpt>
      <trkpt lat="4.7593780" lon="-74.3552750">
        <ele>2732.4</ele>
        <time>2018-08-10T15:38:03Z</time>
      </trkpt>
      <trkpt lat="4.7594020" lon="-74.3553130">
        <ele>2731.8</ele>
        <time>2018-08-10T15:38:05Z</time>
      </trkpt>
      <trkpt lat="4.7594300" lon="-74.3553470">
        <ele>2731.3</ele>
        <time>2018-08-10T15:38:07Z</time>
      </trkpt>
      <trkpt lat="4.7594530" lon="-74.3553820">
        <ele>2730.8</ele>
        <time>2018-08-10T15:38:09Z</time>
      </trkpt>
      <trkpt lat="4.7594780" lon="-74.3554170">
        <ele>2730.4</ele>
        <time>2018-08-10T15:38:11Z</time>
      </trkpt>
      <trkpt lat="4.7595050" lon="-74.3554530">
        <ele>2729.9</ele>
        <time>2018-08-10T15:38:13Z</time>
      </trkpt>
      <trkpt lat="4.7595300" lon="-74.3554930">
        <ele>2729.4</ele>
        <time>2018-08-10T15:38:15Z</time>
      </trkpt>
      <trkpt lat="4.7595550" lon="-74.3555320">
        <ele>2729.0</ele>
        <time>2018-08-10T15:38:17Z</time>
      </trkpt>
      <trkpt lat="4.7595750" lon="-74.3555780">
        <ele>2728.5</ele>
        <time>2018-08-10T15:38:19Z</time>
      </trkpt>
      <trkpt lat="4.7596000" lon="-74.3556170">
        <ele>2728.1</ele>
        <time>2018-08-10T15:38:21Z</time>
      </trkpt>
      <trkpt lat="4.7596220" lon="-74.3556480">
        <ele>2727.7</ele>
        <time>2018-08-10T15:38:23Z</time>
      </trkpt>
      <trkpt lat="4.7596450" lon="-74.3557050">
        <ele>2727.2</ele>
        <time>2018-08-10T15:38:25Z</time>
      </trkpt>
      <trkpt lat="4.7596600" lon="-74.3557330">
        <ele>2726.9</ele>
        <time>2018-08-10T15:38:26Z</time>
      </trkpt>
      <trkpt lat="4.7596750" lon="-74.3557600">
        <ele>2726.7</ele>
        <time>2018-08-10T15:38:27Z</time>
      </trkpt>
      <trkpt lat="4.7596920" lon="-74.3557930">
        <ele>2726.4</ele>
        <time>2018-08-10T15:38:28Z</time>
      </trkpt>
      <trkpt lat="4.7597150" lon="-74.3558170">
        <ele>2726.1</ele>
        <time>2018-08-10T15:38:29Z</time>
      </trkpt>
      <trkpt lat="4.7597350" lon="-74.3558420">
        <ele>2725.9</ele>
        <time>2018-08-10T15:38:30Z</time>
      </trkpt>
      <trkpt lat="4.7597500" lon="-74.3558670">
        <ele>2725.7</ele>
        <time>2018-08-10T15:38:31Z</time>
      </trkpt>
      <trkpt lat="4.7597620" lon="-74.3558970">
        <ele>2725.4</ele>
        <time>2018-08-10T15:38:32Z</time>
      </trkpt>
      <trkpt lat="4.7597750" lon="-74.3559250">
        <ele>2725.2</ele>
        <time>2018-08-10T15:38:33Z</time>
      </trkpt>
      <trkpt lat="4.7597880" lon="-74.3559520">
        <ele>2725.0</ele>
        <time>2018-08-10T15:38:34Z</time>
      </trkpt>
      <trkpt lat="4.7597980" lon="-74.3559830">
        <ele>2724.8</ele>
        <time>2018-08-10T15:38:35Z</time>
      </trkpt>
      <trkpt lat="4.7598130" lon="-74.3560080">
        <ele>2724.6</ele>
        <time>2018-08-10T15:38:36Z</time>
      </trkpt>
      <trkpt lat="4.7598250" lon="-74.3560330">
        <ele>2724.4</ele>
        <time>2018-08-10T15:38:37Z</time>
      </trkpt>
      <trkpt lat="4.7598370" lon="-74.3560830">
        <ele>2724.1</ele>
        <time>2018-08-10T15:38:39Z</time>
      </trkpt>
      <trkpt lat="4.7598350" lon="-74.3561320">
        <ele>2723.9</ele>
        <time>2018-08-10T15:38:41Z</time>
      </trkpt>
      <trkpt lat="4.7598370" lon="-74.3561830">
        <ele>2723.6</ele>
        <time>2018-08-10T15:38:43Z</time>
      </trkpt>
      <trkpt lat="4.7598480" lon="-74.3562170">
        <ele>2723.4</ele>
        <time>2018-08-10T15:38:44Z</time>
      </trkpt>
      <trkpt lat="4.7598570" lon="-74.3562470">
        <ele>2723.3</ele>
        <time>2018-08-10T15:38:45Z</time>
      </trkpt>
      <trkpt lat="4.7598630" lon="-74.3562730">
        <ele>2723.2</ele>
        <time>2018-08-10T15:38:46Z</time>
      </trkpt>
      <trkpt lat="4.7598680" lon="-74.3563000">
        <ele>2723.0</ele>
        <time>2018-08-10T15:38:47Z</time>
      </trkpt>
      <trkpt lat="4.7598730" lon="-74.3563280">
        <ele>2722.9</ele>
        <time>2018-08-10T15:38:48Z</time>
      </trkpt>
      <trkpt lat="4.7598800" lon="-74.3563580">
        <ele>2722.8</ele>
        <time>2018-08-10T15:38:49Z</time>
      </trkpt>
      <trkpt lat="4.7598870" lon="-74.3563870">
        <ele>2722.6</ele>
        <time>2018-08-10T15:38:50Z</time>
      </trkpt>
      <trkpt lat="4.7598920" lon="-74.3564150">
        <ele>2722.5</ele>
        <time>2018-08-10T15:38:51Z</time>
      </trkpt>
      <trkpt lat="4.7599020" lon="-74.3564700">
        <ele>2722.3</ele>
        <time>2018-08-10T15:38:53Z</time>
      </trkpt>
      <trkpt lat="4.7599180" lon="-74.3565130">
        <ele>2722.1</ele>
        <time>2018-08-10T15:38:55Z</time>
      </trkpt>
      <trkpt lat="4.7599250" lon="-74.3565470">
        <ele>2722.0</ele>
        <time>2018-08-10T15:38:56Z</time>
      </trkpt>
      <trkpt lat="4.7599330" lon="-74.3565830">
        <ele>2721.8</ele>
        <time>2018-08-10T15:38:57Z</time>
      </trkpt>
      <trkpt lat="4.7599450" lon="-74.3566170">
        <ele>2721.7</ele>
        <time>2018-08-10T15:38:58Z</time>
      </trkpt>
      <trkpt lat="4.7599570" lon="-74.3566520">
        <ele>2721.6</ele>
        <time>2018-08-10T15:38:59Z</time>
      </trkpt>
      <trkpt lat="4.7599680" lon="-74.3566800">
        <ele>2721.5</ele>
        <time>2018-08-10T15:39:00Z</time>
      </trkpt>
      <trkpt lat="4.7599800" lon="-74.3567100">
        <ele>2721.3</ele>
        <time>2018-08-10T15:39:01Z</time>
      </trkpt>
      <trkpt lat="4.7599930" lon="-74.3567450">
        <ele>2721.2</ele>
        <time>2018-08-10T15:39:02Z</time>
      </trkpt>
      <trkpt lat="4.7600080" lon="-74.3567780">
        <ele>2721.1</ele>
        <time>2018-08-10T15:39:03Z</time>
      </trkpt>
      <trkpt lat="4.7600220" lon="-74.3568100">
        <ele>2721.0</ele>
        <time>2018-08-10T15:39:04Z</time>
      </trkpt>
      <trkpt lat="4.7600370" lon="-74.3568400">
        <ele>2720.9</ele>
        <time>2018-08-10T15:39:05Z</time>
      </trkpt>
      <trkpt lat="4.7600600" lon="-74.3568750">
        <ele>2720.7</ele>
        <time>2018-08-10T15:39:06Z</time>
      </trkpt>
      <trkpt lat="4.7600820" lon="-74.3569070">
        <ele>2720.6</ele>
        <time>2018-08-10T15:39:07Z</time>
      </trkpt>
      <trkpt lat="4.7600970" lon="-74.3569430">
        <ele>2720.5</ele>
        <time>2018-08-10T15:39:08Z</time>
      </trkpt>
      <trkpt lat="4.7601080" lon="-74.3569730">
        <ele>2720.4</ele>
        <time>2018-08-10T15:39:09Z</time>
      </trkpt>
      <trkpt lat="4.7601250" lon="-74.3570080">
        <ele>2720.3</ele>
        <time>2018-08-10T15:39:10Z</time>
      </trkpt>
      <trkpt lat="4.7601400" lon="-74.3570470">
        <ele>2720.2</ele>
        <time>2018-08-10T15:39:11Z</time>
      </trkpt>
      <trkpt lat="4.7601480" lon="-74.3570800">
        <ele>2720.1</ele>
        <time>2018-08-10T15:39:12Z</time>
      </trkpt>
      <trkpt lat="4.7601600" lon="-74.3571130">
        <ele>2720.0</ele>
        <time>2018-08-10T15:39:13Z</time>
      </trkpt>
      <trkpt lat="4.7601700" lon="-74.3571530">
        <ele>2719.9</ele>
        <time>2018-08-10T15:39:14Z</time>
      </trkpt>
      <trkpt lat="4.7601870" lon="-74.3571950">
        <ele>2719.8</ele>
        <time>2018-08-10T15:39:15Z</time>
      </trkpt>
      <trkpt lat="4.7602000" lon="-74.3572300">
        <ele>2719.7</ele>
        <time>2018-08-10T15:39:16Z</time>
      </trkpt>
      <trkpt lat="4.7602170" lon="-74.3572650">
        <ele>2719.7</ele>
        <time>2018-08-10T15:39:17Z</time>
      </trkpt>
      <trkpt lat="4.7602300" lon="-74.3573070">
        <ele>2719.6</ele>
        <time>2018-08-10T15:39:18Z</time>
      </trkpt>
      <trkpt lat="4.7602420" lon="-74.3573450">
        <ele>2719.5</ele>
        <time>2018-08-10T15:39:19Z</time>
      </trkpt>
      <trkpt lat="4.7602550" lon="-74.3573850">
        <ele>2719.4</ele>
        <time>2018-08-10T15:39:20Z</time>
      </trkpt>
      <trkpt lat="4.7602680" lon="-74.3574220">
        <ele>2719.3</ele>
        <time>2018-08-10T15:39:21Z</time>
      </trkpt>
      <trkpt lat="4.7602820" lon="-74.3574570">
        <ele>2719.2</ele>
        <time>2018-08-10T15:39:22Z</time>
      </trkpt>
      <trkpt lat="4.7602920" lon="-74.3574950">
        <ele>2719.1</ele>
        <time>2018-08-10T15:39:23Z</time>
      </trkpt>
      <trkpt lat="4.7603020" lon="-74.3575320">
        <ele>2719.0</ele>
        <time>2018-08-10T15:39:24Z</time>
      </trkpt>
      <trkpt lat="4.7603100" lon="-74.3575650">
        <ele>2718.9</ele>
        <time>2018-08-10T15:39:25Z</time>
      </trkpt>
      <trkpt lat="4.7603170" lon="-74.3575950">
        <ele>2718.8</ele>
        <time>2018-08-10T15:39:26Z</time>
      </trkpt>
      <trkpt lat="4.7603280" lon="-74.3576480">
        <ele>2718.7</ele>
        <time>2018-08-10T15:39:28Z</time>
      </trkpt>
      <trkpt lat="4.7603300" lon="-74.3576780">
        <ele>2718.6</ele>
        <time>2018-08-10T15:39:29Z</time>
      </trkpt>
      <trkpt lat="4.7603370" lon="-74.3577070">
        <ele>2718.5</ele>
        <time>2018-08-10T15:39:30Z</time>
      </trkpt>
      <trkpt lat="4.7603520" lon="-74.3577570">
        <ele>2718.4</ele>
        <time>2018-08-10T15:39:32Z</time>
      </trkpt>
      <trkpt lat="4.7603630" lon="-74.3577820">
        <ele>2718.3</ele>
        <time>2018-08-10T15:39:33Z</time>
      </trkpt>
      <trkpt lat="4.7603950" lon="-74.3578220">
        <ele>2718.2</ele>
        <time>2018-08-10T15:39:35Z</time>
      </trkpt>
      <trkpt lat="4.7604220" lon="-74.3578600">
        <ele>2718.1</ele>
        <time>2018-08-10T15:39:37Z</time>
      </trkpt>
      <trkpt lat="4.7604570" lon="-74.3578850">
        <ele>2718.0</ele>
        <time>2018-08-10T15:39:39Z</time>
      </trkpt>
      <trkpt lat="4.7605050" lon="-74.3578950">
        <ele>2718.0</ele>
        <time>2018-08-10T15:39:41Z</time>
      </trkpt>
      <trkpt lat="4.7605620" lon="-74.3578970">
        <ele>2717.8</ele>
        <time>2018-08-10T15:39:43Z</time>
      </trkpt>
      <trkpt lat="4.7605880" lon="-74.3578900">
        <ele>2717.7</ele>
        <time>2018-08-10T15:39:44Z</time>
      </trkpt>
      <trkpt lat="4.7606150" lon="-74.3578800">
        <ele>2717.7</ele>
        <time>2018-08-10T15:39:45Z</time>
      </trkpt>
      <trkpt lat="4.7606630" lon="-74.3578550">
        <ele>2717.7</ele>
        <time>2018-08-10T15:39:47Z</time>
      </trkpt>
      <trkpt lat="4.7606900" lon="-74.3578470">
        <ele>2717.6</ele>
        <time>2018-08-10T15:39:48Z</time>
      </trkpt>
      <trkpt lat="4.7607430" lon="-74.3578270">
        <ele>2717.4</ele>
        <time>2018-08-10T15:39:50Z</time>
      </trkpt>
      <trkpt lat="4.7607720" lon="-74.3578180">
        <ele>2717.0</ele>
        <time>2018-08-10T15:39:51Z</time>
      </trkpt>
      <trkpt lat="4.7608050" lon="-74.3578080">
        <ele>2716.5</ele>
        <time>2018-08-10T15:39:52Z</time>
      </trkpt>
      <trkpt lat="4.7608370" lon="-74.3578020">
        <ele>2715.8</ele>
        <time>2018-08-10T15:39:53Z</time>
      </trkpt>
      <trkpt lat="4.7608720" lon="-74.3577930">
        <ele>2715.0</ele>
        <time>2018-08-10T15:39:54Z</time>
      </trkpt>
      <trkpt lat="4.7609080" lon="-74.3577820">
        <ele>2714.1</ele>
        <time>2018-08-10T15:39:55Z</time>
      </trkpt>
      <trkpt lat="4.7609500" lon="-74.3577780">
        <ele>2713.5</ele>
        <time>2018-08-10T15:39:56Z</time>
      </trkpt>
      <trkpt lat="4.7609870" lon="-74.3577650">
        <ele>2712.9</ele>
        <time>2018-08-10T15:39:57Z</time>
      </trkpt>
      <trkpt lat="4.7610280" lon="-74.3577580">
        <ele>2711.8</ele>
        <time>2018-08-10T15:39:58Z</time>
      </trkpt>
      <trkpt lat="4.7610670" lon="-74.3577470">
        <ele>2710.7</ele>
        <time>2018-08-10T15:39:59Z</time>
      </trkpt>
      <trkpt lat="4.7611100" lon="-74.3577350">
        <ele>2709.8</ele>
        <time>2018-08-10T15:40:00Z</time>
      </trkpt>
      <trkpt lat="4.7611480" lon="-74.3577270">
        <ele>2709.0</ele>
        <time>2018-08-10T15:40:01Z</time>
      </trkpt>
      <trkpt lat="4.7611830" lon="-74.3577200">
        <ele>2708.5</ele>
        <time>2018-08-10T15:40:02Z</time>
      </trkpt>
      <trkpt lat="4.7612150" lon="-74.3577100">
        <ele>2708.1</ele>
        <time>2018-08-10T15:40:03Z</time>
      </trkpt>
      <trkpt lat="4.7612500" lon="-74.3577000">
        <ele>2707.7</ele>
        <time>2018-08-10T15:40:04Z</time>
      </trkpt>
      <trkpt lat="4.7612820" lon="-74.3576970">
        <ele>2707.5</ele>
        <time>2018-08-10T15:40:05Z</time>
      </trkpt>
      <trkpt lat="4.7613120" lon="-74.3576930">
        <ele>2707.2</ele>
        <time>2018-08-10T15:40:06Z</time>
      </trkpt>
      <trkpt lat="4.7613520" lon="-74.3576900">
        <ele>2707.0</ele>
        <time>2018-08-10T15:40:07Z</time>
      </trkpt>
      <trkpt lat="4.7613950" lon="-74.3576880">
        <ele>2706.7</ele>
        <time>2018-08-10T15:40:08Z</time>
      </trkpt>
      <trkpt lat="4.7614320" lon="-74.3576880">
        <ele>2706.4</ele>
        <time>2018-08-10T15:40:09Z</time>
      </trkpt>
      <trkpt lat="4.7614700" lon="-74.3576900">
        <ele>2706.2</ele>
        <time>2018-08-10T15:40:10Z</time>
      </trkpt>
      <trkpt lat="4.7615050" lon="-74.3576970">
        <ele>2705.9</ele>
        <time>2018-08-10T15:40:11Z</time>
      </trkpt>
      <trkpt lat="4.7615520" lon="-74.3577070">
        <ele>2705.5</ele>
        <time>2018-08-10T15:40:12Z</time>
      </trkpt>
      <trkpt lat="4.7615970" lon="-74.3577270">
        <ele>2705.2</ele>
        <time>2018-08-10T15:40:13Z</time>
      </trkpt>
      <trkpt lat="4.7616420" lon="-74.3577370">
        <ele>2705.0</ele>
        <time>2018-08-10T15:40:14Z</time>
      </trkpt>
      <trkpt lat="4.7616830" lon="-74.3577470">
        <ele>2704.9</ele>
        <time>2018-08-10T15:40:15Z</time>
      </trkpt>
      <trkpt lat="4.7617370" lon="-74.3577570">
        <ele>2704.9</ele>
        <time>2018-08-10T15:40:16Z</time>
      </trkpt>
      <trkpt lat="4.7617820" lon="-74.3577580">
        <ele>2704.9</ele>
        <time>2018-08-10T15:40:17Z</time>
      </trkpt>
      <trkpt lat="4.7618220" lon="-74.3577730">
        <ele>2704.9</ele>
        <time>2018-08-10T15:40:18Z</time>
      </trkpt>
      <trkpt lat="4.7618570" lon="-74.3577820">
        <ele>2704.9</ele>
        <time>2018-08-10T15:40:19Z</time>
      </trkpt>
      <trkpt lat="4.7618930" lon="-74.3577870">
        <ele>2704.8</ele>
        <time>2018-08-10T15:40:20Z</time>
      </trkpt>
      <trkpt lat="4.7619270" lon="-74.3577970">
        <ele>2704.8</ele>
        <time>2018-08-10T15:40:21Z</time>
      </trkpt>
      <trkpt lat="4.7619650" lon="-74.3578020">
        <ele>2704.8</ele>
        <time>2018-08-10T15:40:22Z</time>
      </trkpt>
      <trkpt lat="4.7620020" lon="-74.3578000">
        <ele>2704.7</ele>
        <time>2018-08-10T15:40:23Z</time>
      </trkpt>
      <trkpt lat="4.7620350" lon="-74.3577970">
        <ele>2704.7</ele>
        <time>2018-08-10T15:40:24Z</time>
      </trkpt>
      <trkpt lat="4.7620700" lon="-74.3578020">
        <ele>2704.6</ele>
        <time>2018-08-10T15:40:25Z</time>
      </trkpt>
      <trkpt lat="4.7621030" lon="-74.3578030">
        <ele>2704.3</ele>
        <time>2018-08-10T15:40:26Z</time>
      </trkpt>
      <trkpt lat="4.7621430" lon="-74.3578050">
        <ele>2704.0</ele>
        <time>2018-08-10T15:40:27Z</time>
      </trkpt>
      <trkpt lat="4.7621800" lon="-74.3578130">
        <ele>2703.7</ele>
        <time>2018-08-10T15:40:28Z</time>
      </trkpt>
      <trkpt lat="4.7622130" lon="-74.3578250">
        <ele>2703.5</ele>
        <time>2018-08-10T15:40:29Z</time>
      </trkpt>
      <trkpt lat="4.7622480" lon="-74.3578300">
        <ele>2703.1</ele>
        <time>2018-08-10T15:40:30Z</time>
      </trkpt>
      <trkpt lat="4.7622800" lon="-74.3578330">
        <ele>2702.3</ele>
        <time>2018-08-10T15:40:31Z</time>
      </trkpt>
      <trkpt lat="4.7623130" lon="-74.3578430">
        <ele>2701.4</ele>
        <time>2018-08-10T15:40:32Z</time>
      </trkpt>
      <trkpt lat="4.7623430" lon="-74.3578530">
        <ele>2700.4</ele>
        <time>2018-08-10T15:40:33Z</time>
      </trkpt>
      <trkpt lat="4.7623770" lon="-74.3578630">
        <ele>2699.3</ele>
        <time>2018-08-10T15:40:34Z</time>
      </trkpt>
      <trkpt lat="4.7624100" lon="-74.3578820">
        <ele>2698.2</ele>
        <time>2018-08-10T15:40:35Z</time>
      </trkpt>
      <trkpt lat="4.7624430" lon="-74.3578980">
        <ele>2697.3</ele>
        <time>2018-08-10T15:40:36Z</time>
      </trkpt>
      <trkpt lat="4.7624820" lon="-74.3579170">
        <ele>2696.5</ele>
        <time>2018-08-10T15:40:37Z</time>
      </trkpt>
      <trkpt lat="4.7625230" lon="-74.3579380">
        <ele>2696.2</ele>
        <time>2018-08-10T15:40:38Z</time>
      </trkpt>
      <trkpt lat="4.7625620" lon="-74.3579650">
        <ele>2695.8</ele>
        <time>2018-08-10T15:40:39Z</time>
      </trkpt>
      <trkpt lat="4.7625970" lon="-74.3579850">
        <ele>2695.6</ele>
        <time>2018-08-10T15:40:40Z</time>
      </trkpt>
      <trkpt lat="4.7626350" lon="-74.3580100">
        <ele>2695.6</ele>
        <time>2018-08-10T15:40:41Z</time>
      </trkpt>
      <trkpt lat="4.7626680" lon="-74.3580330">
        <ele>2695.8</ele>
        <time>2018-08-10T15:40:42Z</time>
      </trkpt>
      <trkpt lat="4.7627000" lon="-74.3580550">
        <ele>2696.0</ele>
        <time>2018-08-10T15:40:43Z</time>
      </trkpt>
      <trkpt lat="4.7627370" lon="-74.3580800">
        <ele>2696.3</ele>
        <time>2018-08-10T15:40:44Z</time>
      </trkpt>
      <trkpt lat="4.7627700" lon="-74.3581030">
        <ele>2696.4</ele>
        <time>2018-08-10T15:40:45Z</time>
      </trkpt>
      <trkpt lat="4.7628020" lon="-74.3581320">
        <ele>2696.4</ele>
        <time>2018-08-10T15:40:46Z</time>
      </trkpt>
      <trkpt lat="4.7628350" lon="-74.3581620">
        <ele>2696.4</ele>
        <time>2018-08-10T15:40:47Z</time>
      </trkpt>
      <trkpt lat="4.7628680" lon="-74.3581880">
        <ele>2696.5</ele>
        <time>2018-08-10T15:40:48Z</time>
      </trkpt>
      <trkpt lat="4.7628980" lon="-74.3582350">
        <ele>2696.4</ele>
        <time>2018-08-10T15:40:49Z</time>
      </trkpt>
      <trkpt lat="4.7629380" lon="-74.3582680">
        <ele>2696.2</ele>
        <time>2018-08-10T15:40:50Z</time>
      </trkpt>
      <trkpt lat="4.7629780" lon="-74.3582970">
        <ele>2695.8</ele>
        <time>2018-08-10T15:40:51Z</time>
      </trkpt>
      <trkpt lat="4.7630220" lon="-74.3583250">
        <ele>2695.4</ele>
        <time>2018-08-10T15:40:52Z</time>
      </trkpt>
      <trkpt lat="4.7630680" lon="-74.3583580">
        <ele>2695.5</ele>
        <time>2018-08-10T15:40:53Z</time>
      </trkpt>
      <trkpt lat="4.7631130" lon="-74.3583870">
        <ele>2695.4</ele>
        <time>2018-08-10T15:40:54Z</time>
      </trkpt>
      <trkpt lat="4.7631550" lon="-74.3584100">
        <ele>2695.2</ele>
        <time>2018-08-10T15:40:55Z</time>
      </trkpt>
      <trkpt lat="4.7631950" lon="-74.3584280">
        <ele>2695.3</ele>
        <time>2018-08-10T15:40:56Z</time>
      </trkpt>
      <trkpt lat="4.7632280" lon="-74.3584470">
        <ele>2695.4</ele>
        <time>2018-08-10T15:40:57Z</time>
      </trkpt>
      <trkpt lat="4.7632630" lon="-74.3584600">
        <ele>2695.2</ele>
        <time>2018-08-10T15:40:58Z</time>
      </trkpt>
      <trkpt lat="4.7633000" lon="-74.3584750">
        <ele>2694.8</ele>
        <time>2018-08-10T15:40:59Z</time>
      </trkpt>
      <trkpt lat="4.7633370" lon="-74.3584880">
        <ele>2694.4</ele>
        <time>2018-08-10T15:41:00Z</time>
      </trkpt>
      <trkpt lat="4.7633730" lon="-74.3584980">
        <ele>2693.8</ele>
        <time>2018-08-10T15:41:01Z</time>
      </trkpt>
      <trkpt lat="4.7634120" lon="-74.3585130">
        <ele>2693.0</ele>
        <time>2018-08-10T15:41:02Z</time>
      </trkpt>
      <trkpt lat="4.7634500" lon="-74.3585320">
        <ele>2692.0</ele>
        <time>2018-08-10T15:41:03Z</time>
      </trkpt>
      <trkpt lat="4.7634850" lon="-74.3585470">
        <ele>2691.1</ele>
        <time>2018-08-10T15:41:04Z</time>
      </trkpt>
      <trkpt lat="4.7635170" lon="-74.3585550">
        <ele>2690.6</ele>
        <time>2018-08-10T15:41:05Z</time>
      </trkpt>
      <trkpt lat="4.7635430" lon="-74.3585600">
        <ele>2690.2</ele>
        <time>2018-08-10T15:41:06Z</time>
      </trkpt>
      <trkpt lat="4.7635970" lon="-74.3585520">
        <ele>2689.2</ele>
        <time>2018-08-10T15:41:08Z</time>
      </trkpt>
      <trkpt lat="4.7636220" lon="-74.3585330">
        <ele>2688.5</ele>
        <time>2018-08-10T15:41:09Z</time>
      </trkpt>
      <trkpt lat="4.7636470" lon="-74.3585130">
        <ele>2687.8</ele>
        <time>2018-08-10T15:41:10Z</time>
      </trkpt>
      <trkpt lat="4.7636700" lon="-74.3584920">
        <ele>2687.4</ele>
        <time>2018-08-10T15:41:11Z</time>
      </trkpt>
      <trkpt lat="4.7636920" lon="-74.3584700">
        <ele>2686.9</ele>
        <time>2018-08-10T15:41:12Z</time>
      </trkpt>
      <trkpt lat="4.7637120" lon="-74.3584520">
        <ele>2686.6</ele>
        <time>2018-08-10T15:41:13Z</time>
      </trkpt>
      <trkpt lat="4.7637320" lon="-74.3584300">
        <ele>2686.6</ele>
        <time>2018-08-10T15:41:14Z</time>
      </trkpt>
      <trkpt lat="4.7637550" lon="-74.3584130">
        <ele>2686.6</ele>
        <time>2018-08-10T15:41:15Z</time>
      </trkpt>
      <trkpt lat="4.7637920" lon="-74.3583870">
        <ele>2687.0</ele>
        <time>2018-08-10T15:41:17Z</time>
      </trkpt>
      <trkpt lat="4.7638270" lon="-74.3583570">
        <ele>2687.9</ele>
        <time>2018-08-10T15:41:19Z</time>
      </trkpt>
      <trkpt lat="4.7638670" lon="-74.3583400">
        <ele>2688.6</ele>
        <time>2018-08-10T15:41:21Z</time>
      </trkpt>
      <trkpt lat="4.7638900" lon="-74.3583180">
        <ele>2689.1</ele>
        <time>2018-08-10T15:41:22Z</time>
      </trkpt>
      <trkpt lat="4.7639120" lon="-74.3583020">
        <ele>2689.5</ele>
        <time>2018-08-10T15:41:23Z</time>
      </trkpt>
      <trkpt lat="4.7639300" lon="-74.3582820">
        <ele>2689.7</ele>
        <time>2018-08-10T15:41:24Z</time>
      </trkpt>
      <trkpt lat="4.7639480" lon="-74.3582600">
        <ele>2689.9</ele>
        <time>2018-08-10T15:41:25Z</time>
      </trkpt>
      <trkpt lat="4.7639650" lon="-74.3582330">
        <ele>2690.1</ele>
        <time>2018-08-10T15:41:26Z</time>
      </trkpt>
      <trkpt lat="4.7639920" lon="-74.3582180">
        <ele>2690.6</ele>
        <time>2018-08-10T15:41:27Z</time>
      </trkpt>
      <trkpt lat="4.7640180" lon="-74.3582030">
        <ele>2691.1</ele>
        <time>2018-08-10T15:41:28Z</time>
      </trkpt>
      <trkpt lat="4.7640470" lon="-74.3581900">
        <ele>2691.7</ele>
        <time>2018-08-10T15:41:29Z</time>
      </trkpt>
      <trkpt lat="4.7640680" lon="-74.3581730">
        <ele>2692.1</ele>
        <time>2018-08-10T15:41:30Z</time>
      </trkpt>
      <trkpt lat="4.7641080" lon="-74.3581400">
        <ele>2692.9</ele>
        <time>2018-08-10T15:41:32Z</time>
      </trkpt>
      <trkpt lat="4.7641270" lon="-74.3581150">
        <ele>2693.2</ele>
        <time>2018-08-10T15:41:33Z</time>
      </trkpt>
      <trkpt lat="4.7641600" lon="-74.3580880">
        <ele>2693.2</ele>
        <time>2018-08-10T15:41:35Z</time>
      </trkpt>
      <trkpt lat="4.7641970" lon="-74.3580620">
        <ele>2693.3</ele>
        <time>2018-08-10T15:41:37Z</time>
      </trkpt>
      <trkpt lat="4.7642200" lon="-74.3580430">
        <ele>2693.4</ele>
        <time>2018-08-10T15:41:38Z</time>
      </trkpt>
      <trkpt lat="4.7642430" lon="-74.3580250">
        <ele>2693.5</ele>
        <time>2018-08-10T15:41:39Z</time>
      </trkpt>
      <trkpt lat="4.7642650" lon="-74.3580050">
        <ele>2693.5</ele>
        <time>2018-08-10T15:41:40Z</time>
      </trkpt>
      <trkpt lat="4.7642830" lon="-74.3579850">
        <ele>2693.4</ele>
        <time>2018-08-10T15:41:41Z</time>
      </trkpt>
      <trkpt lat="4.7643050" lon="-74.3579650">
        <ele>2693.2</ele>
        <time>2018-08-10T15:41:42Z</time>
      </trkpt>
      <trkpt lat="4.7643280" lon="-74.3579450">
        <ele>2693.0</ele>
        <time>2018-08-10T15:41:43Z</time>
      </trkpt>
      <trkpt lat="4.7643520" lon="-74.3579230">
        <ele>2692.5</ele>
        <time>2018-08-10T15:41:44Z</time>
      </trkpt>
      <trkpt lat="4.7643770" lon="-74.3579030">
        <ele>2691.9</ele>
        <time>2018-08-10T15:41:45Z</time>
      </trkpt>
      <trkpt lat="4.7644030" lon="-74.3578870">
        <ele>2691.5</ele>
        <time>2018-08-10T15:41:46Z</time>
      </trkpt>
      <trkpt lat="4.7644270" lon="-74.3578680">
        <ele>2691.1</ele>
        <time>2018-08-10T15:41:47Z</time>
      </trkpt>
      <trkpt lat="4.7644480" lon="-74.3578500">
        <ele>2690.8</ele>
        <time>2018-08-10T15:41:48Z</time>
      </trkpt>
      <trkpt lat="4.7644680" lon="-74.3578320">
        <ele>2690.4</ele>
        <time>2018-08-10T15:41:49Z</time>
      </trkpt>
      <trkpt lat="4.7645170" lon="-74.3578120">
        <ele>2689.9</ele>
        <time>2018-08-10T15:41:51Z</time>
      </trkpt>
      <trkpt lat="4.7645420" lon="-74.3577950">
        <ele>2689.6</ele>
        <time>2018-08-10T15:41:52Z</time>
      </trkpt>
      <trkpt lat="4.7645650" lon="-74.3577780">
        <ele>2689.5</ele>
        <time>2018-08-10T15:41:53Z</time>
      </trkpt>
      <trkpt lat="4.7645880" lon="-74.3577630">
        <ele>2689.5</ele>
        <time>2018-08-10T15:41:54Z</time>
      </trkpt>
      <trkpt lat="4.7646130" lon="-74.3577480">
        <ele>2689.4</ele>
        <time>2018-08-10T15:41:55Z</time>
      </trkpt>
      <trkpt lat="4.7646370" lon="-74.3577300">
        <ele>2689.5</ele>
        <time>2018-08-10T15:41:56Z</time>
      </trkpt>
      <trkpt lat="4.7646580" lon="-74.3577100">
        <ele>2689.7</ele>
        <time>2018-08-10T15:41:57Z</time>
      </trkpt>
      <trkpt lat="4.7646780" lon="-74.3576920">
        <ele>2689.8</ele>
        <time>2018-08-10T15:41:58Z</time>
      </trkpt>
      <trkpt lat="4.7647020" lon="-74.3576750">
        <ele>2690.1</ele>
        <time>2018-08-10T15:41:59Z</time>
      </trkpt>
      <trkpt lat="4.7647230" lon="-74.3576580">
        <ele>2690.4</ele>
        <time>2018-08-10T15:42:00Z</time>
      </trkpt>
      <trkpt lat="4.7647620" lon="-74.3576270">
        <ele>2691.0</ele>
        <time>2018-08-10T15:42:02Z</time>
      </trkpt>
      <trkpt lat="4.7648100" lon="-74.3575970">
        <ele>2691.4</ele>
        <time>2018-08-10T15:42:04Z</time>
      </trkpt>
      <trkpt lat="4.7648370" lon="-74.3575830">
        <ele>2691.7</ele>
        <time>2018-08-10T15:42:05Z</time>
      </trkpt>
      <trkpt lat="4.7648580" lon="-74.3575670">
        <ele>2691.6</ele>
        <time>2018-08-10T15:42:06Z</time>
      </trkpt>
      <trkpt lat="4.7648780" lon="-74.3575480">
        <ele>2691.6</ele>
        <time>2018-08-10T15:42:07Z</time>
      </trkpt>
      <trkpt lat="4.7649130" lon="-74.3575170">
        <ele>2691.6</ele>
        <time>2018-08-10T15:42:09Z</time>
      </trkpt>
      <trkpt lat="4.7649350" lon="-74.3575000">
        <ele>2691.8</ele>
        <time>2018-08-10T15:42:10Z</time>
      </trkpt>
      <trkpt lat="4.7649550" lon="-74.3574820">
        <ele>2691.9</ele>
        <time>2018-08-10T15:42:11Z</time>
      </trkpt>
      <trkpt lat="4.7649950" lon="-74.3574470">
        <ele>2692.2</ele>
        <time>2018-08-10T15:42:13Z</time>
      </trkpt>
      <trkpt lat="4.7650150" lon="-74.3574270">
        <ele>2692.4</ele>
        <time>2018-08-10T15:42:14Z</time>
      </trkpt>
      <trkpt lat="4.7650330" lon="-74.3574050">
        <ele>2692.5</ele>
        <time>2018-08-10T15:42:15Z</time>
      </trkpt>
      <trkpt lat="4.7650550" lon="-74.3573880">
        <ele>2692.6</ele>
        <time>2018-08-10T15:42:16Z</time>
      </trkpt>
      <trkpt lat="4.7650800" lon="-74.3573700">
        <ele>2692.5</ele>
        <time>2018-08-10T15:42:17Z</time>
      </trkpt>
      <trkpt lat="4.7650980" lon="-74.3573450">
        <ele>2692.5</ele>
        <time>2018-08-10T15:42:18Z</time>
      </trkpt>
      <trkpt lat="4.7651430" lon="-74.3573270">
        <ele>2692.4</ele>
        <time>2018-08-10T15:42:20Z</time>
      </trkpt>
      <trkpt lat="4.7651870" lon="-74.3573050">
        <ele>2692.3</ele>
        <time>2018-08-10T15:42:22Z</time>
      </trkpt>
      <trkpt lat="4.7652280" lon="-74.3572730">
        <ele>2692.2</ele>
        <time>2018-08-10T15:42:24Z</time>
      </trkpt>
      <trkpt lat="4.7652520" lon="-74.3572570">
        <ele>2692.2</ele>
        <time>2018-08-10T15:42:25Z</time>
      </trkpt>
      <trkpt lat="4.7652600" lon="-74.3572070">
        <ele>2692.3</ele>
        <time>2018-08-10T15:42:27Z</time>
      </trkpt>
      <trkpt lat="4.7652620" lon="-74.3572370">
        <ele>2692.2</ele>
        <time>2018-08-10T15:42:32Z</time>
      </trkpt>
      <trkpt lat="4.7653650" lon="-74.3571020">
        <ele>2692.5</ele>
        <time>2018-08-10T15:43:22Z</time>
      </trkpt>
      <trkpt lat="4.7653530" lon="-74.3571380">
        <ele>2692.5</ele>
        <time>2018-08-10T15:43:25Z</time>
      </trkpt>
      <trkpt lat="4.7653220" lon="-74.3571380">
        <ele>2692.5</ele>
        <time>2018-08-10T15:43:29Z</time>
      </trkpt>
      <trkpt lat="4.7652570" lon="-74.3572280">
        <ele>2692.3</ele>
        <time>2018-08-10T15:43:32Z</time>
      </trkpt>
      <trkpt lat="4.7652280" lon="-74.3572770">
        <ele>2692.0</ele>
        <time>2018-08-10T15:44:00Z</time>
      </trkpt>
      <trkpt lat="4.7651980" lon="-74.3573080">
        <ele>2691.7</ele>
        <time>2018-08-10T15:44:02Z</time>
      </trkpt>
      <trkpt lat="4.7651620" lon="-74.3573480">
        <ele>2691.6</ele>
        <time>2018-08-10T15:44:04Z</time>
      </trkpt>
      <trkpt lat="4.7651420" lon="-74.3573730">
        <ele>2691.6</ele>
        <time>2018-08-10T15:44:05Z</time>
      </trkpt>
      <trkpt lat="4.7651200" lon="-74.3573950">
        <ele>2691.7</ele>
        <time>2018-08-10T15:44:06Z</time>
      </trkpt>
      <trkpt lat="4.7650930" lon="-74.3574180">
        <ele>2691.5</ele>
        <time>2018-08-10T15:44:07Z</time>
      </trkpt>
      <trkpt lat="4.7650670" lon="-74.3574450">
        <ele>2691.3</ele>
        <time>2018-08-10T15:44:08Z</time>
      </trkpt>
      <trkpt lat="4.7650370" lon="-74.3574680">
        <ele>2691.0</ele>
        <time>2018-08-10T15:44:09Z</time>
      </trkpt>
      <trkpt lat="4.7650080" lon="-74.3574880">
        <ele>2690.6</ele>
        <time>2018-08-10T15:44:10Z</time>
      </trkpt>
      <trkpt lat="4.7649820" lon="-74.3575150">
        <ele>2690.2</ele>
        <time>2018-08-10T15:44:11Z</time>
      </trkpt>
      <trkpt lat="4.7649550" lon="-74.3575400">
        <ele>2689.8</ele>
        <time>2018-08-10T15:44:12Z</time>
      </trkpt>
      <trkpt lat="4.7649220" lon="-74.3575700">
        <ele>2689.6</ele>
        <time>2018-08-10T15:44:13Z</time>
      </trkpt>
      <trkpt lat="4.7648900" lon="-74.3575870">
        <ele>2689.4</ele>
        <time>2018-08-10T15:44:14Z</time>
      </trkpt>
      <trkpt lat="4.7648480" lon="-74.3576120">
        <ele>2689.5</ele>
        <time>2018-08-10T15:44:15Z</time>
      </trkpt>
      <trkpt lat="4.7648070" lon="-74.3576380">
        <ele>2689.6</ele>
        <time>2018-08-10T15:44:16Z</time>
      </trkpt>
      <trkpt lat="4.7647650" lon="-74.3576670">
        <ele>2690.0</ele>
        <time>2018-08-10T15:44:17Z</time>
      </trkpt>
      <trkpt lat="4.7647230" lon="-74.3576980">
        <ele>2690.5</ele>
        <time>2018-08-10T15:44:18Z</time>
      </trkpt>
      <trkpt lat="4.7646820" lon="-74.3577280">
        <ele>2691.1</ele>
        <time>2018-08-10T15:44:19Z</time>
      </trkpt>
      <trkpt lat="4.7646420" lon="-74.3577580">
        <ele>2691.7</ele>
        <time>2018-08-10T15:44:20Z</time>
      </trkpt>
      <trkpt lat="4.7646020" lon="-74.3577880">
        <ele>2692.5</ele>
        <time>2018-08-10T15:44:21Z</time>
      </trkpt>
      <trkpt lat="4.7645620" lon="-74.3578200">
        <ele>2693.1</ele>
        <time>2018-08-10T15:44:22Z</time>
      </trkpt>
      <trkpt lat="4.7645220" lon="-74.3578500">
        <ele>2693.4</ele>
        <time>2018-08-10T15:44:23Z</time>
      </trkpt>
      <trkpt lat="4.7644830" lon="-74.3578770">
        <ele>2693.5</ele>
        <time>2018-08-10T15:44:24Z</time>
      </trkpt>
      <trkpt lat="4.7644450" lon="-74.3579030">
        <ele>2693.4</ele>
        <time>2018-08-10T15:44:25Z</time>
      </trkpt>
      <trkpt lat="4.7644020" lon="-74.3579280">
        <ele>2693.2</ele>
        <time>2018-08-10T15:44:26Z</time>
      </trkpt>
      <trkpt lat="4.7643600" lon="-74.3579550">
        <ele>2693.2</ele>
        <time>2018-08-10T15:44:27Z</time>
      </trkpt>
      <trkpt lat="4.7643220" lon="-74.3579830">
        <ele>2693.0</ele>
        <time>2018-08-10T15:44:28Z</time>
      </trkpt>
      <trkpt lat="4.7642830" lon="-74.3580100">
        <ele>2692.3</ele>
        <time>2018-08-10T15:44:29Z</time>
      </trkpt>
      <trkpt lat="4.7642430" lon="-74.3580370">
        <ele>2691.6</ele>
        <time>2018-08-10T15:44:30Z</time>
      </trkpt>
      <trkpt lat="4.7642020" lon="-74.3580620">
        <ele>2690.8</ele>
        <time>2018-08-10T15:44:31Z</time>
      </trkpt>
      <trkpt lat="4.7641600" lon="-74.3580800">
        <ele>2690.1</ele>
        <time>2018-08-10T15:44:32Z</time>
      </trkpt>
      <trkpt lat="4.7641250" lon="-74.3581020">
        <ele>2689.9</ele>
        <time>2018-08-10T15:44:33Z</time>
      </trkpt>
      <trkpt lat="4.7640820" lon="-74.3581270">
        <ele>2689.5</ele>
        <time>2018-08-10T15:44:34Z</time>
      </trkpt>
      <trkpt lat="4.7640350" lon="-74.3581570">
        <ele>2688.7</ele>
        <time>2018-08-10T15:44:35Z</time>
      </trkpt>
      <trkpt lat="4.7639950" lon="-74.3581950">
        <ele>2687.9</ele>
        <time>2018-08-10T15:44:36Z</time>
      </trkpt>
      <trkpt lat="4.7639550" lon="-74.3582320">
        <ele>2686.9</ele>
        <time>2018-08-10T15:44:37Z</time>
      </trkpt>
      <trkpt lat="4.7639170" lon="-74.3582670">
        <ele>2686.6</ele>
        <time>2018-08-10T15:44:38Z</time>
      </trkpt>
      <trkpt lat="4.7638770" lon="-74.3583020">
        <ele>2686.6</ele>
        <time>2018-08-10T15:44:39Z</time>
      </trkpt>
      <trkpt lat="4.7638420" lon="-74.3583480">
        <ele>2687.3</ele>
        <time>2018-08-10T15:44:40Z</time>
      </trkpt>
      <trkpt lat="4.7638080" lon="-74.3583970">
        <ele>2688.2</ele>
        <time>2018-08-10T15:44:41Z</time>
      </trkpt>
      <trkpt lat="4.7637750" lon="-74.3584400">
        <ele>2689.3</ele>
        <time>2018-08-10T15:44:42Z</time>
      </trkpt>
      <trkpt lat="4.7637380" lon="-74.3584800">
        <ele>2690.3</ele>
        <time>2018-08-10T15:44:43Z</time>
      </trkpt>
      <trkpt lat="4.7637020" lon="-74.3585170">
        <ele>2691.0</ele>
        <time>2018-08-10T15:44:44Z</time>
      </trkpt>
      <trkpt lat="4.7636620" lon="-74.3585500">
        <ele>2692.0</ele>
        <time>2018-08-10T15:44:45Z</time>
      </trkpt>
      <trkpt lat="4.7636170" lon="-74.3585670">
        <ele>2693.2</ele>
        <time>2018-08-10T15:44:46Z</time>
      </trkpt>
      <trkpt lat="4.7635670" lon="-74.3585670">
        <ele>2694.0</ele>
        <time>2018-08-10T15:44:47Z</time>
      </trkpt>
      <trkpt lat="4.7635180" lon="-74.3585570">
        <ele>2694.7</ele>
        <time>2018-08-10T15:44:48Z</time>
      </trkpt>
      <trkpt lat="4.7634700" lon="-74.3585450">
        <ele>2695.1</ele>
        <time>2018-08-10T15:44:49Z</time>
      </trkpt>
      <trkpt lat="4.7634220" lon="-74.3585320">
        <ele>2695.4</ele>
        <time>2018-08-10T15:44:50Z</time>
      </trkpt>
      <trkpt lat="4.7633700" lon="-74.3585130">
        <ele>2695.3</ele>
        <time>2018-08-10T15:44:51Z</time>
      </trkpt>
      <trkpt lat="4.7633230" lon="-74.3584920">
        <ele>2695.3</ele>
        <time>2018-08-10T15:44:52Z</time>
      </trkpt>
      <trkpt lat="4.7632800" lon="-74.3584680">
        <ele>2695.4</ele>
        <time>2018-08-10T15:44:53Z</time>
      </trkpt>
      <trkpt lat="4.7632370" lon="-74.3584430">
        <ele>2695.5</ele>
        <time>2018-08-10T15:44:54Z</time>
      </trkpt>
      <trkpt lat="4.7631920" lon="-74.3584220">
        <ele>2695.5</ele>
        <time>2018-08-10T15:44:55Z</time>
      </trkpt>
      <trkpt lat="4.7631500" lon="-74.3583930">
        <ele>2695.7</ele>
        <time>2018-08-10T15:44:56Z</time>
      </trkpt>
      <trkpt lat="4.7631080" lon="-74.3583670">
        <ele>2696.1</ele>
        <time>2018-08-10T15:44:57Z</time>
      </trkpt>
      <trkpt lat="4.7630680" lon="-74.3583370">
        <ele>2696.3</ele>
        <time>2018-08-10T15:44:58Z</time>
      </trkpt>
      <trkpt lat="4.7630270" lon="-74.3583070">
        <ele>2696.5</ele>
        <time>2018-08-10T15:44:59Z</time>
      </trkpt>
      <trkpt lat="4.7629870" lon="-74.3582800">
        <ele>2696.5</ele>
        <time>2018-08-10T15:45:00Z</time>
      </trkpt>
      <trkpt lat="4.7629470" lon="-74.3582550">
        <ele>2696.4</ele>
        <time>2018-08-10T15:45:01Z</time>
      </trkpt>
      <trkpt lat="4.7629070" lon="-74.3582270">
        <ele>2696.4</ele>
        <time>2018-08-10T15:45:02Z</time>
      </trkpt>
      <trkpt lat="4.7628620" lon="-74.3581820">
        <ele>2696.3</ele>
        <time>2018-08-10T15:45:03Z</time>
      </trkpt>
      <trkpt lat="4.7628220" lon="-74.3581430">
        <ele>2696.0</ele>
        <time>2018-08-10T15:45:04Z</time>
      </trkpt>
      <trkpt lat="4.7627850" lon="-74.3581100">
        <ele>2695.7</ele>
        <time>2018-08-10T15:45:05Z</time>
      </trkpt>
      <trkpt lat="4.7627500" lon="-74.3580800">
        <ele>2695.5</ele>
        <time>2018-08-10T15:45:06Z</time>
      </trkpt>
      <trkpt lat="4.7627080" lon="-74.3580530">
        <ele>2695.7</ele>
        <time>2018-08-10T15:45:07Z</time>
      </trkpt>
      <trkpt lat="4.7626680" lon="-74.3580280">
        <ele>2696.0</ele>
        <time>2018-08-10T15:45:08Z</time>
      </trkpt>
      <trkpt lat="4.7626280" lon="-74.3580000">
        <ele>2696.3</ele>
        <time>2018-08-10T15:45:09Z</time>
      </trkpt>
      <trkpt lat="4.7625880" lon="-74.3579800">
        <ele>2696.7</ele>
        <time>2018-08-10T15:45:10Z</time>
      </trkpt>
      <trkpt lat="4.7625480" lon="-74.3579620">
        <ele>2697.7</ele>
        <time>2018-08-10T15:45:11Z</time>
      </trkpt>
      <trkpt lat="4.7625050" lon="-74.3579430">
        <ele>2698.8</ele>
        <time>2018-08-10T15:45:12Z</time>
      </trkpt>
      <trkpt lat="4.7624620" lon="-74.3579180">
        <ele>2700.2</ele>
        <time>2018-08-10T15:45:13Z</time>
      </trkpt>
      <trkpt lat="4.7624150" lon="-74.3578880">
        <ele>2701.7</ele>
        <time>2018-08-10T15:45:14Z</time>
      </trkpt>
      <trkpt lat="4.7623700" lon="-74.3578670">
        <ele>2702.9</ele>
        <time>2018-08-10T15:45:15Z</time>
      </trkpt>
      <trkpt lat="4.7623280" lon="-74.3578520">
        <ele>2703.5</ele>
        <time>2018-08-10T15:45:16Z</time>
      </trkpt>
      <trkpt lat="4.7622850" lon="-74.3578430">
        <ele>2703.8</ele>
        <time>2018-08-10T15:45:17Z</time>
      </trkpt>
      <trkpt lat="4.7622380" lon="-74.3578220">
        <ele>2704.1</ele>
        <time>2018-08-10T15:45:18Z</time>
      </trkpt>
      <trkpt lat="4.7621930" lon="-74.3578050">
        <ele>2704.5</ele>
        <time>2018-08-10T15:45:19Z</time>
      </trkpt>
      <trkpt lat="4.7621520" lon="-74.3577850">
        <ele>2704.7</ele>
        <time>2018-08-10T15:45:20Z</time>
      </trkpt>
      <trkpt lat="4.7621070" lon="-74.3577720">
        <ele>2704.8</ele>
        <time>2018-08-10T15:45:21Z</time>
      </trkpt>
      <trkpt lat="4.7620620" lon="-74.3577700">
        <ele>2704.8</ele>
        <time>2018-08-10T15:45:22Z</time>
      </trkpt>
      <trkpt lat="4.7620170" lon="-74.3577730">
        <ele>2704.7</ele>
        <time>2018-08-10T15:45:23Z</time>
      </trkpt>
      <trkpt lat="4.7619680" lon="-74.3577770">
        <ele>2704.8</ele>
        <time>2018-08-10T15:45:24Z</time>
      </trkpt>
      <trkpt lat="4.7619200" lon="-74.3577750">
        <ele>2704.9</ele>
        <time>2018-08-10T15:45:25Z</time>
      </trkpt>
      <trkpt lat="4.7618720" lon="-74.3577780">
        <ele>2704.9</ele>
        <time>2018-08-10T15:45:26Z</time>
      </trkpt>
      <trkpt lat="4.7618250" lon="-74.3577820">
        <ele>2704.9</ele>
        <time>2018-08-10T15:45:27Z</time>
      </trkpt>
      <trkpt lat="4.7617800" lon="-74.3577780">
        <ele>2704.9</ele>
        <time>2018-08-10T15:45:28Z</time>
      </trkpt>
      <trkpt lat="4.7617320" lon="-74.3577680">
        <ele>2705.0</ele>
        <time>2018-08-10T15:45:29Z</time>
      </trkpt>
      <trkpt lat="4.7616830" lon="-74.3577600">
        <ele>2705.2</ele>
        <time>2018-08-10T15:45:30Z</time>
      </trkpt>
      <trkpt lat="4.7616370" lon="-74.3577480">
        <ele>2705.4</ele>
        <time>2018-08-10T15:45:31Z</time>
      </trkpt>
      <trkpt lat="4.7615880" lon="-74.3577380">
        <ele>2705.8</ele>
        <time>2018-08-10T15:45:32Z</time>
      </trkpt>
      <trkpt lat="4.7615420" lon="-74.3577320">
        <ele>2706.1</ele>
        <time>2018-08-10T15:45:33Z</time>
      </trkpt>
      <trkpt lat="4.7614950" lon="-74.3577200">
        <ele>2706.4</ele>
        <time>2018-08-10T15:45:34Z</time>
      </trkpt>
      <trkpt lat="4.7614500" lon="-74.3577130">
        <ele>2706.7</ele>
        <time>2018-08-10T15:45:35Z</time>
      </trkpt>
      <trkpt lat="4.7614030" lon="-74.3577150">
        <ele>2707.0</ele>
        <time>2018-08-10T15:45:36Z</time>
      </trkpt>
      <trkpt lat="4.7613620" lon="-74.3577200">
        <ele>2707.3</ele>
        <time>2018-08-10T15:45:37Z</time>
      </trkpt>
      <trkpt lat="4.7613180" lon="-74.3577320">
        <ele>2707.6</ele>
        <time>2018-08-10T15:45:38Z</time>
      </trkpt>
      <trkpt lat="4.7612800" lon="-74.3577420">
        <ele>2707.9</ele>
        <time>2018-08-10T15:45:39Z</time>
      </trkpt>
      <trkpt lat="4.7612380" lon="-74.3577500">
        <ele>2708.4</ele>
        <time>2018-08-10T15:45:40Z</time>
      </trkpt>
      <trkpt lat="4.7611970" lon="-74.3577620">
        <ele>2709.0</ele>
        <time>2018-08-10T15:45:41Z</time>
      </trkpt>
      <trkpt lat="4.7611580" lon="-74.3577730">
        <ele>2709.7</ele>
        <time>2018-08-10T15:45:42Z</time>
      </trkpt>
      <trkpt lat="4.7611220" lon="-74.3577880">
        <ele>2710.5</ele>
        <time>2018-08-10T15:45:43Z</time>
      </trkpt>
      <trkpt lat="4.7610870" lon="-74.3578000">
        <ele>2711.3</ele>
        <time>2018-08-10T15:45:44Z</time>
      </trkpt>
      <trkpt lat="4.7610480" lon="-74.3578100">
        <ele>2712.3</ele>
        <time>2018-08-10T15:45:45Z</time>
      </trkpt>
      <trkpt lat="4.7610100" lon="-74.3578130">
        <ele>2713.1</ele>
        <time>2018-08-10T15:45:46Z</time>
      </trkpt>
      <trkpt lat="4.7609700" lon="-74.3578200">
        <ele>2713.7</ele>
        <time>2018-08-10T15:45:47Z</time>
      </trkpt>
      <trkpt lat="4.7609250" lon="-74.3578230">
        <ele>2714.3</ele>
        <time>2018-08-10T15:45:48Z</time>
      </trkpt>
      <trkpt lat="4.7608850" lon="-74.3578330">
        <ele>2715.3</ele>
        <time>2018-08-10T15:45:49Z</time>
      </trkpt>
      <trkpt lat="4.7608450" lon="-74.3578450">
        <ele>2716.2</ele>
        <time>2018-08-10T15:45:50Z</time>
      </trkpt>
      <trkpt lat="4.7608070" lon="-74.3578550">
        <ele>2716.8</ele>
        <time>2018-08-10T15:45:51Z</time>
      </trkpt>
      <trkpt lat="4.7607720" lon="-74.3578630">
        <ele>2717.3</ele>
        <time>2018-08-10T15:45:52Z</time>
      </trkpt>
      <trkpt lat="4.7607380" lon="-74.3578780">
        <ele>2717.5</ele>
        <time>2018-08-10T15:45:53Z</time>
      </trkpt>
      <trkpt lat="4.7607070" lon="-74.3578880">
        <ele>2717.6</ele>
        <time>2018-08-10T15:45:54Z</time>
      </trkpt>
      <trkpt lat="4.7606700" lon="-74.3578980">
        <ele>2717.7</ele>
        <time>2018-08-10T15:45:55Z</time>
      </trkpt>
      <trkpt lat="4.7606350" lon="-74.3579080">
        <ele>2717.7</ele>
        <time>2018-08-10T15:45:56Z</time>
      </trkpt>
      <trkpt lat="4.7605980" lon="-74.3579200">
        <ele>2717.6</ele>
        <time>2018-08-10T15:45:57Z</time>
      </trkpt>
      <trkpt lat="4.7605630" lon="-74.3579300">
        <ele>2717.8</ele>
        <time>2018-08-10T15:45:58Z</time>
      </trkpt>
      <trkpt lat="4.7605250" lon="-74.3579270">
        <ele>2718.0</ele>
        <time>2018-08-10T15:45:59Z</time>
      </trkpt>
      <trkpt lat="4.7604900" lon="-74.3579200">
        <ele>2718.0</ele>
        <time>2018-08-10T15:46:00Z</time>
      </trkpt>
      <trkpt lat="4.7604450" lon="-74.3579020">
        <ele>2718.0</ele>
        <time>2018-08-10T15:46:02Z</time>
      </trkpt>
      <trkpt lat="4.7604250" lon="-74.3578800">
        <ele>2718.1</ele>
        <time>2018-08-10T15:46:03Z</time>
      </trkpt>
      <trkpt lat="4.7604080" lon="-74.3578580">
        <ele>2718.2</ele>
        <time>2018-08-10T15:46:04Z</time>
      </trkpt>
      <trkpt lat="4.7603970" lon="-74.3578200">
        <ele>2718.3</ele>
        <time>2018-08-10T15:46:05Z</time>
      </trkpt>
      <trkpt lat="4.7603850" lon="-74.3577950">
        <ele>2718.3</ele>
        <time>2018-08-10T15:46:06Z</time>
      </trkpt>
      <trkpt lat="4.7603750" lon="-74.3577680">
        <ele>2718.4</ele>
        <time>2018-08-10T15:46:07Z</time>
      </trkpt>
      <trkpt lat="4.7603570" lon="-74.3577180">
        <ele>2718.5</ele>
        <time>2018-08-10T15:46:09Z</time>
      </trkpt>
      <trkpt lat="4.7603420" lon="-74.3576880">
        <ele>2718.6</ele>
        <time>2018-08-10T15:46:10Z</time>
      </trkpt>
      <trkpt lat="4.7603220" lon="-74.3576450">
        <ele>2718.7</ele>
        <time>2018-08-10T15:46:11Z</time>
      </trkpt>
      <trkpt lat="4.7603080" lon="-74.3576050">
        <ele>2718.9</ele>
        <time>2018-08-10T15:46:12Z</time>
      </trkpt>
      <trkpt lat="4.7602970" lon="-74.3575670">
        <ele>2719.0</ele>
        <time>2018-08-10T15:46:13Z</time>
      </trkpt>
      <trkpt lat="4.7602850" lon="-74.3575270">
        <ele>2719.1</ele>
        <time>2018-08-10T15:46:14Z</time>
      </trkpt>
      <trkpt lat="4.7602700" lon="-74.3574820">
        <ele>2719.2</ele>
        <time>2018-08-10T15:46:15Z</time>
      </trkpt>
      <trkpt lat="4.7602520" lon="-74.3574350">
        <ele>2719.3</ele>
        <time>2018-08-10T15:46:16Z</time>
      </trkpt>
      <trkpt lat="4.7602350" lon="-74.3573920">
        <ele>2719.4</ele>
        <time>2018-08-10T15:46:17Z</time>
      </trkpt>
      <trkpt lat="4.7602180" lon="-74.3573450">
        <ele>2719.6</ele>
        <time>2018-08-10T15:46:18Z</time>
      </trkpt>
      <trkpt lat="4.7602020" lon="-74.3572980">
        <ele>2719.7</ele>
        <time>2018-08-10T15:46:19Z</time>
      </trkpt>
      <trkpt lat="4.7601870" lon="-74.3572500">
        <ele>2719.8</ele>
        <time>2018-08-10T15:46:20Z</time>
      </trkpt>
      <trkpt lat="4.7601750" lon="-74.3572020">
        <ele>2719.9</ele>
        <time>2018-08-10T15:46:21Z</time>
      </trkpt>
      <trkpt lat="4.7601570" lon="-74.3571530">
        <ele>2720.0</ele>
        <time>2018-08-10T15:46:22Z</time>
      </trkpt>
      <trkpt lat="4.7601400" lon="-74.3571070">
        <ele>2720.1</ele>
        <time>2018-08-10T15:46:23Z</time>
      </trkpt>
      <trkpt lat="4.7601220" lon="-74.3570570">
        <ele>2720.2</ele>
        <time>2018-08-10T15:46:24Z</time>
      </trkpt>
      <trkpt lat="4.7601050" lon="-74.3570100">
        <ele>2720.4</ele>
        <time>2018-08-10T15:46:25Z</time>
      </trkpt>
      <trkpt lat="4.7600880" lon="-74.3569650">
        <ele>2720.5</ele>
        <time>2018-08-10T15:46:26Z</time>
      </trkpt>
      <trkpt lat="4.7600720" lon="-74.3569150">
        <ele>2720.7</ele>
        <time>2018-08-10T15:46:27Z</time>
      </trkpt>
      <trkpt lat="4.7600520" lon="-74.3568730">
        <ele>2720.8</ele>
        <time>2018-08-10T15:46:28Z</time>
      </trkpt>
      <trkpt lat="4.7600300" lon="-74.3568330">
        <ele>2721.0</ele>
        <time>2018-08-10T15:46:29Z</time>
      </trkpt>
      <trkpt lat="4.7600070" lon="-74.3567950">
        <ele>2721.1</ele>
        <time>2018-08-10T15:46:30Z</time>
      </trkpt>
      <trkpt lat="4.7599850" lon="-74.3567520">
        <ele>2721.3</ele>
        <time>2018-08-10T15:46:31Z</time>
      </trkpt>
      <trkpt lat="4.7599680" lon="-74.3567030">
        <ele>2721.5</ele>
        <time>2018-08-10T15:46:32Z</time>
      </trkpt>
      <trkpt lat="4.7599530" lon="-74.3566580">
        <ele>2721.6</ele>
        <time>2018-08-10T15:46:33Z</time>
      </trkpt>
      <trkpt lat="4.7599400" lon="-74.3566120">
        <ele>2721.8</ele>
        <time>2018-08-10T15:46:34Z</time>
      </trkpt>
      <trkpt lat="4.7599280" lon="-74.3565650">
        <ele>2722.0</ele>
        <time>2018-08-10T15:46:35Z</time>
      </trkpt>
      <trkpt lat="4.7599200" lon="-74.3565080">
        <ele>2722.2</ele>
        <time>2018-08-10T15:46:36Z</time>
      </trkpt>
      <trkpt lat="4.7599100" lon="-74.3564620">
        <ele>2722.4</ele>
        <time>2018-08-10T15:46:37Z</time>
      </trkpt>
      <trkpt lat="4.7599100" lon="-74.3564120">
        <ele>2722.6</ele>
        <time>2018-08-10T15:46:38Z</time>
      </trkpt>
      <trkpt lat="4.7599020" lon="-74.3563700">
        <ele>2722.8</ele>
        <time>2018-08-10T15:46:39Z</time>
      </trkpt>
      <trkpt lat="4.7598950" lon="-74.3563230">
        <ele>2723.0</ele>
        <time>2018-08-10T15:46:40Z</time>
      </trkpt>
      <trkpt lat="4.7598850" lon="-74.3562850">
        <ele>2723.2</ele>
        <time>2018-08-10T15:46:41Z</time>
      </trkpt>
      <trkpt lat="4.7598820" lon="-74.3562450">
        <ele>2723.4</ele>
        <time>2018-08-10T15:46:42Z</time>
      </trkpt>
      <trkpt lat="4.7598770" lon="-74.3562070">
        <ele>2723.6</ele>
        <time>2018-08-10T15:46:43Z</time>
      </trkpt>
      <trkpt lat="4.7598630" lon="-74.3561720">
        <ele>2723.8</ele>
        <time>2018-08-10T15:46:44Z</time>
      </trkpt>
      <trkpt lat="4.7598480" lon="-74.3561370">
        <ele>2724.0</ele>
        <time>2018-08-10T15:46:45Z</time>
      </trkpt>
      <trkpt lat="4.7598350" lon="-74.3561000">
        <ele>2724.2</ele>
        <time>2018-08-10T15:46:46Z</time>
      </trkpt>
      <trkpt lat="4.7598200" lon="-74.3560620">
        <ele>2724.4</ele>
        <time>2018-08-10T15:46:47Z</time>
      </trkpt>
      <trkpt lat="4.7598080" lon="-74.3560230">
        <ele>2724.7</ele>
        <time>2018-08-10T15:46:48Z</time>
      </trkpt>
      <trkpt lat="4.7597950" lon="-74.3559920">
        <ele>2724.9</ele>
        <time>2018-08-10T15:46:49Z</time>
      </trkpt>
      <trkpt lat="4.7597800" lon="-74.3559600">
        <ele>2725.1</ele>
        <time>2018-08-10T15:46:50Z</time>
      </trkpt>
      <trkpt lat="4.7597620" lon="-74.3559270">
        <ele>2725.4</ele>
        <time>2018-08-10T15:46:51Z</time>
      </trkpt>
      <trkpt lat="4.7597430" lon="-74.3558950">
        <ele>2725.7</ele>
        <time>2018-08-10T15:46:52Z</time>
      </trkpt>
      <trkpt lat="4.7597250" lon="-74.3558620">
        <ele>2726.0</ele>
        <time>2018-08-10T15:46:53Z</time>
      </trkpt>
      <trkpt lat="4.7597080" lon="-74.3558280">
        <ele>2726.2</ele>
        <time>2018-08-10T15:46:54Z</time>
      </trkpt>
      <trkpt lat="4.7596900" lon="-74.3557950">
        <ele>2726.5</ele>
        <time>2018-08-10T15:46:55Z</time>
      </trkpt>
      <trkpt lat="4.7596730" lon="-74.3557630">
        <ele>2726.8</ele>
        <time>2018-08-10T15:46:56Z</time>
      </trkpt>
      <trkpt lat="4.7596600" lon="-74.3557320">
        <ele>2727.1</ele>
        <time>2018-08-10T15:46:57Z</time>
      </trkpt>
      <trkpt lat="4.7596450" lon="-74.3556950">
        <ele>2727.4</ele>
        <time>2018-08-10T15:46:58Z</time>
      </trkpt>
      <trkpt lat="4.7596280" lon="-74.3556650">
        <ele>2727.8</ele>
        <time>2018-08-10T15:46:59Z</time>
      </trkpt>
      <trkpt lat="4.7596130" lon="-74.3556370">
        <ele>2728.0</ele>
        <time>2018-08-10T15:47:00Z</time>
      </trkpt>
      <trkpt lat="4.7595970" lon="-74.3556080">
        <ele>2728.3</ele>
        <time>2018-08-10T15:47:01Z</time>
      </trkpt>
      <trkpt lat="4.7595750" lon="-74.3555880">
        <ele>2728.6</ele>
        <time>2018-08-10T15:47:02Z</time>
      </trkpt>
      <trkpt lat="4.7595520" lon="-74.3555700">
        <ele>2728.9</ele>
        <time>2018-08-10T15:47:03Z</time>
      </trkpt>
      <trkpt lat="4.7595280" lon="-74.3555470">
        <ele>2729.2</ele>
        <time>2018-08-10T15:47:04Z</time>
      </trkpt>
      <trkpt lat="4.7595100" lon="-74.3555220">
        <ele>2729.5</ele>
        <time>2018-08-10T15:47:05Z</time>
      </trkpt>
      <trkpt lat="4.7594920" lon="-74.3554980">
        <ele>2729.8</ele>
        <time>2018-08-10T15:47:06Z</time>
      </trkpt>
      <trkpt lat="4.7594770" lon="-74.3554620">
        <ele>2730.2</ele>
        <time>2018-08-10T15:47:07Z</time>
      </trkpt>
      <trkpt lat="4.7594580" lon="-74.3554230">
        <ele>2730.7</ele>
        <time>2018-08-10T15:47:08Z</time>
      </trkpt>
      <trkpt lat="4.7594470" lon="-74.3553950">
        <ele>2731.0</ele>
        <time>2018-08-10T15:47:09Z</time>
      </trkpt>
      <trkpt lat="4.7594320" lon="-74.3553670">
        <ele>2731.4</ele>
        <time>2018-08-10T15:47:10Z</time>
      </trkpt>
      <trkpt lat="4.7594100" lon="-74.3553420">
        <ele>2731.8</ele>
        <time>2018-08-10T15:47:11Z</time>
      </trkpt>
      <trkpt lat="4.7593870" lon="-74.3553030">
        <ele>2732.3</ele>
        <time>2018-08-10T15:47:12Z</time>
      </trkpt>
      <trkpt lat="4.7593620" lon="-74.3552800">
        <ele>2732.8</ele>
        <time>2018-08-10T15:47:13Z</time>
      </trkpt>
      <trkpt lat="4.7593400" lon="-74.3552520">
        <ele>2733.2</ele>
        <time>2018-08-10T15:47:14Z</time>
      </trkpt>
      <trkpt lat="4.7593130" lon="-74.3552150">
        <ele>2733.9</ele>
        <time>2018-08-10T15:47:16Z</time>
      </trkpt>
      <trkpt lat="4.7592880" lon="-74.3551700">
        <ele>2734.6</ele>
        <time>2018-08-10T15:47:18Z</time>
      </trkpt>
      <trkpt lat="4.7592580" lon="-74.3551300">
        <ele>2735.3</ele>
        <time>2018-08-10T15:47:20Z</time>
      </trkpt>
      <trkpt lat="4.7592300" lon="-74.3550930">
        <ele>2736.1</ele>
        <time>2018-08-10T15:47:22Z</time>
      </trkpt>
      <trkpt lat="4.7592080" lon="-74.3550500">
        <ele>2736.8</ele>
        <time>2018-08-10T15:47:24Z</time>
      </trkpt>
      <trkpt lat="4.7591870" lon="-74.3550100">
        <ele>2737.6</ele>
        <time>2018-08-10T15:47:26Z</time>
      </trkpt>
      <trkpt lat="4.7591730" lon="-74.3549630">
        <ele>2738.5</ele>
        <time>2018-08-10T15:47:28Z</time>
      </trkpt>
      <trkpt lat="4.7591430" lon="-74.3549320">
        <ele>2739.3</ele>
        <time>2018-08-10T15:47:30Z</time>
      </trkpt>
      <trkpt lat="4.7591250" lon="-74.3548950">
        <ele>2740.0</ele>
        <time>2018-08-10T15:47:32Z</time>
      </trkpt>
      <trkpt lat="4.7591020" lon="-74.3548750">
        <ele>2740.5</ele>
        <time>2018-08-10T15:47:34Z</time>
      </trkpt>
      <trkpt lat="4.7590900" lon="-74.3548330">
        <ele>2741.4</ele>
        <time>2018-08-10T15:47:36Z</time>
      </trkpt>
      <trkpt lat="4.7590750" lon="-74.3548000">
        <ele>2742.1</ele>
        <time>2018-08-10T15:47:38Z</time>
      </trkpt>
      <trkpt lat="4.7590480" lon="-74.3547850">
        <ele>2742.6</ele>
        <time>2018-08-10T15:47:40Z</time>
      </trkpt>
      <trkpt lat="4.7590150" lon="-74.3547630">
        <ele>2743.3</ele>
        <time>2018-08-10T15:47:42Z</time>
      </trkpt>
      <trkpt lat="4.7589870" lon="-74.3547420">
        <ele>2744.0</ele>
        <time>2018-08-10T15:47:44Z</time>
      </trkpt>
      <trkpt lat="4.7589550" lon="-74.3547250">
        <ele>2744.6</ele>
        <time>2018-08-10T15:47:46Z</time>
      </trkpt>
      <trkpt lat="4.7589130" lon="-74.3546880">
        <ele>2745.6</ele>
        <time>2018-08-10T15:47:48Z</time>
      </trkpt>
      <trkpt lat="4.7588950" lon="-74.3546650">
        <ele>2746.1</ele>
        <time>2018-08-10T15:47:49Z</time>
      </trkpt>
      <trkpt lat="4.7588620" lon="-74.3546180">
        <ele>2747.0</ele>
        <time>2018-08-10T15:47:51Z</time>
      </trkpt>
      <trkpt lat="4.7588470" lon="-74.3545930">
        <ele>2747.5</ele>
        <time>2018-08-10T15:47:52Z</time>
      </trkpt>
      <trkpt lat="4.7588370" lon="-74.3545650">
        <ele>2747.9</ele>
        <time>2018-08-10T15:47:53Z</time>
      </trkpt>
      <trkpt lat="4.7588200" lon="-74.3545200">
        <ele>2748.6</ele>
        <time>2018-08-10T15:47:55Z</time>
      </trkpt>
      <trkpt lat="4.7588030" lon="-74.3544800">
        <ele>2749.1</ele>
        <time>2018-08-10T15:47:57Z</time>
      </trkpt>
      <trkpt lat="4.7587770" lon="-74.3544320">
        <ele>2749.8</ele>
        <time>2018-08-10T15:47:59Z</time>
      </trkpt>
      <trkpt lat="4.7587650" lon="-74.3544000">
        <ele>2750.2</ele>
        <time>2018-08-10T15:48:00Z</time>
      </trkpt>
      <trkpt lat="4.7587520" lon="-74.3543530">
        <ele>2750.6</ele>
        <time>2018-08-10T15:48:01Z</time>
      </trkpt>
      <trkpt lat="4.7587420" lon="-74.3543230">
        <ele>2750.9</ele>
        <time>2018-08-10T15:48:02Z</time>
      </trkpt>
      <trkpt lat="4.7587320" lon="-74.3542870">
        <ele>2751.3</ele>
        <time>2018-08-10T15:48:03Z</time>
      </trkpt>
      <trkpt lat="4.7587080" lon="-74.3542430">
        <ele>2751.7</ele>
        <time>2018-08-10T15:48:05Z</time>
      </trkpt>
      <trkpt lat="4.7586950" lon="-74.3542150">
        <ele>2752.0</ele>
        <time>2018-08-10T15:48:06Z</time>
      </trkpt>
      <trkpt lat="4.7586830" lon="-74.3541880">
        <ele>2752.2</ele>
        <time>2018-08-10T15:48:07Z</time>
      </trkpt>
      <trkpt lat="4.7586730" lon="-74.3541570">
        <ele>2752.5</ele>
        <time>2018-08-10T15:48:08Z</time>
      </trkpt>
      <trkpt lat="4.7586550" lon="-74.3541280">
        <ele>2752.8</ele>
        <time>2018-08-10T15:48:09Z</time>
      </trkpt>
      <trkpt lat="4.7586370" lon="-74.3541020">
        <ele>2753.1</ele>
        <time>2018-08-10T15:48:10Z</time>
      </trkpt>
      <trkpt lat="4.7586180" lon="-74.3540730">
        <ele>2753.4</ele>
        <time>2018-08-10T15:48:11Z</time>
      </trkpt>
      <trkpt lat="4.7585930" lon="-74.3540500">
        <ele>2753.7</ele>
        <time>2018-08-10T15:48:12Z</time>
      </trkpt>
      <trkpt lat="4.7585730" lon="-74.3540270">
        <ele>2754.0</ele>
        <time>2018-08-10T15:48:13Z</time>
      </trkpt>
      <trkpt lat="4.7585500" lon="-74.3540050">
        <ele>2754.3</ele>
        <time>2018-08-10T15:48:14Z</time>
      </trkpt>
      <trkpt lat="4.7585250" lon="-74.3539830">
        <ele>2754.6</ele>
        <time>2018-08-10T15:48:15Z</time>
      </trkpt>
      <trkpt lat="4.7585000" lon="-74.3539620">
        <ele>2755.0</ele>
        <time>2018-08-10T15:48:16Z</time>
      </trkpt>
      <trkpt lat="4.7584770" lon="-74.3539430">
        <ele>2755.3</ele>
        <time>2018-08-10T15:48:17Z</time>
      </trkpt>
      <trkpt lat="4.7584570" lon="-74.3539170">
        <ele>2755.7</ele>
        <time>2018-08-10T15:48:18Z</time>
      </trkpt>
      <trkpt lat="4.7584330" lon="-74.3538980">
        <ele>2756.0</ele>
        <time>2018-08-10T15:48:19Z</time>
      </trkpt>
      <trkpt lat="4.7584080" lon="-74.3538830">
        <ele>2756.3</ele>
        <time>2018-08-10T15:48:20Z</time>
      </trkpt>
      <trkpt lat="4.7583800" lon="-74.3538630">
        <ele>2756.7</ele>
        <time>2018-08-10T15:48:21Z</time>
      </trkpt>
      <trkpt lat="4.7583550" lon="-74.3538400">
        <ele>2757.1</ele>
        <time>2018-08-10T15:48:22Z</time>
      </trkpt>
      <trkpt lat="4.7583320" lon="-74.3538200">
        <ele>2757.5</ele>
        <time>2018-08-10T15:48:23Z</time>
      </trkpt>
      <trkpt lat="4.7583100" lon="-74.3537980">
        <ele>2757.9</ele>
        <time>2018-08-10T15:48:24Z</time>
      </trkpt>
      <trkpt lat="4.7582870" lon="-74.3537820">
        <ele>2758.3</ele>
        <time>2018-08-10T15:48:25Z</time>
      </trkpt>
      <trkpt lat="4.7582630" lon="-74.3537630">
        <ele>2758.7</ele>
        <time>2018-08-10T15:48:26Z</time>
      </trkpt>
      <trkpt lat="4.7582370" lon="-74.3537450">
        <ele>2759.1</ele>
        <time>2018-08-10T15:48:27Z</time>
      </trkpt>
      <trkpt lat="4.7581950" lon="-74.3537080">
        <ele>2759.9</ele>
        <time>2018-08-10T15:48:29Z</time>
      </trkpt>
      <trkpt lat="4.7581820" lon="-74.3536780">
        <ele>2760.4</ele>
        <time>2018-08-10T15:48:30Z</time>
      </trkpt>
      <trkpt lat="4.7581700" lon="-74.3536430">
        <ele>2760.9</ele>
        <time>2018-08-10T15:48:31Z</time>
      </trkpt>
      <trkpt lat="4.7581400" lon="-74.3536000">
        <ele>2761.7</ele>
        <time>2018-08-10T15:48:33Z</time>
      </trkpt>
      <trkpt lat="4.7581280" lon="-74.3535700">
        <ele>2762.1</ele>
        <time>2018-08-10T15:48:34Z</time>
      </trkpt>
      <trkpt lat="4.7581120" lon="-74.3535270">
        <ele>2762.8</ele>
        <time>2018-08-10T15:48:36Z</time>
      </trkpt>
      <trkpt lat="4.7580950" lon="-74.3534970">
        <ele>2763.3</ele>
        <time>2018-08-10T15:48:38Z</time>
      </trkpt>
      <trkpt lat="4.7580780" lon="-74.3534620">
        <ele>2763.9</ele>
        <time>2018-08-10T15:48:40Z</time>
      </trkpt>
      <trkpt lat="4.7580630" lon="-74.3534150">
        <ele>2764.7</ele>
        <time>2018-08-10T15:48:42Z</time>
      </trkpt>
      <trkpt lat="4.7580450" lon="-74.3533900">
        <ele>2765.2</ele>
        <time>2018-08-10T15:48:43Z</time>
      </trkpt>
      <trkpt lat="4.7580200" lon="-74.3533670">
        <ele>2765.7</ele>
        <time>2018-08-10T15:48:45Z</time>
      </trkpt>
      <trkpt lat="4.7580030" lon="-74.3533450">
        <ele>2766.1</ele>
        <time>2018-08-10T15:48:46Z</time>
      </trkpt>
      <trkpt lat="4.7579800" lon="-74.3533150">
        <ele>2766.7</ele>
        <time>2018-08-10T15:48:48Z</time>
      </trkpt>
      <trkpt lat="4.7579480" lon="-74.3532920">
        <ele>2767.2</ele>
        <time>2018-08-10T15:48:50Z</time>
      </trkpt>
      <trkpt lat="4.7579250" lon="-74.3532520">
        <ele>2767.9</ele>
        <time>2018-08-10T15:48:52Z</time>
      </trkpt>
      <trkpt lat="4.7579080" lon="-74.3532220">
        <ele>2768.4</ele>
        <time>2018-08-10T15:48:53Z</time>
      </trkpt>
      <trkpt lat="4.7578750" lon="-74.3531830">
        <ele>2769.1</ele>
        <time>2018-08-10T15:48:54Z</time>
      </trkpt>
      <trkpt lat="4.7578430" lon="-74.3531550">
        <ele>2769.7</ele>
        <time>2018-08-10T15:48:55Z</time>
      </trkpt>
      <trkpt lat="4.7578080" lon="-74.3531270">
        <ele>2769.9</ele>
        <time>2018-08-10T15:48:56Z</time>
      </trkpt>
      <trkpt lat="4.7577720" lon="-74.3530970">
        <ele>2769.7</ele>
        <time>2018-08-10T15:48:57Z</time>
      </trkpt>
      <trkpt lat="4.7577370" lon="-74.3530650">
        <ele>2769.5</ele>
        <time>2018-08-10T15:48:58Z</time>
      </trkpt>
      <trkpt lat="4.7576980" lon="-74.3530330">
        <ele>2769.3</ele>
        <time>2018-08-10T15:48:59Z</time>
      </trkpt>
      <trkpt lat="4.7576580" lon="-74.3530120">
        <ele>2769.2</ele>
        <time>2018-08-10T15:49:00Z</time>
      </trkpt>
      <trkpt lat="4.7576150" lon="-74.3529870">
        <ele>2769.0</ele>
        <time>2018-08-10T15:49:01Z</time>
      </trkpt>
      <trkpt lat="4.7575700" lon="-74.3529680">
        <ele>2768.9</ele>
        <time>2018-08-10T15:49:02Z</time>
      </trkpt>
      <trkpt lat="4.7575220" lon="-74.3529480">
        <ele>2768.7</ele>
        <time>2018-08-10T15:49:03Z</time>
      </trkpt>
      <trkpt lat="4.7574720" lon="-74.3529280">
        <ele>2768.5</ele>
        <time>2018-08-10T15:49:04Z</time>
      </trkpt>
      <trkpt lat="4.7574230" lon="-74.3529030">
        <ele>2768.4</ele>
        <time>2018-08-10T15:49:05Z</time>
      </trkpt>
      <trkpt lat="4.7573720" lon="-74.3528820">
        <ele>2768.2</ele>
        <time>2018-08-10T15:49:06Z</time>
      </trkpt>
      <trkpt lat="4.7573180" lon="-74.3528630">
        <ele>2768.0</ele>
        <time>2018-08-10T15:49:07Z</time>
      </trkpt>
      <trkpt lat="4.7572650" lon="-74.3528470">
        <ele>2767.7</ele>
        <time>2018-08-10T15:49:08Z</time>
      </trkpt>
      <trkpt lat="4.7572070" lon="-74.3528330">
        <ele>2767.4</ele>
        <time>2018-08-10T15:49:09Z</time>
      </trkpt>
      <trkpt lat="4.7571450" lon="-74.3528350">
        <ele>2767.1</ele>
        <time>2018-08-10T15:49:10Z</time>
      </trkpt>
      <trkpt lat="4.7570830" lon="-74.3528520">
        <ele>2766.7</ele>
        <time>2018-08-10T15:49:11Z</time>
      </trkpt>
      <trkpt lat="4.7570230" lon="-74.3528650">
        <ele>2765.7</ele>
        <time>2018-08-10T15:49:12Z</time>
      </trkpt>
      <trkpt lat="4.7569670" lon="-74.3528850">
        <ele>2765.1</ele>
        <time>2018-08-10T15:49:13Z</time>
      </trkpt>
      <trkpt lat="4.7569180" lon="-74.3529100">
        <ele>2765.0</ele>
        <time>2018-08-10T15:49:14Z</time>
      </trkpt>
      <trkpt lat="4.7568770" lon="-74.3529330">
        <ele>2765.2</ele>
        <time>2018-08-10T15:49:15Z</time>
      </trkpt>
      <trkpt lat="4.7568420" lon="-74.3529600">
        <ele>2765.5</ele>
        <time>2018-08-10T15:49:16Z</time>
      </trkpt>
      <trkpt lat="4.7568120" lon="-74.3529830">
        <ele>2765.6</ele>
        <time>2018-08-10T15:49:17Z</time>
      </trkpt>
      <trkpt lat="4.7567850" lon="-74.3529920">
        <ele>2765.5</ele>
        <time>2018-08-10T15:49:18Z</time>
      </trkpt>
      <trkpt lat="4.7567630" lon="-74.3530080">
        <ele>2765.5</ele>
        <time>2018-08-10T15:49:19Z</time>
      </trkpt>
      <trkpt lat="4.7567170" lon="-74.3530450">
        <ele>2765.6</ele>
        <time>2018-08-10T15:49:21Z</time>
      </trkpt>
      <trkpt lat="4.7566970" lon="-74.3530630">
        <ele>2765.7</ele>
        <time>2018-08-10T15:49:22Z</time>
      </trkpt>
      <trkpt lat="4.7566720" lon="-74.3530800">
        <ele>2765.5</ele>
        <time>2018-08-10T15:49:23Z</time>
      </trkpt>
      <trkpt lat="4.7566370" lon="-74.3531100">
        <ele>2765.2</ele>
        <time>2018-08-10T15:49:24Z</time>
      </trkpt>
      <trkpt lat="4.7566130" lon="-74.3531280">
        <ele>2765.0</ele>
        <time>2018-08-10T15:49:25Z</time>
      </trkpt>
      <trkpt lat="4.7565880" lon="-74.3531600">
        <ele>2764.8</ele>
        <time>2018-08-10T15:49:26Z</time>
      </trkpt>
      <trkpt lat="4.7565570" lon="-74.3531780">
        <ele>2764.7</ele>
        <time>2018-08-10T15:49:27Z</time>
      </trkpt>
      <trkpt lat="4.7565270" lon="-74.3532020">
        <ele>2764.8</ele>
        <time>2018-08-10T15:49:28Z</time>
      </trkpt>
      <trkpt lat="4.7564930" lon="-74.3532230">
        <ele>2764.8</ele>
        <time>2018-08-10T15:49:29Z</time>
      </trkpt>
      <trkpt lat="4.7564670" lon="-74.3532470">
        <ele>2764.8</ele>
        <time>2018-08-10T15:49:30Z</time>
      </trkpt>
      <trkpt lat="4.7564320" lon="-74.3532670">
        <ele>2764.8</ele>
        <time>2018-08-10T15:49:31Z</time>
      </trkpt>
      <trkpt lat="4.7564020" lon="-74.3532830">
        <ele>2764.9</ele>
        <time>2018-08-10T15:49:32Z</time>
      </trkpt>
      <trkpt lat="4.7563700" lon="-74.3532950">
        <ele>2765.0</ele>
        <time>2018-08-10T15:49:33Z</time>
      </trkpt>
      <trkpt lat="4.7563420" lon="-74.3533050">
        <ele>2765.2</ele>
        <time>2018-08-10T15:49:34Z</time>
      </trkpt>
      <trkpt lat="4.7562950" lon="-74.3533200">
        <ele>2765.4</ele>
        <time>2018-08-10T15:49:36Z</time>
      </trkpt>
      <trkpt lat="4.7562520" lon="-74.3533300">
        <ele>2765.6</ele>
        <time>2018-08-10T15:49:38Z</time>
      </trkpt>
      <trkpt lat="4.7562200" lon="-74.3533370">
        <ele>2765.6</ele>
        <time>2018-08-10T15:49:40Z</time>
      </trkpt>
      <trkpt lat="4.7561950" lon="-74.3533680">
        <ele>2765.7</ele>
        <time>2018-08-10T15:49:43Z</time>
      </trkpt>
      <trkpt lat="4.7562530" lon="-74.3533480">
        <ele>2765.6</ele>
        <time>2018-08-10T15:50:44Z</time>
      </trkpt>
      <trkpt lat="4.7562870" lon="-74.3533330">
        <ele>2765.6</ele>
        <time>2018-08-10T15:50:46Z</time>
      </trkpt>
      <trkpt lat="4.7563270" lon="-74.3533170">
        <ele>2765.4</ele>
        <time>2018-08-10T15:50:48Z</time>
      </trkpt>
      <trkpt lat="4.7563520" lon="-74.3533050">
        <ele>2765.2</ele>
        <time>2018-08-10T15:50:49Z</time>
      </trkpt>
      <trkpt lat="4.7563820" lon="-74.3532850">
        <ele>2765.1</ele>
        <time>2018-08-10T15:50:50Z</time>
      </trkpt>
      <trkpt lat="4.7564120" lon="-74.3532670">
        <ele>2764.9</ele>
        <time>2018-08-10T15:50:51Z</time>
      </trkpt>
      <trkpt lat="4.7564430" lon="-74.3532470">
        <ele>2764.8</ele>
        <time>2018-08-10T15:50:52Z</time>
      </trkpt>
      <trkpt lat="4.7564780" lon="-74.3532280">
        <ele>2764.8</ele>
        <time>2018-08-10T15:50:53Z</time>
      </trkpt>
      <trkpt lat="4.7565100" lon="-74.3532070">
        <ele>2764.8</ele>
        <time>2018-08-10T15:50:54Z</time>
      </trkpt>
      <trkpt lat="4.7565420" lon="-74.3531880">
        <ele>2764.8</ele>
        <time>2018-08-10T15:50:55Z</time>
      </trkpt>
      <trkpt lat="4.7565680" lon="-74.3531720">
        <ele>2764.7</ele>
        <time>2018-08-10T15:50:56Z</time>
      </trkpt>
      <trkpt lat="4.7565920" lon="-74.3531530">
        <ele>2764.8</ele>
        <time>2018-08-10T15:50:57Z</time>
      </trkpt>
      <trkpt lat="4.7566150" lon="-74.3531370">
        <ele>2764.9</ele>
        <time>2018-08-10T15:50:58Z</time>
      </trkpt>
      <trkpt lat="4.7566380" lon="-74.3531180">
        <ele>2765.1</ele>
        <time>2018-08-10T15:50:59Z</time>
      </trkpt>
      <trkpt lat="4.7566600" lon="-74.3530980">
        <ele>2765.3</ele>
        <time>2018-08-10T15:51:00Z</time>
      </trkpt>
      <trkpt lat="4.7566820" lon="-74.3530800">
        <ele>2765.5</ele>
        <time>2018-08-10T15:51:01Z</time>
      </trkpt>
      <trkpt lat="4.7567050" lon="-74.3530630">
        <ele>2765.6</ele>
        <time>2018-08-10T15:51:02Z</time>
      </trkpt>
      <trkpt lat="4.7567270" lon="-74.3530470">
        <ele>2765.6</ele>
        <time>2018-08-10T15:51:03Z</time>
      </trkpt>
      <trkpt lat="4.7567470" lon="-74.3530280">
        <ele>2765.6</ele>
        <time>2018-08-10T15:51:04Z</time>
      </trkpt>
      <trkpt lat="4.7567680" lon="-74.3530100">
        <ele>2765.6</ele>
        <time>2018-08-10T15:51:05Z</time>
      </trkpt>
      <trkpt lat="4.7567920" lon="-74.3529930">
        <ele>2765.5</ele>
        <time>2018-08-10T15:51:06Z</time>
      </trkpt>
      <trkpt lat="4.7568150" lon="-74.3529770">
        <ele>2765.6</ele>
        <time>2018-08-10T15:51:07Z</time>
      </trkpt>
      <trkpt lat="4.7568400" lon="-74.3529620">
        <ele>2765.6</ele>
        <time>2018-08-10T15:51:08Z</time>
      </trkpt>
      <trkpt lat="4.7568650" lon="-74.3529420">
        <ele>2765.3</ele>
        <time>2018-08-10T15:51:09Z</time>
      </trkpt>
      <trkpt lat="4.7568900" lon="-74.3529200">
        <ele>2765.1</ele>
        <time>2018-08-10T15:51:10Z</time>
      </trkpt>
      <trkpt lat="4.7569150" lon="-74.3529030">
        <ele>2765.0</ele>
        <time>2018-08-10T15:51:11Z</time>
      </trkpt>
      <trkpt lat="4.7569430" lon="-74.3528830">
        <ele>2765.0</ele>
        <time>2018-08-10T15:51:12Z</time>
      </trkpt>
      <trkpt lat="4.7569650" lon="-74.3528630">
        <ele>2765.1</ele>
        <time>2018-08-10T15:51:13Z</time>
      </trkpt>
      <trkpt lat="4.7569930" lon="-74.3528480">
        <ele>2765.5</ele>
        <time>2018-08-10T15:51:14Z</time>
      </trkpt>
      <trkpt lat="4.7570420" lon="-74.3528400">
        <ele>2766.1</ele>
        <time>2018-08-10T15:51:16Z</time>
      </trkpt>
      <trkpt lat="4.7570800" lon="-74.3528320">
        <ele>2766.4</ele>
        <time>2018-08-10T15:51:18Z</time>
      </trkpt>
      <trkpt lat="4.7570800" lon="-74.3527980">
        <ele>2766.0</ele>
        <time>2018-08-10T15:51:21Z</time>
      </trkpt>
      <trkpt lat="4.7570530" lon="-74.3527870">
        <ele>2765.2</ele>
        <time>2018-08-10T15:51:23Z</time>
      </trkpt>
      <trkpt lat="4.7570200" lon="-74.3527700">
        <ele>2764.3</ele>
        <time>2018-08-10T15:51:25Z</time>
      </trkpt>
      <trkpt lat="4.7569880" lon="-74.3527520">
        <ele>2763.1</ele>
        <time>2018-08-10T15:51:27Z</time>
      </trkpt>
      <trkpt lat="4.7569580" lon="-74.3527280">
        <ele>2762.1</ele>
        <time>2018-08-10T15:51:29Z</time>
      </trkpt>
      <trkpt lat="4.7569250" lon="-74.3527180">
        <ele>2761.1</ele>
        <time>2018-08-10T15:51:31Z</time>
      </trkpt>
      <trkpt lat="4.7568970" lon="-74.3527100">
        <ele>2760.2</ele>
        <time>2018-08-10T15:51:33Z</time>
      </trkpt>
      <trkpt lat="4.7568650" lon="-74.3527170">
        <ele>2759.5</ele>
        <time>2018-08-10T15:51:35Z</time>
      </trkpt>
      <trkpt lat="4.7568330" lon="-74.3527030">
        <ele>2758.0</ele>
        <time>2018-08-10T15:51:38Z</time>
      </trkpt>
      <trkpt lat="4.7568000" lon="-74.3526930">
        <ele>2757.4</ele>
        <time>2018-08-10T15:51:41Z</time>
      </trkpt>
      <trkpt lat="4.7567730" lon="-74.3526630">
        <ele>2756.2</ele>
        <time>2018-08-10T15:51:44Z</time>
      </trkpt>
      <trkpt lat="4.7567450" lon="-74.3526380">
        <ele>2755.3</ele>
        <time>2018-08-10T15:51:47Z</time>
      </trkpt>
      <trkpt lat="4.7567220" lon="-74.3526100">
        <ele>2754.2</ele>
        <time>2018-08-10T15:51:49Z</time>
      </trkpt>
      <trkpt lat="4.7567100" lon="-74.3525830">
        <ele>2753.4</ele>
        <time>2018-08-10T15:51:51Z</time>
      </trkpt>
      <trkpt lat="4.7566920" lon="-74.3525620">
        <ele>2752.8</ele>
        <time>2018-08-10T15:51:53Z</time>
      </trkpt>
      <trkpt lat="4.7566570" lon="-74.3525520">
        <ele>2751.5</ele>
        <time>2018-08-10T15:51:56Z</time>
      </trkpt>
      <trkpt lat="4.7566270" lon="-74.3525300">
        <ele>2750.6</ele>
        <time>2018-08-10T15:51:58Z</time>
      </trkpt>
      <trkpt lat="4.7565970" lon="-74.3525150">
        <ele>2749.6</ele>
        <time>2018-08-10T15:52:00Z</time>
      </trkpt>
      <trkpt lat="4.7565700" lon="-74.3524980">
        <ele>2748.8</ele>
        <time>2018-08-10T15:52:02Z</time>
      </trkpt>
      <trkpt lat="4.7565530" lon="-74.3524670">
        <ele>2748.4</ele>
        <time>2018-08-10T15:52:05Z</time>
      </trkpt>
      <trkpt lat="4.7564000" lon="-74.3524050">
        <ele>2745.4</ele>
        <time>2018-08-10T15:52:22Z</time>
      </trkpt>
      <trkpt lat="4.7563580" lon="-74.3523900">
        <ele>2744.6</ele>
        <time>2018-08-10T15:52:25Z</time>
      </trkpt>
      <trkpt lat="4.7563100" lon="-74.3523770">
        <ele>2744.1</ele>
        <time>2018-08-10T15:52:27Z</time>
      </trkpt>
      <trkpt lat="4.7562620" lon="-74.3523550">
        <ele>2743.7</ele>
        <time>2018-08-10T15:52:29Z</time>
      </trkpt>
      <trkpt lat="4.7562400" lon="-74.3523380">
        <ele>2743.4</ele>
        <time>2018-08-10T15:52:30Z</time>
      </trkpt>
      <trkpt lat="4.7562220" lon="-74.3523150">
        <ele>2742.8</ele>
        <time>2018-08-10T15:52:31Z</time>
      </trkpt>
      <trkpt lat="4.7561980" lon="-74.3522870">
        <ele>2742.2</ele>
        <time>2018-08-10T15:52:32Z</time>
      </trkpt>
      <trkpt lat="4.7561750" lon="-74.3522650">
        <ele>2741.9</ele>
        <time>2018-08-10T15:52:33Z</time>
      </trkpt>
      <trkpt lat="4.7561480" lon="-74.3522400">
        <ele>2741.6</ele>
        <time>2018-08-10T15:52:34Z</time>
      </trkpt>
      <trkpt lat="4.7561150" lon="-74.3522130">
        <ele>2741.3</ele>
        <time>2018-08-10T15:52:35Z</time>
      </trkpt>
      <trkpt lat="4.7560830" lon="-74.3521830">
        <ele>2740.9</ele>
        <time>2018-08-10T15:52:36Z</time>
      </trkpt>
      <trkpt lat="4.7560530" lon="-74.3521600">
        <ele>2740.4</ele>
        <time>2018-08-10T15:52:37Z</time>
      </trkpt>
      <trkpt lat="4.7560180" lon="-74.3521220">
        <ele>2739.9</ele>
        <time>2018-08-10T15:52:38Z</time>
      </trkpt>
      <trkpt lat="4.7559750" lon="-74.3520970">
        <ele>2739.6</ele>
        <time>2018-08-10T15:52:39Z</time>
      </trkpt>
      <trkpt lat="4.7559320" lon="-74.3520630">
        <ele>2739.4</ele>
        <time>2018-08-10T15:52:40Z</time>
      </trkpt>
      <trkpt lat="4.7558980" lon="-74.3520320">
        <ele>2739.2</ele>
        <time>2018-08-10T15:52:41Z</time>
      </trkpt>
      <trkpt lat="4.7558600" lon="-74.3520080">
        <ele>2739.0</ele>
        <time>2018-08-10T15:52:42Z</time>
      </trkpt>
      <trkpt lat="4.7558250" lon="-74.3519800">
        <ele>2738.9</ele>
        <time>2018-08-10T15:52:43Z</time>
      </trkpt>
      <trkpt lat="4.7557880" lon="-74.3519470">
        <ele>2738.6</ele>
        <time>2018-08-10T15:52:44Z</time>
      </trkpt>
      <trkpt lat="4.7557500" lon="-74.3519250">
        <ele>2738.3</ele>
        <time>2018-08-10T15:52:45Z</time>
      </trkpt>
      <trkpt lat="4.7557100" lon="-74.3519030">
        <ele>2737.9</ele>
        <time>2018-08-10T15:52:46Z</time>
      </trkpt>
      <trkpt lat="4.7556750" lon="-74.3518850">
        <ele>2737.5</ele>
        <time>2018-08-10T15:52:47Z</time>
      </trkpt>
      <trkpt lat="4.7556420" lon="-74.3518670">
        <ele>2737.4</ele>
        <time>2018-08-10T15:52:48Z</time>
      </trkpt>
      <trkpt lat="4.7556120" lon="-74.3518500">
        <ele>2737.3</ele>
        <time>2018-08-10T15:52:49Z</time>
      </trkpt>
      <trkpt lat="4.7555770" lon="-74.3518300">
        <ele>2737.2</ele>
        <time>2018-08-10T15:52:50Z</time>
      </trkpt>
      <trkpt lat="4.7555320" lon="-74.3518020">
        <ele>2737.1</ele>
        <time>2018-08-10T15:52:51Z</time>
      </trkpt>
      <trkpt lat="4.7554820" lon="-74.3517770">
        <ele>2737.0</ele>
        <time>2018-08-10T15:52:52Z</time>
      </trkpt>
      <trkpt lat="4.7554320" lon="-74.3517630">
        <ele>2736.8</ele>
        <time>2018-08-10T15:52:53Z</time>
      </trkpt>
      <trkpt lat="4.7553830" lon="-74.3517370">
        <ele>2736.7</ele>
        <time>2018-08-10T15:52:54Z</time>
      </trkpt>
      <trkpt lat="4.7553300" lon="-74.3517120">
        <ele>2736.7</ele>
        <time>2018-08-10T15:52:55Z</time>
      </trkpt>
      <trkpt lat="4.7552770" lon="-74.3516980">
        <ele>2736.6</ele>
        <time>2018-08-10T15:52:56Z</time>
      </trkpt>
      <trkpt lat="4.7552270" lon="-74.3516780">
        <ele>2736.5</ele>
        <time>2018-08-10T15:52:57Z</time>
      </trkpt>
      <trkpt lat="4.7551800" lon="-74.3516550">
        <ele>2736.5</ele>
        <time>2018-08-10T15:52:58Z</time>
      </trkpt>
      <trkpt lat="4.7551280" lon="-74.3516330">
        <ele>2736.5</ele>
        <time>2018-08-10T15:52:59Z</time>
      </trkpt>
      <trkpt lat="4.7550750" lon="-74.3516120">
        <ele>2736.5</ele>
        <time>2018-08-10T15:53:00Z</time>
      </trkpt>
      <trkpt lat="4.7550230" lon="-74.3516000">
        <ele>2736.5</ele>
        <time>2018-08-10T15:53:01Z</time>
      </trkpt>
      <trkpt lat="4.7549700" lon="-74.3515930">
        <ele>2736.5</ele>
        <time>2018-08-10T15:53:02Z</time>
      </trkpt>
      <trkpt lat="4.7549170" lon="-74.3515750">
        <ele>2736.5</ele>
        <time>2018-08-10T15:53:03Z</time>
      </trkpt>
      <trkpt lat="4.7548600" lon="-74.3515520">
        <ele>2736.5</ele>
        <time>2018-08-10T15:53:04Z</time>
      </trkpt>
      <trkpt lat="4.7548000" lon="-74.3515520">
        <ele>2736.5</ele>
        <time>2018-08-10T15:53:05Z</time>
      </trkpt>
      <trkpt lat="4.7547400" lon="-74.3515500">
        <ele>2736.5</ele>
        <time>2018-08-10T15:53:06Z</time>
      </trkpt>
      <trkpt lat="4.7546730" lon="-74.3515580">
        <ele>2736.6</ele>
        <time>2018-08-10T15:53:07Z</time>
      </trkpt>
      <trkpt lat="4.7546170" lon="-74.3515580">
        <ele>2736.7</ele>
        <time>2018-08-10T15:53:08Z</time>
      </trkpt>
      <trkpt lat="4.7545620" lon="-74.3515500">
        <ele>2736.7</ele>
        <time>2018-08-10T15:53:09Z</time>
      </trkpt>
      <trkpt lat="4.7545050" lon="-74.3515550">
        <ele>2736.8</ele>
        <time>2018-08-10T15:53:10Z</time>
      </trkpt>
      <trkpt lat="4.7544530" lon="-74.3515550">
        <ele>2737.0</ele>
        <time>2018-08-10T15:53:11Z</time>
      </trkpt>
      <trkpt lat="4.7544070" lon="-74.3515480">
        <ele>2737.3</ele>
        <time>2018-08-10T15:53:12Z</time>
      </trkpt>
      <trkpt lat="4.7543570" lon="-74.3515470">
        <ele>2737.5</ele>
        <time>2018-08-10T15:53:13Z</time>
      </trkpt>
      <trkpt lat="4.7543120" lon="-74.3515280">
        <ele>2737.7</ele>
        <time>2018-08-10T15:53:14Z</time>
      </trkpt>
      <trkpt lat="4.7542670" lon="-74.3515200">
        <ele>2737.8</ele>
        <time>2018-08-10T15:53:15Z</time>
      </trkpt>
      <trkpt lat="4.7542300" lon="-74.3515250">
        <ele>2737.9</ele>
        <time>2018-08-10T15:53:16Z</time>
      </trkpt>
      <trkpt lat="4.7541930" lon="-74.3515280">
        <ele>2737.9</ele>
        <time>2018-08-10T15:53:17Z</time>
      </trkpt>
      <trkpt lat="4.7541530" lon="-74.3515270">
        <ele>2737.9</ele>
        <time>2018-08-10T15:53:18Z</time>
      </trkpt>
      <trkpt lat="4.7541200" lon="-74.3515100">
        <ele>2737.9</ele>
        <time>2018-08-10T15:53:19Z</time>
      </trkpt>
      <trkpt lat="4.7540820" lon="-74.3515050">
        <ele>2738.0</ele>
        <time>2018-08-10T15:53:20Z</time>
      </trkpt>
      <trkpt lat="4.7540450" lon="-74.3515020">
        <ele>2738.0</ele>
        <time>2018-08-10T15:53:21Z</time>
      </trkpt>
      <trkpt lat="4.7540070" lon="-74.3514920">
        <ele>2737.9</ele>
        <time>2018-08-10T15:53:22Z</time>
      </trkpt>
      <trkpt lat="4.7539680" lon="-74.3514850">
        <ele>2737.9</ele>
        <time>2018-08-10T15:53:23Z</time>
      </trkpt>
      <trkpt lat="4.7539330" lon="-74.3514770">
        <ele>2737.9</ele>
        <time>2018-08-10T15:53:24Z</time>
      </trkpt>
      <trkpt lat="4.7538980" lon="-74.3514680">
        <ele>2737.9</ele>
        <time>2018-08-10T15:53:25Z</time>
      </trkpt>
      <trkpt lat="4.7538620" lon="-74.3514630">
        <ele>2737.8</ele>
        <time>2018-08-10T15:53:26Z</time>
      </trkpt>
      <trkpt lat="4.7538250" lon="-74.3514570">
        <ele>2737.7</ele>
        <time>2018-08-10T15:53:27Z</time>
      </trkpt>
      <trkpt lat="4.7537920" lon="-74.3514500">
        <ele>2737.6</ele>
        <time>2018-08-10T15:53:28Z</time>
      </trkpt>
      <trkpt lat="4.7537550" lon="-74.3514470">
        <ele>2737.3</ele>
        <time>2018-08-10T15:53:29Z</time>
      </trkpt>
      <trkpt lat="4.7537220" lon="-74.3514400">
        <ele>2736.9</ele>
        <time>2018-08-10T15:53:30Z</time>
      </trkpt>
      <trkpt lat="4.7536880" lon="-74.3514450">
        <ele>2736.5</ele>
        <time>2018-08-10T15:53:31Z</time>
      </trkpt>
      <trkpt lat="4.7536570" lon="-74.3514430">
        <ele>2736.3</ele>
        <time>2018-08-10T15:53:32Z</time>
      </trkpt>
      <trkpt lat="4.7536230" lon="-74.3514230">
        <ele>2736.1</ele>
        <time>2018-08-10T15:53:33Z</time>
      </trkpt>
      <trkpt lat="4.7535950" lon="-74.3514220">
        <ele>2735.9</ele>
        <time>2018-08-10T15:53:34Z</time>
      </trkpt>
      <trkpt lat="4.7535500" lon="-74.3514220">
        <ele>2735.5</ele>
        <time>2018-08-10T15:53:36Z</time>
      </trkpt>
      <trkpt lat="4.7534920" lon="-74.3514280">
        <ele>2734.6</ele>
        <time>2018-08-10T15:53:38Z</time>
      </trkpt>
      <trkpt lat="4.7534630" lon="-74.3514430">
        <ele>2734.4</ele>
        <time>2018-08-10T15:53:39Z</time>
      </trkpt>
      <trkpt lat="4.7534380" lon="-74.3514200">
        <ele>2734.2</ele>
        <time>2018-08-10T15:53:40Z</time>
      </trkpt>
      <trkpt lat="4.7534070" lon="-74.3513930">
        <ele>2734.1</ele>
        <time>2018-08-10T15:53:41Z</time>
      </trkpt>
      <trkpt lat="4.7533750" lon="-74.3514070">
        <ele>2734.0</ele>
        <time>2018-08-10T15:53:42Z</time>
      </trkpt>
      <trkpt lat="4.7533470" lon="-74.3514050">
        <ele>2733.9</ele>
        <time>2018-08-10T15:53:43Z</time>
      </trkpt>
      <trkpt lat="4.7533150" lon="-74.3514030">
        <ele>2733.8</ele>
        <time>2018-08-10T15:53:44Z</time>
      </trkpt>
      <trkpt lat="4.7532870" lon="-74.3514020">
        <ele>2733.7</ele>
        <time>2018-08-10T15:53:45Z</time>
      </trkpt>
      <trkpt lat="4.7532580" lon="-74.3514030">
        <ele>2733.7</ele>
        <time>2018-08-10T15:53:46Z</time>
      </trkpt>
      <trkpt lat="4.7532270" lon="-74.3514050">
        <ele>2733.6</ele>
        <time>2018-08-10T15:53:47Z</time>
      </trkpt>
      <trkpt lat="4.7531970" lon="-74.3514070">
        <ele>2733.5</ele>
        <time>2018-08-10T15:53:48Z</time>
      </trkpt>
      <trkpt lat="4.7531620" lon="-74.3514000">
        <ele>2733.4</ele>
        <time>2018-08-10T15:53:49Z</time>
      </trkpt>
      <trkpt lat="4.7531250" lon="-74.3513900">
        <ele>2733.3</ele>
        <time>2018-08-10T15:53:50Z</time>
      </trkpt>
      <trkpt lat="4.7530900" lon="-74.3513830">
        <ele>2733.1</ele>
        <time>2018-08-10T15:53:51Z</time>
      </trkpt>
      <trkpt lat="4.7530530" lon="-74.3513850">
        <ele>2732.9</ele>
        <time>2018-08-10T15:53:52Z</time>
      </trkpt>
      <trkpt lat="4.7530180" lon="-74.3513870">
        <ele>2732.4</ele>
        <time>2018-08-10T15:53:53Z</time>
      </trkpt>
      <trkpt lat="4.7529830" lon="-74.3513870">
        <ele>2731.9</ele>
        <time>2018-08-10T15:53:54Z</time>
      </trkpt>
      <trkpt lat="4.7529470" lon="-74.3513880">
        <ele>2731.7</ele>
        <time>2018-08-10T15:53:55Z</time>
      </trkpt>
      <trkpt lat="4.7529100" lon="-74.3513880">
        <ele>2731.5</ele>
        <time>2018-08-10T15:53:56Z</time>
      </trkpt>
      <trkpt lat="4.7528770" lon="-74.3513970">
        <ele>2731.3</ele>
        <time>2018-08-10T15:53:57Z</time>
      </trkpt>
      <trkpt lat="4.7528420" lon="-74.3513870">
        <ele>2731.0</ele>
        <time>2018-08-10T15:53:58Z</time>
      </trkpt>
      <trkpt lat="4.7528120" lon="-74.3513850">
        <ele>2730.5</ele>
        <time>2018-08-10T15:53:59Z</time>
      </trkpt>
      <trkpt lat="4.7527830" lon="-74.3513920">
        <ele>2730.0</ele>
        <time>2018-08-10T15:54:00Z</time>
      </trkpt>
      <trkpt lat="4.7527520" lon="-74.3514000">
        <ele>2729.7</ele>
        <time>2018-08-10T15:54:01Z</time>
      </trkpt>
      <trkpt lat="4.7527180" lon="-74.3514000">
        <ele>2729.5</ele>
        <time>2018-08-10T15:54:02Z</time>
      </trkpt>
      <trkpt lat="4.7526780" lon="-74.3514000">
        <ele>2729.3</ele>
        <time>2018-08-10T15:54:03Z</time>
      </trkpt>
      <trkpt lat="4.7526370" lon="-74.3514000">
        <ele>2729.1</ele>
        <time>2018-08-10T15:54:04Z</time>
      </trkpt>
      <trkpt lat="4.7526000" lon="-74.3514070">
        <ele>2729.0</ele>
        <time>2018-08-10T15:54:05Z</time>
      </trkpt>
      <trkpt lat="4.7525650" lon="-74.3514020">
        <ele>2728.8</ele>
        <time>2018-08-10T15:54:06Z</time>
      </trkpt>
      <trkpt lat="4.7525300" lon="-74.3514050">
        <ele>2728.6</ele>
        <time>2018-08-10T15:54:07Z</time>
      </trkpt>
      <trkpt lat="4.7524950" lon="-74.3513930">
        <ele>2728.3</ele>
        <time>2018-08-10T15:54:08Z</time>
      </trkpt>
      <trkpt lat="4.7524630" lon="-74.3513900">
        <ele>2727.8</ele>
        <time>2018-08-10T15:54:09Z</time>
      </trkpt>
      <trkpt lat="4.7524350" lon="-74.3513800">
        <ele>2727.3</ele>
        <time>2018-08-10T15:54:10Z</time>
      </trkpt>
      <trkpt lat="4.7524080" lon="-74.3513750">
        <ele>2726.9</ele>
        <time>2018-08-10T15:54:11Z</time>
      </trkpt>
      <trkpt lat="4.7523800" lon="-74.3513650">
        <ele>2726.6</ele>
        <time>2018-08-10T15:54:12Z</time>
      </trkpt>
      <trkpt lat="4.7523500" lon="-74.3513530">
        <ele>2726.4</ele>
        <time>2018-08-10T15:54:13Z</time>
      </trkpt>
      <trkpt lat="4.7523220" lon="-74.3513420">
        <ele>2726.1</ele>
        <time>2018-08-10T15:54:14Z</time>
      </trkpt>
      <trkpt lat="4.7522720" lon="-74.3513170">
        <ele>2725.1</ele>
        <time>2018-08-10T15:54:16Z</time>
      </trkpt>
      <trkpt lat="4.7522450" lon="-74.3513020">
        <ele>2724.6</ele>
        <time>2018-08-10T15:54:17Z</time>
      </trkpt>
      <trkpt lat="4.7522170" lon="-74.3512850">
        <ele>2724.3</ele>
        <time>2018-08-10T15:54:18Z</time>
      </trkpt>
      <trkpt lat="4.7521900" lon="-74.3512750">
        <ele>2724.0</ele>
        <time>2018-08-10T15:54:19Z</time>
      </trkpt>
      <trkpt lat="4.7521400" lon="-74.3512650">
        <ele>2722.8</ele>
        <time>2018-08-10T15:54:21Z</time>
      </trkpt>
      <trkpt lat="4.7520900" lon="-74.3512550">
        <ele>2722.3</ele>
        <time>2018-08-10T15:54:23Z</time>
      </trkpt>
      <trkpt lat="4.7520420" lon="-74.3512430">
        <ele>2721.5</ele>
        <time>2018-08-10T15:54:25Z</time>
      </trkpt>
      <trkpt lat="4.7520000" lon="-74.3512320">
        <ele>2720.6</ele>
        <time>2018-08-10T15:54:27Z</time>
      </trkpt>
      <trkpt lat="4.7519520" lon="-74.3512230">
        <ele>2720.0</ele>
        <time>2018-08-10T15:54:29Z</time>
      </trkpt>
      <trkpt lat="4.7519300" lon="-74.3512070">
        <ele>2719.7</ele>
        <time>2018-08-10T15:54:30Z</time>
      </trkpt>
      <trkpt lat="4.7518830" lon="-74.3512030">
        <ele>2718.6</ele>
        <time>2018-08-10T15:54:32Z</time>
      </trkpt>
      <trkpt lat="4.7518320" lon="-74.3511920">
        <ele>2717.8</ele>
        <time>2018-08-10T15:54:34Z</time>
      </trkpt>
      <trkpt lat="4.7518030" lon="-74.3511870">
        <ele>2717.5</ele>
        <time>2018-08-10T15:54:35Z</time>
      </trkpt>
      <trkpt lat="4.7517780" lon="-74.3511730">
        <ele>2717.2</ele>
        <time>2018-08-10T15:54:36Z</time>
      </trkpt>
      <trkpt lat="4.7517500" lon="-74.3511670">
        <ele>2716.8</ele>
        <time>2018-08-10T15:54:37Z</time>
      </trkpt>
      <trkpt lat="4.7517230" lon="-74.3511580">
        <ele>2716.1</ele>
        <time>2018-08-10T15:54:38Z</time>
      </trkpt>
      <trkpt lat="4.7516730" lon="-74.3511550">
        <ele>2715.4</ele>
        <time>2018-08-10T15:54:40Z</time>
      </trkpt>
      <trkpt lat="4.7516280" lon="-74.3511620">
        <ele>2715.0</ele>
        <time>2018-08-10T15:54:42Z</time>
      </trkpt>
      <trkpt lat="4.7515830" lon="-74.3511550">
        <ele>2714.5</ele>
        <time>2018-08-10T15:54:44Z</time>
      </trkpt>
      <trkpt lat="4.7515370" lon="-74.3511470">
        <ele>2713.5</ele>
        <time>2018-08-10T15:54:46Z</time>
      </trkpt>
      <trkpt lat="4.7515130" lon="-74.3511280">
        <ele>2712.9</ele>
        <time>2018-08-10T15:54:47Z</time>
      </trkpt>
      <trkpt lat="4.7514870" lon="-74.3511200">
        <ele>2712.6</ele>
        <time>2018-08-10T15:54:48Z</time>
      </trkpt>
      <trkpt lat="4.7514430" lon="-74.3510930">
        <ele>2711.5</ele>
        <time>2018-08-10T15:54:50Z</time>
      </trkpt>
      <trkpt lat="4.7514050" lon="-74.3510620">
        <ele>2710.3</ele>
        <time>2018-08-10T15:54:52Z</time>
      </trkpt>
      <trkpt lat="4.7513830" lon="-74.3510450">
        <ele>2709.9</ele>
        <time>2018-08-10T15:54:53Z</time>
      </trkpt>
      <trkpt lat="4.7513620" lon="-74.3510270">
        <ele>2709.2</ele>
        <time>2018-08-10T15:54:54Z</time>
      </trkpt>
      <trkpt lat="4.7513230" lon="-74.3510030">
        <ele>2707.8</ele>
        <time>2018-08-10T15:54:56Z</time>
      </trkpt>
      <trkpt lat="4.7512980" lon="-74.3510250">
        <ele>2707.1</ele>
        <time>2018-08-10T15:54:57Z</time>
      </trkpt>
      <trkpt lat="4.7512620" lon="-74.3510180">
        <ele>2705.9</ele>
        <time>2018-08-10T15:54:59Z</time>
      </trkpt>
      <trkpt lat="4.7512230" lon="-74.3510080">
        <ele>2705.2</ele>
        <time>2018-08-10T15:55:01Z</time>
      </trkpt>
      <trkpt lat="4.7511900" lon="-74.3509930">
        <ele>2703.9</ele>
        <time>2018-08-10T15:55:03Z</time>
      </trkpt>
      <trkpt lat="4.7511500" lon="-74.3509900">
        <ele>2703.1</ele>
        <time>2018-08-10T15:55:05Z</time>
      </trkpt>
      <trkpt lat="4.7511070" lon="-74.3509930">
        <ele>2702.0</ele>
        <time>2018-08-10T15:55:07Z</time>
      </trkpt>
      <trkpt lat="4.7510730" lon="-74.3509770">
        <ele>2701.2</ele>
        <time>2018-08-10T15:55:09Z</time>
      </trkpt>
      <trkpt lat="4.7510420" lon="-74.3509700">
        <ele>2700.8</ele>
        <time>2018-08-10T15:55:11Z</time>
      </trkpt>
      <trkpt lat="4.7509970" lon="-74.3509680">
        <ele>2699.7</ele>
        <time>2018-08-10T15:55:14Z</time>
      </trkpt>
      <trkpt lat="4.7509680" lon="-74.3509630">
        <ele>2698.7</ele>
        <time>2018-08-10T15:55:16Z</time>
      </trkpt>
      <trkpt lat="4.7509270" lon="-74.3509770">
        <ele>2697.3</ele>
        <time>2018-08-10T15:55:18Z</time>
      </trkpt>
      <trkpt lat="4.7508900" lon="-74.3509720">
        <ele>2696.3</ele>
        <time>2018-08-10T15:55:20Z</time>
      </trkpt>
      <trkpt lat="4.7508550" lon="-74.3509730">
        <ele>2695.8</ele>
        <time>2018-08-10T15:55:22Z</time>
      </trkpt>
      <trkpt lat="4.7508230" lon="-74.3509830">
        <ele>2694.8</ele>
        <time>2018-08-10T15:55:24Z</time>
      </trkpt>
      <trkpt lat="4.7507880" lon="-74.3509880">
        <ele>2694.2</ele>
        <time>2018-08-10T15:55:26Z</time>
      </trkpt>
      <trkpt lat="4.7507620" lon="-74.3510120">
        <ele>2693.6</ele>
        <time>2018-08-10T15:55:27Z</time>
      </trkpt>
      <trkpt lat="4.7507330" lon="-74.3510270">
        <ele>2692.8</ele>
        <time>2018-08-10T15:55:28Z</time>
      </trkpt>
      <trkpt lat="4.7506750" lon="-74.3510500">
        <ele>2691.4</ele>
        <time>2018-08-10T15:55:30Z</time>
      </trkpt>
      <trkpt lat="4.7506420" lon="-74.3510700">
        <ele>2690.8</ele>
        <time>2018-08-10T15:55:31Z</time>
      </trkpt>
      <trkpt lat="4.7506130" lon="-74.3510850">
        <ele>2689.9</ele>
        <time>2018-08-10T15:55:32Z</time>
      </trkpt>
      <trkpt lat="4.7505880" lon="-74.3510980">
        <ele>2689.4</ele>
        <time>2018-08-10T15:55:33Z</time>
      </trkpt>
      <trkpt lat="4.7505430" lon="-74.3510950">
        <ele>2688.4</ele>
        <time>2018-08-10T15:55:35Z</time>
      </trkpt>
      <trkpt lat="4.7504870" lon="-74.3510820">
        <ele>2686.9</ele>
        <time>2018-08-10T15:55:37Z</time>
      </trkpt>
      <trkpt lat="4.7504520" lon="-74.3510780">
        <ele>2685.6</ele>
        <time>2018-08-10T15:55:39Z</time>
      </trkpt>
      <trkpt lat="4.7504200" lon="-74.3510870">
        <ele>2684.8</ele>
        <time>2018-08-10T15:55:41Z</time>
      </trkpt>
      <trkpt lat="4.7503830" lon="-74.3510870">
        <ele>2684.1</ele>
        <time>2018-08-10T15:55:43Z</time>
      </trkpt>
      <trkpt lat="4.7503520" lon="-74.3511070">
        <ele>2682.9</ele>
        <time>2018-08-10T15:55:46Z</time>
      </trkpt>
      <trkpt lat="4.7503080" lon="-74.3511050">
        <ele>2682.2</ele>
        <time>2018-08-10T15:55:49Z</time>
      </trkpt>
      <trkpt lat="4.7502820" lon="-74.3510950">
        <ele>2681.9</ele>
        <time>2018-08-10T15:55:51Z</time>
      </trkpt>
      <trkpt lat="4.7502450" lon="-74.3510820">
        <ele>2680.9</ele>
        <time>2018-08-10T15:55:54Z</time>
      </trkpt>
      <trkpt lat="4.7502130" lon="-74.3510770">
        <ele>2680.4</ele>
        <time>2018-08-10T15:55:56Z</time>
      </trkpt>
      <trkpt lat="4.7501770" lon="-74.3510650">
        <ele>2679.9</ele>
        <time>2018-08-10T15:55:58Z</time>
      </trkpt>
      <trkpt lat="4.7501400" lon="-74.3510600">
        <ele>2679.6</ele>
        <time>2018-08-10T15:56:00Z</time>
      </trkpt>
      <trkpt lat="4.7500900" lon="-74.3510530">
        <ele>2678.8</ele>
        <time>2018-08-10T15:56:02Z</time>
      </trkpt>
      <trkpt lat="4.7500580" lon="-74.3510450">
        <ele>2678.1</ele>
        <time>2018-08-10T15:56:03Z</time>
      </trkpt>
      <trkpt lat="4.7500320" lon="-74.3510400">
        <ele>2677.9</ele>
        <time>2018-08-10T15:56:04Z</time>
      </trkpt>
      <trkpt lat="4.7500000" lon="-74.3510330">
        <ele>2677.6</ele>
        <time>2018-08-10T15:56:05Z</time>
      </trkpt>
      <trkpt lat="4.7499430" lon="-74.3510030">
        <ele>2677.0</ele>
        <time>2018-08-10T15:56:07Z</time>
      </trkpt>
      <trkpt lat="4.7499180" lon="-74.3509920">
        <ele>2676.5</ele>
        <time>2018-08-10T15:56:08Z</time>
      </trkpt>
      <trkpt lat="4.7498920" lon="-74.3509800">
        <ele>2675.9</ele>
        <time>2018-08-10T15:56:09Z</time>
      </trkpt>
      <trkpt lat="4.7498400" lon="-74.3509570">
        <ele>2675.3</ele>
        <time>2018-08-10T15:56:11Z</time>
      </trkpt>
      <trkpt lat="4.7498120" lon="-74.3509480">
        <ele>2675.1</ele>
        <time>2018-08-10T15:56:12Z</time>
      </trkpt>
      <trkpt lat="4.7497850" lon="-74.3509420">
        <ele>2674.9</ele>
        <time>2018-08-10T15:56:13Z</time>
      </trkpt>
      <trkpt lat="4.7497550" lon="-74.3509300">
        <ele>2674.4</ele>
        <time>2018-08-10T15:56:14Z</time>
      </trkpt>
      <trkpt lat="4.7497250" lon="-74.3509170">
        <ele>2673.8</ele>
        <time>2018-08-10T15:56:15Z</time>
      </trkpt>
      <trkpt lat="4.7496900" lon="-74.3508980">
        <ele>2673.0</ele>
        <time>2018-08-10T15:56:16Z</time>
      </trkpt>
      <trkpt lat="4.7496620" lon="-74.3508830">
        <ele>2672.7</ele>
        <time>2018-08-10T15:56:17Z</time>
      </trkpt>
      <trkpt lat="4.7496330" lon="-74.3508720">
        <ele>2672.5</ele>
        <time>2018-08-10T15:56:18Z</time>
      </trkpt>
      <trkpt lat="4.7496070" lon="-74.3508570">
        <ele>2672.2</ele>
        <time>2018-08-10T15:56:19Z</time>
      </trkpt>
      <trkpt lat="4.7495800" lon="-74.3508480">
        <ele>2671.6</ele>
        <time>2018-08-10T15:56:20Z</time>
      </trkpt>
      <trkpt lat="4.7495530" lon="-74.3508420">
        <ele>2671.1</ele>
        <time>2018-08-10T15:56:21Z</time>
      </trkpt>
      <trkpt lat="4.7495300" lon="-74.3508270">
        <ele>2670.9</ele>
        <time>2018-08-10T15:56:22Z</time>
      </trkpt>
      <trkpt lat="4.7495050" lon="-74.3508130">
        <ele>2670.6</ele>
        <time>2018-08-10T15:56:23Z</time>
      </trkpt>
      <trkpt lat="4.7494820" lon="-74.3507950">
        <ele>2670.3</ele>
        <time>2018-08-10T15:56:24Z</time>
      </trkpt>
      <trkpt lat="4.7494550" lon="-74.3507820">
        <ele>2669.9</ele>
        <time>2018-08-10T15:56:25Z</time>
      </trkpt>
      <trkpt lat="4.7494250" lon="-74.3507700">
        <ele>2669.3</ele>
        <time>2018-08-10T15:56:26Z</time>
      </trkpt>
      <trkpt lat="4.7493950" lon="-74.3507570">
        <ele>2668.6</ele>
        <time>2018-08-10T15:56:27Z</time>
      </trkpt>
      <trkpt lat="4.7493630" lon="-74.3507450">
        <ele>2668.4</ele>
        <time>2018-08-10T15:56:28Z</time>
      </trkpt>
      <trkpt lat="4.7493320" lon="-74.3507330">
        <ele>2668.1</ele>
        <time>2018-08-10T15:56:29Z</time>
      </trkpt>
      <trkpt lat="4.7493000" lon="-74.3507230">
        <ele>2667.8</ele>
        <time>2018-08-10T15:56:30Z</time>
      </trkpt>
      <trkpt lat="4.7492720" lon="-74.3507100">
        <ele>2667.5</ele>
        <time>2018-08-10T15:56:31Z</time>
      </trkpt>
      <trkpt lat="4.7492470" lon="-74.3506950">
        <ele>2666.9</ele>
        <time>2018-08-10T15:56:32Z</time>
      </trkpt>
      <trkpt lat="4.7492170" lon="-74.3506970">
        <ele>2666.3</ele>
        <time>2018-08-10T15:56:33Z</time>
      </trkpt>
      <trkpt lat="4.7491880" lon="-74.3506950">
        <ele>2666.0</ele>
        <time>2018-08-10T15:56:34Z</time>
      </trkpt>
      <trkpt lat="4.7491600" lon="-74.3506830">
        <ele>2665.8</ele>
        <time>2018-08-10T15:56:35Z</time>
      </trkpt>
      <trkpt lat="4.7491280" lon="-74.3506650">
        <ele>2665.5</ele>
        <time>2018-08-10T15:56:36Z</time>
      </trkpt>
      <trkpt lat="4.7491000" lon="-74.3506430">
        <ele>2664.7</ele>
        <time>2018-08-10T15:56:37Z</time>
      </trkpt>
      <trkpt lat="4.7490730" lon="-74.3506100">
        <ele>2663.8</ele>
        <time>2018-08-10T15:56:38Z</time>
      </trkpt>
      <trkpt lat="4.7490470" lon="-74.3505850">
        <ele>2663.1</ele>
        <time>2018-08-10T15:56:39Z</time>
      </trkpt>
      <trkpt lat="4.7490220" lon="-74.3505550">
        <ele>2662.1</ele>
        <time>2018-08-10T15:56:40Z</time>
      </trkpt>
      <trkpt lat="4.7489980" lon="-74.3505370">
        <ele>2661.6</ele>
        <time>2018-08-10T15:56:41Z</time>
      </trkpt>
      <trkpt lat="4.7489750" lon="-74.3505220">
        <ele>2661.2</ele>
        <time>2018-08-10T15:56:42Z</time>
      </trkpt>
      <trkpt lat="4.7489300" lon="-74.3504970">
        <ele>2660.4</ele>
        <time>2018-08-10T15:56:44Z</time>
      </trkpt>
      <trkpt lat="4.7488830" lon="-74.3504750">
        <ele>2659.2</ele>
        <time>2018-08-10T15:56:46Z</time>
      </trkpt>
      <trkpt lat="4.7488450" lon="-74.3504530">
        <ele>2658.2</ele>
        <time>2018-08-10T15:56:48Z</time>
      </trkpt>
      <trkpt lat="4.7488000" lon="-74.3504380">
        <ele>2657.3</ele>
        <time>2018-08-10T15:56:50Z</time>
      </trkpt>
      <trkpt lat="4.7487570" lon="-74.3504150">
        <ele>2656.6</ele>
        <time>2018-08-10T15:56:52Z</time>
      </trkpt>
      <trkpt lat="4.7487130" lon="-74.3503900">
        <ele>2655.6</ele>
        <time>2018-08-10T15:56:54Z</time>
      </trkpt>
      <trkpt lat="4.7486700" lon="-74.3503650">
        <ele>2654.8</ele>
        <time>2018-08-10T15:56:56Z</time>
      </trkpt>
      <trkpt lat="4.7486450" lon="-74.3503470">
        <ele>2654.6</ele>
        <time>2018-08-10T15:56:57Z</time>
      </trkpt>
      <trkpt lat="4.7486170" lon="-74.3503330">
        <ele>2654.4</ele>
        <time>2018-08-10T15:56:58Z</time>
      </trkpt>
      <trkpt lat="4.7485880" lon="-74.3503150">
        <ele>2654.2</ele>
        <time>2018-08-10T15:56:59Z</time>
      </trkpt>
      <trkpt lat="4.7485600" lon="-74.3502930">
        <ele>2653.9</ele>
        <time>2018-08-10T15:57:00Z</time>
      </trkpt>
      <trkpt lat="4.7485280" lon="-74.3502680">
        <ele>2653.5</ele>
        <time>2018-08-10T15:57:01Z</time>
      </trkpt>
      <trkpt lat="4.7485030" lon="-74.3502420">
        <ele>2652.8</ele>
        <time>2018-08-10T15:57:02Z</time>
      </trkpt>
      <trkpt lat="4.7484770" lon="-74.3502200">
        <ele>2652.5</ele>
        <time>2018-08-10T15:57:03Z</time>
      </trkpt>
      <trkpt lat="4.7484530" lon="-74.3501900">
        <ele>2652.3</ele>
        <time>2018-08-10T15:57:04Z</time>
      </trkpt>
      <trkpt lat="4.7484270" lon="-74.3501630">
        <ele>2652.0</ele>
        <time>2018-08-10T15:57:05Z</time>
      </trkpt>
      <trkpt lat="4.7483950" lon="-74.3501430">
        <ele>2651.8</ele>
        <time>2018-08-10T15:57:06Z</time>
      </trkpt>
      <trkpt lat="4.7483670" lon="-74.3501170">
        <ele>2651.3</ele>
        <time>2018-08-10T15:57:07Z</time>
      </trkpt>
      <trkpt lat="4.7483350" lon="-74.3500900">
        <ele>2650.4</ele>
        <time>2018-08-10T15:57:08Z</time>
      </trkpt>
      <trkpt lat="4.7483080" lon="-74.3500450">
        <ele>2649.7</ele>
        <time>2018-08-10T15:57:09Z</time>
      </trkpt>
      <trkpt lat="4.7482780" lon="-74.3500320">
        <ele>2649.4</ele>
        <time>2018-08-10T15:57:10Z</time>
      </trkpt>
      <trkpt lat="4.7482500" lon="-74.3500180">
        <ele>2649.1</ele>
        <time>2018-08-10T15:57:11Z</time>
      </trkpt>
      <trkpt lat="4.7482120" lon="-74.3500050">
        <ele>2648.3</ele>
        <time>2018-08-10T15:57:12Z</time>
      </trkpt>
      <trkpt lat="4.7481750" lon="-74.3499920">
        <ele>2647.8</ele>
        <time>2018-08-10T15:57:13Z</time>
      </trkpt>
      <trkpt lat="4.7481420" lon="-74.3499770">
        <ele>2647.5</ele>
        <time>2018-08-10T15:57:14Z</time>
      </trkpt>
      <trkpt lat="4.7481100" lon="-74.3499630">
        <ele>2647.2</ele>
        <time>2018-08-10T15:57:15Z</time>
      </trkpt>
      <trkpt lat="4.7480730" lon="-74.3499570">
        <ele>2646.6</ele>
        <time>2018-08-10T15:57:16Z</time>
      </trkpt>
      <trkpt lat="4.7480370" lon="-74.3499470">
        <ele>2645.7</ele>
        <time>2018-08-10T15:57:17Z</time>
      </trkpt>
      <trkpt lat="4.7480000" lon="-74.3499420">
        <ele>2645.3</ele>
        <time>2018-08-10T15:57:18Z</time>
      </trkpt>
      <trkpt lat="4.7479670" lon="-74.3499370">
        <ele>2644.8</ele>
        <time>2018-08-10T15:57:19Z</time>
      </trkpt>
      <trkpt lat="4.7479330" lon="-74.3499330">
        <ele>2643.9</ele>
        <time>2018-08-10T15:57:20Z</time>
      </trkpt>
      <trkpt lat="4.7479030" lon="-74.3499250">
        <ele>2643.1</ele>
        <time>2018-08-10T15:57:21Z</time>
      </trkpt>
      <trkpt lat="4.7478720" lon="-74.3499170">
        <ele>2642.7</ele>
        <time>2018-08-10T15:57:22Z</time>
      </trkpt>
      <trkpt lat="4.7478430" lon="-74.3499080">
        <ele>2642.4</ele>
        <time>2018-08-10T15:57:23Z</time>
      </trkpt>
      <trkpt lat="4.7477970" lon="-74.3498920">
        <ele>2641.5</ele>
        <time>2018-08-10T15:57:25Z</time>
      </trkpt>
      <trkpt lat="4.7477720" lon="-74.3498780">
        <ele>2641.0</ele>
        <time>2018-08-10T15:57:26Z</time>
      </trkpt>
      <trkpt lat="4.7477230" lon="-74.3498530">
        <ele>2640.4</ele>
        <time>2018-08-10T15:57:28Z</time>
      </trkpt>
      <trkpt lat="4.7476980" lon="-74.3498420">
        <ele>2640.1</ele>
        <time>2018-08-10T15:57:29Z</time>
      </trkpt>
      <trkpt lat="4.7476570" lon="-74.3498470">
        <ele>2639.5</ele>
        <time>2018-08-10T15:57:31Z</time>
      </trkpt>
      <trkpt lat="4.7476080" lon="-74.3498620">
        <ele>2638.5</ele>
        <time>2018-08-10T15:57:33Z</time>
      </trkpt>
      <trkpt lat="4.7475570" lon="-74.3498670">
        <ele>2637.9</ele>
        <time>2018-08-10T15:57:35Z</time>
      </trkpt>
      <trkpt lat="4.7475280" lon="-74.3498620">
        <ele>2637.7</ele>
        <time>2018-08-10T15:57:36Z</time>
      </trkpt>
      <trkpt lat="4.7474980" lon="-74.3498570">
        <ele>2637.1</ele>
        <time>2018-08-10T15:57:37Z</time>
      </trkpt>
      <trkpt lat="4.7474700" lon="-74.3498520">
        <ele>2636.5</ele>
        <time>2018-08-10T15:57:38Z</time>
      </trkpt>
      <trkpt lat="4.7474120" lon="-74.3498320">
        <ele>2635.8</ele>
        <time>2018-08-10T15:57:40Z</time>
      </trkpt>
      <trkpt lat="4.7473550" lon="-74.3498030">
        <ele>2634.7</ele>
        <time>2018-08-10T15:57:42Z</time>
      </trkpt>
      <trkpt lat="4.7473170" lon="-74.3497780">
        <ele>2633.7</ele>
        <time>2018-08-10T15:57:43Z</time>
      </trkpt>
      <trkpt lat="4.7472830" lon="-74.3497550">
        <ele>2632.8</ele>
        <time>2018-08-10T15:57:44Z</time>
      </trkpt>
      <trkpt lat="4.7472600" lon="-74.3497370">
        <ele>2631.9</ele>
        <time>2018-08-10T15:57:45Z</time>
      </trkpt>
      <trkpt lat="4.7472270" lon="-74.3497220">
        <ele>2631.2</ele>
        <time>2018-08-10T15:57:47Z</time>
      </trkpt>
      <trkpt lat="4.7471970" lon="-74.3497380">
        <ele>2630.8</ele>
        <time>2018-08-10T15:57:49Z</time>
      </trkpt>
      <trkpt lat="4.7471680" lon="-74.3497630">
        <ele>2630.1</ele>
        <time>2018-08-10T15:57:51Z</time>
      </trkpt>
      <trkpt lat="4.7471380" lon="-74.3497570">
        <ele>2629.4</ele>
        <time>2018-08-10T15:57:54Z</time>
      </trkpt>
      <trkpt lat="4.7471100" lon="-74.3497530">
        <ele>2629.2</ele>
        <time>2018-08-10T15:57:57Z</time>
      </trkpt>
      <trkpt lat="4.7469620" lon="-74.3497550">
        <ele>2627.3</ele>
        <time>2018-08-10T15:58:53Z</time>
      </trkpt>
      <trkpt lat="4.7469320" lon="-74.3497350">
        <ele>2626.7</ele>
        <time>2018-08-10T15:58:54Z</time>
      </trkpt>
      <trkpt lat="4.7469070" lon="-74.3497180">
        <ele>2626.4</ele>
        <time>2018-08-10T15:58:55Z</time>
      </trkpt>
      <trkpt lat="4.7468780" lon="-74.3496950">
        <ele>2625.7</ele>
        <time>2018-08-10T15:58:56Z</time>
      </trkpt>
      <trkpt lat="4.7468530" lon="-74.3496680">
        <ele>2624.8</ele>
        <time>2018-08-10T15:58:57Z</time>
      </trkpt>
      <trkpt lat="4.7468270" lon="-74.3496450">
        <ele>2624.1</ele>
        <time>2018-08-10T15:58:58Z</time>
      </trkpt>
      <trkpt lat="4.7467970" lon="-74.3496120">
        <ele>2623.5</ele>
        <time>2018-08-10T15:58:59Z</time>
      </trkpt>
      <trkpt lat="4.7467700" lon="-74.3495850">
        <ele>2622.9</ele>
        <time>2018-08-10T15:59:00Z</time>
      </trkpt>
      <trkpt lat="4.7467450" lon="-74.3495620">
        <ele>2622.1</ele>
        <time>2018-08-10T15:59:01Z</time>
      </trkpt>
      <trkpt lat="4.7467220" lon="-74.3495400">
        <ele>2621.6</ele>
        <time>2018-08-10T15:59:02Z</time>
      </trkpt>
      <trkpt lat="4.7466980" lon="-74.3495180">
        <ele>2620.9</ele>
        <time>2018-08-10T15:59:03Z</time>
      </trkpt>
      <trkpt lat="4.7466780" lon="-74.3494920">
        <ele>2619.9</ele>
        <time>2018-08-10T15:59:04Z</time>
      </trkpt>
      <trkpt lat="4.7466520" lon="-74.3494680">
        <ele>2619.3</ele>
        <time>2018-08-10T15:59:05Z</time>
      </trkpt>
      <trkpt lat="4.7466220" lon="-74.3494480">
        <ele>2618.2</ele>
        <time>2018-08-10T15:59:06Z</time>
      </trkpt>
      <trkpt lat="4.7465950" lon="-74.3494230">
        <ele>2617.4</ele>
        <time>2018-08-10T15:59:07Z</time>
      </trkpt>
      <trkpt lat="4.7465680" lon="-74.3494020">
        <ele>2616.3</ele>
        <time>2018-08-10T15:59:08Z</time>
      </trkpt>
      <trkpt lat="4.7465420" lon="-74.3493800">
        <ele>2615.3</ele>
        <time>2018-08-10T15:59:09Z</time>
      </trkpt>
      <trkpt lat="4.7465170" lon="-74.3493570">
        <ele>2614.8</ele>
        <time>2018-08-10T15:59:10Z</time>
      </trkpt>
      <trkpt lat="4.7464880" lon="-74.3493350">
        <ele>2613.8</ele>
        <time>2018-08-10T15:59:11Z</time>
      </trkpt>
      <trkpt lat="4.7464650" lon="-74.3493120">
        <ele>2613.0</ele>
        <time>2018-08-10T15:59:12Z</time>
      </trkpt>
      <trkpt lat="4.7464420" lon="-74.3492870">
        <ele>2612.6</ele>
        <time>2018-08-10T15:59:13Z</time>
      </trkpt>
      <trkpt lat="4.7464150" lon="-74.3492630">
        <ele>2611.9</ele>
        <time>2018-08-10T15:59:14Z</time>
      </trkpt>
      <trkpt lat="4.7463900" lon="-74.3492380">
        <ele>2611.1</ele>
        <time>2018-08-10T15:59:15Z</time>
      </trkpt>
      <trkpt lat="4.7463650" lon="-74.3492170">
        <ele>2610.6</ele>
        <time>2018-08-10T15:59:16Z</time>
      </trkpt>
      <trkpt lat="4.7463380" lon="-74.3491970">
        <ele>2610.0</ele>
        <time>2018-08-10T15:59:17Z</time>
      </trkpt>
      <trkpt lat="4.7463100" lon="-74.3491770">
        <ele>2609.7</ele>
        <time>2018-08-10T15:59:18Z</time>
      </trkpt>
      <trkpt lat="4.7462850" lon="-74.3491570">
        <ele>2608.8</ele>
        <time>2018-08-10T15:59:19Z</time>
      </trkpt>
      <trkpt lat="4.7462550" lon="-74.3491470">
        <ele>2607.8</ele>
        <time>2018-08-10T15:59:20Z</time>
      </trkpt>
      <trkpt lat="4.7462220" lon="-74.3491600">
        <ele>2607.0</ele>
        <time>2018-08-10T15:59:21Z</time>
      </trkpt>
      <trkpt lat="4.7461930" lon="-74.3491720">
        <ele>2606.0</ele>
        <time>2018-08-10T15:59:22Z</time>
      </trkpt>
      <trkpt lat="4.7461730" lon="-74.3491920">
        <ele>2605.4</ele>
        <time>2018-08-10T15:59:23Z</time>
      </trkpt>
      <trkpt lat="4.7461550" lon="-74.3492150">
        <ele>2604.9</ele>
        <time>2018-08-10T15:59:24Z</time>
      </trkpt>
      <trkpt lat="4.7461480" lon="-74.3492450">
        <ele>2604.3</ele>
        <time>2018-08-10T15:59:25Z</time>
      </trkpt>
      <trkpt lat="4.7461420" lon="-74.3493000">
        <ele>2602.8</ele>
        <time>2018-08-10T15:59:27Z</time>
      </trkpt>
      <trkpt lat="4.7461300" lon="-74.3493620">
        <ele>2600.9</ele>
        <time>2018-08-10T15:59:29Z</time>
      </trkpt>
      <trkpt lat="4.7461200" lon="-74.3494000">
        <ele>2600.0</ele>
        <time>2018-08-10T15:59:30Z</time>
      </trkpt>
      <trkpt lat="4.7461080" lon="-74.3494320">
        <ele>2598.9</ele>
        <time>2018-08-10T15:59:31Z</time>
      </trkpt>
      <trkpt lat="4.7460520" lon="-74.3494400">
        <ele>2598.0</ele>
        <time>2018-08-10T15:59:33Z</time>
      </trkpt>
      <trkpt lat="4.7460230" lon="-74.3494250">
        <ele>2597.3</ele>
        <time>2018-08-10T15:59:34Z</time>
      </trkpt>
      <trkpt lat="4.7459920" lon="-74.3494000">
        <ele>2596.5</ele>
        <time>2018-08-10T15:59:35Z</time>
      </trkpt>
      <trkpt lat="4.7459580" lon="-74.3493630">
        <ele>2595.8</ele>
        <time>2018-08-10T15:59:36Z</time>
      </trkpt>
      <trkpt lat="4.7459250" lon="-74.3493370">
        <ele>2595.2</ele>
        <time>2018-08-10T15:59:37Z</time>
      </trkpt>
      <trkpt lat="4.7458970" lon="-74.3493050">
        <ele>2594.2</ele>
        <time>2018-08-10T15:59:38Z</time>
      </trkpt>
      <trkpt lat="4.7458720" lon="-74.3492700">
        <ele>2593.8</ele>
        <time>2018-08-10T15:59:39Z</time>
      </trkpt>
      <trkpt lat="4.7458520" lon="-74.3492380">
        <ele>2593.4</ele>
        <time>2018-08-10T15:59:40Z</time>
      </trkpt>
      <trkpt lat="4.7458280" lon="-74.3492120">
        <ele>2592.7</ele>
        <time>2018-08-10T15:59:41Z</time>
      </trkpt>
      <trkpt lat="4.7458030" lon="-74.3491930">
        <ele>2592.0</ele>
        <time>2018-08-10T15:59:42Z</time>
      </trkpt>
      <trkpt lat="4.7457730" lon="-74.3491920">
        <ele>2591.6</ele>
        <time>2018-08-10T15:59:43Z</time>
      </trkpt>
      <trkpt lat="4.7457380" lon="-74.3492150">
        <ele>2591.2</ele>
        <time>2018-08-10T15:59:44Z</time>
      </trkpt>
      <trkpt lat="4.7457030" lon="-74.3492370">
        <ele>2590.8</ele>
        <time>2018-08-10T15:59:45Z</time>
      </trkpt>
      <trkpt lat="4.7456720" lon="-74.3492520">
        <ele>2590.1</ele>
        <time>2018-08-10T15:59:46Z</time>
      </trkpt>
      <trkpt lat="4.7456200" lon="-74.3492600">
        <ele>2589.2</ele>
        <time>2018-08-10T15:59:48Z</time>
      </trkpt>
      <trkpt lat="4.7455880" lon="-74.3492520">
        <ele>2588.9</ele>
        <time>2018-08-10T15:59:49Z</time>
      </trkpt>
      <trkpt lat="4.7455580" lon="-74.3492400">
        <ele>2588.5</ele>
        <time>2018-08-10T15:59:50Z</time>
      </trkpt>
      <trkpt lat="4.7455280" lon="-74.3492270">
        <ele>2587.6</ele>
        <time>2018-08-10T15:59:51Z</time>
      </trkpt>
      <trkpt lat="4.7455020" lon="-74.3492150">
        <ele>2587.0</ele>
        <time>2018-08-10T15:59:52Z</time>
      </trkpt>
      <trkpt lat="4.7454750" lon="-74.3491980">
        <ele>2586.6</ele>
        <time>2018-08-10T15:59:53Z</time>
      </trkpt>
      <trkpt lat="4.7454520" lon="-74.3491830">
        <ele>2586.1</ele>
        <time>2018-08-10T15:59:54Z</time>
      </trkpt>
      <trkpt lat="4.7454200" lon="-74.3491580">
        <ele>2585.0</ele>
        <time>2018-08-10T15:59:55Z</time>
      </trkpt>
      <trkpt lat="4.7453930" lon="-74.3491380">
        <ele>2584.4</ele>
        <time>2018-08-10T15:59:56Z</time>
      </trkpt>
      <trkpt lat="4.7453700" lon="-74.3491150">
        <ele>2583.6</ele>
        <time>2018-08-10T15:59:57Z</time>
      </trkpt>
      <trkpt lat="4.7453480" lon="-74.3490970">
        <ele>2582.9</ele>
        <time>2018-08-10T15:59:58Z</time>
      </trkpt>
      <trkpt lat="4.7453230" lon="-74.3490770">
        <ele>2582.5</ele>
        <time>2018-08-10T15:59:59Z</time>
      </trkpt>
      <trkpt lat="4.7452980" lon="-74.3490620">
        <ele>2582.2</ele>
        <time>2018-08-10T16:00:00Z</time>
      </trkpt>
      <trkpt lat="4.7452750" lon="-74.3490470">
        <ele>2582.0</ele>
        <time>2018-08-10T16:00:01Z</time>
      </trkpt>
      <trkpt lat="4.7452520" lon="-74.3490320">
        <ele>2581.4</ele>
        <time>2018-08-10T16:00:02Z</time>
      </trkpt>
      <trkpt lat="4.7452270" lon="-74.3490130">
        <ele>2580.7</ele>
        <time>2018-08-10T16:00:03Z</time>
      </trkpt>
      <trkpt lat="4.7452020" lon="-74.3489920">
        <ele>2580.2</ele>
        <time>2018-08-10T16:00:04Z</time>
      </trkpt>
      <trkpt lat="4.7451800" lon="-74.3489650">
        <ele>2579.8</ele>
        <time>2018-08-10T16:00:05Z</time>
      </trkpt>
      <trkpt lat="4.7451600" lon="-74.3489420">
        <ele>2579.5</ele>
        <time>2018-08-10T16:00:06Z</time>
      </trkpt>
      <trkpt lat="4.7451370" lon="-74.3489180">
        <ele>2578.8</ele>
        <time>2018-08-10T16:00:07Z</time>
      </trkpt>
      <trkpt lat="4.7451130" lon="-74.3488980">
        <ele>2578.3</ele>
        <time>2018-08-10T16:00:08Z</time>
      </trkpt>
      <trkpt lat="4.7450900" lon="-74.3488780">
        <ele>2578.0</ele>
        <time>2018-08-10T16:00:09Z</time>
      </trkpt>
      <trkpt lat="4.7450670" lon="-74.3488630">
        <ele>2577.8</ele>
        <time>2018-08-10T16:00:10Z</time>
      </trkpt>
      <trkpt lat="4.7450280" lon="-74.3488380">
        <ele>2577.3</ele>
        <time>2018-08-10T16:00:12Z</time>
      </trkpt>
      <trkpt lat="4.7449900" lon="-74.3488230">
        <ele>2576.5</ele>
        <time>2018-08-10T16:00:14Z</time>
      </trkpt>
      <trkpt lat="4.7449500" lon="-74.3487980">
        <ele>2575.8</ele>
        <time>2018-08-10T16:00:16Z</time>
      </trkpt>
      <trkpt lat="4.7449300" lon="-74.3487780">
        <ele>2575.6</ele>
        <time>2018-08-10T16:00:17Z</time>
      </trkpt>
      <trkpt lat="4.7449100" lon="-74.3487520">
        <ele>2575.4</ele>
        <time>2018-08-10T16:00:18Z</time>
      </trkpt>
      <trkpt lat="4.7448880" lon="-74.3487270">
        <ele>2575.2</ele>
        <time>2018-08-10T16:00:19Z</time>
      </trkpt>
      <trkpt lat="4.7448650" lon="-74.3487020">
        <ele>2575.0</ele>
        <time>2018-08-10T16:00:20Z</time>
      </trkpt>
      <trkpt lat="4.7448400" lon="-74.3486730">
        <ele>2574.7</ele>
        <time>2018-08-10T16:00:21Z</time>
      </trkpt>
      <trkpt lat="4.7448120" lon="-74.3486450">
        <ele>2574.5</ele>
        <time>2018-08-10T16:00:22Z</time>
      </trkpt>
      <trkpt lat="4.7447800" lon="-74.3486120">
        <ele>2573.9</ele>
        <time>2018-08-10T16:00:23Z</time>
      </trkpt>
      <trkpt lat="4.7447470" lon="-74.3485780">
        <ele>2573.6</ele>
        <time>2018-08-10T16:00:24Z</time>
      </trkpt>
      <trkpt lat="4.7447100" lon="-74.3485400">
        <ele>2573.4</ele>
        <time>2018-08-10T16:00:25Z</time>
      </trkpt>
      <trkpt lat="4.7446670" lon="-74.3484930">
        <ele>2573.2</ele>
        <time>2018-08-10T16:00:26Z</time>
      </trkpt>
      <trkpt lat="4.7446320" lon="-74.3484600">
        <ele>2573.1</ele>
        <time>2018-08-10T16:00:27Z</time>
      </trkpt>
      <trkpt lat="4.7445930" lon="-74.3484220">
        <ele>2573.0</ele>
        <time>2018-08-10T16:00:28Z</time>
      </trkpt>
      <trkpt lat="4.7445580" lon="-74.3483870">
        <ele>2572.9</ele>
        <time>2018-08-10T16:00:29Z</time>
      </trkpt>
      <trkpt lat="4.7445250" lon="-74.3483580">
        <ele>2572.8</ele>
        <time>2018-08-10T16:00:30Z</time>
      </trkpt>
      <trkpt lat="4.7444920" lon="-74.3483220">
        <ele>2572.8</ele>
        <time>2018-08-10T16:00:31Z</time>
      </trkpt>
      <trkpt lat="4.7444630" lon="-74.3482880">
        <ele>2572.7</ele>
        <time>2018-08-10T16:00:32Z</time>
      </trkpt>
      <trkpt lat="4.7444330" lon="-74.3482550">
        <ele>2572.7</ele>
        <time>2018-08-10T16:00:33Z</time>
      </trkpt>
      <trkpt lat="4.7444020" lon="-74.3482180">
        <ele>2572.6</ele>
        <time>2018-08-10T16:00:34Z</time>
      </trkpt>
      <trkpt lat="4.7443680" lon="-74.3481830">
        <ele>2572.6</ele>
        <time>2018-08-10T16:00:35Z</time>
      </trkpt>
      <trkpt lat="4.7443370" lon="-74.3481470">
        <ele>2572.6</ele>
        <time>2018-08-10T16:00:36Z</time>
      </trkpt>
      <trkpt lat="4.7443050" lon="-74.3481120">
        <ele>2572.6</ele>
        <time>2018-08-10T16:00:37Z</time>
      </trkpt>
      <trkpt lat="4.7442720" lon="-74.3480750">
        <ele>2572.6</ele>
        <time>2018-08-10T16:00:38Z</time>
      </trkpt>
      <trkpt lat="4.7442350" lon="-74.3480380">
        <ele>2572.6</ele>
        <time>2018-08-10T16:00:39Z</time>
      </trkpt>
      <trkpt lat="4.7441950" lon="-74.3480030">
        <ele>2572.5</ele>
        <time>2018-08-10T16:00:40Z</time>
      </trkpt>
      <trkpt lat="4.7441530" lon="-74.3479650">
        <ele>2572.5</ele>
        <time>2018-08-10T16:00:41Z</time>
      </trkpt>
      <trkpt lat="4.7441120" lon="-74.3479280">
        <ele>2572.5</ele>
        <time>2018-08-10T16:00:42Z</time>
      </trkpt>
      <trkpt lat="4.7440730" lon="-74.3478920">
        <ele>2572.5</ele>
        <time>2018-08-10T16:00:43Z</time>
      </trkpt>
      <trkpt lat="4.7440350" lon="-74.3478580">
        <ele>2572.5</ele>
        <time>2018-08-10T16:00:44Z</time>
      </trkpt>
      <trkpt lat="4.7439930" lon="-74.3478250">
        <ele>2572.5</ele>
        <time>2018-08-10T16:00:45Z</time>
      </trkpt>
      <trkpt lat="4.7439550" lon="-74.3477900">
        <ele>2572.5</ele>
        <time>2018-08-10T16:00:46Z</time>
      </trkpt>
      <trkpt lat="4.7439150" lon="-74.3477550">
        <ele>2572.4</ele>
        <time>2018-08-10T16:00:47Z</time>
      </trkpt>
      <trkpt lat="4.7438750" lon="-74.3477220">
        <ele>2572.4</ele>
        <time>2018-08-10T16:00:48Z</time>
      </trkpt>
      <trkpt lat="4.7438350" lon="-74.3476900">
        <ele>2572.4</ele>
        <time>2018-08-10T16:00:49Z</time>
      </trkpt>
      <trkpt lat="4.7437950" lon="-74.3476580">
        <ele>2572.4</ele>
        <time>2018-08-10T16:00:50Z</time>
      </trkpt>
      <trkpt lat="4.7437650" lon="-74.3476230">
        <ele>2572.4</ele>
        <time>2018-08-10T16:00:51Z</time>
      </trkpt>
      <trkpt lat="4.7437330" lon="-74.3475870">
        <ele>2572.4</ele>
        <time>2018-08-10T16:00:52Z</time>
      </trkpt>
      <trkpt lat="4.7437000" lon="-74.3475550">
        <ele>2572.4</ele>
        <time>2018-08-10T16:00:53Z</time>
      </trkpt>
      <trkpt lat="4.7436680" lon="-74.3475230">
        <ele>2572.4</ele>
        <time>2018-08-10T16:00:54Z</time>
      </trkpt>
      <trkpt lat="4.7436370" lon="-74.3474970">
        <ele>2572.3</ele>
        <time>2018-08-10T16:00:55Z</time>
      </trkpt>
      <trkpt lat="4.7436070" lon="-74.3474680">
        <ele>2572.3</ele>
        <time>2018-08-10T16:00:56Z</time>
      </trkpt>
      <trkpt lat="4.7435820" lon="-74.3474420">
        <ele>2572.3</ele>
        <time>2018-08-10T16:00:57Z</time>
      </trkpt>
      <trkpt lat="4.7435700" lon="-74.3474150">
        <ele>2572.3</ele>
        <time>2018-08-10T16:00:58Z</time>
      </trkpt>
      <trkpt lat="4.7435530" lon="-74.3473850">
        <ele>2572.3</ele>
        <time>2018-08-10T16:00:59Z</time>
      </trkpt>
      <trkpt lat="4.7435380" lon="-74.3473570">
        <ele>2572.3</ele>
        <time>2018-08-10T16:01:00Z</time>
      </trkpt>
      <trkpt lat="4.7435170" lon="-74.3473370">
        <ele>2572.3</ele>
        <time>2018-08-10T16:01:01Z</time>
      </trkpt>
      <trkpt lat="4.7434920" lon="-74.3473180">
        <ele>2572.3</ele>
        <time>2018-08-10T16:01:02Z</time>
      </trkpt>
      <trkpt lat="4.7434630" lon="-74.3473070">
        <ele>2572.3</ele>
        <time>2018-08-10T16:01:03Z</time>
      </trkpt>
      <trkpt lat="4.7434370" lon="-74.3472920">
        <ele>2572.3</ele>
        <time>2018-08-10T16:01:04Z</time>
      </trkpt>
      <trkpt lat="4.7433880" lon="-74.3472550">
        <ele>2572.3</ele>
        <time>2018-08-10T16:01:06Z</time>
      </trkpt>
      <trkpt lat="4.7433570" lon="-74.3472380">
        <ele>2572.3</ele>
        <time>2018-08-10T16:01:07Z</time>
      </trkpt>
      <trkpt lat="4.7433270" lon="-74.3472170">
        <ele>2572.2</ele>
        <time>2018-08-10T16:01:08Z</time>
      </trkpt>
      <trkpt lat="4.7432950" lon="-74.3471970">
        <ele>2572.2</ele>
        <time>2018-08-10T16:01:09Z</time>
      </trkpt>
      <trkpt lat="4.7432670" lon="-74.3471770">
        <ele>2572.2</ele>
        <time>2018-08-10T16:01:10Z</time>
      </trkpt>
      <trkpt lat="4.7432380" lon="-74.3471550">
        <ele>2572.2</ele>
        <time>2018-08-10T16:01:11Z</time>
      </trkpt>
      <trkpt lat="4.7432080" lon="-74.3471320">
        <ele>2572.2</ele>
        <time>2018-08-10T16:01:12Z</time>
      </trkpt>
      <trkpt lat="4.7431780" lon="-74.3471130">
        <ele>2572.2</ele>
        <time>2018-08-10T16:01:13Z</time>
      </trkpt>
      <trkpt lat="4.7431480" lon="-74.3470950">
        <ele>2572.2</ele>
        <time>2018-08-10T16:01:14Z</time>
      </trkpt>
      <trkpt lat="4.7431200" lon="-74.3470720">
        <ele>2572.2</ele>
        <time>2018-08-10T16:01:15Z</time>
      </trkpt>
      <trkpt lat="4.7430930" lon="-74.3470500">
        <ele>2572.2</ele>
        <time>2018-08-10T16:01:16Z</time>
      </trkpt>
      <trkpt lat="4.7430650" lon="-74.3470280">
        <ele>2572.2</ele>
        <time>2018-08-10T16:01:17Z</time>
      </trkpt>
      <trkpt lat="4.7430380" lon="-74.3470070">
        <ele>2572.2</ele>
        <time>2018-08-10T16:01:18Z</time>
      </trkpt>
      <trkpt lat="4.7430120" lon="-74.3469880">
        <ele>2572.2</ele>
        <time>2018-08-10T16:01:19Z</time>
      </trkpt>
      <trkpt lat="4.7429900" lon="-74.3469720">
        <ele>2572.2</ele>
        <time>2018-08-10T16:01:20Z</time>
      </trkpt>
      <trkpt lat="4.7429670" lon="-74.3469570">
        <ele>2572.2</ele>
        <time>2018-08-10T16:01:21Z</time>
      </trkpt>
      <trkpt lat="4.7429400" lon="-74.3469370">
        <ele>2572.2</ele>
        <time>2018-08-10T16:01:22Z</time>
      </trkpt>
      <trkpt lat="4.7429130" lon="-74.3469200">
        <ele>2572.3</ele>
        <time>2018-08-10T16:01:23Z</time>
      </trkpt>
      <trkpt lat="4.7428830" lon="-74.3468970">
        <ele>2572.3</ele>
        <time>2018-08-10T16:01:24Z</time>
      </trkpt>
      <trkpt lat="4.7428550" lon="-74.3468750">
        <ele>2572.3</ele>
        <time>2018-08-10T16:01:25Z</time>
      </trkpt>
      <trkpt lat="4.7428270" lon="-74.3468500">
        <ele>2572.3</ele>
        <time>2018-08-10T16:01:26Z</time>
      </trkpt>
      <trkpt lat="4.7428030" lon="-74.3468250">
        <ele>2572.4</ele>
        <time>2018-08-10T16:01:27Z</time>
      </trkpt>
      <trkpt lat="4.7427680" lon="-74.3467880">
        <ele>2572.4</ele>
        <time>2018-08-10T16:01:28Z</time>
      </trkpt>
      <trkpt lat="4.7427400" lon="-74.3467680">
        <ele>2572.4</ele>
        <time>2018-08-10T16:01:29Z</time>
      </trkpt>
      <trkpt lat="4.7427100" lon="-74.3467450">
        <ele>2572.5</ele>
        <time>2018-08-10T16:01:30Z</time>
      </trkpt>
      <trkpt lat="4.7426780" lon="-74.3467230">
        <ele>2572.6</ele>
        <time>2018-08-10T16:01:31Z</time>
      </trkpt>
      <trkpt lat="4.7426520" lon="-74.3466980">
        <ele>2572.7</ele>
        <time>2018-08-10T16:01:32Z</time>
      </trkpt>
      <trkpt lat="4.7426270" lon="-74.3466730">
        <ele>2572.9</ele>
        <time>2018-08-10T16:01:33Z</time>
      </trkpt>
      <trkpt lat="4.7425950" lon="-74.3466500">
        <ele>2573.0</ele>
        <time>2018-08-10T16:01:34Z</time>
      </trkpt>
      <trkpt lat="4.7425620" lon="-74.3466250">
        <ele>2573.2</ele>
        <time>2018-08-10T16:01:35Z</time>
      </trkpt>
      <trkpt lat="4.7425300" lon="-74.3466000">
        <ele>2573.3</ele>
        <time>2018-08-10T16:01:36Z</time>
      </trkpt>
      <trkpt lat="4.7425000" lon="-74.3465820">
        <ele>2573.4</ele>
        <time>2018-08-10T16:01:37Z</time>
      </trkpt>
      <trkpt lat="4.7424680" lon="-74.3465580">
        <ele>2573.5</ele>
        <time>2018-08-10T16:01:38Z</time>
      </trkpt>
      <trkpt lat="4.7424350" lon="-74.3465350">
        <ele>2573.6</ele>
        <time>2018-08-10T16:01:39Z</time>
      </trkpt>
      <trkpt lat="4.7424000" lon="-74.3465120">
        <ele>2573.6</ele>
        <time>2018-08-10T16:01:40Z</time>
      </trkpt>
      <trkpt lat="4.7423620" lon="-74.3465030">
        <ele>2573.7</ele>
        <time>2018-08-10T16:01:41Z</time>
      </trkpt>
      <trkpt lat="4.7423300" lon="-74.3464750">
        <ele>2573.7</ele>
        <time>2018-08-10T16:01:42Z</time>
      </trkpt>
      <trkpt lat="4.7423030" lon="-74.3464470">
        <ele>2573.8</ele>
        <time>2018-08-10T16:01:43Z</time>
      </trkpt>
      <trkpt lat="4.7422730" lon="-74.3464220">
        <ele>2573.8</ele>
        <time>2018-08-10T16:01:44Z</time>
      </trkpt>
      <trkpt lat="4.7422420" lon="-74.3463980">
        <ele>2573.8</ele>
        <time>2018-08-10T16:01:45Z</time>
      </trkpt>
      <trkpt lat="4.7422080" lon="-74.3463770">
        <ele>2573.8</ele>
        <time>2018-08-10T16:01:46Z</time>
      </trkpt>
      <trkpt lat="4.7421750" lon="-74.3463500">
        <ele>2573.9</ele>
        <time>2018-08-10T16:01:47Z</time>
      </trkpt>
      <trkpt lat="4.7421400" lon="-74.3463200">
        <ele>2573.9</ele>
        <time>2018-08-10T16:01:48Z</time>
      </trkpt>
      <trkpt lat="4.7421080" lon="-74.3462950">
        <ele>2573.9</ele>
        <time>2018-08-10T16:01:49Z</time>
      </trkpt>
      <trkpt lat="4.7420750" lon="-74.3462750">
        <ele>2574.0</ele>
        <time>2018-08-10T16:01:50Z</time>
      </trkpt>
      <trkpt lat="4.7420430" lon="-74.3462600">
        <ele>2574.0</ele>
        <time>2018-08-10T16:01:51Z</time>
      </trkpt>
      <trkpt lat="4.7420100" lon="-74.3462330">
        <ele>2574.1</ele>
        <time>2018-08-10T16:01:52Z</time>
      </trkpt>
      <trkpt lat="4.7419770" lon="-74.3462030">
        <ele>2574.2</ele>
        <time>2018-08-10T16:01:53Z</time>
      </trkpt>
      <trkpt lat="4.7419450" lon="-74.3461770">
        <ele>2574.4</ele>
        <time>2018-08-10T16:01:54Z</time>
      </trkpt>
      <trkpt lat="4.7419120" lon="-74.3461550">
        <ele>2574.5</ele>
        <time>2018-08-10T16:01:55Z</time>
      </trkpt>
      <trkpt lat="4.7418780" lon="-74.3461320">
        <ele>2574.6</ele>
        <time>2018-08-10T16:01:56Z</time>
      </trkpt>
      <trkpt lat="4.7418470" lon="-74.3461080">
        <ele>2574.7</ele>
        <time>2018-08-10T16:01:57Z</time>
      </trkpt>
      <trkpt lat="4.7418170" lon="-74.3460830">
        <ele>2574.8</ele>
        <time>2018-08-10T16:01:58Z</time>
      </trkpt>
      <trkpt lat="4.7417800" lon="-74.3460570">
        <ele>2574.9</ele>
        <time>2018-08-10T16:01:59Z</time>
      </trkpt>
      <trkpt lat="4.7417450" lon="-74.3460350">
        <ele>2575.0</ele>
        <time>2018-08-10T16:02:00Z</time>
      </trkpt>
      <trkpt lat="4.7417070" lon="-74.3460150">
        <ele>2575.1</ele>
        <time>2018-08-10T16:02:01Z</time>
      </trkpt>
      <trkpt lat="4.7416720" lon="-74.3460030">
        <ele>2575.3</ele>
        <time>2018-08-10T16:02:02Z</time>
      </trkpt>
      <trkpt lat="4.7416330" lon="-74.3459920">
        <ele>2575.4</ele>
        <time>2018-08-10T16:02:03Z</time>
      </trkpt>
      <trkpt lat="4.7415950" lon="-74.3459780">
        <ele>2575.5</ele>
        <time>2018-08-10T16:02:04Z</time>
      </trkpt>
      <trkpt lat="4.7415570" lon="-74.3459670">
        <ele>2575.7</ele>
        <time>2018-08-10T16:02:05Z</time>
      </trkpt>
      <trkpt lat="4.7415170" lon="-74.3459630">
        <ele>2575.8</ele>
        <time>2018-08-10T16:02:06Z</time>
      </trkpt>
      <trkpt lat="4.7414780" lon="-74.3459670">
        <ele>2575.9</ele>
        <time>2018-08-10T16:02:07Z</time>
      </trkpt>
      <trkpt lat="4.7414420" lon="-74.3459650">
        <ele>2576.0</ele>
        <time>2018-08-10T16:02:08Z</time>
      </trkpt>
      <trkpt lat="4.7414020" lon="-74.3459580">
        <ele>2576.1</ele>
        <time>2018-08-10T16:02:09Z</time>
      </trkpt>
      <trkpt lat="4.7413580" lon="-74.3459570">
        <ele>2576.3</ele>
        <time>2018-08-10T16:02:10Z</time>
      </trkpt>
      <trkpt lat="4.7413170" lon="-74.3459580">
        <ele>2576.6</ele>
        <time>2018-08-10T16:02:11Z</time>
      </trkpt>
      <trkpt lat="4.7412750" lon="-74.3459580">
        <ele>2576.9</ele>
        <time>2018-08-10T16:02:12Z</time>
      </trkpt>
      <trkpt lat="4.7412330" lon="-74.3459580">
        <ele>2577.2</ele>
        <time>2018-08-10T16:02:13Z</time>
      </trkpt>
      <trkpt lat="4.7411930" lon="-74.3459580">
        <ele>2577.6</ele>
        <time>2018-08-10T16:02:14Z</time>
      </trkpt>
      <trkpt lat="4.7411500" lon="-74.3459550">
        <ele>2578.0</ele>
        <time>2018-08-10T16:02:15Z</time>
      </trkpt>
      <trkpt lat="4.7411070" lon="-74.3459530">
        <ele>2578.4</ele>
        <time>2018-08-10T16:02:16Z</time>
      </trkpt>
      <trkpt lat="4.7410670" lon="-74.3459550">
        <ele>2578.9</ele>
        <time>2018-08-10T16:02:17Z</time>
      </trkpt>
      <trkpt lat="4.7410280" lon="-74.3459620">
        <ele>2579.0</ele>
        <time>2018-08-10T16:02:18Z</time>
      </trkpt>
      <trkpt lat="4.7409880" lon="-74.3459630">
        <ele>2579.0</ele>
        <time>2018-08-10T16:02:19Z</time>
      </trkpt>
      <trkpt lat="4.7409470" lon="-74.3459630">
        <ele>2579.2</ele>
        <time>2018-08-10T16:02:20Z</time>
      </trkpt>
      <trkpt lat="4.7409080" lon="-74.3459600">
        <ele>2579.5</ele>
        <time>2018-08-10T16:02:21Z</time>
      </trkpt>
      <trkpt lat="4.7408700" lon="-74.3459580">
        <ele>2579.8</ele>
        <time>2018-08-10T16:02:22Z</time>
      </trkpt>
      <trkpt lat="4.7408330" lon="-74.3459570">
        <ele>2580.0</ele>
        <time>2018-08-10T16:02:23Z</time>
      </trkpt>
      <trkpt lat="4.7407930" lon="-74.3459550">
        <ele>2580.2</ele>
        <time>2018-08-10T16:02:24Z</time>
      </trkpt>
      <trkpt lat="4.7407550" lon="-74.3459530">
        <ele>2580.2</ele>
        <time>2018-08-10T16:02:25Z</time>
      </trkpt>
      <trkpt lat="4.7407220" lon="-74.3459620">
        <ele>2580.1</ele>
        <time>2018-08-10T16:02:26Z</time>
      </trkpt>
      <trkpt lat="4.7406870" lon="-74.3459570">
        <ele>2579.9</ele>
        <time>2018-08-10T16:02:27Z</time>
      </trkpt>
      <trkpt lat="4.7406470" lon="-74.3459570">
        <ele>2579.4</ele>
        <time>2018-08-10T16:02:28Z</time>
      </trkpt>
      <trkpt lat="4.7406070" lon="-74.3459550">
        <ele>2579.0</ele>
        <time>2018-08-10T16:02:29Z</time>
      </trkpt>
      <trkpt lat="4.7405650" lon="-74.3459600">
        <ele>2578.7</ele>
        <time>2018-08-10T16:02:30Z</time>
      </trkpt>
      <trkpt lat="4.7405220" lon="-74.3459620">
        <ele>2578.4</ele>
        <time>2018-08-10T16:02:31Z</time>
      </trkpt>
      <trkpt lat="4.7404770" lon="-74.3459620">
        <ele>2578.2</ele>
        <time>2018-08-10T16:02:32Z</time>
      </trkpt>
      <trkpt lat="4.7404330" lon="-74.3459570">
        <ele>2578.0</ele>
        <time>2018-08-10T16:02:33Z</time>
      </trkpt>
      <trkpt lat="4.7403880" lon="-74.3459500">
        <ele>2578.0</ele>
        <time>2018-08-10T16:02:34Z</time>
      </trkpt>
      <trkpt lat="4.7403470" lon="-74.3459450">
        <ele>2578.0</ele>
        <time>2018-08-10T16:02:35Z</time>
      </trkpt>
      <trkpt lat="4.7403050" lon="-74.3459400">
        <ele>2578.0</ele>
        <time>2018-08-10T16:02:36Z</time>
      </trkpt>
      <trkpt lat="4.7402630" lon="-74.3459320">
        <ele>2578.1</ele>
        <time>2018-08-10T16:02:37Z</time>
      </trkpt>
      <trkpt lat="4.7402180" lon="-74.3459230">
        <ele>2578.1</ele>
        <time>2018-08-10T16:02:38Z</time>
      </trkpt>
      <trkpt lat="4.7401720" lon="-74.3459170">
        <ele>2578.1</ele>
        <time>2018-08-10T16:02:39Z</time>
      </trkpt>
      <trkpt lat="4.7401250" lon="-74.3459120">
        <ele>2578.1</ele>
        <time>2018-08-10T16:02:40Z</time>
      </trkpt>
      <trkpt lat="4.7400800" lon="-74.3459050">
        <ele>2578.1</ele>
        <time>2018-08-10T16:02:41Z</time>
      </trkpt>
      <trkpt lat="4.7400350" lon="-74.3458930">
        <ele>2578.1</ele>
        <time>2018-08-10T16:02:42Z</time>
      </trkpt>
      <trkpt lat="4.7399920" lon="-74.3458830">
        <ele>2578.0</ele>
        <time>2018-08-10T16:02:43Z</time>
      </trkpt>
      <trkpt lat="4.7399470" lon="-74.3458720">
        <ele>2578.0</ele>
        <time>2018-08-10T16:02:44Z</time>
      </trkpt>
      <trkpt lat="4.7399000" lon="-74.3458630">
        <ele>2578.0</ele>
        <time>2018-08-10T16:02:45Z</time>
      </trkpt>
      <trkpt lat="4.7398550" lon="-74.3458520">
        <ele>2578.0</ele>
        <time>2018-08-10T16:02:46Z</time>
      </trkpt>
      <trkpt lat="4.7398100" lon="-74.3458420">
        <ele>2577.9</ele>
        <time>2018-08-10T16:02:47Z</time>
      </trkpt>
      <trkpt lat="4.7397620" lon="-74.3458300">
        <ele>2577.9</ele>
        <time>2018-08-10T16:02:48Z</time>
      </trkpt>
      <trkpt lat="4.7397170" lon="-74.3458150">
        <ele>2577.9</ele>
        <time>2018-08-10T16:02:49Z</time>
      </trkpt>
      <trkpt lat="4.7396700" lon="-74.3458050">
        <ele>2577.8</ele>
        <time>2018-08-10T16:02:50Z</time>
      </trkpt>
      <trkpt lat="4.7396220" lon="-74.3457970">
        <ele>2577.7</ele>
        <time>2018-08-10T16:02:51Z</time>
      </trkpt>
      <trkpt lat="4.7395700" lon="-74.3457880">
        <ele>2577.8</ele>
        <time>2018-08-10T16:02:52Z</time>
      </trkpt>
      <trkpt lat="4.7395220" lon="-74.3457800">
        <ele>2578.1</ele>
        <time>2018-08-10T16:02:53Z</time>
      </trkpt>
      <trkpt lat="4.7394750" lon="-74.3457730">
        <ele>2578.3</ele>
        <time>2018-08-10T16:02:54Z</time>
      </trkpt>
      <trkpt lat="4.7394280" lon="-74.3457580">
        <ele>2578.6</ele>
        <time>2018-08-10T16:02:55Z</time>
      </trkpt>
      <trkpt lat="4.7393800" lon="-74.3457520">
        <ele>2578.5</ele>
        <time>2018-08-10T16:02:56Z</time>
      </trkpt>
      <trkpt lat="4.7393320" lon="-74.3457380">
        <ele>2578.4</ele>
        <time>2018-08-10T16:02:57Z</time>
      </trkpt>
      <trkpt lat="4.7392830" lon="-74.3457230">
        <ele>2578.4</ele>
        <time>2018-08-10T16:02:58Z</time>
      </trkpt>
      <trkpt lat="4.7392380" lon="-74.3457080">
        <ele>2578.5</ele>
        <time>2018-08-10T16:02:59Z</time>
      </trkpt>
      <trkpt lat="4.7391920" lon="-74.3456950">
        <ele>2578.6</ele>
        <time>2018-08-10T16:03:00Z</time>
      </trkpt>
      <trkpt lat="4.7391400" lon="-74.3456770">
        <ele>2579.2</ele>
        <time>2018-08-10T16:03:01Z</time>
      </trkpt>
      <trkpt lat="4.7390950" lon="-74.3456620">
        <ele>2579.8</ele>
        <time>2018-08-10T16:03:02Z</time>
      </trkpt>
      <trkpt lat="4.7390470" lon="-74.3456550">
        <ele>2580.4</ele>
        <time>2018-08-10T16:03:03Z</time>
      </trkpt>
      <trkpt lat="4.7389980" lon="-74.3456400">
        <ele>2581.1</ele>
        <time>2018-08-10T16:03:04Z</time>
      </trkpt>
      <trkpt lat="4.7389500" lon="-74.3456280">
        <ele>2581.7</ele>
        <time>2018-08-10T16:03:05Z</time>
      </trkpt>
      <trkpt lat="4.7389020" lon="-74.3456170">
        <ele>2582.0</ele>
        <time>2018-08-10T16:03:06Z</time>
      </trkpt>
      <trkpt lat="4.7388550" lon="-74.3456100">
        <ele>2582.1</ele>
        <time>2018-08-10T16:03:07Z</time>
      </trkpt>
      <trkpt lat="4.7388070" lon="-74.3456000">
        <ele>2582.4</ele>
        <time>2018-08-10T16:03:08Z</time>
      </trkpt>
      <trkpt lat="4.7387600" lon="-74.3455950">
        <ele>2582.7</ele>
        <time>2018-08-10T16:03:09Z</time>
      </trkpt>
      <trkpt lat="4.7387120" lon="-74.3455870">
        <ele>2583.0</ele>
        <time>2018-08-10T16:03:10Z</time>
      </trkpt>
      <trkpt lat="4.7386650" lon="-74.3455830">
        <ele>2583.2</ele>
        <time>2018-08-10T16:03:11Z</time>
      </trkpt>
      <trkpt lat="4.7386230" lon="-74.3455770">
        <ele>2582.8</ele>
        <time>2018-08-10T16:03:12Z</time>
      </trkpt>
      <trkpt lat="4.7385770" lon="-74.3455670">
        <ele>2582.3</ele>
        <time>2018-08-10T16:03:13Z</time>
      </trkpt>
      <trkpt lat="4.7385320" lon="-74.3455580">
        <ele>2581.6</ele>
        <time>2018-08-10T16:03:14Z</time>
      </trkpt>
      <trkpt lat="4.7384880" lon="-74.3455420">
        <ele>2581.1</ele>
        <time>2018-08-10T16:03:15Z</time>
      </trkpt>
      <trkpt lat="4.7384420" lon="-74.3455280">
        <ele>2580.8</ele>
        <time>2018-08-10T16:03:16Z</time>
      </trkpt>
      <trkpt lat="4.7383980" lon="-74.3455130">
        <ele>2580.3</ele>
        <time>2018-08-10T16:03:17Z</time>
      </trkpt>
      <trkpt lat="4.7383570" lon="-74.3454970">
        <ele>2579.7</ele>
        <time>2018-08-10T16:03:18Z</time>
      </trkpt>
      <trkpt lat="4.7383150" lon="-74.3454720">
        <ele>2579.4</ele>
        <time>2018-08-10T16:03:19Z</time>
      </trkpt>
      <trkpt lat="4.7382750" lon="-74.3454500">
        <ele>2579.3</ele>
        <time>2018-08-10T16:03:20Z</time>
      </trkpt>
      <trkpt lat="4.7382380" lon="-74.3454270">
        <ele>2579.2</ele>
        <time>2018-08-10T16:03:21Z</time>
      </trkpt>
      <trkpt lat="4.7382020" lon="-74.3453980">
        <ele>2579.1</ele>
        <time>2018-08-10T16:03:22Z</time>
      </trkpt>
      <trkpt lat="4.7381720" lon="-74.3453730">
        <ele>2579.0</ele>
        <time>2018-08-10T16:03:23Z</time>
      </trkpt>
      <trkpt lat="4.7381400" lon="-74.3453450">
        <ele>2578.8</ele>
        <time>2018-08-10T16:03:24Z</time>
      </trkpt>
      <trkpt lat="4.7381130" lon="-74.3453200">
        <ele>2578.7</ele>
        <time>2018-08-10T16:03:25Z</time>
      </trkpt>
      <trkpt lat="4.7380600" lon="-74.3452920">
        <ele>2578.4</ele>
        <time>2018-08-10T16:03:27Z</time>
      </trkpt>
      <trkpt lat="4.7380370" lon="-74.3452650">
        <ele>2578.4</ele>
        <time>2018-08-10T16:03:28Z</time>
      </trkpt>
      <trkpt lat="4.7380130" lon="-74.3452470">
        <ele>2578.3</ele>
        <time>2018-08-10T16:03:29Z</time>
      </trkpt>
      <trkpt lat="4.7379880" lon="-74.3452220">
        <ele>2578.3</ele>
        <time>2018-08-10T16:03:30Z</time>
      </trkpt>
      <trkpt lat="4.7379670" lon="-74.3451970">
        <ele>2578.4</ele>
        <time>2018-08-10T16:03:31Z</time>
      </trkpt>
      <trkpt lat="4.7379420" lon="-74.3451730">
        <ele>2578.5</ele>
        <time>2018-08-10T16:03:32Z</time>
      </trkpt>
      <trkpt lat="4.7379170" lon="-74.3451620">
        <ele>2578.5</ele>
        <time>2018-08-10T16:03:33Z</time>
      </trkpt>
      <trkpt lat="4.7378920" lon="-74.3451350">
        <ele>2578.5</ele>
        <time>2018-08-10T16:03:34Z</time>
      </trkpt>
      <trkpt lat="4.7378650" lon="-74.3451220">
        <ele>2578.5</ele>
        <time>2018-08-10T16:03:35Z</time>
      </trkpt>
      <trkpt lat="4.7378430" lon="-74.3451020">
        <ele>2578.6</ele>
        <time>2018-08-10T16:03:36Z</time>
      </trkpt>
      <trkpt lat="4.7378130" lon="-74.3450730">
        <ele>2578.7</ele>
        <time>2018-08-10T16:03:38Z</time>
      </trkpt>
      <trkpt lat="4.7377820" lon="-74.3450530">
        <ele>2578.9</ele>
        <time>2018-08-10T16:03:40Z</time>
      </trkpt>
      <trkpt lat="4.7377350" lon="-74.3450530">
        <ele>2579.0</ele>
        <time>2018-08-10T16:03:42Z</time>
      </trkpt>
      <trkpt lat="4.7377120" lon="-74.3450720">
        <ele>2579.0</ele>
        <time>2018-08-10T16:03:43Z</time>
      </trkpt>
      <trkpt lat="4.7376920" lon="-74.3450930">
        <ele>2579.0</ele>
        <time>2018-08-10T16:03:44Z</time>
      </trkpt>
      <trkpt lat="4.7376700" lon="-74.3451120">
        <ele>2579.1</ele>
        <time>2018-08-10T16:03:45Z</time>
      </trkpt>
      <trkpt lat="4.7376500" lon="-74.3451330">
        <ele>2579.1</ele>
        <time>2018-08-10T16:03:46Z</time>
      </trkpt>
      <trkpt lat="4.7376250" lon="-74.3451500">
        <ele>2579.1</ele>
        <time>2018-08-10T16:03:47Z</time>
      </trkpt>
      <trkpt lat="4.7376030" lon="-74.3451700">
        <ele>2579.2</ele>
        <time>2018-08-10T16:03:48Z</time>
      </trkpt>
      <trkpt lat="4.7375830" lon="-74.3451880">
        <ele>2579.2</ele>
        <time>2018-08-10T16:03:49Z</time>
      </trkpt>
      <trkpt lat="4.7375580" lon="-74.3452080">
        <ele>2579.2</ele>
        <time>2018-08-10T16:03:50Z</time>
      </trkpt>
      <trkpt lat="4.7375370" lon="-74.3452280">
        <ele>2579.3</ele>
        <time>2018-08-10T16:03:51Z</time>
      </trkpt>
      <trkpt lat="4.7375120" lon="-74.3452480">
        <ele>2579.3</ele>
        <time>2018-08-10T16:03:52Z</time>
      </trkpt>
      <trkpt lat="4.7374870" lon="-74.3452780">
        <ele>2579.4</ele>
        <time>2018-08-10T16:03:53Z</time>
      </trkpt>
      <trkpt lat="4.7374570" lon="-74.3453070">
        <ele>2579.4</ele>
        <time>2018-08-10T16:03:54Z</time>
      </trkpt>
      <trkpt lat="4.7374280" lon="-74.3453350">
        <ele>2579.5</ele>
        <time>2018-08-10T16:03:55Z</time>
      </trkpt>
      <trkpt lat="4.7373920" lon="-74.3453520">
        <ele>2579.6</ele>
        <time>2018-08-10T16:03:56Z</time>
      </trkpt>
      <trkpt lat="4.7373470" lon="-74.3453600">
        <ele>2579.7</ele>
        <time>2018-08-10T16:03:57Z</time>
      </trkpt>
      <trkpt lat="4.7373000" lon="-74.3453550">
        <ele>2579.8</ele>
        <time>2018-08-10T16:03:58Z</time>
      </trkpt>
      <trkpt lat="4.7372520" lon="-74.3453400">
        <ele>2579.9</ele>
        <time>2018-08-10T16:03:59Z</time>
      </trkpt>
      <trkpt lat="4.7372130" lon="-74.3453130">
        <ele>2580.0</ele>
        <time>2018-08-10T16:04:00Z</time>
      </trkpt>
      <trkpt lat="4.7371820" lon="-74.3452880">
        <ele>2580.0</ele>
        <time>2018-08-10T16:04:01Z</time>
      </trkpt>
      <trkpt lat="4.7371530" lon="-74.3452500">
        <ele>2580.1</ele>
        <time>2018-08-10T16:04:02Z</time>
      </trkpt>
      <trkpt lat="4.7371220" lon="-74.3452120">
        <ele>2580.2</ele>
        <time>2018-08-10T16:04:03Z</time>
      </trkpt>
      <trkpt lat="4.7370920" lon="-74.3451670">
        <ele>2580.2</ele>
        <time>2018-08-10T16:04:04Z</time>
      </trkpt>
      <trkpt lat="4.7370630" lon="-74.3451250">
        <ele>2580.3</ele>
        <time>2018-08-10T16:04:05Z</time>
      </trkpt>
      <trkpt lat="4.7370300" lon="-74.3450870">
        <ele>2580.3</ele>
        <time>2018-08-10T16:04:06Z</time>
      </trkpt>
      <trkpt lat="4.7369970" lon="-74.3450480">
        <ele>2580.4</ele>
        <time>2018-08-10T16:04:07Z</time>
      </trkpt>
      <trkpt lat="4.7369700" lon="-74.3450150">
        <ele>2580.4</ele>
        <time>2018-08-10T16:04:08Z</time>
      </trkpt>
      <trkpt lat="4.7369420" lon="-74.3449800">
        <ele>2580.5</ele>
        <time>2018-08-10T16:04:09Z</time>
      </trkpt>
      <trkpt lat="4.7369120" lon="-74.3449450">
        <ele>2580.5</ele>
        <time>2018-08-10T16:04:10Z</time>
      </trkpt>
      <trkpt lat="4.7368830" lon="-74.3449150">
        <ele>2580.5</ele>
        <time>2018-08-10T16:04:11Z</time>
      </trkpt>
      <trkpt lat="4.7368520" lon="-74.3448920">
        <ele>2580.6</ele>
        <time>2018-08-10T16:04:12Z</time>
      </trkpt>
      <trkpt lat="4.7368200" lon="-74.3448620">
        <ele>2580.6</ele>
        <time>2018-08-10T16:04:13Z</time>
      </trkpt>
      <trkpt lat="4.7367850" lon="-74.3448330">
        <ele>2580.7</ele>
        <time>2018-08-10T16:04:14Z</time>
      </trkpt>
      <trkpt lat="4.7367480" lon="-74.3448070">
        <ele>2580.7</ele>
        <time>2018-08-10T16:04:15Z</time>
      </trkpt>
      <trkpt lat="4.7367100" lon="-74.3447780">
        <ele>2580.8</ele>
        <time>2018-08-10T16:04:16Z</time>
      </trkpt>
      <trkpt lat="4.7366750" lon="-74.3447450">
        <ele>2580.8</ele>
        <time>2018-08-10T16:04:17Z</time>
      </trkpt>
      <trkpt lat="4.7366350" lon="-74.3447100">
        <ele>2580.8</ele>
        <time>2018-08-10T16:04:18Z</time>
      </trkpt>
      <trkpt lat="4.7365930" lon="-74.3446800">
        <ele>2580.9</ele>
        <time>2018-08-10T16:04:19Z</time>
      </trkpt>
      <trkpt lat="4.7365570" lon="-74.3446520">
        <ele>2580.9</ele>
        <time>2018-08-10T16:04:20Z</time>
      </trkpt>
      <trkpt lat="4.7365180" lon="-74.3446250">
        <ele>2580.9</ele>
        <time>2018-08-10T16:04:21Z</time>
      </trkpt>
      <trkpt lat="4.7364800" lon="-74.3446100">
        <ele>2581.0</ele>
        <time>2018-08-10T16:04:22Z</time>
      </trkpt>
      <trkpt lat="4.7364450" lon="-74.3445820">
        <ele>2581.0</ele>
        <time>2018-08-10T16:04:23Z</time>
      </trkpt>
      <trkpt lat="4.7364120" lon="-74.3445550">
        <ele>2581.0</ele>
        <time>2018-08-10T16:04:24Z</time>
      </trkpt>
      <trkpt lat="4.7363820" lon="-74.3445220">
        <ele>2581.0</ele>
        <time>2018-08-10T16:04:25Z</time>
      </trkpt>
      <trkpt lat="4.7363480" lon="-74.3444920">
        <ele>2581.0</ele>
        <time>2018-08-10T16:04:26Z</time>
      </trkpt>
      <trkpt lat="4.7363120" lon="-74.3444620">
        <ele>2581.0</ele>
        <time>2018-08-10T16:04:27Z</time>
      </trkpt>
      <trkpt lat="4.7362770" lon="-74.3444330">
        <ele>2581.0</ele>
        <time>2018-08-10T16:04:28Z</time>
      </trkpt>
      <trkpt lat="4.7362430" lon="-74.3444070">
        <ele>2581.0</ele>
        <time>2018-08-10T16:04:29Z</time>
      </trkpt>
      <trkpt lat="4.7362070" lon="-74.3443800">
        <ele>2581.0</ele>
        <time>2018-08-10T16:04:30Z</time>
      </trkpt>
      <trkpt lat="4.7361680" lon="-74.3443450">
        <ele>2581.0</ele>
        <time>2018-08-10T16:04:31Z</time>
      </trkpt>
      <trkpt lat="4.7361320" lon="-74.3443130">
        <ele>2581.0</ele>
        <time>2018-08-10T16:04:32Z</time>
      </trkpt>
      <trkpt lat="4.7360930" lon="-74.3442820">
        <ele>2581.0</ele>
        <time>2018-08-10T16:04:33Z</time>
      </trkpt>
      <trkpt lat="4.7360620" lon="-74.3442400">
        <ele>2581.0</ele>
        <time>2018-08-10T16:04:34Z</time>
      </trkpt>
      <trkpt lat="4.7360280" lon="-74.3442050">
        <ele>2581.0</ele>
        <time>2018-08-10T16:04:35Z</time>
      </trkpt>
      <trkpt lat="4.7359930" lon="-74.3441770">
        <ele>2581.0</ele>
        <time>2018-08-10T16:04:36Z</time>
      </trkpt>
      <trkpt lat="4.7359550" lon="-74.3441470">
        <ele>2581.0</ele>
        <time>2018-08-10T16:04:37Z</time>
      </trkpt>
      <trkpt lat="4.7359170" lon="-74.3441180">
        <ele>2581.0</ele>
        <time>2018-08-10T16:04:38Z</time>
      </trkpt>
      <trkpt lat="4.7358780" lon="-74.3440880">
        <ele>2581.0</ele>
        <time>2018-08-10T16:04:39Z</time>
      </trkpt>
      <trkpt lat="4.7358220" lon="-74.3441030">
        <ele>2580.9</ele>
        <time>2018-08-10T16:04:40Z</time>
      </trkpt>
      <trkpt lat="4.7357870" lon="-74.3440770">
        <ele>2580.5</ele>
        <time>2018-08-10T16:04:41Z</time>
      </trkpt>
      <trkpt lat="4.7357500" lon="-74.3440520">
        <ele>2580.2</ele>
        <time>2018-08-10T16:04:42Z</time>
      </trkpt>
      <trkpt lat="4.7357130" lon="-74.3440280">
        <ele>2580.0</ele>
        <time>2018-08-10T16:04:43Z</time>
      </trkpt>
      <trkpt lat="4.7356770" lon="-74.3440030">
        <ele>2579.8</ele>
        <time>2018-08-10T16:04:44Z</time>
      </trkpt>
      <trkpt lat="4.7356380" lon="-74.3439720">
        <ele>2579.7</ele>
        <time>2018-08-10T16:04:45Z</time>
      </trkpt>
      <trkpt lat="4.7355980" lon="-74.3439380">
        <ele>2579.7</ele>
        <time>2018-08-10T16:04:46Z</time>
      </trkpt>
      <trkpt lat="4.7355600" lon="-74.3439050">
        <ele>2579.7</ele>
        <time>2018-08-10T16:04:47Z</time>
      </trkpt>
      <trkpt lat="4.7355200" lon="-74.3438720">
        <ele>2579.7</ele>
        <time>2018-08-10T16:04:48Z</time>
      </trkpt>
      <trkpt lat="4.7354820" lon="-74.3438430">
        <ele>2579.6</ele>
        <time>2018-08-10T16:04:49Z</time>
      </trkpt>
      <trkpt lat="4.7354420" lon="-74.3438170">
        <ele>2579.6</ele>
        <time>2018-08-10T16:04:50Z</time>
      </trkpt>
      <trkpt lat="4.7353980" lon="-74.3437920">
        <ele>2579.6</ele>
        <time>2018-08-10T16:04:51Z</time>
      </trkpt>
      <trkpt lat="4.7353600" lon="-74.3437620">
        <ele>2579.6</ele>
        <time>2018-08-10T16:04:52Z</time>
      </trkpt>
      <trkpt lat="4.7353180" lon="-74.3437330">
        <ele>2579.5</ele>
        <time>2018-08-10T16:04:53Z</time>
      </trkpt>
      <trkpt lat="4.7352750" lon="-74.3437030">
        <ele>2579.6</ele>
        <time>2018-08-10T16:04:54Z</time>
      </trkpt>
      <trkpt lat="4.7352350" lon="-74.3436720">
        <ele>2579.6</ele>
        <time>2018-08-10T16:04:55Z</time>
      </trkpt>
      <trkpt lat="4.7352000" lon="-74.3436430">
        <ele>2579.5</ele>
        <time>2018-08-10T16:04:56Z</time>
      </trkpt>
      <trkpt lat="4.7351580" lon="-74.3436070">
        <ele>2579.5</ele>
        <time>2018-08-10T16:04:57Z</time>
      </trkpt>
      <trkpt lat="4.7351200" lon="-74.3435820">
        <ele>2579.5</ele>
        <time>2018-08-10T16:04:58Z</time>
      </trkpt>
      <trkpt lat="4.7350770" lon="-74.3435520">
        <ele>2579.5</ele>
        <time>2018-08-10T16:04:59Z</time>
      </trkpt>
      <trkpt lat="4.7350330" lon="-74.3435270">
        <ele>2579.6</ele>
        <time>2018-08-10T16:05:00Z</time>
      </trkpt>
      <trkpt lat="4.7349930" lon="-74.3435030">
        <ele>2579.8</ele>
        <time>2018-08-10T16:05:01Z</time>
      </trkpt>
      <trkpt lat="4.7349600" lon="-74.3434780">
        <ele>2579.7</ele>
        <time>2018-08-10T16:05:02Z</time>
      </trkpt>
      <trkpt lat="4.7349250" lon="-74.3434470">
        <ele>2579.6</ele>
        <time>2018-08-10T16:05:03Z</time>
      </trkpt>
      <trkpt lat="4.7348850" lon="-74.3434150">
        <ele>2579.4</ele>
        <time>2018-08-10T16:05:04Z</time>
      </trkpt>
      <trkpt lat="4.7348450" lon="-74.3433950">
        <ele>2579.2</ele>
        <time>2018-08-10T16:05:05Z</time>
      </trkpt>
      <trkpt lat="4.7347980" lon="-74.3433630">
        <ele>2579.0</ele>
        <time>2018-08-10T16:05:06Z</time>
      </trkpt>
      <trkpt lat="4.7347480" lon="-74.3433350">
        <ele>2578.8</ele>
        <time>2018-08-10T16:05:07Z</time>
      </trkpt>
      <trkpt lat="4.7347000" lon="-74.3433120">
        <ele>2578.7</ele>
        <time>2018-08-10T16:05:08Z</time>
      </trkpt>
      <trkpt lat="4.7346470" lon="-74.3432830">
        <ele>2578.5</ele>
        <time>2018-08-10T16:05:09Z</time>
      </trkpt>
      <trkpt lat="4.7345880" lon="-74.3432470">
        <ele>2578.4</ele>
        <time>2018-08-10T16:05:10Z</time>
      </trkpt>
      <trkpt lat="4.7345370" lon="-74.3432370">
        <ele>2578.4</ele>
        <time>2018-08-10T16:05:11Z</time>
      </trkpt>
      <trkpt lat="4.7344900" lon="-74.3432230">
        <ele>2578.4</ele>
        <time>2018-08-10T16:05:12Z</time>
      </trkpt>
      <trkpt lat="4.7344400" lon="-74.3432070">
        <ele>2578.3</ele>
        <time>2018-08-10T16:05:13Z</time>
      </trkpt>
      <trkpt lat="4.7343920" lon="-74.3431930">
        <ele>2578.3</ele>
        <time>2018-08-10T16:05:14Z</time>
      </trkpt>
      <trkpt lat="4.7343430" lon="-74.3431870">
        <ele>2578.2</ele>
        <time>2018-08-10T16:05:15Z</time>
      </trkpt>
      <trkpt lat="4.7342970" lon="-74.3431770">
        <ele>2578.2</ele>
        <time>2018-08-10T16:05:16Z</time>
      </trkpt>
      <trkpt lat="4.7342480" lon="-74.3431680">
        <ele>2578.3</ele>
        <time>2018-08-10T16:05:17Z</time>
      </trkpt>
      <trkpt lat="4.7342020" lon="-74.3431580">
        <ele>2578.3</ele>
        <time>2018-08-10T16:05:18Z</time>
      </trkpt>
      <trkpt lat="4.7341530" lon="-74.3431470">
        <ele>2578.4</ele>
        <time>2018-08-10T16:05:19Z</time>
      </trkpt>
      <trkpt lat="4.7341080" lon="-74.3431380">
        <ele>2578.5</ele>
        <time>2018-08-10T16:05:20Z</time>
      </trkpt>
      <trkpt lat="4.7340600" lon="-74.3431330">
        <ele>2578.7</ele>
        <time>2018-08-10T16:05:21Z</time>
      </trkpt>
      <trkpt lat="4.7340100" lon="-74.3431270">
        <ele>2578.8</ele>
        <time>2018-08-10T16:05:22Z</time>
      </trkpt>
      <trkpt lat="4.7339650" lon="-74.3431170">
        <ele>2579.0</ele>
        <time>2018-08-10T16:05:23Z</time>
      </trkpt>
      <trkpt lat="4.7339170" lon="-74.3431080">
        <ele>2579.2</ele>
        <time>2018-08-10T16:05:24Z</time>
      </trkpt>
      <trkpt lat="4.7338670" lon="-74.3430980">
        <ele>2579.4</ele>
        <time>2018-08-10T16:05:25Z</time>
      </trkpt>
      <trkpt lat="4.7338200" lon="-74.3430900">
        <ele>2579.3</ele>
        <time>2018-08-10T16:05:26Z</time>
      </trkpt>
      <trkpt lat="4.7337750" lon="-74.3430780">
        <ele>2579.3</ele>
        <time>2018-08-10T16:05:27Z</time>
      </trkpt>
      <trkpt lat="4.7337300" lon="-74.3430700">
        <ele>2579.3</ele>
        <time>2018-08-10T16:05:28Z</time>
      </trkpt>
      <trkpt lat="4.7336880" lon="-74.3430650">
        <ele>2579.4</ele>
        <time>2018-08-10T16:05:29Z</time>
      </trkpt>
      <trkpt lat="4.7336470" lon="-74.3430630">
        <ele>2579.5</ele>
        <time>2018-08-10T16:05:30Z</time>
      </trkpt>
      <trkpt lat="4.7336070" lon="-74.3430700">
        <ele>2579.9</ele>
        <time>2018-08-10T16:05:31Z</time>
      </trkpt>
      <trkpt lat="4.7335700" lon="-74.3430770">
        <ele>2580.2</ele>
        <time>2018-08-10T16:05:32Z</time>
      </trkpt>
      <trkpt lat="4.7335370" lon="-74.3430950">
        <ele>2581.0</ele>
        <time>2018-08-10T16:05:33Z</time>
      </trkpt>
      <trkpt lat="4.7335150" lon="-74.3431230">
        <ele>2581.0</ele>
        <time>2018-08-10T16:05:34Z</time>
      </trkpt>
      <trkpt lat="4.7335020" lon="-74.3431530">
        <ele>2581.0</ele>
        <time>2018-08-10T16:05:35Z</time>
      </trkpt>
      <trkpt lat="4.7334970" lon="-74.3431820">
        <ele>2581.0</ele>
        <time>2018-08-10T16:05:36Z</time>
      </trkpt>
      <trkpt lat="4.7334900" lon="-74.3432080">
        <ele>2581.0</ele>
        <time>2018-08-10T16:05:37Z</time>
      </trkpt>
      <trkpt lat="4.7334850" lon="-74.3432380">
        <ele>2581.0</ele>
        <time>2018-08-10T16:05:38Z</time>
      </trkpt>
      <trkpt lat="4.7334750" lon="-74.3432700">
        <ele>2581.0</ele>
        <time>2018-08-10T16:05:39Z</time>
      </trkpt>
      <trkpt lat="4.7334580" lon="-74.3432980">
        <ele>2581.0</ele>
        <time>2018-08-10T16:05:40Z</time>
      </trkpt>
      <trkpt lat="4.7334350" lon="-74.3433280">
        <ele>2581.0</ele>
        <time>2018-08-10T16:05:41Z</time>
      </trkpt>
      <trkpt lat="4.7334150" lon="-74.3433500">
        <ele>2580.9</ele>
        <time>2018-08-10T16:05:42Z</time>
      </trkpt>
      <trkpt lat="4.7333830" lon="-74.3433550">
        <ele>2580.8</ele>
        <time>2018-08-10T16:05:43Z</time>
      </trkpt>
      <trkpt lat="4.7333550" lon="-74.3433570">
        <ele>2580.8</ele>
        <time>2018-08-10T16:05:44Z</time>
      </trkpt>
      <trkpt lat="4.7333150" lon="-74.3433520">
        <ele>2580.7</ele>
        <time>2018-08-10T16:05:45Z</time>
      </trkpt>
      <trkpt lat="4.7332720" lon="-74.3433500">
        <ele>2580.6</ele>
        <time>2018-08-10T16:05:46Z</time>
      </trkpt>
      <trkpt lat="4.7332300" lon="-74.3433480">
        <ele>2580.5</ele>
        <time>2018-08-10T16:05:47Z</time>
      </trkpt>
      <trkpt lat="4.7331920" lon="-74.3433470">
        <ele>2580.4</ele>
        <time>2018-08-10T16:05:48Z</time>
      </trkpt>
      <trkpt lat="4.7331530" lon="-74.3433470">
        <ele>2580.3</ele>
        <time>2018-08-10T16:05:49Z</time>
      </trkpt>
      <trkpt lat="4.7331150" lon="-74.3433470">
        <ele>2580.1</ele>
        <time>2018-08-10T16:05:50Z</time>
      </trkpt>
      <trkpt lat="4.7330730" lon="-74.3433430">
        <ele>2580.0</ele>
        <time>2018-08-10T16:05:51Z</time>
      </trkpt>
      <trkpt lat="4.7330320" lon="-74.3433350">
        <ele>2579.9</ele>
        <time>2018-08-10T16:05:52Z</time>
      </trkpt>
      <trkpt lat="4.7329900" lon="-74.3433320">
        <ele>2579.9</ele>
        <time>2018-08-10T16:05:53Z</time>
      </trkpt>
      <trkpt lat="4.7329480" lon="-74.3433230">
        <ele>2579.8</ele>
        <time>2018-08-10T16:05:54Z</time>
      </trkpt>
      <trkpt lat="4.7329080" lon="-74.3433150">
        <ele>2579.7</ele>
        <time>2018-08-10T16:05:55Z</time>
      </trkpt>
      <trkpt lat="4.7328720" lon="-74.3433070">
        <ele>2579.6</ele>
        <time>2018-08-10T16:05:56Z</time>
      </trkpt>
      <trkpt lat="4.7328350" lon="-74.3432970">
        <ele>2579.6</ele>
        <time>2018-08-10T16:05:57Z</time>
      </trkpt>
      <trkpt lat="4.7327970" lon="-74.3432900">
        <ele>2579.5</ele>
        <time>2018-08-10T16:05:58Z</time>
      </trkpt>
      <trkpt lat="4.7327520" lon="-74.3432830">
        <ele>2579.4</ele>
        <time>2018-08-10T16:05:59Z</time>
      </trkpt>
      <trkpt lat="4.7327080" lon="-74.3432750">
        <ele>2579.3</ele>
        <time>2018-08-10T16:06:00Z</time>
      </trkpt>
      <trkpt lat="4.7326720" lon="-74.3432730">
        <ele>2579.3</ele>
        <time>2018-08-10T16:06:01Z</time>
      </trkpt>
      <trkpt lat="4.7326330" lon="-74.3432680">
        <ele>2579.2</ele>
        <time>2018-08-10T16:06:02Z</time>
      </trkpt>
      <trkpt lat="4.7325920" lon="-74.3432680">
        <ele>2579.1</ele>
        <time>2018-08-10T16:06:03Z</time>
      </trkpt>
      <trkpt lat="4.7325470" lon="-74.3432680">
        <ele>2579.0</ele>
        <time>2018-08-10T16:06:04Z</time>
      </trkpt>
      <trkpt lat="4.7325020" lon="-74.3432620">
        <ele>2579.0</ele>
        <time>2018-08-10T16:06:05Z</time>
      </trkpt>
      <trkpt lat="4.7324580" lon="-74.3432570">
        <ele>2579.1</ele>
        <time>2018-08-10T16:06:06Z</time>
      </trkpt>
      <trkpt lat="4.7324170" lon="-74.3432530">
        <ele>2579.1</ele>
        <time>2018-08-10T16:06:07Z</time>
      </trkpt>
      <trkpt lat="4.7323820" lon="-74.3432430">
        <ele>2579.1</ele>
        <time>2018-08-10T16:06:08Z</time>
      </trkpt>
      <trkpt lat="4.7323420" lon="-74.3432320">
        <ele>2579.2</ele>
        <time>2018-08-10T16:06:09Z</time>
      </trkpt>
      <trkpt lat="4.7322980" lon="-74.3432170">
        <ele>2579.2</ele>
        <time>2018-08-10T16:06:10Z</time>
      </trkpt>
      <trkpt lat="4.7322520" lon="-74.3431930">
        <ele>2579.2</ele>
        <time>2018-08-10T16:06:11Z</time>
      </trkpt>
      <trkpt lat="4.7322030" lon="-74.3431680">
        <ele>2579.2</ele>
        <time>2018-08-10T16:06:12Z</time>
      </trkpt>
      <trkpt lat="4.7321600" lon="-74.3431500">
        <ele>2579.2</ele>
        <time>2018-08-10T16:06:13Z</time>
      </trkpt>
      <trkpt lat="4.7321150" lon="-74.3431400">
        <ele>2579.2</ele>
        <time>2018-08-10T16:06:14Z</time>
      </trkpt>
      <trkpt lat="4.7320670" lon="-74.3431280">
        <ele>2579.2</ele>
        <time>2018-08-10T16:06:15Z</time>
      </trkpt>
      <trkpt lat="4.7320200" lon="-74.3431270">
        <ele>2579.2</ele>
        <time>2018-08-10T16:06:16Z</time>
      </trkpt>
      <trkpt lat="4.7319770" lon="-74.3431220">
        <ele>2579.2</ele>
        <time>2018-08-10T16:06:17Z</time>
      </trkpt>
      <trkpt lat="4.7319320" lon="-74.3431170">
        <ele>2579.2</ele>
        <time>2018-08-10T16:06:18Z</time>
      </trkpt>
      <trkpt lat="4.7318880" lon="-74.3431120">
        <ele>2579.1</ele>
        <time>2018-08-10T16:06:19Z</time>
      </trkpt>
      <trkpt lat="4.7318450" lon="-74.3431050">
        <ele>2579.1</ele>
        <time>2018-08-10T16:06:20Z</time>
      </trkpt>
      <trkpt lat="4.7318020" lon="-74.3431020">
        <ele>2579.1</ele>
        <time>2018-08-10T16:06:21Z</time>
      </trkpt>
      <trkpt lat="4.7317580" lon="-74.3430980">
        <ele>2579.1</ele>
        <time>2018-08-10T16:06:22Z</time>
      </trkpt>
      <trkpt lat="4.7317150" lon="-74.3430950">
        <ele>2579.0</ele>
        <time>2018-08-10T16:06:23Z</time>
      </trkpt>
      <trkpt lat="4.7316680" lon="-74.3431000">
        <ele>2579.0</ele>
        <time>2018-08-10T16:06:24Z</time>
      </trkpt>
      <trkpt lat="4.7316200" lon="-74.3431080">
        <ele>2579.1</ele>
        <time>2018-08-10T16:06:25Z</time>
      </trkpt>
      <trkpt lat="4.7315730" lon="-74.3431080">
        <ele>2579.1</ele>
        <time>2018-08-10T16:06:26Z</time>
      </trkpt>
      <trkpt lat="4.7315250" lon="-74.3431020">
        <ele>2579.2</ele>
        <time>2018-08-10T16:06:27Z</time>
      </trkpt>
      <trkpt lat="4.7314780" lon="-74.3430970">
        <ele>2579.3</ele>
        <time>2018-08-10T16:06:28Z</time>
      </trkpt>
      <trkpt lat="4.7314300" lon="-74.3430900">
        <ele>2579.4</ele>
        <time>2018-08-10T16:06:29Z</time>
      </trkpt>
      <trkpt lat="4.7313830" lon="-74.3430780">
        <ele>2579.5</ele>
        <time>2018-08-10T16:06:30Z</time>
      </trkpt>
      <trkpt lat="4.7313380" lon="-74.3430800">
        <ele>2579.6</ele>
        <time>2018-08-10T16:06:31Z</time>
      </trkpt>
      <trkpt lat="4.7312920" lon="-74.3430750">
        <ele>2579.7</ele>
        <time>2018-08-10T16:06:32Z</time>
      </trkpt>
      <trkpt lat="4.7312470" lon="-74.3430680">
        <ele>2579.8</ele>
        <time>2018-08-10T16:06:33Z</time>
      </trkpt>
      <trkpt lat="4.7312030" lon="-74.3430630">
        <ele>2579.9</ele>
        <time>2018-08-10T16:06:34Z</time>
      </trkpt>
      <trkpt lat="4.7311600" lon="-74.3430630">
        <ele>2580.0</ele>
        <time>2018-08-10T16:06:35Z</time>
      </trkpt>
      <trkpt lat="4.7311170" lon="-74.3430620">
        <ele>2580.1</ele>
        <time>2018-08-10T16:06:36Z</time>
      </trkpt>
      <trkpt lat="4.7310770" lon="-74.3430630">
        <ele>2580.1</ele>
        <time>2018-08-10T16:06:37Z</time>
      </trkpt>
      <trkpt lat="4.7310370" lon="-74.3430670">
        <ele>2580.2</ele>
        <time>2018-08-10T16:06:38Z</time>
      </trkpt>
      <trkpt lat="4.7309980" lon="-74.3430680">
        <ele>2580.3</ele>
        <time>2018-08-10T16:06:39Z</time>
      </trkpt>
      <trkpt lat="4.7309550" lon="-74.3430670">
        <ele>2580.4</ele>
        <time>2018-08-10T16:06:40Z</time>
      </trkpt>
      <trkpt lat="4.7309150" lon="-74.3430580">
        <ele>2580.4</ele>
        <time>2018-08-10T16:06:41Z</time>
      </trkpt>
      <trkpt lat="4.7308700" lon="-74.3430520">
        <ele>2580.5</ele>
        <time>2018-08-10T16:06:42Z</time>
      </trkpt>
      <trkpt lat="4.7308220" lon="-74.3430470">
        <ele>2580.6</ele>
        <time>2018-08-10T16:06:43Z</time>
      </trkpt>
      <trkpt lat="4.7307680" lon="-74.3430370">
        <ele>2580.7</ele>
        <time>2018-08-10T16:06:44Z</time>
      </trkpt>
      <trkpt lat="4.7307200" lon="-74.3430330">
        <ele>2580.8</ele>
        <time>2018-08-10T16:06:45Z</time>
      </trkpt>
      <trkpt lat="4.7306800" lon="-74.3430300">
        <ele>2580.8</ele>
        <time>2018-08-10T16:06:46Z</time>
      </trkpt>
      <trkpt lat="4.7306330" lon="-74.3430280">
        <ele>2580.9</ele>
        <time>2018-08-10T16:06:47Z</time>
      </trkpt>
      <trkpt lat="4.7305880" lon="-74.3430270">
        <ele>2581.0</ele>
        <time>2018-08-10T16:06:48Z</time>
      </trkpt>
      <trkpt lat="4.7305420" lon="-74.3430230">
        <ele>2581.1</ele>
        <time>2018-08-10T16:06:49Z</time>
      </trkpt>
      <trkpt lat="4.7304950" lon="-74.3430180">
        <ele>2581.2</ele>
        <time>2018-08-10T16:06:50Z</time>
      </trkpt>
      <trkpt lat="4.7304480" lon="-74.3430120">
        <ele>2581.3</ele>
        <time>2018-08-10T16:06:51Z</time>
      </trkpt>
      <trkpt lat="4.7304000" lon="-74.3430120">
        <ele>2581.4</ele>
        <time>2018-08-10T16:06:52Z</time>
      </trkpt>
      <trkpt lat="4.7303550" lon="-74.3430080">
        <ele>2581.5</ele>
        <time>2018-08-10T16:06:53Z</time>
      </trkpt>
      <trkpt lat="4.7303150" lon="-74.3430030">
        <ele>2581.6</ele>
        <time>2018-08-10T16:06:54Z</time>
      </trkpt>
      <trkpt lat="4.7302820" lon="-74.3429980">
        <ele>2581.7</ele>
        <time>2018-08-10T16:06:55Z</time>
      </trkpt>
      <trkpt lat="4.7302480" lon="-74.3429970">
        <ele>2581.7</ele>
        <time>2018-08-10T16:06:56Z</time>
      </trkpt>
      <trkpt lat="4.7302180" lon="-74.3430000">
        <ele>2581.8</ele>
        <time>2018-08-10T16:06:57Z</time>
      </trkpt>
      <trkpt lat="4.7301900" lon="-74.3430070">
        <ele>2581.9</ele>
        <time>2018-08-10T16:06:58Z</time>
      </trkpt>
      <trkpt lat="4.7301620" lon="-74.3430120">
        <ele>2582.0</ele>
        <time>2018-08-10T16:06:59Z</time>
      </trkpt>
      <trkpt lat="4.7301080" lon="-74.3430230">
        <ele>2582.2</ele>
        <time>2018-08-10T16:07:01Z</time>
      </trkpt>
      <trkpt lat="4.7300770" lon="-74.3430270">
        <ele>2582.3</ele>
        <time>2018-08-10T16:07:02Z</time>
      </trkpt>
      <trkpt lat="4.7300450" lon="-74.3430270">
        <ele>2582.5</ele>
        <time>2018-08-10T16:07:03Z</time>
      </trkpt>
      <trkpt lat="4.7300120" lon="-74.3430220">
        <ele>2582.6</ele>
        <time>2018-08-10T16:07:04Z</time>
      </trkpt>
      <trkpt lat="4.7299770" lon="-74.3430150">
        <ele>2582.8</ele>
        <time>2018-08-10T16:07:05Z</time>
      </trkpt>
      <trkpt lat="4.7299380" lon="-74.3430050">
        <ele>2583.0</ele>
        <time>2018-08-10T16:07:06Z</time>
      </trkpt>
      <trkpt lat="4.7299000" lon="-74.3429980">
        <ele>2583.2</ele>
        <time>2018-08-10T16:07:07Z</time>
      </trkpt>
      <trkpt lat="4.7298630" lon="-74.3429880">
        <ele>2583.3</ele>
        <time>2018-08-10T16:07:08Z</time>
      </trkpt>
      <trkpt lat="4.7298270" lon="-74.3429830">
        <ele>2583.5</ele>
        <time>2018-08-10T16:07:09Z</time>
      </trkpt>
      <trkpt lat="4.7297900" lon="-74.3429800">
        <ele>2583.7</ele>
        <time>2018-08-10T16:07:10Z</time>
      </trkpt>
      <trkpt lat="4.7297530" lon="-74.3429720">
        <ele>2583.9</ele>
        <time>2018-08-10T16:07:11Z</time>
      </trkpt>
      <trkpt lat="4.7297170" lon="-74.3429680">
        <ele>2584.0</ele>
        <time>2018-08-10T16:07:12Z</time>
      </trkpt>
      <trkpt lat="4.7296800" lon="-74.3429650">
        <ele>2583.8</ele>
        <time>2018-08-10T16:07:13Z</time>
      </trkpt>
      <trkpt lat="4.7296450" lon="-74.3429650">
        <ele>2583.7</ele>
        <time>2018-08-10T16:07:14Z</time>
      </trkpt>
      <trkpt lat="4.7296070" lon="-74.3429580">
        <ele>2583.6</ele>
        <time>2018-08-10T16:07:15Z</time>
      </trkpt>
      <trkpt lat="4.7295650" lon="-74.3429580">
        <ele>2583.5</ele>
        <time>2018-08-10T16:07:16Z</time>
      </trkpt>
      <trkpt lat="4.7295270" lon="-74.3429570">
        <ele>2583.3</ele>
        <time>2018-08-10T16:07:17Z</time>
      </trkpt>
      <trkpt lat="4.7294900" lon="-74.3429570">
        <ele>2583.2</ele>
        <time>2018-08-10T16:07:18Z</time>
      </trkpt>
      <trkpt lat="4.7294550" lon="-74.3429620">
        <ele>2583.1</ele>
        <time>2018-08-10T16:07:19Z</time>
      </trkpt>
      <trkpt lat="4.7294200" lon="-74.3429600">
        <ele>2583.0</ele>
        <time>2018-08-10T16:07:20Z</time>
      </trkpt>
      <trkpt lat="4.7293850" lon="-74.3429620">
        <ele>2582.9</ele>
        <time>2018-08-10T16:07:21Z</time>
      </trkpt>
      <trkpt lat="4.7293520" lon="-74.3429620">
        <ele>2582.7</ele>
        <time>2018-08-10T16:07:22Z</time>
      </trkpt>
      <trkpt lat="4.7293150" lon="-74.3429620">
        <ele>2582.6</ele>
        <time>2018-08-10T16:07:23Z</time>
      </trkpt>
      <trkpt lat="4.7292730" lon="-74.3429580">
        <ele>2582.5</ele>
        <time>2018-08-10T16:07:24Z</time>
      </trkpt>
      <trkpt lat="4.7292350" lon="-74.3429530">
        <ele>2582.4</ele>
        <time>2018-08-10T16:07:25Z</time>
      </trkpt>
      <trkpt lat="4.7292000" lon="-74.3429500">
        <ele>2582.2</ele>
        <time>2018-08-10T16:07:26Z</time>
      </trkpt>
      <trkpt lat="4.7291650" lon="-74.3429430">
        <ele>2582.1</ele>
        <time>2018-08-10T16:07:27Z</time>
      </trkpt>
      <trkpt lat="4.7291320" lon="-74.3429420">
        <ele>2581.9</ele>
        <time>2018-08-10T16:07:28Z</time>
      </trkpt>
      <trkpt lat="4.7290980" lon="-74.3429420">
        <ele>2581.8</ele>
        <time>2018-08-10T16:07:29Z</time>
      </trkpt>
      <trkpt lat="4.7290620" lon="-74.3429380">
        <ele>2581.6</ele>
        <time>2018-08-10T16:07:30Z</time>
      </trkpt>
      <trkpt lat="4.7290250" lon="-74.3429320">
        <ele>2581.4</ele>
        <time>2018-08-10T16:07:31Z</time>
      </trkpt>
      <trkpt lat="4.7289880" lon="-74.3429280">
        <ele>2581.2</ele>
        <time>2018-08-10T16:07:32Z</time>
      </trkpt>
      <trkpt lat="4.7289530" lon="-74.3429270">
        <ele>2581.0</ele>
        <time>2018-08-10T16:07:33Z</time>
      </trkpt>
      <trkpt lat="4.7289180" lon="-74.3429250">
        <ele>2580.9</ele>
        <time>2018-08-10T16:07:34Z</time>
      </trkpt>
      <trkpt lat="4.7288830" lon="-74.3429150">
        <ele>2580.7</ele>
        <time>2018-08-10T16:07:35Z</time>
      </trkpt>
      <trkpt lat="4.7288500" lon="-74.3429070">
        <ele>2580.6</ele>
        <time>2018-08-10T16:07:36Z</time>
      </trkpt>
      <trkpt lat="4.7288150" lon="-74.3429030">
        <ele>2580.4</ele>
        <time>2018-08-10T16:07:37Z</time>
      </trkpt>
      <trkpt lat="4.7287780" lon="-74.3429000">
        <ele>2580.3</ele>
        <time>2018-08-10T16:07:38Z</time>
      </trkpt>
      <trkpt lat="4.7287420" lon="-74.3428970">
        <ele>2580.1</ele>
        <time>2018-08-10T16:07:39Z</time>
      </trkpt>
      <trkpt lat="4.7287080" lon="-74.3428970">
        <ele>2580.0</ele>
        <time>2018-08-10T16:07:40Z</time>
      </trkpt>
      <trkpt lat="4.7286730" lon="-74.3428920">
        <ele>2580.0</ele>
        <time>2018-08-10T16:07:41Z</time>
      </trkpt>
      <trkpt lat="4.7286370" lon="-74.3428900">
        <ele>2580.1</ele>
        <time>2018-08-10T16:07:42Z</time>
      </trkpt>
      <trkpt lat="4.7285970" lon="-74.3428830">
        <ele>2580.1</ele>
        <time>2018-08-10T16:07:43Z</time>
      </trkpt>
      <trkpt lat="4.7285570" lon="-74.3428770">
        <ele>2580.1</ele>
        <time>2018-08-10T16:07:44Z</time>
      </trkpt>
      <trkpt lat="4.7285170" lon="-74.3428730">
        <ele>2580.1</ele>
        <time>2018-08-10T16:07:45Z</time>
      </trkpt>
      <trkpt lat="4.7284730" lon="-74.3428600">
        <ele>2580.2</ele>
        <time>2018-08-10T16:07:46Z</time>
      </trkpt>
      <trkpt lat="4.7284350" lon="-74.3428470">
        <ele>2580.2</ele>
        <time>2018-08-10T16:07:47Z</time>
      </trkpt>
      <trkpt lat="4.7283980" lon="-74.3428300">
        <ele>2580.0</ele>
        <time>2018-08-10T16:07:48Z</time>
      </trkpt>
      <trkpt lat="4.7283680" lon="-74.3428150">
        <ele>2579.9</ele>
        <time>2018-08-10T16:07:49Z</time>
      </trkpt>
      <trkpt lat="4.7283420" lon="-74.3428000">
        <ele>2580.0</ele>
        <time>2018-08-10T16:07:50Z</time>
      </trkpt>
      <trkpt lat="4.7283120" lon="-74.3427880">
        <ele>2579.9</ele>
        <time>2018-08-10T16:07:51Z</time>
      </trkpt>
      <trkpt lat="4.7282870" lon="-74.3427700">
        <ele>2579.8</ele>
        <time>2018-08-10T16:07:52Z</time>
      </trkpt>
      <trkpt lat="4.7282700" lon="-74.3427420">
        <ele>2579.6</ele>
        <time>2018-08-10T16:07:53Z</time>
      </trkpt>
      <trkpt lat="4.7282620" lon="-74.3427030">
        <ele>2579.5</ele>
        <time>2018-08-10T16:07:54Z</time>
      </trkpt>
      <trkpt lat="4.7282580" lon="-74.3426700">
        <ele>2579.6</ele>
        <time>2018-08-10T16:07:55Z</time>
      </trkpt>
      <trkpt lat="4.7282600" lon="-74.3426350">
        <ele>2579.7</ele>
        <time>2018-08-10T16:07:56Z</time>
      </trkpt>
      <trkpt lat="4.7282600" lon="-74.3426020">
        <ele>2579.6</ele>
        <time>2018-08-10T16:07:57Z</time>
      </trkpt>
      <trkpt lat="4.7282630" lon="-74.3425650">
        <ele>2579.8</ele>
        <time>2018-08-10T16:07:58Z</time>
      </trkpt>
      <trkpt lat="4.7282670" lon="-74.3425300">
        <ele>2580.1</ele>
        <time>2018-08-10T16:07:59Z</time>
      </trkpt>
      <trkpt lat="4.7282750" lon="-74.3424930">
        <ele>2580.4</ele>
        <time>2018-08-10T16:08:00Z</time>
      </trkpt>
      <trkpt lat="4.7282750" lon="-74.3424630">
        <ele>2580.9</ele>
        <time>2018-08-10T16:08:01Z</time>
      </trkpt>
      <trkpt lat="4.7282700" lon="-74.3424320">
        <ele>2580.9</ele>
        <time>2018-08-10T16:08:02Z</time>
      </trkpt>
      <trkpt lat="4.7282550" lon="-74.3424050">
        <ele>2580.9</ele>
        <time>2018-08-10T16:08:03Z</time>
      </trkpt>
      <trkpt lat="4.7282300" lon="-74.3423850">
        <ele>2580.8</ele>
        <time>2018-08-10T16:08:04Z</time>
      </trkpt>
      <trkpt lat="4.7281980" lon="-74.3423730">
        <ele>2580.8</ele>
        <time>2018-08-10T16:08:05Z</time>
      </trkpt>
      <trkpt lat="4.7281620" lon="-74.3423700">
        <ele>2580.8</ele>
        <time>2018-08-10T16:08:06Z</time>
      </trkpt>
      <trkpt lat="4.7281250" lon="-74.3423730">
        <ele>2580.8</ele>
        <time>2018-08-10T16:08:07Z</time>
      </trkpt>
      <trkpt lat="4.7280830" lon="-74.3423780">
        <ele>2580.8</ele>
        <time>2018-08-10T16:08:08Z</time>
      </trkpt>
      <trkpt lat="4.7280450" lon="-74.3423850">
        <ele>2580.8</ele>
        <time>2018-08-10T16:08:09Z</time>
      </trkpt>
      <trkpt lat="4.7280070" lon="-74.3423900">
        <ele>2580.8</ele>
        <time>2018-08-10T16:08:10Z</time>
      </trkpt>
      <trkpt lat="4.7279700" lon="-74.3423930">
        <ele>2580.8</ele>
        <time>2018-08-10T16:08:11Z</time>
      </trkpt>
      <trkpt lat="4.7279330" lon="-74.3423970">
        <ele>2580.8</ele>
        <time>2018-08-10T16:08:12Z</time>
      </trkpt>
      <trkpt lat="4.7278930" lon="-74.3423950">
        <ele>2580.8</ele>
        <time>2018-08-10T16:08:13Z</time>
      </trkpt>
      <trkpt lat="4.7278570" lon="-74.3423980">
        <ele>2580.8</ele>
        <time>2018-08-10T16:08:14Z</time>
      </trkpt>
      <trkpt lat="4.7278180" lon="-74.3424050">
        <ele>2580.8</ele>
        <time>2018-08-10T16:08:15Z</time>
      </trkpt>
      <trkpt lat="4.7277820" lon="-74.3424100">
        <ele>2580.8</ele>
        <time>2018-08-10T16:08:16Z</time>
      </trkpt>
      <trkpt lat="4.7277420" lon="-74.3423950">
        <ele>2580.8</ele>
        <time>2018-08-10T16:08:17Z</time>
      </trkpt>
      <trkpt lat="4.7277080" lon="-74.3423900">
        <ele>2580.8</ele>
        <time>2018-08-10T16:08:18Z</time>
      </trkpt>
      <trkpt lat="4.7276770" lon="-74.3423920">
        <ele>2580.8</ele>
        <time>2018-08-10T16:08:19Z</time>
      </trkpt>
      <trkpt lat="4.7276430" lon="-74.3423930">
        <ele>2580.8</ele>
        <time>2018-08-10T16:08:20Z</time>
      </trkpt>
      <trkpt lat="4.7276080" lon="-74.3424020">
        <ele>2580.8</ele>
        <time>2018-08-10T16:08:21Z</time>
      </trkpt>
      <trkpt lat="4.7275750" lon="-74.3424080">
        <ele>2580.8</ele>
        <time>2018-08-10T16:08:22Z</time>
      </trkpt>
      <trkpt lat="4.7275420" lon="-74.3424130">
        <ele>2580.8</ele>
        <time>2018-08-10T16:08:23Z</time>
      </trkpt>
      <trkpt lat="4.7275070" lon="-74.3424180">
        <ele>2580.7</ele>
        <time>2018-08-10T16:08:24Z</time>
      </trkpt>
      <trkpt lat="4.7274700" lon="-74.3424180">
        <ele>2580.7</ele>
        <time>2018-08-10T16:08:25Z</time>
      </trkpt>
      <trkpt lat="4.7274320" lon="-74.3424200">
        <ele>2580.7</ele>
        <time>2018-08-10T16:08:26Z</time>
      </trkpt>
      <trkpt lat="4.7273920" lon="-74.3424200">
        <ele>2580.7</ele>
        <time>2018-08-10T16:08:27Z</time>
      </trkpt>
      <trkpt lat="4.7273500" lon="-74.3424220">
        <ele>2580.7</ele>
        <time>2018-08-10T16:08:28Z</time>
      </trkpt>
      <trkpt lat="4.7273100" lon="-74.3424270">
        <ele>2580.7</ele>
        <time>2018-08-10T16:08:29Z</time>
      </trkpt>
      <trkpt lat="4.7272720" lon="-74.3424320">
        <ele>2580.7</ele>
        <time>2018-08-10T16:08:30Z</time>
      </trkpt>
      <trkpt lat="4.7272330" lon="-74.3424300">
        <ele>2580.7</ele>
        <time>2018-08-10T16:08:31Z</time>
      </trkpt>
      <trkpt lat="4.7271970" lon="-74.3424350">
        <ele>2580.7</ele>
        <time>2018-08-10T16:08:32Z</time>
      </trkpt>
      <trkpt lat="4.7271550" lon="-74.3424350">
        <ele>2580.7</ele>
        <time>2018-08-10T16:08:33Z</time>
      </trkpt>
      <trkpt lat="4.7271130" lon="-74.3424350">
        <ele>2580.7</ele>
        <time>2018-08-10T16:08:34Z</time>
      </trkpt>
      <trkpt lat="4.7270700" lon="-74.3424370">
        <ele>2580.7</ele>
        <time>2018-08-10T16:08:35Z</time>
      </trkpt>
      <trkpt lat="4.7270270" lon="-74.3424370">
        <ele>2580.7</ele>
        <time>2018-08-10T16:08:36Z</time>
      </trkpt>
      <trkpt lat="4.7269820" lon="-74.3424420">
        <ele>2580.7</ele>
        <time>2018-08-10T16:08:37Z</time>
      </trkpt>
      <trkpt lat="4.7269380" lon="-74.3424450">
        <ele>2580.7</ele>
        <time>2018-08-10T16:08:38Z</time>
      </trkpt>
      <trkpt lat="4.7268970" lon="-74.3424500">
        <ele>2580.7</ele>
        <time>2018-08-10T16:08:39Z</time>
      </trkpt>
      <trkpt lat="4.7268530" lon="-74.3424520">
        <ele>2580.7</ele>
        <time>2018-08-10T16:08:40Z</time>
      </trkpt>
      <trkpt lat="4.7268070" lon="-74.3424500">
        <ele>2580.7</ele>
        <time>2018-08-10T16:08:41Z</time>
      </trkpt>
      <trkpt lat="4.7267650" lon="-74.3424450">
        <ele>2580.6</ele>
        <time>2018-08-10T16:08:42Z</time>
      </trkpt>
      <trkpt lat="4.7267200" lon="-74.3424420">
        <ele>2580.6</ele>
        <time>2018-08-10T16:08:43Z</time>
      </trkpt>
      <trkpt lat="4.7266730" lon="-74.3424380">
        <ele>2580.6</ele>
        <time>2018-08-10T16:08:44Z</time>
      </trkpt>
      <trkpt lat="4.7266280" lon="-74.3424370">
        <ele>2580.6</ele>
        <time>2018-08-10T16:08:45Z</time>
      </trkpt>
      <trkpt lat="4.7265830" lon="-74.3424370">
        <ele>2580.6</ele>
        <time>2018-08-10T16:08:46Z</time>
      </trkpt>
      <trkpt lat="4.7265370" lon="-74.3424370">
        <ele>2580.6</ele>
        <time>2018-08-10T16:08:47Z</time>
      </trkpt>
      <trkpt lat="4.7264870" lon="-74.3424330">
        <ele>2580.6</ele>
        <time>2018-08-10T16:08:48Z</time>
      </trkpt>
      <trkpt lat="4.7264470" lon="-74.3424330">
        <ele>2580.6</ele>
        <time>2018-08-10T16:08:49Z</time>
      </trkpt>
      <trkpt lat="4.7264030" lon="-74.3424330">
        <ele>2580.6</ele>
        <time>2018-08-10T16:08:50Z</time>
      </trkpt>
      <trkpt lat="4.7263670" lon="-74.3424330">
        <ele>2580.6</ele>
        <time>2018-08-10T16:08:51Z</time>
      </trkpt>
      <trkpt lat="4.7263300" lon="-74.3424370">
        <ele>2580.6</ele>
        <time>2018-08-10T16:08:52Z</time>
      </trkpt>
      <trkpt lat="4.7262920" lon="-74.3424400">
        <ele>2580.6</ele>
        <time>2018-08-10T16:08:53Z</time>
      </trkpt>
      <trkpt lat="4.7262530" lon="-74.3424400">
        <ele>2580.6</ele>
        <time>2018-08-10T16:08:54Z</time>
      </trkpt>
      <trkpt lat="4.7262130" lon="-74.3424420">
        <ele>2580.6</ele>
        <time>2018-08-10T16:08:55Z</time>
      </trkpt>
      <trkpt lat="4.7261730" lon="-74.3424450">
        <ele>2580.6</ele>
        <time>2018-08-10T16:08:56Z</time>
      </trkpt>
      <trkpt lat="4.7261330" lon="-74.3424450">
        <ele>2580.5</ele>
        <time>2018-08-10T16:08:57Z</time>
      </trkpt>
      <trkpt lat="4.7260950" lon="-74.3424430">
        <ele>2580.5</ele>
        <time>2018-08-10T16:08:58Z</time>
      </trkpt>
      <trkpt lat="4.7260550" lon="-74.3424450">
        <ele>2580.5</ele>
        <time>2018-08-10T16:08:59Z</time>
      </trkpt>
      <trkpt lat="4.7260180" lon="-74.3424470">
        <ele>2580.5</ele>
        <time>2018-08-10T16:09:00Z</time>
      </trkpt>
      <trkpt lat="4.7259830" lon="-74.3424430">
        <ele>2580.5</ele>
        <time>2018-08-10T16:09:01Z</time>
      </trkpt>
      <trkpt lat="4.7259470" lon="-74.3424400">
        <ele>2580.5</ele>
        <time>2018-08-10T16:09:02Z</time>
      </trkpt>
      <trkpt lat="4.7259100" lon="-74.3424350">
        <ele>2580.5</ele>
        <time>2018-08-10T16:09:03Z</time>
      </trkpt>
      <trkpt lat="4.7258700" lon="-74.3424300">
        <ele>2580.5</ele>
        <time>2018-08-10T16:09:04Z</time>
      </trkpt>
      <trkpt lat="4.7258330" lon="-74.3424330">
        <ele>2580.5</ele>
        <time>2018-08-10T16:09:05Z</time>
      </trkpt>
      <trkpt lat="4.7257970" lon="-74.3424300">
        <ele>2580.5</ele>
        <time>2018-08-10T16:09:06Z</time>
      </trkpt>
      <trkpt lat="4.7257580" lon="-74.3424250">
        <ele>2580.5</ele>
        <time>2018-08-10T16:09:07Z</time>
      </trkpt>
      <trkpt lat="4.7257200" lon="-74.3424220">
        <ele>2580.5</ele>
        <time>2018-08-10T16:09:08Z</time>
      </trkpt>
      <trkpt lat="4.7256830" lon="-74.3424180">
        <ele>2580.5</ele>
        <time>2018-08-10T16:09:09Z</time>
      </trkpt>
      <trkpt lat="4.7256430" lon="-74.3424100">
        <ele>2580.5</ele>
        <time>2018-08-10T16:09:10Z</time>
      </trkpt>
      <trkpt lat="4.7256070" lon="-74.3424050">
        <ele>2580.5</ele>
        <time>2018-08-10T16:09:11Z</time>
      </trkpt>
      <trkpt lat="4.7255720" lon="-74.3424030">
        <ele>2580.5</ele>
        <time>2018-08-10T16:09:12Z</time>
      </trkpt>
      <trkpt lat="4.7255330" lon="-74.3423980">
        <ele>2580.5</ele>
        <time>2018-08-10T16:09:13Z</time>
      </trkpt>
      <trkpt lat="4.7254930" lon="-74.3423920">
        <ele>2580.4</ele>
        <time>2018-08-10T16:09:14Z</time>
      </trkpt>
      <trkpt lat="4.7254530" lon="-74.3423820">
        <ele>2580.4</ele>
        <time>2018-08-10T16:09:15Z</time>
      </trkpt>
      <trkpt lat="4.7254150" lon="-74.3423780">
        <ele>2580.4</ele>
        <time>2018-08-10T16:09:16Z</time>
      </trkpt>
      <trkpt lat="4.7253700" lon="-74.3423720">
        <ele>2580.4</ele>
        <time>2018-08-10T16:09:17Z</time>
      </trkpt>
      <trkpt lat="4.7253280" lon="-74.3423680">
        <ele>2580.4</ele>
        <time>2018-08-10T16:09:18Z</time>
      </trkpt>
      <trkpt lat="4.7252850" lon="-74.3423530">
        <ele>2580.4</ele>
        <time>2018-08-10T16:09:19Z</time>
      </trkpt>
      <trkpt lat="4.7252430" lon="-74.3423450">
        <ele>2580.4</ele>
        <time>2018-08-10T16:09:20Z</time>
      </trkpt>
      <trkpt lat="4.7252030" lon="-74.3423420">
        <ele>2580.4</ele>
        <time>2018-08-10T16:09:21Z</time>
      </trkpt>
      <trkpt lat="4.7251600" lon="-74.3423370">
        <ele>2580.4</ele>
        <time>2018-08-10T16:09:22Z</time>
      </trkpt>
      <trkpt lat="4.7251180" lon="-74.3423280">
        <ele>2580.4</ele>
        <time>2018-08-10T16:09:23Z</time>
      </trkpt>
      <trkpt lat="4.7250780" lon="-74.3423230">
        <ele>2580.4</ele>
        <time>2018-08-10T16:09:24Z</time>
      </trkpt>
      <trkpt lat="4.7250370" lon="-74.3423220">
        <ele>2580.4</ele>
        <time>2018-08-10T16:09:25Z</time>
      </trkpt>
      <trkpt lat="4.7249930" lon="-74.3423180">
        <ele>2580.4</ele>
        <time>2018-08-10T16:09:26Z</time>
      </trkpt>
      <trkpt lat="4.7249570" lon="-74.3423120">
        <ele>2580.4</ele>
        <time>2018-08-10T16:09:27Z</time>
      </trkpt>
      <trkpt lat="4.7249180" lon="-74.3423050">
        <ele>2580.4</ele>
        <time>2018-08-10T16:09:28Z</time>
      </trkpt>
      <trkpt lat="4.7248820" lon="-74.3423000">
        <ele>2580.4</ele>
        <time>2018-08-10T16:09:29Z</time>
      </trkpt>
      <trkpt lat="4.7248420" lon="-74.3422950">
        <ele>2580.4</ele>
        <time>2018-08-10T16:09:30Z</time>
      </trkpt>
      <trkpt lat="4.7248030" lon="-74.3422920">
        <ele>2580.4</ele>
        <time>2018-08-10T16:09:31Z</time>
      </trkpt>
      <trkpt lat="4.7247670" lon="-74.3422920">
        <ele>2580.4</ele>
        <time>2018-08-10T16:09:32Z</time>
      </trkpt>
      <trkpt lat="4.7247270" lon="-74.3422880">
        <ele>2580.4</ele>
        <time>2018-08-10T16:09:33Z</time>
      </trkpt>
      <trkpt lat="4.7246850" lon="-74.3422880">
        <ele>2580.4</ele>
        <time>2018-08-10T16:09:34Z</time>
      </trkpt>
      <trkpt lat="4.7246480" lon="-74.3422850">
        <ele>2580.4</ele>
        <time>2018-08-10T16:09:35Z</time>
      </trkpt>
      <trkpt lat="4.7246120" lon="-74.3422820">
        <ele>2580.4</ele>
        <time>2018-08-10T16:09:36Z</time>
      </trkpt>
      <trkpt lat="4.7245720" lon="-74.3422770">
        <ele>2580.3</ele>
        <time>2018-08-10T16:09:37Z</time>
      </trkpt>
      <trkpt lat="4.7245300" lon="-74.3422720">
        <ele>2580.3</ele>
        <time>2018-08-10T16:09:38Z</time>
      </trkpt>
      <trkpt lat="4.7244880" lon="-74.3422670">
        <ele>2580.3</ele>
        <time>2018-08-10T16:09:39Z</time>
      </trkpt>
      <trkpt lat="4.7244450" lon="-74.3422620">
        <ele>2580.3</ele>
        <time>2018-08-10T16:09:40Z</time>
      </trkpt>
      <trkpt lat="4.7244020" lon="-74.3422600">
        <ele>2580.3</ele>
        <time>2018-08-10T16:09:41Z</time>
      </trkpt>
      <trkpt lat="4.7243550" lon="-74.3422530">
        <ele>2580.3</ele>
        <time>2018-08-10T16:09:42Z</time>
      </trkpt>
      <trkpt lat="4.7243100" lon="-74.3422480">
        <ele>2580.3</ele>
        <time>2018-08-10T16:09:43Z</time>
      </trkpt>
      <trkpt lat="4.7242650" lon="-74.3422450">
        <ele>2580.3</ele>
        <time>2018-08-10T16:09:44Z</time>
      </trkpt>
      <trkpt lat="4.7242180" lon="-74.3422430">
        <ele>2580.3</ele>
        <time>2018-08-10T16:09:45Z</time>
      </trkpt>
      <trkpt lat="4.7241750" lon="-74.3422450">
        <ele>2580.3</ele>
        <time>2018-08-10T16:09:46Z</time>
      </trkpt>
      <trkpt lat="4.7241330" lon="-74.3422450">
        <ele>2580.3</ele>
        <time>2018-08-10T16:09:47Z</time>
      </trkpt>
      <trkpt lat="4.7240920" lon="-74.3422420">
        <ele>2580.3</ele>
        <time>2018-08-10T16:09:48Z</time>
      </trkpt>
      <trkpt lat="4.7240470" lon="-74.3422400">
        <ele>2580.3</ele>
        <time>2018-08-10T16:09:49Z</time>
      </trkpt>
      <trkpt lat="4.7239970" lon="-74.3422280">
        <ele>2580.3</ele>
        <time>2018-08-10T16:09:50Z</time>
      </trkpt>
      <trkpt lat="4.7239500" lon="-74.3422350">
        <ele>2580.3</ele>
        <time>2018-08-10T16:09:51Z</time>
      </trkpt>
      <trkpt lat="4.7239120" lon="-74.3422480">
        <ele>2580.2</ele>
        <time>2018-08-10T16:09:52Z</time>
      </trkpt>
      <trkpt lat="4.7238730" lon="-74.3422520">
        <ele>2580.2</ele>
        <time>2018-08-10T16:09:53Z</time>
      </trkpt>
      <trkpt lat="4.7238320" lon="-74.3422550">
        <ele>2580.2</ele>
        <time>2018-08-10T16:09:54Z</time>
      </trkpt>
      <trkpt lat="4.7237920" lon="-74.3422620">
        <ele>2580.2</ele>
        <time>2018-08-10T16:09:55Z</time>
      </trkpt>
      <trkpt lat="4.7237520" lon="-74.3422700">
        <ele>2580.2</ele>
        <time>2018-08-10T16:09:56Z</time>
      </trkpt>
      <trkpt lat="4.7237120" lon="-74.3422830">
        <ele>2580.2</ele>
        <time>2018-08-10T16:09:57Z</time>
      </trkpt>
      <trkpt lat="4.7236700" lon="-74.3422950">
        <ele>2580.2</ele>
        <time>2018-08-10T16:09:58Z</time>
      </trkpt>
      <trkpt lat="4.7236250" lon="-74.3423030">
        <ele>2580.2</ele>
        <time>2018-08-10T16:09:59Z</time>
      </trkpt>
      <trkpt lat="4.7235780" lon="-74.3423100">
        <ele>2580.2</ele>
        <time>2018-08-10T16:10:00Z</time>
      </trkpt>
      <trkpt lat="4.7235330" lon="-74.3423220">
        <ele>2580.2</ele>
        <time>2018-08-10T16:10:01Z</time>
      </trkpt>
      <trkpt lat="4.7234870" lon="-74.3423320">
        <ele>2580.2</ele>
        <time>2018-08-10T16:10:02Z</time>
      </trkpt>
      <trkpt lat="4.7234370" lon="-74.3423380">
        <ele>2580.2</ele>
        <time>2018-08-10T16:10:03Z</time>
      </trkpt>
      <trkpt lat="4.7233900" lon="-74.3423470">
        <ele>2580.2</ele>
        <time>2018-08-10T16:10:04Z</time>
      </trkpt>
      <trkpt lat="4.7233450" lon="-74.3423600">
        <ele>2580.2</ele>
        <time>2018-08-10T16:10:05Z</time>
      </trkpt>
      <trkpt lat="4.7233070" lon="-74.3423750">
        <ele>2580.1</ele>
        <time>2018-08-10T16:10:06Z</time>
      </trkpt>
      <trkpt lat="4.7232650" lon="-74.3423870">
        <ele>2580.1</ele>
        <time>2018-08-10T16:10:07Z</time>
      </trkpt>
      <trkpt lat="4.7232250" lon="-74.3423980">
        <ele>2580.1</ele>
        <time>2018-08-10T16:10:08Z</time>
      </trkpt>
      <trkpt lat="4.7231830" lon="-74.3424100">
        <ele>2580.1</ele>
        <time>2018-08-10T16:10:09Z</time>
      </trkpt>
      <trkpt lat="4.7231430" lon="-74.3424250">
        <ele>2580.1</ele>
        <time>2018-08-10T16:10:10Z</time>
      </trkpt>
      <trkpt lat="4.7231030" lon="-74.3424400">
        <ele>2580.1</ele>
        <time>2018-08-10T16:10:11Z</time>
      </trkpt>
      <trkpt lat="4.7230670" lon="-74.3424580">
        <ele>2580.1</ele>
        <time>2018-08-10T16:10:12Z</time>
      </trkpt>
      <trkpt lat="4.7230300" lon="-74.3424730">
        <ele>2580.1</ele>
        <time>2018-08-10T16:10:13Z</time>
      </trkpt>
      <trkpt lat="4.7229930" lon="-74.3424880">
        <ele>2580.1</ele>
        <time>2018-08-10T16:10:14Z</time>
      </trkpt>
      <trkpt lat="4.7229520" lon="-74.3424980">
        <ele>2580.0</ele>
        <time>2018-08-10T16:10:15Z</time>
      </trkpt>
      <trkpt lat="4.7229120" lon="-74.3425070">
        <ele>2580.0</ele>
        <time>2018-08-10T16:10:16Z</time>
      </trkpt>
      <trkpt lat="4.7228700" lon="-74.3425180">
        <ele>2580.0</ele>
        <time>2018-08-10T16:10:17Z</time>
      </trkpt>
      <trkpt lat="4.7228300" lon="-74.3425300">
        <ele>2580.0</ele>
        <time>2018-08-10T16:10:18Z</time>
      </trkpt>
      <trkpt lat="4.7227870" lon="-74.3425380">
        <ele>2580.0</ele>
        <time>2018-08-10T16:10:19Z</time>
      </trkpt>
      <trkpt lat="4.7227430" lon="-74.3425500">
        <ele>2580.0</ele>
        <time>2018-08-10T16:10:20Z</time>
      </trkpt>
      <trkpt lat="4.7226820" lon="-74.3425480">
        <ele>2580.0</ele>
        <time>2018-08-10T16:10:21Z</time>
      </trkpt>
      <trkpt lat="4.7226320" lon="-74.3425600">
        <ele>2580.0</ele>
        <time>2018-08-10T16:10:22Z</time>
      </trkpt>
      <trkpt lat="4.7225920" lon="-74.3425700">
        <ele>2579.9</ele>
        <time>2018-08-10T16:10:23Z</time>
      </trkpt>
      <trkpt lat="4.7225500" lon="-74.3425820">
        <ele>2579.9</ele>
        <time>2018-08-10T16:10:24Z</time>
      </trkpt>
      <trkpt lat="4.7225070" lon="-74.3425900">
        <ele>2579.9</ele>
        <time>2018-08-10T16:10:25Z</time>
      </trkpt>
      <trkpt lat="4.7224630" lon="-74.3426050">
        <ele>2579.9</ele>
        <time>2018-08-10T16:10:26Z</time>
      </trkpt>
      <trkpt lat="4.7224180" lon="-74.3426180">
        <ele>2579.9</ele>
        <time>2018-08-10T16:10:27Z</time>
      </trkpt>
      <trkpt lat="4.7223770" lon="-74.3426330">
        <ele>2579.9</ele>
        <time>2018-08-10T16:10:28Z</time>
      </trkpt>
      <trkpt lat="4.7223370" lon="-74.3426470">
        <ele>2579.8</ele>
        <time>2018-08-10T16:10:29Z</time>
      </trkpt>
      <trkpt lat="4.7222900" lon="-74.3426570">
        <ele>2579.8</ele>
        <time>2018-08-10T16:10:30Z</time>
      </trkpt>
      <trkpt lat="4.7222470" lon="-74.3426650">
        <ele>2579.8</ele>
        <time>2018-08-10T16:10:31Z</time>
      </trkpt>
      <trkpt lat="4.7222080" lon="-74.3426750">
        <ele>2579.8</ele>
        <time>2018-08-10T16:10:32Z</time>
      </trkpt>
      <trkpt lat="4.7221700" lon="-74.3426870">
        <ele>2579.7</ele>
        <time>2018-08-10T16:10:33Z</time>
      </trkpt>
      <trkpt lat="4.7221330" lon="-74.3426980">
        <ele>2579.7</ele>
        <time>2018-08-10T16:10:34Z</time>
      </trkpt>
      <trkpt lat="4.7220950" lon="-74.3427070">
        <ele>2579.7</ele>
        <time>2018-08-10T16:10:35Z</time>
      </trkpt>
      <trkpt lat="4.7220600" lon="-74.3427180">
        <ele>2579.6</ele>
        <time>2018-08-10T16:10:36Z</time>
      </trkpt>
      <trkpt lat="4.7220220" lon="-74.3427270">
        <ele>2579.5</ele>
        <time>2018-08-10T16:10:37Z</time>
      </trkpt>
      <trkpt lat="4.7219800" lon="-74.3427350">
        <ele>2579.4</ele>
        <time>2018-08-10T16:10:38Z</time>
      </trkpt>
      <trkpt lat="4.7219450" lon="-74.3427450">
        <ele>2579.2</ele>
        <time>2018-08-10T16:10:39Z</time>
      </trkpt>
      <trkpt lat="4.7219070" lon="-74.3427570">
        <ele>2579.0</ele>
        <time>2018-08-10T16:10:40Z</time>
      </trkpt>
      <trkpt lat="4.7218650" lon="-74.3427670">
        <ele>2579.2</ele>
        <time>2018-08-10T16:10:41Z</time>
      </trkpt>
      <trkpt lat="4.7218230" lon="-74.3427800">
        <ele>2579.4</ele>
        <time>2018-08-10T16:10:42Z</time>
      </trkpt>
      <trkpt lat="4.7217830" lon="-74.3427920">
        <ele>2579.5</ele>
        <time>2018-08-10T16:10:43Z</time>
      </trkpt>
      <trkpt lat="4.7217470" lon="-74.3428030">
        <ele>2579.7</ele>
        <time>2018-08-10T16:10:44Z</time>
      </trkpt>
      <trkpt lat="4.7217130" lon="-74.3428130">
        <ele>2579.8</ele>
        <time>2018-08-10T16:10:45Z</time>
      </trkpt>
      <trkpt lat="4.7216750" lon="-74.3428230">
        <ele>2579.9</ele>
        <time>2018-08-10T16:10:46Z</time>
      </trkpt>
      <trkpt lat="4.7216350" lon="-74.3428330">
        <ele>2580.1</ele>
        <time>2018-08-10T16:10:47Z</time>
      </trkpt>
      <trkpt lat="4.7215970" lon="-74.3428470">
        <ele>2580.3</ele>
        <time>2018-08-10T16:10:48Z</time>
      </trkpt>
      <trkpt lat="4.7215570" lon="-74.3428620">
        <ele>2580.6</ele>
        <time>2018-08-10T16:10:49Z</time>
      </trkpt>
      <trkpt lat="4.7215130" lon="-74.3428770">
        <ele>2580.8</ele>
        <time>2018-08-10T16:10:50Z</time>
      </trkpt>
      <trkpt lat="4.7214730" lon="-74.3428930">
        <ele>2581.1</ele>
        <time>2018-08-10T16:10:51Z</time>
      </trkpt>
      <trkpt lat="4.7214270" lon="-74.3429070">
        <ele>2581.3</ele>
        <time>2018-08-10T16:10:52Z</time>
      </trkpt>
      <trkpt lat="4.7213930" lon="-74.3429250">
        <ele>2581.5</ele>
        <time>2018-08-10T16:10:53Z</time>
      </trkpt>
      <trkpt lat="4.7213470" lon="-74.3429350">
        <ele>2581.7</ele>
        <time>2018-08-10T16:10:54Z</time>
      </trkpt>
      <trkpt lat="4.7213050" lon="-74.3429550">
        <ele>2581.9</ele>
        <time>2018-08-10T16:10:55Z</time>
      </trkpt>
      <trkpt lat="4.7212680" lon="-74.3429770">
        <ele>2582.1</ele>
        <time>2018-08-10T16:10:56Z</time>
      </trkpt>
      <trkpt lat="4.7212330" lon="-74.3430020">
        <ele>2582.3</ele>
        <time>2018-08-10T16:10:57Z</time>
      </trkpt>
      <trkpt lat="4.7211930" lon="-74.3430230">
        <ele>2582.5</ele>
        <time>2018-08-10T16:10:58Z</time>
      </trkpt>
      <trkpt lat="4.7211570" lon="-74.3430500">
        <ele>2582.5</ele>
        <time>2018-08-10T16:10:59Z</time>
      </trkpt>
      <trkpt lat="4.7211130" lon="-74.3430750">
        <ele>2582.6</ele>
        <time>2018-08-10T16:11:00Z</time>
      </trkpt>
      <trkpt lat="4.7210700" lon="-74.3431030">
        <ele>2582.7</ele>
        <time>2018-08-10T16:11:01Z</time>
      </trkpt>
      <trkpt lat="4.7210300" lon="-74.3431320">
        <ele>2582.8</ele>
        <time>2018-08-10T16:11:02Z</time>
      </trkpt>
      <trkpt lat="4.7209980" lon="-74.3431630">
        <ele>2582.8</ele>
        <time>2018-08-10T16:11:03Z</time>
      </trkpt>
      <trkpt lat="4.7209680" lon="-74.3431880">
        <ele>2582.9</ele>
        <time>2018-08-10T16:11:04Z</time>
      </trkpt>
      <trkpt lat="4.7209400" lon="-74.3432130">
        <ele>2582.9</ele>
        <time>2018-08-10T16:11:05Z</time>
      </trkpt>
      <trkpt lat="4.7209120" lon="-74.3432400">
        <ele>2583.0</ele>
        <time>2018-08-10T16:11:06Z</time>
      </trkpt>
      <trkpt lat="4.7208850" lon="-74.3432630">
        <ele>2583.0</ele>
        <time>2018-08-10T16:11:07Z</time>
      </trkpt>
      <trkpt lat="4.7208570" lon="-74.3432880">
        <ele>2583.1</ele>
        <time>2018-08-10T16:11:08Z</time>
      </trkpt>
      <trkpt lat="4.7208320" lon="-74.3433170">
        <ele>2583.2</ele>
        <time>2018-08-10T16:11:09Z</time>
      </trkpt>
      <trkpt lat="4.7208050" lon="-74.3433450">
        <ele>2583.2</ele>
        <time>2018-08-10T16:11:10Z</time>
      </trkpt>
      <trkpt lat="4.7207820" lon="-74.3433720">
        <ele>2583.3</ele>
        <time>2018-08-10T16:11:11Z</time>
      </trkpt>
      <trkpt lat="4.7207570" lon="-74.3433950">
        <ele>2583.3</ele>
        <time>2018-08-10T16:11:12Z</time>
      </trkpt>
      <trkpt lat="4.7207280" lon="-74.3434170">
        <ele>2583.4</ele>
        <time>2018-08-10T16:11:13Z</time>
      </trkpt>
      <trkpt lat="4.7206970" lon="-74.3434370">
        <ele>2583.4</ele>
        <time>2018-08-10T16:11:14Z</time>
      </trkpt>
      <trkpt lat="4.7206680" lon="-74.3434570">
        <ele>2583.5</ele>
        <time>2018-08-10T16:11:15Z</time>
      </trkpt>
      <trkpt lat="4.7206380" lon="-74.3434750">
        <ele>2583.6</ele>
        <time>2018-08-10T16:11:16Z</time>
      </trkpt>
      <trkpt lat="4.7206120" lon="-74.3434970">
        <ele>2583.6</ele>
        <time>2018-08-10T16:11:17Z</time>
      </trkpt>
      <trkpt lat="4.7205830" lon="-74.3435150">
        <ele>2583.7</ele>
        <time>2018-08-10T16:11:18Z</time>
      </trkpt>
      <trkpt lat="4.7205570" lon="-74.3435330">
        <ele>2583.8</ele>
        <time>2018-08-10T16:11:19Z</time>
      </trkpt>
      <trkpt lat="4.7205270" lon="-74.3435500">
        <ele>2583.8</ele>
        <time>2018-08-10T16:11:20Z</time>
      </trkpt>
      <trkpt lat="4.7205000" lon="-74.3435720">
        <ele>2583.9</ele>
        <time>2018-08-10T16:11:21Z</time>
      </trkpt>
      <trkpt lat="4.7204730" lon="-74.3435920">
        <ele>2584.0</ele>
        <time>2018-08-10T16:11:22Z</time>
      </trkpt>
      <trkpt lat="4.7204380" lon="-74.3436070">
        <ele>2584.0</ele>
        <time>2018-08-10T16:11:23Z</time>
      </trkpt>
      <trkpt lat="4.7204080" lon="-74.3436230">
        <ele>2584.2</ele>
        <time>2018-08-10T16:11:24Z</time>
      </trkpt>
      <trkpt lat="4.7203750" lon="-74.3436320">
        <ele>2584.3</ele>
        <time>2018-08-10T16:11:25Z</time>
      </trkpt>
      <trkpt lat="4.7203470" lon="-74.3436480">
        <ele>2584.5</ele>
        <time>2018-08-10T16:11:26Z</time>
      </trkpt>
      <trkpt lat="4.7203180" lon="-74.3436650">
        <ele>2584.6</ele>
        <time>2018-08-10T16:11:27Z</time>
      </trkpt>
      <trkpt lat="4.7202930" lon="-74.3436880">
        <ele>2584.8</ele>
        <time>2018-08-10T16:11:28Z</time>
      </trkpt>
      <trkpt lat="4.7202700" lon="-74.3437170">
        <ele>2584.9</ele>
        <time>2018-08-10T16:11:29Z</time>
      </trkpt>
      <trkpt lat="4.7202450" lon="-74.3437430">
        <ele>2585.1</ele>
        <time>2018-08-10T16:11:30Z</time>
      </trkpt>
      <trkpt lat="4.7202220" lon="-74.3437700">
        <ele>2585.3</ele>
        <time>2018-08-10T16:11:31Z</time>
      </trkpt>
      <trkpt lat="4.7202030" lon="-74.3437970">
        <ele>2585.5</ele>
        <time>2018-08-10T16:11:32Z</time>
      </trkpt>
      <trkpt lat="4.7201900" lon="-74.3438230">
        <ele>2585.6</ele>
        <time>2018-08-10T16:11:33Z</time>
      </trkpt>
      <trkpt lat="4.7201700" lon="-74.3438480">
        <ele>2585.8</ele>
        <time>2018-08-10T16:11:34Z</time>
      </trkpt>
      <trkpt lat="4.7201530" lon="-74.3438730">
        <ele>2586.0</ele>
        <time>2018-08-10T16:11:35Z</time>
      </trkpt>
      <trkpt lat="4.7201330" lon="-74.3438950">
        <ele>2586.1</ele>
        <time>2018-08-10T16:11:36Z</time>
      </trkpt>
      <trkpt lat="4.7201120" lon="-74.3439130">
        <ele>2586.2</ele>
        <time>2018-08-10T16:11:37Z</time>
      </trkpt>
      <trkpt lat="4.7200920" lon="-74.3439350">
        <ele>2586.4</ele>
        <time>2018-08-10T16:11:38Z</time>
      </trkpt>
      <trkpt lat="4.7200730" lon="-74.3439580">
        <ele>2586.5</ele>
        <time>2018-08-10T16:11:39Z</time>
      </trkpt>
      <trkpt lat="4.7200500" lon="-74.3439800">
        <ele>2586.6</ele>
        <time>2018-08-10T16:11:40Z</time>
      </trkpt>
      <trkpt lat="4.7200320" lon="-74.3440020">
        <ele>2586.7</ele>
        <time>2018-08-10T16:11:41Z</time>
      </trkpt>
      <trkpt lat="4.7200070" lon="-74.3440180">
        <ele>2586.9</ele>
        <time>2018-08-10T16:11:42Z</time>
      </trkpt>
      <trkpt lat="4.7199850" lon="-74.3440400">
        <ele>2587.1</ele>
        <time>2018-08-10T16:11:43Z</time>
      </trkpt>
      <trkpt lat="4.7199570" lon="-74.3440570">
        <ele>2587.3</ele>
        <time>2018-08-10T16:11:44Z</time>
      </trkpt>
      <trkpt lat="4.7199320" lon="-74.3440770">
        <ele>2587.5</ele>
        <time>2018-08-10T16:11:45Z</time>
      </trkpt>
      <trkpt lat="4.7198970" lon="-74.3440930">
        <ele>2587.7</ele>
        <time>2018-08-10T16:11:46Z</time>
      </trkpt>
      <trkpt lat="4.7198670" lon="-74.3441120">
        <ele>2587.9</ele>
        <time>2018-08-10T16:11:47Z</time>
      </trkpt>
      <trkpt lat="4.7198380" lon="-74.3441280">
        <ele>2588.2</ele>
        <time>2018-08-10T16:11:48Z</time>
      </trkpt>
      <trkpt lat="4.7198130" lon="-74.3441470">
        <ele>2588.4</ele>
        <time>2018-08-10T16:11:49Z</time>
      </trkpt>
      <trkpt lat="4.7197850" lon="-74.3441650">
        <ele>2588.6</ele>
        <time>2018-08-10T16:11:50Z</time>
      </trkpt>
      <trkpt lat="4.7197530" lon="-74.3441780">
        <ele>2588.9</ele>
        <time>2018-08-10T16:11:51Z</time>
      </trkpt>
      <trkpt lat="4.7197230" lon="-74.3441950">
        <ele>2589.2</ele>
        <time>2018-08-10T16:11:52Z</time>
      </trkpt>
      <trkpt lat="4.7196870" lon="-74.3442000">
        <ele>2589.5</ele>
        <time>2018-08-10T16:11:53Z</time>
      </trkpt>
      <trkpt lat="4.7196480" lon="-74.3442080">
        <ele>2589.8</ele>
        <time>2018-08-10T16:11:54Z</time>
      </trkpt>
      <trkpt lat="4.7196080" lon="-74.3442170">
        <ele>2590.0</ele>
        <time>2018-08-10T16:11:55Z</time>
      </trkpt>
      <trkpt lat="4.7195780" lon="-74.3442180">
        <ele>2590.1</ele>
        <time>2018-08-10T16:11:56Z</time>
      </trkpt>
      <trkpt lat="4.7195500" lon="-74.3442120">
        <ele>2590.2</ele>
        <time>2018-08-10T16:11:57Z</time>
      </trkpt>
      <trkpt lat="4.7195220" lon="-74.3442080">
        <ele>2590.2</ele>
        <time>2018-08-10T16:11:58Z</time>
      </trkpt>
      <trkpt lat="4.7194950" lon="-74.3441930">
        <ele>2590.3</ele>
        <time>2018-08-10T16:11:59Z</time>
      </trkpt>
      <trkpt lat="4.7194680" lon="-74.3441780">
        <ele>2590.3</ele>
        <time>2018-08-10T16:12:00Z</time>
      </trkpt>
      <trkpt lat="4.7194380" lon="-74.3441630">
        <ele>2590.4</ele>
        <time>2018-08-10T16:12:01Z</time>
      </trkpt>
      <trkpt lat="4.7194100" lon="-74.3441430">
        <ele>2590.5</ele>
        <time>2018-08-10T16:12:02Z</time>
      </trkpt>
      <trkpt lat="4.7193830" lon="-74.3441300">
        <ele>2590.5</ele>
        <time>2018-08-10T16:12:03Z</time>
      </trkpt>
      <trkpt lat="4.7193550" lon="-74.3441150">
        <ele>2590.6</ele>
        <time>2018-08-10T16:12:04Z</time>
      </trkpt>
      <trkpt lat="4.7193250" lon="-74.3441030">
        <ele>2590.7</ele>
        <time>2018-08-10T16:12:05Z</time>
      </trkpt>
      <trkpt lat="4.7192970" lon="-74.3440880">
        <ele>2590.8</ele>
        <time>2018-08-10T16:12:06Z</time>
      </trkpt>
      <trkpt lat="4.7192700" lon="-74.3440750">
        <ele>2590.9</ele>
        <time>2018-08-10T16:12:07Z</time>
      </trkpt>
      <trkpt lat="4.7192450" lon="-74.3440620">
        <ele>2591.0</ele>
        <time>2018-08-10T16:12:08Z</time>
      </trkpt>
      <trkpt lat="4.7192200" lon="-74.3440500">
        <ele>2591.1</ele>
        <time>2018-08-10T16:12:09Z</time>
      </trkpt>
      <trkpt lat="4.7191950" lon="-74.3440370">
        <ele>2591.2</ele>
        <time>2018-08-10T16:12:10Z</time>
      </trkpt>
      <trkpt lat="4.7191700" lon="-74.3440200">
        <ele>2591.3</ele>
        <time>2018-08-10T16:12:11Z</time>
      </trkpt>
      <trkpt lat="4.7191420" lon="-74.3440080">
        <ele>2591.4</ele>
        <time>2018-08-10T16:12:12Z</time>
      </trkpt>
      <trkpt lat="4.7191120" lon="-74.3439980">
        <ele>2591.5</ele>
        <time>2018-08-10T16:12:13Z</time>
      </trkpt>
      <trkpt lat="4.7190830" lon="-74.3439850">
        <ele>2591.6</ele>
        <time>2018-08-10T16:12:14Z</time>
      </trkpt>
      <trkpt lat="4.7190550" lon="-74.3439680">
        <ele>2591.7</ele>
        <time>2018-08-10T16:12:15Z</time>
      </trkpt>
      <trkpt lat="4.7190250" lon="-74.3439570">
        <ele>2591.8</ele>
        <time>2018-08-10T16:12:16Z</time>
      </trkpt>
      <trkpt lat="4.7189900" lon="-74.3439470">
        <ele>2591.9</ele>
        <time>2018-08-10T16:12:17Z</time>
      </trkpt>
      <trkpt lat="4.7189580" lon="-74.3439420">
        <ele>2591.9</ele>
        <time>2018-08-10T16:12:18Z</time>
      </trkpt>
      <trkpt lat="4.7189230" lon="-74.3439380">
        <ele>2592.0</ele>
        <time>2018-08-10T16:12:19Z</time>
      </trkpt>
      <trkpt lat="4.7188920" lon="-74.3439320">
        <ele>2592.0</ele>
        <time>2018-08-10T16:12:20Z</time>
      </trkpt>
      <trkpt lat="4.7188630" lon="-74.3439270">
        <ele>2592.0</ele>
        <time>2018-08-10T16:12:21Z</time>
      </trkpt>
      <trkpt lat="4.7188350" lon="-74.3439200">
        <ele>2592.1</ele>
        <time>2018-08-10T16:12:22Z</time>
      </trkpt>
      <trkpt lat="4.7188050" lon="-74.3439080">
        <ele>2592.1</ele>
        <time>2018-08-10T16:12:23Z</time>
      </trkpt>
      <trkpt lat="4.7187750" lon="-74.3438980">
        <ele>2592.1</ele>
        <time>2018-08-10T16:12:24Z</time>
      </trkpt>
      <trkpt lat="4.7187430" lon="-74.3438870">
        <ele>2592.2</ele>
        <time>2018-08-10T16:12:25Z</time>
      </trkpt>
      <trkpt lat="4.7187130" lon="-74.3438770">
        <ele>2592.2</ele>
        <time>2018-08-10T16:12:26Z</time>
      </trkpt>
      <trkpt lat="4.7186830" lon="-74.3438670">
        <ele>2592.2</ele>
        <time>2018-08-10T16:12:27Z</time>
      </trkpt>
      <trkpt lat="4.7186320" lon="-74.3438530">
        <ele>2592.3</ele>
        <time>2018-08-10T16:12:29Z</time>
      </trkpt>
      <trkpt lat="4.7185820" lon="-74.3438400">
        <ele>2592.4</ele>
        <time>2018-08-10T16:12:31Z</time>
      </trkpt>
      <trkpt lat="4.7185530" lon="-74.3438250">
        <ele>2592.4</ele>
        <time>2018-08-10T16:12:32Z</time>
      </trkpt>
      <trkpt lat="4.7185220" lon="-74.3438120">
        <ele>2592.4</ele>
        <time>2018-08-10T16:12:33Z</time>
      </trkpt>
      <trkpt lat="4.7184970" lon="-74.3438000">
        <ele>2592.5</ele>
        <time>2018-08-10T16:12:34Z</time>
      </trkpt>
      <trkpt lat="4.7184670" lon="-74.3437900">
        <ele>2592.5</ele>
        <time>2018-08-10T16:12:35Z</time>
      </trkpt>
      <trkpt lat="4.7184370" lon="-74.3437780">
        <ele>2592.5</ele>
        <time>2018-08-10T16:12:36Z</time>
      </trkpt>
      <trkpt lat="4.7184070" lon="-74.3437700">
        <ele>2592.6</ele>
        <time>2018-08-10T16:12:37Z</time>
      </trkpt>
      <trkpt lat="4.7183800" lon="-74.3437620">
        <ele>2592.6</ele>
        <time>2018-08-10T16:12:38Z</time>
      </trkpt>
      <trkpt lat="4.7183500" lon="-74.3437570">
        <ele>2592.7</ele>
        <time>2018-08-10T16:12:39Z</time>
      </trkpt>
      <trkpt lat="4.7183220" lon="-74.3437450">
        <ele>2592.7</ele>
        <time>2018-08-10T16:12:40Z</time>
      </trkpt>
      <trkpt lat="4.7182880" lon="-74.3437320">
        <ele>2592.7</ele>
        <time>2018-08-10T16:12:41Z</time>
      </trkpt>
      <trkpt lat="4.7182620" lon="-74.3437180">
        <ele>2592.8</ele>
        <time>2018-08-10T16:12:42Z</time>
      </trkpt>
      <trkpt lat="4.7182250" lon="-74.3437070">
        <ele>2592.8</ele>
        <time>2018-08-10T16:12:43Z</time>
      </trkpt>
      <trkpt lat="4.7181880" lon="-74.3437000">
        <ele>2592.9</ele>
        <time>2018-08-10T16:12:44Z</time>
      </trkpt>
      <trkpt lat="4.7181520" lon="-74.3436830">
        <ele>2592.9</ele>
        <time>2018-08-10T16:12:45Z</time>
      </trkpt>
      <trkpt lat="4.7181100" lon="-74.3436750">
        <ele>2593.1</ele>
        <time>2018-08-10T16:12:46Z</time>
      </trkpt>
      <trkpt lat="4.7180730" lon="-74.3436680">
        <ele>2593.2</ele>
        <time>2018-08-10T16:12:47Z</time>
      </trkpt>
      <trkpt lat="4.7180370" lon="-74.3436570">
        <ele>2593.3</ele>
        <time>2018-08-10T16:12:48Z</time>
      </trkpt>
      <trkpt lat="4.7179950" lon="-74.3436500">
        <ele>2593.4</ele>
        <time>2018-08-10T16:12:49Z</time>
      </trkpt>
      <trkpt lat="4.7179620" lon="-74.3436350">
        <ele>2593.6</ele>
        <time>2018-08-10T16:12:50Z</time>
      </trkpt>
      <trkpt lat="4.7179220" lon="-74.3436200">
        <ele>2593.7</ele>
        <time>2018-08-10T16:12:51Z</time>
      </trkpt>
      <trkpt lat="4.7178830" lon="-74.3436050">
        <ele>2593.8</ele>
        <time>2018-08-10T16:12:52Z</time>
      </trkpt>
      <trkpt lat="4.7178480" lon="-74.3435800">
        <ele>2594.0</ele>
        <time>2018-08-10T16:12:53Z</time>
      </trkpt>
      <trkpt lat="4.7178150" lon="-74.3435600">
        <ele>2594.1</ele>
        <time>2018-08-10T16:12:54Z</time>
      </trkpt>
      <trkpt lat="4.7177800" lon="-74.3435450">
        <ele>2594.1</ele>
        <time>2018-08-10T16:12:55Z</time>
      </trkpt>
      <trkpt lat="4.7177320" lon="-74.3435180">
        <ele>2594.2</ele>
        <time>2018-08-10T16:12:56Z</time>
      </trkpt>
      <trkpt lat="4.7176980" lon="-74.3434930">
        <ele>2594.3</ele>
        <time>2018-08-10T16:12:57Z</time>
      </trkpt>
      <trkpt lat="4.7176630" lon="-74.3434770">
        <ele>2594.3</ele>
        <time>2018-08-10T16:12:58Z</time>
      </trkpt>
      <trkpt lat="4.7176270" lon="-74.3434630">
        <ele>2594.4</ele>
        <time>2018-08-10T16:12:59Z</time>
      </trkpt>
      <trkpt lat="4.7175930" lon="-74.3434470">
        <ele>2594.4</ele>
        <time>2018-08-10T16:13:00Z</time>
      </trkpt>
      <trkpt lat="4.7175620" lon="-74.3434330">
        <ele>2594.5</ele>
        <time>2018-08-10T16:13:01Z</time>
      </trkpt>
      <trkpt lat="4.7175300" lon="-74.3434150">
        <ele>2594.5</ele>
        <time>2018-08-10T16:13:02Z</time>
      </trkpt>
      <trkpt lat="4.7174980" lon="-74.3434020">
        <ele>2594.5</ele>
        <time>2018-08-10T16:13:03Z</time>
      </trkpt>
      <trkpt lat="4.7174650" lon="-74.3433830">
        <ele>2594.6</ele>
        <time>2018-08-10T16:13:04Z</time>
      </trkpt>
      <trkpt lat="4.7174320" lon="-74.3433700">
        <ele>2594.6</ele>
        <time>2018-08-10T16:13:05Z</time>
      </trkpt>
      <trkpt lat="4.7174050" lon="-74.3433550">
        <ele>2594.7</ele>
        <time>2018-08-10T16:13:06Z</time>
      </trkpt>
      <trkpt lat="4.7173750" lon="-74.3433380">
        <ele>2594.7</ele>
        <time>2018-08-10T16:13:07Z</time>
      </trkpt>
      <trkpt lat="4.7173470" lon="-74.3433220">
        <ele>2594.7</ele>
        <time>2018-08-10T16:13:08Z</time>
      </trkpt>
      <trkpt lat="4.7173170" lon="-74.3432970">
        <ele>2594.8</ele>
        <time>2018-08-10T16:13:09Z</time>
      </trkpt>
      <trkpt lat="4.7172900" lon="-74.3432750">
        <ele>2594.8</ele>
        <time>2018-08-10T16:13:10Z</time>
      </trkpt>
      <trkpt lat="4.7172620" lon="-74.3432570">
        <ele>2594.8</ele>
        <time>2018-08-10T16:13:11Z</time>
      </trkpt>
      <trkpt lat="4.7172330" lon="-74.3432420">
        <ele>2594.8</ele>
        <time>2018-08-10T16:13:12Z</time>
      </trkpt>
      <trkpt lat="4.7172100" lon="-74.3432180">
        <ele>2594.9</ele>
        <time>2018-08-10T16:13:13Z</time>
      </trkpt>
      <trkpt lat="4.7171850" lon="-74.3431970">
        <ele>2594.9</ele>
        <time>2018-08-10T16:13:14Z</time>
      </trkpt>
      <trkpt lat="4.7171570" lon="-74.3431780">
        <ele>2594.9</ele>
        <time>2018-08-10T16:13:15Z</time>
      </trkpt>
      <trkpt lat="4.7171270" lon="-74.3431650">
        <ele>2595.0</ele>
        <time>2018-08-10T16:13:16Z</time>
      </trkpt>
      <trkpt lat="4.7171000" lon="-74.3431500">
        <ele>2595.0</ele>
        <time>2018-08-10T16:13:17Z</time>
      </trkpt>
      <trkpt lat="4.7170730" lon="-74.3431350">
        <ele>2595.0</ele>
        <time>2018-08-10T16:13:18Z</time>
      </trkpt>
      <trkpt lat="4.7170430" lon="-74.3431280">
        <ele>2595.0</ele>
        <time>2018-08-10T16:13:19Z</time>
      </trkpt>
      <trkpt lat="4.7170170" lon="-74.3431180">
        <ele>2595.1</ele>
        <time>2018-08-10T16:13:20Z</time>
      </trkpt>
      <trkpt lat="4.7169900" lon="-74.3431070">
        <ele>2595.1</ele>
        <time>2018-08-10T16:13:21Z</time>
      </trkpt>
      <trkpt lat="4.7169620" lon="-74.3430920">
        <ele>2595.1</ele>
        <time>2018-08-10T16:13:22Z</time>
      </trkpt>
      <trkpt lat="4.7169330" lon="-74.3430750">
        <ele>2595.1</ele>
        <time>2018-08-10T16:13:23Z</time>
      </trkpt>
      <trkpt lat="4.7169030" lon="-74.3430650">
        <ele>2595.2</ele>
        <time>2018-08-10T16:13:24Z</time>
      </trkpt>
      <trkpt lat="4.7168730" lon="-74.3430520">
        <ele>2595.2</ele>
        <time>2018-08-10T16:13:25Z</time>
      </trkpt>
      <trkpt lat="4.7168420" lon="-74.3430370">
        <ele>2595.3</ele>
        <time>2018-08-10T16:13:26Z</time>
      </trkpt>
      <trkpt lat="4.7168130" lon="-74.3430220">
        <ele>2595.4</ele>
        <time>2018-08-10T16:13:27Z</time>
      </trkpt>
      <trkpt lat="4.7167850" lon="-74.3430070">
        <ele>2595.6</ele>
        <time>2018-08-10T16:13:28Z</time>
      </trkpt>
      <trkpt lat="4.7167550" lon="-74.3429930">
        <ele>2595.7</ele>
        <time>2018-08-10T16:13:29Z</time>
      </trkpt>
      <trkpt lat="4.7167280" lon="-74.3429770">
        <ele>2595.8</ele>
        <time>2018-08-10T16:13:30Z</time>
      </trkpt>
      <trkpt lat="4.7167020" lon="-74.3429620">
        <ele>2595.9</ele>
        <time>2018-08-10T16:13:31Z</time>
      </trkpt>
      <trkpt lat="4.7166750" lon="-74.3429480">
        <ele>2596.0</ele>
        <time>2018-08-10T16:13:32Z</time>
      </trkpt>
      <trkpt lat="4.7166480" lon="-74.3429350">
        <ele>2596.1</ele>
        <time>2018-08-10T16:13:33Z</time>
      </trkpt>
      <trkpt lat="4.7166220" lon="-74.3429220">
        <ele>2596.2</ele>
        <time>2018-08-10T16:13:34Z</time>
      </trkpt>
      <trkpt lat="4.7165930" lon="-74.3429100">
        <ele>2596.3</ele>
        <time>2018-08-10T16:13:35Z</time>
      </trkpt>
      <trkpt lat="4.7165630" lon="-74.3428970">
        <ele>2596.4</ele>
        <time>2018-08-10T16:13:36Z</time>
      </trkpt>
      <trkpt lat="4.7165370" lon="-74.3428830">
        <ele>2596.5</ele>
        <time>2018-08-10T16:13:37Z</time>
      </trkpt>
      <trkpt lat="4.7165100" lon="-74.3428720">
        <ele>2596.5</ele>
        <time>2018-08-10T16:13:38Z</time>
      </trkpt>
      <trkpt lat="4.7164830" lon="-74.3428600">
        <ele>2596.6</ele>
        <time>2018-08-10T16:13:39Z</time>
      </trkpt>
      <trkpt lat="4.7164530" lon="-74.3428470">
        <ele>2596.6</ele>
        <time>2018-08-10T16:13:40Z</time>
      </trkpt>
      <trkpt lat="4.7164230" lon="-74.3428350">
        <ele>2596.6</ele>
        <time>2018-08-10T16:13:41Z</time>
      </trkpt>
      <trkpt lat="4.7163950" lon="-74.3428230">
        <ele>2596.7</ele>
        <time>2018-08-10T16:13:42Z</time>
      </trkpt>
      <trkpt lat="4.7163670" lon="-74.3428070">
        <ele>2596.7</ele>
        <time>2018-08-10T16:13:43Z</time>
      </trkpt>
      <trkpt lat="4.7163350" lon="-74.3427920">
        <ele>2596.8</ele>
        <time>2018-08-10T16:13:44Z</time>
      </trkpt>
      <trkpt lat="4.7163070" lon="-74.3427730">
        <ele>2596.8</ele>
        <time>2018-08-10T16:13:45Z</time>
      </trkpt>
      <trkpt lat="4.7162720" lon="-74.3427630">
        <ele>2596.9</ele>
        <time>2018-08-10T16:13:46Z</time>
      </trkpt>
      <trkpt lat="4.7162400" lon="-74.3427500">
        <ele>2597.0</ele>
        <time>2018-08-10T16:13:47Z</time>
      </trkpt>
      <trkpt lat="4.7162070" lon="-74.3427350">
        <ele>2597.0</ele>
        <time>2018-08-10T16:13:48Z</time>
      </trkpt>
      <trkpt lat="4.7161750" lon="-74.3427200">
        <ele>2597.0</ele>
        <time>2018-08-10T16:13:49Z</time>
      </trkpt>
      <trkpt lat="4.7161470" lon="-74.3427050">
        <ele>2597.1</ele>
        <time>2018-08-10T16:13:50Z</time>
      </trkpt>
      <trkpt lat="4.7161150" lon="-74.3426870">
        <ele>2597.1</ele>
        <time>2018-08-10T16:13:51Z</time>
      </trkpt>
      <trkpt lat="4.7160850" lon="-74.3426680">
        <ele>2597.2</ele>
        <time>2018-08-10T16:13:52Z</time>
      </trkpt>
      <trkpt lat="4.7160550" lon="-74.3426520">
        <ele>2597.2</ele>
        <time>2018-08-10T16:13:53Z</time>
      </trkpt>
      <trkpt lat="4.7160250" lon="-74.3426370">
        <ele>2597.3</ele>
        <time>2018-08-10T16:13:54Z</time>
      </trkpt>
      <trkpt lat="4.7159950" lon="-74.3426180">
        <ele>2597.3</ele>
        <time>2018-08-10T16:13:55Z</time>
      </trkpt>
      <trkpt lat="4.7159630" lon="-74.3426050">
        <ele>2597.3</ele>
        <time>2018-08-10T16:13:56Z</time>
      </trkpt>
      <trkpt lat="4.7159330" lon="-74.3425900">
        <ele>2597.4</ele>
        <time>2018-08-10T16:13:57Z</time>
      </trkpt>
      <trkpt lat="4.7159030" lon="-74.3425620">
        <ele>2597.4</ele>
        <time>2018-08-10T16:13:58Z</time>
      </trkpt>
      <trkpt lat="4.7158730" lon="-74.3425430">
        <ele>2597.5</ele>
        <time>2018-08-10T16:13:59Z</time>
      </trkpt>
      <trkpt lat="4.7158230" lon="-74.3425180">
        <ele>2597.6</ele>
        <time>2018-08-10T16:14:01Z</time>
      </trkpt>
      <trkpt lat="4.7157950" lon="-74.3425020">
        <ele>2597.7</ele>
        <time>2018-08-10T16:14:02Z</time>
      </trkpt>
      <trkpt lat="4.7157620" lon="-74.3424850">
        <ele>2597.9</ele>
        <time>2018-08-10T16:14:03Z</time>
      </trkpt>
      <trkpt lat="4.7157300" lon="-74.3424680">
        <ele>2598.0</ele>
        <time>2018-08-10T16:14:04Z</time>
      </trkpt>
      <trkpt lat="4.7157020" lon="-74.3424520">
        <ele>2598.1</ele>
        <time>2018-08-10T16:14:05Z</time>
      </trkpt>
      <trkpt lat="4.7156730" lon="-74.3424370">
        <ele>2598.3</ele>
        <time>2018-08-10T16:14:06Z</time>
      </trkpt>
      <trkpt lat="4.7156480" lon="-74.3424130">
        <ele>2598.4</ele>
        <time>2018-08-10T16:14:07Z</time>
      </trkpt>
      <trkpt lat="4.7156050" lon="-74.3423980">
        <ele>2598.6</ele>
        <time>2018-08-10T16:14:08Z</time>
      </trkpt>
      <trkpt lat="4.7155450" lon="-74.3423680">
        <ele>2598.7</ele>
        <time>2018-08-10T16:14:10Z</time>
      </trkpt>
      <trkpt lat="4.7155230" lon="-74.3423480">
        <ele>2598.8</ele>
        <time>2018-08-10T16:14:11Z</time>
      </trkpt>
      <trkpt lat="4.7154980" lon="-74.3423320">
        <ele>2598.8</ele>
        <time>2018-08-10T16:14:12Z</time>
      </trkpt>
      <trkpt lat="4.7154750" lon="-74.3423130">
        <ele>2598.9</ele>
        <time>2018-08-10T16:14:13Z</time>
      </trkpt>
      <trkpt lat="4.7154520" lon="-74.3422950">
        <ele>2598.9</ele>
        <time>2018-08-10T16:14:14Z</time>
      </trkpt>
      <trkpt lat="4.7154320" lon="-74.3422770">
        <ele>2599.0</ele>
        <time>2018-08-10T16:14:15Z</time>
      </trkpt>
      <trkpt lat="4.7154100" lon="-74.3422570">
        <ele>2599.0</ele>
        <time>2018-08-10T16:14:16Z</time>
      </trkpt>
      <trkpt lat="4.7153620" lon="-74.3422370">
        <ele>2599.1</ele>
        <time>2018-08-10T16:14:18Z</time>
      </trkpt>
      <trkpt lat="4.7153350" lon="-74.3422230">
        <ele>2599.2</ele>
        <time>2018-08-10T16:14:19Z</time>
      </trkpt>
      <trkpt lat="4.7153030" lon="-74.3422120">
        <ele>2599.2</ele>
        <time>2018-08-10T16:14:20Z</time>
      </trkpt>
      <trkpt lat="4.7152730" lon="-74.3421980">
        <ele>2599.3</ele>
        <time>2018-08-10T16:14:21Z</time>
      </trkpt>
      <trkpt lat="4.7152430" lon="-74.3421780">
        <ele>2599.3</ele>
        <time>2018-08-10T16:14:22Z</time>
      </trkpt>
      <trkpt lat="4.7152070" lon="-74.3421570">
        <ele>2599.4</ele>
        <time>2018-08-10T16:14:23Z</time>
      </trkpt>
      <trkpt lat="4.7151750" lon="-74.3421400">
        <ele>2599.5</ele>
        <time>2018-08-10T16:14:24Z</time>
      </trkpt>
      <trkpt lat="4.7151430" lon="-74.3421230">
        <ele>2599.7</ele>
        <time>2018-08-10T16:14:25Z</time>
      </trkpt>
      <trkpt lat="4.7151100" lon="-74.3421080">
        <ele>2599.8</ele>
        <time>2018-08-10T16:14:26Z</time>
      </trkpt>
      <trkpt lat="4.7150780" lon="-74.3420950">
        <ele>2599.9</ele>
        <time>2018-08-10T16:14:27Z</time>
      </trkpt>
      <trkpt lat="4.7150450" lon="-74.3420850">
        <ele>2600.1</ele>
        <time>2018-08-10T16:14:28Z</time>
      </trkpt>
      <trkpt lat="4.7150100" lon="-74.3420600">
        <ele>2600.2</ele>
        <time>2018-08-10T16:14:29Z</time>
      </trkpt>
      <trkpt lat="4.7149800" lon="-74.3420470">
        <ele>2600.4</ele>
        <time>2018-08-10T16:14:30Z</time>
      </trkpt>
      <trkpt lat="4.7149470" lon="-74.3420330">
        <ele>2600.5</ele>
        <time>2018-08-10T16:14:31Z</time>
      </trkpt>
      <trkpt lat="4.7149150" lon="-74.3420180">
        <ele>2600.7</ele>
        <time>2018-08-10T16:14:32Z</time>
      </trkpt>
      <trkpt lat="4.7148830" lon="-74.3420080">
        <ele>2600.8</ele>
        <time>2018-08-10T16:14:33Z</time>
      </trkpt>
      <trkpt lat="4.7148550" lon="-74.3420000">
        <ele>2600.9</ele>
        <time>2018-08-10T16:14:34Z</time>
      </trkpt>
      <trkpt lat="4.7148300" lon="-74.3419880">
        <ele>2601.0</ele>
        <time>2018-08-10T16:14:35Z</time>
      </trkpt>
      <trkpt lat="4.7148050" lon="-74.3419750">
        <ele>2601.1</ele>
        <time>2018-08-10T16:14:36Z</time>
      </trkpt>
      <trkpt lat="4.7147780" lon="-74.3419620">
        <ele>2601.2</ele>
        <time>2018-08-10T16:14:37Z</time>
      </trkpt>
      <trkpt lat="4.7147520" lon="-74.3419480">
        <ele>2601.3</ele>
        <time>2018-08-10T16:14:38Z</time>
      </trkpt>
      <trkpt lat="4.7147250" lon="-74.3419330">
        <ele>2601.4</ele>
        <time>2018-08-10T16:14:39Z</time>
      </trkpt>
      <trkpt lat="4.7147000" lon="-74.3419180">
        <ele>2601.4</ele>
        <time>2018-08-10T16:14:40Z</time>
      </trkpt>
      <trkpt lat="4.7146750" lon="-74.3419000">
        <ele>2601.5</ele>
        <time>2018-08-10T16:14:41Z</time>
      </trkpt>
      <trkpt lat="4.7146500" lon="-74.3418850">
        <ele>2601.6</ele>
        <time>2018-08-10T16:14:42Z</time>
      </trkpt>
      <trkpt lat="4.7146230" lon="-74.3418700">
        <ele>2601.8</ele>
        <time>2018-08-10T16:14:43Z</time>
      </trkpt>
      <trkpt lat="4.7145950" lon="-74.3418520">
        <ele>2601.9</ele>
        <time>2018-08-10T16:14:44Z</time>
      </trkpt>
      <trkpt lat="4.7145680" lon="-74.3418330">
        <ele>2602.0</ele>
        <time>2018-08-10T16:14:45Z</time>
      </trkpt>
      <trkpt lat="4.7145430" lon="-74.3418170">
        <ele>2602.1</ele>
        <time>2018-08-10T16:14:46Z</time>
      </trkpt>
      <trkpt lat="4.7145150" lon="-74.3418020">
        <ele>2602.3</ele>
        <time>2018-08-10T16:14:47Z</time>
      </trkpt>
      <trkpt lat="4.7144900" lon="-74.3417880">
        <ele>2602.4</ele>
        <time>2018-08-10T16:14:48Z</time>
      </trkpt>
      <trkpt lat="4.7144630" lon="-74.3417720">
        <ele>2602.5</ele>
        <time>2018-08-10T16:14:49Z</time>
      </trkpt>
      <trkpt lat="4.7144370" lon="-74.3417550">
        <ele>2602.6</ele>
        <time>2018-08-10T16:14:50Z</time>
      </trkpt>
      <trkpt lat="4.7144080" lon="-74.3417420">
        <ele>2602.7</ele>
        <time>2018-08-10T16:14:51Z</time>
      </trkpt>
      <trkpt lat="4.7143800" lon="-74.3417330">
        <ele>2602.8</ele>
        <time>2018-08-10T16:14:52Z</time>
      </trkpt>
      <trkpt lat="4.7143480" lon="-74.3417300">
        <ele>2602.9</ele>
        <time>2018-08-10T16:14:53Z</time>
      </trkpt>
      <trkpt lat="4.7143170" lon="-74.3417230">
        <ele>2603.1</ele>
        <time>2018-08-10T16:14:54Z</time>
      </trkpt>
      <trkpt lat="4.7142870" lon="-74.3417130">
        <ele>2603.2</ele>
        <time>2018-08-10T16:14:55Z</time>
      </trkpt>
      <trkpt lat="4.7142570" lon="-74.3417000">
        <ele>2603.3</ele>
        <time>2018-08-10T16:14:56Z</time>
      </trkpt>
      <trkpt lat="4.7142280" lon="-74.3416850">
        <ele>2603.3</ele>
        <time>2018-08-10T16:14:57Z</time>
      </trkpt>
      <trkpt lat="4.7142000" lon="-74.3416700">
        <ele>2603.4</ele>
        <time>2018-08-10T16:14:58Z</time>
      </trkpt>
      <trkpt lat="4.7141730" lon="-74.3416570">
        <ele>2603.5</ele>
        <time>2018-08-10T16:14:59Z</time>
      </trkpt>
      <trkpt lat="4.7141430" lon="-74.3416420">
        <ele>2603.6</ele>
        <time>2018-08-10T16:15:00Z</time>
      </trkpt>
      <trkpt lat="4.7141130" lon="-74.3416280">
        <ele>2603.7</ele>
        <time>2018-08-10T16:15:01Z</time>
      </trkpt>
      <trkpt lat="4.7140830" lon="-74.3416170">
        <ele>2603.8</ele>
        <time>2018-08-10T16:15:02Z</time>
      </trkpt>
      <trkpt lat="4.7140570" lon="-74.3416030">
        <ele>2603.9</ele>
        <time>2018-08-10T16:15:03Z</time>
      </trkpt>
      <trkpt lat="4.7140320" lon="-74.3415900">
        <ele>2604.0</ele>
        <time>2018-08-10T16:15:04Z</time>
      </trkpt>
      <trkpt lat="4.7140050" lon="-74.3415770">
        <ele>2604.1</ele>
        <time>2018-08-10T16:15:05Z</time>
      </trkpt>
      <trkpt lat="4.7139580" lon="-74.3415500">
        <ele>2604.3</ele>
        <time>2018-08-10T16:15:07Z</time>
      </trkpt>
      <trkpt lat="4.7139330" lon="-74.3415370">
        <ele>2604.5</ele>
        <time>2018-08-10T16:15:08Z</time>
      </trkpt>
      <trkpt lat="4.7139050" lon="-74.3415230">
        <ele>2604.6</ele>
        <time>2018-08-10T16:15:09Z</time>
      </trkpt>
      <trkpt lat="4.7138780" lon="-74.3415100">
        <ele>2604.7</ele>
        <time>2018-08-10T16:15:10Z</time>
      </trkpt>
      <trkpt lat="4.7138530" lon="-74.3414980">
        <ele>2604.8</ele>
        <time>2018-08-10T16:15:11Z</time>
      </trkpt>
      <trkpt lat="4.7138270" lon="-74.3414920">
        <ele>2605.0</ele>
        <time>2018-08-10T16:15:12Z</time>
      </trkpt>
      <trkpt lat="4.7138000" lon="-74.3414780">
        <ele>2605.1</ele>
        <time>2018-08-10T16:15:13Z</time>
      </trkpt>
      <trkpt lat="4.7137720" lon="-74.3414650">
        <ele>2605.2</ele>
        <time>2018-08-10T16:15:14Z</time>
      </trkpt>
      <trkpt lat="4.7137450" lon="-74.3414520">
        <ele>2605.3</ele>
        <time>2018-08-10T16:15:15Z</time>
      </trkpt>
      <trkpt lat="4.7137180" lon="-74.3414370">
        <ele>2605.5</ele>
        <time>2018-08-10T16:15:16Z</time>
      </trkpt>
      <trkpt lat="4.7136920" lon="-74.3414230">
        <ele>2605.6</ele>
        <time>2018-08-10T16:15:17Z</time>
      </trkpt>
      <trkpt lat="4.7136650" lon="-74.3414120">
        <ele>2605.7</ele>
        <time>2018-08-10T16:15:18Z</time>
      </trkpt>
      <trkpt lat="4.7136230" lon="-74.3413950">
        <ele>2605.9</ele>
        <time>2018-08-10T16:15:20Z</time>
      </trkpt>
      <trkpt lat="4.7135880" lon="-74.3413780">
        <ele>2606.1</ele>
        <time>2018-08-10T16:15:22Z</time>
      </trkpt>
      <trkpt lat="4.7135520" lon="-74.3413580">
        <ele>2606.3</ele>
        <time>2018-08-10T16:15:24Z</time>
      </trkpt>
      <trkpt lat="4.7135120" lon="-74.3413350">
        <ele>2606.5</ele>
        <time>2018-08-10T16:15:26Z</time>
      </trkpt>
      <trkpt lat="4.7134700" lon="-74.3413150">
        <ele>2606.7</ele>
        <time>2018-08-10T16:15:28Z</time>
      </trkpt>
      <trkpt lat="4.7134280" lon="-74.3412880">
        <ele>2606.9</ele>
        <time>2018-08-10T16:15:30Z</time>
      </trkpt>
      <trkpt lat="4.7134050" lon="-74.3412670">
        <ele>2607.1</ele>
        <time>2018-08-10T16:15:31Z</time>
      </trkpt>
      <trkpt lat="4.7133820" lon="-74.3412430">
        <ele>2607.2</ele>
        <time>2018-08-10T16:15:32Z</time>
      </trkpt>
      <trkpt lat="4.7133570" lon="-74.3412250">
        <ele>2607.4</ele>
        <time>2018-08-10T16:15:33Z</time>
      </trkpt>
      <trkpt lat="4.7133320" lon="-74.3412050">
        <ele>2607.5</ele>
        <time>2018-08-10T16:15:34Z</time>
      </trkpt>
      <trkpt lat="4.7133100" lon="-74.3411870">
        <ele>2607.7</ele>
        <time>2018-08-10T16:15:35Z</time>
      </trkpt>
      <trkpt lat="4.7132850" lon="-74.3411730">
        <ele>2607.8</ele>
        <time>2018-08-10T16:15:36Z</time>
      </trkpt>
      <trkpt lat="4.7132570" lon="-74.3411600">
        <ele>2608.0</ele>
        <time>2018-08-10T16:15:37Z</time>
      </trkpt>
      <trkpt lat="4.7132250" lon="-74.3411500">
        <ele>2608.2</ele>
        <time>2018-08-10T16:15:38Z</time>
      </trkpt>
      <trkpt lat="4.7131930" lon="-74.3411400">
        <ele>2608.3</ele>
        <time>2018-08-10T16:15:39Z</time>
      </trkpt>
      <trkpt lat="4.7131620" lon="-74.3411300">
        <ele>2608.5</ele>
        <time>2018-08-10T16:15:40Z</time>
      </trkpt>
      <trkpt lat="4.7131320" lon="-74.3411150">
        <ele>2608.7</ele>
        <time>2018-08-10T16:15:41Z</time>
      </trkpt>
      <trkpt lat="4.7131030" lon="-74.3410980">
        <ele>2608.9</ele>
        <time>2018-08-10T16:15:42Z</time>
      </trkpt>
      <trkpt lat="4.7130750" lon="-74.3410830">
        <ele>2609.1</ele>
        <time>2018-08-10T16:15:43Z</time>
      </trkpt>
      <trkpt lat="4.7130450" lon="-74.3410700">
        <ele>2609.2</ele>
        <time>2018-08-10T16:15:44Z</time>
      </trkpt>
      <trkpt lat="4.7130180" lon="-74.3410570">
        <ele>2609.4</ele>
        <time>2018-08-10T16:15:45Z</time>
      </trkpt>
      <trkpt lat="4.7129930" lon="-74.3410430">
        <ele>2609.6</ele>
        <time>2018-08-10T16:15:46Z</time>
      </trkpt>
      <trkpt lat="4.7129450" lon="-74.3410180">
        <ele>2609.9</ele>
        <time>2018-08-10T16:15:48Z</time>
      </trkpt>
      <trkpt lat="4.7129180" lon="-74.3410070">
        <ele>2610.1</ele>
        <time>2018-08-10T16:15:49Z</time>
      </trkpt>
      <trkpt lat="4.7128930" lon="-74.3409950">
        <ele>2610.2</ele>
        <time>2018-08-10T16:15:50Z</time>
      </trkpt>
      <trkpt lat="4.7128430" lon="-74.3409730">
        <ele>2610.6</ele>
        <time>2018-08-10T16:15:52Z</time>
      </trkpt>
      <trkpt lat="4.7128200" lon="-74.3409580">
        <ele>2610.8</ele>
        <time>2018-08-10T16:15:53Z</time>
      </trkpt>
      <trkpt lat="4.7127970" lon="-74.3409400">
        <ele>2610.9</ele>
        <time>2018-08-10T16:15:54Z</time>
      </trkpt>
      <trkpt lat="4.7127500" lon="-74.3409150">
        <ele>2611.3</ele>
        <time>2018-08-10T16:15:56Z</time>
      </trkpt>
      <trkpt lat="4.7127250" lon="-74.3409020">
        <ele>2611.5</ele>
        <time>2018-08-10T16:15:57Z</time>
      </trkpt>
      <trkpt lat="4.7127020" lon="-74.3408870">
        <ele>2611.6</ele>
        <time>2018-08-10T16:15:58Z</time>
      </trkpt>
      <trkpt lat="4.7126780" lon="-74.3408700">
        <ele>2611.8</ele>
        <time>2018-08-10T16:15:59Z</time>
      </trkpt>
      <trkpt lat="4.7126520" lon="-74.3408530">
        <ele>2612.0</ele>
        <time>2018-08-10T16:16:00Z</time>
      </trkpt>
      <trkpt lat="4.7126270" lon="-74.3408420">
        <ele>2612.2</ele>
        <time>2018-08-10T16:16:01Z</time>
      </trkpt>
      <trkpt lat="4.7125950" lon="-74.3408200">
        <ele>2612.5</ele>
        <time>2018-08-10T16:16:02Z</time>
      </trkpt>
      <trkpt lat="4.7125700" lon="-74.3408030">
        <ele>2612.7</ele>
        <time>2018-08-10T16:16:03Z</time>
      </trkpt>
      <trkpt lat="4.7125450" lon="-74.3407920">
        <ele>2612.8</ele>
        <time>2018-08-10T16:16:04Z</time>
      </trkpt>
      <trkpt lat="4.7125200" lon="-74.3407780">
        <ele>2613.0</ele>
        <time>2018-08-10T16:16:05Z</time>
      </trkpt>
      <trkpt lat="4.7124920" lon="-74.3407670">
        <ele>2613.2</ele>
        <time>2018-08-10T16:16:06Z</time>
      </trkpt>
      <trkpt lat="4.7124650" lon="-74.3407570">
        <ele>2613.4</ele>
        <time>2018-08-10T16:16:07Z</time>
      </trkpt>
      <trkpt lat="4.7124380" lon="-74.3407430">
        <ele>2613.6</ele>
        <time>2018-08-10T16:16:08Z</time>
      </trkpt>
      <trkpt lat="4.7124130" lon="-74.3407300">
        <ele>2613.7</ele>
        <time>2018-08-10T16:16:09Z</time>
      </trkpt>
      <trkpt lat="4.7123900" lon="-74.3407130">
        <ele>2613.9</ele>
        <time>2018-08-10T16:16:10Z</time>
      </trkpt>
      <trkpt lat="4.7123530" lon="-74.3406820">
        <ele>2614.2</ele>
        <time>2018-08-10T16:16:12Z</time>
      </trkpt>
      <trkpt lat="4.7123130" lon="-74.3406550">
        <ele>2614.4</ele>
        <time>2018-08-10T16:16:14Z</time>
      </trkpt>
      <trkpt lat="4.7122630" lon="-74.3406370">
        <ele>2614.7</ele>
        <time>2018-08-10T16:16:16Z</time>
      </trkpt>
      <trkpt lat="4.7122370" lon="-74.3406270">
        <ele>2614.8</ele>
        <time>2018-08-10T16:16:17Z</time>
      </trkpt>
      <trkpt lat="4.7122120" lon="-74.3406120">
        <ele>2615.0</ele>
        <time>2018-08-10T16:16:18Z</time>
      </trkpt>
      <trkpt lat="4.7121650" lon="-74.3405880">
        <ele>2615.2</ele>
        <time>2018-08-10T16:16:20Z</time>
      </trkpt>
      <trkpt lat="4.7121230" lon="-74.3405580">
        <ele>2615.5</ele>
        <time>2018-08-10T16:16:22Z</time>
      </trkpt>
      <trkpt lat="4.7120900" lon="-74.3405350">
        <ele>2615.7</ele>
        <time>2018-08-10T16:16:24Z</time>
      </trkpt>
      <trkpt lat="4.7120480" lon="-74.3405170">
        <ele>2615.9</ele>
        <time>2018-08-10T16:16:26Z</time>
      </trkpt>
      <trkpt lat="4.7120120" lon="-74.3404900">
        <ele>2616.1</ele>
        <time>2018-08-10T16:16:28Z</time>
      </trkpt>
      <trkpt lat="4.7119680" lon="-74.3404600">
        <ele>2616.3</ele>
        <time>2018-08-10T16:16:30Z</time>
      </trkpt>
      <trkpt lat="4.7119280" lon="-74.3404320">
        <ele>2616.5</ele>
        <time>2018-08-10T16:16:32Z</time>
      </trkpt>
      <trkpt lat="4.7119050" lon="-74.3404130">
        <ele>2616.6</ele>
        <time>2018-08-10T16:16:33Z</time>
      </trkpt>
      <trkpt lat="4.7118680" lon="-74.3403950">
        <ele>2616.8</ele>
        <time>2018-08-10T16:16:35Z</time>
      </trkpt>
      <trkpt lat="4.7118370" lon="-74.3403630">
        <ele>2616.9</ele>
        <time>2018-08-10T16:16:37Z</time>
      </trkpt>
      <trkpt lat="4.7118000" lon="-74.3403430">
        <ele>2617.1</ele>
        <time>2018-08-10T16:16:39Z</time>
      </trkpt>
      <trkpt lat="4.7117620" lon="-74.3403270">
        <ele>2617.2</ele>
        <time>2018-08-10T16:16:41Z</time>
      </trkpt>
      <trkpt lat="4.7117280" lon="-74.3403050">
        <ele>2617.2</ele>
        <time>2018-08-10T16:16:43Z</time>
      </trkpt>
      <trkpt lat="4.7116950" lon="-74.3402900">
        <ele>2617.3</ele>
        <time>2018-08-10T16:16:45Z</time>
      </trkpt>
      <trkpt lat="4.7116580" lon="-74.3402620">
        <ele>2617.4</ele>
        <time>2018-08-10T16:16:47Z</time>
      </trkpt>
      <trkpt lat="4.7116300" lon="-74.3402370">
        <ele>2617.5</ele>
        <time>2018-08-10T16:16:49Z</time>
      </trkpt>
      <trkpt lat="4.7116020" lon="-74.3402120">
        <ele>2617.6</ele>
        <time>2018-08-10T16:16:51Z</time>
      </trkpt>
      <trkpt lat="4.7115750" lon="-74.3401850">
        <ele>2617.7</ele>
        <time>2018-08-10T16:16:53Z</time>
      </trkpt>
      <trkpt lat="4.7115450" lon="-74.3401620">
        <ele>2617.7</ele>
        <time>2018-08-10T16:16:55Z</time>
      </trkpt>
      <trkpt lat="4.7115080" lon="-74.3401580">
        <ele>2617.9</ele>
        <time>2018-08-10T16:16:57Z</time>
      </trkpt>
      <trkpt lat="4.7114730" lon="-74.3401550">
        <ele>2618.1</ele>
        <time>2018-08-10T16:16:59Z</time>
      </trkpt>
      <trkpt lat="4.7114300" lon="-74.3401430">
        <ele>2618.3</ele>
        <time>2018-08-10T16:17:01Z</time>
      </trkpt>
      <trkpt lat="4.7113830" lon="-74.3401250">
        <ele>2618.6</ele>
        <time>2018-08-10T16:17:03Z</time>
      </trkpt>
      <trkpt lat="4.7113550" lon="-74.3400970">
        <ele>2618.8</ele>
        <time>2018-08-10T16:17:04Z</time>
      </trkpt>
      <trkpt lat="4.7113280" lon="-74.3400780">
        <ele>2618.9</ele>
        <time>2018-08-10T16:17:05Z</time>
      </trkpt>
      <trkpt lat="4.7112800" lon="-74.3400620">
        <ele>2619.2</ele>
        <time>2018-08-10T16:17:07Z</time>
      </trkpt>
      <trkpt lat="4.7112450" lon="-74.3400450">
        <ele>2619.3</ele>
        <time>2018-08-10T16:17:09Z</time>
      </trkpt>
      <trkpt lat="4.7112050" lon="-74.3400250">
        <ele>2619.5</ele>
        <time>2018-08-10T16:17:11Z</time>
      </trkpt>
      <trkpt lat="4.7111580" lon="-74.3400080">
        <ele>2619.7</ele>
        <time>2018-08-10T16:17:13Z</time>
      </trkpt>
      <trkpt lat="4.7111180" lon="-74.3399800">
        <ele>2619.7</ele>
        <time>2018-08-10T16:17:15Z</time>
      </trkpt>
      <trkpt lat="4.7110770" lon="-74.3399480">
        <ele>2619.8</ele>
        <time>2018-08-10T16:17:17Z</time>
      </trkpt>
      <trkpt lat="4.7110370" lon="-74.3399220">
        <ele>2619.8</ele>
        <time>2018-08-10T16:17:19Z</time>
      </trkpt>
      <trkpt lat="4.7110130" lon="-74.3399050">
        <ele>2619.9</ele>
        <time>2018-08-10T16:17:20Z</time>
      </trkpt>
      <trkpt lat="4.7109780" lon="-74.3398720">
        <ele>2619.9</ele>
        <time>2018-08-10T16:17:22Z</time>
      </trkpt>
      <trkpt lat="4.7109570" lon="-74.3398550">
        <ele>2620.0</ele>
        <time>2018-08-10T16:17:23Z</time>
      </trkpt>
      <trkpt lat="4.7109320" lon="-74.3398220">
        <ele>2620.0</ele>
        <time>2018-08-10T16:17:25Z</time>
      </trkpt>
      <trkpt lat="4.7109070" lon="-74.3398080">
        <ele>2620.0</ele>
        <time>2018-08-10T16:17:26Z</time>
      </trkpt>
      <trkpt lat="4.7108680" lon="-74.3397820">
        <ele>2620.1</ele>
        <time>2018-08-10T16:17:28Z</time>
      </trkpt>
      <trkpt lat="4.7108250" lon="-74.3397530">
        <ele>2620.1</ele>
        <time>2018-08-10T16:17:30Z</time>
      </trkpt>
      <trkpt lat="4.7108030" lon="-74.3397320">
        <ele>2620.2</ele>
        <time>2018-08-10T16:17:31Z</time>
      </trkpt>
      <trkpt lat="4.7107830" lon="-74.3397120">
        <ele>2620.2</ele>
        <time>2018-08-10T16:17:32Z</time>
      </trkpt>
      <trkpt lat="4.7107530" lon="-74.3396680">
        <ele>2620.3</ele>
        <time>2018-08-10T16:17:34Z</time>
      </trkpt>
      <trkpt lat="4.7107350" lon="-74.3396450">
        <ele>2620.3</ele>
        <time>2018-08-10T16:17:35Z</time>
      </trkpt>
      <trkpt lat="4.7107130" lon="-74.3396080">
        <ele>2620.4</ele>
        <time>2018-08-10T16:17:36Z</time>
      </trkpt>
      <trkpt lat="4.7106820" lon="-74.3395850">
        <ele>2620.5</ele>
        <time>2018-08-10T16:17:37Z</time>
      </trkpt>
      <trkpt lat="4.7106520" lon="-74.3395630">
        <ele>2620.7</ele>
        <time>2018-08-10T16:17:38Z</time>
      </trkpt>
      <trkpt lat="4.7106200" lon="-74.3395420">
        <ele>2620.8</ele>
        <time>2018-08-10T16:17:39Z</time>
      </trkpt>
      <trkpt lat="4.7105920" lon="-74.3395220">
        <ele>2621.0</ele>
        <time>2018-08-10T16:17:40Z</time>
      </trkpt>
      <trkpt lat="4.7105630" lon="-74.3395050">
        <ele>2621.1</ele>
        <time>2018-08-10T16:17:41Z</time>
      </trkpt>
      <trkpt lat="4.7105330" lon="-74.3394850">
        <ele>2621.3</ele>
        <time>2018-08-10T16:17:42Z</time>
      </trkpt>
      <trkpt lat="4.7105070" lon="-74.3394680">
        <ele>2621.4</ele>
        <time>2018-08-10T16:17:43Z</time>
      </trkpt>
      <trkpt lat="4.7104780" lon="-74.3394500">
        <ele>2621.6</ele>
        <time>2018-08-10T16:17:44Z</time>
      </trkpt>
      <trkpt lat="4.7104500" lon="-74.3394330">
        <ele>2621.7</ele>
        <time>2018-08-10T16:17:45Z</time>
      </trkpt>
      <trkpt lat="4.7104220" lon="-74.3394150">
        <ele>2621.9</ele>
        <time>2018-08-10T16:17:46Z</time>
      </trkpt>
      <trkpt lat="4.7103950" lon="-74.3393950">
        <ele>2622.1</ele>
        <time>2018-08-10T16:17:47Z</time>
      </trkpt>
      <trkpt lat="4.7103680" lon="-74.3393770">
        <ele>2622.3</ele>
        <time>2018-08-10T16:17:48Z</time>
      </trkpt>
      <trkpt lat="4.7103420" lon="-74.3393600">
        <ele>2622.4</ele>
        <time>2018-08-10T16:17:49Z</time>
      </trkpt>
      <trkpt lat="4.7103130" lon="-74.3393400">
        <ele>2622.6</ele>
        <time>2018-08-10T16:17:50Z</time>
      </trkpt>
      <trkpt lat="4.7102850" lon="-74.3393220">
        <ele>2622.8</ele>
        <time>2018-08-10T16:17:51Z</time>
      </trkpt>
      <trkpt lat="4.7102580" lon="-74.3393070">
        <ele>2623.0</ele>
        <time>2018-08-10T16:17:52Z</time>
      </trkpt>
      <trkpt lat="4.7102280" lon="-74.3392970">
        <ele>2623.2</ele>
        <time>2018-08-10T16:17:53Z</time>
      </trkpt>
      <trkpt lat="4.7102020" lon="-74.3392870">
        <ele>2623.3</ele>
        <time>2018-08-10T16:17:54Z</time>
      </trkpt>
      <trkpt lat="4.7101750" lon="-74.3392750">
        <ele>2623.5</ele>
        <time>2018-08-10T16:17:55Z</time>
      </trkpt>
      <trkpt lat="4.7101480" lon="-74.3392630">
        <ele>2623.7</ele>
        <time>2018-08-10T16:17:56Z</time>
      </trkpt>
      <trkpt lat="4.7101180" lon="-74.3392570">
        <ele>2623.8</ele>
        <time>2018-08-10T16:17:57Z</time>
      </trkpt>
      <trkpt lat="4.7100900" lon="-74.3392430">
        <ele>2624.0</ele>
        <time>2018-08-10T16:17:58Z</time>
      </trkpt>
      <trkpt lat="4.7100630" lon="-74.3392320">
        <ele>2624.2</ele>
        <time>2018-08-10T16:17:59Z</time>
      </trkpt>
      <trkpt lat="4.7100330" lon="-74.3392230">
        <ele>2624.3</ele>
        <time>2018-08-10T16:18:00Z</time>
      </trkpt>
      <trkpt lat="4.7100070" lon="-74.3392100">
        <ele>2624.5</ele>
        <time>2018-08-10T16:18:01Z</time>
      </trkpt>
      <trkpt lat="4.7099770" lon="-74.3392020">
        <ele>2624.7</ele>
        <time>2018-08-10T16:18:02Z</time>
      </trkpt>
      <trkpt lat="4.7099470" lon="-74.3391950">
        <ele>2624.9</ele>
        <time>2018-08-10T16:18:03Z</time>
      </trkpt>
      <trkpt lat="4.7099150" lon="-74.3391880">
        <ele>2625.0</ele>
        <time>2018-08-10T16:18:04Z</time>
      </trkpt>
      <trkpt lat="4.7098820" lon="-74.3391780">
        <ele>2625.2</ele>
        <time>2018-08-10T16:18:05Z</time>
      </trkpt>
      <trkpt lat="4.7098550" lon="-74.3391620">
        <ele>2625.4</ele>
        <time>2018-08-10T16:18:06Z</time>
      </trkpt>
      <trkpt lat="4.7098000" lon="-74.3391350">
        <ele>2625.8</ele>
        <time>2018-08-10T16:18:08Z</time>
      </trkpt>
      <trkpt lat="4.7097680" lon="-74.3391230">
        <ele>2626.0</ele>
        <time>2018-08-10T16:18:09Z</time>
      </trkpt>
      <trkpt lat="4.7097370" lon="-74.3391150">
        <ele>2626.2</ele>
        <time>2018-08-10T16:18:10Z</time>
      </trkpt>
      <trkpt lat="4.7097050" lon="-74.3391050">
        <ele>2626.4</ele>
        <time>2018-08-10T16:18:11Z</time>
      </trkpt>
      <trkpt lat="4.7096730" lon="-74.3391000">
        <ele>2626.6</ele>
        <time>2018-08-10T16:18:12Z</time>
      </trkpt>
      <trkpt lat="4.7096420" lon="-74.3390920">
        <ele>2626.8</ele>
        <time>2018-08-10T16:18:13Z</time>
      </trkpt>
      <trkpt lat="4.7096120" lon="-74.3390830">
        <ele>2627.0</ele>
        <time>2018-08-10T16:18:14Z</time>
      </trkpt>
      <trkpt lat="4.7095830" lon="-74.3390770">
        <ele>2627.2</ele>
        <time>2018-08-10T16:18:15Z</time>
      </trkpt>
      <trkpt lat="4.7095570" lon="-74.3390670">
        <ele>2627.3</ele>
        <time>2018-08-10T16:18:16Z</time>
      </trkpt>
      <trkpt lat="4.7095280" lon="-74.3390550">
        <ele>2627.5</ele>
        <time>2018-08-10T16:18:17Z</time>
      </trkpt>
      <trkpt lat="4.7095000" lon="-74.3390470">
        <ele>2627.7</ele>
        <time>2018-08-10T16:18:18Z</time>
      </trkpt>
      <trkpt lat="4.7094550" lon="-74.3390230">
        <ele>2627.9</ele>
        <time>2018-08-10T16:18:20Z</time>
      </trkpt>
      <trkpt lat="4.7094120" lon="-74.3389950">
        <ele>2628.2</ele>
        <time>2018-08-10T16:18:22Z</time>
      </trkpt>
      <trkpt lat="4.7093850" lon="-74.3389780">
        <ele>2628.3</ele>
        <time>2018-08-10T16:18:23Z</time>
      </trkpt>
      <trkpt lat="4.7093630" lon="-74.3389580">
        <ele>2628.4</ele>
        <time>2018-08-10T16:18:24Z</time>
      </trkpt>
      <trkpt lat="4.7093280" lon="-74.3389250">
        <ele>2628.5</ele>
        <time>2018-08-10T16:18:26Z</time>
      </trkpt>
      <trkpt lat="4.7092920" lon="-74.3389000">
        <ele>2628.5</ele>
        <time>2018-08-10T16:18:28Z</time>
      </trkpt>
      <trkpt lat="4.7092530" lon="-74.3388800">
        <ele>2628.6</ele>
        <time>2018-08-10T16:18:30Z</time>
      </trkpt>
      <trkpt lat="4.7092150" lon="-74.3388570">
        <ele>2628.6</ele>
        <time>2018-08-10T16:18:32Z</time>
      </trkpt>
      <trkpt lat="4.7091900" lon="-74.3388300">
        <ele>2628.7</ele>
        <time>2018-08-10T16:18:34Z</time>
      </trkpt>
      <trkpt lat="4.7091650" lon="-74.3388100">
        <ele>2628.7</ele>
        <time>2018-08-10T16:18:36Z</time>
      </trkpt>
      <trkpt lat="4.7091300" lon="-74.3387830">
        <ele>2628.7</ele>
        <time>2018-08-10T16:18:38Z</time>
      </trkpt>
      <trkpt lat="4.7091030" lon="-74.3387750">
        <ele>2628.8</ele>
        <time>2018-08-10T16:18:40Z</time>
      </trkpt>
      <trkpt lat="4.7090730" lon="-74.3387450">
        <ele>2628.8</ele>
        <time>2018-08-10T16:18:42Z</time>
      </trkpt>
      <trkpt lat="4.7090430" lon="-74.3387170">
        <ele>2628.8</ele>
        <time>2018-08-10T16:18:44Z</time>
      </trkpt>
      <trkpt lat="4.7090120" lon="-74.3386870">
        <ele>2628.8</ele>
        <time>2018-08-10T16:18:46Z</time>
      </trkpt>
      <trkpt lat="4.7089850" lon="-74.3386550">
        <ele>2628.8</ele>
        <time>2018-08-10T16:18:48Z</time>
      </trkpt>
      <trkpt lat="4.7089620" lon="-74.3386280">
        <ele>2628.9</ele>
        <time>2018-08-10T16:18:50Z</time>
      </trkpt>
      <trkpt lat="4.7089280" lon="-74.3386020">
        <ele>2628.9</ele>
        <time>2018-08-10T16:18:52Z</time>
      </trkpt>
      <trkpt lat="4.7088920" lon="-74.3385900">
        <ele>2628.9</ele>
        <time>2018-08-10T16:18:54Z</time>
      </trkpt>
      <trkpt lat="4.7088570" lon="-74.3385700">
        <ele>2628.9</ele>
        <time>2018-08-10T16:18:56Z</time>
      </trkpt>
      <trkpt lat="4.7088270" lon="-74.3385420">
        <ele>2628.9</ele>
        <time>2018-08-10T16:18:58Z</time>
      </trkpt>
      <trkpt lat="4.7087970" lon="-74.3385130">
        <ele>2628.8</ele>
        <time>2018-08-10T16:19:00Z</time>
      </trkpt>
      <trkpt lat="4.7087650" lon="-74.3384920">
        <ele>2628.8</ele>
        <time>2018-08-10T16:19:02Z</time>
      </trkpt>
      <trkpt lat="4.7087370" lon="-74.3384670">
        <ele>2628.7</ele>
        <time>2018-08-10T16:19:04Z</time>
      </trkpt>
      <trkpt lat="4.7087120" lon="-74.3384480">
        <ele>2628.6</ele>
        <time>2018-08-10T16:19:06Z</time>
      </trkpt>
      <trkpt lat="4.7086870" lon="-74.3384280">
        <ele>2628.6</ele>
        <time>2018-08-10T16:19:08Z</time>
      </trkpt>
      <trkpt lat="4.7086600" lon="-74.3384080">
        <ele>2628.5</ele>
        <time>2018-08-10T16:19:10Z</time>
      </trkpt>
      <trkpt lat="4.7086230" lon="-74.3383780">
        <ele>2628.2</ele>
        <time>2018-08-10T16:19:12Z</time>
      </trkpt>
      <trkpt lat="4.7086050" lon="-74.3383580">
        <ele>2628.0</ele>
        <time>2018-08-10T16:19:13Z</time>
      </trkpt>
      <trkpt lat="4.7085670" lon="-74.3383250">
        <ele>2627.5</ele>
        <time>2018-08-10T16:19:15Z</time>
      </trkpt>
      <trkpt lat="4.7085400" lon="-74.3383000">
        <ele>2627.1</ele>
        <time>2018-08-10T16:19:17Z</time>
      </trkpt>
      <trkpt lat="4.7085180" lon="-74.3382730">
        <ele>2626.8</ele>
        <time>2018-08-10T16:19:19Z</time>
      </trkpt>
      <trkpt lat="4.7084970" lon="-74.3382330">
        <ele>2626.4</ele>
        <time>2018-08-10T16:19:21Z</time>
      </trkpt>
      <trkpt lat="4.7084600" lon="-74.3381980">
        <ele>2625.8</ele>
        <time>2018-08-10T16:19:23Z</time>
      </trkpt>
      <trkpt lat="4.7084280" lon="-74.3381680">
        <ele>2625.3</ele>
        <time>2018-08-10T16:19:25Z</time>
      </trkpt>
      <trkpt lat="4.7083980" lon="-74.3381430">
        <ele>2625.1</ele>
        <time>2018-08-10T16:19:27Z</time>
      </trkpt>
      <trkpt lat="4.7083580" lon="-74.3381100">
        <ele>2624.8</ele>
        <time>2018-08-10T16:19:29Z</time>
      </trkpt>
      <trkpt lat="4.7083370" lon="-74.3380900">
        <ele>2624.6</ele>
        <time>2018-08-10T16:19:30Z</time>
      </trkpt>
      <trkpt lat="4.7083120" lon="-74.3380700">
        <ele>2624.3</ele>
        <time>2018-08-10T16:19:31Z</time>
      </trkpt>
      <trkpt lat="4.7082850" lon="-74.3380550">
        <ele>2623.9</ele>
        <time>2018-08-10T16:19:32Z</time>
      </trkpt>
      <trkpt lat="4.7082530" lon="-74.3380430">
        <ele>2623.6</ele>
        <time>2018-08-10T16:19:33Z</time>
      </trkpt>
      <trkpt lat="4.7082220" lon="-74.3380330">
        <ele>2623.3</ele>
        <time>2018-08-10T16:19:34Z</time>
      </trkpt>
      <trkpt lat="4.7081920" lon="-74.3380220">
        <ele>2623.0</ele>
        <time>2018-08-10T16:19:35Z</time>
      </trkpt>
      <trkpt lat="4.7081600" lon="-74.3380080">
        <ele>2622.8</ele>
        <time>2018-08-10T16:19:36Z</time>
      </trkpt>
      <trkpt lat="4.7081350" lon="-74.3379920">
        <ele>2622.6</ele>
        <time>2018-08-10T16:19:37Z</time>
      </trkpt>
      <trkpt lat="4.7081100" lon="-74.3379720">
        <ele>2622.4</ele>
        <time>2018-08-10T16:19:38Z</time>
      </trkpt>
      <trkpt lat="4.7080830" lon="-74.3379470">
        <ele>2622.2</ele>
        <time>2018-08-10T16:19:39Z</time>
      </trkpt>
      <trkpt lat="4.7080580" lon="-74.3379320">
        <ele>2621.9</ele>
        <time>2018-08-10T16:19:40Z</time>
      </trkpt>
      <trkpt lat="4.7080320" lon="-74.3379130">
        <ele>2621.7</ele>
        <time>2018-08-10T16:19:41Z</time>
      </trkpt>
      <trkpt lat="4.7080050" lon="-74.3378930">
        <ele>2621.4</ele>
        <time>2018-08-10T16:19:42Z</time>
      </trkpt>
      <trkpt lat="4.7079770" lon="-74.3378700">
        <ele>2621.2</ele>
        <time>2018-08-10T16:19:43Z</time>
      </trkpt>
      <trkpt lat="4.7079480" lon="-74.3378480">
        <ele>2621.1</ele>
        <time>2018-08-10T16:19:44Z</time>
      </trkpt>
      <trkpt lat="4.7079180" lon="-74.3378250">
        <ele>2620.9</ele>
        <time>2018-08-10T16:19:45Z</time>
      </trkpt>
      <trkpt lat="4.7078850" lon="-74.3378030">
        <ele>2620.9</ele>
        <time>2018-08-10T16:19:46Z</time>
      </trkpt>
      <trkpt lat="4.7078500" lon="-74.3377800">
        <ele>2620.8</ele>
        <time>2018-08-10T16:19:47Z</time>
      </trkpt>
      <trkpt lat="4.7078120" lon="-74.3377500">
        <ele>2620.7</ele>
        <time>2018-08-10T16:19:48Z</time>
      </trkpt>
      <trkpt lat="4.7077700" lon="-74.3377200">
        <ele>2620.7</ele>
        <time>2018-08-10T16:19:49Z</time>
      </trkpt>
      <trkpt lat="4.7077320" lon="-74.3376870">
        <ele>2620.6</ele>
        <time>2018-08-10T16:19:50Z</time>
      </trkpt>
      <trkpt lat="4.7076920" lon="-74.3376500">
        <ele>2620.5</ele>
        <time>2018-08-10T16:19:51Z</time>
      </trkpt>
      <trkpt lat="4.7076470" lon="-74.3376150">
        <ele>2620.3</ele>
        <time>2018-08-10T16:19:52Z</time>
      </trkpt>
      <trkpt lat="4.7076030" lon="-74.3375770">
        <ele>2620.2</ele>
        <time>2018-08-10T16:19:53Z</time>
      </trkpt>
      <trkpt lat="4.7075630" lon="-74.3375370">
        <ele>2619.8</ele>
        <time>2018-08-10T16:19:54Z</time>
      </trkpt>
      <trkpt lat="4.7075250" lon="-74.3375000">
        <ele>2619.5</ele>
        <time>2018-08-10T16:19:55Z</time>
      </trkpt>
      <trkpt lat="4.7074850" lon="-74.3374630">
        <ele>2619.2</ele>
        <time>2018-08-10T16:19:56Z</time>
      </trkpt>
      <trkpt lat="4.7074470" lon="-74.3374250">
        <ele>2619.0</ele>
        <time>2018-08-10T16:19:57Z</time>
      </trkpt>
      <trkpt lat="4.7074070" lon="-74.3373880">
        <ele>2618.9</ele>
        <time>2018-08-10T16:19:58Z</time>
      </trkpt>
      <trkpt lat="4.7073700" lon="-74.3373470">
        <ele>2618.8</ele>
        <time>2018-08-10T16:19:59Z</time>
      </trkpt>
      <trkpt lat="4.7073280" lon="-74.3373080">
        <ele>2618.7</ele>
        <time>2018-08-10T16:20:00Z</time>
      </trkpt>
      <trkpt lat="4.7072930" lon="-74.3372750">
        <ele>2618.6</ele>
        <time>2018-08-10T16:20:01Z</time>
      </trkpt>
      <trkpt lat="4.7072630" lon="-74.3372370">
        <ele>2618.6</ele>
        <time>2018-08-10T16:20:02Z</time>
      </trkpt>
      <trkpt lat="4.7072400" lon="-74.3371930">
        <ele>2618.5</ele>
        <time>2018-08-10T16:20:03Z</time>
      </trkpt>
      <trkpt lat="4.7072200" lon="-74.3371430">
        <ele>2618.5</ele>
        <time>2018-08-10T16:20:04Z</time>
      </trkpt>
      <trkpt lat="4.7072080" lon="-74.3370950">
        <ele>2618.4</ele>
        <time>2018-08-10T16:20:05Z</time>
      </trkpt>
      <trkpt lat="4.7072030" lon="-74.3370430">
        <ele>2618.3</ele>
        <time>2018-08-10T16:20:06Z</time>
      </trkpt>
      <trkpt lat="4.7072050" lon="-74.3369900">
        <ele>2618.1</ele>
        <time>2018-08-10T16:20:07Z</time>
      </trkpt>
      <trkpt lat="4.7072100" lon="-74.3369380">
        <ele>2617.8</ele>
        <time>2018-08-10T16:20:08Z</time>
      </trkpt>
      <trkpt lat="4.7072170" lon="-74.3368830">
        <ele>2617.4</ele>
        <time>2018-08-10T16:20:09Z</time>
      </trkpt>
      <trkpt lat="4.7072230" lon="-74.3368130">
        <ele>2617.1</ele>
        <time>2018-08-10T16:20:10Z</time>
      </trkpt>
      <trkpt lat="4.7072270" lon="-74.3367580">
        <ele>2616.9</ele>
        <time>2018-08-10T16:20:11Z</time>
      </trkpt>
      <trkpt lat="4.7072270" lon="-74.3367020">
        <ele>2616.8</ele>
        <time>2018-08-10T16:20:12Z</time>
      </trkpt>
      <trkpt lat="4.7072220" lon="-74.3366430">
        <ele>2616.7</ele>
        <time>2018-08-10T16:20:13Z</time>
      </trkpt>
      <trkpt lat="4.7072120" lon="-74.3365930">
        <ele>2616.6</ele>
        <time>2018-08-10T16:20:14Z</time>
      </trkpt>
      <trkpt lat="4.7071970" lon="-74.3365450">
        <ele>2616.5</ele>
        <time>2018-08-10T16:20:15Z</time>
      </trkpt>
      <trkpt lat="4.7071830" lon="-74.3364950">
        <ele>2616.4</ele>
        <time>2018-08-10T16:20:16Z</time>
      </trkpt>
      <trkpt lat="4.7071730" lon="-74.3364420">
        <ele>2616.3</ele>
        <time>2018-08-10T16:20:17Z</time>
      </trkpt>
      <trkpt lat="4.7071600" lon="-74.3363850">
        <ele>2616.2</ele>
        <time>2018-08-10T16:20:18Z</time>
      </trkpt>
      <trkpt lat="4.7071480" lon="-74.3363270">
        <ele>2616.1</ele>
        <time>2018-08-10T16:20:19Z</time>
      </trkpt>
      <trkpt lat="4.7071400" lon="-74.3362720">
        <ele>2615.7</ele>
        <time>2018-08-10T16:20:20Z</time>
      </trkpt>
      <trkpt lat="4.7071280" lon="-74.3362150">
        <ele>2615.3</ele>
        <time>2018-08-10T16:20:21Z</time>
      </trkpt>
      <trkpt lat="4.7071080" lon="-74.3361630">
        <ele>2615.0</ele>
        <time>2018-08-10T16:20:22Z</time>
      </trkpt>
      <trkpt lat="4.7070830" lon="-74.3361170">
        <ele>2614.8</ele>
        <time>2018-08-10T16:20:23Z</time>
      </trkpt>
      <trkpt lat="4.7070600" lon="-74.3360680">
        <ele>2614.6</ele>
        <time>2018-08-10T16:20:24Z</time>
      </trkpt>
      <trkpt lat="4.7070380" lon="-74.3360180">
        <ele>2614.4</ele>
        <time>2018-08-10T16:20:25Z</time>
      </trkpt>
      <trkpt lat="4.7070200" lon="-74.3359700">
        <ele>2614.1</ele>
        <time>2018-08-10T16:20:26Z</time>
      </trkpt>
      <trkpt lat="4.7070030" lon="-74.3359230">
        <ele>2613.8</ele>
        <time>2018-08-10T16:20:27Z</time>
      </trkpt>
      <trkpt lat="4.7069800" lon="-74.3358800">
        <ele>2613.5</ele>
        <time>2018-08-10T16:20:28Z</time>
      </trkpt>
      <trkpt lat="4.7069500" lon="-74.3358430">
        <ele>2613.2</ele>
        <time>2018-08-10T16:20:29Z</time>
      </trkpt>
      <trkpt lat="4.7069200" lon="-74.3358100">
        <ele>2613.0</ele>
        <time>2018-08-10T16:20:30Z</time>
      </trkpt>
      <trkpt lat="4.7068900" lon="-74.3357750">
        <ele>2612.8</ele>
        <time>2018-08-10T16:20:31Z</time>
      </trkpt>
      <trkpt lat="4.7068620" lon="-74.3357380">
        <ele>2612.7</ele>
        <time>2018-08-10T16:20:32Z</time>
      </trkpt>
      <trkpt lat="4.7068330" lon="-74.3357000">
        <ele>2612.6</ele>
        <time>2018-08-10T16:20:33Z</time>
      </trkpt>
      <trkpt lat="4.7068020" lon="-74.3356670">
        <ele>2612.5</ele>
        <time>2018-08-10T16:20:34Z</time>
      </trkpt>
      <trkpt lat="4.7067720" lon="-74.3356350">
        <ele>2612.5</ele>
        <time>2018-08-10T16:20:35Z</time>
      </trkpt>
      <trkpt lat="4.7067400" lon="-74.3356050">
        <ele>2612.5</ele>
        <time>2018-08-10T16:20:36Z</time>
      </trkpt>
      <trkpt lat="4.7067070" lon="-74.3355750">
        <ele>2612.5</ele>
        <time>2018-08-10T16:20:37Z</time>
      </trkpt>
      <trkpt lat="4.7066730" lon="-74.3355430">
        <ele>2612.4</ele>
        <time>2018-08-10T16:20:38Z</time>
      </trkpt>
      <trkpt lat="4.7066400" lon="-74.3355130">
        <ele>2612.4</ele>
        <time>2018-08-10T16:20:39Z</time>
      </trkpt>
      <trkpt lat="4.7066070" lon="-74.3354820">
        <ele>2612.5</ele>
        <time>2018-08-10T16:20:40Z</time>
      </trkpt>
      <trkpt lat="4.7065730" lon="-74.3354520">
        <ele>2612.5</ele>
        <time>2018-08-10T16:20:41Z</time>
      </trkpt>
      <trkpt lat="4.7065400" lon="-74.3354230">
        <ele>2612.5</ele>
        <time>2018-08-10T16:20:42Z</time>
      </trkpt>
      <trkpt lat="4.7065070" lon="-74.3353920">
        <ele>2612.6</ele>
        <time>2018-08-10T16:20:43Z</time>
      </trkpt>
      <trkpt lat="4.7064720" lon="-74.3353630">
        <ele>2612.6</ele>
        <time>2018-08-10T16:20:44Z</time>
      </trkpt>
      <trkpt lat="4.7064380" lon="-74.3353350">
        <ele>2612.7</ele>
        <time>2018-08-10T16:20:45Z</time>
      </trkpt>
      <trkpt lat="4.7064050" lon="-74.3353070">
        <ele>2612.8</ele>
        <time>2018-08-10T16:20:46Z</time>
      </trkpt>
      <trkpt lat="4.7063700" lon="-74.3352750">
        <ele>2612.9</ele>
        <time>2018-08-10T16:20:47Z</time>
      </trkpt>
      <trkpt lat="4.7063350" lon="-74.3352400">
        <ele>2613.0</ele>
        <time>2018-08-10T16:20:48Z</time>
      </trkpt>
      <trkpt lat="4.7062970" lon="-74.3352050">
        <ele>2613.1</ele>
        <time>2018-08-10T16:20:49Z</time>
      </trkpt>
      <trkpt lat="4.7062620" lon="-74.3351720">
        <ele>2613.5</ele>
        <time>2018-08-10T16:20:50Z</time>
      </trkpt>
      <trkpt lat="4.7062270" lon="-74.3351380">
        <ele>2614.1</ele>
        <time>2018-08-10T16:20:51Z</time>
      </trkpt>
      <trkpt lat="4.7061900" lon="-74.3351100">
        <ele>2614.8</ele>
        <time>2018-08-10T16:20:52Z</time>
      </trkpt>
      <trkpt lat="4.7061580" lon="-74.3350750">
        <ele>2615.7</ele>
        <time>2018-08-10T16:20:53Z</time>
      </trkpt>
      <trkpt lat="4.7061300" lon="-74.3350400">
        <ele>2616.6</ele>
        <time>2018-08-10T16:20:54Z</time>
      </trkpt>
      <trkpt lat="4.7061000" lon="-74.3350120">
        <ele>2617.4</ele>
        <time>2018-08-10T16:20:55Z</time>
      </trkpt>
      <trkpt lat="4.7060680" lon="-74.3349880">
        <ele>2618.2</ele>
        <time>2018-08-10T16:20:56Z</time>
      </trkpt>
      <trkpt lat="4.7060380" lon="-74.3349650">
        <ele>2618.9</ele>
        <time>2018-08-10T16:20:57Z</time>
      </trkpt>
      <trkpt lat="4.7060150" lon="-74.3349380">
        <ele>2619.0</ele>
        <time>2018-08-10T16:20:58Z</time>
      </trkpt>
      <trkpt lat="4.7059900" lon="-74.3349150">
        <ele>2619.0</ele>
        <time>2018-08-10T16:20:59Z</time>
      </trkpt>
      <trkpt lat="4.7059670" lon="-74.3348920">
        <ele>2619.0</ele>
        <time>2018-08-10T16:21:00Z</time>
      </trkpt>
      <trkpt lat="4.7059420" lon="-74.3348730">
        <ele>2619.0</ele>
        <time>2018-08-10T16:21:01Z</time>
      </trkpt>
      <trkpt lat="4.7059180" lon="-74.3348520">
        <ele>2619.0</ele>
        <time>2018-08-10T16:21:02Z</time>
      </trkpt>
      <trkpt lat="4.7058950" lon="-74.3348300">
        <ele>2619.0</ele>
        <time>2018-08-10T16:21:03Z</time>
      </trkpt>
      <trkpt lat="4.7058680" lon="-74.3348120">
        <ele>2619.2</ele>
        <time>2018-08-10T16:21:04Z</time>
      </trkpt>
      <trkpt lat="4.7058400" lon="-74.3347950">
        <ele>2619.5</ele>
        <time>2018-08-10T16:21:05Z</time>
      </trkpt>
      <trkpt lat="4.7058120" lon="-74.3347750">
        <ele>2619.9</ele>
        <time>2018-08-10T16:21:06Z</time>
      </trkpt>
      <trkpt lat="4.7057800" lon="-74.3347570">
        <ele>2620.2</ele>
        <time>2018-08-10T16:21:07Z</time>
      </trkpt>
      <trkpt lat="4.7057470" lon="-74.3347370">
        <ele>2620.6</ele>
        <time>2018-08-10T16:21:08Z</time>
      </trkpt>
      <trkpt lat="4.7057130" lon="-74.3347180">
        <ele>2621.0</ele>
        <time>2018-08-10T16:21:09Z</time>
      </trkpt>
      <trkpt lat="4.7056800" lon="-74.3347030">
        <ele>2621.4</ele>
        <time>2018-08-10T16:21:10Z</time>
      </trkpt>
      <trkpt lat="4.7056430" lon="-74.3346900">
        <ele>2621.7</ele>
        <time>2018-08-10T16:21:11Z</time>
      </trkpt>
      <trkpt lat="4.7056080" lon="-74.3346750">
        <ele>2622.1</ele>
        <time>2018-08-10T16:21:12Z</time>
      </trkpt>
      <trkpt lat="4.7055720" lon="-74.3346580">
        <ele>2622.5</ele>
        <time>2018-08-10T16:21:13Z</time>
      </trkpt>
      <trkpt lat="4.7055350" lon="-74.3346450">
        <ele>2622.9</ele>
        <time>2018-08-10T16:21:14Z</time>
      </trkpt>
      <trkpt lat="4.7054980" lon="-74.3346300">
        <ele>2623.0</ele>
        <time>2018-08-10T16:21:15Z</time>
      </trkpt>
      <trkpt lat="4.7054620" lon="-74.3346230">
        <ele>2623.0</ele>
        <time>2018-08-10T16:21:16Z</time>
      </trkpt>
      <trkpt lat="4.7054230" lon="-74.3346150">
        <ele>2623.1</ele>
        <time>2018-08-10T16:21:17Z</time>
      </trkpt>
      <trkpt lat="4.7053870" lon="-74.3346070">
        <ele>2623.1</ele>
        <time>2018-08-10T16:21:18Z</time>
      </trkpt>
      <trkpt lat="4.7053480" lon="-74.3346020">
        <ele>2623.1</ele>
        <time>2018-08-10T16:21:19Z</time>
      </trkpt>
      <trkpt lat="4.7053120" lon="-74.3345950">
        <ele>2623.1</ele>
        <time>2018-08-10T16:21:20Z</time>
      </trkpt>
      <trkpt lat="4.7052770" lon="-74.3345900">
        <ele>2623.1</ele>
        <time>2018-08-10T16:21:21Z</time>
      </trkpt>
      <trkpt lat="4.7052400" lon="-74.3345830">
        <ele>2623.2</ele>
        <time>2018-08-10T16:21:22Z</time>
      </trkpt>
      <trkpt lat="4.7052050" lon="-74.3345780">
        <ele>2623.2</ele>
        <time>2018-08-10T16:21:23Z</time>
      </trkpt>
      <trkpt lat="4.7051700" lon="-74.3345720">
        <ele>2623.2</ele>
        <time>2018-08-10T16:21:24Z</time>
      </trkpt>
      <trkpt lat="4.7051350" lon="-74.3345670">
        <ele>2623.3</ele>
        <time>2018-08-10T16:21:25Z</time>
      </trkpt>
      <trkpt lat="4.7050980" lon="-74.3345630">
        <ele>2623.3</ele>
        <time>2018-08-10T16:21:26Z</time>
      </trkpt>
      <trkpt lat="4.7050630" lon="-74.3345620">
        <ele>2623.4</ele>
        <time>2018-08-10T16:21:27Z</time>
      </trkpt>
      <trkpt lat="4.7050300" lon="-74.3345580">
        <ele>2623.4</ele>
        <time>2018-08-10T16:21:28Z</time>
      </trkpt>
      <trkpt lat="4.7049970" lon="-74.3345570">
        <ele>2623.5</ele>
        <time>2018-08-10T16:21:29Z</time>
      </trkpt>
      <trkpt lat="4.7049650" lon="-74.3345570">
        <ele>2623.6</ele>
        <time>2018-08-10T16:21:30Z</time>
      </trkpt>
      <trkpt lat="4.7049350" lon="-74.3345570">
        <ele>2623.6</ele>
        <time>2018-08-10T16:21:31Z</time>
      </trkpt>
      <trkpt lat="4.7048850" lon="-74.3345480">
        <ele>2623.8</ele>
        <time>2018-08-10T16:21:33Z</time>
      </trkpt>
      <trkpt lat="4.7048430" lon="-74.3345350">
        <ele>2623.9</ele>
        <time>2018-08-10T16:21:35Z</time>
      </trkpt>
      <trkpt lat="4.7048080" lon="-74.3345200">
        <ele>2624.1</ele>
        <time>2018-08-10T16:21:37Z</time>
      </trkpt>
      <trkpt lat="4.7047880" lon="-74.3344980">
        <ele>2624.3</ele>
        <time>2018-08-10T16:21:39Z</time>
      </trkpt>
      <trkpt lat="4.7047580" lon="-74.3344780">
        <ele>2624.5</ele>
        <time>2018-08-10T16:21:41Z</time>
      </trkpt>
      <trkpt lat="4.7047230" lon="-74.3344580">
        <ele>2624.8</ele>
        <time>2018-08-10T16:21:43Z</time>
      </trkpt>
      <trkpt lat="4.7046850" lon="-74.3344520">
        <ele>2625.0</ele>
        <time>2018-08-10T16:21:45Z</time>
      </trkpt>
      <trkpt lat="4.7046400" lon="-74.3344530">
        <ele>2625.1</ele>
        <time>2018-08-10T16:21:47Z</time>
      </trkpt>
      <trkpt lat="4.7045970" lon="-74.3344470">
        <ele>2625.1</ele>
        <time>2018-08-10T16:21:49Z</time>
      </trkpt>
      <trkpt lat="4.7045570" lon="-74.3344320">
        <ele>2625.1</ele>
        <time>2018-08-10T16:21:51Z</time>
      </trkpt>
      <trkpt lat="4.7045130" lon="-74.3344230">
        <ele>2625.2</ele>
        <time>2018-08-10T16:21:53Z</time>
      </trkpt>
      <trkpt lat="4.7044570" lon="-74.3344080">
        <ele>2625.2</ele>
        <time>2018-08-10T16:21:55Z</time>
      </trkpt>
      <trkpt lat="4.7044230" lon="-74.3343980">
        <ele>2625.2</ele>
        <time>2018-08-10T16:21:56Z</time>
      </trkpt>
      <trkpt lat="4.7043870" lon="-74.3343880">
        <ele>2625.2</ele>
        <time>2018-08-10T16:21:57Z</time>
      </trkpt>
      <trkpt lat="4.7043470" lon="-74.3343800">
        <ele>2625.2</ele>
        <time>2018-08-10T16:21:58Z</time>
      </trkpt>
      <trkpt lat="4.7043050" lon="-74.3343770">
        <ele>2625.2</ele>
        <time>2018-08-10T16:21:59Z</time>
      </trkpt>
      <trkpt lat="4.7042620" lon="-74.3343750">
        <ele>2625.2</ele>
        <time>2018-08-10T16:22:00Z</time>
      </trkpt>
      <trkpt lat="4.7042150" lon="-74.3343780">
        <ele>2625.2</ele>
        <time>2018-08-10T16:22:01Z</time>
      </trkpt>
      <trkpt lat="4.7041650" lon="-74.3343770">
        <ele>2625.2</ele>
        <time>2018-08-10T16:22:02Z</time>
      </trkpt>
      <trkpt lat="4.7041130" lon="-74.3343750">
        <ele>2625.2</ele>
        <time>2018-08-10T16:22:03Z</time>
      </trkpt>
      <trkpt lat="4.7040600" lon="-74.3343730">
        <ele>2625.1</ele>
        <time>2018-08-10T16:22:04Z</time>
      </trkpt>
      <trkpt lat="4.7040070" lon="-74.3343670">
        <ele>2625.1</ele>
        <time>2018-08-10T16:22:05Z</time>
      </trkpt>
      <trkpt lat="4.7039530" lon="-74.3343520">
        <ele>2625.1</ele>
        <time>2018-08-10T16:22:06Z</time>
      </trkpt>
      <trkpt lat="4.7038980" lon="-74.3343350">
        <ele>2625.1</ele>
        <time>2018-08-10T16:22:07Z</time>
      </trkpt>
      <trkpt lat="4.7038430" lon="-74.3343270">
        <ele>2625.0</ele>
        <time>2018-08-10T16:22:08Z</time>
      </trkpt>
      <trkpt lat="4.7037850" lon="-74.3343150">
        <ele>2624.9</ele>
        <time>2018-08-10T16:22:09Z</time>
      </trkpt>
      <trkpt lat="4.7037270" lon="-74.3342980">
        <ele>2624.9</ele>
        <time>2018-08-10T16:22:10Z</time>
      </trkpt>
      <trkpt lat="4.7036680" lon="-74.3342780">
        <ele>2624.8</ele>
        <time>2018-08-10T16:22:11Z</time>
      </trkpt>
      <trkpt lat="4.7036100" lon="-74.3342550">
        <ele>2624.6</ele>
        <time>2018-08-10T16:22:12Z</time>
      </trkpt>
      <trkpt lat="4.7035500" lon="-74.3342300">
        <ele>2624.4</ele>
        <time>2018-08-10T16:22:13Z</time>
      </trkpt>
      <trkpt lat="4.7034930" lon="-74.3342020">
        <ele>2624.2</ele>
        <time>2018-08-10T16:22:14Z</time>
      </trkpt>
      <trkpt lat="4.7034380" lon="-74.3341820">
        <ele>2624.0</ele>
        <time>2018-08-10T16:22:15Z</time>
      </trkpt>
      <trkpt lat="4.7033830" lon="-74.3341620">
        <ele>2623.9</ele>
        <time>2018-08-10T16:22:16Z</time>
      </trkpt>
      <trkpt lat="4.7033280" lon="-74.3341350">
        <ele>2623.7</ele>
        <time>2018-08-10T16:22:17Z</time>
      </trkpt>
      <trkpt lat="4.7032770" lon="-74.3341050">
        <ele>2623.6</ele>
        <time>2018-08-10T16:22:18Z</time>
      </trkpt>
      <trkpt lat="4.7032250" lon="-74.3340800">
        <ele>2623.6</ele>
        <time>2018-08-10T16:22:19Z</time>
      </trkpt>
      <trkpt lat="4.7031830" lon="-74.3340550">
        <ele>2623.5</ele>
        <time>2018-08-10T16:22:20Z</time>
      </trkpt>
      <trkpt lat="4.7031430" lon="-74.3340320">
        <ele>2623.5</ele>
        <time>2018-08-10T16:22:21Z</time>
      </trkpt>
      <trkpt lat="4.7031020" lon="-74.3340080">
        <ele>2623.5</ele>
        <time>2018-08-10T16:22:22Z</time>
      </trkpt>
      <trkpt lat="4.7030620" lon="-74.3339880">
        <ele>2623.4</ele>
        <time>2018-08-10T16:22:23Z</time>
      </trkpt>
      <trkpt lat="4.7030220" lon="-74.3339700">
        <ele>2623.4</ele>
        <time>2018-08-10T16:22:24Z</time>
      </trkpt>
      <trkpt lat="4.7029850" lon="-74.3339550">
        <ele>2623.4</ele>
        <time>2018-08-10T16:22:25Z</time>
      </trkpt>
      <trkpt lat="4.7029520" lon="-74.3339430">
        <ele>2623.4</ele>
        <time>2018-08-10T16:22:26Z</time>
      </trkpt>
      <trkpt lat="4.7029180" lon="-74.3339320">
        <ele>2623.4</ele>
        <time>2018-08-10T16:22:27Z</time>
      </trkpt>
      <trkpt lat="4.7028830" lon="-74.3339180">
        <ele>2623.3</ele>
        <time>2018-08-10T16:22:28Z</time>
      </trkpt>
      <trkpt lat="4.7028500" lon="-74.3339050">
        <ele>2623.3</ele>
        <time>2018-08-10T16:22:29Z</time>
      </trkpt>
      <trkpt lat="4.7028150" lon="-74.3338920">
        <ele>2623.3</ele>
        <time>2018-08-10T16:22:30Z</time>
      </trkpt>
      <trkpt lat="4.7027800" lon="-74.3338780">
        <ele>2623.2</ele>
        <time>2018-08-10T16:22:31Z</time>
      </trkpt>
      <trkpt lat="4.7027470" lon="-74.3338650">
        <ele>2623.2</ele>
        <time>2018-08-10T16:22:32Z</time>
      </trkpt>
      <trkpt lat="4.7027120" lon="-74.3338500">
        <ele>2623.1</ele>
        <time>2018-08-10T16:22:33Z</time>
      </trkpt>
      <trkpt lat="4.7026770" lon="-74.3338370">
        <ele>2623.1</ele>
        <time>2018-08-10T16:22:34Z</time>
      </trkpt>
      <trkpt lat="4.7026430" lon="-74.3338230">
        <ele>2623.0</ele>
        <time>2018-08-10T16:22:35Z</time>
      </trkpt>
      <trkpt lat="4.7026130" lon="-74.3338100">
        <ele>2623.0</ele>
        <time>2018-08-10T16:22:36Z</time>
      </trkpt>
      <trkpt lat="4.7025820" lon="-74.3337950">
        <ele>2622.9</ele>
        <time>2018-08-10T16:22:37Z</time>
      </trkpt>
      <trkpt lat="4.7025500" lon="-74.3337800">
        <ele>2622.8</ele>
        <time>2018-08-10T16:22:38Z</time>
      </trkpt>
      <trkpt lat="4.7025130" lon="-74.3337670">
        <ele>2622.8</ele>
        <time>2018-08-10T16:22:39Z</time>
      </trkpt>
      <trkpt lat="4.7024780" lon="-74.3337570">
        <ele>2622.7</ele>
        <time>2018-08-10T16:22:40Z</time>
      </trkpt>
      <trkpt lat="4.7024450" lon="-74.3337500">
        <ele>2622.6</ele>
        <time>2018-08-10T16:22:41Z</time>
      </trkpt>
      <trkpt lat="4.7024150" lon="-74.3337430">
        <ele>2622.5</ele>
        <time>2018-08-10T16:22:42Z</time>
      </trkpt>
      <trkpt lat="4.7023830" lon="-74.3337350">
        <ele>2622.4</ele>
        <time>2018-08-10T16:22:43Z</time>
      </trkpt>
      <trkpt lat="4.7023550" lon="-74.3337270">
        <ele>2622.2</ele>
        <time>2018-08-10T16:22:44Z</time>
      </trkpt>
      <trkpt lat="4.7023230" lon="-74.3337200">
        <ele>2622.1</ele>
        <time>2018-08-10T16:22:45Z</time>
      </trkpt>
      <trkpt lat="4.7022950" lon="-74.3337050">
        <ele>2621.9</ele>
        <time>2018-08-10T16:22:46Z</time>
      </trkpt>
      <trkpt lat="4.7022670" lon="-74.3336930">
        <ele>2621.8</ele>
        <time>2018-08-10T16:22:47Z</time>
      </trkpt>
      <trkpt lat="4.7022330" lon="-74.3336820">
        <ele>2621.7</ele>
        <time>2018-08-10T16:22:48Z</time>
      </trkpt>
      <trkpt lat="4.7022000" lon="-74.3336700">
        <ele>2621.5</ele>
        <time>2018-08-10T16:22:49Z</time>
      </trkpt>
      <trkpt lat="4.7021680" lon="-74.3336600">
        <ele>2621.4</ele>
        <time>2018-08-10T16:22:50Z</time>
      </trkpt>
      <trkpt lat="4.7021380" lon="-74.3336480">
        <ele>2621.4</ele>
        <time>2018-08-10T16:22:51Z</time>
      </trkpt>
      <trkpt lat="4.7021100" lon="-74.3336350">
        <ele>2621.3</ele>
        <time>2018-08-10T16:22:52Z</time>
      </trkpt>
      <trkpt lat="4.7020820" lon="-74.3336230">
        <ele>2621.3</ele>
        <time>2018-08-10T16:22:53Z</time>
      </trkpt>
      <trkpt lat="4.7020530" lon="-74.3336120">
        <ele>2621.3</ele>
        <time>2018-08-10T16:22:54Z</time>
      </trkpt>
      <trkpt lat="4.7020230" lon="-74.3335950">
        <ele>2621.3</ele>
        <time>2018-08-10T16:22:55Z</time>
      </trkpt>
      <trkpt lat="4.7019930" lon="-74.3335780">
        <ele>2621.3</ele>
        <time>2018-08-10T16:22:56Z</time>
      </trkpt>
      <trkpt lat="4.7019650" lon="-74.3335650">
        <ele>2621.2</ele>
        <time>2018-08-10T16:22:57Z</time>
      </trkpt>
      <trkpt lat="4.7019380" lon="-74.3335520">
        <ele>2621.2</ele>
        <time>2018-08-10T16:22:58Z</time>
      </trkpt>
      <trkpt lat="4.7019130" lon="-74.3335380">
        <ele>2621.2</ele>
        <time>2018-08-10T16:22:59Z</time>
      </trkpt>
      <trkpt lat="4.7018870" lon="-74.3335230">
        <ele>2621.2</ele>
        <time>2018-08-10T16:23:00Z</time>
      </trkpt>
      <trkpt lat="4.7018570" lon="-74.3335130">
        <ele>2621.2</ele>
        <time>2018-08-10T16:23:01Z</time>
      </trkpt>
      <trkpt lat="4.7018270" lon="-74.3335020">
        <ele>2621.2</ele>
        <time>2018-08-10T16:23:02Z</time>
      </trkpt>
      <trkpt lat="4.7017950" lon="-74.3334880">
        <ele>2621.2</ele>
        <time>2018-08-10T16:23:03Z</time>
      </trkpt>
      <trkpt lat="4.7017600" lon="-74.3334750">
        <ele>2621.2</ele>
        <time>2018-08-10T16:23:04Z</time>
      </trkpt>
      <trkpt lat="4.7017300" lon="-74.3334600">
        <ele>2621.2</ele>
        <time>2018-08-10T16:23:05Z</time>
      </trkpt>
      <trkpt lat="4.7017020" lon="-74.3334480">
        <ele>2621.2</ele>
        <time>2018-08-10T16:23:06Z</time>
      </trkpt>
      <trkpt lat="4.7016750" lon="-74.3334380">
        <ele>2621.1</ele>
        <time>2018-08-10T16:23:07Z</time>
      </trkpt>
      <trkpt lat="4.7016470" lon="-74.3334300">
        <ele>2621.1</ele>
        <time>2018-08-10T16:23:08Z</time>
      </trkpt>
      <trkpt lat="4.7016150" lon="-74.3334170">
        <ele>2621.1</ele>
        <time>2018-08-10T16:23:09Z</time>
      </trkpt>
      <trkpt lat="4.7015830" lon="-74.3334000">
        <ele>2621.1</ele>
        <time>2018-08-10T16:23:10Z</time>
      </trkpt>
      <trkpt lat="4.7015500" lon="-74.3333850">
        <ele>2621.1</ele>
        <time>2018-08-10T16:23:11Z</time>
      </trkpt>
      <trkpt lat="4.7015180" lon="-74.3333730">
        <ele>2621.1</ele>
        <time>2018-08-10T16:23:12Z</time>
      </trkpt>
      <trkpt lat="4.7014870" lon="-74.3333620">
        <ele>2621.1</ele>
        <time>2018-08-10T16:23:13Z</time>
      </trkpt>
      <trkpt lat="4.7014530" lon="-74.3333480">
        <ele>2621.1</ele>
        <time>2018-08-10T16:23:14Z</time>
      </trkpt>
      <trkpt lat="4.7014180" lon="-74.3333350">
        <ele>2621.1</ele>
        <time>2018-08-10T16:23:15Z</time>
      </trkpt>
      <trkpt lat="4.7013750" lon="-74.3333150">
        <ele>2621.1</ele>
        <time>2018-08-10T16:23:16Z</time>
      </trkpt>
      <trkpt lat="4.7013380" lon="-74.3332920">
        <ele>2621.1</ele>
        <time>2018-08-10T16:23:17Z</time>
      </trkpt>
      <trkpt lat="4.7013050" lon="-74.3332780">
        <ele>2621.1</ele>
        <time>2018-08-10T16:23:18Z</time>
      </trkpt>
      <trkpt lat="4.7012680" lon="-74.3332620">
        <ele>2621.1</ele>
        <time>2018-08-10T16:23:19Z</time>
      </trkpt>
      <trkpt lat="4.7012350" lon="-74.3332470">
        <ele>2621.1</ele>
        <time>2018-08-10T16:23:20Z</time>
      </trkpt>
      <trkpt lat="4.7012030" lon="-74.3332300">
        <ele>2621.1</ele>
        <time>2018-08-10T16:23:21Z</time>
      </trkpt>
      <trkpt lat="4.7011730" lon="-74.3332150">
        <ele>2621.1</ele>
        <time>2018-08-10T16:23:22Z</time>
      </trkpt>
      <trkpt lat="4.7011420" lon="-74.3332000">
        <ele>2621.1</ele>
        <time>2018-08-10T16:23:23Z</time>
      </trkpt>
      <trkpt lat="4.7011100" lon="-74.3331830">
        <ele>2621.1</ele>
        <time>2018-08-10T16:23:24Z</time>
      </trkpt>
      <trkpt lat="4.7010800" lon="-74.3331720">
        <ele>2621.1</ele>
        <time>2018-08-10T16:23:25Z</time>
      </trkpt>
      <trkpt lat="4.7010430" lon="-74.3331570">
        <ele>2621.1</ele>
        <time>2018-08-10T16:23:26Z</time>
      </trkpt>
      <trkpt lat="4.7010070" lon="-74.3331420">
        <ele>2621.1</ele>
        <time>2018-08-10T16:23:27Z</time>
      </trkpt>
      <trkpt lat="4.7009720" lon="-74.3331250">
        <ele>2621.1</ele>
        <time>2018-08-10T16:23:28Z</time>
      </trkpt>
      <trkpt lat="4.7009370" lon="-74.3331130">
        <ele>2621.1</ele>
        <time>2018-08-10T16:23:29Z</time>
      </trkpt>
      <trkpt lat="4.7009020" lon="-74.3331050">
        <ele>2621.1</ele>
        <time>2018-08-10T16:23:30Z</time>
      </trkpt>
      <trkpt lat="4.7008680" lon="-74.3330900">
        <ele>2621.1</ele>
        <time>2018-08-10T16:23:31Z</time>
      </trkpt>
      <trkpt lat="4.7008350" lon="-74.3330730">
        <ele>2621.1</ele>
        <time>2018-08-10T16:23:32Z</time>
      </trkpt>
      <trkpt lat="4.7008030" lon="-74.3330550">
        <ele>2621.1</ele>
        <time>2018-08-10T16:23:33Z</time>
      </trkpt>
      <trkpt lat="4.7007730" lon="-74.3330370">
        <ele>2621.1</ele>
        <time>2018-08-10T16:23:34Z</time>
      </trkpt>
      <trkpt lat="4.7007400" lon="-74.3330170">
        <ele>2621.1</ele>
        <time>2018-08-10T16:23:35Z</time>
      </trkpt>
      <trkpt lat="4.7007100" lon="-74.3330020">
        <ele>2621.1</ele>
        <time>2018-08-10T16:23:36Z</time>
      </trkpt>
      <trkpt lat="4.7006800" lon="-74.3329870">
        <ele>2621.1</ele>
        <time>2018-08-10T16:23:37Z</time>
      </trkpt>
      <trkpt lat="4.7006500" lon="-74.3329770">
        <ele>2621.1</ele>
        <time>2018-08-10T16:23:38Z</time>
      </trkpt>
      <trkpt lat="4.7006180" lon="-74.3329650">
        <ele>2621.1</ele>
        <time>2018-08-10T16:23:39Z</time>
      </trkpt>
      <trkpt lat="4.7005870" lon="-74.3329520">
        <ele>2621.1</ele>
        <time>2018-08-10T16:23:40Z</time>
      </trkpt>
      <trkpt lat="4.7005570" lon="-74.3329380">
        <ele>2621.2</ele>
        <time>2018-08-10T16:23:41Z</time>
      </trkpt>
      <trkpt lat="4.7005270" lon="-74.3329250">
        <ele>2621.2</ele>
        <time>2018-08-10T16:23:42Z</time>
      </trkpt>
      <trkpt lat="4.7004970" lon="-74.3329100">
        <ele>2621.2</ele>
        <time>2018-08-10T16:23:43Z</time>
      </trkpt>
      <trkpt lat="4.7004670" lon="-74.3329020">
        <ele>2621.2</ele>
        <time>2018-08-10T16:23:44Z</time>
      </trkpt>
      <trkpt lat="4.7004370" lon="-74.3328920">
        <ele>2621.2</ele>
        <time>2018-08-10T16:23:45Z</time>
      </trkpt>
      <trkpt lat="4.7004050" lon="-74.3328850">
        <ele>2621.2</ele>
        <time>2018-08-10T16:23:46Z</time>
      </trkpt>
      <trkpt lat="4.7003730" lon="-74.3328750">
        <ele>2621.2</ele>
        <time>2018-08-10T16:23:47Z</time>
      </trkpt>
      <trkpt lat="4.7003370" lon="-74.3328720">
        <ele>2621.2</ele>
        <time>2018-08-10T16:23:48Z</time>
      </trkpt>
      <trkpt lat="4.7003080" lon="-74.3328630">
        <ele>2621.2</ele>
        <time>2018-08-10T16:23:49Z</time>
      </trkpt>
      <trkpt lat="4.7002750" lon="-74.3328500">
        <ele>2621.3</ele>
        <time>2018-08-10T16:23:50Z</time>
      </trkpt>
      <trkpt lat="4.7002420" lon="-74.3328350">
        <ele>2621.3</ele>
        <time>2018-08-10T16:23:51Z</time>
      </trkpt>
      <trkpt lat="4.7002150" lon="-74.3328270">
        <ele>2621.3</ele>
        <time>2018-08-10T16:23:52Z</time>
      </trkpt>
      <trkpt lat="4.7001830" lon="-74.3328130">
        <ele>2621.3</ele>
        <time>2018-08-10T16:23:53Z</time>
      </trkpt>
      <trkpt lat="4.7001500" lon="-74.3328000">
        <ele>2621.3</ele>
        <time>2018-08-10T16:23:54Z</time>
      </trkpt>
      <trkpt lat="4.7001150" lon="-74.3327870">
        <ele>2621.4</ele>
        <time>2018-08-10T16:23:55Z</time>
      </trkpt>
      <trkpt lat="4.7000780" lon="-74.3327720">
        <ele>2621.4</ele>
        <time>2018-08-10T16:23:56Z</time>
      </trkpt>
      <trkpt lat="4.7000470" lon="-74.3327620">
        <ele>2621.4</ele>
        <time>2018-08-10T16:23:57Z</time>
      </trkpt>
      <trkpt lat="4.7000150" lon="-74.3327530">
        <ele>2621.4</ele>
        <time>2018-08-10T16:23:58Z</time>
      </trkpt>
      <trkpt lat="4.6999830" lon="-74.3327450">
        <ele>2621.4</ele>
        <time>2018-08-10T16:23:59Z</time>
      </trkpt>
      <trkpt lat="4.6999530" lon="-74.3327330">
        <ele>2621.5</ele>
        <time>2018-08-10T16:24:00Z</time>
      </trkpt>
      <trkpt lat="4.6999250" lon="-74.3327220">
        <ele>2621.5</ele>
        <time>2018-08-10T16:24:01Z</time>
      </trkpt>
      <trkpt lat="4.6998970" lon="-74.3327150">
        <ele>2621.6</ele>
        <time>2018-08-10T16:24:02Z</time>
      </trkpt>
      <trkpt lat="4.6998430" lon="-74.3327070">
        <ele>2621.6</ele>
        <time>2018-08-10T16:24:04Z</time>
      </trkpt>
      <trkpt lat="4.6998170" lon="-74.3327000">
        <ele>2621.7</ele>
        <time>2018-08-10T16:24:05Z</time>
      </trkpt>
      <trkpt lat="4.6997880" lon="-74.3326930">
        <ele>2621.7</ele>
        <time>2018-08-10T16:24:06Z</time>
      </trkpt>
      <trkpt lat="4.6997620" lon="-74.3326870">
        <ele>2621.8</ele>
        <time>2018-08-10T16:24:07Z</time>
      </trkpt>
      <trkpt lat="4.6997330" lon="-74.3326830">
        <ele>2621.9</ele>
        <time>2018-08-10T16:24:08Z</time>
      </trkpt>
      <trkpt lat="4.6997020" lon="-74.3326830">
        <ele>2622.1</ele>
        <time>2018-08-10T16:24:09Z</time>
      </trkpt>
      <trkpt lat="4.6996720" lon="-74.3326820">
        <ele>2622.3</ele>
        <time>2018-08-10T16:24:10Z</time>
      </trkpt>
      <trkpt lat="4.6996430" lon="-74.3326750">
        <ele>2622.6</ele>
        <time>2018-08-10T16:24:11Z</time>
      </trkpt>
      <trkpt lat="4.6995880" lon="-74.3326770">
        <ele>2623.0</ele>
        <time>2018-08-10T16:24:13Z</time>
      </trkpt>
      <trkpt lat="4.6995400" lon="-74.3326730">
        <ele>2623.2</ele>
        <time>2018-08-10T16:24:15Z</time>
      </trkpt>
      <trkpt lat="4.6994920" lon="-74.3326580">
        <ele>2623.5</ele>
        <time>2018-08-10T16:24:17Z</time>
      </trkpt>
      <trkpt lat="4.6994420" lon="-74.3326480">
        <ele>2623.7</ele>
        <time>2018-08-10T16:24:19Z</time>
      </trkpt>
      <trkpt lat="4.6994150" lon="-74.3326430">
        <ele>2623.8</ele>
        <time>2018-08-10T16:24:20Z</time>
      </trkpt>
      <trkpt lat="4.6993870" lon="-74.3326380">
        <ele>2624.1</ele>
        <time>2018-08-10T16:24:21Z</time>
      </trkpt>
      <trkpt lat="4.6993370" lon="-74.3326300">
        <ele>2624.5</ele>
        <time>2018-08-10T16:24:23Z</time>
      </trkpt>
      <trkpt lat="4.6992820" lon="-74.3326250">
        <ele>2624.8</ele>
        <time>2018-08-10T16:24:25Z</time>
      </trkpt>
      <trkpt lat="4.6992530" lon="-74.3326230">
        <ele>2624.9</ele>
        <time>2018-08-10T16:24:26Z</time>
      </trkpt>
      <trkpt lat="4.6992250" lon="-74.3326200">
        <ele>2625.0</ele>
        <time>2018-08-10T16:24:27Z</time>
      </trkpt>
      <trkpt lat="4.6991980" lon="-74.3326130">
        <ele>2625.1</ele>
        <time>2018-08-10T16:24:28Z</time>
      </trkpt>
      <trkpt lat="4.6991470" lon="-74.3325980">
        <ele>2625.3</ele>
        <time>2018-08-10T16:24:30Z</time>
      </trkpt>
      <trkpt lat="4.6991180" lon="-74.3325950">
        <ele>2625.4</ele>
        <time>2018-08-10T16:24:31Z</time>
      </trkpt>
      <trkpt lat="4.6990880" lon="-74.3325920">
        <ele>2625.5</ele>
        <time>2018-08-10T16:24:32Z</time>
      </trkpt>
      <trkpt lat="4.6990600" lon="-74.3325880">
        <ele>2625.6</ele>
        <time>2018-08-10T16:24:33Z</time>
      </trkpt>
      <trkpt lat="4.6990300" lon="-74.3325820">
        <ele>2625.7</ele>
        <time>2018-08-10T16:24:34Z</time>
      </trkpt>
      <trkpt lat="4.6990000" lon="-74.3325770">
        <ele>2625.9</ele>
        <time>2018-08-10T16:24:35Z</time>
      </trkpt>
      <trkpt lat="4.6989730" lon="-74.3325720">
        <ele>2626.0</ele>
        <time>2018-08-10T16:24:36Z</time>
      </trkpt>
      <trkpt lat="4.6989470" lon="-74.3325630">
        <ele>2626.2</ele>
        <time>2018-08-10T16:24:37Z</time>
      </trkpt>
      <trkpt lat="4.6988970" lon="-74.3325450">
        <ele>2626.7</ele>
        <time>2018-08-10T16:24:39Z</time>
      </trkpt>
      <trkpt lat="4.6988420" lon="-74.3325300">
        <ele>2627.1</ele>
        <time>2018-08-10T16:24:41Z</time>
      </trkpt>
      <trkpt lat="4.6988120" lon="-74.3325320">
        <ele>2627.2</ele>
        <time>2018-08-10T16:24:42Z</time>
      </trkpt>
      <trkpt lat="4.6987820" lon="-74.3325300">
        <ele>2627.2</ele>
        <time>2018-08-10T16:24:43Z</time>
      </trkpt>
      <trkpt lat="4.6987530" lon="-74.3325330">
        <ele>2627.3</ele>
        <time>2018-08-10T16:24:44Z</time>
      </trkpt>
      <trkpt lat="4.6986980" lon="-74.3325300">
        <ele>2627.5</ele>
        <time>2018-08-10T16:24:46Z</time>
      </trkpt>
      <trkpt lat="4.6986700" lon="-74.3325300">
        <ele>2627.6</ele>
        <time>2018-08-10T16:24:47Z</time>
      </trkpt>
      <trkpt lat="4.6986370" lon="-74.3325270">
        <ele>2627.6</ele>
        <time>2018-08-10T16:24:48Z</time>
      </trkpt>
      <trkpt lat="4.6985950" lon="-74.3325200">
        <ele>2627.8</ele>
        <time>2018-08-10T16:24:49Z</time>
      </trkpt>
      <trkpt lat="4.6985580" lon="-74.3325180">
        <ele>2627.9</ele>
        <time>2018-08-10T16:24:50Z</time>
      </trkpt>
      <trkpt lat="4.6985250" lon="-74.3325200">
        <ele>2628.1</ele>
        <time>2018-08-10T16:24:51Z</time>
      </trkpt>
      <trkpt lat="4.6984980" lon="-74.3325270">
        <ele>2628.2</ele>
        <time>2018-08-10T16:24:52Z</time>
      </trkpt>
      <trkpt lat="4.6984470" lon="-74.3325330">
        <ele>2628.5</ele>
        <time>2018-08-10T16:24:54Z</time>
      </trkpt>
      <trkpt lat="4.6984020" lon="-74.3325470">
        <ele>2628.9</ele>
        <time>2018-08-10T16:24:56Z</time>
      </trkpt>
      <trkpt lat="4.6983530" lon="-74.3325480">
        <ele>2629.3</ele>
        <time>2018-08-10T16:24:58Z</time>
      </trkpt>
      <trkpt lat="4.6983270" lon="-74.3325530">
        <ele>2629.4</ele>
        <time>2018-08-10T16:24:59Z</time>
      </trkpt>
      <trkpt lat="4.6983000" lon="-74.3325600">
        <ele>2629.6</ele>
        <time>2018-08-10T16:25:00Z</time>
      </trkpt>
      <trkpt lat="4.6982720" lon="-74.3325670">
        <ele>2629.7</ele>
        <time>2018-08-10T16:25:01Z</time>
      </trkpt>
      <trkpt lat="4.6982430" lon="-74.3325730">
        <ele>2629.8</ele>
        <time>2018-08-10T16:25:02Z</time>
      </trkpt>
      <trkpt lat="4.6981870" lon="-74.3325820">
        <ele>2630.0</ele>
        <time>2018-08-10T16:25:04Z</time>
      </trkpt>
      <trkpt lat="4.6981380" lon="-74.3325830">
        <ele>2630.2</ele>
        <time>2018-08-10T16:25:06Z</time>
      </trkpt>
      <trkpt lat="4.6980880" lon="-74.3325770">
        <ele>2630.6</ele>
        <time>2018-08-10T16:25:08Z</time>
      </trkpt>
      <trkpt lat="4.6980470" lon="-74.3325670">
        <ele>2631.0</ele>
        <time>2018-08-10T16:25:10Z</time>
      </trkpt>
      <trkpt lat="4.6980020" lon="-74.3325520">
        <ele>2631.4</ele>
        <time>2018-08-10T16:25:12Z</time>
      </trkpt>
      <trkpt lat="4.6979550" lon="-74.3325400">
        <ele>2631.6</ele>
        <time>2018-08-10T16:25:14Z</time>
      </trkpt>
      <trkpt lat="4.6979280" lon="-74.3325350">
        <ele>2631.8</ele>
        <time>2018-08-10T16:25:15Z</time>
      </trkpt>
      <trkpt lat="4.6979020" lon="-74.3325280">
        <ele>2631.9</ele>
        <time>2018-08-10T16:25:16Z</time>
      </trkpt>
      <trkpt lat="4.6978620" lon="-74.3325030">
        <ele>2632.0</ele>
        <time>2018-08-10T16:25:18Z</time>
      </trkpt>
      <trkpt lat="4.6978370" lon="-74.3324880">
        <ele>2632.1</ele>
        <time>2018-08-10T16:25:19Z</time>
      </trkpt>
      <trkpt lat="4.6978070" lon="-74.3324700">
        <ele>2632.2</ele>
        <time>2018-08-10T16:25:20Z</time>
      </trkpt>
      <trkpt lat="4.6977750" lon="-74.3324600">
        <ele>2632.3</ele>
        <time>2018-08-10T16:25:21Z</time>
      </trkpt>
      <trkpt lat="4.6977500" lon="-74.3324480">
        <ele>2632.4</ele>
        <time>2018-08-10T16:25:22Z</time>
      </trkpt>
      <trkpt lat="4.6977280" lon="-74.3324320">
        <ele>2632.6</ele>
        <time>2018-08-10T16:25:23Z</time>
      </trkpt>
      <trkpt lat="4.6976820" lon="-74.3324070">
        <ele>2633.0</ele>
        <time>2018-08-10T16:25:25Z</time>
      </trkpt>
      <trkpt lat="4.6976550" lon="-74.3323880">
        <ele>2633.3</ele>
        <time>2018-08-10T16:25:26Z</time>
      </trkpt>
      <trkpt lat="4.6976320" lon="-74.3323680">
        <ele>2633.5</ele>
        <time>2018-08-10T16:25:27Z</time>
      </trkpt>
      <trkpt lat="4.6976120" lon="-74.3323500">
        <ele>2633.6</ele>
        <time>2018-08-10T16:25:28Z</time>
      </trkpt>
      <trkpt lat="4.6975850" lon="-74.3323300">
        <ele>2633.7</ele>
        <time>2018-08-10T16:25:29Z</time>
      </trkpt>
      <trkpt lat="4.6975630" lon="-74.3323100">
        <ele>2633.7</ele>
        <time>2018-08-10T16:25:30Z</time>
      </trkpt>
      <trkpt lat="4.6975370" lon="-74.3322920">
        <ele>2633.8</ele>
        <time>2018-08-10T16:25:31Z</time>
      </trkpt>
      <trkpt lat="4.6975080" lon="-74.3322770">
        <ele>2633.9</ele>
        <time>2018-08-10T16:25:32Z</time>
      </trkpt>
      <trkpt lat="4.6974820" lon="-74.3322580">
        <ele>2634.0</ele>
        <time>2018-08-10T16:25:33Z</time>
      </trkpt>
      <trkpt lat="4.6974570" lon="-74.3322380">
        <ele>2634.0</ele>
        <time>2018-08-10T16:25:34Z</time>
      </trkpt>
      <trkpt lat="4.6974320" lon="-74.3322220">
        <ele>2634.1</ele>
        <time>2018-08-10T16:25:35Z</time>
      </trkpt>
      <trkpt lat="4.6974050" lon="-74.3322050">
        <ele>2634.2</ele>
        <time>2018-08-10T16:25:36Z</time>
      </trkpt>
      <trkpt lat="4.6973550" lon="-74.3321830">
        <ele>2634.3</ele>
        <time>2018-08-10T16:25:38Z</time>
      </trkpt>
      <trkpt lat="4.6973080" lon="-74.3321700">
        <ele>2634.4</ele>
        <time>2018-08-10T16:25:40Z</time>
      </trkpt>
      <trkpt lat="4.6972620" lon="-74.3321400">
        <ele>2634.6</ele>
        <time>2018-08-10T16:25:42Z</time>
      </trkpt>
      <trkpt lat="4.6972380" lon="-74.3321180">
        <ele>2634.8</ele>
        <time>2018-08-10T16:25:43Z</time>
      </trkpt>
      <trkpt lat="4.6972100" lon="-74.3320980">
        <ele>2635.0</ele>
        <time>2018-08-10T16:25:44Z</time>
      </trkpt>
      <trkpt lat="4.6971770" lon="-74.3320820">
        <ele>2635.2</ele>
        <time>2018-08-10T16:25:45Z</time>
      </trkpt>
      <trkpt lat="4.6971520" lon="-74.3320620">
        <ele>2635.4</ele>
        <time>2018-08-10T16:25:46Z</time>
      </trkpt>
      <trkpt lat="4.6971270" lon="-74.3320450">
        <ele>2635.5</ele>
        <time>2018-08-10T16:25:47Z</time>
      </trkpt>
      <trkpt lat="4.6971030" lon="-74.3320280">
        <ele>2635.7</ele>
        <time>2018-08-10T16:25:48Z</time>
      </trkpt>
      <trkpt lat="4.6970770" lon="-74.3320080">
        <ele>2635.8</ele>
        <time>2018-08-10T16:25:49Z</time>
      </trkpt>
      <trkpt lat="4.6970520" lon="-74.3319930">
        <ele>2635.8</ele>
        <time>2018-08-10T16:25:50Z</time>
      </trkpt>
      <trkpt lat="4.6970200" lon="-74.3319670">
        <ele>2635.9</ele>
        <time>2018-08-10T16:25:51Z</time>
      </trkpt>
      <trkpt lat="4.6969900" lon="-74.3319550">
        <ele>2636.0</ele>
        <time>2018-08-10T16:25:52Z</time>
      </trkpt>
      <trkpt lat="4.6969430" lon="-74.3319220">
        <ele>2636.2</ele>
        <time>2018-08-10T16:25:54Z</time>
      </trkpt>
      <trkpt lat="4.6969120" lon="-74.3318930">
        <ele>2636.3</ele>
        <time>2018-08-10T16:25:55Z</time>
      </trkpt>
      <trkpt lat="4.6968850" lon="-74.3318680">
        <ele>2636.3</ele>
        <time>2018-08-10T16:25:56Z</time>
      </trkpt>
      <trkpt lat="4.6968620" lon="-74.3318400">
        <ele>2636.4</ele>
        <time>2018-08-10T16:25:57Z</time>
      </trkpt>
      <trkpt lat="4.6968380" lon="-74.3318250">
        <ele>2636.5</ele>
        <time>2018-08-10T16:25:58Z</time>
      </trkpt>
      <trkpt lat="4.6968030" lon="-74.3317980">
        <ele>2636.6</ele>
        <time>2018-08-10T16:26:00Z</time>
      </trkpt>
      <trkpt lat="4.6967650" lon="-74.3317650">
        <ele>2636.7</ele>
        <time>2018-08-10T16:26:02Z</time>
      </trkpt>
      <trkpt lat="4.6967270" lon="-74.3317430">
        <ele>2636.9</ele>
        <time>2018-08-10T16:26:04Z</time>
      </trkpt>
      <trkpt lat="4.6966930" lon="-74.3317280">
        <ele>2637.1</ele>
        <time>2018-08-10T16:26:06Z</time>
      </trkpt>
      <trkpt lat="4.6966520" lon="-74.3317120">
        <ele>2637.5</ele>
        <time>2018-08-10T16:26:08Z</time>
      </trkpt>
      <trkpt lat="4.6966100" lon="-74.3316750">
        <ele>2637.9</ele>
        <time>2018-08-10T16:26:10Z</time>
      </trkpt>
      <trkpt lat="4.6965730" lon="-74.3316420">
        <ele>2638.2</ele>
        <time>2018-08-10T16:26:12Z</time>
      </trkpt>
      <trkpt lat="4.6965400" lon="-74.3316270">
        <ele>2638.5</ele>
        <time>2018-08-10T16:26:14Z</time>
      </trkpt>
      <trkpt lat="4.6965030" lon="-74.3315880">
        <ele>2639.0</ele>
        <time>2018-08-10T16:26:16Z</time>
      </trkpt>
      <trkpt lat="4.6964830" lon="-74.3315700">
        <ele>2639.3</ele>
        <time>2018-08-10T16:26:17Z</time>
      </trkpt>
      <trkpt lat="4.6964450" lon="-74.3315300">
        <ele>2639.4</ele>
        <time>2018-08-10T16:26:19Z</time>
      </trkpt>
      <trkpt lat="4.6964200" lon="-74.3315130">
        <ele>2639.3</ele>
        <time>2018-08-10T16:26:20Z</time>
      </trkpt>
      <trkpt lat="4.6963980" lon="-74.3314930">
        <ele>2639.3</ele>
        <time>2018-08-10T16:26:21Z</time>
      </trkpt>
      <trkpt lat="4.6963680" lon="-74.3314600">
        <ele>2639.3</ele>
        <time>2018-08-10T16:26:22Z</time>
      </trkpt>
      <trkpt lat="4.6963420" lon="-74.3314320">
        <ele>2639.3</ele>
        <time>2018-08-10T16:26:23Z</time>
      </trkpt>
      <trkpt lat="4.6963150" lon="-74.3314120">
        <ele>2639.3</ele>
        <time>2018-08-10T16:26:24Z</time>
      </trkpt>
      <trkpt lat="4.6962870" lon="-74.3314000">
        <ele>2639.4</ele>
        <time>2018-08-10T16:26:25Z</time>
      </trkpt>
      <trkpt lat="4.6962570" lon="-74.3313920">
        <ele>2639.7</ele>
        <time>2018-08-10T16:26:26Z</time>
      </trkpt>
      <trkpt lat="4.6962280" lon="-74.3313880">
        <ele>2639.6</ele>
        <time>2018-08-10T16:26:27Z</time>
      </trkpt>
      <trkpt lat="4.6961800" lon="-74.3313770">
        <ele>2639.4</ele>
        <time>2018-08-10T16:26:29Z</time>
      </trkpt>
      <trkpt lat="4.6961320" lon="-74.3313600">
        <ele>2639.3</ele>
        <time>2018-08-10T16:26:31Z</time>
      </trkpt>
      <trkpt lat="4.6961020" lon="-74.3313500">
        <ele>2639.6</ele>
        <time>2018-08-10T16:26:32Z</time>
      </trkpt>
      <trkpt lat="4.6960530" lon="-74.3313380">
        <ele>2639.5</ele>
        <time>2018-08-10T16:26:34Z</time>
      </trkpt>
      <trkpt lat="4.6960080" lon="-74.3313270">
        <ele>2639.3</ele>
        <time>2018-08-10T16:26:36Z</time>
      </trkpt>
      <trkpt lat="4.6959720" lon="-74.3313000">
        <ele>2639.8</ele>
        <time>2018-08-10T16:26:38Z</time>
      </trkpt>
      <trkpt lat="4.6959500" lon="-74.3312780">
        <ele>2639.9</ele>
        <time>2018-08-10T16:26:39Z</time>
      </trkpt>
      <trkpt lat="4.6959270" lon="-74.3312630">
        <ele>2640.4</ele>
        <time>2018-08-10T16:26:40Z</time>
      </trkpt>
      <trkpt lat="4.6959030" lon="-74.3312480">
        <ele>2640.5</ele>
        <time>2018-08-10T16:26:41Z</time>
      </trkpt>
      <trkpt lat="4.6958800" lon="-74.3312280">
        <ele>2640.4</ele>
        <time>2018-08-10T16:26:42Z</time>
      </trkpt>
      <trkpt lat="4.6958550" lon="-74.3312080">
        <ele>2641.4</ele>
        <time>2018-08-10T16:26:43Z</time>
      </trkpt>
      <trkpt lat="4.6958320" lon="-74.3311930">
        <ele>2641.3</ele>
        <time>2018-08-10T16:26:44Z</time>
      </trkpt>
      <trkpt lat="4.6958070" lon="-74.3311800">
        <ele>2641.2</ele>
        <time>2018-08-10T16:26:45Z</time>
      </trkpt>
      <trkpt lat="4.6957600" lon="-74.3311580">
        <ele>2641.9</ele>
        <time>2018-08-10T16:26:47Z</time>
      </trkpt>
      <trkpt lat="4.6957420" lon="-74.3311380">
        <ele>2642.0</ele>
        <time>2018-08-10T16:26:48Z</time>
      </trkpt>
      <trkpt lat="4.6957150" lon="-74.3311200">
        <ele>2642.5</ele>
        <time>2018-08-10T16:26:49Z</time>
      </trkpt>
      <trkpt lat="4.6956920" lon="-74.3311050">
        <ele>2642.6</ele>
        <time>2018-08-10T16:26:50Z</time>
      </trkpt>
      <trkpt lat="4.6956680" lon="-74.3310900">
        <ele>2643.2</ele>
        <time>2018-08-10T16:26:51Z</time>
      </trkpt>
      <trkpt lat="4.6956420" lon="-74.3310780">
        <ele>2643.3</ele>
        <time>2018-08-10T16:26:52Z</time>
      </trkpt>
      <trkpt lat="4.6955980" lon="-74.3310680">
        <ele>2642.9</ele>
        <time>2018-08-10T16:26:53Z</time>
      </trkpt>
      <trkpt lat="4.6955670" lon="-74.3310550">
        <ele>2642.6</ele>
        <time>2018-08-10T16:26:54Z</time>
      </trkpt>
      <trkpt lat="4.6955420" lon="-74.3310420">
        <ele>2643.0</ele>
        <time>2018-08-10T16:26:55Z</time>
      </trkpt>
      <trkpt lat="4.6955070" lon="-74.3310150">
        <ele>2642.6</ele>
        <time>2018-08-10T16:26:57Z</time>
      </trkpt>
      <trkpt lat="4.6954620" lon="-74.3309880">
        <ele>2643.0</ele>
        <time>2018-08-10T16:26:59Z</time>
      </trkpt>
      <trkpt lat="4.6954370" lon="-74.3309700">
        <ele>2643.1</ele>
        <time>2018-08-10T16:27:00Z</time>
      </trkpt>
      <trkpt lat="4.6953970" lon="-74.3309470">
        <ele>2643.6</ele>
        <time>2018-08-10T16:27:02Z</time>
      </trkpt>
      <trkpt lat="4.6953800" lon="-74.3309250">
        <ele>2643.5</ele>
        <time>2018-08-10T16:27:03Z</time>
      </trkpt>
      <trkpt lat="4.6953450" lon="-74.3308970">
        <ele>2644.3</ele>
        <time>2018-08-10T16:27:05Z</time>
      </trkpt>
      <trkpt lat="4.6953180" lon="-74.3308800">
        <ele>2644.3</ele>
        <time>2018-08-10T16:27:06Z</time>
      </trkpt>
      <trkpt lat="4.6952950" lon="-74.3308580">
        <ele>2644.9</ele>
        <time>2018-08-10T16:27:07Z</time>
      </trkpt>
      <trkpt lat="4.6952750" lon="-74.3308400">
        <ele>2645.0</ele>
        <time>2018-08-10T16:27:08Z</time>
      </trkpt>
      <trkpt lat="4.6952530" lon="-74.3308170">
        <ele>2645.6</ele>
        <time>2018-08-10T16:27:09Z</time>
      </trkpt>
      <trkpt lat="4.6952270" lon="-74.3308050">
        <ele>2645.7</ele>
        <time>2018-08-10T16:27:10Z</time>
      </trkpt>
      <trkpt lat="4.6951830" lon="-74.3307850">
        <ele>2646.3</ele>
        <time>2018-08-10T16:27:12Z</time>
      </trkpt>
      <trkpt lat="4.6951370" lon="-74.3307600">
        <ele>2646.5</ele>
        <time>2018-08-10T16:27:14Z</time>
      </trkpt>
      <trkpt lat="4.6950930" lon="-74.3307330">
        <ele>2647.1</ele>
        <time>2018-08-10T16:27:16Z</time>
      </trkpt>
      <trkpt lat="4.6950520" lon="-74.3307130">
        <ele>2647.0</ele>
        <time>2018-08-10T16:27:18Z</time>
      </trkpt>
      <trkpt lat="4.6949930" lon="-74.3306970">
        <ele>2647.0</ele>
        <time>2018-08-10T16:27:20Z</time>
      </trkpt>
      <trkpt lat="4.6949450" lon="-74.3306830">
        <ele>2646.8</ele>
        <time>2018-08-10T16:27:21Z</time>
      </trkpt>
      <trkpt lat="4.6949130" lon="-74.3306730">
        <ele>2646.9</ele>
        <time>2018-08-10T16:27:22Z</time>
      </trkpt>
      <trkpt lat="4.6948850" lon="-74.3306630">
        <ele>2647.4</ele>
        <time>2018-08-10T16:27:23Z</time>
      </trkpt>
      <trkpt lat="4.6948500" lon="-74.3306420">
        <ele>2647.4</ele>
        <time>2018-08-10T16:27:24Z</time>
      </trkpt>
      <trkpt lat="4.6947980" lon="-74.3306330">
        <ele>2647.4</ele>
        <time>2018-08-10T16:27:26Z</time>
      </trkpt>
      <trkpt lat="4.6947450" lon="-74.3306200">
        <ele>2647.9</ele>
        <time>2018-08-10T16:27:28Z</time>
      </trkpt>
      <trkpt lat="4.6947180" lon="-74.3306120">
        <ele>2648.2</ele>
        <time>2018-08-10T16:27:29Z</time>
      </trkpt>
      <trkpt lat="4.6946670" lon="-74.3305930">
        <ele>2648.6</ele>
        <time>2018-08-10T16:27:31Z</time>
      </trkpt>
      <trkpt lat="4.6946400" lon="-74.3305830">
        <ele>2648.7</ele>
        <time>2018-08-10T16:27:32Z</time>
      </trkpt>
      <trkpt lat="4.6945920" lon="-74.3305670">
        <ele>2649.0</ele>
        <time>2018-08-10T16:27:34Z</time>
      </trkpt>
      <trkpt lat="4.6945450" lon="-74.3305470">
        <ele>2649.2</ele>
        <time>2018-08-10T16:27:36Z</time>
      </trkpt>
      <trkpt lat="4.6944950" lon="-74.3305220">
        <ele>2649.4</ele>
        <time>2018-08-10T16:27:38Z</time>
      </trkpt>
      <trkpt lat="4.6944470" lon="-74.3304920">
        <ele>2649.8</ele>
        <time>2018-08-10T16:27:40Z</time>
      </trkpt>
      <trkpt lat="4.6944180" lon="-74.3304720">
        <ele>2650.1</ele>
        <time>2018-08-10T16:27:41Z</time>
      </trkpt>
      <trkpt lat="4.6943920" lon="-74.3304570">
        <ele>2650.3</ele>
        <time>2018-08-10T16:27:42Z</time>
      </trkpt>
      <trkpt lat="4.6943700" lon="-74.3304400">
        <ele>2650.6</ele>
        <time>2018-08-10T16:27:43Z</time>
      </trkpt>
      <trkpt lat="4.6943380" lon="-74.3304120">
        <ele>2650.9</ele>
        <time>2018-08-10T16:27:45Z</time>
      </trkpt>
      <trkpt lat="4.6943050" lon="-74.3303850">
        <ele>2651.0</ele>
        <time>2018-08-10T16:27:47Z</time>
      </trkpt>
      <trkpt lat="4.6942720" lon="-74.3303580">
        <ele>2651.2</ele>
        <time>2018-08-10T16:27:49Z</time>
      </trkpt>
      <trkpt lat="4.6942380" lon="-74.3303380">
        <ele>2651.3</ele>
        <time>2018-08-10T16:27:51Z</time>
      </trkpt>
      <trkpt lat="4.6942020" lon="-74.3303170">
        <ele>2651.6</ele>
        <time>2018-08-10T16:27:53Z</time>
      </trkpt>
      <trkpt lat="4.6941600" lon="-74.3303070">
        <ele>2651.9</ele>
        <time>2018-08-10T16:27:55Z</time>
      </trkpt>
      <trkpt lat="4.6940920" lon="-74.3302900">
        <ele>2652.5</ele>
        <time>2018-08-10T16:27:57Z</time>
      </trkpt>
      <trkpt lat="4.6940620" lon="-74.3302870">
        <ele>2652.8</ele>
        <time>2018-08-10T16:27:58Z</time>
      </trkpt>
      <trkpt lat="4.6940150" lon="-74.3302730">
        <ele>2653.1</ele>
        <time>2018-08-10T16:28:00Z</time>
      </trkpt>
      <trkpt lat="4.6939730" lon="-74.3302470">
        <ele>2653.3</ele>
        <time>2018-08-10T16:28:02Z</time>
      </trkpt>
      <trkpt lat="4.6939350" lon="-74.3302230">
        <ele>2653.4</ele>
        <time>2018-08-10T16:28:04Z</time>
      </trkpt>
      <trkpt lat="4.6939100" lon="-74.3302120">
        <ele>2653.5</ele>
        <time>2018-08-10T16:28:05Z</time>
      </trkpt>
      <trkpt lat="4.6938570" lon="-74.3301930">
        <ele>2653.7</ele>
        <time>2018-08-10T16:28:07Z</time>
      </trkpt>
      <trkpt lat="4.6938300" lon="-74.3301830">
        <ele>2653.8</ele>
        <time>2018-08-10T16:28:08Z</time>
      </trkpt>
      <trkpt lat="4.6937870" lon="-74.3301650">
        <ele>2654.0</ele>
        <time>2018-08-10T16:28:10Z</time>
      </trkpt>
      <trkpt lat="4.6937450" lon="-74.3301400">
        <ele>2654.2</ele>
        <time>2018-08-10T16:28:12Z</time>
      </trkpt>
      <trkpt lat="4.6937030" lon="-74.3301200">
        <ele>2654.0</ele>
        <time>2018-08-10T16:28:14Z</time>
      </trkpt>
      <trkpt lat="4.6936650" lon="-74.3300950">
        <ele>2653.9</ele>
        <time>2018-08-10T16:28:16Z</time>
      </trkpt>
      <trkpt lat="4.6936320" lon="-74.3300680">
        <ele>2654.0</ele>
        <time>2018-08-10T16:28:18Z</time>
      </trkpt>
      <trkpt lat="4.6935920" lon="-74.3300580">
        <ele>2654.0</ele>
        <time>2018-08-10T16:28:20Z</time>
      </trkpt>
      <trkpt lat="4.6935650" lon="-74.3300450">
        <ele>2653.6</ele>
        <time>2018-08-10T16:28:21Z</time>
      </trkpt>
      <trkpt lat="4.6935380" lon="-74.3300330">
        <ele>2653.3</ele>
        <time>2018-08-10T16:28:22Z</time>
      </trkpt>
      <trkpt lat="4.6935170" lon="-74.3300130">
        <ele>2653.8</ele>
        <time>2018-08-10T16:28:23Z</time>
      </trkpt>
      <trkpt lat="4.6934720" lon="-74.3299780">
        <ele>2653.6</ele>
        <time>2018-08-10T16:28:25Z</time>
      </trkpt>
      <trkpt lat="4.6934280" lon="-74.3299400">
        <ele>2654.2</ele>
        <time>2018-08-10T16:28:26Z</time>
      </trkpt>
      <trkpt lat="4.6934020" lon="-74.3299250">
        <ele>2655.1</ele>
        <time>2018-08-10T16:28:27Z</time>
      </trkpt>
      <trkpt lat="4.6933670" lon="-74.3299080">
        <ele>2655.1</ele>
        <time>2018-08-10T16:28:28Z</time>
      </trkpt>
      <trkpt lat="4.6933350" lon="-74.3298970">
        <ele>2655.2</ele>
        <time>2018-08-10T16:28:29Z</time>
      </trkpt>
      <trkpt lat="4.6933030" lon="-74.3298820">
        <ele>2656.5</ele>
        <time>2018-08-10T16:28:30Z</time>
      </trkpt>
      <trkpt lat="4.6932780" lon="-74.3298620">
        <ele>2656.6</ele>
        <time>2018-08-10T16:28:31Z</time>
      </trkpt>
      <trkpt lat="4.6932450" lon="-74.3298470">
        <ele>2658.0</ele>
        <time>2018-08-10T16:28:32Z</time>
      </trkpt>
      <trkpt lat="4.6932120" lon="-74.3298320">
        <ele>2658.3</ele>
        <time>2018-08-10T16:28:33Z</time>
      </trkpt>
      <trkpt lat="4.6931850" lon="-74.3298180">
        <ele>2658.7</ele>
        <time>2018-08-10T16:28:34Z</time>
      </trkpt>
      <trkpt lat="4.6931570" lon="-74.3298050">
        <ele>2660.5</ele>
        <time>2018-08-10T16:28:35Z</time>
      </trkpt>
      <trkpt lat="4.6931270" lon="-74.3297900">
        <ele>2660.5</ele>
        <time>2018-08-10T16:28:36Z</time>
      </trkpt>
      <trkpt lat="4.6930980" lon="-74.3297770">
        <ele>2661.1</ele>
        <time>2018-08-10T16:28:37Z</time>
      </trkpt>
      <trkpt lat="4.6930720" lon="-74.3297570">
        <ele>2662.3</ele>
        <time>2018-08-10T16:28:38Z</time>
      </trkpt>
      <trkpt lat="4.6930470" lon="-74.3297350">
        <ele>2662.3</ele>
        <time>2018-08-10T16:28:39Z</time>
      </trkpt>
      <trkpt lat="4.6930180" lon="-74.3297170">
        <ele>2663.2</ele>
        <time>2018-08-10T16:28:40Z</time>
      </trkpt>
      <trkpt lat="4.6929880" lon="-74.3297100">
        <ele>2663.2</ele>
        <time>2018-08-10T16:28:41Z</time>
      </trkpt>
      <trkpt lat="4.6929480" lon="-74.3296930">
        <ele>2663.2</ele>
        <time>2018-08-10T16:28:42Z</time>
      </trkpt>
      <trkpt lat="4.6929080" lon="-74.3296680">
        <ele>2663.7</ele>
        <time>2018-08-10T16:28:43Z</time>
      </trkpt>
      <trkpt lat="4.6928750" lon="-74.3296450">
        <ele>2663.5</ele>
        <time>2018-08-10T16:28:44Z</time>
      </trkpt>
      <trkpt lat="4.6928320" lon="-74.3296280">
        <ele>2663.8</ele>
        <time>2018-08-10T16:28:45Z</time>
      </trkpt>
      <trkpt lat="4.6927770" lon="-74.3296050">
        <ele>2663.5</ele>
        <time>2018-08-10T16:28:46Z</time>
      </trkpt>
      <trkpt lat="4.6927350" lon="-74.3295800">
        <ele>2663.5</ele>
        <time>2018-08-10T16:28:47Z</time>
      </trkpt>
      <trkpt lat="4.6926930" lon="-74.3295570">
        <ele>2663.1</ele>
        <time>2018-08-10T16:28:48Z</time>
      </trkpt>
      <trkpt lat="4.6926520" lon="-74.3295350">
        <ele>2663.1</ele>
        <time>2018-08-10T16:28:49Z</time>
      </trkpt>
      <trkpt lat="4.6926120" lon="-74.3295070">
        <ele>2662.8</ele>
        <time>2018-08-10T16:28:50Z</time>
      </trkpt>
      <trkpt lat="4.6925770" lon="-74.3294700">
        <ele>2662.5</ele>
        <time>2018-08-10T16:28:51Z</time>
      </trkpt>
      <trkpt lat="4.6925420" lon="-74.3294350">
        <ele>2662.2</ele>
        <time>2018-08-10T16:28:52Z</time>
      </trkpt>
      <trkpt lat="4.6925030" lon="-74.3294100">
        <ele>2662.4</ele>
        <time>2018-08-10T16:28:53Z</time>
      </trkpt>
      <trkpt lat="4.6924670" lon="-74.3293880">
        <ele>2662.5</ele>
        <time>2018-08-10T16:28:54Z</time>
      </trkpt>
      <trkpt lat="4.6924230" lon="-74.3293700">
        <ele>2663.5</ele>
        <time>2018-08-10T16:28:55Z</time>
      </trkpt>
      <trkpt lat="4.6923850" lon="-74.3293450">
        <ele>2664.2</ele>
        <time>2018-08-10T16:28:56Z</time>
      </trkpt>
      <trkpt lat="4.6923550" lon="-74.3293150">
        <ele>2664.9</ele>
        <time>2018-08-10T16:28:57Z</time>
      </trkpt>
      <trkpt lat="4.6923230" lon="-74.3292880">
        <ele>2666.2</ele>
        <time>2018-08-10T16:28:58Z</time>
      </trkpt>
      <trkpt lat="4.6922920" lon="-74.3292630">
        <ele>2666.8</ele>
        <time>2018-08-10T16:28:59Z</time>
      </trkpt>
      <trkpt lat="4.6922480" lon="-74.3292430">
        <ele>2667.4</ele>
        <time>2018-08-10T16:29:00Z</time>
      </trkpt>
      <trkpt lat="4.6921930" lon="-74.3292280">
        <ele>2667.9</ele>
        <time>2018-08-10T16:29:01Z</time>
      </trkpt>
      <trkpt lat="4.6921550" lon="-74.3292120">
        <ele>2668.5</ele>
        <time>2018-08-10T16:29:02Z</time>
      </trkpt>
      <trkpt lat="4.6921130" lon="-74.3291850">
        <ele>2668.5</ele>
        <time>2018-08-10T16:29:03Z</time>
      </trkpt>
      <trkpt lat="4.6920770" lon="-74.3291520">
        <ele>2668.5</ele>
        <time>2018-08-10T16:29:04Z</time>
      </trkpt>
      <trkpt lat="4.6920350" lon="-74.3291170">
        <ele>2668.7</ele>
        <time>2018-08-10T16:29:05Z</time>
      </trkpt>
      <trkpt lat="4.6920000" lon="-74.3290900">
        <ele>2669.2</ele>
        <time>2018-08-10T16:29:06Z</time>
      </trkpt>
      <trkpt lat="4.6919670" lon="-74.3290520">
        <ele>2669.3</ele>
        <time>2018-08-10T16:29:07Z</time>
      </trkpt>
      <trkpt lat="4.6919330" lon="-74.3290100">
        <ele>2670.3</ele>
        <time>2018-08-10T16:29:08Z</time>
      </trkpt>
      <trkpt lat="4.6919020" lon="-74.3289720">
        <ele>2671.3</ele>
        <time>2018-08-10T16:29:09Z</time>
      </trkpt>
      <trkpt lat="4.6918700" lon="-74.3289430">
        <ele>2672.1</ele>
        <time>2018-08-10T16:29:10Z</time>
      </trkpt>
      <trkpt lat="4.6918400" lon="-74.3289100">
        <ele>2672.1</ele>
        <time>2018-08-10T16:29:11Z</time>
      </trkpt>
      <trkpt lat="4.6918070" lon="-74.3288780">
        <ele>2672.7</ele>
        <time>2018-08-10T16:29:12Z</time>
      </trkpt>
      <trkpt lat="4.6917730" lon="-74.3288500">
        <ele>2673.2</ele>
        <time>2018-08-10T16:29:13Z</time>
      </trkpt>
      <trkpt lat="4.6917450" lon="-74.3288230">
        <ele>2673.9</ele>
        <time>2018-08-10T16:29:14Z</time>
      </trkpt>
      <trkpt lat="4.6917200" lon="-74.3287800">
        <ele>2673.9</ele>
        <time>2018-08-10T16:29:15Z</time>
      </trkpt>
      <trkpt lat="4.6916930" lon="-74.3287420">
        <ele>2674.6</ele>
        <time>2018-08-10T16:29:16Z</time>
      </trkpt>
      <trkpt lat="4.6916620" lon="-74.3287120">
        <ele>2674.8</ele>
        <time>2018-08-10T16:29:17Z</time>
      </trkpt>
      <trkpt lat="4.6916350" lon="-74.3286800">
        <ele>2675.4</ele>
        <time>2018-08-10T16:29:18Z</time>
      </trkpt>
      <trkpt lat="4.6916080" lon="-74.3286500">
        <ele>2675.4</ele>
        <time>2018-08-10T16:29:19Z</time>
      </trkpt>
      <trkpt lat="4.6915820" lon="-74.3286250">
        <ele>2675.6</ele>
        <time>2018-08-10T16:29:20Z</time>
      </trkpt>
      <trkpt lat="4.6915500" lon="-74.3286070">
        <ele>2675.5</ele>
        <time>2018-08-10T16:29:21Z</time>
      </trkpt>
      <trkpt lat="4.6915250" lon="-74.3285850">
        <ele>2675.3</ele>
        <time>2018-08-10T16:29:22Z</time>
      </trkpt>
      <trkpt lat="4.6914980" lon="-74.3285600">
        <ele>2675.5</ele>
        <time>2018-08-10T16:29:23Z</time>
      </trkpt>
      <trkpt lat="4.6914720" lon="-74.3285300">
        <ele>2675.1</ele>
        <time>2018-08-10T16:29:24Z</time>
      </trkpt>
      <trkpt lat="4.6914500" lon="-74.3285020">
        <ele>2675.4</ele>
        <time>2018-08-10T16:29:25Z</time>
      </trkpt>
      <trkpt lat="4.6914200" lon="-74.3284750">
        <ele>2675.1</ele>
        <time>2018-08-10T16:29:26Z</time>
      </trkpt>
      <trkpt lat="4.6913920" lon="-74.3284450">
        <ele>2675.2</ele>
        <time>2018-08-10T16:29:27Z</time>
      </trkpt>
      <trkpt lat="4.6913470" lon="-74.3284150">
        <ele>2675.7</ele>
        <time>2018-08-10T16:29:28Z</time>
      </trkpt>
      <trkpt lat="4.6913170" lon="-74.3283900">
        <ele>2676.0</ele>
        <time>2018-08-10T16:29:29Z</time>
      </trkpt>
      <trkpt lat="4.6912920" lon="-74.3283670">
        <ele>2676.7</ele>
        <time>2018-08-10T16:29:30Z</time>
      </trkpt>
      <trkpt lat="4.6912620" lon="-74.3283420">
        <ele>2677.5</ele>
        <time>2018-08-10T16:29:31Z</time>
      </trkpt>
      <trkpt lat="4.6912280" lon="-74.3283100">
        <ele>2677.8</ele>
        <time>2018-08-10T16:29:32Z</time>
      </trkpt>
      <trkpt lat="4.6912000" lon="-74.3282900">
        <ele>2678.3</ele>
        <time>2018-08-10T16:29:33Z</time>
      </trkpt>
      <trkpt lat="4.6911750" lon="-74.3282620">
        <ele>2678.6</ele>
        <time>2018-08-10T16:29:34Z</time>
      </trkpt>
      <trkpt lat="4.6911450" lon="-74.3282420">
        <ele>2679.3</ele>
        <time>2018-08-10T16:29:35Z</time>
      </trkpt>
      <trkpt lat="4.6911080" lon="-74.3282220">
        <ele>2679.4</ele>
        <time>2018-08-10T16:29:36Z</time>
      </trkpt>
      <trkpt lat="4.6910650" lon="-74.3281830">
        <ele>2680.2</ele>
        <time>2018-08-10T16:29:37Z</time>
      </trkpt>
      <trkpt lat="4.6910030" lon="-74.3281850">
        <ele>2681.2</ele>
        <time>2018-08-10T16:29:38Z</time>
      </trkpt>
      <trkpt lat="4.6909670" lon="-74.3281570">
        <ele>2682.1</ele>
        <time>2018-08-10T16:29:39Z</time>
      </trkpt>
      <trkpt lat="4.6909350" lon="-74.3281450">
        <ele>2682.1</ele>
        <time>2018-08-10T16:29:40Z</time>
      </trkpt>
      <trkpt lat="4.6909050" lon="-74.3281250">
        <ele>2683.0</ele>
        <time>2018-08-10T16:29:41Z</time>
      </trkpt>
      <trkpt lat="4.6908770" lon="-74.3281070">
        <ele>2683.6</ele>
        <time>2018-08-10T16:29:42Z</time>
      </trkpt>
      <trkpt lat="4.6908550" lon="-74.3280850">
        <ele>2683.9</ele>
        <time>2018-08-10T16:29:43Z</time>
      </trkpt>
      <trkpt lat="4.6908320" lon="-74.3280500">
        <ele>2684.5</ele>
        <time>2018-08-10T16:29:44Z</time>
      </trkpt>
      <trkpt lat="4.6908120" lon="-74.3280180">
        <ele>2685.0</ele>
        <time>2018-08-10T16:29:45Z</time>
      </trkpt>
      <trkpt lat="4.6907870" lon="-74.3279880">
        <ele>2685.9</ele>
        <time>2018-08-10T16:29:46Z</time>
      </trkpt>
      <trkpt lat="4.6907630" lon="-74.3279650">
        <ele>2686.0</ele>
        <time>2018-08-10T16:29:47Z</time>
      </trkpt>
      <trkpt lat="4.6907370" lon="-74.3279430">
        <ele>2687.1</ele>
        <time>2018-08-10T16:29:48Z</time>
      </trkpt>
      <trkpt lat="4.6907080" lon="-74.3279230">
        <ele>2687.4</ele>
        <time>2018-08-10T16:29:49Z</time>
      </trkpt>
      <trkpt lat="4.6906780" lon="-74.3279020">
        <ele>2688.1</ele>
        <time>2018-08-10T16:29:50Z</time>
      </trkpt>
      <trkpt lat="4.6906480" lon="-74.3278820">
        <ele>2688.3</ele>
        <time>2018-08-10T16:29:51Z</time>
      </trkpt>
      <trkpt lat="4.6906180" lon="-74.3278570">
        <ele>2688.7</ele>
        <time>2018-08-10T16:29:52Z</time>
      </trkpt>
      <trkpt lat="4.6905930" lon="-74.3278370">
        <ele>2688.8</ele>
        <time>2018-08-10T16:29:53Z</time>
      </trkpt>
      <trkpt lat="4.6905650" lon="-74.3278180">
        <ele>2689.0</ele>
        <time>2018-08-10T16:29:54Z</time>
      </trkpt>
      <trkpt lat="4.6905370" lon="-74.3278100">
        <ele>2688.5</ele>
        <time>2018-08-10T16:29:55Z</time>
      </trkpt>
      <trkpt lat="4.6904870" lon="-74.3277900">
        <ele>2688.0</ele>
        <time>2018-08-10T16:29:57Z</time>
      </trkpt>
      <trkpt lat="4.6904580" lon="-74.3277750">
        <ele>2687.8</ele>
        <time>2018-08-10T16:29:58Z</time>
      </trkpt>
      <trkpt lat="4.6904230" lon="-74.3277570">
        <ele>2687.9</ele>
        <time>2018-08-10T16:29:59Z</time>
      </trkpt>
      <trkpt lat="4.6903830" lon="-74.3277150">
        <ele>2687.9</ele>
        <time>2018-08-10T16:30:00Z</time>
      </trkpt>
      <trkpt lat="4.6903420" lon="-74.3276720">
        <ele>2688.4</ele>
        <time>2018-08-10T16:30:01Z</time>
      </trkpt>
      <trkpt lat="4.6903120" lon="-74.3276470">
        <ele>2689.2</ele>
        <time>2018-08-10T16:30:02Z</time>
      </trkpt>
      <trkpt lat="4.6902820" lon="-74.3276250">
        <ele>2689.1</ele>
        <time>2018-08-10T16:30:03Z</time>
      </trkpt>
      <trkpt lat="4.6902580" lon="-74.3276070">
        <ele>2690.2</ele>
        <time>2018-08-10T16:30:04Z</time>
      </trkpt>
      <trkpt lat="4.6902300" lon="-74.3275870">
        <ele>2690.2</ele>
        <time>2018-08-10T16:30:05Z</time>
      </trkpt>
      <trkpt lat="4.6902020" lon="-74.3275700">
        <ele>2691.0</ele>
        <time>2018-08-10T16:30:06Z</time>
      </trkpt>
      <trkpt lat="4.6901730" lon="-74.3275500">
        <ele>2691.1</ele>
        <time>2018-08-10T16:30:07Z</time>
      </trkpt>
      <trkpt lat="4.6901450" lon="-74.3275300">
        <ele>2691.8</ele>
        <time>2018-08-10T16:30:08Z</time>
      </trkpt>
      <trkpt lat="4.6901170" lon="-74.3275070">
        <ele>2692.1</ele>
        <time>2018-08-10T16:30:09Z</time>
      </trkpt>
      <trkpt lat="4.6900920" lon="-74.3274870">
        <ele>2692.6</ele>
        <time>2018-08-10T16:30:10Z</time>
      </trkpt>
      <trkpt lat="4.6900670" lon="-74.3274720">
        <ele>2693.1</ele>
        <time>2018-08-10T16:30:11Z</time>
      </trkpt>
      <trkpt lat="4.6900420" lon="-74.3274550">
        <ele>2693.2</ele>
        <time>2018-08-10T16:30:12Z</time>
      </trkpt>
      <trkpt lat="4.6900130" lon="-74.3274400">
        <ele>2694.2</ele>
        <time>2018-08-10T16:30:13Z</time>
      </trkpt>
      <trkpt lat="4.6899920" lon="-74.3274220">
        <ele>2694.9</ele>
        <time>2018-08-10T16:30:14Z</time>
      </trkpt>
      <trkpt lat="4.6899720" lon="-74.3274030">
        <ele>2695.0</ele>
        <time>2018-08-10T16:30:15Z</time>
      </trkpt>
      <trkpt lat="4.6899450" lon="-74.3273800">
        <ele>2695.9</ele>
        <time>2018-08-10T16:30:16Z</time>
      </trkpt>
      <trkpt lat="4.6899230" lon="-74.3273580">
        <ele>2696.2</ele>
        <time>2018-08-10T16:30:17Z</time>
      </trkpt>
      <trkpt lat="4.6898980" lon="-74.3273370">
        <ele>2696.8</ele>
        <time>2018-08-10T16:30:18Z</time>
      </trkpt>
      <trkpt lat="4.6898780" lon="-74.3273130">
        <ele>2697.0</ele>
        <time>2018-08-10T16:30:19Z</time>
      </trkpt>
      <trkpt lat="4.6898570" lon="-74.3272920">
        <ele>2697.5</ele>
        <time>2018-08-10T16:30:20Z</time>
      </trkpt>
      <trkpt lat="4.6898370" lon="-74.3272620">
        <ele>2697.6</ele>
        <time>2018-08-10T16:30:21Z</time>
      </trkpt>
      <trkpt lat="4.6898130" lon="-74.3272330">
        <ele>2697.9</ele>
        <time>2018-08-10T16:30:22Z</time>
      </trkpt>
      <trkpt lat="4.6897880" lon="-74.3272070">
        <ele>2698.0</ele>
        <time>2018-08-10T16:30:23Z</time>
      </trkpt>
      <trkpt lat="4.6897630" lon="-74.3271820">
        <ele>2698.1</ele>
        <time>2018-08-10T16:30:24Z</time>
      </trkpt>
      <trkpt lat="4.6897380" lon="-74.3271570">
        <ele>2698.1</ele>
        <time>2018-08-10T16:30:25Z</time>
      </trkpt>
      <trkpt lat="4.6897150" lon="-74.3271320">
        <ele>2697.9</ele>
        <time>2018-08-10T16:30:26Z</time>
      </trkpt>
      <trkpt lat="4.6896900" lon="-74.3271170">
        <ele>2697.5</ele>
        <time>2018-08-10T16:30:27Z</time>
      </trkpt>
      <trkpt lat="4.6896600" lon="-74.3271050">
        <ele>2697.6</ele>
        <time>2018-08-10T16:30:28Z</time>
      </trkpt>
      <trkpt lat="4.6896320" lon="-74.3270820">
        <ele>2696.9</ele>
        <time>2018-08-10T16:30:29Z</time>
      </trkpt>
      <trkpt lat="4.6896000" lon="-74.3270570">
        <ele>2696.0</ele>
        <time>2018-08-10T16:30:30Z</time>
      </trkpt>
      <trkpt lat="4.6895730" lon="-74.3270320">
        <ele>2696.1</ele>
        <time>2018-08-10T16:30:31Z</time>
      </trkpt>
      <trkpt lat="4.6895530" lon="-74.3270080">
        <ele>2695.1</ele>
        <time>2018-08-10T16:30:32Z</time>
      </trkpt>
      <trkpt lat="4.6895300" lon="-74.3269850">
        <ele>2695.2</ele>
        <time>2018-08-10T16:30:33Z</time>
      </trkpt>
      <trkpt lat="4.6895070" lon="-74.3269570">
        <ele>2694.2</ele>
        <time>2018-08-10T16:30:34Z</time>
      </trkpt>
      <trkpt lat="4.6894820" lon="-74.3269330">
        <ele>2694.2</ele>
        <time>2018-08-10T16:30:35Z</time>
      </trkpt>
      <trkpt lat="4.6894620" lon="-74.3269050">
        <ele>2693.3</ele>
        <time>2018-08-10T16:30:36Z</time>
      </trkpt>
      <trkpt lat="4.6894380" lon="-74.3268780">
        <ele>2693.0</ele>
        <time>2018-08-10T16:30:37Z</time>
      </trkpt>
      <trkpt lat="4.6894130" lon="-74.3268570">
        <ele>2692.7</ele>
        <time>2018-08-10T16:30:38Z</time>
      </trkpt>
      <trkpt lat="4.6893830" lon="-74.3268300">
        <ele>2691.9</ele>
        <time>2018-08-10T16:30:39Z</time>
      </trkpt>
      <trkpt lat="4.6893530" lon="-74.3268020">
        <ele>2692.0</ele>
        <time>2018-08-10T16:30:40Z</time>
      </trkpt>
      <trkpt lat="4.6893230" lon="-74.3267720">
        <ele>2691.2</ele>
        <time>2018-08-10T16:30:41Z</time>
      </trkpt>
      <trkpt lat="4.6892950" lon="-74.3267370">
        <ele>2690.5</ele>
        <time>2018-08-10T16:30:42Z</time>
      </trkpt>
      <trkpt lat="4.6892670" lon="-74.3267020">
        <ele>2690.4</ele>
        <time>2018-08-10T16:30:43Z</time>
      </trkpt>
      <trkpt lat="4.6892420" lon="-74.3266730">
        <ele>2690.3</ele>
        <time>2018-08-10T16:30:44Z</time>
      </trkpt>
      <trkpt lat="4.6892130" lon="-74.3266400">
        <ele>2690.4</ele>
        <time>2018-08-10T16:30:45Z</time>
      </trkpt>
      <trkpt lat="4.6891770" lon="-74.3266020">
        <ele>2690.6</ele>
        <time>2018-08-10T16:30:46Z</time>
      </trkpt>
      <trkpt lat="4.6891430" lon="-74.3265670">
        <ele>2690.6</ele>
        <time>2018-08-10T16:30:47Z</time>
      </trkpt>
      <trkpt lat="4.6891170" lon="-74.3265350">
        <ele>2690.5</ele>
        <time>2018-08-10T16:30:48Z</time>
      </trkpt>
      <trkpt lat="4.6890870" lon="-74.3265050">
        <ele>2690.6</ele>
        <time>2018-08-10T16:30:49Z</time>
      </trkpt>
      <trkpt lat="4.6890480" lon="-74.3264720">
        <ele>2690.4</ele>
        <time>2018-08-10T16:30:50Z</time>
      </trkpt>
      <trkpt lat="4.6890180" lon="-74.3264430">
        <ele>2689.8</ele>
        <time>2018-08-10T16:30:51Z</time>
      </trkpt>
      <trkpt lat="4.6889920" lon="-74.3264120">
        <ele>2689.1</ele>
        <time>2018-08-10T16:30:52Z</time>
      </trkpt>
      <trkpt lat="4.6889730" lon="-74.3263820">
        <ele>2689.2</ele>
        <time>2018-08-10T16:30:53Z</time>
      </trkpt>
      <trkpt lat="4.6889550" lon="-74.3263580">
        <ele>2688.7</ele>
        <time>2018-08-10T16:30:54Z</time>
      </trkpt>
      <trkpt lat="4.6889320" lon="-74.3263220">
        <ele>2688.6</ele>
        <time>2018-08-10T16:30:55Z</time>
      </trkpt>
      <trkpt lat="4.6889080" lon="-74.3262850">
        <ele>2688.9</ele>
        <time>2018-08-10T16:30:56Z</time>
      </trkpt>
      <trkpt lat="4.6888850" lon="-74.3262570">
        <ele>2689.0</ele>
        <time>2018-08-10T16:30:57Z</time>
      </trkpt>
      <trkpt lat="4.6888580" lon="-74.3262230">
        <ele>2689.4</ele>
        <time>2018-08-10T16:30:58Z</time>
      </trkpt>
      <trkpt lat="4.6888330" lon="-74.3261950">
        <ele>2689.7</ele>
        <time>2018-08-10T16:30:59Z</time>
      </trkpt>
      <trkpt lat="4.6888130" lon="-74.3261630">
        <ele>2689.7</ele>
        <time>2018-08-10T16:31:00Z</time>
      </trkpt>
      <trkpt lat="4.6887830" lon="-74.3261150">
        <ele>2689.4</ele>
        <time>2018-08-10T16:31:01Z</time>
      </trkpt>
      <trkpt lat="4.6887600" lon="-74.3260770">
        <ele>2688.8</ele>
        <time>2018-08-10T16:31:02Z</time>
      </trkpt>
      <trkpt lat="4.6887430" lon="-74.3260520">
        <ele>2688.0</ele>
        <time>2018-08-10T16:31:03Z</time>
      </trkpt>
      <trkpt lat="4.6887320" lon="-74.3260220">
        <ele>2687.3</ele>
        <time>2018-08-10T16:31:04Z</time>
      </trkpt>
      <trkpt lat="4.6886980" lon="-74.3259800">
        <ele>2686.3</ele>
        <time>2018-08-10T16:31:06Z</time>
      </trkpt>
      <trkpt lat="4.6886750" lon="-74.3259570">
        <ele>2686.4</ele>
        <time>2018-08-10T16:31:07Z</time>
      </trkpt>
      <trkpt lat="4.6886470" lon="-74.3259270">
        <ele>2685.6</ele>
        <time>2018-08-10T16:31:08Z</time>
      </trkpt>
      <trkpt lat="4.6886220" lon="-74.3259020">
        <ele>2685.7</ele>
        <time>2018-08-10T16:31:09Z</time>
      </trkpt>
      <trkpt lat="4.6885970" lon="-74.3258700">
        <ele>2685.2</ele>
        <time>2018-08-10T16:31:10Z</time>
      </trkpt>
      <trkpt lat="4.6885750" lon="-74.3258370">
        <ele>2684.9</ele>
        <time>2018-08-10T16:31:11Z</time>
      </trkpt>
      <trkpt lat="4.6885520" lon="-74.3258100">
        <ele>2684.6</ele>
        <time>2018-08-10T16:31:12Z</time>
      </trkpt>
      <trkpt lat="4.6885300" lon="-74.3257820">
        <ele>2684.8</ele>
        <time>2018-08-10T16:31:13Z</time>
      </trkpt>
      <trkpt lat="4.6885050" lon="-74.3257470">
        <ele>2684.4</ele>
        <time>2018-08-10T16:31:14Z</time>
      </trkpt>
      <trkpt lat="4.6884770" lon="-74.3257050">
        <ele>2684.2</ele>
        <time>2018-08-10T16:31:15Z</time>
      </trkpt>
      <trkpt lat="4.6884520" lon="-74.3256770">
        <ele>2684.0</ele>
        <time>2018-08-10T16:31:16Z</time>
      </trkpt>
      <trkpt lat="4.6884230" lon="-74.3256520">
        <ele>2684.1</ele>
        <time>2018-08-10T16:31:17Z</time>
      </trkpt>
      <trkpt lat="4.6883950" lon="-74.3256220">
        <ele>2683.8</ele>
        <time>2018-08-10T16:31:18Z</time>
      </trkpt>
      <trkpt lat="4.6883700" lon="-74.3255880">
        <ele>2683.2</ele>
        <time>2018-08-10T16:31:19Z</time>
      </trkpt>
      <trkpt lat="4.6883470" lon="-74.3255630">
        <ele>2683.2</ele>
        <time>2018-08-10T16:31:20Z</time>
      </trkpt>
      <trkpt lat="4.6883230" lon="-74.3255350">
        <ele>2682.3</ele>
        <time>2018-08-10T16:31:21Z</time>
      </trkpt>
      <trkpt lat="4.6883020" lon="-74.3255030">
        <ele>2681.4</ele>
        <time>2018-08-10T16:31:22Z</time>
      </trkpt>
      <trkpt lat="4.6882820" lon="-74.3254700">
        <ele>2680.6</ele>
        <time>2018-08-10T16:31:23Z</time>
      </trkpt>
      <trkpt lat="4.6882650" lon="-74.3254350">
        <ele>2680.4</ele>
        <time>2018-08-10T16:31:24Z</time>
      </trkpt>
      <trkpt lat="4.6882450" lon="-74.3254000">
        <ele>2679.5</ele>
        <time>2018-08-10T16:31:25Z</time>
      </trkpt>
      <trkpt lat="4.6882220" lon="-74.3253700">
        <ele>2678.4</ele>
        <time>2018-08-10T16:31:26Z</time>
      </trkpt>
      <trkpt lat="4.6881930" lon="-74.3253380">
        <ele>2677.2</ele>
        <time>2018-08-10T16:31:27Z</time>
      </trkpt>
      <trkpt lat="4.6881650" lon="-74.3253050">
        <ele>2677.3</ele>
        <time>2018-08-10T16:31:28Z</time>
      </trkpt>
      <trkpt lat="4.6881370" lon="-74.3252670">
        <ele>2676.0</ele>
        <time>2018-08-10T16:31:29Z</time>
      </trkpt>
      <trkpt lat="4.6881050" lon="-74.3252320">
        <ele>2674.7</ele>
        <time>2018-08-10T16:31:30Z</time>
      </trkpt>
      <trkpt lat="4.6880750" lon="-74.3251900">
        <ele>2674.0</ele>
        <time>2018-08-10T16:31:31Z</time>
      </trkpt>
      <trkpt lat="4.6880470" lon="-74.3251420">
        <ele>2673.2</ele>
        <time>2018-08-10T16:31:32Z</time>
      </trkpt>
      <trkpt lat="4.6880280" lon="-74.3250950">
        <ele>2672.8</ele>
        <time>2018-08-10T16:31:33Z</time>
      </trkpt>
      <trkpt lat="4.6879950" lon="-74.3250550">
        <ele>2672.4</ele>
        <time>2018-08-10T16:31:34Z</time>
      </trkpt>
      <trkpt lat="4.6879650" lon="-74.3250130">
        <ele>2671.9</ele>
        <time>2018-08-10T16:31:35Z</time>
      </trkpt>
      <trkpt lat="4.6879380" lon="-74.3249730">
        <ele>2671.5</ele>
        <time>2018-08-10T16:31:36Z</time>
      </trkpt>
      <trkpt lat="4.6879120" lon="-74.3249350">
        <ele>2671.1</ele>
        <time>2018-08-10T16:31:37Z</time>
      </trkpt>
      <trkpt lat="4.6878880" lon="-74.3248950">
        <ele>2670.6</ele>
        <time>2018-08-10T16:31:38Z</time>
      </trkpt>
      <trkpt lat="4.6878630" lon="-74.3248600">
        <ele>2670.2</ele>
        <time>2018-08-10T16:31:39Z</time>
      </trkpt>
      <trkpt lat="4.6878420" lon="-74.3248230">
        <ele>2669.8</ele>
        <time>2018-08-10T16:31:40Z</time>
      </trkpt>
      <trkpt lat="4.6878170" lon="-74.3247900">
        <ele>2669.5</ele>
        <time>2018-08-10T16:31:41Z</time>
      </trkpt>
      <trkpt lat="4.6877900" lon="-74.3247580">
        <ele>2669.1</ele>
        <time>2018-08-10T16:31:42Z</time>
      </trkpt>
      <trkpt lat="4.6877620" lon="-74.3247230">
        <ele>2668.7</ele>
        <time>2018-08-10T16:31:43Z</time>
      </trkpt>
      <trkpt lat="4.6877330" lon="-74.3246920">
        <ele>2668.3</ele>
        <time>2018-08-10T16:31:44Z</time>
      </trkpt>
      <trkpt lat="4.6877030" lon="-74.3246580">
        <ele>2667.9</ele>
        <time>2018-08-10T16:31:45Z</time>
      </trkpt>
      <trkpt lat="4.6876700" lon="-74.3246270">
        <ele>2667.5</ele>
        <time>2018-08-10T16:31:46Z</time>
      </trkpt>
      <trkpt lat="4.6876320" lon="-74.3245950">
        <ele>2667.1</ele>
        <time>2018-08-10T16:31:47Z</time>
      </trkpt>
      <trkpt lat="4.6875970" lon="-74.3245620">
        <ele>2666.6</ele>
        <time>2018-08-10T16:31:48Z</time>
      </trkpt>
      <trkpt lat="4.6875650" lon="-74.3245270">
        <ele>2666.2</ele>
        <time>2018-08-10T16:31:49Z</time>
      </trkpt>
      <trkpt lat="4.6875270" lon="-74.3244980">
        <ele>2665.8</ele>
        <time>2018-08-10T16:31:50Z</time>
      </trkpt>
      <trkpt lat="4.6874970" lon="-74.3244680">
        <ele>2665.4</ele>
        <time>2018-08-10T16:31:51Z</time>
      </trkpt>
      <trkpt lat="4.6874630" lon="-74.3244380">
        <ele>2665.0</ele>
        <time>2018-08-10T16:31:52Z</time>
      </trkpt>
      <trkpt lat="4.6874330" lon="-74.3244120">
        <ele>2664.6</ele>
        <time>2018-08-10T16:31:53Z</time>
      </trkpt>
      <trkpt lat="4.6874050" lon="-74.3243870">
        <ele>2664.3</ele>
        <time>2018-08-10T16:31:54Z</time>
      </trkpt>
      <trkpt lat="4.6873730" lon="-74.3243600">
        <ele>2663.9</ele>
        <time>2018-08-10T16:31:55Z</time>
      </trkpt>
      <trkpt lat="4.6873420" lon="-74.3243300">
        <ele>2663.6</ele>
        <time>2018-08-10T16:31:56Z</time>
      </trkpt>
      <trkpt lat="4.6873130" lon="-74.3242900">
        <ele>2663.1</ele>
        <time>2018-08-10T16:31:57Z</time>
      </trkpt>
      <trkpt lat="4.6872820" lon="-74.3242570">
        <ele>2662.7</ele>
        <time>2018-08-10T16:31:58Z</time>
      </trkpt>
      <trkpt lat="4.6872520" lon="-74.3242270">
        <ele>2662.4</ele>
        <time>2018-08-10T16:31:59Z</time>
      </trkpt>
      <trkpt lat="4.6872200" lon="-74.3241930">
        <ele>2662.0</ele>
        <time>2018-08-10T16:32:00Z</time>
      </trkpt>
      <trkpt lat="4.6871920" lon="-74.3241570">
        <ele>2661.6</ele>
        <time>2018-08-10T16:32:01Z</time>
      </trkpt>
      <trkpt lat="4.6871650" lon="-74.3241180">
        <ele>2661.1</ele>
        <time>2018-08-10T16:32:02Z</time>
      </trkpt>
      <trkpt lat="4.6871380" lon="-74.3240850">
        <ele>2660.8</ele>
        <time>2018-08-10T16:32:03Z</time>
      </trkpt>
      <trkpt lat="4.6871130" lon="-74.3240580">
        <ele>2660.5</ele>
        <time>2018-08-10T16:32:04Z</time>
      </trkpt>
      <trkpt lat="4.6870770" lon="-74.3240230">
        <ele>2660.0</ele>
        <time>2018-08-10T16:32:05Z</time>
      </trkpt>
      <trkpt lat="4.6870370" lon="-74.3239750">
        <ele>2659.5</ele>
        <time>2018-08-10T16:32:06Z</time>
      </trkpt>
      <trkpt lat="4.6870050" lon="-74.3239300">
        <ele>2659.0</ele>
        <time>2018-08-10T16:32:07Z</time>
      </trkpt>
      <trkpt lat="4.6869720" lon="-74.3238770">
        <ele>2658.5</ele>
        <time>2018-08-10T16:32:08Z</time>
      </trkpt>
      <trkpt lat="4.6869470" lon="-74.3238330">
        <ele>2658.1</ele>
        <time>2018-08-10T16:32:09Z</time>
      </trkpt>
      <trkpt lat="4.6869280" lon="-74.3237930">
        <ele>2657.8</ele>
        <time>2018-08-10T16:32:10Z</time>
      </trkpt>
      <trkpt lat="4.6869120" lon="-74.3237580">
        <ele>2657.4</ele>
        <time>2018-08-10T16:32:11Z</time>
      </trkpt>
      <trkpt lat="4.6868980" lon="-74.3237200">
        <ele>2657.1</ele>
        <time>2018-08-10T16:32:12Z</time>
      </trkpt>
      <trkpt lat="4.6868720" lon="-74.3236880">
        <ele>2656.8</ele>
        <time>2018-08-10T16:32:13Z</time>
      </trkpt>
      <trkpt lat="4.6868480" lon="-74.3236570">
        <ele>2656.5</ele>
        <time>2018-08-10T16:32:14Z</time>
      </trkpt>
      <trkpt lat="4.6868230" lon="-74.3236170">
        <ele>2656.1</ele>
        <time>2018-08-10T16:32:15Z</time>
      </trkpt>
      <trkpt lat="4.6868030" lon="-74.3235750">
        <ele>2655.7</ele>
        <time>2018-08-10T16:32:16Z</time>
      </trkpt>
      <trkpt lat="4.6867870" lon="-74.3235350">
        <ele>2655.4</ele>
        <time>2018-08-10T16:32:17Z</time>
      </trkpt>
      <trkpt lat="4.6867700" lon="-74.3234980">
        <ele>2655.1</ele>
        <time>2018-08-10T16:32:18Z</time>
      </trkpt>
      <trkpt lat="4.6867530" lon="-74.3234630">
        <ele>2654.8</ele>
        <time>2018-08-10T16:32:19Z</time>
      </trkpt>
      <trkpt lat="4.6867370" lon="-74.3234250">
        <ele>2654.5</ele>
        <time>2018-08-10T16:32:20Z</time>
      </trkpt>
      <trkpt lat="4.6867170" lon="-74.3233970">
        <ele>2654.2</ele>
        <time>2018-08-10T16:32:21Z</time>
      </trkpt>
      <trkpt lat="4.6866970" lon="-74.3233650">
        <ele>2653.9</ele>
        <time>2018-08-10T16:32:22Z</time>
      </trkpt>
      <trkpt lat="4.6866780" lon="-74.3233280">
        <ele>2653.6</ele>
        <time>2018-08-10T16:32:23Z</time>
      </trkpt>
      <trkpt lat="4.6866580" lon="-74.3232900">
        <ele>2653.3</ele>
        <time>2018-08-10T16:32:24Z</time>
      </trkpt>
      <trkpt lat="4.6866380" lon="-74.3232570">
        <ele>2653.0</ele>
        <time>2018-08-10T16:32:25Z</time>
      </trkpt>
      <trkpt lat="4.6866200" lon="-74.3232270">
        <ele>2652.8</ele>
        <time>2018-08-10T16:32:26Z</time>
      </trkpt>
      <trkpt lat="4.6865980" lon="-74.3231920">
        <ele>2652.5</ele>
        <time>2018-08-10T16:32:27Z</time>
      </trkpt>
      <trkpt lat="4.6865780" lon="-74.3231470">
        <ele>2652.1</ele>
        <time>2018-08-10T16:32:28Z</time>
      </trkpt>
      <trkpt lat="4.6865450" lon="-74.3231050">
        <ele>2651.7</ele>
        <time>2018-08-10T16:32:29Z</time>
      </trkpt>
      <trkpt lat="4.6865170" lon="-74.3230720">
        <ele>2651.4</ele>
        <time>2018-08-10T16:32:30Z</time>
      </trkpt>
      <trkpt lat="4.6864900" lon="-74.3230400">
        <ele>2651.1</ele>
        <time>2018-08-10T16:32:31Z</time>
      </trkpt>
      <trkpt lat="4.6864620" lon="-74.3230080">
        <ele>2650.7</ele>
        <time>2018-08-10T16:32:32Z</time>
      </trkpt>
      <trkpt lat="4.6864370" lon="-74.3229800">
        <ele>2650.4</ele>
        <time>2018-08-10T16:32:33Z</time>
      </trkpt>
      <trkpt lat="4.6864080" lon="-74.3229120">
        <ele>2649.8</ele>
        <time>2018-08-10T16:32:34Z</time>
      </trkpt>
      <trkpt lat="4.6863580" lon="-74.3228580">
        <ele>2649.2</ele>
        <time>2018-08-10T16:32:35Z</time>
      </trkpt>
      <trkpt lat="4.6863320" lon="-74.3228370">
        <ele>2648.9</ele>
        <time>2018-08-10T16:32:36Z</time>
      </trkpt>
      <trkpt lat="4.6863020" lon="-74.3228180">
        <ele>2648.6</ele>
        <time>2018-08-10T16:32:37Z</time>
      </trkpt>
      <trkpt lat="4.6862670" lon="-74.3227980">
        <ele>2648.2</ele>
        <time>2018-08-10T16:32:38Z</time>
      </trkpt>
      <trkpt lat="4.6862280" lon="-74.3227820">
        <ele>2647.8</ele>
        <time>2018-08-10T16:32:39Z</time>
      </trkpt>
      <trkpt lat="4.6861950" lon="-74.3227620">
        <ele>2647.3</ele>
        <time>2018-08-10T16:32:40Z</time>
      </trkpt>
      <trkpt lat="4.6861620" lon="-74.3227480">
        <ele>2646.8</ele>
        <time>2018-08-10T16:32:41Z</time>
      </trkpt>
      <trkpt lat="4.6861280" lon="-74.3227320">
        <ele>2646.4</ele>
        <time>2018-08-10T16:32:42Z</time>
      </trkpt>
      <trkpt lat="4.6860870" lon="-74.3227250">
        <ele>2645.8</ele>
        <time>2018-08-10T16:32:43Z</time>
      </trkpt>
      <trkpt lat="4.6860420" lon="-74.3227100">
        <ele>2645.2</ele>
        <time>2018-08-10T16:32:44Z</time>
      </trkpt>
      <trkpt lat="4.6859900" lon="-74.3226980">
        <ele>2644.5</ele>
        <time>2018-08-10T16:32:45Z</time>
      </trkpt>
      <trkpt lat="4.6859450" lon="-74.3226770">
        <ele>2643.8</ele>
        <time>2018-08-10T16:32:46Z</time>
      </trkpt>
      <trkpt lat="4.6858980" lon="-74.3226550">
        <ele>2643.1</ele>
        <time>2018-08-10T16:32:47Z</time>
      </trkpt>
      <trkpt lat="4.6858570" lon="-74.3226350">
        <ele>2642.5</ele>
        <time>2018-08-10T16:32:48Z</time>
      </trkpt>
      <trkpt lat="4.6858120" lon="-74.3226150">
        <ele>2641.8</ele>
        <time>2018-08-10T16:32:49Z</time>
      </trkpt>
      <trkpt lat="4.6857670" lon="-74.3225970">
        <ele>2641.2</ele>
        <time>2018-08-10T16:32:50Z</time>
      </trkpt>
      <trkpt lat="4.6857250" lon="-74.3225680">
        <ele>2640.5</ele>
        <time>2018-08-10T16:32:51Z</time>
      </trkpt>
      <trkpt lat="4.6856830" lon="-74.3225430">
        <ele>2639.9</ele>
        <time>2018-08-10T16:32:52Z</time>
      </trkpt>
      <trkpt lat="4.6856430" lon="-74.3225230">
        <ele>2639.3</ele>
        <time>2018-08-10T16:32:53Z</time>
      </trkpt>
      <trkpt lat="4.6856100" lon="-74.3225030">
        <ele>2638.9</ele>
        <time>2018-08-10T16:32:54Z</time>
      </trkpt>
      <trkpt lat="4.6855750" lon="-74.3224900">
        <ele>2638.4</ele>
        <time>2018-08-10T16:32:55Z</time>
      </trkpt>
      <trkpt lat="4.6855430" lon="-74.3224730">
        <ele>2638.0</ele>
        <time>2018-08-10T16:32:56Z</time>
      </trkpt>
      <trkpt lat="4.6855170" lon="-74.3224430">
        <ele>2637.5</ele>
        <time>2018-08-10T16:32:57Z</time>
      </trkpt>
      <trkpt lat="4.6854900" lon="-74.3224130">
        <ele>2637.0</ele>
        <time>2018-08-10T16:32:58Z</time>
      </trkpt>
      <trkpt lat="4.6854620" lon="-74.3223820">
        <ele>2636.6</ele>
        <time>2018-08-10T16:32:59Z</time>
      </trkpt>
      <trkpt lat="4.6854330" lon="-74.3223550">
        <ele>2636.1</ele>
        <time>2018-08-10T16:33:00Z</time>
      </trkpt>
      <trkpt lat="4.6854070" lon="-74.3223270">
        <ele>2635.7</ele>
        <time>2018-08-10T16:33:01Z</time>
      </trkpt>
      <trkpt lat="4.6853820" lon="-74.3222970">
        <ele>2635.3</ele>
        <time>2018-08-10T16:33:02Z</time>
      </trkpt>
      <trkpt lat="4.6853570" lon="-74.3222730">
        <ele>2634.9</ele>
        <time>2018-08-10T16:33:03Z</time>
      </trkpt>
      <trkpt lat="4.6853330" lon="-74.3222530">
        <ele>2634.6</ele>
        <time>2018-08-10T16:33:04Z</time>
      </trkpt>
      <trkpt lat="4.6853030" lon="-74.3222170">
        <ele>2634.1</ele>
        <time>2018-08-10T16:33:05Z</time>
      </trkpt>
      <trkpt lat="4.6852780" lon="-74.3221870">
        <ele>2633.7</ele>
        <time>2018-08-10T16:33:06Z</time>
      </trkpt>
      <trkpt lat="4.6852520" lon="-74.3221630">
        <ele>2633.4</ele>
        <time>2018-08-10T16:33:07Z</time>
      </trkpt>
      <trkpt lat="4.6852250" lon="-74.3221400">
        <ele>2633.0</ele>
        <time>2018-08-10T16:33:08Z</time>
      </trkpt>
      <trkpt lat="4.6851970" lon="-74.3221150">
        <ele>2632.7</ele>
        <time>2018-08-10T16:33:09Z</time>
      </trkpt>
      <trkpt lat="4.6851650" lon="-74.3220920">
        <ele>2632.3</ele>
        <time>2018-08-10T16:33:10Z</time>
      </trkpt>
      <trkpt lat="4.6851350" lon="-74.3220600">
        <ele>2631.9</ele>
        <time>2018-08-10T16:33:11Z</time>
      </trkpt>
      <trkpt lat="4.6851050" lon="-74.3220280">
        <ele>2631.6</ele>
        <time>2018-08-10T16:33:12Z</time>
      </trkpt>
      <trkpt lat="4.6850720" lon="-74.3219970">
        <ele>2631.2</ele>
        <time>2018-08-10T16:33:13Z</time>
      </trkpt>
      <trkpt lat="4.6850450" lon="-74.3219620">
        <ele>2630.8</ele>
        <time>2018-08-10T16:33:14Z</time>
      </trkpt>
      <trkpt lat="4.6850150" lon="-74.3219230">
        <ele>2630.4</ele>
        <time>2018-08-10T16:33:15Z</time>
      </trkpt>
      <trkpt lat="4.6849880" lon="-74.3218870">
        <ele>2630.1</ele>
        <time>2018-08-10T16:33:16Z</time>
      </trkpt>
      <trkpt lat="4.6849570" lon="-74.3218520">
        <ele>2629.7</ele>
        <time>2018-08-10T16:33:17Z</time>
      </trkpt>
      <trkpt lat="4.6849130" lon="-74.3218070">
        <ele>2629.2</ele>
        <time>2018-08-10T16:33:18Z</time>
      </trkpt>
      <trkpt lat="4.6848700" lon="-74.3217700">
        <ele>2628.8</ele>
        <time>2018-08-10T16:33:19Z</time>
      </trkpt>
      <trkpt lat="4.6848250" lon="-74.3217320">
        <ele>2628.3</ele>
        <time>2018-08-10T16:33:20Z</time>
      </trkpt>
      <trkpt lat="4.6847850" lon="-74.3216950">
        <ele>2627.8</ele>
        <time>2018-08-10T16:33:21Z</time>
      </trkpt>
      <trkpt lat="4.6847500" lon="-74.3216530">
        <ele>2627.4</ele>
        <time>2018-08-10T16:33:22Z</time>
      </trkpt>
      <trkpt lat="4.6847150" lon="-74.3216070">
        <ele>2627.0</ele>
        <time>2018-08-10T16:33:23Z</time>
      </trkpt>
      <trkpt lat="4.6846750" lon="-74.3215600">
        <ele>2626.5</ele>
        <time>2018-08-10T16:33:24Z</time>
      </trkpt>
      <trkpt lat="4.6846420" lon="-74.3215120">
        <ele>2626.0</ele>
        <time>2018-08-10T16:33:25Z</time>
      </trkpt>
      <trkpt lat="4.6846080" lon="-74.3214680">
        <ele>2625.6</ele>
        <time>2018-08-10T16:33:26Z</time>
      </trkpt>
      <trkpt lat="4.6845750" lon="-74.3214230">
        <ele>2625.2</ele>
        <time>2018-08-10T16:33:27Z</time>
      </trkpt>
      <trkpt lat="4.6845380" lon="-74.3213720">
        <ele>2624.7</ele>
        <time>2018-08-10T16:33:28Z</time>
      </trkpt>
      <trkpt lat="4.6845020" lon="-74.3213280">
        <ele>2624.3</ele>
        <time>2018-08-10T16:33:29Z</time>
      </trkpt>
      <trkpt lat="4.6844700" lon="-74.3212800">
        <ele>2624.0</ele>
        <time>2018-08-10T16:33:30Z</time>
      </trkpt>
      <trkpt lat="4.6844330" lon="-74.3212350">
        <ele>2623.6</ele>
        <time>2018-08-10T16:33:31Z</time>
      </trkpt>
      <trkpt lat="4.6843980" lon="-74.3211880">
        <ele>2623.3</ele>
        <time>2018-08-10T16:33:32Z</time>
      </trkpt>
      <trkpt lat="4.6843680" lon="-74.3211470">
        <ele>2623.2</ele>
        <time>2018-08-10T16:33:33Z</time>
      </trkpt>
      <trkpt lat="4.6843430" lon="-74.3211080">
        <ele>2623.0</ele>
        <time>2018-08-10T16:33:34Z</time>
      </trkpt>
      <trkpt lat="4.6843170" lon="-74.3210720">
        <ele>2622.9</ele>
        <time>2018-08-10T16:33:35Z</time>
      </trkpt>
      <trkpt lat="4.6842930" lon="-74.3210350">
        <ele>2622.8</ele>
        <time>2018-08-10T16:33:36Z</time>
      </trkpt>
      <trkpt lat="4.6842670" lon="-74.3209950">
        <ele>2622.7</ele>
        <time>2018-08-10T16:33:37Z</time>
      </trkpt>
      <trkpt lat="4.6842300" lon="-74.3209700">
        <ele>2622.6</ele>
        <time>2018-08-10T16:33:38Z</time>
      </trkpt>
      <trkpt lat="4.6842100" lon="-74.3209130">
        <ele>2622.5</ele>
        <time>2018-08-10T16:33:39Z</time>
      </trkpt>
      <trkpt lat="4.6841880" lon="-74.3208720">
        <ele>2622.4</ele>
        <time>2018-08-10T16:33:40Z</time>
      </trkpt>
      <trkpt lat="4.6841670" lon="-74.3208350">
        <ele>2622.3</ele>
        <time>2018-08-10T16:33:41Z</time>
      </trkpt>
      <trkpt lat="4.6841500" lon="-74.3207830">
        <ele>2622.2</ele>
        <time>2018-08-10T16:33:42Z</time>
      </trkpt>
      <trkpt lat="4.6841250" lon="-74.3207480">
        <ele>2622.1</ele>
        <time>2018-08-10T16:33:43Z</time>
      </trkpt>
      <trkpt lat="4.6841000" lon="-74.3207130">
        <ele>2622.0</ele>
        <time>2018-08-10T16:33:44Z</time>
      </trkpt>
      <trkpt lat="4.6840800" lon="-74.3206850">
        <ele>2621.9</ele>
        <time>2018-08-10T16:33:45Z</time>
      </trkpt>
      <trkpt lat="4.6840650" lon="-74.3206530">
        <ele>2621.8</ele>
        <time>2018-08-10T16:33:46Z</time>
      </trkpt>
      <trkpt lat="4.6840380" lon="-74.3206130">
        <ele>2621.7</ele>
        <time>2018-08-10T16:33:47Z</time>
      </trkpt>
      <trkpt lat="4.6840100" lon="-74.3205700">
        <ele>2621.5</ele>
        <time>2018-08-10T16:33:48Z</time>
      </trkpt>
      <trkpt lat="4.6839820" lon="-74.3205380">
        <ele>2621.3</ele>
        <time>2018-08-10T16:33:49Z</time>
      </trkpt>
      <trkpt lat="4.6839600" lon="-74.3205020">
        <ele>2621.1</ele>
        <time>2018-08-10T16:33:50Z</time>
      </trkpt>
      <trkpt lat="4.6839400" lon="-74.3204700">
        <ele>2621.0</ele>
        <time>2018-08-10T16:33:51Z</time>
      </trkpt>
      <trkpt lat="4.6839180" lon="-74.3204370">
        <ele>2620.9</ele>
        <time>2018-08-10T16:33:52Z</time>
      </trkpt>
      <trkpt lat="4.6839000" lon="-74.3204070">
        <ele>2620.7</ele>
        <time>2018-08-10T16:33:53Z</time>
      </trkpt>
      <trkpt lat="4.6838800" lon="-74.3203820">
        <ele>2620.6</ele>
        <time>2018-08-10T16:33:54Z</time>
      </trkpt>
      <trkpt lat="4.6838580" lon="-74.3203470">
        <ele>2620.5</ele>
        <time>2018-08-10T16:33:55Z</time>
      </trkpt>
      <trkpt lat="4.6838300" lon="-74.3203230">
        <ele>2620.5</ele>
        <time>2018-08-10T16:33:56Z</time>
      </trkpt>
      <trkpt lat="4.6837970" lon="-74.3203070">
        <ele>2620.4</ele>
        <time>2018-08-10T16:33:57Z</time>
      </trkpt>
      <trkpt lat="4.6837670" lon="-74.3202830">
        <ele>2620.4</ele>
        <time>2018-08-10T16:33:58Z</time>
      </trkpt>
      <trkpt lat="4.6837470" lon="-74.3202580">
        <ele>2620.4</ele>
        <time>2018-08-10T16:33:59Z</time>
      </trkpt>
      <trkpt lat="4.6837270" lon="-74.3202330">
        <ele>2620.3</ele>
        <time>2018-08-10T16:34:00Z</time>
      </trkpt>
      <trkpt lat="4.6836920" lon="-74.3201980">
        <ele>2620.3</ele>
        <time>2018-08-10T16:34:02Z</time>
      </trkpt>
      <trkpt lat="4.6836520" lon="-74.3201530">
        <ele>2620.2</ele>
        <time>2018-08-10T16:34:03Z</time>
      </trkpt>
      <trkpt lat="4.6836270" lon="-74.3201250">
        <ele>2620.2</ele>
        <time>2018-08-10T16:34:04Z</time>
      </trkpt>
      <trkpt lat="4.6836050" lon="-74.3200880">
        <ele>2620.2</ele>
        <time>2018-08-10T16:34:05Z</time>
      </trkpt>
      <trkpt lat="4.6835880" lon="-74.3200570">
        <ele>2620.1</ele>
        <time>2018-08-10T16:34:06Z</time>
      </trkpt>
      <trkpt lat="4.6835630" lon="-74.3200130">
        <ele>2620.1</ele>
        <time>2018-08-10T16:34:07Z</time>
      </trkpt>
      <trkpt lat="4.6835300" lon="-74.3199580">
        <ele>2620.0</ele>
        <time>2018-08-10T16:34:08Z</time>
      </trkpt>
      <trkpt lat="4.6835000" lon="-74.3199250">
        <ele>2620.0</ele>
        <time>2018-08-10T16:34:09Z</time>
      </trkpt>
      <trkpt lat="4.6834800" lon="-74.3199020">
        <ele>2620.0</ele>
        <time>2018-08-10T16:34:10Z</time>
      </trkpt>
      <trkpt lat="4.6834570" lon="-74.3198750">
        <ele>2619.9</ele>
        <time>2018-08-10T16:34:11Z</time>
      </trkpt>
      <trkpt lat="4.6834380" lon="-74.3198470">
        <ele>2619.9</ele>
        <time>2018-08-10T16:34:12Z</time>
      </trkpt>
      <trkpt lat="4.6834220" lon="-74.3198120">
        <ele>2619.9</ele>
        <time>2018-08-10T16:34:13Z</time>
      </trkpt>
      <trkpt lat="4.6834120" lon="-74.3197780">
        <ele>2619.8</ele>
        <time>2018-08-10T16:34:14Z</time>
      </trkpt>
      <trkpt lat="4.6834000" lon="-74.3197480">
        <ele>2619.8</ele>
        <time>2018-08-10T16:34:15Z</time>
      </trkpt>
      <trkpt lat="4.6833880" lon="-74.3197100">
        <ele>2619.7</ele>
        <time>2018-08-10T16:34:16Z</time>
      </trkpt>
      <trkpt lat="4.6833720" lon="-74.3196750">
        <ele>2619.6</ele>
        <time>2018-08-10T16:34:17Z</time>
      </trkpt>
      <trkpt lat="4.6833530" lon="-74.3196380">
        <ele>2619.6</ele>
        <time>2018-08-10T16:34:18Z</time>
      </trkpt>
      <trkpt lat="4.6833350" lon="-74.3196000">
        <ele>2619.5</ele>
        <time>2018-08-10T16:34:19Z</time>
      </trkpt>
      <trkpt lat="4.6833200" lon="-74.3195600">
        <ele>2619.4</ele>
        <time>2018-08-10T16:34:20Z</time>
      </trkpt>
      <trkpt lat="4.6833030" lon="-74.3195230">
        <ele>2619.3</ele>
        <time>2018-08-10T16:34:21Z</time>
      </trkpt>
      <trkpt lat="4.6832920" lon="-74.3194870">
        <ele>2619.2</ele>
        <time>2018-08-10T16:34:22Z</time>
      </trkpt>
      <trkpt lat="4.6832680" lon="-74.3194420">
        <ele>2619.1</ele>
        <time>2018-08-10T16:34:23Z</time>
      </trkpt>
      <trkpt lat="4.6832420" lon="-74.3194130">
        <ele>2619.0</ele>
        <time>2018-08-10T16:34:24Z</time>
      </trkpt>
      <trkpt lat="4.6832100" lon="-74.3193800">
        <ele>2618.8</ele>
        <time>2018-08-10T16:34:25Z</time>
      </trkpt>
      <trkpt lat="4.6831770" lon="-74.3193320">
        <ele>2618.6</ele>
        <time>2018-08-10T16:34:26Z</time>
      </trkpt>
      <trkpt lat="4.6831480" lon="-74.3193000">
        <ele>2618.4</ele>
        <time>2018-08-10T16:34:27Z</time>
      </trkpt>
      <trkpt lat="4.6831200" lon="-74.3192770">
        <ele>2618.3</ele>
        <time>2018-08-10T16:34:28Z</time>
      </trkpt>
      <trkpt lat="4.6830950" lon="-74.3192500">
        <ele>2618.1</ele>
        <time>2018-08-10T16:34:29Z</time>
      </trkpt>
      <trkpt lat="4.6830770" lon="-74.3192220">
        <ele>2618.0</ele>
        <time>2018-08-10T16:34:30Z</time>
      </trkpt>
      <trkpt lat="4.6830580" lon="-74.3191900">
        <ele>2617.9</ele>
        <time>2018-08-10T16:34:31Z</time>
      </trkpt>
      <trkpt lat="4.6830400" lon="-74.3191680">
        <ele>2617.8</ele>
        <time>2018-08-10T16:34:32Z</time>
      </trkpt>
      <trkpt lat="4.6830200" lon="-74.3191470">
        <ele>2617.7</ele>
        <time>2018-08-10T16:34:33Z</time>
      </trkpt>
      <trkpt lat="4.6830020" lon="-74.3191250">
        <ele>2617.7</ele>
        <time>2018-08-10T16:34:34Z</time>
      </trkpt>
      <trkpt lat="4.6829830" lon="-74.3190900">
        <ele>2617.6</ele>
        <time>2018-08-10T16:34:35Z</time>
      </trkpt>
      <trkpt lat="4.6829650" lon="-74.3190620">
        <ele>2617.5</ele>
        <time>2018-08-10T16:34:36Z</time>
      </trkpt>
      <trkpt lat="4.6829430" lon="-74.3190280">
        <ele>2617.4</ele>
        <time>2018-08-10T16:34:37Z</time>
      </trkpt>
      <trkpt lat="4.6829280" lon="-74.3189980">
        <ele>2617.3</ele>
        <time>2018-08-10T16:34:38Z</time>
      </trkpt>
      <trkpt lat="4.6828920" lon="-74.3189480">
        <ele>2617.2</ele>
        <time>2018-08-10T16:34:40Z</time>
      </trkpt>
      <trkpt lat="4.6828720" lon="-74.3189280">
        <ele>2617.2</ele>
        <time>2018-08-10T16:34:41Z</time>
      </trkpt>
      <trkpt lat="4.6828330" lon="-74.3188930">
        <ele>2617.1</ele>
        <time>2018-08-10T16:34:43Z</time>
      </trkpt>
      <trkpt lat="4.6828030" lon="-74.3188800">
        <ele>2617.0</ele>
        <time>2018-08-10T16:34:44Z</time>
      </trkpt>
      <trkpt lat="4.6827780" lon="-74.3188630">
        <ele>2616.9</ele>
        <time>2018-08-10T16:34:45Z</time>
      </trkpt>
      <trkpt lat="4.6827530" lon="-74.3188420">
        <ele>2616.9</ele>
        <time>2018-08-10T16:34:46Z</time>
      </trkpt>
      <trkpt lat="4.6827270" lon="-74.3188180">
        <ele>2616.8</ele>
        <time>2018-08-10T16:34:47Z</time>
      </trkpt>
      <trkpt lat="4.6826950" lon="-74.3188020">
        <ele>2616.7</ele>
        <time>2018-08-10T16:34:48Z</time>
      </trkpt>
      <trkpt lat="4.6826650" lon="-74.3187800">
        <ele>2616.6</ele>
        <time>2018-08-10T16:34:49Z</time>
      </trkpt>
      <trkpt lat="4.6826350" lon="-74.3187620">
        <ele>2616.5</ele>
        <time>2018-08-10T16:34:50Z</time>
      </trkpt>
      <trkpt lat="4.6826050" lon="-74.3187420">
        <ele>2616.4</ele>
        <time>2018-08-10T16:34:51Z</time>
      </trkpt>
      <trkpt lat="4.6825750" lon="-74.3187180">
        <ele>2616.2</ele>
        <time>2018-08-10T16:34:52Z</time>
      </trkpt>
      <trkpt lat="4.6825450" lon="-74.3186920">
        <ele>2616.0</ele>
        <time>2018-08-10T16:34:53Z</time>
      </trkpt>
      <trkpt lat="4.6825150" lon="-74.3186650">
        <ele>2615.9</ele>
        <time>2018-08-10T16:34:54Z</time>
      </trkpt>
      <trkpt lat="4.6824830" lon="-74.3186400">
        <ele>2615.7</ele>
        <time>2018-08-10T16:34:55Z</time>
      </trkpt>
      <trkpt lat="4.6824520" lon="-74.3186180">
        <ele>2615.5</ele>
        <time>2018-08-10T16:34:56Z</time>
      </trkpt>
      <trkpt lat="4.6824170" lon="-74.3185880">
        <ele>2615.2</ele>
        <time>2018-08-10T16:34:57Z</time>
      </trkpt>
      <trkpt lat="4.6823820" lon="-74.3185620">
        <ele>2615.0</ele>
        <time>2018-08-10T16:34:58Z</time>
      </trkpt>
      <trkpt lat="4.6823470" lon="-74.3185350">
        <ele>2614.7</ele>
        <time>2018-08-10T16:34:59Z</time>
      </trkpt>
      <trkpt lat="4.6823120" lon="-74.3185080">
        <ele>2614.5</ele>
        <time>2018-08-10T16:35:00Z</time>
      </trkpt>
      <trkpt lat="4.6822750" lon="-74.3184830">
        <ele>2614.2</ele>
        <time>2018-08-10T16:35:01Z</time>
      </trkpt>
      <trkpt lat="4.6822330" lon="-74.3184620">
        <ele>2613.9</ele>
        <time>2018-08-10T16:35:02Z</time>
      </trkpt>
      <trkpt lat="4.6821900" lon="-74.3184420">
        <ele>2613.7</ele>
        <time>2018-08-10T16:35:03Z</time>
      </trkpt>
      <trkpt lat="4.6821500" lon="-74.3184130">
        <ele>2613.4</ele>
        <time>2018-08-10T16:35:04Z</time>
      </trkpt>
      <trkpt lat="4.6821080" lon="-74.3183870">
        <ele>2613.1</ele>
        <time>2018-08-10T16:35:05Z</time>
      </trkpt>
      <trkpt lat="4.6820670" lon="-74.3183620">
        <ele>2612.8</ele>
        <time>2018-08-10T16:35:06Z</time>
      </trkpt>
      <trkpt lat="4.6820280" lon="-74.3183270">
        <ele>2612.4</ele>
        <time>2018-08-10T16:35:07Z</time>
      </trkpt>
      <trkpt lat="4.6819930" lon="-74.3182900">
        <ele>2612.1</ele>
        <time>2018-08-10T16:35:08Z</time>
      </trkpt>
      <trkpt lat="4.6819630" lon="-74.3182480">
        <ele>2612.2</ele>
        <time>2018-08-10T16:35:09Z</time>
      </trkpt>
      <trkpt lat="4.6819300" lon="-74.3182130">
        <ele>2612.3</ele>
        <time>2018-08-10T16:35:10Z</time>
      </trkpt>
      <trkpt lat="4.6818930" lon="-74.3181830">
        <ele>2612.5</ele>
        <time>2018-08-10T16:35:11Z</time>
      </trkpt>
      <trkpt lat="4.6818650" lon="-74.3181530">
        <ele>2612.6</ele>
        <time>2018-08-10T16:35:12Z</time>
      </trkpt>
      <trkpt lat="4.6818470" lon="-74.3181270">
        <ele>2612.7</ele>
        <time>2018-08-10T16:35:13Z</time>
      </trkpt>
      <trkpt lat="4.6818270" lon="-74.3181030">
        <ele>2612.7</ele>
        <time>2018-08-10T16:35:14Z</time>
      </trkpt>
      <trkpt lat="4.6818050" lon="-74.3180820">
        <ele>2612.8</ele>
        <time>2018-08-10T16:35:15Z</time>
      </trkpt>
      <trkpt lat="4.6817670" lon="-74.3180480">
        <ele>2612.8</ele>
        <time>2018-08-10T16:35:17Z</time>
      </trkpt>
      <trkpt lat="4.6817220" lon="-74.3180200">
        <ele>2612.9</ele>
        <time>2018-08-10T16:35:19Z</time>
      </trkpt>
      <trkpt lat="4.6816770" lon="-74.3179900">
        <ele>2612.9</ele>
        <time>2018-08-10T16:35:21Z</time>
      </trkpt>
      <trkpt lat="4.6816330" lon="-74.3179620">
        <ele>2612.9</ele>
        <time>2018-08-10T16:35:23Z</time>
      </trkpt>
      <trkpt lat="4.6815870" lon="-74.3179470">
        <ele>2612.9</ele>
        <time>2018-08-10T16:35:25Z</time>
      </trkpt>
      <trkpt lat="4.6815380" lon="-74.3179270">
        <ele>2612.9</ele>
        <time>2018-08-10T16:35:27Z</time>
      </trkpt>
      <trkpt lat="4.6814900" lon="-74.3179130">
        <ele>2612.9</ele>
        <time>2018-08-10T16:35:29Z</time>
      </trkpt>
      <trkpt lat="4.6814480" lon="-74.3178880">
        <ele>2612.8</ele>
        <time>2018-08-10T16:35:31Z</time>
      </trkpt>
      <trkpt lat="4.6814120" lon="-74.3178630">
        <ele>2612.8</ele>
        <time>2018-08-10T16:35:33Z</time>
      </trkpt>
      <trkpt lat="4.6813770" lon="-74.3178380">
        <ele>2612.7</ele>
        <time>2018-08-10T16:35:35Z</time>
      </trkpt>
      <trkpt lat="4.6813300" lon="-74.3178170">
        <ele>2612.7</ele>
        <time>2018-08-10T16:35:37Z</time>
      </trkpt>
      <trkpt lat="4.6812820" lon="-74.3177980">
        <ele>2612.5</ele>
        <time>2018-08-10T16:35:39Z</time>
      </trkpt>
      <trkpt lat="4.6812430" lon="-74.3177780">
        <ele>2612.4</ele>
        <time>2018-08-10T16:35:41Z</time>
      </trkpt>
      <trkpt lat="4.6812030" lon="-74.3177680">
        <ele>2612.2</ele>
        <time>2018-08-10T16:35:43Z</time>
      </trkpt>
      <trkpt lat="4.6812330" lon="-74.3177770">
        <ele>2612.3</ele>
        <time>2018-08-10T16:35:50Z</time>
      </trkpt>
      <trkpt lat="4.6812700" lon="-74.3178020">
        <ele>2612.5</ele>
        <time>2018-08-10T16:35:52Z</time>
      </trkpt>
      <trkpt lat="4.6813180" lon="-74.3178170">
        <ele>2612.7</ele>
        <time>2018-08-10T16:35:54Z</time>
      </trkpt>
      <trkpt lat="4.6813730" lon="-74.3178320">
        <ele>2612.7</ele>
        <time>2018-08-10T16:35:56Z</time>
      </trkpt>
      <trkpt lat="4.6814050" lon="-74.3178470">
        <ele>2612.8</ele>
        <time>2018-08-10T16:35:57Z</time>
      </trkpt>
      <trkpt lat="4.6814330" lon="-74.3178620">
        <ele>2612.8</ele>
        <time>2018-08-10T16:35:58Z</time>
      </trkpt>
      <trkpt lat="4.6814600" lon="-74.3178780">
        <ele>2612.8</ele>
        <time>2018-08-10T16:35:59Z</time>
      </trkpt>
      <trkpt lat="4.6814880" lon="-74.3178930">
        <ele>2612.9</ele>
        <time>2018-08-10T16:36:00Z</time>
      </trkpt>
      <trkpt lat="4.6815200" lon="-74.3179070">
        <ele>2612.9</ele>
        <time>2018-08-10T16:36:01Z</time>
      </trkpt>
      <trkpt lat="4.6815530" lon="-74.3179200">
        <ele>2612.9</ele>
        <time>2018-08-10T16:36:02Z</time>
      </trkpt>
      <trkpt lat="4.6815880" lon="-74.3179430">
        <ele>2612.9</ele>
        <time>2018-08-10T16:36:03Z</time>
      </trkpt>
      <trkpt lat="4.6816200" lon="-74.3179670">
        <ele>2612.9</ele>
        <time>2018-08-10T16:36:04Z</time>
      </trkpt>
      <trkpt lat="4.6816500" lon="-74.3179850">
        <ele>2612.9</ele>
        <time>2018-08-10T16:36:05Z</time>
      </trkpt>
      <trkpt lat="4.6816750" lon="-74.3180050">
        <ele>2612.9</ele>
        <time>2018-08-10T16:36:06Z</time>
      </trkpt>
      <trkpt lat="4.6817070" lon="-74.3180200">
        <ele>2612.9</ele>
        <time>2018-08-10T16:36:07Z</time>
      </trkpt>
      <trkpt lat="4.6817400" lon="-74.3180350">
        <ele>2612.9</ele>
        <time>2018-08-10T16:36:08Z</time>
      </trkpt>
      <trkpt lat="4.6817750" lon="-74.3180480">
        <ele>2612.8</ele>
        <time>2018-08-10T16:36:09Z</time>
      </trkpt>
      <trkpt lat="4.6818130" lon="-74.3180630">
        <ele>2612.8</ele>
        <time>2018-08-10T16:36:10Z</time>
      </trkpt>
      <trkpt lat="4.6818420" lon="-74.3180870">
        <ele>2612.7</ele>
        <time>2018-08-10T16:36:11Z</time>
      </trkpt>
      <trkpt lat="4.6818770" lon="-74.3181200">
        <ele>2612.6</ele>
        <time>2018-08-10T16:36:12Z</time>
      </trkpt>
      <trkpt lat="4.6819070" lon="-74.3181520">
        <ele>2612.5</ele>
        <time>2018-08-10T16:36:13Z</time>
      </trkpt>
      <trkpt lat="4.6819430" lon="-74.3181880">
        <ele>2612.3</ele>
        <time>2018-08-10T16:36:14Z</time>
      </trkpt>
      <trkpt lat="4.6819880" lon="-74.3182220">
        <ele>2612.1</ele>
        <time>2018-08-10T16:36:15Z</time>
      </trkpt>
      <trkpt lat="4.6820330" lon="-74.3182600">
        <ele>2612.2</ele>
        <time>2018-08-10T16:36:16Z</time>
      </trkpt>
      <trkpt lat="4.6820800" lon="-74.3182980">
        <ele>2612.5</ele>
        <time>2018-08-10T16:36:17Z</time>
      </trkpt>
      <trkpt lat="4.6821270" lon="-74.3183350">
        <ele>2612.9</ele>
        <time>2018-08-10T16:36:18Z</time>
      </trkpt>
      <trkpt lat="4.6821780" lon="-74.3183720">
        <ele>2613.3</ele>
        <time>2018-08-10T16:36:19Z</time>
      </trkpt>
      <trkpt lat="4.6822320" lon="-74.3184080">
        <ele>2613.7</ele>
        <time>2018-08-10T16:36:20Z</time>
      </trkpt>
      <trkpt lat="4.6822830" lon="-74.3184470">
        <ele>2614.1</ele>
        <time>2018-08-10T16:36:21Z</time>
      </trkpt>
      <trkpt lat="4.6823380" lon="-74.3184870">
        <ele>2614.5</ele>
        <time>2018-08-10T16:36:22Z</time>
      </trkpt>
      <trkpt lat="4.6823870" lon="-74.3185280">
        <ele>2614.8</ele>
        <time>2018-08-10T16:36:23Z</time>
      </trkpt>
      <trkpt lat="4.6824350" lon="-74.3185700">
        <ele>2615.2</ele>
        <time>2018-08-10T16:36:24Z</time>
      </trkpt>
      <trkpt lat="4.6824870" lon="-74.3186120">
        <ele>2615.5</ele>
        <time>2018-08-10T16:36:25Z</time>
      </trkpt>
      <trkpt lat="4.6825370" lon="-74.3186500">
        <ele>2615.9</ele>
        <time>2018-08-10T16:36:26Z</time>
      </trkpt>
      <trkpt lat="4.6825830" lon="-74.3186880">
        <ele>2616.1</ele>
        <time>2018-08-10T16:36:27Z</time>
      </trkpt>
      <trkpt lat="4.6826380" lon="-74.3187300">
        <ele>2616.4</ele>
        <time>2018-08-10T16:36:28Z</time>
      </trkpt>
      <trkpt lat="4.6826870" lon="-74.3187730">
        <ele>2616.6</ele>
        <time>2018-08-10T16:36:29Z</time>
      </trkpt>
      <trkpt lat="4.6827320" lon="-74.3188150">
        <ele>2616.8</ele>
        <time>2018-08-10T16:36:30Z</time>
      </trkpt>
      <trkpt lat="4.6827750" lon="-74.3188530">
        <ele>2616.9</ele>
        <time>2018-08-10T16:36:31Z</time>
      </trkpt>
      <trkpt lat="4.6828170" lon="-74.3188850">
        <ele>2617.0</ele>
        <time>2018-08-10T16:36:32Z</time>
      </trkpt>
      <trkpt lat="4.6828570" lon="-74.3189100">
        <ele>2617.1</ele>
        <time>2018-08-10T16:36:33Z</time>
      </trkpt>
      <trkpt lat="4.6828900" lon="-74.3189500">
        <ele>2617.2</ele>
        <time>2018-08-10T16:36:34Z</time>
      </trkpt>
      <trkpt lat="4.6829250" lon="-74.3189930">
        <ele>2617.3</ele>
        <time>2018-08-10T16:36:35Z</time>
      </trkpt>
      <trkpt lat="4.6829630" lon="-74.3190380">
        <ele>2617.4</ele>
        <time>2018-08-10T16:36:36Z</time>
      </trkpt>
      <trkpt lat="4.6830020" lon="-74.3190880">
        <ele>2617.6</ele>
        <time>2018-08-10T16:36:37Z</time>
      </trkpt>
      <trkpt lat="4.6830400" lon="-74.3191400">
        <ele>2617.7</ele>
        <time>2018-08-10T16:36:38Z</time>
      </trkpt>
      <trkpt lat="4.6830880" lon="-74.3191900">
        <ele>2617.9</ele>
        <time>2018-08-10T16:36:39Z</time>
      </trkpt>
      <trkpt lat="4.6831280" lon="-74.3192430">
        <ele>2618.2</ele>
        <time>2018-08-10T16:36:40Z</time>
      </trkpt>
      <trkpt lat="4.6831680" lon="-74.3192970">
        <ele>2618.5</ele>
        <time>2018-08-10T16:36:41Z</time>
      </trkpt>
      <trkpt lat="4.6832050" lon="-74.3193430">
        <ele>2618.7</ele>
        <time>2018-08-10T16:36:42Z</time>
      </trkpt>
      <trkpt lat="4.6832520" lon="-74.3193900">
        <ele>2618.9</ele>
        <time>2018-08-10T16:36:43Z</time>
      </trkpt>
      <trkpt lat="4.6832870" lon="-74.3194400">
        <ele>2619.1</ele>
        <time>2018-08-10T16:36:44Z</time>
      </trkpt>
      <trkpt lat="4.6833120" lon="-74.3194880">
        <ele>2619.3</ele>
        <time>2018-08-10T16:36:45Z</time>
      </trkpt>
      <trkpt lat="4.6833350" lon="-74.3195350">
        <ele>2619.4</ele>
        <time>2018-08-10T16:36:46Z</time>
      </trkpt>
      <trkpt lat="4.6833570" lon="-74.3195750">
        <ele>2619.5</ele>
        <time>2018-08-10T16:36:47Z</time>
      </trkpt>
      <trkpt lat="4.6833770" lon="-74.3196150">
        <ele>2619.5</ele>
        <time>2018-08-10T16:36:48Z</time>
      </trkpt>
      <trkpt lat="4.6833930" lon="-74.3196620">
        <ele>2619.6</ele>
        <time>2018-08-10T16:36:49Z</time>
      </trkpt>
      <trkpt lat="4.6834220" lon="-74.3197050">
        <ele>2619.7</ele>
        <time>2018-08-10T16:36:50Z</time>
      </trkpt>
      <trkpt lat="4.6834620" lon="-74.3197550">
        <ele>2619.8</ele>
        <time>2018-08-10T16:36:51Z</time>
      </trkpt>
      <trkpt lat="4.6835000" lon="-74.3198080">
        <ele>2619.9</ele>
        <time>2018-08-10T16:36:52Z</time>
      </trkpt>
      <trkpt lat="4.6835300" lon="-74.3198570">
        <ele>2620.0</ele>
        <time>2018-08-10T16:36:53Z</time>
      </trkpt>
      <trkpt lat="4.6835620" lon="-74.3199070">
        <ele>2620.0</ele>
        <time>2018-08-10T16:36:54Z</time>
      </trkpt>
      <trkpt lat="4.6835920" lon="-74.3199650">
        <ele>2620.1</ele>
        <time>2018-08-10T16:36:55Z</time>
      </trkpt>
      <trkpt lat="4.6836280" lon="-74.3200130">
        <ele>2620.1</ele>
        <time>2018-08-10T16:36:56Z</time>
      </trkpt>
      <trkpt lat="4.6836670" lon="-74.3200580">
        <ele>2620.2</ele>
        <time>2018-08-10T16:36:57Z</time>
      </trkpt>
      <trkpt lat="4.6837050" lon="-74.3201100">
        <ele>2620.2</ele>
        <time>2018-08-10T16:36:58Z</time>
      </trkpt>
      <trkpt lat="4.6837380" lon="-74.3201650">
        <ele>2620.3</ele>
        <time>2018-08-10T16:36:59Z</time>
      </trkpt>
      <trkpt lat="4.6837780" lon="-74.3202230">
        <ele>2620.4</ele>
        <time>2018-08-10T16:37:00Z</time>
      </trkpt>
      <trkpt lat="4.6838100" lon="-74.3202830">
        <ele>2620.4</ele>
        <time>2018-08-10T16:37:01Z</time>
      </trkpt>
      <trkpt lat="4.6838480" lon="-74.3203400">
        <ele>2620.5</ele>
        <time>2018-08-10T16:37:02Z</time>
      </trkpt>
      <trkpt lat="4.6838830" lon="-74.3203880">
        <ele>2620.6</ele>
        <time>2018-08-10T16:37:03Z</time>
      </trkpt>
      <trkpt lat="4.6839270" lon="-74.3204380">
        <ele>2620.9</ele>
        <time>2018-08-10T16:37:04Z</time>
      </trkpt>
      <trkpt lat="4.6839670" lon="-74.3204930">
        <ele>2621.1</ele>
        <time>2018-08-10T16:37:05Z</time>
      </trkpt>
      <trkpt lat="4.6840120" lon="-74.3205500">
        <ele>2621.4</ele>
        <time>2018-08-10T16:37:06Z</time>
      </trkpt>
      <trkpt lat="4.6840480" lon="-74.3206100">
        <ele>2621.7</ele>
        <time>2018-08-10T16:37:07Z</time>
      </trkpt>
      <trkpt lat="4.6840980" lon="-74.3206680">
        <ele>2621.9</ele>
        <time>2018-08-10T16:37:08Z</time>
      </trkpt>
      <trkpt lat="4.6841370" lon="-74.3207220">
        <ele>2622.1</ele>
        <time>2018-08-10T16:37:09Z</time>
      </trkpt>
      <trkpt lat="4.6841680" lon="-74.3207780">
        <ele>2622.2</ele>
        <time>2018-08-10T16:37:10Z</time>
      </trkpt>
      <trkpt lat="4.6842080" lon="-74.3208330">
        <ele>2622.3</ele>
        <time>2018-08-10T16:37:11Z</time>
      </trkpt>
      <trkpt lat="4.6842450" lon="-74.3208880">
        <ele>2622.5</ele>
        <time>2018-08-10T16:37:12Z</time>
      </trkpt>
      <trkpt lat="4.6842730" lon="-74.3209430">
        <ele>2622.6</ele>
        <time>2018-08-10T16:37:13Z</time>
      </trkpt>
      <trkpt lat="4.6843180" lon="-74.3210030">
        <ele>2622.8</ele>
        <time>2018-08-10T16:37:14Z</time>
      </trkpt>
      <trkpt lat="4.6843700" lon="-74.3210620">
        <ele>2623.0</ele>
        <time>2018-08-10T16:37:15Z</time>
      </trkpt>
      <trkpt lat="4.6844180" lon="-74.3211280">
        <ele>2623.2</ele>
        <time>2018-08-10T16:37:16Z</time>
      </trkpt>
      <trkpt lat="4.6844630" lon="-74.3211900">
        <ele>2623.5</ele>
        <time>2018-08-10T16:37:17Z</time>
      </trkpt>
      <trkpt lat="4.6845100" lon="-74.3212450">
        <ele>2623.9</ele>
        <time>2018-08-10T16:37:18Z</time>
      </trkpt>
      <trkpt lat="4.6845570" lon="-74.3212970">
        <ele>2624.4</ele>
        <time>2018-08-10T16:37:19Z</time>
      </trkpt>
      <trkpt lat="4.6846000" lon="-74.3213520">
        <ele>2624.8</ele>
        <time>2018-08-10T16:37:20Z</time>
      </trkpt>
      <trkpt lat="4.6846450" lon="-74.3214030">
        <ele>2625.3</ele>
        <time>2018-08-10T16:37:21Z</time>
      </trkpt>
      <trkpt lat="4.6846900" lon="-74.3214680">
        <ele>2625.9</ele>
        <time>2018-08-10T16:37:22Z</time>
      </trkpt>
      <trkpt lat="4.6847320" lon="-74.3215280">
        <ele>2626.5</ele>
        <time>2018-08-10T16:37:23Z</time>
      </trkpt>
      <trkpt lat="4.6847670" lon="-74.3215880">
        <ele>2627.1</ele>
        <time>2018-08-10T16:37:24Z</time>
      </trkpt>
      <trkpt lat="4.6848020" lon="-74.3216470">
        <ele>2627.6</ele>
        <time>2018-08-10T16:37:25Z</time>
      </trkpt>
      <trkpt lat="4.6848520" lon="-74.3217070">
        <ele>2628.3</ele>
        <time>2018-08-10T16:37:26Z</time>
      </trkpt>
      <trkpt lat="4.6849020" lon="-74.3217620">
        <ele>2628.9</ele>
        <time>2018-08-10T16:37:27Z</time>
      </trkpt>
      <trkpt lat="4.6849550" lon="-74.3218100">
        <ele>2629.4</ele>
        <time>2018-08-10T16:37:28Z</time>
      </trkpt>
      <trkpt lat="4.6850020" lon="-74.3218500">
        <ele>2629.9</ele>
        <time>2018-08-10T16:37:29Z</time>
      </trkpt>
      <trkpt lat="4.6850420" lon="-74.3218880">
        <ele>2630.4</ele>
        <time>2018-08-10T16:37:30Z</time>
      </trkpt>
      <trkpt lat="4.6850830" lon="-74.3219200">
        <ele>2630.8</ele>
        <time>2018-08-10T16:37:31Z</time>
      </trkpt>
      <trkpt lat="4.6851170" lon="-74.3219530">
        <ele>2631.2</ele>
        <time>2018-08-10T16:37:32Z</time>
      </trkpt>
      <trkpt lat="4.6851480" lon="-74.3219820">
        <ele>2631.5</ele>
        <time>2018-08-10T16:37:33Z</time>
      </trkpt>
      <trkpt lat="4.6851700" lon="-74.3220130">
        <ele>2631.9</ele>
        <time>2018-08-10T16:37:34Z</time>
      </trkpt>
      <trkpt lat="4.6851920" lon="-74.3220400">
        <ele>2632.2</ele>
        <time>2018-08-10T16:37:35Z</time>
      </trkpt>
      <trkpt lat="4.6852180" lon="-74.3220620">
        <ele>2632.5</ele>
        <time>2018-08-10T16:37:36Z</time>
      </trkpt>
      <trkpt lat="4.6852520" lon="-74.3220820">
        <ele>2632.8</ele>
        <time>2018-08-10T16:37:37Z</time>
      </trkpt>
      <trkpt lat="4.6852850" lon="-74.3221000">
        <ele>2633.2</ele>
        <time>2018-08-10T16:37:38Z</time>
      </trkpt>
      <trkpt lat="4.6853120" lon="-74.3221320">
        <ele>2633.6</ele>
        <time>2018-08-10T16:37:39Z</time>
      </trkpt>
      <trkpt lat="4.6853350" lon="-74.3221630">
        <ele>2634.0</ele>
        <time>2018-08-10T16:37:40Z</time>
      </trkpt>
      <trkpt lat="4.6853580" lon="-74.3221950">
        <ele>2634.4</ele>
        <time>2018-08-10T16:37:41Z</time>
      </trkpt>
      <trkpt lat="4.6853800" lon="-74.3222300">
        <ele>2634.8</ele>
        <time>2018-08-10T16:37:42Z</time>
      </trkpt>
      <trkpt lat="4.6854030" lon="-74.3222650">
        <ele>2635.3</ele>
        <time>2018-08-10T16:37:43Z</time>
      </trkpt>
      <trkpt lat="4.6854280" lon="-74.3222930">
        <ele>2635.7</ele>
        <time>2018-08-10T16:37:44Z</time>
      </trkpt>
      <trkpt lat="4.6854580" lon="-74.3223220">
        <ele>2636.2</ele>
        <time>2018-08-10T16:37:45Z</time>
      </trkpt>
      <trkpt lat="4.6854900" lon="-74.3223500">
        <ele>2636.6</ele>
        <time>2018-08-10T16:37:46Z</time>
      </trkpt>
      <trkpt lat="4.6855250" lon="-74.3223700">
        <ele>2637.1</ele>
        <time>2018-08-10T16:37:47Z</time>
      </trkpt>
      <trkpt lat="4.6855670" lon="-74.3223880">
        <ele>2637.6</ele>
        <time>2018-08-10T16:37:48Z</time>
      </trkpt>
      <trkpt lat="4.6856080" lon="-74.3224070">
        <ele>2638.2</ele>
        <time>2018-08-10T16:37:49Z</time>
      </trkpt>
      <trkpt lat="4.6856500" lon="-74.3224280">
        <ele>2638.7</ele>
        <time>2018-08-10T16:37:50Z</time>
      </trkpt>
      <trkpt lat="4.6856930" lon="-74.3224500">
        <ele>2639.3</ele>
        <time>2018-08-10T16:37:51Z</time>
      </trkpt>
      <trkpt lat="4.6857420" lon="-74.3224730">
        <ele>2640.0</ele>
        <time>2018-08-10T16:37:52Z</time>
      </trkpt>
      <trkpt lat="4.6857830" lon="-74.3224930">
        <ele>2640.6</ele>
        <time>2018-08-10T16:37:53Z</time>
      </trkpt>
      <trkpt lat="4.6858230" lon="-74.3225100">
        <ele>2641.2</ele>
        <time>2018-08-10T16:37:54Z</time>
      </trkpt>
      <trkpt lat="4.6858650" lon="-74.3225280">
        <ele>2641.8</ele>
        <time>2018-08-10T16:37:55Z</time>
      </trkpt>
      <trkpt lat="4.6859100" lon="-74.3225480">
        <ele>2642.5</ele>
        <time>2018-08-10T16:37:56Z</time>
      </trkpt>
      <trkpt lat="4.6859470" lon="-74.3225700">
        <ele>2643.1</ele>
        <time>2018-08-10T16:37:57Z</time>
      </trkpt>
      <trkpt lat="4.6859820" lon="-74.3225870">
        <ele>2643.6</ele>
        <time>2018-08-10T16:37:58Z</time>
      </trkpt>
      <trkpt lat="4.6860200" lon="-74.3225980">
        <ele>2644.1</ele>
        <time>2018-08-10T16:37:59Z</time>
      </trkpt>
      <trkpt lat="4.6860550" lon="-74.3226230">
        <ele>2644.7</ele>
        <time>2018-08-10T16:38:00Z</time>
      </trkpt>
      <trkpt lat="4.6860900" lon="-74.3226400">
        <ele>2645.2</ele>
        <time>2018-08-10T16:38:01Z</time>
      </trkpt>
      <trkpt lat="4.6861250" lon="-74.3226650">
        <ele>2645.8</ele>
        <time>2018-08-10T16:38:02Z</time>
      </trkpt>
      <trkpt lat="4.6861580" lon="-74.3226920">
        <ele>2646.3</ele>
        <time>2018-08-10T16:38:03Z</time>
      </trkpt>
      <trkpt lat="4.6861880" lon="-74.3227170">
        <ele>2646.9</ele>
        <time>2018-08-10T16:38:04Z</time>
      </trkpt>
      <trkpt lat="4.6862250" lon="-74.3227370">
        <ele>2647.4</ele>
        <time>2018-08-10T16:38:05Z</time>
      </trkpt>
      <trkpt lat="4.6862600" lon="-74.3227520">
        <ele>2647.9</ele>
        <time>2018-08-10T16:38:06Z</time>
      </trkpt>
      <trkpt lat="4.6862900" lon="-74.3227680">
        <ele>2648.2</ele>
        <time>2018-08-10T16:38:07Z</time>
      </trkpt>
      <trkpt lat="4.6863180" lon="-74.3227970">
        <ele>2648.6</ele>
        <time>2018-08-10T16:38:08Z</time>
      </trkpt>
      <trkpt lat="4.6863480" lon="-74.3228330">
        <ele>2649.0</ele>
        <time>2018-08-10T16:38:09Z</time>
      </trkpt>
      <trkpt lat="4.6863770" lon="-74.3228650">
        <ele>2649.4</ele>
        <time>2018-08-10T16:38:10Z</time>
      </trkpt>
      <trkpt lat="4.6864020" lon="-74.3229000">
        <ele>2649.7</ele>
        <time>2018-08-10T16:38:11Z</time>
      </trkpt>
      <trkpt lat="4.6864230" lon="-74.3229280">
        <ele>2650.0</ele>
        <time>2018-08-10T16:38:12Z</time>
      </trkpt>
      <trkpt lat="4.6864550" lon="-74.3229670">
        <ele>2650.4</ele>
        <time>2018-08-10T16:38:13Z</time>
      </trkpt>
      <trkpt lat="4.6864870" lon="-74.3230020">
        <ele>2650.8</ele>
        <time>2018-08-10T16:38:14Z</time>
      </trkpt>
      <trkpt lat="4.6865150" lon="-74.3230480">
        <ele>2651.2</ele>
        <time>2018-08-10T16:38:15Z</time>
      </trkpt>
      <trkpt lat="4.6865450" lon="-74.3230880">
        <ele>2651.6</ele>
        <time>2018-08-10T16:38:16Z</time>
      </trkpt>
      <trkpt lat="4.6865720" lon="-74.3231200">
        <ele>2651.9</ele>
        <time>2018-08-10T16:38:17Z</time>
      </trkpt>
      <trkpt lat="4.6865970" lon="-74.3231580">
        <ele>2652.3</ele>
        <time>2018-08-10T16:38:18Z</time>
      </trkpt>
      <trkpt lat="4.6866200" lon="-74.3232080">
        <ele>2652.7</ele>
        <time>2018-08-10T16:38:19Z</time>
      </trkpt>
      <trkpt lat="4.6866420" lon="-74.3232480">
        <ele>2653.0</ele>
        <time>2018-08-10T16:38:20Z</time>
      </trkpt>
      <trkpt lat="4.6866650" lon="-74.3233050">
        <ele>2653.4</ele>
        <time>2018-08-10T16:38:21Z</time>
      </trkpt>
      <trkpt lat="4.6866880" lon="-74.3233480">
        <ele>2653.8</ele>
        <time>2018-08-10T16:38:22Z</time>
      </trkpt>
      <trkpt lat="4.6867130" lon="-74.3233800">
        <ele>2654.1</ele>
        <time>2018-08-10T16:38:23Z</time>
      </trkpt>
      <trkpt lat="4.6867350" lon="-74.3234200">
        <ele>2654.4</ele>
        <time>2018-08-10T16:38:24Z</time>
      </trkpt>
      <trkpt lat="4.6867530" lon="-74.3234600">
        <ele>2654.8</ele>
        <time>2018-08-10T16:38:25Z</time>
      </trkpt>
      <trkpt lat="4.6867700" lon="-74.3235070">
        <ele>2655.2</ele>
        <time>2018-08-10T16:38:26Z</time>
      </trkpt>
      <trkpt lat="4.6867930" lon="-74.3235570">
        <ele>2655.6</ele>
        <time>2018-08-10T16:38:27Z</time>
      </trkpt>
      <trkpt lat="4.6868100" lon="-74.3236020">
        <ele>2656.0</ele>
        <time>2018-08-10T16:38:28Z</time>
      </trkpt>
      <trkpt lat="4.6868320" lon="-74.3236430">
        <ele>2656.3</ele>
        <time>2018-08-10T16:38:29Z</time>
      </trkpt>
      <trkpt lat="4.6868500" lon="-74.3236830">
        <ele>2656.7</ele>
        <time>2018-08-10T16:38:30Z</time>
      </trkpt>
      <trkpt lat="4.6868720" lon="-74.3237270">
        <ele>2657.1</ele>
        <time>2018-08-10T16:38:31Z</time>
      </trkpt>
      <trkpt lat="4.6868930" lon="-74.3237780">
        <ele>2657.5</ele>
        <time>2018-08-10T16:38:32Z</time>
      </trkpt>
      <trkpt lat="4.6869120" lon="-74.3238250">
        <ele>2657.9</ele>
        <time>2018-08-10T16:38:33Z</time>
      </trkpt>
      <trkpt lat="4.6869320" lon="-74.3238650">
        <ele>2658.3</ele>
        <time>2018-08-10T16:38:34Z</time>
      </trkpt>
      <trkpt lat="4.6869620" lon="-74.3239030">
        <ele>2658.7</ele>
        <time>2018-08-10T16:38:35Z</time>
      </trkpt>
      <trkpt lat="4.6869880" lon="-74.3239400">
        <ele>2659.1</ele>
        <time>2018-08-10T16:38:36Z</time>
      </trkpt>
      <trkpt lat="4.6870080" lon="-74.3239830">
        <ele>2659.4</ele>
        <time>2018-08-10T16:38:37Z</time>
      </trkpt>
      <trkpt lat="4.6870280" lon="-74.3240180">
        <ele>2659.8</ele>
        <time>2018-08-10T16:38:38Z</time>
      </trkpt>
      <trkpt lat="4.6870480" lon="-74.3240550">
        <ele>2660.1</ele>
        <time>2018-08-10T16:38:39Z</time>
      </trkpt>
      <trkpt lat="4.6870750" lon="-74.3240900">
        <ele>2660.5</ele>
        <time>2018-08-10T16:38:40Z</time>
      </trkpt>
      <trkpt lat="4.6871080" lon="-74.3241220">
        <ele>2660.9</ele>
        <time>2018-08-10T16:38:41Z</time>
      </trkpt>
      <trkpt lat="4.6871430" lon="-74.3241550">
        <ele>2661.3</ele>
        <time>2018-08-10T16:38:42Z</time>
      </trkpt>
      <trkpt lat="4.6871800" lon="-74.3241900">
        <ele>2661.8</ele>
        <time>2018-08-10T16:38:43Z</time>
      </trkpt>
      <trkpt lat="4.6872080" lon="-74.3242180">
        <ele>2662.1</ele>
        <time>2018-08-10T16:38:44Z</time>
      </trkpt>
      <trkpt lat="4.6872380" lon="-74.3242480">
        <ele>2662.5</ele>
        <time>2018-08-10T16:38:45Z</time>
      </trkpt>
      <trkpt lat="4.6872700" lon="-74.3242720">
        <ele>2662.8</ele>
        <time>2018-08-10T16:38:46Z</time>
      </trkpt>
      <trkpt lat="4.6873120" lon="-74.3243030">
        <ele>2663.3</ele>
        <time>2018-08-10T16:38:47Z</time>
      </trkpt>
      <trkpt lat="4.6873520" lon="-74.3243280">
        <ele>2663.7</ele>
        <time>2018-08-10T16:38:48Z</time>
      </trkpt>
      <trkpt lat="4.6873880" lon="-74.3243620">
        <ele>2664.1</ele>
        <time>2018-08-10T16:38:49Z</time>
      </trkpt>
      <trkpt lat="4.6874170" lon="-74.3243970">
        <ele>2664.5</ele>
        <time>2018-08-10T16:38:50Z</time>
      </trkpt>
      <trkpt lat="4.6874470" lon="-74.3244250">
        <ele>2664.9</ele>
        <time>2018-08-10T16:38:51Z</time>
      </trkpt>
      <trkpt lat="4.6874770" lon="-74.3244530">
        <ele>2665.3</ele>
        <time>2018-08-10T16:38:52Z</time>
      </trkpt>
      <trkpt lat="4.6875070" lon="-74.3244850">
        <ele>2665.7</ele>
        <time>2018-08-10T16:38:53Z</time>
      </trkpt>
      <trkpt lat="4.6875350" lon="-74.3245180">
        <ele>2666.1</ele>
        <time>2018-08-10T16:38:54Z</time>
      </trkpt>
      <trkpt lat="4.6875670" lon="-74.3245550">
        <ele>2666.5</ele>
        <time>2018-08-10T16:38:55Z</time>
      </trkpt>
      <trkpt lat="4.6875930" lon="-74.3245870">
        <ele>2666.9</ele>
        <time>2018-08-10T16:38:56Z</time>
      </trkpt>
      <trkpt lat="4.6876180" lon="-74.3246180">
        <ele>2667.2</ele>
        <time>2018-08-10T16:38:57Z</time>
      </trkpt>
      <trkpt lat="4.6876450" lon="-74.3246480">
        <ele>2667.6</ele>
        <time>2018-08-10T16:38:58Z</time>
      </trkpt>
      <trkpt lat="4.6876700" lon="-74.3246730">
        <ele>2667.9</ele>
        <time>2018-08-10T16:38:59Z</time>
      </trkpt>
      <trkpt lat="4.6876970" lon="-74.3246970">
        <ele>2668.2</ele>
        <time>2018-08-10T16:39:00Z</time>
      </trkpt>
      <trkpt lat="4.6877200" lon="-74.3247220">
        <ele>2668.5</ele>
        <time>2018-08-10T16:39:01Z</time>
      </trkpt>
      <trkpt lat="4.6877450" lon="-74.3247480">
        <ele>2668.8</ele>
        <time>2018-08-10T16:39:02Z</time>
      </trkpt>
      <trkpt lat="4.6877720" lon="-74.3247800">
        <ele>2669.2</ele>
        <time>2018-08-10T16:39:03Z</time>
      </trkpt>
      <trkpt lat="4.6877930" lon="-74.3248120">
        <ele>2669.6</ele>
        <time>2018-08-10T16:39:04Z</time>
      </trkpt>
      <trkpt lat="4.6878170" lon="-74.3248370">
        <ele>2669.9</ele>
        <time>2018-08-10T16:39:05Z</time>
      </trkpt>
      <trkpt lat="4.6878380" lon="-74.3248620">
        <ele>2670.2</ele>
        <time>2018-08-10T16:39:06Z</time>
      </trkpt>
      <trkpt lat="4.6878600" lon="-74.3248850">
        <ele>2670.5</ele>
        <time>2018-08-10T16:39:07Z</time>
      </trkpt>
      <trkpt lat="4.6878870" lon="-74.3249100">
        <ele>2670.8</ele>
        <time>2018-08-10T16:39:08Z</time>
      </trkpt>
      <trkpt lat="4.6879130" lon="-74.3249370">
        <ele>2671.2</ele>
        <time>2018-08-10T16:39:09Z</time>
      </trkpt>
      <trkpt lat="4.6879400" lon="-74.3249720">
        <ele>2671.6</ele>
        <time>2018-08-10T16:39:10Z</time>
      </trkpt>
      <trkpt lat="4.6879630" lon="-74.3250080">
        <ele>2671.9</ele>
        <time>2018-08-10T16:39:11Z</time>
      </trkpt>
      <trkpt lat="4.6879900" lon="-74.3250470">
        <ele>2672.4</ele>
        <time>2018-08-10T16:39:12Z</time>
      </trkpt>
      <trkpt lat="4.6880200" lon="-74.3250870">
        <ele>2672.8</ele>
        <time>2018-08-10T16:39:13Z</time>
      </trkpt>
      <trkpt lat="4.6880500" lon="-74.3251250">
        <ele>2673.1</ele>
        <time>2018-08-10T16:39:14Z</time>
      </trkpt>
      <trkpt lat="4.6880830" lon="-74.3251580">
        <ele>2673.4</ele>
        <time>2018-08-10T16:39:15Z</time>
      </trkpt>
      <trkpt lat="4.6881150" lon="-74.3251900">
        <ele>2674.6</ele>
        <time>2018-08-10T16:39:16Z</time>
      </trkpt>
      <trkpt lat="4.6881430" lon="-74.3252200">
        <ele>2675.1</ele>
        <time>2018-08-10T16:39:17Z</time>
      </trkpt>
      <trkpt lat="4.6881680" lon="-74.3252600">
        <ele>2676.5</ele>
        <time>2018-08-10T16:39:18Z</time>
      </trkpt>
      <trkpt lat="4.6881930" lon="-74.3252980">
        <ele>2676.5</ele>
        <time>2018-08-10T16:39:19Z</time>
      </trkpt>
      <trkpt lat="4.6882170" lon="-74.3253300">
        <ele>2677.7</ele>
        <time>2018-08-10T16:39:20Z</time>
      </trkpt>
      <trkpt lat="4.6882380" lon="-74.3253630">
        <ele>2678.5</ele>
        <time>2018-08-10T16:39:21Z</time>
      </trkpt>
      <trkpt lat="4.6882620" lon="-74.3253950">
        <ele>2679.7</ele>
        <time>2018-08-10T16:39:22Z</time>
      </trkpt>
      <trkpt lat="4.6882820" lon="-74.3254250">
        <ele>2680.2</ele>
        <time>2018-08-10T16:39:23Z</time>
      </trkpt>
      <trkpt lat="4.6883030" lon="-74.3254570">
        <ele>2680.9</ele>
        <time>2018-08-10T16:39:24Z</time>
      </trkpt>
      <trkpt lat="4.6883320" lon="-74.3254970">
        <ele>2682.2</ele>
        <time>2018-08-10T16:39:25Z</time>
      </trkpt>
      <trkpt lat="4.6883580" lon="-74.3255280">
        <ele>2682.9</ele>
        <time>2018-08-10T16:39:26Z</time>
      </trkpt>
      <trkpt lat="4.6883800" lon="-74.3255570">
        <ele>2683.8</ele>
        <time>2018-08-10T16:39:27Z</time>
      </trkpt>
      <trkpt lat="4.6884050" lon="-74.3255930">
        <ele>2683.8</ele>
        <time>2018-08-10T16:39:28Z</time>
      </trkpt>
      <trkpt lat="4.6884280" lon="-74.3256220">
        <ele>2684.4</ele>
        <time>2018-08-10T16:39:29Z</time>
      </trkpt>
      <trkpt lat="4.6884550" lon="-74.3256500">
        <ele>2684.7</ele>
        <time>2018-08-10T16:39:30Z</time>
      </trkpt>
      <trkpt lat="4.6884850" lon="-74.3256820">
        <ele>2684.7</ele>
        <time>2018-08-10T16:39:31Z</time>
      </trkpt>
      <trkpt lat="4.6885080" lon="-74.3257100">
        <ele>2685.0</ele>
        <time>2018-08-10T16:39:32Z</time>
      </trkpt>
      <trkpt lat="4.6885300" lon="-74.3257350">
        <ele>2685.3</ele>
        <time>2018-08-10T16:39:33Z</time>
      </trkpt>
      <trkpt lat="4.6885570" lon="-74.3257600">
        <ele>2685.3</ele>
        <time>2018-08-10T16:39:34Z</time>
      </trkpt>
      <trkpt lat="4.6885850" lon="-74.3258020">
        <ele>2685.6</ele>
        <time>2018-08-10T16:39:35Z</time>
      </trkpt>
      <trkpt lat="4.6886080" lon="-74.3258320">
        <ele>2685.9</ele>
        <time>2018-08-10T16:39:36Z</time>
      </trkpt>
      <trkpt lat="4.6886270" lon="-74.3258570">
        <ele>2686.0</ele>
        <time>2018-08-10T16:39:37Z</time>
      </trkpt>
      <trkpt lat="4.6886480" lon="-74.3258850">
        <ele>2686.3</ele>
        <time>2018-08-10T16:39:38Z</time>
      </trkpt>
      <trkpt lat="4.6886700" lon="-74.3259170">
        <ele>2687.0</ele>
        <time>2018-08-10T16:39:39Z</time>
      </trkpt>
      <trkpt lat="4.6886950" lon="-74.3259500">
        <ele>2687.7</ele>
        <time>2018-08-10T16:39:40Z</time>
      </trkpt>
      <trkpt lat="4.6887220" lon="-74.3259730">
        <ele>2688.0</ele>
        <time>2018-08-10T16:39:41Z</time>
      </trkpt>
      <trkpt lat="4.6887520" lon="-74.3260000">
        <ele>2688.8</ele>
        <time>2018-08-10T16:39:42Z</time>
      </trkpt>
      <trkpt lat="4.6887800" lon="-74.3260300">
        <ele>2689.8</ele>
        <time>2018-08-10T16:39:43Z</time>
      </trkpt>
      <trkpt lat="4.6888080" lon="-74.3260550">
        <ele>2690.1</ele>
        <time>2018-08-10T16:39:44Z</time>
      </trkpt>
      <trkpt lat="4.6888330" lon="-74.3260850">
        <ele>2690.6</ele>
        <time>2018-08-10T16:39:45Z</time>
      </trkpt>
      <trkpt lat="4.6888650" lon="-74.3261030">
        <ele>2690.7</ele>
        <time>2018-08-10T16:39:46Z</time>
      </trkpt>
      <trkpt lat="4.6888930" lon="-74.3261250">
        <ele>2691.2</ele>
        <time>2018-08-10T16:39:47Z</time>
      </trkpt>
      <trkpt lat="4.6889200" lon="-74.3261570">
        <ele>2691.2</ele>
        <time>2018-08-10T16:39:48Z</time>
      </trkpt>
      <trkpt lat="4.6889470" lon="-74.3262000">
        <ele>2691.3</ele>
        <time>2018-08-10T16:39:49Z</time>
      </trkpt>
      <trkpt lat="4.6889770" lon="-74.3262330">
        <ele>2691.2</ele>
        <time>2018-08-10T16:39:50Z</time>
      </trkpt>
      <trkpt lat="4.6890100" lon="-74.3262620">
        <ele>2691.3</ele>
        <time>2018-08-10T16:39:51Z</time>
      </trkpt>
      <trkpt lat="4.6890350" lon="-74.3262970">
        <ele>2691.2</ele>
        <time>2018-08-10T16:39:52Z</time>
      </trkpt>
      <trkpt lat="4.6890600" lon="-74.3263620">
        <ele>2691.9</ele>
        <time>2018-08-10T16:39:53Z</time>
      </trkpt>
      <trkpt lat="4.6890850" lon="-74.3264070">
        <ele>2692.0</ele>
        <time>2018-08-10T16:39:54Z</time>
      </trkpt>
      <trkpt lat="4.6891150" lon="-74.3264500">
        <ele>2692.8</ele>
        <time>2018-08-10T16:39:55Z</time>
      </trkpt>
      <trkpt lat="4.6891530" lon="-74.3264870">
        <ele>2693.3</ele>
        <time>2018-08-10T16:39:56Z</time>
      </trkpt>
      <trkpt lat="4.6891970" lon="-74.3265150">
        <ele>2693.7</ele>
        <time>2018-08-10T16:39:57Z</time>
      </trkpt>
      <trkpt lat="4.6892370" lon="-74.3265680">
        <ele>2693.8</ele>
        <time>2018-08-10T16:39:58Z</time>
      </trkpt>
      <trkpt lat="4.6892720" lon="-74.3266320">
        <ele>2693.4</ele>
        <time>2018-08-10T16:39:59Z</time>
      </trkpt>
      <trkpt lat="4.6893050" lon="-74.3266750">
        <ele>2693.3</ele>
        <time>2018-08-10T16:40:00Z</time>
      </trkpt>
      <trkpt lat="4.6893470" lon="-74.3267080">
        <ele>2693.7</ele>
        <time>2018-08-10T16:40:01Z</time>
      </trkpt>
      <trkpt lat="4.6893900" lon="-74.3267480">
        <ele>2694.3</ele>
        <time>2018-08-10T16:40:02Z</time>
      </trkpt>
      <trkpt lat="4.6894320" lon="-74.3267900">
        <ele>2695.1</ele>
        <time>2018-08-10T16:40:03Z</time>
      </trkpt>
      <trkpt lat="4.6894800" lon="-74.3268380">
        <ele>2696.4</ele>
        <time>2018-08-10T16:40:04Z</time>
      </trkpt>
      <trkpt lat="4.6895230" lon="-74.3268730">
        <ele>2697.2</ele>
        <time>2018-08-10T16:40:05Z</time>
      </trkpt>
      <trkpt lat="4.6895700" lon="-74.3269130">
        <ele>2698.1</ele>
        <time>2018-08-10T16:40:06Z</time>
      </trkpt>
      <trkpt lat="4.6896200" lon="-74.3269570">
        <ele>2699.2</ele>
        <time>2018-08-10T16:40:07Z</time>
      </trkpt>
      <trkpt lat="4.6896670" lon="-74.3270020">
        <ele>2700.4</ele>
        <time>2018-08-10T16:40:08Z</time>
      </trkpt>
      <trkpt lat="4.6897150" lon="-74.3270500">
        <ele>2701.4</ele>
        <time>2018-08-10T16:40:09Z</time>
      </trkpt>
      <trkpt lat="4.6897620" lon="-74.3270920">
        <ele>2702.1</ele>
        <time>2018-08-10T16:40:10Z</time>
      </trkpt>
      <trkpt lat="4.6898030" lon="-74.3271350">
        <ele>2702.4</ele>
        <time>2018-08-10T16:40:11Z</time>
      </trkpt>
      <trkpt lat="4.6898430" lon="-74.3271680">
        <ele>2702.2</ele>
        <time>2018-08-10T16:40:12Z</time>
      </trkpt>
      <trkpt lat="4.6898820" lon="-74.3272020">
        <ele>2701.7</ele>
        <time>2018-08-10T16:40:13Z</time>
      </trkpt>
      <trkpt lat="4.6899220" lon="-74.3272300">
        <ele>2701.5</ele>
        <time>2018-08-10T16:40:14Z</time>
      </trkpt>
      <trkpt lat="4.6899580" lon="-74.3272570">
        <ele>2700.8</ele>
        <time>2018-08-10T16:40:15Z</time>
      </trkpt>
      <trkpt lat="4.6899950" lon="-74.3272750">
        <ele>2700.1</ele>
        <time>2018-08-10T16:40:16Z</time>
      </trkpt>
      <trkpt lat="4.6900380" lon="-74.3273030">
        <ele>2699.7</ele>
        <time>2018-08-10T16:40:17Z</time>
      </trkpt>
      <trkpt lat="4.6900800" lon="-74.3273280">
        <ele>2698.9</ele>
        <time>2018-08-10T16:40:18Z</time>
      </trkpt>
      <trkpt lat="4.6901230" lon="-74.3273580">
        <ele>2698.7</ele>
        <time>2018-08-10T16:40:19Z</time>
      </trkpt>
      <trkpt lat="4.6901630" lon="-74.3273830">
        <ele>2698.2</ele>
        <time>2018-08-10T16:40:20Z</time>
      </trkpt>
      <trkpt lat="4.6902050" lon="-74.3274100">
        <ele>2697.7</ele>
        <time>2018-08-10T16:40:21Z</time>
      </trkpt>
      <trkpt lat="4.6902420" lon="-74.3274530">
        <ele>2697.4</ele>
        <time>2018-08-10T16:40:22Z</time>
      </trkpt>
      <trkpt lat="4.6902870" lon="-74.3274880">
        <ele>2697.1</ele>
        <time>2018-08-10T16:40:23Z</time>
      </trkpt>
      <trkpt lat="4.6903200" lon="-74.3275330">
        <ele>2696.6</ele>
        <time>2018-08-10T16:40:24Z</time>
      </trkpt>
      <trkpt lat="4.6903670" lon="-74.3275750">
        <ele>2696.0</ele>
        <time>2018-08-10T16:40:25Z</time>
      </trkpt>
      <trkpt lat="4.6904150" lon="-74.3276100">
        <ele>2696.3</ele>
        <time>2018-08-10T16:40:26Z</time>
      </trkpt>
      <trkpt lat="4.6904500" lon="-74.3276430">
        <ele>2695.8</ele>
        <time>2018-08-10T16:40:27Z</time>
      </trkpt>
      <trkpt lat="4.6904870" lon="-74.3276680">
        <ele>2695.5</ele>
        <time>2018-08-10T16:40:28Z</time>
      </trkpt>
      <trkpt lat="4.6905230" lon="-74.3276980">
        <ele>2696.0</ele>
        <time>2018-08-10T16:40:29Z</time>
      </trkpt>
      <trkpt lat="4.6905530" lon="-74.3277220">
        <ele>2695.8</ele>
        <time>2018-08-10T16:40:30Z</time>
      </trkpt>
      <trkpt lat="4.6905800" lon="-74.3277500">
        <ele>2695.3</ele>
        <time>2018-08-10T16:40:31Z</time>
      </trkpt>
      <trkpt lat="4.6906020" lon="-74.3277700">
        <ele>2695.8</ele>
        <time>2018-08-10T16:40:32Z</time>
      </trkpt>
      <trkpt lat="4.6906280" lon="-74.3277820">
        <ele>2695.8</ele>
        <time>2018-08-10T16:40:34Z</time>
      </trkpt>
      <trkpt lat="4.6906550" lon="-74.3278000">
        <ele>2695.5</ele>
        <time>2018-08-10T16:40:38Z</time>
      </trkpt>
      <trkpt lat="4.6906830" lon="-74.3278100">
        <ele>2695.6</ele>
        <time>2018-08-10T16:40:40Z</time>
      </trkpt>
      <trkpt lat="4.6907200" lon="-74.3278320">
        <ele>2694.8</ele>
        <time>2018-08-10T16:40:42Z</time>
      </trkpt>
      <trkpt lat="4.6907580" lon="-74.3278600">
        <ele>2694.8</ele>
        <time>2018-08-10T16:40:44Z</time>
      </trkpt>
      <trkpt lat="4.6907780" lon="-74.3278820">
        <ele>2693.7</ele>
        <time>2018-08-10T16:40:45Z</time>
      </trkpt>
      <trkpt lat="4.6907920" lon="-74.3279120">
        <ele>2693.7</ele>
        <time>2018-08-10T16:40:46Z</time>
      </trkpt>
      <trkpt lat="4.6908100" lon="-74.3279420">
        <ele>2692.6</ele>
        <time>2018-08-10T16:40:47Z</time>
      </trkpt>
      <trkpt lat="4.6908370" lon="-74.3279670">
        <ele>2692.0</ele>
        <time>2018-08-10T16:40:48Z</time>
      </trkpt>
      <trkpt lat="4.6908230" lon="-74.3280180">
        <ele>2691.5</ele>
        <time>2018-08-10T16:40:50Z</time>
      </trkpt>
      <trkpt lat="4.6907880" lon="-74.3280490">
        <ele>2691.5</ele>
        <time>2018-08-10T16:40:53Z</time>
      </trkpt>
      <trkpt lat="4.6907520" lon="-74.3280800">
        <ele>2691.8</ele>
        <time>2018-08-10T16:40:57Z</time>
      </trkpt>
      <trkpt lat="4.6907170" lon="-74.3281110">
        <ele>2691.7</ele>
        <time>2018-08-10T16:41:23Z</time>
      </trkpt>
      <trkpt lat="4.6906820" lon="-74.3281420">
        <ele>2691.4</ele>
        <time>2018-08-10T16:41:24Z</time>
      </trkpt>
      <trkpt lat="4.6906280" lon="-74.3280820">
        <ele>2692.5</ele>
        <time>2018-08-10T16:41:25Z</time>
      </trkpt>
      <trkpt lat="4.6905950" lon="-74.3280230">
        <ele>2692.9</ele>
        <time>2018-08-10T16:41:26Z</time>
      </trkpt>
      <trkpt lat="4.6905480" lon="-74.3280350">
        <ele>2693.1</ele>
        <time>2018-08-10T16:41:28Z</time>
      </trkpt>
      <trkpt lat="4.6905280" lon="-74.3280820">
        <ele>2692.9</ele>
        <time>2018-08-10T16:41:30Z</time>
      </trkpt>
      <trkpt lat="4.6904900" lon="-74.3281000">
        <ele>2693.0</ele>
        <time>2018-08-10T16:41:31Z</time>
      </trkpt>
      <trkpt lat="4.6904670" lon="-74.3280850">
        <ele>2693.1</ele>
        <time>2018-08-10T16:41:32Z</time>
      </trkpt>
      <trkpt lat="4.6903700" lon="-74.3281320">
        <ele>2694.4</ele>
        <time>2018-08-10T16:41:33Z</time>
      </trkpt>
      <trkpt lat="4.6903900" lon="-74.3281070">
        <ele>2693.6</ele>
        <time>2018-08-10T16:41:34Z</time>
      </trkpt>
      <trkpt lat="4.6904080" lon="-74.3280450">
        <ele>2693.1</ele>
        <time>2018-08-10T16:41:35Z</time>
      </trkpt>
      <trkpt lat="4.6904270" lon="-74.3279950">
        <ele>2693.1</ele>
        <time>2018-08-10T16:41:36Z</time>
      </trkpt>
      <trkpt lat="4.6904370" lon="-74.3279480">
        <ele>2693.0</ele>
        <time>2018-08-10T16:41:37Z</time>
      </trkpt>
      <trkpt lat="4.6904350" lon="-74.3279030">
        <ele>2693.0</ele>
        <time>2018-08-10T16:41:38Z</time>
      </trkpt>
      <trkpt lat="4.6904320" lon="-74.3278670">
        <ele>2693.1</ele>
        <time>2018-08-10T16:41:39Z</time>
      </trkpt>
      <trkpt lat="4.6904220" lon="-74.3278280">
        <ele>2693.3</ele>
        <time>2018-08-10T16:41:41Z</time>
      </trkpt>
      <trkpt lat="4.6903980" lon="-74.3278050">
        <ele>2692.7</ele>
        <time>2018-08-10T16:41:45Z</time>
      </trkpt>
      <trkpt lat="4.6904100" lon="-74.3277780">
        <ele>2693.0</ele>
        <time>2018-08-10T16:41:49Z</time>
      </trkpt>
      <trkpt lat="4.6904400" lon="-74.3277820">
        <ele>2693.6</ele>
        <time>2018-08-10T16:41:51Z</time>
      </trkpt>
      <trkpt lat="4.6904700" lon="-74.3277620">
        <ele>2694.2</ele>
        <time>2018-08-10T16:41:52Z</time>
      </trkpt>
      <trkpt lat="4.6905070" lon="-74.3277450">
        <ele>2695.4</ele>
        <time>2018-08-10T16:41:53Z</time>
      </trkpt>
      <trkpt lat="4.6905350" lon="-74.3277370">
        <ele>2695.4</ele>
        <time>2018-08-10T16:41:55Z</time>
      </trkpt>
      <trkpt lat="4.6905520" lon="-74.3277150">
        <ele>2695.8</ele>
        <time>2018-08-10T16:41:57Z</time>
      </trkpt>
      <trkpt lat="4.6905950" lon="-74.3276920">
        <ele>2696.8</ele>
        <time>2018-08-10T16:41:59Z</time>
      </trkpt>
      <trkpt lat="4.6905630" lon="-74.3276870">
        <ele>2696.4</ele>
        <time>2018-08-10T16:42:00Z</time>
      </trkpt>
      <trkpt lat="4.6905400" lon="-74.3276700">
        <ele>2696.0</ele>
        <time>2018-08-10T16:42:02Z</time>
      </trkpt>
      <trkpt lat="4.6904930" lon="-74.3276680">
        <ele>2695.5</ele>
        <time>2018-08-10T16:42:04Z</time>
      </trkpt>
      <trkpt lat="4.6904400" lon="-74.3276500">
        <ele>2695.8</ele>
        <time>2018-08-10T16:42:06Z</time>
      </trkpt>
      <trkpt lat="4.6903970" lon="-74.3276230">
        <ele>2695.4</ele>
        <time>2018-08-10T16:42:07Z</time>
      </trkpt>
      <trkpt lat="4.6903570" lon="-74.3276120">
        <ele>2696.0</ele>
        <time>2018-08-10T16:42:08Z</time>
      </trkpt>
      <trkpt lat="4.6903250" lon="-74.3275900">
        <ele>2695.8</ele>
        <time>2018-08-10T16:42:09Z</time>
      </trkpt>
      <trkpt lat="4.6902820" lon="-74.3275630">
        <ele>2696.5</ele>
        <time>2018-08-10T16:42:11Z</time>
      </trkpt>
      <trkpt lat="4.6902400" lon="-74.3275330">
        <ele>2696.3</ele>
        <time>2018-08-10T16:42:12Z</time>
      </trkpt>
      <trkpt lat="4.6901930" lon="-74.3275170">
        <ele>2696.9</ele>
        <time>2018-08-10T16:42:13Z</time>
      </trkpt>
      <trkpt lat="4.6901380" lon="-74.3274730">
        <ele>2697.4</ele>
        <time>2018-08-10T16:42:14Z</time>
      </trkpt>
      <trkpt lat="4.6900820" lon="-74.3274370">
        <ele>2698.1</ele>
        <time>2018-08-10T16:42:15Z</time>
      </trkpt>
      <trkpt lat="4.6901450" lon="-74.3274480">
        <ele>2697.4</ele>
        <time>2018-08-10T16:42:16Z</time>
      </trkpt>
      <trkpt lat="4.6900980" lon="-74.3274320">
        <ele>2698.1</ele>
        <time>2018-08-10T16:42:17Z</time>
      </trkpt>
      <trkpt lat="4.6900000" lon="-74.3274200">
        <ele>2699.0</ele>
        <time>2018-08-10T16:42:18Z</time>
      </trkpt>
      <trkpt lat="4.6899400" lon="-74.3273980">
        <ele>2700.5</ele>
        <time>2018-08-10T16:42:19Z</time>
      </trkpt>
      <trkpt lat="4.6898820" lon="-74.3273750">
        <ele>2701.1</ele>
        <time>2018-08-10T16:42:20Z</time>
      </trkpt>
      <trkpt lat="4.6898480" lon="-74.3273320">
        <ele>2701.7</ele>
        <time>2018-08-10T16:42:21Z</time>
      </trkpt>
      <trkpt lat="4.6898280" lon="-74.3272930">
        <ele>2701.8</ele>
        <time>2018-08-10T16:42:23Z</time>
      </trkpt>
      <trkpt lat="4.6898080" lon="-74.3272650">
        <ele>2702.1</ele>
        <time>2018-08-10T16:42:24Z</time>
      </trkpt>
      <trkpt lat="4.6897900" lon="-74.3272380">
        <ele>2702.1</ele>
        <time>2018-08-10T16:42:25Z</time>
      </trkpt>
      <trkpt lat="4.6897730" lon="-74.3272120">
        <ele>2702.1</ele>
        <time>2018-08-10T16:42:26Z</time>
      </trkpt>
      <trkpt lat="4.6897630" lon="-74.3271780">
        <ele>2702.2</ele>
        <time>2018-08-10T16:42:27Z</time>
      </trkpt>
      <trkpt lat="4.6897620" lon="-74.3271420">
        <ele>2702.2</ele>
        <time>2018-08-10T16:42:28Z</time>
      </trkpt>
      <trkpt lat="4.6897650" lon="-74.3271050">
        <ele>2702.2</ele>
        <time>2018-08-10T16:42:29Z</time>
      </trkpt>
      <trkpt lat="4.6897700" lon="-74.3270700">
        <ele>2702.1</ele>
        <time>2018-08-10T16:42:30Z</time>
      </trkpt>
      <trkpt lat="4.6897680" lon="-74.3270370">
        <ele>2701.9</ele>
        <time>2018-08-10T16:42:31Z</time>
      </trkpt>
      <trkpt lat="4.6897630" lon="-74.3269820">
        <ele>2701.5</ele>
        <time>2018-08-10T16:42:32Z</time>
      </trkpt>
      <trkpt lat="4.6898080" lon="-74.3269420">
        <ele>2701.9</ele>
        <time>2018-08-10T16:42:33Z</time>
      </trkpt>
      <trkpt lat="4.6898720" lon="-74.3268600">
        <ele>2703.8</ele>
        <time>2018-08-10T16:42:34Z</time>
      </trkpt>
      <trkpt lat="4.6899300" lon="-74.3268080">
        <ele>2705.3</ele>
        <time>2018-08-10T16:42:35Z</time>
      </trkpt>
      <trkpt lat="4.6899580" lon="-74.3267680">
        <ele>2707.0</ele>
        <time>2018-08-10T16:42:36Z</time>
      </trkpt>
      <trkpt lat="4.6899820" lon="-74.3267120">
        <ele>2708.3</ele>
        <time>2018-08-10T16:42:37Z</time>
      </trkpt>
      <trkpt lat="4.6900130" lon="-74.3266600">
        <ele>2710.6</ele>
        <time>2018-08-10T16:42:38Z</time>
      </trkpt>
      <trkpt lat="4.6900070" lon="-74.3267080">
        <ele>2709.8</ele>
        <time>2018-08-10T16:42:39Z</time>
      </trkpt>
      <trkpt lat="4.6899970" lon="-74.3267370">
        <ele>2709.0</ele>
        <time>2018-08-10T16:42:40Z</time>
      </trkpt>
      <trkpt lat="4.6899780" lon="-74.3267930">
        <ele>2707.0</ele>
        <time>2018-08-10T16:42:41Z</time>
      </trkpt>
      <trkpt lat="4.6899380" lon="-74.3268550">
        <ele>2704.9</ele>
        <time>2018-08-10T16:42:42Z</time>
      </trkpt>
      <trkpt lat="4.6898480" lon="-74.3269130">
        <ele>2702.7</ele>
        <time>2018-08-10T16:42:44Z</time>
      </trkpt>
      <trkpt lat="4.6898130" lon="-74.3269250">
        <ele>2701.7</ele>
        <time>2018-08-10T16:42:45Z</time>
      </trkpt>
      <trkpt lat="4.6897470" lon="-74.3269580">
        <ele>2701.2</ele>
        <time>2018-08-10T16:42:46Z</time>
      </trkpt>
      <trkpt lat="4.6896880" lon="-74.3270020">
        <ele>2700.4</ele>
        <time>2018-08-10T16:42:47Z</time>
      </trkpt>
      <trkpt lat="4.6896530" lon="-74.3270070">
        <ele>2700.4</ele>
        <time>2018-08-10T16:42:48Z</time>
      </trkpt>
      <trkpt lat="4.6896120" lon="-74.3269970">
        <ele>2699.8</ele>
        <time>2018-08-10T16:42:50Z</time>
      </trkpt>
      <trkpt lat="4.6895730" lon="-74.3269850">
        <ele>2699.2</ele>
        <time>2018-08-10T16:42:52Z</time>
      </trkpt>
      <trkpt lat="4.6895450" lon="-74.3269670">
        <ele>2698.1</ele>
        <time>2018-08-10T16:42:54Z</time>
      </trkpt>
      <trkpt lat="4.6895200" lon="-74.3269520">
        <ele>2697.6</ele>
        <time>2018-08-10T16:42:57Z</time>
      </trkpt>
      <trkpt lat="4.6895020" lon="-74.3269280">
        <ele>2697.1</ele>
        <time>2018-08-10T16:42:58Z</time>
      </trkpt>
      <trkpt lat="4.6894700" lon="-74.3269000">
        <ele>2696.6</ele>
        <time>2018-08-10T16:43:00Z</time>
      </trkpt>
      <trkpt lat="4.6894600" lon="-74.3268670">
        <ele>2696.2</ele>
        <time>2018-08-10T16:43:02Z</time>
      </trkpt>
      <trkpt lat="4.6894550" lon="-74.3268380">
        <ele>2695.9</ele>
        <time>2018-08-10T16:43:05Z</time>
      </trkpt>
      <trkpt lat="4.6894370" lon="-74.3268730">
        <ele>2696.2</ele>
        <time>2018-08-10T16:43:08Z</time>
      </trkpt>
      <trkpt lat="4.6894200" lon="-74.3272380">
        <ele>2698.9</ele>
        <time>2018-08-10T16:46:27Z</time>
      </trkpt>
      <trkpt lat="4.6894120" lon="-74.3272020">
        <ele>2698.8</ele>
        <time>2018-08-10T16:46:35Z</time>
      </trkpt>
      <trkpt lat="4.6892770" lon="-74.3267420">
        <ele>2693.3</ele>
        <time>2018-08-10T16:46:58Z</time>
      </trkpt>
      <trkpt lat="4.6892580" lon="-74.3267220">
        <ele>2693.1</ele>
        <time>2018-08-10T16:46:59Z</time>
      </trkpt>
      <trkpt lat="4.6892400" lon="-74.3267020">
        <ele>2692.9</ele>
        <time>2018-08-10T16:47:00Z</time>
      </trkpt>
      <trkpt lat="4.6892220" lon="-74.3266680">
        <ele>2693.0</ele>
        <time>2018-08-10T16:47:01Z</time>
      </trkpt>
      <trkpt lat="4.6892000" lon="-74.3266370">
        <ele>2693.0</ele>
        <time>2018-08-10T16:47:02Z</time>
      </trkpt>
      <trkpt lat="4.6891730" lon="-74.3265980">
        <ele>2693.1</ele>
        <time>2018-08-10T16:47:03Z</time>
      </trkpt>
      <trkpt lat="4.6891370" lon="-74.3265720">
        <ele>2693.1</ele>
        <time>2018-08-10T16:47:04Z</time>
      </trkpt>
      <trkpt lat="4.6890980" lon="-74.3265470">
        <ele>2693.1</ele>
        <time>2018-08-10T16:47:05Z</time>
      </trkpt>
      <trkpt lat="4.6890280" lon="-74.3265020">
        <ele>2693.3</ele>
        <time>2018-08-10T16:47:06Z</time>
      </trkpt>
      <trkpt lat="4.6889500" lon="-74.3263770">
        <ele>2691.3</ele>
        <time>2018-08-10T16:47:07Z</time>
      </trkpt>
      <trkpt lat="4.6888570" lon="-74.3262680">
        <ele>2691.1</ele>
        <time>2018-08-10T16:47:08Z</time>
      </trkpt>
      <trkpt lat="4.6887650" lon="-74.3261620">
        <ele>2691.6</ele>
        <time>2018-08-10T16:47:09Z</time>
      </trkpt>
      <trkpt lat="4.6887250" lon="-74.3260580">
        <ele>2689.4</ele>
        <time>2018-08-10T16:47:10Z</time>
      </trkpt>
      <trkpt lat="4.6886930" lon="-74.3259430">
        <ele>2687.6</ele>
        <time>2018-08-10T16:47:11Z</time>
      </trkpt>
      <trkpt lat="4.6886280" lon="-74.3258550">
        <ele>2685.9</ele>
        <time>2018-08-10T16:47:12Z</time>
      </trkpt>
      <trkpt lat="4.6885870" lon="-74.3257920">
        <ele>2685.5</ele>
        <time>2018-08-10T16:47:13Z</time>
      </trkpt>
      <trkpt lat="4.6885430" lon="-74.3257530">
        <ele>2685.1</ele>
        <time>2018-08-10T16:47:14Z</time>
      </trkpt>
      <trkpt lat="4.6884830" lon="-74.3257030">
        <ele>2684.9</ele>
        <time>2018-08-10T16:47:15Z</time>
      </trkpt>
      <trkpt lat="4.6884580" lon="-74.3256570">
        <ele>2684.6</ele>
        <time>2018-08-10T16:47:16Z</time>
      </trkpt>
      <trkpt lat="4.6884470" lon="-74.3256170">
        <ele>2684.3</ele>
        <time>2018-08-10T16:47:17Z</time>
      </trkpt>
      <trkpt lat="4.6884230" lon="-74.3255880">
        <ele>2683.9</ele>
        <time>2018-08-10T16:47:18Z</time>
      </trkpt>
      <trkpt lat="4.6884070" lon="-74.3255330">
        <ele>2683.2</ele>
        <time>2018-08-10T16:47:19Z</time>
      </trkpt>
      <trkpt lat="4.6883800" lon="-74.3255030">
        <ele>2682.6</ele>
        <time>2018-08-10T16:47:20Z</time>
      </trkpt>
      <trkpt lat="4.6883620" lon="-74.3254720">
        <ele>2682.1</ele>
        <time>2018-08-10T16:47:21Z</time>
      </trkpt>
      <trkpt lat="4.6884580" lon="-74.3254880">
        <ele>2684.1</ele>
        <time>2018-08-10T16:47:22Z</time>
      </trkpt>
      <trkpt lat="4.6885670" lon="-74.3255930">
        <ele>2685.2</ele>
        <time>2018-08-10T16:47:23Z</time>
      </trkpt>
      <trkpt lat="4.6885570" lon="-74.3256320">
        <ele>2685.0</ele>
        <time>2018-08-10T16:47:24Z</time>
      </trkpt>
      <trkpt lat="4.6885220" lon="-74.3256230">
        <ele>2684.6</ele>
        <time>2018-08-10T16:47:25Z</time>
      </trkpt>
      <trkpt lat="4.6885020" lon="-74.3255780">
        <ele>2684.7</ele>
        <time>2018-08-10T16:47:26Z</time>
      </trkpt>
      <trkpt lat="4.6884770" lon="-74.3255470">
        <ele>2684.2</ele>
        <time>2018-08-10T16:47:27Z</time>
      </trkpt>
      <trkpt lat="4.6884500" lon="-74.3255220">
        <ele>2683.6</ele>
        <time>2018-08-10T16:47:28Z</time>
      </trkpt>
      <trkpt lat="4.6884180" lon="-74.3254950">
        <ele>2683.4</ele>
        <time>2018-08-10T16:47:29Z</time>
      </trkpt>
      <trkpt lat="4.6883880" lon="-74.3254720">
        <ele>2682.6</ele>
        <time>2018-08-10T16:47:30Z</time>
      </trkpt>
      <trkpt lat="4.6883570" lon="-74.3254450">
        <ele>2681.4</ele>
        <time>2018-08-10T16:47:31Z</time>
      </trkpt>
      <trkpt lat="4.6883280" lon="-74.3254170">
        <ele>2680.8</ele>
        <time>2018-08-10T16:47:32Z</time>
      </trkpt>
      <trkpt lat="4.6882950" lon="-74.3253900">
        <ele>2680.1</ele>
        <time>2018-08-10T16:47:33Z</time>
      </trkpt>
      <trkpt lat="4.6882530" lon="-74.3253630">
        <ele>2678.8</ele>
        <time>2018-08-10T16:47:34Z</time>
      </trkpt>
      <trkpt lat="4.6882200" lon="-74.3253300">
        <ele>2677.6</ele>
        <time>2018-08-10T16:47:35Z</time>
      </trkpt>
      <trkpt lat="4.6881800" lon="-74.3253020">
        <ele>2677.1</ele>
        <time>2018-08-10T16:47:36Z</time>
      </trkpt>
      <trkpt lat="4.6881370" lon="-74.3252850">
        <ele>2675.8</ele>
        <time>2018-08-10T16:47:37Z</time>
      </trkpt>
      <trkpt lat="4.6880980" lon="-74.3252630">
        <ele>2675.4</ele>
        <time>2018-08-10T16:47:38Z</time>
      </trkpt>
      <trkpt lat="4.6880670" lon="-74.3252350">
        <ele>2674.1</ele>
        <time>2018-08-10T16:47:39Z</time>
      </trkpt>
      <trkpt lat="4.6880330" lon="-74.3252050">
        <ele>2673.3</ele>
        <time>2018-08-10T16:47:40Z</time>
      </trkpt>
      <trkpt lat="4.6879980" lon="-74.3251700">
        <ele>2672.6</ele>
        <time>2018-08-10T16:47:41Z</time>
      </trkpt>
      <trkpt lat="4.6879680" lon="-74.3251300">
        <ele>2672.6</ele>
        <time>2018-08-10T16:47:42Z</time>
      </trkpt>
      <trkpt lat="4.6879320" lon="-74.3250970">
        <ele>2672.2</ele>
        <time>2018-08-10T16:47:43Z</time>
      </trkpt>
      <trkpt lat="4.6878430" lon="-74.3250550">
        <ele>2671.3</ele>
        <time>2018-08-10T16:47:44Z</time>
      </trkpt>
      <trkpt lat="4.6877370" lon="-74.3249650">
        <ele>2670.0</ele>
        <time>2018-08-10T16:47:45Z</time>
      </trkpt>
      <trkpt lat="4.6876750" lon="-74.3249200">
        <ele>2669.3</ele>
        <time>2018-08-10T16:47:46Z</time>
      </trkpt>
      <trkpt lat="4.6876970" lon="-74.3248950">
        <ele>2669.0</ele>
        <time>2018-08-10T16:47:48Z</time>
      </trkpt>
      <trkpt lat="4.6876880" lon="-74.3248520">
        <ele>2668.6</ele>
        <time>2018-08-10T16:47:51Z</time>
      </trkpt>
      <trkpt lat="4.6876720" lon="-74.3248250">
        <ele>2668.4</ele>
        <time>2018-08-10T16:47:52Z</time>
      </trkpt>
      <trkpt lat="4.6876500" lon="-74.3247920">
        <ele>2668.0</ele>
        <time>2018-08-10T16:47:53Z</time>
      </trkpt>
      <trkpt lat="4.6876320" lon="-74.3247530">
        <ele>2667.7</ele>
        <time>2018-08-10T16:47:54Z</time>
      </trkpt>
      <trkpt lat="4.6876020" lon="-74.3247230">
        <ele>2667.3</ele>
        <time>2018-08-10T16:47:55Z</time>
      </trkpt>
      <trkpt lat="4.6875750" lon="-74.3246880">
        <ele>2666.9</ele>
        <time>2018-08-10T16:47:56Z</time>
      </trkpt>
      <trkpt lat="4.6875430" lon="-74.3246470">
        <ele>2666.4</ele>
        <time>2018-08-10T16:47:57Z</time>
      </trkpt>
      <trkpt lat="4.6875130" lon="-74.3246130">
        <ele>2666.0</ele>
        <time>2018-08-10T16:47:58Z</time>
      </trkpt>
      <trkpt lat="4.6874880" lon="-74.3245830">
        <ele>2665.7</ele>
        <time>2018-08-10T16:47:59Z</time>
      </trkpt>
      <trkpt lat="4.6874600" lon="-74.3245480">
        <ele>2665.3</ele>
        <time>2018-08-10T16:48:00Z</time>
      </trkpt>
      <trkpt lat="4.6874230" lon="-74.3245080">
        <ele>2664.8</ele>
        <time>2018-08-10T16:48:01Z</time>
      </trkpt>
      <trkpt lat="4.6873880" lon="-74.3244670">
        <ele>2664.4</ele>
        <time>2018-08-10T16:48:02Z</time>
      </trkpt>
      <trkpt lat="4.6873550" lon="-74.3244230">
        <ele>2663.9</ele>
        <time>2018-08-10T16:48:03Z</time>
      </trkpt>
      <trkpt lat="4.6873300" lon="-74.3243880">
        <ele>2663.5</ele>
        <time>2018-08-10T16:48:04Z</time>
      </trkpt>
      <trkpt lat="4.6873030" lon="-74.3243570">
        <ele>2663.2</ele>
        <time>2018-08-10T16:48:05Z</time>
      </trkpt>
      <trkpt lat="4.6872720" lon="-74.3243280">
        <ele>2662.8</ele>
        <time>2018-08-10T16:48:06Z</time>
      </trkpt>
      <trkpt lat="4.6872470" lon="-74.3242870">
        <ele>2662.4</ele>
        <time>2018-08-10T16:48:07Z</time>
      </trkpt>
      <trkpt lat="4.6872200" lon="-74.3242480">
        <ele>2662.0</ele>
        <time>2018-08-10T16:48:08Z</time>
      </trkpt>
      <trkpt lat="4.6871980" lon="-74.3242150">
        <ele>2661.6</ele>
        <time>2018-08-10T16:48:09Z</time>
      </trkpt>
      <trkpt lat="4.6871720" lon="-74.3241820">
        <ele>2661.3</ele>
        <time>2018-08-10T16:48:10Z</time>
      </trkpt>
      <trkpt lat="4.6871480" lon="-74.3241480">
        <ele>2660.9</ele>
        <time>2018-08-10T16:48:11Z</time>
      </trkpt>
      <trkpt lat="4.6871230" lon="-74.3241180">
        <ele>2660.6</ele>
        <time>2018-08-10T16:48:12Z</time>
      </trkpt>
      <trkpt lat="4.6870970" lon="-74.3240980">
        <ele>2660.3</ele>
        <time>2018-08-10T16:48:13Z</time>
      </trkpt>
      <trkpt lat="4.6870670" lon="-74.3240680">
        <ele>2660.0</ele>
        <time>2018-08-10T16:48:14Z</time>
      </trkpt>
      <trkpt lat="4.6870400" lon="-74.3240230">
        <ele>2659.5</ele>
        <time>2018-08-10T16:48:15Z</time>
      </trkpt>
      <trkpt lat="4.6870220" lon="-74.3239780">
        <ele>2659.1</ele>
        <time>2018-08-10T16:48:16Z</time>
      </trkpt>
      <trkpt lat="4.6870050" lon="-74.3239470">
        <ele>2658.9</ele>
        <time>2018-08-10T16:48:17Z</time>
      </trkpt>
      <trkpt lat="4.6869800" lon="-74.3239170">
        <ele>2658.5</ele>
        <time>2018-08-10T16:48:18Z</time>
      </trkpt>
      <trkpt lat="4.6869480" lon="-74.3238750">
        <ele>2658.1</ele>
        <time>2018-08-10T16:48:20Z</time>
      </trkpt>
      <trkpt lat="4.6869180" lon="-74.3238470">
        <ele>2657.8</ele>
        <time>2018-08-10T16:48:22Z</time>
      </trkpt>
      <trkpt lat="4.6869080" lon="-74.3238100">
        <ele>2657.5</ele>
        <time>2018-08-10T16:48:23Z</time>
      </trkpt>
      <trkpt lat="4.6868870" lon="-74.3237550">
        <ele>2657.0</ele>
        <time>2018-08-10T16:48:25Z</time>
      </trkpt>
      <trkpt lat="4.6868750" lon="-74.3237200">
        <ele>2656.7</ele>
        <time>2018-08-10T16:48:26Z</time>
      </trkpt>
      <trkpt lat="4.6868620" lon="-74.3236750">
        <ele>2656.4</ele>
        <time>2018-08-10T16:48:27Z</time>
      </trkpt>
      <trkpt lat="4.6868450" lon="-74.3236270">
        <ele>2656.0</ele>
        <time>2018-08-10T16:48:28Z</time>
      </trkpt>
      <trkpt lat="4.6868200" lon="-74.3235820">
        <ele>2655.6</ele>
        <time>2018-08-10T16:48:29Z</time>
      </trkpt>
      <trkpt lat="4.6868020" lon="-74.3235330">
        <ele>2655.2</ele>
        <time>2018-08-10T16:48:30Z</time>
      </trkpt>
      <trkpt lat="4.6867830" lon="-74.3234880">
        <ele>2654.8</ele>
        <time>2018-08-10T16:48:31Z</time>
      </trkpt>
      <trkpt lat="4.6867580" lon="-74.3234520">
        <ele>2654.5</ele>
        <time>2018-08-10T16:48:32Z</time>
      </trkpt>
      <trkpt lat="4.6867270" lon="-74.3234370">
        <ele>2654.2</ele>
        <time>2018-08-10T16:48:33Z</time>
      </trkpt>
      <trkpt lat="4.6867020" lon="-74.3233950">
        <ele>2653.9</ele>
        <time>2018-08-10T16:48:34Z</time>
      </trkpt>
      <trkpt lat="4.6866580" lon="-74.3233730">
        <ele>2653.5</ele>
        <time>2018-08-10T16:48:35Z</time>
      </trkpt>
      <trkpt lat="4.6866250" lon="-74.3233320">
        <ele>2653.1</ele>
        <time>2018-08-10T16:48:36Z</time>
      </trkpt>
      <trkpt lat="4.6865950" lon="-74.3232820">
        <ele>2652.7</ele>
        <time>2018-08-10T16:48:37Z</time>
      </trkpt>
      <trkpt lat="4.6865630" lon="-74.3232450">
        <ele>2652.4</ele>
        <time>2018-08-10T16:48:38Z</time>
      </trkpt>
      <trkpt lat="4.6865320" lon="-74.3232100">
        <ele>2652.0</ele>
        <time>2018-08-10T16:48:39Z</time>
      </trkpt>
      <trkpt lat="4.6864880" lon="-74.3231670">
        <ele>2651.6</ele>
        <time>2018-08-10T16:48:40Z</time>
      </trkpt>
      <trkpt lat="4.6864400" lon="-74.3231400">
        <ele>2651.2</ele>
        <time>2018-08-10T16:48:41Z</time>
      </trkpt>
      <trkpt lat="4.6863730" lon="-74.3231070">
        <ele>2650.6</ele>
        <time>2018-08-10T16:48:42Z</time>
      </trkpt>
      <trkpt lat="4.6863200" lon="-74.3230680">
        <ele>2650.1</ele>
        <time>2018-08-10T16:48:43Z</time>
      </trkpt>
      <trkpt lat="4.6862820" lon="-74.3230280">
        <ele>2649.6</ele>
        <time>2018-08-10T16:48:44Z</time>
      </trkpt>
      <trkpt lat="4.6862400" lon="-74.3229850">
        <ele>2649.1</ele>
        <time>2018-08-10T16:48:45Z</time>
      </trkpt>
      <trkpt lat="4.6862020" lon="-74.3229350">
        <ele>2648.6</ele>
        <time>2018-08-10T16:48:46Z</time>
      </trkpt>
      <trkpt lat="4.6861280" lon="-74.3228570">
        <ele>2647.4</ele>
        <time>2018-08-10T16:48:47Z</time>
      </trkpt>
      <trkpt lat="4.6860670" lon="-74.3228070">
        <ele>2646.3</ele>
        <time>2018-08-10T16:48:48Z</time>
      </trkpt>
      <trkpt lat="4.6859870" lon="-74.3227430">
        <ele>2645.0</ele>
        <time>2018-08-10T16:48:49Z</time>
      </trkpt>
      <trkpt lat="4.6859450" lon="-74.3227120">
        <ele>2644.3</ele>
        <time>2018-08-10T16:48:50Z</time>
      </trkpt>
      <trkpt lat="4.6858980" lon="-74.3226650">
        <ele>2643.4</ele>
        <time>2018-08-10T16:48:51Z</time>
      </trkpt>
      <trkpt lat="4.6858650" lon="-74.3226470">
        <ele>2642.9</ele>
        <time>2018-08-10T16:48:52Z</time>
      </trkpt>
      <trkpt lat="4.6858170" lon="-74.3226220">
        <ele>2642.2</ele>
        <time>2018-08-10T16:48:53Z</time>
      </trkpt>
      <trkpt lat="4.6857650" lon="-74.3225650">
        <ele>2641.1</ele>
        <time>2018-08-10T16:48:54Z</time>
      </trkpt>
      <trkpt lat="4.6857080" lon="-74.3225300">
        <ele>2640.2</ele>
        <time>2018-08-10T16:48:55Z</time>
      </trkpt>
      <trkpt lat="4.6856700" lon="-74.3225130">
        <ele>2639.7</ele>
        <time>2018-08-10T16:48:56Z</time>
      </trkpt>
      <trkpt lat="4.6856330" lon="-74.3224920">
        <ele>2639.2</ele>
        <time>2018-08-10T16:48:57Z</time>
      </trkpt>
      <trkpt lat="4.6855970" lon="-74.3224670">
        <ele>2638.6</ele>
        <time>2018-08-10T16:48:58Z</time>
      </trkpt>
      <trkpt lat="4.6855230" lon="-74.3224150">
        <ele>2637.6</ele>
        <time>2018-08-10T16:49:00Z</time>
      </trkpt>
      <trkpt lat="4.6854750" lon="-74.3223580">
        <ele>2636.7</ele>
        <time>2018-08-10T16:49:01Z</time>
      </trkpt>
      <trkpt lat="4.6854480" lon="-74.3222980">
        <ele>2636.0</ele>
        <time>2018-08-10T16:49:02Z</time>
      </trkpt>
      <trkpt lat="4.6854280" lon="-74.3222620">
        <ele>2635.5</ele>
        <time>2018-08-10T16:49:03Z</time>
      </trkpt>
      <trkpt lat="4.6853930" lon="-74.3222230">
        <ele>2635.0</ele>
        <time>2018-08-10T16:49:04Z</time>
      </trkpt>
      <trkpt lat="4.6853630" lon="-74.3221920">
        <ele>2634.5</ele>
        <time>2018-08-10T16:49:05Z</time>
      </trkpt>
      <trkpt lat="4.6853280" lon="-74.3221670">
        <ele>2634.1</ele>
        <time>2018-08-10T16:49:06Z</time>
      </trkpt>
      <trkpt lat="4.6852970" lon="-74.3221420">
        <ele>2633.7</ele>
        <time>2018-08-10T16:49:07Z</time>
      </trkpt>
      <trkpt lat="4.6852700" lon="-74.3221200">
        <ele>2633.3</ele>
        <time>2018-08-10T16:49:08Z</time>
      </trkpt>
      <trkpt lat="4.6852400" lon="-74.3220900">
        <ele>2632.9</ele>
        <time>2018-08-10T16:49:09Z</time>
      </trkpt>
      <trkpt lat="4.6852130" lon="-74.3220670">
        <ele>2632.6</ele>
        <time>2018-08-10T16:49:10Z</time>
      </trkpt>
      <trkpt lat="4.6851800" lon="-74.3220370">
        <ele>2632.2</ele>
        <time>2018-08-10T16:49:11Z</time>
      </trkpt>
      <trkpt lat="4.6851550" lon="-74.3220150">
        <ele>2631.9</ele>
        <time>2018-08-10T16:49:12Z</time>
      </trkpt>
      <trkpt lat="4.6851200" lon="-74.3219830">
        <ele>2631.5</ele>
        <time>2018-08-10T16:49:13Z</time>
      </trkpt>
      <trkpt lat="4.6850880" lon="-74.3219530">
        <ele>2631.1</ele>
        <time>2018-08-10T16:49:14Z</time>
      </trkpt>
      <trkpt lat="4.6850530" lon="-74.3219230">
        <ele>2630.8</ele>
        <time>2018-08-10T16:49:15Z</time>
      </trkpt>
      <trkpt lat="4.6850170" lon="-74.3218630">
        <ele>2630.2</ele>
        <time>2018-08-10T16:49:16Z</time>
      </trkpt>
      <trkpt lat="4.6849780" lon="-74.3218080">
        <ele>2629.7</ele>
        <time>2018-08-10T16:49:17Z</time>
      </trkpt>
      <trkpt lat="4.6849450" lon="-74.3217570">
        <ele>2629.2</ele>
        <time>2018-08-10T16:49:18Z</time>
      </trkpt>
      <trkpt lat="4.6849080" lon="-74.3217180">
        <ele>2628.8</ele>
        <time>2018-08-10T16:49:19Z</time>
      </trkpt>
      <trkpt lat="4.6848800" lon="-74.3216780">
        <ele>2628.4</ele>
        <time>2018-08-10T16:49:20Z</time>
      </trkpt>
      <trkpt lat="4.6848420" lon="-74.3216470">
        <ele>2628.0</ele>
        <time>2018-08-10T16:49:21Z</time>
      </trkpt>
      <trkpt lat="4.6847980" lon="-74.3216030">
        <ele>2627.5</ele>
        <time>2018-08-10T16:49:22Z</time>
      </trkpt>
      <trkpt lat="4.6847550" lon="-74.3215570">
        <ele>2627.0</ele>
        <time>2018-08-10T16:49:23Z</time>
      </trkpt>
      <trkpt lat="4.6847180" lon="-74.3215130">
        <ele>2626.5</ele>
        <time>2018-08-10T16:49:24Z</time>
      </trkpt>
      <trkpt lat="4.6846820" lon="-74.3214720">
        <ele>2626.1</ele>
        <time>2018-08-10T16:49:25Z</time>
      </trkpt>
      <trkpt lat="4.6846470" lon="-74.3214370">
        <ele>2625.7</ele>
        <time>2018-08-10T16:49:26Z</time>
      </trkpt>
      <trkpt lat="4.6846380" lon="-74.3214080">
        <ele>2625.5</ele>
        <time>2018-08-10T16:49:27Z</time>
      </trkpt>
      <trkpt lat="4.6846080" lon="-74.3213670">
        <ele>2625.1</ele>
        <time>2018-08-10T16:49:28Z</time>
      </trkpt>
      <trkpt lat="4.6845780" lon="-74.3213330">
        <ele>2624.8</ele>
        <time>2018-08-10T16:49:29Z</time>
      </trkpt>
      <trkpt lat="4.6845630" lon="-74.3212870">
        <ele>2624.4</ele>
        <time>2018-08-10T16:49:31Z</time>
      </trkpt>
      <trkpt lat="4.6845500" lon="-74.3212620">
        <ele>2624.3</ele>
        <time>2018-08-10T16:49:32Z</time>
      </trkpt>
      <trkpt lat="4.6845320" lon="-74.3212280">
        <ele>2624.0</ele>
        <time>2018-08-10T16:49:33Z</time>
      </trkpt>
      <trkpt lat="4.6845030" lon="-74.3212120">
        <ele>2623.8</ele>
        <time>2018-08-10T16:49:34Z</time>
      </trkpt>
      <trkpt lat="4.6844820" lon="-74.3211800">
        <ele>2623.6</ele>
        <time>2018-08-10T16:49:35Z</time>
      </trkpt>
      <trkpt lat="4.6844480" lon="-74.3211630">
        <ele>2623.4</ele>
        <time>2018-08-10T16:49:36Z</time>
      </trkpt>
      <trkpt lat="4.6844200" lon="-74.3211400">
        <ele>2623.2</ele>
        <time>2018-08-10T16:49:37Z</time>
      </trkpt>
      <trkpt lat="4.6844080" lon="-74.3211100">
        <ele>2623.1</ele>
        <time>2018-08-10T16:49:38Z</time>
      </trkpt>
      <trkpt lat="4.6843820" lon="-74.3210780">
        <ele>2623.0</ele>
        <time>2018-08-10T16:49:39Z</time>
      </trkpt>
      <trkpt lat="4.6843670" lon="-74.3210480">
        <ele>2623.0</ele>
        <time>2018-08-10T16:49:40Z</time>
      </trkpt>
      <trkpt lat="4.6843430" lon="-74.3210080">
        <ele>2622.9</ele>
        <time>2018-08-10T16:49:41Z</time>
      </trkpt>
      <trkpt lat="4.6843220" lon="-74.3209630">
        <ele>2622.7</ele>
        <time>2018-08-10T16:49:42Z</time>
      </trkpt>
      <trkpt lat="4.6842950" lon="-74.3209170">
        <ele>2622.6</ele>
        <time>2018-08-10T16:49:43Z</time>
      </trkpt>
      <trkpt lat="4.6842780" lon="-74.3208780">
        <ele>2622.5</ele>
        <time>2018-08-10T16:49:44Z</time>
      </trkpt>
      <trkpt lat="4.6842580" lon="-74.3208370">
        <ele>2622.4</ele>
        <time>2018-08-10T16:49:45Z</time>
      </trkpt>
      <trkpt lat="4.6842400" lon="-74.3208020">
        <ele>2622.3</ele>
        <time>2018-08-10T16:49:46Z</time>
      </trkpt>
      <trkpt lat="4.6842200" lon="-74.3207620">
        <ele>2622.2</ele>
        <time>2018-08-10T16:49:47Z</time>
      </trkpt>
      <trkpt lat="4.6841970" lon="-74.3207250">
        <ele>2622.2</ele>
        <time>2018-08-10T16:49:48Z</time>
      </trkpt>
      <trkpt lat="4.6841730" lon="-74.3206880">
        <ele>2622.1</ele>
        <time>2018-08-10T16:49:49Z</time>
      </trkpt>
      <trkpt lat="4.6841520" lon="-74.3206450">
        <ele>2622.0</ele>
        <time>2018-08-10T16:49:50Z</time>
      </trkpt>
      <trkpt lat="4.6841170" lon="-74.3206030">
        <ele>2621.8</ele>
        <time>2018-08-10T16:49:51Z</time>
      </trkpt>
      <trkpt lat="4.6840880" lon="-74.3205720">
        <ele>2621.7</ele>
        <time>2018-08-10T16:49:52Z</time>
      </trkpt>
      <trkpt lat="4.6840670" lon="-74.3205470">
        <ele>2621.5</ele>
        <time>2018-08-10T16:49:53Z</time>
      </trkpt>
      <trkpt lat="4.6840370" lon="-74.3205100">
        <ele>2621.4</ele>
        <time>2018-08-10T16:49:54Z</time>
      </trkpt>
      <trkpt lat="4.6840150" lon="-74.3204770">
        <ele>2621.2</ele>
        <time>2018-08-10T16:49:55Z</time>
      </trkpt>
      <trkpt lat="4.6839850" lon="-74.3204430">
        <ele>2621.0</ele>
        <time>2018-08-10T16:49:56Z</time>
      </trkpt>
      <trkpt lat="4.6839300" lon="-74.3203980">
        <ele>2620.8</ele>
        <time>2018-08-10T16:49:57Z</time>
      </trkpt>
      <trkpt lat="4.6839070" lon="-74.3203680">
        <ele>2620.7</ele>
        <time>2018-08-10T16:49:58Z</time>
      </trkpt>
      <trkpt lat="4.6838850" lon="-74.3203380">
        <ele>2620.6</ele>
        <time>2018-08-10T16:49:59Z</time>
      </trkpt>
      <trkpt lat="4.6838670" lon="-74.3203020">
        <ele>2620.5</ele>
        <time>2018-08-10T16:50:00Z</time>
      </trkpt>
      <trkpt lat="4.6838530" lon="-74.3202680">
        <ele>2620.4</ele>
        <time>2018-08-10T16:50:01Z</time>
      </trkpt>
      <trkpt lat="4.6838320" lon="-74.3202330">
        <ele>2620.4</ele>
        <time>2018-08-10T16:50:02Z</time>
      </trkpt>
      <trkpt lat="4.6838020" lon="-74.3201950">
        <ele>2620.4</ele>
        <time>2018-08-10T16:50:03Z</time>
      </trkpt>
      <trkpt lat="4.6837770" lon="-74.3201530">
        <ele>2620.3</ele>
        <time>2018-08-10T16:50:04Z</time>
      </trkpt>
      <trkpt lat="4.6837600" lon="-74.3201180">
        <ele>2620.3</ele>
        <time>2018-08-10T16:50:05Z</time>
      </trkpt>
      <trkpt lat="4.6837400" lon="-74.3200800">
        <ele>2620.2</ele>
        <time>2018-08-10T16:50:06Z</time>
      </trkpt>
      <trkpt lat="4.6837320" lon="-74.3200470">
        <ele>2620.2</ele>
        <time>2018-08-10T16:50:07Z</time>
      </trkpt>
      <trkpt lat="4.6837170" lon="-74.3200120">
        <ele>2620.2</ele>
        <time>2018-08-10T16:50:08Z</time>
      </trkpt>
      <trkpt lat="4.6837030" lon="-74.3199720">
        <ele>2620.1</ele>
        <time>2018-08-10T16:50:09Z</time>
      </trkpt>
      <trkpt lat="4.6836880" lon="-74.3199350">
        <ele>2620.1</ele>
        <time>2018-08-10T16:50:10Z</time>
      </trkpt>
      <trkpt lat="4.6836680" lon="-74.3198930">
        <ele>2620.1</ele>
        <time>2018-08-10T16:50:11Z</time>
      </trkpt>
      <trkpt lat="4.6836520" lon="-74.3198500">
        <ele>2620.0</ele>
        <time>2018-08-10T16:50:12Z</time>
      </trkpt>
      <trkpt lat="4.6836350" lon="-74.3198000">
        <ele>2620.0</ele>
        <time>2018-08-10T16:50:13Z</time>
      </trkpt>
      <trkpt lat="4.6836200" lon="-74.3197580">
        <ele>2619.9</ele>
        <time>2018-08-10T16:50:14Z</time>
      </trkpt>
      <trkpt lat="4.6836000" lon="-74.3197180">
        <ele>2619.9</ele>
        <time>2018-08-10T16:50:15Z</time>
      </trkpt>
      <trkpt lat="4.6835730" lon="-74.3196800">
        <ele>2619.8</ele>
        <time>2018-08-10T16:50:16Z</time>
      </trkpt>
      <trkpt lat="4.6835400" lon="-74.3196500">
        <ele>2619.8</ele>
        <time>2018-08-10T16:50:17Z</time>
      </trkpt>
      <trkpt lat="4.6835080" lon="-74.3196200">
        <ele>2619.7</ele>
        <time>2018-08-10T16:50:18Z</time>
      </trkpt>
      <trkpt lat="4.6834750" lon="-74.3196020">
        <ele>2619.6</ele>
        <time>2018-08-10T16:50:19Z</time>
      </trkpt>
      <trkpt lat="4.6834420" lon="-74.3195720">
        <ele>2619.5</ele>
        <time>2018-08-10T16:50:20Z</time>
      </trkpt>
      <trkpt lat="4.6834120" lon="-74.3195400">
        <ele>2619.5</ele>
        <time>2018-08-10T16:50:21Z</time>
      </trkpt>
      <trkpt lat="4.6833830" lon="-74.3194950">
        <ele>2619.4</ele>
        <time>2018-08-10T16:50:22Z</time>
      </trkpt>
      <trkpt lat="4.6833370" lon="-74.3194600">
        <ele>2619.2</ele>
        <time>2018-08-10T16:50:23Z</time>
      </trkpt>
      <trkpt lat="4.6832970" lon="-74.3194280">
        <ele>2619.1</ele>
        <time>2018-08-10T16:50:24Z</time>
      </trkpt>
      <trkpt lat="4.6832600" lon="-74.3193830">
        <ele>2618.9</ele>
        <time>2018-08-10T16:50:25Z</time>
      </trkpt>
      <trkpt lat="4.6832120" lon="-74.3193250">
        <ele>2618.6</ele>
        <time>2018-08-10T16:50:26Z</time>
      </trkpt>
      <trkpt lat="4.6831900" lon="-74.3192880">
        <ele>2618.5</ele>
        <time>2018-08-10T16:50:27Z</time>
      </trkpt>
      <trkpt lat="4.6831750" lon="-74.3192520">
        <ele>2618.3</ele>
        <time>2018-08-10T16:50:28Z</time>
      </trkpt>
      <trkpt lat="4.6831420" lon="-74.3192150">
        <ele>2618.1</ele>
        <time>2018-08-10T16:50:29Z</time>
      </trkpt>
      <trkpt lat="4.6831020" lon="-74.3191680">
        <ele>2617.9</ele>
        <time>2018-08-10T16:50:30Z</time>
      </trkpt>
      <trkpt lat="4.6830750" lon="-74.3191380">
        <ele>2617.8</ele>
        <time>2018-08-10T16:50:31Z</time>
      </trkpt>
      <trkpt lat="4.6830470" lon="-74.3191130">
        <ele>2617.7</ele>
        <time>2018-08-10T16:50:32Z</time>
      </trkpt>
      <trkpt lat="4.6829930" lon="-74.3190670">
        <ele>2617.5</ele>
        <time>2018-08-10T16:50:33Z</time>
      </trkpt>
      <trkpt lat="4.6829400" lon="-74.3190200">
        <ele>2617.4</ele>
        <time>2018-08-10T16:50:34Z</time>
      </trkpt>
      <trkpt lat="4.6828880" lon="-74.3189780">
        <ele>2617.2</ele>
        <time>2018-08-10T16:50:35Z</time>
      </trkpt>
      <trkpt lat="4.6828320" lon="-74.3189280">
        <ele>2617.1</ele>
        <time>2018-08-10T16:50:36Z</time>
      </trkpt>
      <trkpt lat="4.6827830" lon="-74.3188650">
        <ele>2616.9</ele>
        <time>2018-08-10T16:50:37Z</time>
      </trkpt>
      <trkpt lat="4.6827380" lon="-74.3188080">
        <ele>2616.8</ele>
        <time>2018-08-10T16:50:38Z</time>
      </trkpt>
      <trkpt lat="4.6827000" lon="-74.3187570">
        <ele>2616.6</ele>
        <time>2018-08-10T16:50:39Z</time>
      </trkpt>
      <trkpt lat="4.6826580" lon="-74.3187120">
        <ele>2616.4</ele>
        <time>2018-08-10T16:50:40Z</time>
      </trkpt>
      <trkpt lat="4.6826100" lon="-74.3186630">
        <ele>2616.1</ele>
        <time>2018-08-10T16:50:41Z</time>
      </trkpt>
      <trkpt lat="4.6825630" lon="-74.3186220">
        <ele>2615.9</ele>
        <time>2018-08-10T16:50:42Z</time>
      </trkpt>
      <trkpt lat="4.6825130" lon="-74.3185850">
        <ele>2615.5</ele>
        <time>2018-08-10T16:50:43Z</time>
      </trkpt>
      <trkpt lat="4.6824600" lon="-74.3185450">
        <ele>2615.2</ele>
        <time>2018-08-10T16:50:44Z</time>
      </trkpt>
      <trkpt lat="4.6824070" lon="-74.3185100">
        <ele>2614.8</ele>
        <time>2018-08-10T16:50:45Z</time>
      </trkpt>
      <trkpt lat="4.6823150" lon="-74.3184630">
        <ele>2614.2</ele>
        <time>2018-08-10T16:50:46Z</time>
      </trkpt>
      <trkpt lat="4.6822580" lon="-74.3184230">
        <ele>2613.8</ele>
        <time>2018-08-10T16:50:47Z</time>
      </trkpt>
      <trkpt lat="4.6822100" lon="-74.3183830">
        <ele>2613.4</ele>
        <time>2018-08-10T16:50:48Z</time>
      </trkpt>
      <trkpt lat="4.6821670" lon="-74.3183450">
        <ele>2613.1</ele>
        <time>2018-08-10T16:50:49Z</time>
      </trkpt>
      <trkpt lat="4.6821170" lon="-74.3183080">
        <ele>2612.7</ele>
        <time>2018-08-10T16:50:50Z</time>
      </trkpt>
      <trkpt lat="4.6820650" lon="-74.3182730">
        <ele>2612.3</ele>
        <time>2018-08-10T16:50:51Z</time>
      </trkpt>
      <trkpt lat="4.6820070" lon="-74.3182420">
        <ele>2612.0</ele>
        <time>2018-08-10T16:50:52Z</time>
      </trkpt>
      <trkpt lat="4.6819570" lon="-74.3181980">
        <ele>2612.3</ele>
        <time>2018-08-10T16:50:53Z</time>
      </trkpt>
      <trkpt lat="4.6819180" lon="-74.3181600">
        <ele>2612.4</ele>
        <time>2018-08-10T16:50:54Z</time>
      </trkpt>
      <trkpt lat="4.6818870" lon="-74.3181250">
        <ele>2612.6</ele>
        <time>2018-08-10T16:50:55Z</time>
      </trkpt>
      <trkpt lat="4.6818500" lon="-74.3180920">
        <ele>2612.7</ele>
        <time>2018-08-10T16:50:56Z</time>
      </trkpt>
      <trkpt lat="4.6818170" lon="-74.3180630">
        <ele>2612.8</ele>
        <time>2018-08-10T16:50:57Z</time>
      </trkpt>
      <trkpt lat="4.6817830" lon="-74.3180380">
        <ele>2612.8</ele>
        <time>2018-08-10T16:50:58Z</time>
      </trkpt>
      <trkpt lat="4.6817520" lon="-74.3180150">
        <ele>2612.9</ele>
        <time>2018-08-10T16:50:59Z</time>
      </trkpt>
      <trkpt lat="4.6817100" lon="-74.3179950">
        <ele>2612.9</ele>
        <time>2018-08-10T16:51:00Z</time>
      </trkpt>
      <trkpt lat="4.6816770" lon="-74.3179730">
        <ele>2612.9</ele>
        <time>2018-08-10T16:51:01Z</time>
      </trkpt>
      <trkpt lat="4.6816400" lon="-74.3179570">
        <ele>2612.9</ele>
        <time>2018-08-10T16:51:02Z</time>
      </trkpt>
      <trkpt lat="4.6816070" lon="-74.3179380">
        <ele>2612.9</ele>
        <time>2018-08-10T16:51:03Z</time>
      </trkpt>
      <trkpt lat="4.6815670" lon="-74.3179180">
        <ele>2612.9</ele>
        <time>2018-08-10T16:51:04Z</time>
      </trkpt>
      <trkpt lat="4.6815230" lon="-74.3179000">
        <ele>2612.9</ele>
        <time>2018-08-10T16:51:05Z</time>
      </trkpt>
      <trkpt lat="4.6814800" lon="-74.3178830">
        <ele>2612.8</ele>
        <time>2018-08-10T16:51:06Z</time>
      </trkpt>
      <trkpt lat="4.6814400" lon="-74.3178580">
        <ele>2612.8</ele>
        <time>2018-08-10T16:51:07Z</time>
      </trkpt>
      <trkpt lat="4.6814030" lon="-74.3178350">
        <ele>2612.8</ele>
        <time>2018-08-10T16:51:08Z</time>
      </trkpt>
      <trkpt lat="4.6813680" lon="-74.3178150">
        <ele>2612.7</ele>
        <time>2018-08-10T16:51:09Z</time>
      </trkpt>
      <trkpt lat="4.6813250" lon="-74.3177950">
        <ele>2612.6</ele>
        <time>2018-08-10T16:51:10Z</time>
      </trkpt>
      <trkpt lat="4.6812900" lon="-74.3177800">
        <ele>2612.5</ele>
        <time>2018-08-10T16:51:11Z</time>
      </trkpt>
      <trkpt lat="4.6812530" lon="-74.3177650">
        <ele>2612.3</ele>
        <time>2018-08-10T16:51:12Z</time>
      </trkpt>
      <trkpt lat="4.6812170" lon="-74.3177480">
        <ele>2612.1</ele>
        <time>2018-08-10T16:51:13Z</time>
      </trkpt>
      <trkpt lat="4.6811870" lon="-74.3177300">
        <ele>2612.0</ele>
        <time>2018-08-10T16:51:14Z</time>
      </trkpt>
      <trkpt lat="4.6811480" lon="-74.3177080">
        <ele>2611.7</ele>
        <time>2018-08-10T16:51:15Z</time>
      </trkpt>
      <trkpt lat="4.6811180" lon="-74.3176900">
        <ele>2611.6</ele>
        <time>2018-08-10T16:51:16Z</time>
      </trkpt>
      <trkpt lat="4.6810870" lon="-74.3176720">
        <ele>2611.5</ele>
        <time>2018-08-10T16:51:17Z</time>
      </trkpt>
      <trkpt lat="4.6810550" lon="-74.3176630">
        <ele>2611.5</ele>
        <time>2018-08-10T16:51:18Z</time>
      </trkpt>
      <trkpt lat="4.6810080" lon="-74.3176370">
        <ele>2611.4</ele>
        <time>2018-08-10T16:51:20Z</time>
      </trkpt>
      <trkpt lat="4.6809800" lon="-74.3176200">
        <ele>2611.3</ele>
        <time>2018-08-10T16:51:21Z</time>
      </trkpt>
      <trkpt lat="4.6809470" lon="-74.3176120">
        <ele>2611.2</ele>
        <time>2018-08-10T16:51:22Z</time>
      </trkpt>
      <trkpt lat="4.6809130" lon="-74.3175970">
        <ele>2611.2</ele>
        <time>2018-08-10T16:51:23Z</time>
      </trkpt>
      <trkpt lat="4.6808780" lon="-74.3175800">
        <ele>2611.1</ele>
        <time>2018-08-10T16:51:24Z</time>
      </trkpt>
      <trkpt lat="4.6808480" lon="-74.3175680">
        <ele>2611.0</ele>
        <time>2018-08-10T16:51:25Z</time>
      </trkpt>
      <trkpt lat="4.6808120" lon="-74.3175570">
        <ele>2610.9</ele>
        <time>2018-08-10T16:51:26Z</time>
      </trkpt>
      <trkpt lat="4.6807680" lon="-74.3175350">
        <ele>2610.9</ele>
        <time>2018-08-10T16:51:27Z</time>
      </trkpt>
      <trkpt lat="4.6807230" lon="-74.3175180">
        <ele>2610.9</ele>
        <time>2018-08-10T16:51:28Z</time>
      </trkpt>
      <trkpt lat="4.6806730" lon="-74.3175030">
        <ele>2610.8</ele>
        <time>2018-08-10T16:51:29Z</time>
      </trkpt>
      <trkpt lat="4.6806200" lon="-74.3174900">
        <ele>2610.8</ele>
        <time>2018-08-10T16:51:30Z</time>
      </trkpt>
      <trkpt lat="4.6805600" lon="-74.3174780">
        <ele>2610.8</ele>
        <time>2018-08-10T16:51:31Z</time>
      </trkpt>
      <trkpt lat="4.6805080" lon="-74.3174720">
        <ele>2610.8</ele>
        <time>2018-08-10T16:51:32Z</time>
      </trkpt>
      <trkpt lat="4.6804550" lon="-74.3174650">
        <ele>2610.8</ele>
        <time>2018-08-10T16:51:33Z</time>
      </trkpt>
      <trkpt lat="4.6804080" lon="-74.3174580">
        <ele>2610.8</ele>
        <time>2018-08-10T16:51:34Z</time>
      </trkpt>
      <trkpt lat="4.6803570" lon="-74.3174500">
        <ele>2610.8</ele>
        <time>2018-08-10T16:51:35Z</time>
      </trkpt>
      <trkpt lat="4.6802780" lon="-74.3174480">
        <ele>2610.8</ele>
        <time>2018-08-10T16:51:36Z</time>
      </trkpt>
      <trkpt lat="4.6802300" lon="-74.3174470">
        <ele>2610.8</ele>
        <time>2018-08-10T16:51:37Z</time>
      </trkpt>
      <trkpt lat="4.6801650" lon="-74.3174550">
        <ele>2610.8</ele>
        <time>2018-08-10T16:51:38Z</time>
      </trkpt>
      <trkpt lat="4.6801170" lon="-74.3174500">
        <ele>2610.8</ele>
        <time>2018-08-10T16:51:39Z</time>
      </trkpt>
      <trkpt lat="4.6800700" lon="-74.3174450">
        <ele>2610.9</ele>
        <time>2018-08-10T16:51:40Z</time>
      </trkpt>
      <trkpt lat="4.6800300" lon="-74.3174380">
        <ele>2611.0</ele>
        <time>2018-08-10T16:51:41Z</time>
      </trkpt>
      <trkpt lat="4.6799830" lon="-74.3174330">
        <ele>2611.1</ele>
        <time>2018-08-10T16:51:42Z</time>
      </trkpt>
      <trkpt lat="4.6799350" lon="-74.3174270">
        <ele>2611.2</ele>
        <time>2018-08-10T16:51:43Z</time>
      </trkpt>
      <trkpt lat="4.6798870" lon="-74.3174180">
        <ele>2611.4</ele>
        <time>2018-08-10T16:51:44Z</time>
      </trkpt>
      <trkpt lat="4.6798420" lon="-74.3174150">
        <ele>2611.5</ele>
        <time>2018-08-10T16:51:45Z</time>
      </trkpt>
      <trkpt lat="4.6797980" lon="-74.3174120">
        <ele>2611.5</ele>
        <time>2018-08-10T16:51:46Z</time>
      </trkpt>
      <trkpt lat="4.6797570" lon="-74.3174220">
        <ele>2611.6</ele>
        <time>2018-08-10T16:51:47Z</time>
      </trkpt>
      <trkpt lat="4.6797150" lon="-74.3174320">
        <ele>2611.6</ele>
        <time>2018-08-10T16:51:48Z</time>
      </trkpt>
      <trkpt lat="4.6796620" lon="-74.3174500">
        <ele>2611.7</ele>
        <time>2018-08-10T16:51:49Z</time>
      </trkpt>
      <trkpt lat="4.6796200" lon="-74.3174620">
        <ele>2611.7</ele>
        <time>2018-08-10T16:51:50Z</time>
      </trkpt>
      <trkpt lat="4.6795800" lon="-74.3174780">
        <ele>2611.8</ele>
        <time>2018-08-10T16:51:51Z</time>
      </trkpt>
      <trkpt lat="4.6795370" lon="-74.3174980">
        <ele>2611.8</ele>
        <time>2018-08-10T16:51:52Z</time>
      </trkpt>
      <trkpt lat="4.6794970" lon="-74.3175180">
        <ele>2611.8</ele>
        <time>2018-08-10T16:51:53Z</time>
      </trkpt>
      <trkpt lat="4.6794580" lon="-74.3175380">
        <ele>2611.8</ele>
        <time>2018-08-10T16:51:54Z</time>
      </trkpt>
      <trkpt lat="4.6794180" lon="-74.3175500">
        <ele>2611.8</ele>
        <time>2018-08-10T16:51:55Z</time>
      </trkpt>
      <trkpt lat="4.6793800" lon="-74.3175470">
        <ele>2611.8</ele>
        <time>2018-08-10T16:51:56Z</time>
      </trkpt>
      <trkpt lat="4.6793400" lon="-74.3175520">
        <ele>2611.8</ele>
        <time>2018-08-10T16:51:57Z</time>
      </trkpt>
      <trkpt lat="4.6793070" lon="-74.3175600">
        <ele>2611.8</ele>
        <time>2018-08-10T16:51:58Z</time>
      </trkpt>
      <trkpt lat="4.6792650" lon="-74.3175700">
        <ele>2611.9</ele>
        <time>2018-08-10T16:51:59Z</time>
      </trkpt>
      <trkpt lat="4.6792280" lon="-74.3175680">
        <ele>2611.9</ele>
        <time>2018-08-10T16:52:00Z</time>
      </trkpt>
      <trkpt lat="4.6791850" lon="-74.3175620">
        <ele>2611.9</ele>
        <time>2018-08-10T16:52:01Z</time>
      </trkpt>
      <trkpt lat="4.6791470" lon="-74.3175480">
        <ele>2611.9</ele>
        <time>2018-08-10T16:52:02Z</time>
      </trkpt>
      <trkpt lat="4.6791120" lon="-74.3175270">
        <ele>2611.9</ele>
        <time>2018-08-10T16:52:03Z</time>
      </trkpt>
      <trkpt lat="4.6790780" lon="-74.3175000">
        <ele>2611.9</ele>
        <time>2018-08-10T16:52:04Z</time>
      </trkpt>
      <trkpt lat="4.6790400" lon="-74.3174850">
        <ele>2611.9</ele>
        <time>2018-08-10T16:52:05Z</time>
      </trkpt>
      <trkpt lat="4.6790050" lon="-74.3174670">
        <ele>2612.0</ele>
        <time>2018-08-10T16:52:06Z</time>
      </trkpt>
      <trkpt lat="4.6789620" lon="-74.3174500">
        <ele>2612.0</ele>
        <time>2018-08-10T16:52:07Z</time>
      </trkpt>
      <trkpt lat="4.6789270" lon="-74.3174320">
        <ele>2612.0</ele>
        <time>2018-08-10T16:52:08Z</time>
      </trkpt>
      <trkpt lat="4.6788930" lon="-74.3174100">
        <ele>2612.0</ele>
        <time>2018-08-10T16:52:09Z</time>
      </trkpt>
      <trkpt lat="4.6788630" lon="-74.3173900">
        <ele>2612.0</ele>
        <time>2018-08-10T16:52:10Z</time>
      </trkpt>
      <trkpt lat="4.6788300" lon="-74.3173730">
        <ele>2612.0</ele>
        <time>2018-08-10T16:52:11Z</time>
      </trkpt>
      <trkpt lat="4.6787900" lon="-74.3173620">
        <ele>2612.0</ele>
        <time>2018-08-10T16:52:12Z</time>
      </trkpt>
      <trkpt lat="4.6787430" lon="-74.3173570">
        <ele>2612.1</ele>
        <time>2018-08-10T16:52:13Z</time>
      </trkpt>
      <trkpt lat="4.6787070" lon="-74.3173450">
        <ele>2612.1</ele>
        <time>2018-08-10T16:52:14Z</time>
      </trkpt>
      <trkpt lat="4.6786650" lon="-74.3173280">
        <ele>2612.1</ele>
        <time>2018-08-10T16:52:15Z</time>
      </trkpt>
      <trkpt lat="4.6786280" lon="-74.3173130">
        <ele>2612.1</ele>
        <time>2018-08-10T16:52:16Z</time>
      </trkpt>
      <trkpt lat="4.6785920" lon="-74.3173000">
        <ele>2612.1</ele>
        <time>2018-08-10T16:52:17Z</time>
      </trkpt>
      <trkpt lat="4.6785530" lon="-74.3172930">
        <ele>2612.2</ele>
        <time>2018-08-10T16:52:18Z</time>
      </trkpt>
      <trkpt lat="4.6785200" lon="-74.3172830">
        <ele>2612.3</ele>
        <time>2018-08-10T16:52:19Z</time>
      </trkpt>
      <trkpt lat="4.6784820" lon="-74.3172720">
        <ele>2612.4</ele>
        <time>2018-08-10T16:52:20Z</time>
      </trkpt>
      <trkpt lat="4.6784450" lon="-74.3172570">
        <ele>2612.5</ele>
        <time>2018-08-10T16:52:21Z</time>
      </trkpt>
      <trkpt lat="4.6784050" lon="-74.3172450">
        <ele>2612.6</ele>
        <time>2018-08-10T16:52:22Z</time>
      </trkpt>
      <trkpt lat="4.6783680" lon="-74.3172320">
        <ele>2612.8</ele>
        <time>2018-08-10T16:52:23Z</time>
      </trkpt>
      <trkpt lat="4.6783370" lon="-74.3172180">
        <ele>2612.8</ele>
        <time>2018-08-10T16:52:24Z</time>
      </trkpt>
      <trkpt lat="4.6783000" lon="-74.3172050">
        <ele>2612.9</ele>
        <time>2018-08-10T16:52:25Z</time>
      </trkpt>
      <trkpt lat="4.6782630" lon="-74.3171880">
        <ele>2613.0</ele>
        <time>2018-08-10T16:52:26Z</time>
      </trkpt>
      <trkpt lat="4.6782250" lon="-74.3171730">
        <ele>2613.1</ele>
        <time>2018-08-10T16:52:27Z</time>
      </trkpt>
      <trkpt lat="4.6781770" lon="-74.3171620">
        <ele>2613.2</ele>
        <time>2018-08-10T16:52:28Z</time>
      </trkpt>
      <trkpt lat="4.6781350" lon="-74.3171450">
        <ele>2613.2</ele>
        <time>2018-08-10T16:52:29Z</time>
      </trkpt>
      <trkpt lat="4.6780900" lon="-74.3171300">
        <ele>2613.3</ele>
        <time>2018-08-10T16:52:30Z</time>
      </trkpt>
      <trkpt lat="4.6780480" lon="-74.3171100">
        <ele>2613.3</ele>
        <time>2018-08-10T16:52:31Z</time>
      </trkpt>
      <trkpt lat="4.6780020" lon="-74.3170900">
        <ele>2613.3</ele>
        <time>2018-08-10T16:52:32Z</time>
      </trkpt>
      <trkpt lat="4.6779600" lon="-74.3170700">
        <ele>2613.3</ele>
        <time>2018-08-10T16:52:33Z</time>
      </trkpt>
      <trkpt lat="4.6779220" lon="-74.3170520">
        <ele>2613.3</ele>
        <time>2018-08-10T16:52:34Z</time>
      </trkpt>
      <trkpt lat="4.6778850" lon="-74.3170330">
        <ele>2613.4</ele>
        <time>2018-08-10T16:52:35Z</time>
      </trkpt>
      <trkpt lat="4.6778500" lon="-74.3170120">
        <ele>2613.4</ele>
        <time>2018-08-10T16:52:36Z</time>
      </trkpt>
      <trkpt lat="4.6778200" lon="-74.3169920">
        <ele>2613.4</ele>
        <time>2018-08-10T16:52:37Z</time>
      </trkpt>
      <trkpt lat="4.6777880" lon="-74.3169680">
        <ele>2613.4</ele>
        <time>2018-08-10T16:52:38Z</time>
      </trkpt>
      <trkpt lat="4.6777530" lon="-74.3169420">
        <ele>2613.4</ele>
        <time>2018-08-10T16:52:39Z</time>
      </trkpt>
      <trkpt lat="4.6777220" lon="-74.3169200">
        <ele>2613.4</ele>
        <time>2018-08-10T16:52:40Z</time>
      </trkpt>
      <trkpt lat="4.6776830" lon="-74.3169000">
        <ele>2613.4</ele>
        <time>2018-08-10T16:52:41Z</time>
      </trkpt>
      <trkpt lat="4.6776450" lon="-74.3168780">
        <ele>2613.4</ele>
        <time>2018-08-10T16:52:42Z</time>
      </trkpt>
      <trkpt lat="4.6776120" lon="-74.3168650">
        <ele>2613.4</ele>
        <time>2018-08-10T16:52:43Z</time>
      </trkpt>
      <trkpt lat="4.6775770" lon="-74.3168520">
        <ele>2613.4</ele>
        <time>2018-08-10T16:52:44Z</time>
      </trkpt>
      <trkpt lat="4.6775520" lon="-74.3168300">
        <ele>2613.3</ele>
        <time>2018-08-10T16:52:45Z</time>
      </trkpt>
      <trkpt lat="4.6775270" lon="-74.3168100">
        <ele>2613.3</ele>
        <time>2018-08-10T16:52:46Z</time>
      </trkpt>
      <trkpt lat="4.6774920" lon="-74.3168000">
        <ele>2613.3</ele>
        <time>2018-08-10T16:52:47Z</time>
      </trkpt>
      <trkpt lat="4.6774600" lon="-74.3167970">
        <ele>2613.3</ele>
        <time>2018-08-10T16:52:48Z</time>
      </trkpt>
      <trkpt lat="4.6774320" lon="-74.3167920">
        <ele>2613.3</ele>
        <time>2018-08-10T16:52:49Z</time>
      </trkpt>
      <trkpt lat="4.6773930" lon="-74.3167720">
        <ele>2613.3</ele>
        <time>2018-08-10T16:52:51Z</time>
      </trkpt>
      <trkpt lat="4.6773370" lon="-74.3167470">
        <ele>2613.4</ele>
        <time>2018-08-10T16:52:53Z</time>
      </trkpt>
      <trkpt lat="4.6773080" lon="-74.3167320">
        <ele>2613.4</ele>
        <time>2018-08-10T16:52:54Z</time>
      </trkpt>
      <trkpt lat="4.6772820" lon="-74.3167200">
        <ele>2613.4</ele>
        <time>2018-08-10T16:52:55Z</time>
      </trkpt>
      <trkpt lat="4.6772500" lon="-74.3167080">
        <ele>2613.4</ele>
        <time>2018-08-10T16:52:56Z</time>
      </trkpt>
      <trkpt lat="4.6772150" lon="-74.3166980">
        <ele>2613.5</ele>
        <time>2018-08-10T16:52:57Z</time>
      </trkpt>
      <trkpt lat="4.6771870" lon="-74.3166780">
        <ele>2613.5</ele>
        <time>2018-08-10T16:52:58Z</time>
      </trkpt>
      <trkpt lat="4.6771530" lon="-74.3166670">
        <ele>2613.6</ele>
        <time>2018-08-10T16:52:59Z</time>
      </trkpt>
      <trkpt lat="4.6771200" lon="-74.3166570">
        <ele>2613.8</ele>
        <time>2018-08-10T16:53:00Z</time>
      </trkpt>
      <trkpt lat="4.6770830" lon="-74.3166500">
        <ele>2614.0</ele>
        <time>2018-08-10T16:53:01Z</time>
      </trkpt>
      <trkpt lat="4.6770370" lon="-74.3166430">
        <ele>2614.3</ele>
        <time>2018-08-10T16:53:02Z</time>
      </trkpt>
      <trkpt lat="4.6769950" lon="-74.3166350">
        <ele>2614.6</ele>
        <time>2018-08-10T16:53:03Z</time>
      </trkpt>
      <trkpt lat="4.6769670" lon="-74.3166320">
        <ele>2614.7</ele>
        <time>2018-08-10T16:53:04Z</time>
      </trkpt>
      <trkpt lat="4.6769350" lon="-74.3166270">
        <ele>2615.0</ele>
        <time>2018-08-10T16:53:05Z</time>
      </trkpt>
      <trkpt lat="4.6769030" lon="-74.3166270">
        <ele>2617.2</ele>
        <time>2018-08-10T16:53:06Z</time>
      </trkpt>
      <trkpt lat="4.6768770" lon="-74.3166320">
        <ele>2618.9</ele>
        <time>2018-08-10T16:53:07Z</time>
      </trkpt>
      <trkpt lat="4.6768450" lon="-74.3166380">
        <ele>2621.0</ele>
        <time>2018-08-10T16:53:08Z</time>
      </trkpt>
      <trkpt lat="4.6768100" lon="-74.3166380">
        <ele>2623.3</ele>
        <time>2018-08-10T16:53:09Z</time>
      </trkpt>
      <trkpt lat="4.6767700" lon="-74.3166400">
        <ele>2625.8</ele>
        <time>2018-08-10T16:53:10Z</time>
      </trkpt>
      <trkpt lat="4.6767370" lon="-74.3166600">
        <ele>2628.3</ele>
        <time>2018-08-10T16:53:11Z</time>
      </trkpt>
      <trkpt lat="4.6767070" lon="-74.3166830">
        <ele>2630.8</ele>
        <time>2018-08-10T16:53:12Z</time>
      </trkpt>
      <trkpt lat="4.6766630" lon="-74.3167130">
        <ele>2634.2</ele>
        <time>2018-08-10T16:53:13Z</time>
      </trkpt>
      <trkpt lat="4.6766270" lon="-74.3167380">
        <ele>2637.0</ele>
        <time>2018-08-10T16:53:14Z</time>
      </trkpt>
      <trkpt lat="4.6765930" lon="-74.3167600">
        <ele>2636.9</ele>
        <time>2018-08-10T16:53:15Z</time>
      </trkpt>
      <trkpt lat="4.6765620" lon="-74.3167780">
        <ele>2636.9</ele>
        <time>2018-08-10T16:53:16Z</time>
      </trkpt>
      <trkpt lat="4.6765270" lon="-74.3168020">
        <ele>2636.8</ele>
        <time>2018-08-10T16:53:17Z</time>
      </trkpt>
      <trkpt lat="4.6764950" lon="-74.3168230">
        <ele>2636.8</ele>
        <time>2018-08-10T16:53:18Z</time>
      </trkpt>
      <trkpt lat="4.6764630" lon="-74.3168450">
        <ele>2636.8</ele>
        <time>2018-08-10T16:53:19Z</time>
      </trkpt>
      <trkpt lat="4.6764370" lon="-74.3168630">
        <ele>2636.7</ele>
        <time>2018-08-10T16:53:20Z</time>
      </trkpt>
      <trkpt lat="4.6764100" lon="-74.3168830">
        <ele>2636.7</ele>
        <time>2018-08-10T16:53:21Z</time>
      </trkpt>
      <trkpt lat="4.6763830" lon="-74.3169000">
        <ele>2636.7</ele>
        <time>2018-08-10T16:53:22Z</time>
      </trkpt>
      <trkpt lat="4.6763530" lon="-74.3169150">
        <ele>2636.7</ele>
        <time>2018-08-10T16:53:23Z</time>
      </trkpt>
      <trkpt lat="4.6763200" lon="-74.3169320">
        <ele>2636.7</ele>
        <time>2018-08-10T16:53:24Z</time>
      </trkpt>
      <trkpt lat="4.6762880" lon="-74.3169480">
        <ele>2636.7</ele>
        <time>2018-08-10T16:53:25Z</time>
      </trkpt>
      <trkpt lat="4.6762530" lon="-74.3169670">
        <ele>2636.7</ele>
        <time>2018-08-10T16:53:26Z</time>
      </trkpt>
      <trkpt lat="4.6762180" lon="-74.3169880">
        <ele>2636.7</ele>
        <time>2018-08-10T16:53:27Z</time>
      </trkpt>
      <trkpt lat="4.6761850" lon="-74.3170020">
        <ele>2636.7</ele>
        <time>2018-08-10T16:53:28Z</time>
      </trkpt>
      <trkpt lat="4.6761450" lon="-74.3170130">
        <ele>2636.7</ele>
        <time>2018-08-10T16:53:29Z</time>
      </trkpt>
      <trkpt lat="4.6761020" lon="-74.3170250">
        <ele>2636.7</ele>
        <time>2018-08-10T16:53:30Z</time>
      </trkpt>
      <trkpt lat="4.6760620" lon="-74.3170350">
        <ele>2636.8</ele>
        <time>2018-08-10T16:53:31Z</time>
      </trkpt>
      <trkpt lat="4.6760220" lon="-74.3170480">
        <ele>2636.8</ele>
        <time>2018-08-10T16:53:32Z</time>
      </trkpt>
      <trkpt lat="4.6759870" lon="-74.3170620">
        <ele>2636.8</ele>
        <time>2018-08-10T16:53:33Z</time>
      </trkpt>
      <trkpt lat="4.6759550" lon="-74.3170750">
        <ele>2636.8</ele>
        <time>2018-08-10T16:53:34Z</time>
      </trkpt>
      <trkpt lat="4.6759220" lon="-74.3170870">
        <ele>2636.9</ele>
        <time>2018-08-10T16:53:35Z</time>
      </trkpt>
      <trkpt lat="4.6758880" lon="-74.3170900">
        <ele>2637.0</ele>
        <time>2018-08-10T16:53:36Z</time>
      </trkpt>
      <trkpt lat="4.6758600" lon="-74.3170900">
        <ele>2637.1</ele>
        <time>2018-08-10T16:53:37Z</time>
      </trkpt>
      <trkpt lat="4.6758020" lon="-74.3171050">
        <ele>2637.4</ele>
        <time>2018-08-10T16:53:39Z</time>
      </trkpt>
      <trkpt lat="4.6757570" lon="-74.3171280">
        <ele>2637.6</ele>
        <time>2018-08-10T16:53:41Z</time>
      </trkpt>
      <trkpt lat="4.6757270" lon="-74.3171380">
        <ele>2637.7</ele>
        <time>2018-08-10T16:53:42Z</time>
      </trkpt>
      <trkpt lat="4.6756970" lon="-74.3171430">
        <ele>2637.8</ele>
        <time>2018-08-10T16:53:43Z</time>
      </trkpt>
      <trkpt lat="4.6756700" lon="-74.3171520">
        <ele>2637.9</ele>
        <time>2018-08-10T16:53:44Z</time>
      </trkpt>
      <trkpt lat="4.6756430" lon="-74.3171570">
        <ele>2638.1</ele>
        <time>2018-08-10T16:53:45Z</time>
      </trkpt>
      <trkpt lat="4.6755900" lon="-74.3171730">
        <ele>2638.4</ele>
        <time>2018-08-10T16:53:47Z</time>
      </trkpt>
      <trkpt lat="4.6755450" lon="-74.3171980">
        <ele>2638.6</ele>
        <time>2018-08-10T16:53:49Z</time>
      </trkpt>
      <trkpt lat="4.6755180" lon="-74.3172050">
        <ele>2638.7</ele>
        <time>2018-08-10T16:53:50Z</time>
      </trkpt>
      <trkpt lat="4.6754770" lon="-74.3172230">
        <ele>2638.9</ele>
        <time>2018-08-10T16:53:52Z</time>
      </trkpt>
      <trkpt lat="4.6754320" lon="-74.3172330">
        <ele>2638.9</ele>
        <time>2018-08-10T16:53:54Z</time>
      </trkpt>
      <trkpt lat="4.6753870" lon="-74.3172480">
        <ele>2639.0</ele>
        <time>2018-08-10T16:53:56Z</time>
      </trkpt>
      <trkpt lat="4.6753530" lon="-74.3172470">
        <ele>2639.0</ele>
        <time>2018-08-10T16:53:57Z</time>
      </trkpt>
      <trkpt lat="4.6753270" lon="-74.3172520">
        <ele>2639.1</ele>
        <time>2018-08-10T16:53:58Z</time>
      </trkpt>
      <trkpt lat="4.6752770" lon="-74.3172630">
        <ele>2639.2</ele>
        <time>2018-08-10T16:54:00Z</time>
      </trkpt>
      <trkpt lat="4.6752470" lon="-74.3172650">
        <ele>2639.2</ele>
        <time>2018-08-10T16:54:01Z</time>
      </trkpt>
      <trkpt lat="4.6752170" lon="-74.3172620">
        <ele>2639.3</ele>
        <time>2018-08-10T16:54:02Z</time>
      </trkpt>
      <trkpt lat="4.6751680" lon="-74.3172580">
        <ele>2639.5</ele>
        <time>2018-08-10T16:54:04Z</time>
      </trkpt>
      <trkpt lat="4.6751220" lon="-74.3172700">
        <ele>2639.6</ele>
        <time>2018-08-10T16:54:06Z</time>
      </trkpt>
      <trkpt lat="4.6750950" lon="-74.3172820">
        <ele>2639.7</ele>
        <time>2018-08-10T16:54:07Z</time>
      </trkpt>
      <trkpt lat="4.6750500" lon="-74.3172930">
        <ele>2639.7</ele>
        <time>2018-08-10T16:54:09Z</time>
      </trkpt>
      <trkpt lat="4.6750230" lon="-74.3173000">
        <ele>2639.7</ele>
        <time>2018-08-10T16:54:10Z</time>
      </trkpt>
      <trkpt lat="4.6749970" lon="-74.3173070">
        <ele>2639.7</ele>
        <time>2018-08-10T16:54:11Z</time>
      </trkpt>
      <trkpt lat="4.6749550" lon="-74.3173270">
        <ele>2639.8</ele>
        <time>2018-08-10T16:54:13Z</time>
      </trkpt>
      <trkpt lat="4.6749130" lon="-74.3173380">
        <ele>2639.8</ele>
        <time>2018-08-10T16:54:15Z</time>
      </trkpt>
      <trkpt lat="4.6748600" lon="-74.3173430">
        <ele>2639.8</ele>
        <time>2018-08-10T16:54:17Z</time>
      </trkpt>
      <trkpt lat="4.6748220" lon="-74.3173570">
        <ele>2639.8</ele>
        <time>2018-08-10T16:54:19Z</time>
      </trkpt>
      <trkpt lat="4.6747820" lon="-74.3173820">
        <ele>2639.9</ele>
        <time>2018-08-10T16:54:21Z</time>
      </trkpt>
      <trkpt lat="4.6747320" lon="-74.3174020">
        <ele>2639.9</ele>
        <time>2018-08-10T16:54:23Z</time>
      </trkpt>
      <trkpt lat="4.6747080" lon="-74.3174170">
        <ele>2640.0</ele>
        <time>2018-08-10T16:54:24Z</time>
      </trkpt>
      <trkpt lat="4.6746800" lon="-74.3174270">
        <ele>2640.1</ele>
        <time>2018-08-10T16:54:25Z</time>
      </trkpt>
      <trkpt lat="4.6746520" lon="-74.3174350">
        <ele>2640.1</ele>
        <time>2018-08-10T16:54:26Z</time>
      </trkpt>
      <trkpt lat="4.6746270" lon="-74.3174470">
        <ele>2640.2</ele>
        <time>2018-08-10T16:54:27Z</time>
      </trkpt>
      <trkpt lat="4.6745970" lon="-74.3174550">
        <ele>2640.3</ele>
        <time>2018-08-10T16:54:28Z</time>
      </trkpt>
      <trkpt lat="4.6745570" lon="-74.3174720">
        <ele>2640.3</ele>
        <time>2018-08-10T16:54:30Z</time>
      </trkpt>
      <trkpt lat="4.6745150" lon="-74.3174970">
        <ele>2640.4</ele>
        <time>2018-08-10T16:54:32Z</time>
      </trkpt>
      <trkpt lat="4.6744680" lon="-74.3175200">
        <ele>2640.4</ele>
        <time>2018-08-10T16:54:34Z</time>
      </trkpt>
      <trkpt lat="4.6744300" lon="-74.3175420">
        <ele>2640.4</ele>
        <time>2018-08-10T16:54:36Z</time>
      </trkpt>
      <trkpt lat="4.6743880" lon="-74.3175620">
        <ele>2640.4</ele>
        <time>2018-08-10T16:54:38Z</time>
      </trkpt>
      <trkpt lat="4.6743500" lon="-74.3175920">
        <ele>2640.4</ele>
        <time>2018-08-10T16:54:40Z</time>
      </trkpt>
      <trkpt lat="4.6743100" lon="-74.3176250">
        <ele>2640.5</ele>
        <time>2018-08-10T16:54:42Z</time>
      </trkpt>
      <trkpt lat="4.6742900" lon="-74.3176430">
        <ele>2640.5</ele>
        <time>2018-08-10T16:54:43Z</time>
      </trkpt>
      <trkpt lat="4.6742630" lon="-74.3176580">
        <ele>2640.5</ele>
        <time>2018-08-10T16:54:44Z</time>
      </trkpt>
      <trkpt lat="4.6742380" lon="-74.3176780">
        <ele>2640.6</ele>
        <time>2018-08-10T16:54:45Z</time>
      </trkpt>
      <trkpt lat="4.6742020" lon="-74.3177120">
        <ele>2640.7</ele>
        <time>2018-08-10T16:54:47Z</time>
      </trkpt>
      <trkpt lat="4.6741830" lon="-74.3177330">
        <ele>2640.7</ele>
        <time>2018-08-10T16:54:48Z</time>
      </trkpt>
      <trkpt lat="4.6741650" lon="-74.3177570">
        <ele>2640.8</ele>
        <time>2018-08-10T16:54:49Z</time>
      </trkpt>
      <trkpt lat="4.6741430" lon="-74.3177750">
        <ele>2640.8</ele>
        <time>2018-08-10T16:54:50Z</time>
      </trkpt>
      <trkpt lat="4.6741180" lon="-74.3177930">
        <ele>2640.9</ele>
        <time>2018-08-10T16:54:51Z</time>
      </trkpt>
      <trkpt lat="4.6740900" lon="-74.3178070">
        <ele>2640.9</ele>
        <time>2018-08-10T16:54:52Z</time>
      </trkpt>
      <trkpt lat="4.6740620" lon="-74.3178220">
        <ele>2640.9</ele>
        <time>2018-08-10T16:54:53Z</time>
      </trkpt>
      <trkpt lat="4.6740330" lon="-74.3178330">
        <ele>2640.9</ele>
        <time>2018-08-10T16:54:54Z</time>
      </trkpt>
      <trkpt lat="4.6740020" lon="-74.3178400">
        <ele>2640.9</ele>
        <time>2018-08-10T16:54:55Z</time>
      </trkpt>
      <trkpt lat="4.6739600" lon="-74.3178370">
        <ele>2640.9</ele>
        <time>2018-08-10T16:54:57Z</time>
      </trkpt>
      <trkpt lat="4.6739330" lon="-74.3178470">
        <ele>2640.9</ele>
        <time>2018-08-10T16:54:58Z</time>
      </trkpt>
      <trkpt lat="4.6738920" lon="-74.3178720">
        <ele>2640.9</ele>
        <time>2018-08-10T16:55:00Z</time>
      </trkpt>
      <trkpt lat="4.6738530" lon="-74.3178970">
        <ele>2640.8</ele>
        <time>2018-08-10T16:55:02Z</time>
      </trkpt>
      <trkpt lat="4.6738320" lon="-74.3179130">
        <ele>2640.8</ele>
        <time>2018-08-10T16:55:03Z</time>
      </trkpt>
      <trkpt lat="4.6738100" lon="-74.3179380">
        <ele>2640.8</ele>
        <time>2018-08-10T16:55:04Z</time>
      </trkpt>
      <trkpt lat="4.6737650" lon="-74.3179630">
        <ele>2640.8</ele>
        <time>2018-08-10T16:55:06Z</time>
      </trkpt>
      <trkpt lat="4.6737420" lon="-74.3179800">
        <ele>2640.8</ele>
        <time>2018-08-10T16:55:07Z</time>
      </trkpt>
      <trkpt lat="4.6737120" lon="-74.3179950">
        <ele>2640.8</ele>
        <time>2018-08-10T16:55:08Z</time>
      </trkpt>
      <trkpt lat="4.6736870" lon="-74.3180120">
        <ele>2640.8</ele>
        <time>2018-08-10T16:55:09Z</time>
      </trkpt>
      <trkpt lat="4.6736570" lon="-74.3180250">
        <ele>2640.8</ele>
        <time>2018-08-10T16:55:10Z</time>
      </trkpt>
      <trkpt lat="4.6736220" lon="-74.3180380">
        <ele>2640.7</ele>
        <time>2018-08-10T16:55:11Z</time>
      </trkpt>
      <trkpt lat="4.6735920" lon="-74.3180520">
        <ele>2640.7</ele>
        <time>2018-08-10T16:55:12Z</time>
      </trkpt>
      <trkpt lat="4.6735550" lon="-74.3180680">
        <ele>2640.7</ele>
        <time>2018-08-10T16:55:13Z</time>
      </trkpt>
      <trkpt lat="4.6735250" lon="-74.3180850">
        <ele>2640.7</ele>
        <time>2018-08-10T16:55:14Z</time>
      </trkpt>
      <trkpt lat="4.6734920" lon="-74.3180980">
        <ele>2640.7</ele>
        <time>2018-08-10T16:55:15Z</time>
      </trkpt>
      <trkpt lat="4.6734680" lon="-74.3181150">
        <ele>2640.7</ele>
        <time>2018-08-10T16:55:16Z</time>
      </trkpt>
      <trkpt lat="4.6734380" lon="-74.3181370">
        <ele>2640.8</ele>
        <time>2018-08-10T16:55:17Z</time>
      </trkpt>
      <trkpt lat="4.6734100" lon="-74.3181520">
        <ele>2640.8</ele>
        <time>2018-08-10T16:55:18Z</time>
      </trkpt>
      <trkpt lat="4.6733870" lon="-74.3181670">
        <ele>2640.8</ele>
        <time>2018-08-10T16:55:19Z</time>
      </trkpt>
      <trkpt lat="4.6733620" lon="-74.3181800">
        <ele>2640.9</ele>
        <time>2018-08-10T16:55:20Z</time>
      </trkpt>
      <trkpt lat="4.6733370" lon="-74.3181930">
        <ele>2640.9</ele>
        <time>2018-08-10T16:55:21Z</time>
      </trkpt>
      <trkpt lat="4.6732850" lon="-74.3181980">
        <ele>2641.1</ele>
        <time>2018-08-10T16:55:23Z</time>
      </trkpt>
      <trkpt lat="4.6732370" lon="-74.3181970">
        <ele>2641.2</ele>
        <time>2018-08-10T16:55:25Z</time>
      </trkpt>
      <trkpt lat="4.6732050" lon="-74.3182000">
        <ele>2641.2</ele>
        <time>2018-08-10T16:55:26Z</time>
      </trkpt>
      <trkpt lat="4.6731770" lon="-74.3182120">
        <ele>2641.2</ele>
        <time>2018-08-10T16:55:27Z</time>
      </trkpt>
      <trkpt lat="4.6731220" lon="-74.3182280">
        <ele>2641.2</ele>
        <time>2018-08-10T16:55:29Z</time>
      </trkpt>
      <trkpt lat="4.6730920" lon="-74.3182380">
        <ele>2641.2</ele>
        <time>2018-08-10T16:55:30Z</time>
      </trkpt>
      <trkpt lat="4.6730630" lon="-74.3182500">
        <ele>2641.2</ele>
        <time>2018-08-10T16:55:31Z</time>
      </trkpt>
      <trkpt lat="4.6730250" lon="-74.3182620">
        <ele>2641.2</ele>
        <time>2018-08-10T16:55:32Z</time>
      </trkpt>
      <trkpt lat="4.6729820" lon="-74.3182870">
        <ele>2641.2</ele>
        <time>2018-08-10T16:55:34Z</time>
      </trkpt>
      <trkpt lat="4.6729480" lon="-74.3182980">
        <ele>2641.1</ele>
        <time>2018-08-10T16:55:35Z</time>
      </trkpt>
      <trkpt lat="4.6729230" lon="-74.3183130">
        <ele>2641.1</ele>
        <time>2018-08-10T16:55:36Z</time>
      </trkpt>
      <trkpt lat="4.6728950" lon="-74.3183230">
        <ele>2641.1</ele>
        <time>2018-08-10T16:55:37Z</time>
      </trkpt>
      <trkpt lat="4.6728630" lon="-74.3183320">
        <ele>2641.1</ele>
        <time>2018-08-10T16:55:38Z</time>
      </trkpt>
      <trkpt lat="4.6728370" lon="-74.3183400">
        <ele>2641.1</ele>
        <time>2018-08-10T16:55:39Z</time>
      </trkpt>
      <trkpt lat="4.6728080" lon="-74.3183500">
        <ele>2641.1</ele>
        <time>2018-08-10T16:55:40Z</time>
      </trkpt>
      <trkpt lat="4.6727850" lon="-74.3183650">
        <ele>2641.1</ele>
        <time>2018-08-10T16:55:41Z</time>
      </trkpt>
      <trkpt lat="4.6727580" lon="-74.3183820">
        <ele>2641.1</ele>
        <time>2018-08-10T16:55:42Z</time>
      </trkpt>
      <trkpt lat="4.6727320" lon="-74.3183980">
        <ele>2641.1</ele>
        <time>2018-08-10T16:55:43Z</time>
      </trkpt>
      <trkpt lat="4.6727100" lon="-74.3184150">
        <ele>2641.1</ele>
        <time>2018-08-10T16:55:44Z</time>
      </trkpt>
      <trkpt lat="4.6726920" lon="-74.3184370">
        <ele>2641.1</ele>
        <time>2018-08-10T16:55:45Z</time>
      </trkpt>
      <trkpt lat="4.6726720" lon="-74.3184580">
        <ele>2641.1</ele>
        <time>2018-08-10T16:55:46Z</time>
      </trkpt>
      <trkpt lat="4.6726480" lon="-74.3184770">
        <ele>2641.1</ele>
        <time>2018-08-10T16:55:47Z</time>
      </trkpt>
      <trkpt lat="4.6726250" lon="-74.3184930">
        <ele>2641.1</ele>
        <time>2018-08-10T16:55:48Z</time>
      </trkpt>
      <trkpt lat="4.6725900" lon="-74.3185030">
        <ele>2641.2</ele>
        <time>2018-08-10T16:55:49Z</time>
      </trkpt>
      <trkpt lat="4.6725650" lon="-74.3185170">
        <ele>2641.3</ele>
        <time>2018-08-10T16:55:50Z</time>
      </trkpt>
      <trkpt lat="4.6725150" lon="-74.3185420">
        <ele>2641.4</ele>
        <time>2018-08-10T16:55:52Z</time>
      </trkpt>
      <trkpt lat="4.6724680" lon="-74.3185520">
        <ele>2641.5</ele>
        <time>2018-08-10T16:55:54Z</time>
      </trkpt>
      <trkpt lat="4.6724420" lon="-74.3185580">
        <ele>2641.6</ele>
        <time>2018-08-10T16:55:55Z</time>
      </trkpt>
      <trkpt lat="4.6724030" lon="-74.3185650">
        <ele>2641.7</ele>
        <time>2018-08-10T16:55:56Z</time>
      </trkpt>
      <trkpt lat="4.6723730" lon="-74.3185630">
        <ele>2641.7</ele>
        <time>2018-08-10T16:55:57Z</time>
      </trkpt>
      <trkpt lat="4.6723380" lon="-74.3185450">
        <ele>2641.8</ele>
        <time>2018-08-10T16:55:59Z</time>
      </trkpt>
      <trkpt lat="4.6723080" lon="-74.3185120">
        <ele>2641.8</ele>
        <time>2018-08-10T16:56:01Z</time>
      </trkpt>
      <trkpt lat="4.6722780" lon="-74.3184620">
        <ele>2641.8</ele>
        <time>2018-08-10T16:56:03Z</time>
      </trkpt>
      <trkpt lat="4.6722630" lon="-74.3184370">
        <ele>2641.8</ele>
        <time>2018-08-10T16:56:04Z</time>
      </trkpt>
      <trkpt lat="4.6722280" lon="-74.3183920">
        <ele>2641.9</ele>
        <time>2018-08-10T16:56:06Z</time>
      </trkpt>
      <trkpt lat="4.6722070" lon="-74.3183650">
        <ele>2641.9</ele>
        <time>2018-08-10T16:56:07Z</time>
      </trkpt>
      <trkpt lat="4.6721880" lon="-74.3183430">
        <ele>2642.0</ele>
        <time>2018-08-10T16:56:08Z</time>
      </trkpt>
      <trkpt lat="4.6721670" lon="-74.3183220">
        <ele>2642.0</ele>
        <time>2018-08-10T16:56:09Z</time>
      </trkpt>
      <trkpt lat="4.6721420" lon="-74.3182980">
        <ele>2642.1</ele>
        <time>2018-08-10T16:56:10Z</time>
      </trkpt>
      <trkpt lat="4.6721230" lon="-74.3182730">
        <ele>2642.2</ele>
        <time>2018-08-10T16:56:11Z</time>
      </trkpt>
      <trkpt lat="4.6721070" lon="-74.3182520">
        <ele>2642.2</ele>
        <time>2018-08-10T16:56:12Z</time>
      </trkpt>
      <trkpt lat="4.6720750" lon="-74.3182120">
        <ele>2642.3</ele>
        <time>2018-08-10T16:56:14Z</time>
      </trkpt>
      <trkpt lat="4.6720570" lon="-74.3181870">
        <ele>2642.3</ele>
        <time>2018-08-10T16:56:15Z</time>
      </trkpt>
      <trkpt lat="4.6720400" lon="-74.3181600">
        <ele>2642.3</ele>
        <time>2018-08-10T16:56:16Z</time>
      </trkpt>
      <trkpt lat="4.6720170" lon="-74.3181330">
        <ele>2642.3</ele>
        <time>2018-08-10T16:56:17Z</time>
      </trkpt>
      <trkpt lat="4.6719980" lon="-74.3181130">
        <ele>2642.3</ele>
        <time>2018-08-10T16:56:18Z</time>
      </trkpt>
      <trkpt lat="4.6719820" lon="-74.3180920">
        <ele>2642.3</ele>
        <time>2018-08-10T16:56:19Z</time>
      </trkpt>
      <trkpt lat="4.6719630" lon="-74.3180700">
        <ele>2642.3</ele>
        <time>2018-08-10T16:56:20Z</time>
      </trkpt>
      <trkpt lat="4.6719450" lon="-74.3180470">
        <ele>2642.3</ele>
        <time>2018-08-10T16:56:21Z</time>
      </trkpt>
      <trkpt lat="4.6719230" lon="-74.3180200">
        <ele>2642.3</ele>
        <time>2018-08-10T16:56:22Z</time>
      </trkpt>
      <trkpt lat="4.6719050" lon="-74.3179950">
        <ele>2642.3</ele>
        <time>2018-08-10T16:56:23Z</time>
      </trkpt>
      <trkpt lat="4.6718880" lon="-74.3179730">
        <ele>2642.3</ele>
        <time>2018-08-10T16:56:24Z</time>
      </trkpt>
      <trkpt lat="4.6718580" lon="-74.3179320">
        <ele>2642.3</ele>
        <time>2018-08-10T16:56:26Z</time>
      </trkpt>
      <trkpt lat="4.6718330" lon="-74.3178880">
        <ele>2642.3</ele>
        <time>2018-08-10T16:56:28Z</time>
      </trkpt>
      <trkpt lat="4.6718120" lon="-74.3178400">
        <ele>2642.3</ele>
        <time>2018-08-10T16:56:30Z</time>
      </trkpt>
      <trkpt lat="4.6718020" lon="-74.3178130">
        <ele>2642.3</ele>
        <time>2018-08-10T16:56:31Z</time>
      </trkpt>
      <trkpt lat="4.6717830" lon="-74.3177680">
        <ele>2642.3</ele>
        <time>2018-08-10T16:56:33Z</time>
      </trkpt>
      <trkpt lat="4.6717580" lon="-74.3177180">
        <ele>2642.4</ele>
        <time>2018-08-10T16:56:35Z</time>
      </trkpt>
      <trkpt lat="4.6717480" lon="-74.3176880">
        <ele>2642.4</ele>
        <time>2018-08-10T16:56:36Z</time>
      </trkpt>
      <trkpt lat="4.6717370" lon="-74.3176620">
        <ele>2642.4</ele>
        <time>2018-08-10T16:56:37Z</time>
      </trkpt>
      <trkpt lat="4.6717280" lon="-74.3176170">
        <ele>2642.4</ele>
        <time>2018-08-10T16:56:39Z</time>
      </trkpt>
      <trkpt lat="4.6717070" lon="-74.3175800">
        <ele>2642.5</ele>
        <time>2018-08-10T16:56:42Z</time>
      </trkpt>
      <trkpt lat="4.6716950" lon="-74.3175420">
        <ele>2642.5</ele>
        <time>2018-08-10T16:56:43Z</time>
      </trkpt>
      <trkpt lat="4.6716730" lon="-74.3175070">
        <ele>2642.7</ele>
        <time>2018-08-10T16:56:44Z</time>
      </trkpt>
      <trkpt lat="4.6716620" lon="-74.3174820">
        <ele>2642.7</ele>
        <time>2018-08-10T16:56:45Z</time>
      </trkpt>
      <trkpt lat="4.6716480" lon="-74.3174530">
        <ele>2642.9</ele>
        <time>2018-08-10T16:56:46Z</time>
      </trkpt>
      <trkpt lat="4.6716420" lon="-74.3174250">
        <ele>2642.9</ele>
        <time>2018-08-10T16:56:47Z</time>
      </trkpt>
      <trkpt lat="4.6716430" lon="-74.3173730">
        <ele>2643.0</ele>
        <time>2018-08-10T16:56:49Z</time>
      </trkpt>
      <trkpt lat="4.6716270" lon="-74.3173450">
        <ele>2643.1</ele>
        <time>2018-08-10T16:56:51Z</time>
      </trkpt>
      <trkpt lat="4.6716030" lon="-74.3173280">
        <ele>2643.1</ele>
        <time>2018-08-10T16:56:53Z</time>
      </trkpt>
      <trkpt lat="4.6715880" lon="-74.3173020">
        <ele>2643.1</ele>
        <time>2018-08-10T16:56:55Z</time>
      </trkpt>
      <trkpt lat="4.6715620" lon="-74.3172750">
        <ele>2643.2</ele>
        <time>2018-08-10T16:56:57Z</time>
      </trkpt>
      <trkpt lat="4.6715300" lon="-74.3172470">
        <ele>2643.3</ele>
        <time>2018-08-10T16:56:59Z</time>
      </trkpt>
      <trkpt lat="4.6714830" lon="-74.3172320">
        <ele>2643.5</ele>
        <time>2018-08-10T16:57:02Z</time>
      </trkpt>
      <trkpt lat="4.6714430" lon="-74.3172130">
        <ele>2643.7</ele>
        <time>2018-08-10T16:57:04Z</time>
      </trkpt>
      <trkpt lat="4.6714170" lon="-74.3171980">
        <ele>2643.8</ele>
        <time>2018-08-10T16:57:06Z</time>
      </trkpt>
      <trkpt lat="4.6713780" lon="-74.3172100">
        <ele>2644.0</ele>
        <time>2018-08-10T16:57:08Z</time>
      </trkpt>
      <trkpt lat="4.6713280" lon="-74.3172100">
        <ele>2644.1</ele>
        <time>2018-08-10T16:57:10Z</time>
      </trkpt>
      <trkpt lat="4.6712850" lon="-74.3171930">
        <ele>2644.3</ele>
        <time>2018-08-10T16:57:12Z</time>
      </trkpt>
      <trkpt lat="4.6712450" lon="-74.3171830">
        <ele>2644.5</ele>
        <time>2018-08-10T16:57:14Z</time>
      </trkpt>
      <trkpt lat="4.6712000" lon="-74.3171870">
        <ele>2644.6</ele>
        <time>2018-08-10T16:57:16Z</time>
      </trkpt>
      <trkpt lat="4.6711520" lon="-74.3171920">
        <ele>2644.6</ele>
        <time>2018-08-10T16:57:18Z</time>
      </trkpt>
      <trkpt lat="4.6711220" lon="-74.3171920">
        <ele>2644.6</ele>
        <time>2018-08-10T16:57:19Z</time>
      </trkpt>
      <trkpt lat="4.6710880" lon="-74.3171920">
        <ele>2644.6</ele>
        <time>2018-08-10T16:57:20Z</time>
      </trkpt>
      <trkpt lat="4.6710580" lon="-74.3171900">
        <ele>2644.6</ele>
        <time>2018-08-10T16:57:21Z</time>
      </trkpt>
      <trkpt lat="4.6710250" lon="-74.3171900">
        <ele>2644.6</ele>
        <time>2018-08-10T16:57:22Z</time>
      </trkpt>
      <trkpt lat="4.6709700" lon="-74.3171970">
        <ele>2644.6</ele>
        <time>2018-08-10T16:57:23Z</time>
      </trkpt>
      <trkpt lat="4.6709380" lon="-74.3171980">
        <ele>2644.6</ele>
        <time>2018-08-10T16:57:24Z</time>
      </trkpt>
      <trkpt lat="4.6709120" lon="-74.3172030">
        <ele>2644.6</ele>
        <time>2018-08-10T16:57:25Z</time>
      </trkpt>
      <trkpt lat="4.6708820" lon="-74.3172100">
        <ele>2644.6</ele>
        <time>2018-08-10T16:57:26Z</time>
      </trkpt>
      <trkpt lat="4.6708480" lon="-74.3172170">
        <ele>2644.5</ele>
        <time>2018-08-10T16:57:27Z</time>
      </trkpt>
      <trkpt lat="4.6708080" lon="-74.3172200">
        <ele>2644.5</ele>
        <time>2018-08-10T16:57:28Z</time>
      </trkpt>
      <trkpt lat="4.6707700" lon="-74.3172230">
        <ele>2644.5</ele>
        <time>2018-08-10T16:57:29Z</time>
      </trkpt>
      <trkpt lat="4.6707280" lon="-74.3172220">
        <ele>2644.4</ele>
        <time>2018-08-10T16:57:30Z</time>
      </trkpt>
      <trkpt lat="4.6706920" lon="-74.3172220">
        <ele>2644.4</ele>
        <time>2018-08-10T16:57:31Z</time>
      </trkpt>
      <trkpt lat="4.6706570" lon="-74.3172170">
        <ele>2644.4</ele>
        <time>2018-08-10T16:57:32Z</time>
      </trkpt>
      <trkpt lat="4.6706200" lon="-74.3172150">
        <ele>2644.3</ele>
        <time>2018-08-10T16:57:33Z</time>
      </trkpt>
      <trkpt lat="4.6705830" lon="-74.3172200">
        <ele>2644.3</ele>
        <time>2018-08-10T16:57:34Z</time>
      </trkpt>
      <trkpt lat="4.6705500" lon="-74.3172230">
        <ele>2644.3</ele>
        <time>2018-08-10T16:57:35Z</time>
      </trkpt>
      <trkpt lat="4.6705150" lon="-74.3172230">
        <ele>2644.3</ele>
        <time>2018-08-10T16:57:37Z</time>
      </trkpt>
      <trkpt lat="4.6705100" lon="-74.3172650">
        <ele>2644.2</ele>
        <time>2018-08-10T16:58:02Z</time>
      </trkpt>
      <trkpt lat="4.6704770" lon="-74.3172580">
        <ele>2644.2</ele>
        <time>2018-08-10T16:58:04Z</time>
      </trkpt>
      <trkpt lat="4.6704370" lon="-74.3172500">
        <ele>2644.2</ele>
        <time>2018-08-10T16:58:06Z</time>
      </trkpt>
      <trkpt lat="4.6703870" lon="-74.3172320">
        <ele>2644.1</ele>
        <time>2018-08-10T16:58:08Z</time>
      </trkpt>
      <trkpt lat="4.6703350" lon="-74.3172130">
        <ele>2644.1</ele>
        <time>2018-08-10T16:58:10Z</time>
      </trkpt>
      <trkpt lat="4.6702770" lon="-74.3172070">
        <ele>2644.1</ele>
        <time>2018-08-10T16:58:12Z</time>
      </trkpt>
      <trkpt lat="4.6702480" lon="-74.3172030">
        <ele>2644.0</ele>
        <time>2018-08-10T16:58:13Z</time>
      </trkpt>
      <trkpt lat="4.6702200" lon="-74.3171980">
        <ele>2644.0</ele>
        <time>2018-08-10T16:58:14Z</time>
      </trkpt>
      <trkpt lat="4.6701670" lon="-74.3171780">
        <ele>2643.9</ele>
        <time>2018-08-10T16:58:16Z</time>
      </trkpt>
      <trkpt lat="4.6701350" lon="-74.3171720">
        <ele>2643.9</ele>
        <time>2018-08-10T16:58:17Z</time>
      </trkpt>
      <trkpt lat="4.6701050" lon="-74.3171680">
        <ele>2643.9</ele>
        <time>2018-08-10T16:58:18Z</time>
      </trkpt>
      <trkpt lat="4.6700730" lon="-74.3171680">
        <ele>2643.8</ele>
        <time>2018-08-10T16:58:19Z</time>
      </trkpt>
      <trkpt lat="4.6700430" lon="-74.3171720">
        <ele>2643.8</ele>
        <time>2018-08-10T16:58:20Z</time>
      </trkpt>
      <trkpt lat="4.6700120" lon="-74.3171650">
        <ele>2643.7</ele>
        <time>2018-08-10T16:58:21Z</time>
      </trkpt>
      <trkpt lat="4.6699770" lon="-74.3171600">
        <ele>2643.7</ele>
        <time>2018-08-10T16:58:22Z</time>
      </trkpt>
      <trkpt lat="4.6699430" lon="-74.3171550">
        <ele>2643.7</ele>
        <time>2018-08-10T16:58:23Z</time>
      </trkpt>
      <trkpt lat="4.6698980" lon="-74.3171500">
        <ele>2643.6</ele>
        <time>2018-08-10T16:58:24Z</time>
      </trkpt>
      <trkpt lat="4.6698570" lon="-74.3171370">
        <ele>2643.6</ele>
        <time>2018-08-10T16:58:25Z</time>
      </trkpt>
      <trkpt lat="4.6698220" lon="-74.3171230">
        <ele>2643.5</ele>
        <time>2018-08-10T16:58:26Z</time>
      </trkpt>
      <trkpt lat="4.6697830" lon="-74.3171120">
        <ele>2643.4</ele>
        <time>2018-08-10T16:58:27Z</time>
      </trkpt>
      <trkpt lat="4.6697450" lon="-74.3171000">
        <ele>2643.3</ele>
        <time>2018-08-10T16:58:28Z</time>
      </trkpt>
      <trkpt lat="4.6697070" lon="-74.3170880">
        <ele>2643.2</ele>
        <time>2018-08-10T16:58:29Z</time>
      </trkpt>
      <trkpt lat="4.6696700" lon="-74.3170800">
        <ele>2643.1</ele>
        <time>2018-08-10T16:58:30Z</time>
      </trkpt>
      <trkpt lat="4.6696280" lon="-74.3170720">
        <ele>2643.0</ele>
        <time>2018-08-10T16:58:31Z</time>
      </trkpt>
      <trkpt lat="4.6695880" lon="-74.3170630">
        <ele>2642.9</ele>
        <time>2018-08-10T16:58:32Z</time>
      </trkpt>
      <trkpt lat="4.6695470" lon="-74.3170570">
        <ele>2642.8</ele>
        <time>2018-08-10T16:58:33Z</time>
      </trkpt>
      <trkpt lat="4.6695070" lon="-74.3170500">
        <ele>2642.6</ele>
        <time>2018-08-10T16:58:34Z</time>
      </trkpt>
      <trkpt lat="4.6694630" lon="-74.3170400">
        <ele>2642.3</ele>
        <time>2018-08-10T16:58:35Z</time>
      </trkpt>
      <trkpt lat="4.6694250" lon="-74.3170280">
        <ele>2642.0</ele>
        <time>2018-08-10T16:58:36Z</time>
      </trkpt>
      <trkpt lat="4.6693820" lon="-74.3170180">
        <ele>2641.8</ele>
        <time>2018-08-10T16:58:37Z</time>
      </trkpt>
      <trkpt lat="4.6693450" lon="-74.3170050">
        <ele>2641.5</ele>
        <time>2018-08-10T16:58:38Z</time>
      </trkpt>
      <trkpt lat="4.6693120" lon="-74.3169930">
        <ele>2641.3</ele>
        <time>2018-08-10T16:58:39Z</time>
      </trkpt>
      <trkpt lat="4.6692780" lon="-74.3169870">
        <ele>2641.0</ele>
        <time>2018-08-10T16:58:40Z</time>
      </trkpt>
      <trkpt lat="4.6692430" lon="-74.3169770">
        <ele>2640.8</ele>
        <time>2018-08-10T16:58:41Z</time>
      </trkpt>
      <trkpt lat="4.6692100" lon="-74.3169720">
        <ele>2640.6</ele>
        <time>2018-08-10T16:58:42Z</time>
      </trkpt>
      <trkpt lat="4.6691830" lon="-74.3169630">
        <ele>2640.4</ele>
        <time>2018-08-10T16:58:43Z</time>
      </trkpt>
      <trkpt lat="4.6691550" lon="-74.3169520">
        <ele>2640.3</ele>
        <time>2018-08-10T16:58:44Z</time>
      </trkpt>
      <trkpt lat="4.6691250" lon="-74.3169420">
        <ele>2640.3</ele>
        <time>2018-08-10T16:58:45Z</time>
      </trkpt>
      <trkpt lat="4.6690970" lon="-74.3169280">
        <ele>2640.2</ele>
        <time>2018-08-10T16:58:46Z</time>
      </trkpt>
      <trkpt lat="4.6690670" lon="-74.3169150">
        <ele>2640.1</ele>
        <time>2018-08-10T16:58:47Z</time>
      </trkpt>
      <trkpt lat="4.6690400" lon="-74.3169030">
        <ele>2640.0</ele>
        <time>2018-08-10T16:58:48Z</time>
      </trkpt>
      <trkpt lat="4.6689920" lon="-74.3168850">
        <ele>2639.9</ele>
        <time>2018-08-10T16:58:50Z</time>
      </trkpt>
      <trkpt lat="4.6689480" lon="-74.3168630">
        <ele>2639.8</ele>
        <time>2018-08-10T16:58:52Z</time>
      </trkpt>
      <trkpt lat="4.6689000" lon="-74.3168380">
        <ele>2639.6</ele>
        <time>2018-08-10T16:58:54Z</time>
      </trkpt>
      <trkpt lat="4.6688520" lon="-74.3168120">
        <ele>2639.5</ele>
        <time>2018-08-10T16:58:56Z</time>
      </trkpt>
      <trkpt lat="4.6688130" lon="-74.3167980">
        <ele>2639.4</ele>
        <time>2018-08-10T16:58:57Z</time>
      </trkpt>
      <trkpt lat="4.6687870" lon="-74.3167870">
        <ele>2639.3</ele>
        <time>2018-08-10T16:58:58Z</time>
      </trkpt>
      <trkpt lat="4.6687280" lon="-74.3167670">
        <ele>2639.0</ele>
        <time>2018-08-10T16:59:00Z</time>
      </trkpt>
      <trkpt lat="4.6686750" lon="-74.3167350">
        <ele>2638.7</ele>
        <time>2018-08-10T16:59:02Z</time>
      </trkpt>
      <trkpt lat="4.6686500" lon="-74.3167150">
        <ele>2638.5</ele>
        <time>2018-08-10T16:59:03Z</time>
      </trkpt>
      <trkpt lat="4.6686230" lon="-74.3166970">
        <ele>2638.3</ele>
        <time>2018-08-10T16:59:04Z</time>
      </trkpt>
      <trkpt lat="4.6685930" lon="-74.3166820">
        <ele>2638.1</ele>
        <time>2018-08-10T16:59:05Z</time>
      </trkpt>
      <trkpt lat="4.6685600" lon="-74.3166680">
        <ele>2637.9</ele>
        <time>2018-08-10T16:59:06Z</time>
      </trkpt>
      <trkpt lat="4.6685050" lon="-74.3166470">
        <ele>2637.5</ele>
        <time>2018-08-10T16:59:08Z</time>
      </trkpt>
      <trkpt lat="4.6684770" lon="-74.3166350">
        <ele>2637.4</ele>
        <time>2018-08-10T16:59:09Z</time>
      </trkpt>
      <trkpt lat="4.6684500" lon="-74.3166230">
        <ele>2637.2</ele>
        <time>2018-08-10T16:59:10Z</time>
      </trkpt>
      <trkpt lat="4.6684180" lon="-74.3166070">
        <ele>2637.1</ele>
        <time>2018-08-10T16:59:11Z</time>
      </trkpt>
      <trkpt lat="4.6683930" lon="-74.3165880">
        <ele>2636.9</ele>
        <time>2018-08-10T16:59:12Z</time>
      </trkpt>
      <trkpt lat="4.6683650" lon="-74.3165700">
        <ele>2636.8</ele>
        <time>2018-08-10T16:59:13Z</time>
      </trkpt>
      <trkpt lat="4.6683370" lon="-74.3165530">
        <ele>2636.7</ele>
        <time>2018-08-10T16:59:14Z</time>
      </trkpt>
      <trkpt lat="4.6683120" lon="-74.3165380">
        <ele>2636.6</ele>
        <time>2018-08-10T16:59:15Z</time>
      </trkpt>
      <trkpt lat="4.6682830" lon="-74.3165230">
        <ele>2636.5</ele>
        <time>2018-08-10T16:59:16Z</time>
      </trkpt>
      <trkpt lat="4.6682400" lon="-74.3164920">
        <ele>2636.3</ele>
        <time>2018-08-10T16:59:18Z</time>
      </trkpt>
      <trkpt lat="4.6682130" lon="-74.3164750">
        <ele>2636.2</ele>
        <time>2018-08-10T16:59:19Z</time>
      </trkpt>
      <trkpt lat="4.6681850" lon="-74.3164530">
        <ele>2636.1</ele>
        <time>2018-08-10T16:59:20Z</time>
      </trkpt>
      <trkpt lat="4.6681600" lon="-74.3164380">
        <ele>2636.0</ele>
        <time>2018-08-10T16:59:21Z</time>
      </trkpt>
      <trkpt lat="4.6681170" lon="-74.3164150">
        <ele>2635.8</ele>
        <time>2018-08-10T16:59:23Z</time>
      </trkpt>
      <trkpt lat="4.6680770" lon="-74.3163970">
        <ele>2635.6</ele>
        <time>2018-08-10T16:59:25Z</time>
      </trkpt>
      <trkpt lat="4.6680470" lon="-74.3163830">
        <ele>2635.4</ele>
        <time>2018-08-10T16:59:26Z</time>
      </trkpt>
      <trkpt lat="4.6680220" lon="-74.3163700">
        <ele>2635.2</ele>
        <time>2018-08-10T16:59:27Z</time>
      </trkpt>
      <trkpt lat="4.6679920" lon="-74.3163380">
        <ele>2635.0</ele>
        <time>2018-08-10T16:59:29Z</time>
      </trkpt>
      <trkpt lat="4.6679630" lon="-74.3163170">
        <ele>2634.8</ele>
        <time>2018-08-10T16:59:31Z</time>
      </trkpt>
      <trkpt lat="4.6679380" lon="-74.3163030">
        <ele>2634.6</ele>
        <time>2018-08-10T16:59:33Z</time>
      </trkpt>
      <trkpt lat="4.6679030" lon="-74.3162780">
        <ele>2634.4</ele>
        <time>2018-08-10T16:59:35Z</time>
      </trkpt>
      <trkpt lat="4.6678500" lon="-74.3162630">
        <ele>2634.1</ele>
        <time>2018-08-10T16:59:37Z</time>
      </trkpt>
      <trkpt lat="4.6678250" lon="-74.3162520">
        <ele>2634.0</ele>
        <time>2018-08-10T16:59:38Z</time>
      </trkpt>
      <trkpt lat="4.6677750" lon="-74.3162270">
        <ele>2633.9</ele>
        <time>2018-08-10T16:59:40Z</time>
      </trkpt>
      <trkpt lat="4.6677350" lon="-74.3162030">
        <ele>2633.8</ele>
        <time>2018-08-10T16:59:42Z</time>
      </trkpt>
      <trkpt lat="4.6677000" lon="-74.3161770">
        <ele>2633.7</ele>
        <time>2018-08-10T16:59:44Z</time>
      </trkpt>
      <trkpt lat="4.6676730" lon="-74.3161600">
        <ele>2633.6</ele>
        <time>2018-08-10T16:59:45Z</time>
      </trkpt>
      <trkpt lat="4.6676480" lon="-74.3161450">
        <ele>2633.5</ele>
        <time>2018-08-10T16:59:46Z</time>
      </trkpt>
      <trkpt lat="4.6676250" lon="-74.3161280">
        <ele>2633.5</ele>
        <time>2018-08-10T16:59:47Z</time>
      </trkpt>
      <trkpt lat="4.6675970" lon="-74.3161100">
        <ele>2633.4</ele>
        <time>2018-08-10T16:59:48Z</time>
      </trkpt>
      <trkpt lat="4.6675600" lon="-74.3160870">
        <ele>2633.3</ele>
        <time>2018-08-10T16:59:49Z</time>
      </trkpt>
      <trkpt lat="4.6675270" lon="-74.3160650">
        <ele>2633.2</ele>
        <time>2018-08-10T16:59:50Z</time>
      </trkpt>
      <trkpt lat="4.6674950" lon="-74.3160430">
        <ele>2633.2</ele>
        <time>2018-08-10T16:59:51Z</time>
      </trkpt>
      <trkpt lat="4.6674620" lon="-74.3160280">
        <ele>2633.1</ele>
        <time>2018-08-10T16:59:52Z</time>
      </trkpt>
      <trkpt lat="4.6674200" lon="-74.3160100">
        <ele>2633.0</ele>
        <time>2018-08-10T16:59:53Z</time>
      </trkpt>
      <trkpt lat="4.6673850" lon="-74.3159850">
        <ele>2632.9</ele>
        <time>2018-08-10T16:59:54Z</time>
      </trkpt>
      <trkpt lat="4.6673520" lon="-74.3159580">
        <ele>2632.7</ele>
        <time>2018-08-10T16:59:55Z</time>
      </trkpt>
      <trkpt lat="4.6673170" lon="-74.3159350">
        <ele>2632.5</ele>
        <time>2018-08-10T16:59:56Z</time>
      </trkpt>
      <trkpt lat="4.6672720" lon="-74.3159120">
        <ele>2632.3</ele>
        <time>2018-08-10T16:59:57Z</time>
      </trkpt>
      <trkpt lat="4.6672350" lon="-74.3158880">
        <ele>2632.1</ele>
        <time>2018-08-10T16:59:58Z</time>
      </trkpt>
      <trkpt lat="4.6672020" lon="-74.3158650">
        <ele>2631.9</ele>
        <time>2018-08-10T16:59:59Z</time>
      </trkpt>
      <trkpt lat="4.6671680" lon="-74.3158400">
        <ele>2631.7</ele>
        <time>2018-08-10T17:00:00Z</time>
      </trkpt>
      <trkpt lat="4.6671330" lon="-74.3158100">
        <ele>2631.4</ele>
        <time>2018-08-10T17:00:01Z</time>
      </trkpt>
      <trkpt lat="4.6671000" lon="-74.3157780">
        <ele>2631.2</ele>
        <time>2018-08-10T17:00:02Z</time>
      </trkpt>
      <trkpt lat="4.6670630" lon="-74.3157500">
        <ele>2631.0</ele>
        <time>2018-08-10T17:00:03Z</time>
      </trkpt>
      <trkpt lat="4.6670270" lon="-74.3157230">
        <ele>2630.7</ele>
        <time>2018-08-10T17:00:04Z</time>
      </trkpt>
      <trkpt lat="4.6669930" lon="-74.3156920">
        <ele>2630.5</ele>
        <time>2018-08-10T17:00:05Z</time>
      </trkpt>
      <trkpt lat="4.6669620" lon="-74.3156620">
        <ele>2630.2</ele>
        <time>2018-08-10T17:00:06Z</time>
      </trkpt>
      <trkpt lat="4.6669320" lon="-74.3156300">
        <ele>2630.0</ele>
        <time>2018-08-10T17:00:07Z</time>
      </trkpt>
      <trkpt lat="4.6668980" lon="-74.3155970">
        <ele>2629.7</ele>
        <time>2018-08-10T17:00:08Z</time>
      </trkpt>
      <trkpt lat="4.6668680" lon="-74.3155650">
        <ele>2629.4</ele>
        <time>2018-08-10T17:00:09Z</time>
      </trkpt>
      <trkpt lat="4.6668400" lon="-74.3155320">
        <ele>2629.2</ele>
        <time>2018-08-10T17:00:10Z</time>
      </trkpt>
      <trkpt lat="4.6668130" lon="-74.3154980">
        <ele>2628.9</ele>
        <time>2018-08-10T17:00:11Z</time>
      </trkpt>
      <trkpt lat="4.6667830" lon="-74.3154650">
        <ele>2628.6</ele>
        <time>2018-08-10T17:00:12Z</time>
      </trkpt>
      <trkpt lat="4.6667570" lon="-74.3154330">
        <ele>2628.4</ele>
        <time>2018-08-10T17:00:13Z</time>
      </trkpt>
      <trkpt lat="4.6667330" lon="-74.3154000">
        <ele>2628.1</ele>
        <time>2018-08-10T17:00:14Z</time>
      </trkpt>
      <trkpt lat="4.6667080" lon="-74.3153700">
        <ele>2627.9</ele>
        <time>2018-08-10T17:00:15Z</time>
      </trkpt>
      <trkpt lat="4.6666850" lon="-74.3153400">
        <ele>2627.6</ele>
        <time>2018-08-10T17:00:16Z</time>
      </trkpt>
      <trkpt lat="4.6666650" lon="-74.3153130">
        <ele>2627.4</ele>
        <time>2018-08-10T17:00:17Z</time>
      </trkpt>
      <trkpt lat="4.6666470" lon="-74.3152820">
        <ele>2627.1</ele>
        <time>2018-08-10T17:00:18Z</time>
      </trkpt>
      <trkpt lat="4.6666320" lon="-74.3152520">
        <ele>2626.9</ele>
        <time>2018-08-10T17:00:19Z</time>
      </trkpt>
      <trkpt lat="4.6666150" lon="-74.3152220">
        <ele>2626.7</ele>
        <time>2018-08-10T17:00:20Z</time>
      </trkpt>
      <trkpt lat="4.6665980" lon="-74.3151970">
        <ele>2626.5</ele>
        <time>2018-08-10T17:00:21Z</time>
      </trkpt>
      <trkpt lat="4.6665780" lon="-74.3151730">
        <ele>2626.3</ele>
        <time>2018-08-10T17:00:22Z</time>
      </trkpt>
      <trkpt lat="4.6665550" lon="-74.3151520">
        <ele>2626.0</ele>
        <time>2018-08-10T17:00:23Z</time>
      </trkpt>
      <trkpt lat="4.6665270" lon="-74.3151330">
        <ele>2625.8</ele>
        <time>2018-08-10T17:00:24Z</time>
      </trkpt>
      <trkpt lat="4.6664980" lon="-74.3151150">
        <ele>2625.5</ele>
        <time>2018-08-10T17:00:25Z</time>
      </trkpt>
      <trkpt lat="4.6664720" lon="-74.3151020">
        <ele>2625.3</ele>
        <time>2018-08-10T17:00:26Z</time>
      </trkpt>
      <trkpt lat="4.6664400" lon="-74.3150850">
        <ele>2625.0</ele>
        <time>2018-08-10T17:00:27Z</time>
      </trkpt>
      <trkpt lat="4.6664130" lon="-74.3150630">
        <ele>2624.7</ele>
        <time>2018-08-10T17:00:28Z</time>
      </trkpt>
      <trkpt lat="4.6663830" lon="-74.3150420">
        <ele>2624.4</ele>
        <time>2018-08-10T17:00:29Z</time>
      </trkpt>
      <trkpt lat="4.6663520" lon="-74.3150180">
        <ele>2624.0</ele>
        <time>2018-08-10T17:00:30Z</time>
      </trkpt>
      <trkpt lat="4.6663180" lon="-74.3149970">
        <ele>2623.6</ele>
        <time>2018-08-10T17:00:31Z</time>
      </trkpt>
      <trkpt lat="4.6662850" lon="-74.3149700">
        <ele>2623.2</ele>
        <time>2018-08-10T17:00:32Z</time>
      </trkpt>
      <trkpt lat="4.6662500" lon="-74.3149500">
        <ele>2622.9</ele>
        <time>2018-08-10T17:00:33Z</time>
      </trkpt>
      <trkpt lat="4.6662170" lon="-74.3149300">
        <ele>2622.5</ele>
        <time>2018-08-10T17:00:34Z</time>
      </trkpt>
      <trkpt lat="4.6661830" lon="-74.3149100">
        <ele>2622.1</ele>
        <time>2018-08-10T17:00:35Z</time>
      </trkpt>
      <trkpt lat="4.6661500" lon="-74.3148880">
        <ele>2621.8</ele>
        <time>2018-08-10T17:00:36Z</time>
      </trkpt>
      <trkpt lat="4.6661130" lon="-74.3148580">
        <ele>2621.3</ele>
        <time>2018-08-10T17:00:37Z</time>
      </trkpt>
      <trkpt lat="4.6660800" lon="-74.3148280">
        <ele>2620.9</ele>
        <time>2018-08-10T17:00:38Z</time>
      </trkpt>
      <trkpt lat="4.6660450" lon="-74.3147980">
        <ele>2620.4</ele>
        <time>2018-08-10T17:00:39Z</time>
      </trkpt>
      <trkpt lat="4.6660120" lon="-74.3147670">
        <ele>2620.0</ele>
        <time>2018-08-10T17:00:40Z</time>
      </trkpt>
      <trkpt lat="4.6659820" lon="-74.3147370">
        <ele>2619.5</ele>
        <time>2018-08-10T17:00:41Z</time>
      </trkpt>
      <trkpt lat="4.6659500" lon="-74.3147120">
        <ele>2619.1</ele>
        <time>2018-08-10T17:00:42Z</time>
      </trkpt>
      <trkpt lat="4.6659180" lon="-74.3146830">
        <ele>2618.7</ele>
        <time>2018-08-10T17:00:43Z</time>
      </trkpt>
      <trkpt lat="4.6658880" lon="-74.3146570">
        <ele>2618.3</ele>
        <time>2018-08-10T17:00:44Z</time>
      </trkpt>
      <trkpt lat="4.6658600" lon="-74.3146300">
        <ele>2617.9</ele>
        <time>2018-08-10T17:00:45Z</time>
      </trkpt>
      <trkpt lat="4.6658320" lon="-74.3146080">
        <ele>2617.5</ele>
        <time>2018-08-10T17:00:46Z</time>
      </trkpt>
      <trkpt lat="4.6658020" lon="-74.3145900">
        <ele>2617.2</ele>
        <time>2018-08-10T17:00:47Z</time>
      </trkpt>
      <trkpt lat="4.6657730" lon="-74.3145680">
        <ele>2617.2</ele>
        <time>2018-08-10T17:00:48Z</time>
      </trkpt>
      <trkpt lat="4.6657450" lon="-74.3145480">
        <ele>2617.6</ele>
        <time>2018-08-10T17:00:49Z</time>
      </trkpt>
      <trkpt lat="4.6657150" lon="-74.3145230">
        <ele>2618.1</ele>
        <time>2018-08-10T17:00:50Z</time>
      </trkpt>
      <trkpt lat="4.6656880" lon="-74.3145020">
        <ele>2618.2</ele>
        <time>2018-08-10T17:00:51Z</time>
      </trkpt>
      <trkpt lat="4.6656620" lon="-74.3144770">
        <ele>2618.3</ele>
        <time>2018-08-10T17:00:52Z</time>
      </trkpt>
      <trkpt lat="4.6656370" lon="-74.3144520">
        <ele>2618.5</ele>
        <time>2018-08-10T17:00:53Z</time>
      </trkpt>
      <trkpt lat="4.6656150" lon="-74.3144270">
        <ele>2618.7</ele>
        <time>2018-08-10T17:00:54Z</time>
      </trkpt>
      <trkpt lat="4.6655970" lon="-74.3144030">
        <ele>2618.9</ele>
        <time>2018-08-10T17:00:55Z</time>
      </trkpt>
      <trkpt lat="4.6655800" lon="-74.3143750">
        <ele>2619.0</ele>
        <time>2018-08-10T17:00:56Z</time>
      </trkpt>
      <trkpt lat="4.6655620" lon="-74.3143450">
        <ele>2619.1</ele>
        <time>2018-08-10T17:00:57Z</time>
      </trkpt>
      <trkpt lat="4.6655430" lon="-74.3143100">
        <ele>2619.1</ele>
        <time>2018-08-10T17:00:58Z</time>
      </trkpt>
      <trkpt lat="4.6655270" lon="-74.3142780">
        <ele>2618.9</ele>
        <time>2018-08-10T17:00:59Z</time>
      </trkpt>
      <trkpt lat="4.6655080" lon="-74.3142480">
        <ele>2618.7</ele>
        <time>2018-08-10T17:01:00Z</time>
      </trkpt>
      <trkpt lat="4.6654870" lon="-74.3142180">
        <ele>2618.4</ele>
        <time>2018-08-10T17:01:01Z</time>
      </trkpt>
      <trkpt lat="4.6654670" lon="-74.3141800">
        <ele>2618.0</ele>
        <time>2018-08-10T17:01:02Z</time>
      </trkpt>
      <trkpt lat="4.6654480" lon="-74.3141380">
        <ele>2617.7</ele>
        <time>2018-08-10T17:01:03Z</time>
      </trkpt>
      <trkpt lat="4.6654280" lon="-74.3140980">
        <ele>2617.7</ele>
        <time>2018-08-10T17:01:04Z</time>
      </trkpt>
      <trkpt lat="4.6654120" lon="-74.3140620">
        <ele>2618.0</ele>
        <time>2018-08-10T17:01:05Z</time>
      </trkpt>
      <trkpt lat="4.6653980" lon="-74.3140230">
        <ele>2618.0</ele>
        <time>2018-08-10T17:01:06Z</time>
      </trkpt>
      <trkpt lat="4.6653830" lon="-74.3139900">
        <ele>2617.7</ele>
        <time>2018-08-10T17:01:07Z</time>
      </trkpt>
      <trkpt lat="4.6653680" lon="-74.3139570">
        <ele>2617.6</ele>
        <time>2018-08-10T17:01:08Z</time>
      </trkpt>
      <trkpt lat="4.6653530" lon="-74.3139230">
        <ele>2617.4</ele>
        <time>2018-08-10T17:01:09Z</time>
      </trkpt>
      <trkpt lat="4.6653350" lon="-74.3138870">
        <ele>2617.4</ele>
        <time>2018-08-10T17:01:10Z</time>
      </trkpt>
      <trkpt lat="4.6653150" lon="-74.3138470">
        <ele>2617.5</ele>
        <time>2018-08-10T17:01:11Z</time>
      </trkpt>
      <trkpt lat="4.6652980" lon="-74.3138080">
        <ele>2617.2</ele>
        <time>2018-08-10T17:01:12Z</time>
      </trkpt>
      <trkpt lat="4.6652880" lon="-74.3137750">
        <ele>2616.7</ele>
        <time>2018-08-10T17:01:13Z</time>
      </trkpt>
      <trkpt lat="4.6652750" lon="-74.3137350">
        <ele>2616.1</ele>
        <time>2018-08-10T17:01:14Z</time>
      </trkpt>
      <trkpt lat="4.6652580" lon="-74.3137000">
        <ele>2615.6</ele>
        <time>2018-08-10T17:01:15Z</time>
      </trkpt>
      <trkpt lat="4.6652430" lon="-74.3136630">
        <ele>2615.4</ele>
        <time>2018-08-10T17:01:16Z</time>
      </trkpt>
      <trkpt lat="4.6652270" lon="-74.3136230">
        <ele>2615.3</ele>
        <time>2018-08-10T17:01:17Z</time>
      </trkpt>
      <trkpt lat="4.6652150" lon="-74.3135780">
        <ele>2614.8</ele>
        <time>2018-08-10T17:01:18Z</time>
      </trkpt>
      <trkpt lat="4.6652000" lon="-74.3135350">
        <ele>2614.4</ele>
        <time>2018-08-10T17:01:19Z</time>
      </trkpt>
      <trkpt lat="4.6651780" lon="-74.3134900">
        <ele>2614.2</ele>
        <time>2018-08-10T17:01:20Z</time>
      </trkpt>
      <trkpt lat="4.6651550" lon="-74.3134450">
        <ele>2614.1</ele>
        <time>2018-08-10T17:01:21Z</time>
      </trkpt>
      <trkpt lat="4.6651270" lon="-74.3134050">
        <ele>2614.1</ele>
        <time>2018-08-10T17:01:22Z</time>
      </trkpt>
      <trkpt lat="4.6650980" lon="-74.3133600">
        <ele>2613.9</ele>
        <time>2018-08-10T17:01:23Z</time>
      </trkpt>
      <trkpt lat="4.6650680" lon="-74.3133220">
        <ele>2613.8</ele>
        <time>2018-08-10T17:01:24Z</time>
      </trkpt>
      <trkpt lat="4.6650350" lon="-74.3132870">
        <ele>2614.0</ele>
        <time>2018-08-10T17:01:25Z</time>
      </trkpt>
      <trkpt lat="4.6650050" lon="-74.3132570">
        <ele>2614.2</ele>
        <time>2018-08-10T17:01:26Z</time>
      </trkpt>
      <trkpt lat="4.6649730" lon="-74.3132270">
        <ele>2614.5</ele>
        <time>2018-08-10T17:01:27Z</time>
      </trkpt>
      <trkpt lat="4.6649400" lon="-74.3131980">
        <ele>2614.4</ele>
        <time>2018-08-10T17:01:28Z</time>
      </trkpt>
      <trkpt lat="4.6649050" lon="-74.3131750">
        <ele>2614.1</ele>
        <time>2018-08-10T17:01:29Z</time>
      </trkpt>
      <trkpt lat="4.6648670" lon="-74.3131450">
        <ele>2613.0</ele>
        <time>2018-08-10T17:01:30Z</time>
      </trkpt>
      <trkpt lat="4.6648400" lon="-74.3131170">
        <ele>2612.2</ele>
        <time>2018-08-10T17:01:31Z</time>
      </trkpt>
      <trkpt lat="4.6648130" lon="-74.3130920">
        <ele>2611.8</ele>
        <time>2018-08-10T17:01:32Z</time>
      </trkpt>
      <trkpt lat="4.6647800" lon="-74.3130650">
        <ele>2611.3</ele>
        <time>2018-08-10T17:01:33Z</time>
      </trkpt>
      <trkpt lat="4.6647470" lon="-74.3130380">
        <ele>2610.8</ele>
        <time>2018-08-10T17:01:34Z</time>
      </trkpt>
      <trkpt lat="4.6647100" lon="-74.3130170">
        <ele>2610.0</ele>
        <time>2018-08-10T17:01:35Z</time>
      </trkpt>
      <trkpt lat="4.6646720" lon="-74.3130000">
        <ele>2609.1</ele>
        <time>2018-08-10T17:01:36Z</time>
      </trkpt>
      <trkpt lat="4.6646350" lon="-74.3129870">
        <ele>2608.3</ele>
        <time>2018-08-10T17:01:37Z</time>
      </trkpt>
      <trkpt lat="4.6646020" lon="-74.3129670">
        <ele>2607.4</ele>
        <time>2018-08-10T17:01:38Z</time>
      </trkpt>
      <trkpt lat="4.6645700" lon="-74.3129470">
        <ele>2606.6</ele>
        <time>2018-08-10T17:01:39Z</time>
      </trkpt>
      <trkpt lat="4.6645420" lon="-74.3129250">
        <ele>2605.7</ele>
        <time>2018-08-10T17:01:40Z</time>
      </trkpt>
      <trkpt lat="4.6645120" lon="-74.3129020">
        <ele>2604.7</ele>
        <time>2018-08-10T17:01:41Z</time>
      </trkpt>
      <trkpt lat="4.6644780" lon="-74.3128800">
        <ele>2603.9</ele>
        <time>2018-08-10T17:01:42Z</time>
      </trkpt>
      <trkpt lat="4.6644450" lon="-74.3128520">
        <ele>2603.2</ele>
        <time>2018-08-10T17:01:43Z</time>
      </trkpt>
      <trkpt lat="4.6644150" lon="-74.3128250">
        <ele>2602.7</ele>
        <time>2018-08-10T17:01:44Z</time>
      </trkpt>
      <trkpt lat="4.6643850" lon="-74.3127980">
        <ele>2601.8</ele>
        <time>2018-08-10T17:01:45Z</time>
      </trkpt>
      <trkpt lat="4.6643530" lon="-74.3127720">
        <ele>2600.7</ele>
        <time>2018-08-10T17:01:46Z</time>
      </trkpt>
      <trkpt lat="4.6643220" lon="-74.3127470">
        <ele>2600.5</ele>
        <time>2018-08-10T17:01:47Z</time>
      </trkpt>
      <trkpt lat="4.6642970" lon="-74.3127220">
        <ele>2600.4</ele>
        <time>2018-08-10T17:01:48Z</time>
      </trkpt>
      <trkpt lat="4.6642680" lon="-74.3126950">
        <ele>2600.2</ele>
        <time>2018-08-10T17:01:49Z</time>
      </trkpt>
      <trkpt lat="4.6642420" lon="-74.3126730">
        <ele>2600.0</ele>
        <time>2018-08-10T17:01:50Z</time>
      </trkpt>
      <trkpt lat="4.6642130" lon="-74.3126530">
        <ele>2599.9</ele>
        <time>2018-08-10T17:01:51Z</time>
      </trkpt>
      <trkpt lat="4.6641870" lon="-74.3126320">
        <ele>2599.8</ele>
        <time>2018-08-10T17:01:52Z</time>
      </trkpt>
      <trkpt lat="4.6641600" lon="-74.3126070">
        <ele>2599.8</ele>
        <time>2018-08-10T17:01:53Z</time>
      </trkpt>
      <trkpt lat="4.6641380" lon="-74.3125850">
        <ele>2600.2</ele>
        <time>2018-08-10T17:01:54Z</time>
      </trkpt>
      <trkpt lat="4.6641170" lon="-74.3125630">
        <ele>2600.5</ele>
        <time>2018-08-10T17:01:55Z</time>
      </trkpt>
      <trkpt lat="4.6640880" lon="-74.3125420">
        <ele>2600.5</ele>
        <time>2018-08-10T17:01:56Z</time>
      </trkpt>
      <trkpt lat="4.6640580" lon="-74.3125170">
        <ele>2600.2</ele>
        <time>2018-08-10T17:01:57Z</time>
      </trkpt>
      <trkpt lat="4.6640270" lon="-74.3124870">
        <ele>2599.7</ele>
        <time>2018-08-10T17:01:58Z</time>
      </trkpt>
      <trkpt lat="4.6639980" lon="-74.3124550">
        <ele>2599.2</ele>
        <time>2018-08-10T17:01:59Z</time>
      </trkpt>
      <trkpt lat="4.6639670" lon="-74.3124220">
        <ele>2599.1</ele>
        <time>2018-08-10T17:02:00Z</time>
      </trkpt>
      <trkpt lat="4.6639300" lon="-74.3123770">
        <ele>2599.2</ele>
        <time>2018-08-10T17:02:01Z</time>
      </trkpt>
      <trkpt lat="4.6638980" lon="-74.3123330">
        <ele>2598.8</ele>
        <time>2018-08-10T17:02:02Z</time>
      </trkpt>
      <trkpt lat="4.6638620" lon="-74.3122880">
        <ele>2598.7</ele>
        <time>2018-08-10T17:02:03Z</time>
      </trkpt>
      <trkpt lat="4.6638320" lon="-74.3122480">
        <ele>2598.9</ele>
        <time>2018-08-10T17:02:04Z</time>
      </trkpt>
      <trkpt lat="4.6637970" lon="-74.3122120">
        <ele>2598.9</ele>
        <time>2018-08-10T17:02:05Z</time>
      </trkpt>
      <trkpt lat="4.6637630" lon="-74.3121750">
        <ele>2598.9</ele>
        <time>2018-08-10T17:02:06Z</time>
      </trkpt>
      <trkpt lat="4.6637350" lon="-74.3121350">
        <ele>2599.2</ele>
        <time>2018-08-10T17:02:07Z</time>
      </trkpt>
      <trkpt lat="4.6637070" lon="-74.3120970">
        <ele>2599.2</ele>
        <time>2018-08-10T17:02:08Z</time>
      </trkpt>
      <trkpt lat="4.6636800" lon="-74.3120580">
        <ele>2598.7</ele>
        <time>2018-08-10T17:02:09Z</time>
      </trkpt>
      <trkpt lat="4.6636550" lon="-74.3120200">
        <ele>2598.8</ele>
        <time>2018-08-10T17:02:10Z</time>
      </trkpt>
      <trkpt lat="4.6636300" lon="-74.3119830">
        <ele>2599.2</ele>
        <time>2018-08-10T17:02:11Z</time>
      </trkpt>
      <trkpt lat="4.6636070" lon="-74.3119450">
        <ele>2599.2</ele>
        <time>2018-08-10T17:02:12Z</time>
      </trkpt>
      <trkpt lat="4.6635850" lon="-74.3119080">
        <ele>2599.0</ele>
        <time>2018-08-10T17:02:13Z</time>
      </trkpt>
      <trkpt lat="4.6635630" lon="-74.3118780">
        <ele>2598.8</ele>
        <time>2018-08-10T17:02:14Z</time>
      </trkpt>
      <trkpt lat="4.6635420" lon="-74.3118470">
        <ele>2598.8</ele>
        <time>2018-08-10T17:02:15Z</time>
      </trkpt>
      <trkpt lat="4.6635180" lon="-74.3118170">
        <ele>2598.7</ele>
        <time>2018-08-10T17:02:16Z</time>
      </trkpt>
      <trkpt lat="4.6634980" lon="-74.3117850">
        <ele>2598.7</ele>
        <time>2018-08-10T17:02:17Z</time>
      </trkpt>
      <trkpt lat="4.6634770" lon="-74.3117500">
        <ele>2598.6</ele>
        <time>2018-08-10T17:02:18Z</time>
      </trkpt>
      <trkpt lat="4.6634550" lon="-74.3117170">
        <ele>2598.4</ele>
        <time>2018-08-10T17:02:19Z</time>
      </trkpt>
      <trkpt lat="4.6634370" lon="-74.3116830">
        <ele>2598.2</ele>
        <time>2018-08-10T17:02:20Z</time>
      </trkpt>
      <trkpt lat="4.6634170" lon="-74.3116500">
        <ele>2598.1</ele>
        <time>2018-08-10T17:02:21Z</time>
      </trkpt>
      <trkpt lat="4.6633970" lon="-74.3116170">
        <ele>2598.1</ele>
        <time>2018-08-10T17:02:22Z</time>
      </trkpt>
      <trkpt lat="4.6633770" lon="-74.3115830">
        <ele>2598.4</ele>
        <time>2018-08-10T17:02:23Z</time>
      </trkpt>
      <trkpt lat="4.6633580" lon="-74.3115520">
        <ele>2598.4</ele>
        <time>2018-08-10T17:02:24Z</time>
      </trkpt>
      <trkpt lat="4.6633420" lon="-74.3115220">
        <ele>2598.1</ele>
        <time>2018-08-10T17:02:25Z</time>
      </trkpt>
      <trkpt lat="4.6633230" lon="-74.3114920">
        <ele>2597.9</ele>
        <time>2018-08-10T17:02:26Z</time>
      </trkpt>
      <trkpt lat="4.6633050" lon="-74.3114630">
        <ele>2597.8</ele>
        <time>2018-08-10T17:02:27Z</time>
      </trkpt>
      <trkpt lat="4.6632850" lon="-74.3114350">
        <ele>2597.8</ele>
        <time>2018-08-10T17:02:28Z</time>
      </trkpt>
      <trkpt lat="4.6632670" lon="-74.3114030">
        <ele>2597.6</ele>
        <time>2018-08-10T17:02:29Z</time>
      </trkpt>
      <trkpt lat="4.6632470" lon="-74.3113720">
        <ele>2597.3</ele>
        <time>2018-08-10T17:02:30Z</time>
      </trkpt>
      <trkpt lat="4.6632270" lon="-74.3113380">
        <ele>2597.0</ele>
        <time>2018-08-10T17:02:31Z</time>
      </trkpt>
      <trkpt lat="4.6632000" lon="-74.3113000">
        <ele>2596.3</ele>
        <time>2018-08-10T17:02:32Z</time>
      </trkpt>
      <trkpt lat="4.6631800" lon="-74.3112630">
        <ele>2595.7</ele>
        <time>2018-08-10T17:02:33Z</time>
      </trkpt>
      <trkpt lat="4.6631580" lon="-74.3112350">
        <ele>2595.4</ele>
        <time>2018-08-10T17:02:34Z</time>
      </trkpt>
      <trkpt lat="4.6631380" lon="-74.3112100">
        <ele>2595.2</ele>
        <time>2018-08-10T17:02:35Z</time>
      </trkpt>
      <trkpt lat="4.6631180" lon="-74.3111920">
        <ele>2595.0</ele>
        <time>2018-08-10T17:02:36Z</time>
      </trkpt>
      <trkpt lat="4.6630830" lon="-74.3111450">
        <ele>2595.0</ele>
        <time>2018-08-10T17:02:38Z</time>
      </trkpt>
      <trkpt lat="4.6630650" lon="-74.3111170">
        <ele>2594.9</ele>
        <time>2018-08-10T17:02:39Z</time>
      </trkpt>
      <trkpt lat="4.6630450" lon="-74.3110830">
        <ele>2594.6</ele>
        <time>2018-08-10T17:02:40Z</time>
      </trkpt>
      <trkpt lat="4.6630250" lon="-74.3110520">
        <ele>2594.3</ele>
        <time>2018-08-10T17:02:41Z</time>
      </trkpt>
      <trkpt lat="4.6630050" lon="-74.3110150">
        <ele>2593.9</ele>
        <time>2018-08-10T17:02:42Z</time>
      </trkpt>
      <trkpt lat="4.6629870" lon="-74.3109880">
        <ele>2593.6</ele>
        <time>2018-08-10T17:02:43Z</time>
      </trkpt>
      <trkpt lat="4.6629670" lon="-74.3109600">
        <ele>2593.4</ele>
        <time>2018-08-10T17:02:44Z</time>
      </trkpt>
      <trkpt lat="4.6629430" lon="-74.3109330">
        <ele>2593.3</ele>
        <time>2018-08-10T17:02:45Z</time>
      </trkpt>
      <trkpt lat="4.6629220" lon="-74.3109030">
        <ele>2593.2</ele>
        <time>2018-08-10T17:02:46Z</time>
      </trkpt>
      <trkpt lat="4.6629070" lon="-74.3108780">
        <ele>2593.3</ele>
        <time>2018-08-10T17:02:47Z</time>
      </trkpt>
      <trkpt lat="4.6628880" lon="-74.3108470">
        <ele>2593.4</ele>
        <time>2018-08-10T17:02:48Z</time>
      </trkpt>
      <trkpt lat="4.6628750" lon="-74.3107950">
        <ele>2593.4</ele>
        <time>2018-08-10T17:02:50Z</time>
      </trkpt>
      <trkpt lat="4.6628620" lon="-74.3107630">
        <ele>2593.3</ele>
        <time>2018-08-10T17:02:51Z</time>
      </trkpt>
      <trkpt lat="4.6628450" lon="-74.3107350">
        <ele>2593.2</ele>
        <time>2018-08-10T17:02:52Z</time>
      </trkpt>
      <trkpt lat="4.6628280" lon="-74.3107100">
        <ele>2593.1</ele>
        <time>2018-08-10T17:02:53Z</time>
      </trkpt>
      <trkpt lat="4.6628080" lon="-74.3106850">
        <ele>2593.0</ele>
        <time>2018-08-10T17:02:54Z</time>
      </trkpt>
      <trkpt lat="4.6627900" lon="-74.3106580">
        <ele>2592.9</ele>
        <time>2018-08-10T17:02:55Z</time>
      </trkpt>
      <trkpt lat="4.6627720" lon="-74.3106330">
        <ele>2592.9</ele>
        <time>2018-08-10T17:02:56Z</time>
      </trkpt>
      <trkpt lat="4.6627530" lon="-74.3106100">
        <ele>2592.8</ele>
        <time>2018-08-10T17:02:57Z</time>
      </trkpt>
      <trkpt lat="4.6627230" lon="-74.3105620">
        <ele>2592.3</ele>
        <time>2018-08-10T17:02:59Z</time>
      </trkpt>
      <trkpt lat="4.6627030" lon="-74.3105320">
        <ele>2591.9</ele>
        <time>2018-08-10T17:03:00Z</time>
      </trkpt>
      <trkpt lat="4.6626870" lon="-74.3105020">
        <ele>2591.7</ele>
        <time>2018-08-10T17:03:01Z</time>
      </trkpt>
      <trkpt lat="4.6626700" lon="-74.3104680">
        <ele>2591.5</ele>
        <time>2018-08-10T17:03:02Z</time>
      </trkpt>
      <trkpt lat="4.6626520" lon="-74.3104180">
        <ele>2591.5</ele>
        <time>2018-08-10T17:03:03Z</time>
      </trkpt>
      <trkpt lat="4.6626300" lon="-74.3103730">
        <ele>2591.7</ele>
        <time>2018-08-10T17:03:04Z</time>
      </trkpt>
      <trkpt lat="4.6626120" lon="-74.3103400">
        <ele>2591.8</ele>
        <time>2018-08-10T17:03:05Z</time>
      </trkpt>
      <trkpt lat="4.6625920" lon="-74.3103100">
        <ele>2592.0</ele>
        <time>2018-08-10T17:03:06Z</time>
      </trkpt>
      <trkpt lat="4.6625720" lon="-74.3102800">
        <ele>2592.0</ele>
        <time>2018-08-10T17:03:07Z</time>
      </trkpt>
      <trkpt lat="4.6625520" lon="-74.3102530">
        <ele>2592.0</ele>
        <time>2018-08-10T17:03:08Z</time>
      </trkpt>
      <trkpt lat="4.6625320" lon="-74.3102280">
        <ele>2592.0</ele>
        <time>2018-08-10T17:03:09Z</time>
      </trkpt>
      <trkpt lat="4.6625130" lon="-74.3102000">
        <ele>2591.9</ele>
        <time>2018-08-10T17:03:10Z</time>
      </trkpt>
      <trkpt lat="4.6624950" lon="-74.3101730">
        <ele>2591.9</ele>
        <time>2018-08-10T17:03:11Z</time>
      </trkpt>
      <trkpt lat="4.6624730" lon="-74.3101420">
        <ele>2591.8</ele>
        <time>2018-08-10T17:03:12Z</time>
      </trkpt>
      <trkpt lat="4.6624530" lon="-74.3101100">
        <ele>2591.8</ele>
        <time>2018-08-10T17:03:13Z</time>
      </trkpt>
      <trkpt lat="4.6624350" lon="-74.3100800">
        <ele>2591.8</ele>
        <time>2018-08-10T17:03:14Z</time>
      </trkpt>
      <trkpt lat="4.6624180" lon="-74.3100480">
        <ele>2591.9</ele>
        <time>2018-08-10T17:03:15Z</time>
      </trkpt>
      <trkpt lat="4.6624000" lon="-74.3100100">
        <ele>2592.0</ele>
        <time>2018-08-10T17:03:16Z</time>
      </trkpt>
      <trkpt lat="4.6623820" lon="-74.3099820">
        <ele>2592.2</ele>
        <time>2018-08-10T17:03:17Z</time>
      </trkpt>
      <trkpt lat="4.6623670" lon="-74.3099530">
        <ele>2592.3</ele>
        <time>2018-08-10T17:03:18Z</time>
      </trkpt>
      <trkpt lat="4.6623520" lon="-74.3099200">
        <ele>2592.5</ele>
        <time>2018-08-10T17:03:19Z</time>
      </trkpt>
      <trkpt lat="4.6623320" lon="-74.3098900">
        <ele>2592.6</ele>
        <time>2018-08-10T17:03:20Z</time>
      </trkpt>
      <trkpt lat="4.6623170" lon="-74.3098580">
        <ele>2592.6</ele>
        <time>2018-08-10T17:03:21Z</time>
      </trkpt>
      <trkpt lat="4.6622930" lon="-74.3098230">
        <ele>2592.8</ele>
        <time>2018-08-10T17:03:22Z</time>
      </trkpt>
      <trkpt lat="4.6622720" lon="-74.3097870">
        <ele>2593.1</ele>
        <time>2018-08-10T17:03:23Z</time>
      </trkpt>
      <trkpt lat="4.6622520" lon="-74.3097530">
        <ele>2593.1</ele>
        <time>2018-08-10T17:03:24Z</time>
      </trkpt>
      <trkpt lat="4.6622330" lon="-74.3097230">
        <ele>2593.1</ele>
        <time>2018-08-10T17:03:25Z</time>
      </trkpt>
      <trkpt lat="4.6622200" lon="-74.3096880">
        <ele>2593.0</ele>
        <time>2018-08-10T17:03:26Z</time>
      </trkpt>
      <trkpt lat="4.6622050" lon="-74.3096570">
        <ele>2592.8</ele>
        <time>2018-08-10T17:03:27Z</time>
      </trkpt>
      <trkpt lat="4.6621870" lon="-74.3096220">
        <ele>2592.6</ele>
        <time>2018-08-10T17:03:28Z</time>
      </trkpt>
      <trkpt lat="4.6621630" lon="-74.3095880">
        <ele>2592.3</ele>
        <time>2018-08-10T17:03:29Z</time>
      </trkpt>
      <trkpt lat="4.6621380" lon="-74.3095530">
        <ele>2592.1</ele>
        <time>2018-08-10T17:03:30Z</time>
      </trkpt>
      <trkpt lat="4.6621150" lon="-74.3095170">
        <ele>2591.8</ele>
        <time>2018-08-10T17:03:31Z</time>
      </trkpt>
      <trkpt lat="4.6620920" lon="-74.3094820">
        <ele>2591.5</ele>
        <time>2018-08-10T17:03:32Z</time>
      </trkpt>
      <trkpt lat="4.6620700" lon="-74.3094520">
        <ele>2591.1</ele>
        <time>2018-08-10T17:03:33Z</time>
      </trkpt>
      <trkpt lat="4.6620480" lon="-74.3094080">
        <ele>2590.6</ele>
        <time>2018-08-10T17:03:34Z</time>
      </trkpt>
      <trkpt lat="4.6620300" lon="-74.3093730">
        <ele>2590.5</ele>
        <time>2018-08-10T17:03:35Z</time>
      </trkpt>
      <trkpt lat="4.6620120" lon="-74.3093420">
        <ele>2590.6</ele>
        <time>2018-08-10T17:03:36Z</time>
      </trkpt>
      <trkpt lat="4.6619930" lon="-74.3093080">
        <ele>2590.6</ele>
        <time>2018-08-10T17:03:37Z</time>
      </trkpt>
      <trkpt lat="4.6619720" lon="-74.3092780">
        <ele>2590.6</ele>
        <time>2018-08-10T17:03:38Z</time>
      </trkpt>
      <trkpt lat="4.6619500" lon="-74.3092470">
        <ele>2590.7</ele>
        <time>2018-08-10T17:03:39Z</time>
      </trkpt>
      <trkpt lat="4.6619270" lon="-74.3092120">
        <ele>2591.1</ele>
        <time>2018-08-10T17:03:40Z</time>
      </trkpt>
      <trkpt lat="4.6619050" lon="-74.3091780">
        <ele>2591.5</ele>
        <time>2018-08-10T17:03:41Z</time>
      </trkpt>
      <trkpt lat="4.6618800" lon="-74.3091430">
        <ele>2591.9</ele>
        <time>2018-08-10T17:03:42Z</time>
      </trkpt>
      <trkpt lat="4.6618550" lon="-74.3091120">
        <ele>2592.2</ele>
        <time>2018-08-10T17:03:43Z</time>
      </trkpt>
      <trkpt lat="4.6618300" lon="-74.3090770">
        <ele>2592.5</ele>
        <time>2018-08-10T17:03:44Z</time>
      </trkpt>
      <trkpt lat="4.6618080" lon="-74.3090400">
        <ele>2592.8</ele>
        <time>2018-08-10T17:03:45Z</time>
      </trkpt>
      <trkpt lat="4.6617870" lon="-74.3090070">
        <ele>2592.8</ele>
        <time>2018-08-10T17:03:46Z</time>
      </trkpt>
      <trkpt lat="4.6617680" lon="-74.3089730">
        <ele>2592.7</ele>
        <time>2018-08-10T17:03:47Z</time>
      </trkpt>
      <trkpt lat="4.6617520" lon="-74.3089400">
        <ele>2592.5</ele>
        <time>2018-08-10T17:03:48Z</time>
      </trkpt>
      <trkpt lat="4.6617280" lon="-74.3089050">
        <ele>2592.2</ele>
        <time>2018-08-10T17:03:49Z</time>
      </trkpt>
      <trkpt lat="4.6617050" lon="-74.3088730">
        <ele>2591.9</ele>
        <time>2018-08-10T17:03:50Z</time>
      </trkpt>
      <trkpt lat="4.6616770" lon="-74.3088400">
        <ele>2591.7</ele>
        <time>2018-08-10T17:03:51Z</time>
      </trkpt>
      <trkpt lat="4.6616550" lon="-74.3088080">
        <ele>2591.5</ele>
        <time>2018-08-10T17:03:52Z</time>
      </trkpt>
      <trkpt lat="4.6616280" lon="-74.3087780">
        <ele>2591.8</ele>
        <time>2018-08-10T17:03:53Z</time>
      </trkpt>
      <trkpt lat="4.6616030" lon="-74.3087480">
        <ele>2592.1</ele>
        <time>2018-08-10T17:03:54Z</time>
      </trkpt>
      <trkpt lat="4.6615780" lon="-74.3087220">
        <ele>2592.3</ele>
        <time>2018-08-10T17:03:55Z</time>
      </trkpt>
      <trkpt lat="4.6615530" lon="-74.3086950">
        <ele>2592.6</ele>
        <time>2018-08-10T17:03:56Z</time>
      </trkpt>
      <trkpt lat="4.6615280" lon="-74.3086650">
        <ele>2592.4</ele>
        <time>2018-08-10T17:03:57Z</time>
      </trkpt>
      <trkpt lat="4.6615000" lon="-74.3086350">
        <ele>2591.8</ele>
        <time>2018-08-10T17:03:58Z</time>
      </trkpt>
      <trkpt lat="4.6614770" lon="-74.3086050">
        <ele>2591.4</ele>
        <time>2018-08-10T17:03:59Z</time>
      </trkpt>
      <trkpt lat="4.6614520" lon="-74.3085700">
        <ele>2591.5</ele>
        <time>2018-08-10T17:04:00Z</time>
      </trkpt>
      <trkpt lat="4.6614280" lon="-74.3085300">
        <ele>2591.5</ele>
        <time>2018-08-10T17:04:01Z</time>
      </trkpt>
      <trkpt lat="4.6614020" lon="-74.3084920">
        <ele>2591.3</ele>
        <time>2018-08-10T17:04:02Z</time>
      </trkpt>
      <trkpt lat="4.6613770" lon="-74.3084500">
        <ele>2590.9</ele>
        <time>2018-08-10T17:04:03Z</time>
      </trkpt>
      <trkpt lat="4.6613430" lon="-74.3084050">
        <ele>2590.4</ele>
        <time>2018-08-10T17:04:04Z</time>
      </trkpt>
      <trkpt lat="4.6613170" lon="-74.3083500">
        <ele>2589.7</ele>
        <time>2018-08-10T17:04:05Z</time>
      </trkpt>
      <trkpt lat="4.6612880" lon="-74.3083070">
        <ele>2589.2</ele>
        <time>2018-08-10T17:04:06Z</time>
      </trkpt>
      <trkpt lat="4.6612600" lon="-74.3082680">
        <ele>2589.3</ele>
        <time>2018-08-10T17:04:07Z</time>
      </trkpt>
      <trkpt lat="4.6612300" lon="-74.3082320">
        <ele>2589.3</ele>
        <time>2018-08-10T17:04:08Z</time>
      </trkpt>
      <trkpt lat="4.6612050" lon="-74.3081930">
        <ele>2589.2</ele>
        <time>2018-08-10T17:04:09Z</time>
      </trkpt>
      <trkpt lat="4.6611850" lon="-74.3081600">
        <ele>2589.2</ele>
        <time>2018-08-10T17:04:10Z</time>
      </trkpt>
      <trkpt lat="4.6611630" lon="-74.3081320">
        <ele>2589.3</ele>
        <time>2018-08-10T17:04:11Z</time>
      </trkpt>
      <trkpt lat="4.6611420" lon="-74.3081070">
        <ele>2589.4</ele>
        <time>2018-08-10T17:04:12Z</time>
      </trkpt>
      <trkpt lat="4.6611180" lon="-74.3080800">
        <ele>2589.5</ele>
        <time>2018-08-10T17:04:13Z</time>
      </trkpt>
      <trkpt lat="4.6610950" lon="-74.3080500">
        <ele>2589.5</ele>
        <time>2018-08-10T17:04:14Z</time>
      </trkpt>
      <trkpt lat="4.6610680" lon="-74.3080230">
        <ele>2589.5</ele>
        <time>2018-08-10T17:04:15Z</time>
      </trkpt>
      <trkpt lat="4.6610430" lon="-74.3080000">
        <ele>2589.4</ele>
        <time>2018-08-10T17:04:16Z</time>
      </trkpt>
      <trkpt lat="4.6610170" lon="-74.3079730">
        <ele>2589.3</ele>
        <time>2018-08-10T17:04:17Z</time>
      </trkpt>
      <trkpt lat="4.6609930" lon="-74.3079470">
        <ele>2589.0</ele>
        <time>2018-08-10T17:04:18Z</time>
      </trkpt>
      <trkpt lat="4.6609680" lon="-74.3079170">
        <ele>2588.6</ele>
        <time>2018-08-10T17:04:19Z</time>
      </trkpt>
      <trkpt lat="4.6609430" lon="-74.3078830">
        <ele>2587.9</ele>
        <time>2018-08-10T17:04:20Z</time>
      </trkpt>
      <trkpt lat="4.6609170" lon="-74.3078520">
        <ele>2586.8</ele>
        <time>2018-08-10T17:04:21Z</time>
      </trkpt>
      <trkpt lat="4.6608930" lon="-74.3078180">
        <ele>2585.9</ele>
        <time>2018-08-10T17:04:22Z</time>
      </trkpt>
      <trkpt lat="4.6608700" lon="-74.3077820">
        <ele>2585.1</ele>
        <time>2018-08-10T17:04:23Z</time>
      </trkpt>
      <trkpt lat="4.6608480" lon="-74.3077480">
        <ele>2584.4</ele>
        <time>2018-08-10T17:04:24Z</time>
      </trkpt>
      <trkpt lat="4.6608270" lon="-74.3077150">
        <ele>2583.8</ele>
        <time>2018-08-10T17:04:25Z</time>
      </trkpt>
      <trkpt lat="4.6608030" lon="-74.3076800">
        <ele>2583.3</ele>
        <time>2018-08-10T17:04:26Z</time>
      </trkpt>
      <trkpt lat="4.6607800" lon="-74.3076430">
        <ele>2583.0</ele>
        <time>2018-08-10T17:04:27Z</time>
      </trkpt>
      <trkpt lat="4.6607550" lon="-74.3076050">
        <ele>2582.7</ele>
        <time>2018-08-10T17:04:28Z</time>
      </trkpt>
      <trkpt lat="4.6607320" lon="-74.3075680">
        <ele>2582.2</ele>
        <time>2018-08-10T17:04:29Z</time>
      </trkpt>
      <trkpt lat="4.6607080" lon="-74.3075350">
        <ele>2581.8</ele>
        <time>2018-08-10T17:04:30Z</time>
      </trkpt>
      <trkpt lat="4.6606850" lon="-74.3075020">
        <ele>2581.5</ele>
        <time>2018-08-10T17:04:31Z</time>
      </trkpt>
      <trkpt lat="4.6606580" lon="-74.3074650">
        <ele>2581.2</ele>
        <time>2018-08-10T17:04:32Z</time>
      </trkpt>
      <trkpt lat="4.6606300" lon="-74.3074280">
        <ele>2580.9</ele>
        <time>2018-08-10T17:04:33Z</time>
      </trkpt>
      <trkpt lat="4.6605970" lon="-74.3073930">
        <ele>2580.6</ele>
        <time>2018-08-10T17:04:34Z</time>
      </trkpt>
      <trkpt lat="4.6605650" lon="-74.3073530">
        <ele>2580.5</ele>
        <time>2018-08-10T17:04:35Z</time>
      </trkpt>
      <trkpt lat="4.6605350" lon="-74.3073100">
        <ele>2580.5</ele>
        <time>2018-08-10T17:04:36Z</time>
      </trkpt>
      <trkpt lat="4.6605080" lon="-74.3072730">
        <ele>2580.3</ele>
        <time>2018-08-10T17:04:37Z</time>
      </trkpt>
      <trkpt lat="4.6604800" lon="-74.3072380">
        <ele>2580.2</ele>
        <time>2018-08-10T17:04:38Z</time>
      </trkpt>
      <trkpt lat="4.6604500" lon="-74.3072020">
        <ele>2580.1</ele>
        <time>2018-08-10T17:04:39Z</time>
      </trkpt>
      <trkpt lat="4.6604180" lon="-74.3071670">
        <ele>2579.8</ele>
        <time>2018-08-10T17:04:40Z</time>
      </trkpt>
      <trkpt lat="4.6603870" lon="-74.3071350">
        <ele>2579.4</ele>
        <time>2018-08-10T17:04:41Z</time>
      </trkpt>
      <trkpt lat="4.6603520" lon="-74.3070980">
        <ele>2578.7</ele>
        <time>2018-08-10T17:04:42Z</time>
      </trkpt>
      <trkpt lat="4.6603180" lon="-74.3070650">
        <ele>2577.9</ele>
        <time>2018-08-10T17:04:43Z</time>
      </trkpt>
      <trkpt lat="4.6602880" lon="-74.3070330">
        <ele>2577.4</ele>
        <time>2018-08-10T17:04:44Z</time>
      </trkpt>
      <trkpt lat="4.6602580" lon="-74.3070030">
        <ele>2577.1</ele>
        <time>2018-08-10T17:04:45Z</time>
      </trkpt>
      <trkpt lat="4.6602280" lon="-74.3069730">
        <ele>2576.8</ele>
        <time>2018-08-10T17:04:46Z</time>
      </trkpt>
      <trkpt lat="4.6602000" lon="-74.3069430">
        <ele>2576.6</ele>
        <time>2018-08-10T17:04:47Z</time>
      </trkpt>
      <trkpt lat="4.6601680" lon="-74.3069180">
        <ele>2576.0</ele>
        <time>2018-08-10T17:04:48Z</time>
      </trkpt>
      <trkpt lat="4.6601320" lon="-74.3068920">
        <ele>2575.5</ele>
        <time>2018-08-10T17:04:49Z</time>
      </trkpt>
      <trkpt lat="4.6600920" lon="-74.3068680">
        <ele>2575.2</ele>
        <time>2018-08-10T17:04:50Z</time>
      </trkpt>
      <trkpt lat="4.6600570" lon="-74.3068500">
        <ele>2575.0</ele>
        <time>2018-08-10T17:04:51Z</time>
      </trkpt>
      <trkpt lat="4.6600200" lon="-74.3068350">
        <ele>2574.8</ele>
        <time>2018-08-10T17:04:52Z</time>
      </trkpt>
      <trkpt lat="4.6599780" lon="-74.3068220">
        <ele>2574.7</ele>
        <time>2018-08-10T17:04:53Z</time>
      </trkpt>
      <trkpt lat="4.6599350" lon="-74.3068100">
        <ele>2575.0</ele>
        <time>2018-08-10T17:04:54Z</time>
      </trkpt>
      <trkpt lat="4.6598930" lon="-74.3067970">
        <ele>2575.4</ele>
        <time>2018-08-10T17:04:55Z</time>
      </trkpt>
      <trkpt lat="4.6598520" lon="-74.3067870">
        <ele>2576.0</ele>
        <time>2018-08-10T17:04:56Z</time>
      </trkpt>
      <trkpt lat="4.6598070" lon="-74.3067780">
        <ele>2576.7</ele>
        <time>2018-08-10T17:04:57Z</time>
      </trkpt>
      <trkpt lat="4.6597600" lon="-74.3067670">
        <ele>2577.3</ele>
        <time>2018-08-10T17:04:58Z</time>
      </trkpt>
      <trkpt lat="4.6597150" lon="-74.3067580">
        <ele>2578.0</ele>
        <time>2018-08-10T17:04:59Z</time>
      </trkpt>
      <trkpt lat="4.6596720" lon="-74.3067480">
        <ele>2578.6</ele>
        <time>2018-08-10T17:05:00Z</time>
      </trkpt>
      <trkpt lat="4.6596270" lon="-74.3067350">
        <ele>2579.0</ele>
        <time>2018-08-10T17:05:01Z</time>
      </trkpt>
      <trkpt lat="4.6595780" lon="-74.3067220">
        <ele>2579.2</ele>
        <time>2018-08-10T17:05:02Z</time>
      </trkpt>
      <trkpt lat="4.6595330" lon="-74.3067070">
        <ele>2579.5</ele>
        <time>2018-08-10T17:05:03Z</time>
      </trkpt>
      <trkpt lat="4.6594870" lon="-74.3066920">
        <ele>2579.9</ele>
        <time>2018-08-10T17:05:04Z</time>
      </trkpt>
      <trkpt lat="4.6594420" lon="-74.3066770">
        <ele>2580.1</ele>
        <time>2018-08-10T17:05:05Z</time>
      </trkpt>
      <trkpt lat="4.6593980" lon="-74.3066580">
        <ele>2580.3</ele>
        <time>2018-08-10T17:05:06Z</time>
      </trkpt>
      <trkpt lat="4.6593530" lon="-74.3066350">
        <ele>2580.3</ele>
        <time>2018-08-10T17:05:07Z</time>
      </trkpt>
      <trkpt lat="4.6593070" lon="-74.3066100">
        <ele>2580.2</ele>
        <time>2018-08-10T17:05:08Z</time>
      </trkpt>
      <trkpt lat="4.6592620" lon="-74.3065820">
        <ele>2580.0</ele>
        <time>2018-08-10T17:05:09Z</time>
      </trkpt>
      <trkpt lat="4.6592220" lon="-74.3065500">
        <ele>2579.6</ele>
        <time>2018-08-10T17:05:10Z</time>
      </trkpt>
      <trkpt lat="4.6591820" lon="-74.3065230">
        <ele>2579.2</ele>
        <time>2018-08-10T17:05:11Z</time>
      </trkpt>
      <trkpt lat="4.6591400" lon="-74.3064980">
        <ele>2578.8</ele>
        <time>2018-08-10T17:05:12Z</time>
      </trkpt>
      <trkpt lat="4.6591030" lon="-74.3064780">
        <ele>2578.4</ele>
        <time>2018-08-10T17:05:13Z</time>
      </trkpt>
      <trkpt lat="4.6590620" lon="-74.3064570">
        <ele>2577.9</ele>
        <time>2018-08-10T17:05:14Z</time>
      </trkpt>
      <trkpt lat="4.6590220" lon="-74.3064350">
        <ele>2577.5</ele>
        <time>2018-08-10T17:05:15Z</time>
      </trkpt>
      <trkpt lat="4.6589820" lon="-74.3064080">
        <ele>2577.0</ele>
        <time>2018-08-10T17:05:16Z</time>
      </trkpt>
      <trkpt lat="4.6589370" lon="-74.3063830">
        <ele>2576.5</ele>
        <time>2018-08-10T17:05:17Z</time>
      </trkpt>
      <trkpt lat="4.6588950" lon="-74.3063630">
        <ele>2576.1</ele>
        <time>2018-08-10T17:05:18Z</time>
      </trkpt>
      <trkpt lat="4.6588600" lon="-74.3063430">
        <ele>2575.9</ele>
        <time>2018-08-10T17:05:19Z</time>
      </trkpt>
      <trkpt lat="4.6588230" lon="-74.3063220">
        <ele>2575.7</ele>
        <time>2018-08-10T17:05:20Z</time>
      </trkpt>
      <trkpt lat="4.6587900" lon="-74.3063030">
        <ele>2575.6</ele>
        <time>2018-08-10T17:05:21Z</time>
      </trkpt>
      <trkpt lat="4.6587530" lon="-74.3062800">
        <ele>2575.7</ele>
        <time>2018-08-10T17:05:22Z</time>
      </trkpt>
      <trkpt lat="4.6587150" lon="-74.3062530">
        <ele>2575.9</ele>
        <time>2018-08-10T17:05:23Z</time>
      </trkpt>
      <trkpt lat="4.6586770" lon="-74.3062300">
        <ele>2576.2</ele>
        <time>2018-08-10T17:05:24Z</time>
      </trkpt>
      <trkpt lat="4.6586420" lon="-74.3062070">
        <ele>2576.5</ele>
        <time>2018-08-10T17:05:25Z</time>
      </trkpt>
      <trkpt lat="4.6586030" lon="-74.3061870">
        <ele>2576.8</ele>
        <time>2018-08-10T17:05:26Z</time>
      </trkpt>
      <trkpt lat="4.6585630" lon="-74.3061670">
        <ele>2577.0</ele>
        <time>2018-08-10T17:05:27Z</time>
      </trkpt>
      <trkpt lat="4.6585230" lon="-74.3061470">
        <ele>2577.1</ele>
        <time>2018-08-10T17:05:28Z</time>
      </trkpt>
      <trkpt lat="4.6584830" lon="-74.3061230">
        <ele>2577.2</ele>
        <time>2018-08-10T17:05:29Z</time>
      </trkpt>
      <trkpt lat="4.6584430" lon="-74.3060950">
        <ele>2577.3</ele>
        <time>2018-08-10T17:05:30Z</time>
      </trkpt>
      <trkpt lat="4.6584070" lon="-74.3060700">
        <ele>2577.3</ele>
        <time>2018-08-10T17:05:31Z</time>
      </trkpt>
      <trkpt lat="4.6583670" lon="-74.3060480">
        <ele>2577.4</ele>
        <time>2018-08-10T17:05:32Z</time>
      </trkpt>
      <trkpt lat="4.6583250" lon="-74.3060250">
        <ele>2577.4</ele>
        <time>2018-08-10T17:05:33Z</time>
      </trkpt>
      <trkpt lat="4.6582850" lon="-74.3060000">
        <ele>2577.4</ele>
        <time>2018-08-10T17:05:34Z</time>
      </trkpt>
      <trkpt lat="4.6582520" lon="-74.3059780">
        <ele>2577.3</ele>
        <time>2018-08-10T17:05:35Z</time>
      </trkpt>
      <trkpt lat="4.6582170" lon="-74.3059570">
        <ele>2577.2</ele>
        <time>2018-08-10T17:05:36Z</time>
      </trkpt>
      <trkpt lat="4.6581780" lon="-74.3059350">
        <ele>2577.2</ele>
        <time>2018-08-10T17:05:37Z</time>
      </trkpt>
      <trkpt lat="4.6581430" lon="-74.3059070">
        <ele>2577.1</ele>
        <time>2018-08-10T17:05:38Z</time>
      </trkpt>
      <trkpt lat="4.6581050" lon="-74.3058830">
        <ele>2577.0</ele>
        <time>2018-08-10T17:05:39Z</time>
      </trkpt>
      <trkpt lat="4.6580700" lon="-74.3058630">
        <ele>2576.9</ele>
        <time>2018-08-10T17:05:40Z</time>
      </trkpt>
      <trkpt lat="4.6580370" lon="-74.3058430">
        <ele>2576.8</ele>
        <time>2018-08-10T17:05:41Z</time>
      </trkpt>
      <trkpt lat="4.6580070" lon="-74.3058270">
        <ele>2576.7</ele>
        <time>2018-08-10T17:05:42Z</time>
      </trkpt>
      <trkpt lat="4.6579730" lon="-74.3058100">
        <ele>2576.5</ele>
        <time>2018-08-10T17:05:43Z</time>
      </trkpt>
      <trkpt lat="4.6579350" lon="-74.3057920">
        <ele>2576.5</ele>
        <time>2018-08-10T17:05:44Z</time>
      </trkpt>
      <trkpt lat="4.6578980" lon="-74.3057730">
        <ele>2576.6</ele>
        <time>2018-08-10T17:05:45Z</time>
      </trkpt>
      <trkpt lat="4.6578620" lon="-74.3057520">
        <ele>2576.5</ele>
        <time>2018-08-10T17:05:46Z</time>
      </trkpt>
      <trkpt lat="4.6578250" lon="-74.3057330">
        <ele>2576.3</ele>
        <time>2018-08-10T17:05:47Z</time>
      </trkpt>
      <trkpt lat="4.6577870" lon="-74.3057150">
        <ele>2576.1</ele>
        <time>2018-08-10T17:05:48Z</time>
      </trkpt>
      <trkpt lat="4.6577470" lon="-74.3056930">
        <ele>2575.8</ele>
        <time>2018-08-10T17:05:49Z</time>
      </trkpt>
      <trkpt lat="4.6577080" lon="-74.3056720">
        <ele>2575.5</ele>
        <time>2018-08-10T17:05:50Z</time>
      </trkpt>
      <trkpt lat="4.6576720" lon="-74.3056500">
        <ele>2575.4</ele>
        <time>2018-08-10T17:05:51Z</time>
      </trkpt>
      <trkpt lat="4.6576320" lon="-74.3056280">
        <ele>2575.2</ele>
        <time>2018-08-10T17:05:52Z</time>
      </trkpt>
      <trkpt lat="4.6575880" lon="-74.3056120">
        <ele>2575.1</ele>
        <time>2018-08-10T17:05:53Z</time>
      </trkpt>
      <trkpt lat="4.6575450" lon="-74.3055930">
        <ele>2575.0</ele>
        <time>2018-08-10T17:05:54Z</time>
      </trkpt>
      <trkpt lat="4.6575020" lon="-74.3055720">
        <ele>2574.8</ele>
        <time>2018-08-10T17:05:55Z</time>
      </trkpt>
      <trkpt lat="4.6574570" lon="-74.3055480">
        <ele>2575.0</ele>
        <time>2018-08-10T17:05:56Z</time>
      </trkpt>
      <trkpt lat="4.6574100" lon="-74.3055280">
        <ele>2575.4</ele>
        <time>2018-08-10T17:05:57Z</time>
      </trkpt>
      <trkpt lat="4.6573650" lon="-74.3055120">
        <ele>2576.0</ele>
        <time>2018-08-10T17:05:58Z</time>
      </trkpt>
      <trkpt lat="4.6573230" lon="-74.3054950">
        <ele>2576.6</ele>
        <time>2018-08-10T17:05:59Z</time>
      </trkpt>
      <trkpt lat="4.6572780" lon="-74.3054750">
        <ele>2577.2</ele>
        <time>2018-08-10T17:06:00Z</time>
      </trkpt>
      <trkpt lat="4.6572370" lon="-74.3054530">
        <ele>2577.9</ele>
        <time>2018-08-10T17:06:01Z</time>
      </trkpt>
      <trkpt lat="4.6571950" lon="-74.3054330">
        <ele>2578.6</ele>
        <time>2018-08-10T17:06:02Z</time>
      </trkpt>
      <trkpt lat="4.6571520" lon="-74.3054080">
        <ele>2579.3</ele>
        <time>2018-08-10T17:06:03Z</time>
      </trkpt>
      <trkpt lat="4.6571120" lon="-74.3053820">
        <ele>2579.6</ele>
        <time>2018-08-10T17:06:04Z</time>
      </trkpt>
      <trkpt lat="4.6570720" lon="-74.3053570">
        <ele>2579.9</ele>
        <time>2018-08-10T17:06:05Z</time>
      </trkpt>
      <trkpt lat="4.6570320" lon="-74.3053330">
        <ele>2580.1</ele>
        <time>2018-08-10T17:06:06Z</time>
      </trkpt>
      <trkpt lat="4.6569920" lon="-74.3053100">
        <ele>2580.2</ele>
        <time>2018-08-10T17:06:07Z</time>
      </trkpt>
      <trkpt lat="4.6569550" lon="-74.3052870">
        <ele>2580.1</ele>
        <time>2018-08-10T17:06:08Z</time>
      </trkpt>
      <trkpt lat="4.6569070" lon="-74.3052670">
        <ele>2580.1</ele>
        <time>2018-08-10T17:06:09Z</time>
      </trkpt>
      <trkpt lat="4.6568650" lon="-74.3052430">
        <ele>2580.1</ele>
        <time>2018-08-10T17:06:10Z</time>
      </trkpt>
      <trkpt lat="4.6568280" lon="-74.3052220">
        <ele>2580.3</ele>
        <time>2018-08-10T17:06:11Z</time>
      </trkpt>
      <trkpt lat="4.6567930" lon="-74.3051950">
        <ele>2580.5</ele>
        <time>2018-08-10T17:06:12Z</time>
      </trkpt>
      <trkpt lat="4.6567600" lon="-74.3051720">
        <ele>2580.8</ele>
        <time>2018-08-10T17:06:13Z</time>
      </trkpt>
      <trkpt lat="4.6567250" lon="-74.3051480">
        <ele>2581.0</ele>
        <time>2018-08-10T17:06:14Z</time>
      </trkpt>
      <trkpt lat="4.6566880" lon="-74.3051230">
        <ele>2581.4</ele>
        <time>2018-08-10T17:06:15Z</time>
      </trkpt>
      <trkpt lat="4.6566550" lon="-74.3050970">
        <ele>2581.9</ele>
        <time>2018-08-10T17:06:16Z</time>
      </trkpt>
      <trkpt lat="4.6566200" lon="-74.3050670">
        <ele>2582.4</ele>
        <time>2018-08-10T17:06:17Z</time>
      </trkpt>
      <trkpt lat="4.6565920" lon="-74.3050420">
        <ele>2582.7</ele>
        <time>2018-08-10T17:06:18Z</time>
      </trkpt>
      <trkpt lat="4.6565620" lon="-74.3050180">
        <ele>2583.1</ele>
        <time>2018-08-10T17:06:19Z</time>
      </trkpt>
      <trkpt lat="4.6565300" lon="-74.3050000">
        <ele>2583.5</ele>
        <time>2018-08-10T17:06:20Z</time>
      </trkpt>
      <trkpt lat="4.6564980" lon="-74.3049830">
        <ele>2583.7</ele>
        <time>2018-08-10T17:06:21Z</time>
      </trkpt>
      <trkpt lat="4.6564650" lon="-74.3049700">
        <ele>2584.0</ele>
        <time>2018-08-10T17:06:22Z</time>
      </trkpt>
      <trkpt lat="4.6564300" lon="-74.3049530">
        <ele>2584.2</ele>
        <time>2018-08-10T17:06:23Z</time>
      </trkpt>
      <trkpt lat="4.6563920" lon="-74.3049420">
        <ele>2584.4</ele>
        <time>2018-08-10T17:06:24Z</time>
      </trkpt>
      <trkpt lat="4.6563550" lon="-74.3049320">
        <ele>2584.3</ele>
        <time>2018-08-10T17:06:25Z</time>
      </trkpt>
      <trkpt lat="4.6563220" lon="-74.3049220">
        <ele>2584.2</ele>
        <time>2018-08-10T17:06:26Z</time>
      </trkpt>
      <trkpt lat="4.6562870" lon="-74.3049080">
        <ele>2584.1</ele>
        <time>2018-08-10T17:06:27Z</time>
      </trkpt>
      <trkpt lat="4.6562570" lon="-74.3048930">
        <ele>2584.0</ele>
        <time>2018-08-10T17:06:28Z</time>
      </trkpt>
      <trkpt lat="4.6562220" lon="-74.3048770">
        <ele>2583.9</ele>
        <time>2018-08-10T17:06:29Z</time>
      </trkpt>
      <trkpt lat="4.6561900" lon="-74.3048630">
        <ele>2584.0</ele>
        <time>2018-08-10T17:06:30Z</time>
      </trkpt>
      <trkpt lat="4.6561580" lon="-74.3048530">
        <ele>2584.1</ele>
        <time>2018-08-10T17:06:31Z</time>
      </trkpt>
      <trkpt lat="4.6561230" lon="-74.3048370">
        <ele>2584.3</ele>
        <time>2018-08-10T17:06:32Z</time>
      </trkpt>
      <trkpt lat="4.6560920" lon="-74.3048220">
        <ele>2584.6</ele>
        <time>2018-08-10T17:06:33Z</time>
      </trkpt>
      <trkpt lat="4.6560620" lon="-74.3048070">
        <ele>2585.0</ele>
        <time>2018-08-10T17:06:34Z</time>
      </trkpt>
      <trkpt lat="4.6560330" lon="-74.3047920">
        <ele>2585.4</ele>
        <time>2018-08-10T17:06:35Z</time>
      </trkpt>
      <trkpt lat="4.6560070" lon="-74.3047750">
        <ele>2585.8</ele>
        <time>2018-08-10T17:06:36Z</time>
      </trkpt>
      <trkpt lat="4.6559780" lon="-74.3047570">
        <ele>2586.2</ele>
        <time>2018-08-10T17:06:37Z</time>
      </trkpt>
      <trkpt lat="4.6559500" lon="-74.3047420">
        <ele>2586.3</ele>
        <time>2018-08-10T17:06:38Z</time>
      </trkpt>
      <trkpt lat="4.6559200" lon="-74.3047280">
        <ele>2586.4</ele>
        <time>2018-08-10T17:06:39Z</time>
      </trkpt>
      <trkpt lat="4.6558870" lon="-74.3047030">
        <ele>2586.6</ele>
        <time>2018-08-10T17:06:40Z</time>
      </trkpt>
      <trkpt lat="4.6558530" lon="-74.3046820">
        <ele>2586.9</ele>
        <time>2018-08-10T17:06:41Z</time>
      </trkpt>
      <trkpt lat="4.6558250" lon="-74.3046620">
        <ele>2587.2</ele>
        <time>2018-08-10T17:06:42Z</time>
      </trkpt>
      <trkpt lat="4.6557980" lon="-74.3046370">
        <ele>2587.4</ele>
        <time>2018-08-10T17:06:43Z</time>
      </trkpt>
      <trkpt lat="4.6557700" lon="-74.3046150">
        <ele>2587.6</ele>
        <time>2018-08-10T17:06:44Z</time>
      </trkpt>
      <trkpt lat="4.6557450" lon="-74.3045970">
        <ele>2587.8</ele>
        <time>2018-08-10T17:06:45Z</time>
      </trkpt>
      <trkpt lat="4.6557170" lon="-74.3045730">
        <ele>2588.2</ele>
        <time>2018-08-10T17:06:46Z</time>
      </trkpt>
      <trkpt lat="4.6556900" lon="-74.3045530">
        <ele>2588.6</ele>
        <time>2018-08-10T17:06:47Z</time>
      </trkpt>
      <trkpt lat="4.6556630" lon="-74.3045330">
        <ele>2589.0</ele>
        <time>2018-08-10T17:06:48Z</time>
      </trkpt>
      <trkpt lat="4.6556370" lon="-74.3045150">
        <ele>2589.4</ele>
        <time>2018-08-10T17:06:49Z</time>
      </trkpt>
      <trkpt lat="4.6556120" lon="-74.3044950">
        <ele>2589.8</ele>
        <time>2018-08-10T17:06:50Z</time>
      </trkpt>
      <trkpt lat="4.6555880" lon="-74.3044750">
        <ele>2590.0</ele>
        <time>2018-08-10T17:06:51Z</time>
      </trkpt>
      <trkpt lat="4.6555670" lon="-74.3044570">
        <ele>2590.1</ele>
        <time>2018-08-10T17:06:52Z</time>
      </trkpt>
      <trkpt lat="4.6555420" lon="-74.3044420">
        <ele>2590.3</ele>
        <time>2018-08-10T17:06:53Z</time>
      </trkpt>
      <trkpt lat="4.6554980" lon="-74.3044130">
        <ele>2590.6</ele>
        <time>2018-08-10T17:06:55Z</time>
      </trkpt>
      <trkpt lat="4.6554730" lon="-74.3043970">
        <ele>2590.8</ele>
        <time>2018-08-10T17:06:56Z</time>
      </trkpt>
      <trkpt lat="4.6554480" lon="-74.3043820">
        <ele>2590.9</ele>
        <time>2018-08-10T17:06:57Z</time>
      </trkpt>
      <trkpt lat="4.6554000" lon="-74.3043570">
        <ele>2591.1</ele>
        <time>2018-08-10T17:06:59Z</time>
      </trkpt>
      <trkpt lat="4.6553730" lon="-74.3043450">
        <ele>2591.2</ele>
        <time>2018-08-10T17:07:00Z</time>
      </trkpt>
      <trkpt lat="4.6553420" lon="-74.3043370">
        <ele>2591.4</ele>
        <time>2018-08-10T17:07:01Z</time>
      </trkpt>
      <trkpt lat="4.6553130" lon="-74.3043350">
        <ele>2591.5</ele>
        <time>2018-08-10T17:07:02Z</time>
      </trkpt>
      <trkpt lat="4.6552830" lon="-74.3043380">
        <ele>2591.6</ele>
        <time>2018-08-10T17:07:03Z</time>
      </trkpt>
      <trkpt lat="4.6552520" lon="-74.3043470">
        <ele>2591.7</ele>
        <time>2018-08-10T17:07:04Z</time>
      </trkpt>
      <trkpt lat="4.6552180" lon="-74.3043570">
        <ele>2591.9</ele>
        <time>2018-08-10T17:07:05Z</time>
      </trkpt>
      <trkpt lat="4.6551920" lon="-74.3043730">
        <ele>2592.1</ele>
        <time>2018-08-10T17:07:06Z</time>
      </trkpt>
      <trkpt lat="4.6551650" lon="-74.3043930">
        <ele>2592.3</ele>
        <time>2018-08-10T17:07:07Z</time>
      </trkpt>
      <trkpt lat="4.6551380" lon="-74.3044120">
        <ele>2592.8</ele>
        <time>2018-08-10T17:07:08Z</time>
      </trkpt>
      <trkpt lat="4.6551100" lon="-74.3044280">
        <ele>2593.4</ele>
        <time>2018-08-10T17:07:09Z</time>
      </trkpt>
      <trkpt lat="4.6550850" lon="-74.3044430">
        <ele>2593.9</ele>
        <time>2018-08-10T17:07:10Z</time>
      </trkpt>
      <trkpt lat="4.6550480" lon="-74.3044550">
        <ele>2594.5</ele>
        <time>2018-08-10T17:07:11Z</time>
      </trkpt>
      <trkpt lat="4.6550180" lon="-74.3044600">
        <ele>2595.2</ele>
        <time>2018-08-10T17:07:12Z</time>
      </trkpt>
      <trkpt lat="4.6549680" lon="-74.3044530">
        <ele>2596.4</ele>
        <time>2018-08-10T17:07:14Z</time>
      </trkpt>
      <trkpt lat="4.6549170" lon="-74.3044500">
        <ele>2597.1</ele>
        <time>2018-08-10T17:07:16Z</time>
      </trkpt>
      <trkpt lat="4.6548670" lon="-74.3044480">
        <ele>2598.1</ele>
        <time>2018-08-10T17:07:18Z</time>
      </trkpt>
      <trkpt lat="4.6548200" lon="-74.3044420">
        <ele>2598.7</ele>
        <time>2018-08-10T17:07:20Z</time>
      </trkpt>
      <trkpt lat="4.6547720" lon="-74.3044370">
        <ele>2599.2</ele>
        <time>2018-08-10T17:07:22Z</time>
      </trkpt>
      <trkpt lat="4.6547230" lon="-74.3044300">
        <ele>2600.1</ele>
        <time>2018-08-10T17:07:24Z</time>
      </trkpt>
      <trkpt lat="4.6546830" lon="-74.3044220">
        <ele>2600.9</ele>
        <time>2018-08-10T17:07:26Z</time>
      </trkpt>
      <trkpt lat="4.6546350" lon="-74.3044070">
        <ele>2601.9</ele>
        <time>2018-08-10T17:07:28Z</time>
      </trkpt>
      <trkpt lat="4.6545870" lon="-74.3043850">
        <ele>2603.0</ele>
        <time>2018-08-10T17:07:30Z</time>
      </trkpt>
      <trkpt lat="4.6545620" lon="-74.3043700">
        <ele>2603.3</ele>
        <time>2018-08-10T17:07:31Z</time>
      </trkpt>
      <trkpt lat="4.6545220" lon="-74.3043430">
        <ele>2603.4</ele>
        <time>2018-08-10T17:07:33Z</time>
      </trkpt>
      <trkpt lat="4.6545020" lon="-74.3043250">
        <ele>2603.8</ele>
        <time>2018-08-10T17:07:34Z</time>
      </trkpt>
      <trkpt lat="4.6544680" lon="-74.3042870">
        <ele>2604.2</ele>
        <time>2018-08-10T17:07:36Z</time>
      </trkpt>
      <trkpt lat="4.6544420" lon="-74.3042650">
        <ele>2604.2</ele>
        <time>2018-08-10T17:07:37Z</time>
      </trkpt>
      <trkpt lat="4.6544170" lon="-74.3042420">
        <ele>2604.3</ele>
        <time>2018-08-10T17:07:38Z</time>
      </trkpt>
      <trkpt lat="4.6543950" lon="-74.3042200">
        <ele>2604.4</ele>
        <time>2018-08-10T17:07:39Z</time>
      </trkpt>
      <trkpt lat="4.6543730" lon="-74.3042000">
        <ele>2604.6</ele>
        <time>2018-08-10T17:07:40Z</time>
      </trkpt>
      <trkpt lat="4.6543480" lon="-74.3041820">
        <ele>2605.1</ele>
        <time>2018-08-10T17:07:41Z</time>
      </trkpt>
      <trkpt lat="4.6543120" lon="-74.3041720">
        <ele>2605.7</ele>
        <time>2018-08-10T17:07:42Z</time>
      </trkpt>
      <trkpt lat="4.6542870" lon="-74.3041550">
        <ele>2606.3</ele>
        <time>2018-08-10T17:07:43Z</time>
      </trkpt>
      <trkpt lat="4.6542630" lon="-74.3041380">
        <ele>2606.8</ele>
        <time>2018-08-10T17:07:44Z</time>
      </trkpt>
      <trkpt lat="4.6542380" lon="-74.3041230">
        <ele>2607.4</ele>
        <time>2018-08-10T17:07:45Z</time>
      </trkpt>
      <trkpt lat="4.6542150" lon="-74.3041080">
        <ele>2607.8</ele>
        <time>2018-08-10T17:07:46Z</time>
      </trkpt>
      <trkpt lat="4.6541950" lon="-74.3040850">
        <ele>2608.3</ele>
        <time>2018-08-10T17:07:47Z</time>
      </trkpt>
      <trkpt lat="4.6541750" lon="-74.3040630">
        <ele>2608.8</ele>
        <time>2018-08-10T17:07:48Z</time>
      </trkpt>
      <trkpt lat="4.6541570" lon="-74.3040400">
        <ele>2609.4</ele>
        <time>2018-08-10T17:07:49Z</time>
      </trkpt>
      <trkpt lat="4.6541400" lon="-74.3040130">
        <ele>2610.6</ele>
        <time>2018-08-10T17:07:50Z</time>
      </trkpt>
      <trkpt lat="4.6541170" lon="-74.3039700">
        <ele>2612.0</ele>
        <time>2018-08-10T17:07:52Z</time>
      </trkpt>
      <trkpt lat="4.6541000" lon="-74.3039370">
        <ele>2612.5</ele>
        <time>2018-08-10T17:07:54Z</time>
      </trkpt>
      <trkpt lat="4.6540830" lon="-74.3039120">
        <ele>2613.0</ele>
        <time>2018-08-10T17:07:56Z</time>
      </trkpt>
      <trkpt lat="4.6540470" lon="-74.3039170">
        <ele>2613.6</ele>
        <time>2018-08-10T17:07:57Z</time>
      </trkpt>
      <trkpt lat="4.6540150" lon="-74.3038930">
        <ele>2614.2</ele>
        <time>2018-08-10T17:07:58Z</time>
      </trkpt>
      <trkpt lat="4.6539930" lon="-74.3038700">
        <ele>2615.2</ele>
        <time>2018-08-10T17:07:59Z</time>
      </trkpt>
      <trkpt lat="4.6539630" lon="-74.3038480">
        <ele>2616.3</ele>
        <time>2018-08-10T17:08:00Z</time>
      </trkpt>
      <trkpt lat="4.6539330" lon="-74.3038250">
        <ele>2616.9</ele>
        <time>2018-08-10T17:08:01Z</time>
      </trkpt>
      <trkpt lat="4.6539120" lon="-74.3038050">
        <ele>2617.3</ele>
        <time>2018-08-10T17:08:02Z</time>
      </trkpt>
      <trkpt lat="4.6538870" lon="-74.3037830">
        <ele>2617.7</ele>
        <time>2018-08-10T17:08:03Z</time>
      </trkpt>
      <trkpt lat="4.6538600" lon="-74.3037650">
        <ele>2617.9</ele>
        <time>2018-08-10T17:08:04Z</time>
      </trkpt>
      <trkpt lat="4.6538350" lon="-74.3037500">
        <ele>2618.2</ele>
        <time>2018-08-10T17:08:05Z</time>
      </trkpt>
      <trkpt lat="4.6538100" lon="-74.3037380">
        <ele>2618.4</ele>
        <time>2018-08-10T17:08:06Z</time>
      </trkpt>
      <trkpt lat="4.6537850" lon="-74.3037250">
        <ele>2618.5</ele>
        <time>2018-08-10T17:08:07Z</time>
      </trkpt>
      <trkpt lat="4.6537520" lon="-74.3037170">
        <ele>2618.7</ele>
        <time>2018-08-10T17:08:08Z</time>
      </trkpt>
      <trkpt lat="4.6537180" lon="-74.3037120">
        <ele>2618.9</ele>
        <time>2018-08-10T17:08:09Z</time>
      </trkpt>
      <trkpt lat="4.6536880" lon="-74.3037050">
        <ele>2619.2</ele>
        <time>2018-08-10T17:08:10Z</time>
      </trkpt>
      <trkpt lat="4.6536580" lon="-74.3036980">
        <ele>2619.5</ele>
        <time>2018-08-10T17:08:11Z</time>
      </trkpt>
      <trkpt lat="4.6536270" lon="-74.3036920">
        <ele>2619.7</ele>
        <time>2018-08-10T17:08:12Z</time>
      </trkpt>
      <trkpt lat="4.6535680" lon="-74.3036750">
        <ele>2619.9</ele>
        <time>2018-08-10T17:08:14Z</time>
      </trkpt>
      <trkpt lat="4.6535400" lon="-74.3036630">
        <ele>2619.9</ele>
        <time>2018-08-10T17:08:15Z</time>
      </trkpt>
      <trkpt lat="4.6535100" lon="-74.3036480">
        <ele>2619.8</ele>
        <time>2018-08-10T17:08:16Z</time>
      </trkpt>
      <trkpt lat="4.6534850" lon="-74.3036370">
        <ele>2619.8</ele>
        <time>2018-08-10T17:08:17Z</time>
      </trkpt>
      <trkpt lat="4.6534520" lon="-74.3036250">
        <ele>2620.2</ele>
        <time>2018-08-10T17:08:18Z</time>
      </trkpt>
      <trkpt lat="4.6534170" lon="-74.3036120">
        <ele>2620.6</ele>
        <time>2018-08-10T17:08:19Z</time>
      </trkpt>
      <trkpt lat="4.6533880" lon="-74.3035950">
        <ele>2620.7</ele>
        <time>2018-08-10T17:08:20Z</time>
      </trkpt>
      <trkpt lat="4.6533620" lon="-74.3035770">
        <ele>2620.9</ele>
        <time>2018-08-10T17:08:21Z</time>
      </trkpt>
      <trkpt lat="4.6533330" lon="-74.3035570">
        <ele>2621.7</ele>
        <time>2018-08-10T17:08:22Z</time>
      </trkpt>
      <trkpt lat="4.6533080" lon="-74.3035420">
        <ele>2622.7</ele>
        <time>2018-08-10T17:08:23Z</time>
      </trkpt>
      <trkpt lat="4.6532830" lon="-74.3035280">
        <ele>2623.7</ele>
        <time>2018-08-10T17:08:24Z</time>
      </trkpt>
      <trkpt lat="4.6532570" lon="-74.3035170">
        <ele>2623.7</ele>
        <time>2018-08-10T17:08:25Z</time>
      </trkpt>
      <trkpt lat="4.6532220" lon="-74.3035080">
        <ele>2623.5</ele>
        <time>2018-08-10T17:08:26Z</time>
      </trkpt>
      <trkpt lat="4.6531950" lon="-74.3034980">
        <ele>2623.8</ele>
        <time>2018-08-10T17:08:27Z</time>
      </trkpt>
      <trkpt lat="4.6531630" lon="-74.3034880">
        <ele>2624.5</ele>
        <time>2018-08-10T17:08:28Z</time>
      </trkpt>
      <trkpt lat="4.6531380" lon="-74.3034770">
        <ele>2624.8</ele>
        <time>2018-08-10T17:08:29Z</time>
      </trkpt>
      <trkpt lat="4.6530970" lon="-74.3034520">
        <ele>2624.8</ele>
        <time>2018-08-10T17:08:31Z</time>
      </trkpt>
      <trkpt lat="4.6530600" lon="-74.3034220">
        <ele>2626.4</ele>
        <time>2018-08-10T17:08:33Z</time>
      </trkpt>
      <trkpt lat="4.6530330" lon="-74.3033930">
        <ele>2628.1</ele>
        <time>2018-08-10T17:08:35Z</time>
      </trkpt>
      <trkpt lat="4.6530020" lon="-74.3033550">
        <ele>2627.8</ele>
        <time>2018-08-10T17:08:37Z</time>
      </trkpt>
      <trkpt lat="4.6529780" lon="-74.3033380">
        <ele>2627.6</ele>
        <time>2018-08-10T17:08:38Z</time>
      </trkpt>
      <trkpt lat="4.6529530" lon="-74.3033150">
        <ele>2627.3</ele>
        <time>2018-08-10T17:08:39Z</time>
      </trkpt>
      <trkpt lat="4.6529050" lon="-74.3032920">
        <ele>2627.1</ele>
        <time>2018-08-10T17:08:41Z</time>
      </trkpt>
      <trkpt lat="4.6528730" lon="-74.3032850">
        <ele>2627.1</ele>
        <time>2018-08-10T17:08:42Z</time>
      </trkpt>
      <trkpt lat="4.6528200" lon="-74.3032750">
        <ele>2626.7</ele>
        <time>2018-08-10T17:08:44Z</time>
      </trkpt>
      <trkpt lat="4.6527650" lon="-74.3032770">
        <ele>2627.4</ele>
        <time>2018-08-10T17:08:46Z</time>
      </trkpt>
      <trkpt lat="4.6527370" lon="-74.3032750">
        <ele>2628.0</ele>
        <time>2018-08-10T17:08:47Z</time>
      </trkpt>
      <trkpt lat="4.6526800" lon="-74.3032750">
        <ele>2627.9</ele>
        <time>2018-08-10T17:08:49Z</time>
      </trkpt>
      <trkpt lat="4.6526230" lon="-74.3032750">
        <ele>2628.2</ele>
        <time>2018-08-10T17:08:51Z</time>
      </trkpt>
      <trkpt lat="4.6525900" lon="-74.3032750">
        <ele>2628.7</ele>
        <time>2018-08-10T17:08:52Z</time>
      </trkpt>
      <trkpt lat="4.6525620" lon="-74.3032700">
        <ele>2629.1</ele>
        <time>2018-08-10T17:08:53Z</time>
      </trkpt>
      <trkpt lat="4.6525320" lon="-74.3032680">
        <ele>2629.3</ele>
        <time>2018-08-10T17:08:54Z</time>
      </trkpt>
      <trkpt lat="4.6525030" lon="-74.3032630">
        <ele>2629.5</ele>
        <time>2018-08-10T17:08:55Z</time>
      </trkpt>
      <trkpt lat="4.6524750" lon="-74.3032580">
        <ele>2629.6</ele>
        <time>2018-08-10T17:08:56Z</time>
      </trkpt>
      <trkpt lat="4.6524470" lon="-74.3032570">
        <ele>2629.6</ele>
        <time>2018-08-10T17:08:57Z</time>
      </trkpt>
      <trkpt lat="4.6524170" lon="-74.3032550">
        <ele>2629.6</ele>
        <time>2018-08-10T17:08:58Z</time>
      </trkpt>
      <trkpt lat="4.6523850" lon="-74.3032530">
        <ele>2629.6</ele>
        <time>2018-08-10T17:08:59Z</time>
      </trkpt>
      <trkpt lat="4.6523570" lon="-74.3032530">
        <ele>2629.6</ele>
        <time>2018-08-10T17:09:00Z</time>
      </trkpt>
      <trkpt lat="4.6523270" lon="-74.3032570">
        <ele>2629.4</ele>
        <time>2018-08-10T17:09:01Z</time>
      </trkpt>
      <trkpt lat="4.6522980" lon="-74.3032650">
        <ele>2629.2</ele>
        <time>2018-08-10T17:09:02Z</time>
      </trkpt>
      <trkpt lat="4.6522680" lon="-74.3032730">
        <ele>2629.0</ele>
        <time>2018-08-10T17:09:03Z</time>
      </trkpt>
      <trkpt lat="4.6522400" lon="-74.3032780">
        <ele>2628.9</ele>
        <time>2018-08-10T17:09:04Z</time>
      </trkpt>
      <trkpt lat="4.6521850" lon="-74.3032850">
        <ele>2628.4</ele>
        <time>2018-08-10T17:09:06Z</time>
      </trkpt>
      <trkpt lat="4.6521570" lon="-74.3032880">
        <ele>2628.0</ele>
        <time>2018-08-10T17:09:07Z</time>
      </trkpt>
      <trkpt lat="4.6521270" lon="-74.3032900">
        <ele>2628.1</ele>
        <time>2018-08-10T17:09:08Z</time>
      </trkpt>
      <trkpt lat="4.6521000" lon="-74.3032970">
        <ele>2628.4</ele>
        <time>2018-08-10T17:09:09Z</time>
      </trkpt>
      <trkpt lat="4.6520500" lon="-74.3033180">
        <ele>2628.8</ele>
        <time>2018-08-10T17:09:11Z</time>
      </trkpt>
      <trkpt lat="4.6520230" lon="-74.3033270">
        <ele>2628.9</ele>
        <time>2018-08-10T17:09:12Z</time>
      </trkpt>
      <trkpt lat="4.6519970" lon="-74.3033370">
        <ele>2629.2</ele>
        <time>2018-08-10T17:09:13Z</time>
      </trkpt>
      <trkpt lat="4.6519430" lon="-74.3033370">
        <ele>2630.3</ele>
        <time>2018-08-10T17:09:15Z</time>
      </trkpt>
      <trkpt lat="4.6518970" lon="-74.3033270">
        <ele>2630.8</ele>
        <time>2018-08-10T17:09:17Z</time>
      </trkpt>
      <trkpt lat="4.6518670" lon="-74.3033030">
        <ele>2631.6</ele>
        <time>2018-08-10T17:09:19Z</time>
      </trkpt>
      <trkpt lat="4.6518450" lon="-74.3032600">
        <ele>2632.5</ele>
        <time>2018-08-10T17:09:21Z</time>
      </trkpt>
      <trkpt lat="4.6518350" lon="-74.3032100">
        <ele>2631.5</ele>
        <time>2018-08-10T17:09:23Z</time>
      </trkpt>
      <trkpt lat="4.6518200" lon="-74.3031630">
        <ele>2630.8</ele>
        <time>2018-08-10T17:09:25Z</time>
      </trkpt>
      <trkpt lat="4.6517970" lon="-74.3031280">
        <ele>2630.3</ele>
        <time>2018-08-10T17:09:27Z</time>
      </trkpt>
      <trkpt lat="4.6517700" lon="-74.3030820">
        <ele>2630.4</ele>
        <time>2018-08-10T17:09:29Z</time>
      </trkpt>
      <trkpt lat="4.6517530" lon="-74.3030580">
        <ele>2630.6</ele>
        <time>2018-08-10T17:09:30Z</time>
      </trkpt>
      <trkpt lat="4.6517370" lon="-74.3030370">
        <ele>2631.0</ele>
        <time>2018-08-10T17:09:31Z</time>
      </trkpt>
      <trkpt lat="4.6517180" lon="-74.3030170">
        <ele>2631.5</ele>
        <time>2018-08-10T17:09:32Z</time>
      </trkpt>
      <trkpt lat="4.6516870" lon="-74.3029780">
        <ele>2632.5</ele>
        <time>2018-08-10T17:09:34Z</time>
      </trkpt>
      <trkpt lat="4.6516630" lon="-74.3029420">
        <ele>2633.6</ele>
        <time>2018-08-10T17:09:36Z</time>
      </trkpt>
      <trkpt lat="4.6516380" lon="-74.3029100">
        <ele>2634.7</ele>
        <time>2018-08-10T17:09:38Z</time>
      </trkpt>
      <trkpt lat="4.6516100" lon="-74.3028750">
        <ele>2636.0</ele>
        <time>2018-08-10T17:09:40Z</time>
      </trkpt>
      <trkpt lat="4.6515670" lon="-74.3028430">
        <ele>2637.7</ele>
        <time>2018-08-10T17:09:42Z</time>
      </trkpt>
      <trkpt lat="4.6515330" lon="-74.3028120">
        <ele>2639.2</ele>
        <time>2018-08-10T17:09:44Z</time>
      </trkpt>
      <trkpt lat="4.6514930" lon="-74.3027800">
        <ele>2639.9</ele>
        <time>2018-08-10T17:09:46Z</time>
      </trkpt>
      <trkpt lat="4.6514700" lon="-74.3027620">
        <ele>2640.1</ele>
        <time>2018-08-10T17:09:47Z</time>
      </trkpt>
      <trkpt lat="4.6514300" lon="-74.3027320">
        <ele>2640.1</ele>
        <time>2018-08-10T17:09:49Z</time>
      </trkpt>
      <trkpt lat="4.6514020" lon="-74.3027070">
        <ele>2639.9</ele>
        <time>2018-08-10T17:09:51Z</time>
      </trkpt>
      <trkpt lat="4.6513820" lon="-74.3026880">
        <ele>2640.4</ele>
        <time>2018-08-10T17:09:52Z</time>
      </trkpt>
      <trkpt lat="4.6513600" lon="-74.3026700">
        <ele>2641.2</ele>
        <time>2018-08-10T17:09:53Z</time>
      </trkpt>
      <trkpt lat="4.6513370" lon="-74.3026330">
        <ele>2642.2</ele>
        <time>2018-08-10T17:09:55Z</time>
      </trkpt>
      <trkpt lat="4.6513200" lon="-74.3026030">
        <ele>2642.5</ele>
        <time>2018-08-10T17:09:58Z</time>
      </trkpt>
      <trkpt lat="4.6512980" lon="-74.3025700">
        <ele>2642.9</ele>
        <time>2018-08-10T17:10:01Z</time>
      </trkpt>
      <trkpt lat="4.6512700" lon="-74.3025450">
        <ele>2643.4</ele>
        <time>2018-08-10T17:10:03Z</time>
      </trkpt>
      <trkpt lat="4.6512420" lon="-74.3025150">
        <ele>2644.0</ele>
        <time>2018-08-10T17:10:05Z</time>
      </trkpt>
      <trkpt lat="4.6512170" lon="-74.3024820">
        <ele>2644.2</ele>
        <time>2018-08-10T17:10:07Z</time>
      </trkpt>
      <trkpt lat="4.6511930" lon="-74.3024580">
        <ele>2644.3</ele>
        <time>2018-08-10T17:10:09Z</time>
      </trkpt>
      <trkpt lat="4.6511650" lon="-74.3024480">
        <ele>2644.8</ele>
        <time>2018-08-10T17:10:11Z</time>
      </trkpt>
      <trkpt lat="4.6511370" lon="-74.3024530">
        <ele>2645.5</ele>
        <time>2018-08-10T17:10:13Z</time>
      </trkpt>
      <trkpt lat="4.6511000" lon="-74.3024670">
        <ele>2646.6</ele>
        <time>2018-08-10T17:10:15Z</time>
      </trkpt>
      <trkpt lat="4.6510570" lon="-74.3024920">
        <ele>2647.6</ele>
        <time>2018-08-10T17:10:17Z</time>
      </trkpt>
      <trkpt lat="4.6510100" lon="-74.3024930">
        <ele>2648.4</ele>
        <time>2018-08-10T17:10:19Z</time>
      </trkpt>
      <trkpt lat="4.6509650" lon="-74.3024920">
        <ele>2648.8</ele>
        <time>2018-08-10T17:10:21Z</time>
      </trkpt>
      <trkpt lat="4.6509220" lon="-74.3024970">
        <ele>2649.2</ele>
        <time>2018-08-10T17:10:23Z</time>
      </trkpt>
      <trkpt lat="4.6508670" lon="-74.3024980">
        <ele>2649.6</ele>
        <time>2018-08-10T17:10:25Z</time>
      </trkpt>
      <trkpt lat="4.6508370" lon="-74.3025000">
        <ele>2649.6</ele>
        <time>2018-08-10T17:10:26Z</time>
      </trkpt>
      <trkpt lat="4.6507850" lon="-74.3025080">
        <ele>2649.5</ele>
        <time>2018-08-10T17:10:28Z</time>
      </trkpt>
      <trkpt lat="4.6507570" lon="-74.3025120">
        <ele>2649.4</ele>
        <time>2018-08-10T17:10:29Z</time>
      </trkpt>
      <trkpt lat="4.6507080" lon="-74.3025180">
        <ele>2649.4</ele>
        <time>2018-08-10T17:10:31Z</time>
      </trkpt>
      <trkpt lat="4.6506600" lon="-74.3025230">
        <ele>2649.4</ele>
        <time>2018-08-10T17:10:33Z</time>
      </trkpt>
      <trkpt lat="4.6506320" lon="-74.3025250">
        <ele>2649.6</ele>
        <time>2018-08-10T17:10:34Z</time>
      </trkpt>
      <trkpt lat="4.6505770" lon="-74.3025300">
        <ele>2649.8</ele>
        <time>2018-08-10T17:10:36Z</time>
      </trkpt>
      <trkpt lat="4.6505470" lon="-74.3025330">
        <ele>2649.9</ele>
        <time>2018-08-10T17:10:37Z</time>
      </trkpt>
      <trkpt lat="4.6504930" lon="-74.3025370">
        <ele>2650.1</ele>
        <time>2018-08-10T17:10:39Z</time>
      </trkpt>
      <trkpt lat="4.6504470" lon="-74.3025450">
        <ele>2650.2</ele>
        <time>2018-08-10T17:10:41Z</time>
      </trkpt>
      <trkpt lat="4.6504020" lon="-74.3025520">
        <ele>2650.6</ele>
        <time>2018-08-10T17:10:43Z</time>
      </trkpt>
      <trkpt lat="4.6503570" lon="-74.3025600">
        <ele>2651.0</ele>
        <time>2018-08-10T17:10:45Z</time>
      </trkpt>
      <trkpt lat="4.6503120" lon="-74.3025830">
        <ele>2651.4</ele>
        <time>2018-08-10T17:10:47Z</time>
      </trkpt>
      <trkpt lat="4.6502880" lon="-74.3026030">
        <ele>2651.7</ele>
        <time>2018-08-10T17:10:48Z</time>
      </trkpt>
      <trkpt lat="4.6502450" lon="-74.3026320">
        <ele>2652.3</ele>
        <time>2018-08-10T17:10:50Z</time>
      </trkpt>
      <trkpt lat="4.6502100" lon="-74.3026670">
        <ele>2652.3</ele>
        <time>2018-08-10T17:10:52Z</time>
      </trkpt>
      <trkpt lat="4.6501950" lon="-74.3027050">
        <ele>2652.2</ele>
        <time>2018-08-10T17:10:54Z</time>
      </trkpt>
      <trkpt lat="4.6501730" lon="-74.3027400">
        <ele>2651.9</ele>
        <time>2018-08-10T17:10:56Z</time>
      </trkpt>
      <trkpt lat="4.6501500" lon="-74.3027750">
        <ele>2651.6</ele>
        <time>2018-08-10T17:10:58Z</time>
      </trkpt>
      <trkpt lat="4.6501200" lon="-74.3028080">
        <ele>2651.6</ele>
        <time>2018-08-10T17:11:00Z</time>
      </trkpt>
      <trkpt lat="4.6500920" lon="-74.3028450">
        <ele>2651.7</ele>
        <time>2018-08-10T17:11:02Z</time>
      </trkpt>
      <trkpt lat="4.6500580" lon="-74.3028830">
        <ele>2652.2</ele>
        <time>2018-08-10T17:11:04Z</time>
      </trkpt>
      <trkpt lat="4.6500380" lon="-74.3029070">
        <ele>2652.4</ele>
        <time>2018-08-10T17:11:05Z</time>
      </trkpt>
      <trkpt lat="4.6500170" lon="-74.3029230">
        <ele>2652.6</ele>
        <time>2018-08-10T17:11:06Z</time>
      </trkpt>
      <trkpt lat="4.6499930" lon="-74.3029430">
        <ele>2652.8</ele>
        <time>2018-08-10T17:11:07Z</time>
      </trkpt>
      <trkpt lat="4.6499680" lon="-74.3029570">
        <ele>2653.0</ele>
        <time>2018-08-10T17:11:08Z</time>
      </trkpt>
      <trkpt lat="4.6499430" lon="-74.3029680">
        <ele>2653.2</ele>
        <time>2018-08-10T17:11:09Z</time>
      </trkpt>
      <trkpt lat="4.6499000" lon="-74.3029800">
        <ele>2653.6</ele>
        <time>2018-08-10T17:11:11Z</time>
      </trkpt>
      <trkpt lat="4.6498500" lon="-74.3029900">
        <ele>2654.0</ele>
        <time>2018-08-10T17:11:13Z</time>
      </trkpt>
      <trkpt lat="4.6498000" lon="-74.3030050">
        <ele>2654.6</ele>
        <time>2018-08-10T17:11:15Z</time>
      </trkpt>
      <trkpt lat="4.6497550" lon="-74.3030070">
        <ele>2655.2</ele>
        <time>2018-08-10T17:11:17Z</time>
      </trkpt>
      <trkpt lat="4.6496980" lon="-74.3029980">
        <ele>2656.0</ele>
        <time>2018-08-10T17:11:19Z</time>
      </trkpt>
      <trkpt lat="4.6496720" lon="-74.3029920">
        <ele>2656.3</ele>
        <time>2018-08-10T17:11:20Z</time>
      </trkpt>
      <trkpt lat="4.6496220" lon="-74.3029880">
        <ele>2656.9</ele>
        <time>2018-08-10T17:11:22Z</time>
      </trkpt>
      <trkpt lat="4.6495700" lon="-74.3029850">
        <ele>2657.5</ele>
        <time>2018-08-10T17:11:24Z</time>
      </trkpt>
      <trkpt lat="4.6495380" lon="-74.3029830">
        <ele>2657.8</ele>
        <time>2018-08-10T17:11:25Z</time>
      </trkpt>
      <trkpt lat="4.6495080" lon="-74.3029800">
        <ele>2658.1</ele>
        <time>2018-08-10T17:11:26Z</time>
      </trkpt>
      <trkpt lat="4.6494570" lon="-74.3029770">
        <ele>2658.7</ele>
        <time>2018-08-10T17:11:28Z</time>
      </trkpt>
      <trkpt lat="4.6494280" lon="-74.3029750">
        <ele>2659.0</ele>
        <time>2018-08-10T17:11:29Z</time>
      </trkpt>
      <trkpt lat="4.6493980" lon="-74.3029750">
        <ele>2659.3</ele>
        <time>2018-08-10T17:11:30Z</time>
      </trkpt>
      <trkpt lat="4.6493700" lon="-74.3029800">
        <ele>2659.6</ele>
        <time>2018-08-10T17:11:31Z</time>
      </trkpt>
      <trkpt lat="4.6493420" lon="-74.3029830">
        <ele>2659.9</ele>
        <time>2018-08-10T17:11:32Z</time>
      </trkpt>
      <trkpt lat="4.6493120" lon="-74.3029830">
        <ele>2660.1</ele>
        <time>2018-08-10T17:11:33Z</time>
      </trkpt>
      <trkpt lat="4.6492800" lon="-74.3029800">
        <ele>2660.3</ele>
        <time>2018-08-10T17:11:34Z</time>
      </trkpt>
      <trkpt lat="4.6492520" lon="-74.3029750">
        <ele>2660.3</ele>
        <time>2018-08-10T17:11:35Z</time>
      </trkpt>
      <trkpt lat="4.6492250" lon="-74.3029700">
        <ele>2660.2</ele>
        <time>2018-08-10T17:11:36Z</time>
      </trkpt>
      <trkpt lat="4.6491970" lon="-74.3029680">
        <ele>2660.1</ele>
        <time>2018-08-10T17:11:37Z</time>
      </trkpt>
      <trkpt lat="4.6491680" lon="-74.3029630">
        <ele>2659.9</ele>
        <time>2018-08-10T17:11:38Z</time>
      </trkpt>
      <trkpt lat="4.6491170" lon="-74.3029580">
        <ele>2659.3</ele>
        <time>2018-08-10T17:11:40Z</time>
      </trkpt>
      <trkpt lat="4.6490850" lon="-74.3029580">
        <ele>2659.0</ele>
        <time>2018-08-10T17:11:41Z</time>
      </trkpt>
      <trkpt lat="4.6490550" lon="-74.3029620">
        <ele>2658.6</ele>
        <time>2018-08-10T17:11:42Z</time>
      </trkpt>
      <trkpt lat="4.6490250" lon="-74.3029620">
        <ele>2658.3</ele>
        <time>2018-08-10T17:11:43Z</time>
      </trkpt>
      <trkpt lat="4.6489930" lon="-74.3029580">
        <ele>2658.0</ele>
        <time>2018-08-10T17:11:44Z</time>
      </trkpt>
      <trkpt lat="4.6489650" lon="-74.3029570">
        <ele>2657.8</ele>
        <time>2018-08-10T17:11:45Z</time>
      </trkpt>
      <trkpt lat="4.6489180" lon="-74.3029600">
        <ele>2657.4</ele>
        <time>2018-08-10T17:11:47Z</time>
      </trkpt>
      <trkpt lat="4.6488670" lon="-74.3029770">
        <ele>2657.1</ele>
        <time>2018-08-10T17:11:49Z</time>
      </trkpt>
      <trkpt lat="4.6488370" lon="-74.3029820">
        <ele>2657.0</ele>
        <time>2018-08-10T17:11:50Z</time>
      </trkpt>
      <trkpt lat="4.6487830" lon="-74.3029770">
        <ele>2657.0</ele>
        <time>2018-08-10T17:11:52Z</time>
      </trkpt>
      <trkpt lat="4.6487550" lon="-74.3029800">
        <ele>2657.0</ele>
        <time>2018-08-10T17:11:53Z</time>
      </trkpt>
      <trkpt lat="4.6487270" lon="-74.3029850">
        <ele>2657.2</ele>
        <time>2018-08-10T17:11:54Z</time>
      </trkpt>
      <trkpt lat="4.6486680" lon="-74.3029880">
        <ele>2657.5</ele>
        <time>2018-08-10T17:11:56Z</time>
      </trkpt>
      <trkpt lat="4.6486370" lon="-74.3029820">
        <ele>2657.7</ele>
        <time>2018-08-10T17:11:57Z</time>
      </trkpt>
      <trkpt lat="4.6486070" lon="-74.3029800">
        <ele>2658.0</ele>
        <time>2018-08-10T17:11:58Z</time>
      </trkpt>
      <trkpt lat="4.6485750" lon="-74.3029820">
        <ele>2658.3</ele>
        <time>2018-08-10T17:11:59Z</time>
      </trkpt>
      <trkpt lat="4.6485420" lon="-74.3029880">
        <ele>2658.6</ele>
        <time>2018-08-10T17:12:00Z</time>
      </trkpt>
      <trkpt lat="4.6485130" lon="-74.3029950">
        <ele>2658.9</ele>
        <time>2018-08-10T17:12:01Z</time>
      </trkpt>
      <trkpt lat="4.6484850" lon="-74.3030000">
        <ele>2659.2</ele>
        <time>2018-08-10T17:12:02Z</time>
      </trkpt>
      <trkpt lat="4.6484280" lon="-74.3029980">
        <ele>2659.8</ele>
        <time>2018-08-10T17:12:04Z</time>
      </trkpt>
      <trkpt lat="4.6483780" lon="-74.3029930">
        <ele>2660.4</ele>
        <time>2018-08-10T17:12:06Z</time>
      </trkpt>
      <trkpt lat="4.6483500" lon="-74.3029870">
        <ele>2660.7</ele>
        <time>2018-08-10T17:12:07Z</time>
      </trkpt>
      <trkpt lat="4.6483180" lon="-74.3029850">
        <ele>2661.1</ele>
        <time>2018-08-10T17:12:08Z</time>
      </trkpt>
      <trkpt lat="4.6482700" lon="-74.3029970">
        <ele>2661.6</ele>
        <time>2018-08-10T17:12:10Z</time>
      </trkpt>
      <trkpt lat="4.6482200" lon="-74.3030050">
        <ele>2662.1</ele>
        <time>2018-08-10T17:12:12Z</time>
      </trkpt>
      <trkpt lat="4.6481700" lon="-74.3030030">
        <ele>2662.5</ele>
        <time>2018-08-10T17:12:14Z</time>
      </trkpt>
      <trkpt lat="4.6481170" lon="-74.3030020">
        <ele>2662.8</ele>
        <time>2018-08-10T17:12:16Z</time>
      </trkpt>
      <trkpt lat="4.6480580" lon="-74.3030080">
        <ele>2663.1</ele>
        <time>2018-08-10T17:12:18Z</time>
      </trkpt>
      <trkpt lat="4.6480300" lon="-74.3030150">
        <ele>2663.2</ele>
        <time>2018-08-10T17:12:19Z</time>
      </trkpt>
      <trkpt lat="4.6480030" lon="-74.3030220">
        <ele>2663.3</ele>
        <time>2018-08-10T17:12:20Z</time>
      </trkpt>
      <trkpt lat="4.6479730" lon="-74.3030300">
        <ele>2663.5</ele>
        <time>2018-08-10T17:12:21Z</time>
      </trkpt>
      <trkpt lat="4.6479450" lon="-74.3030300">
        <ele>2663.7</ele>
        <time>2018-08-10T17:12:22Z</time>
      </trkpt>
      <trkpt lat="4.6478920" lon="-74.3030370">
        <ele>2664.0</ele>
        <time>2018-08-10T17:12:24Z</time>
      </trkpt>
      <trkpt lat="4.6478370" lon="-74.3030520">
        <ele>2664.0</ele>
        <time>2018-08-10T17:12:26Z</time>
      </trkpt>
      <trkpt lat="4.6477880" lon="-74.3030620">
        <ele>2664.0</ele>
        <time>2018-08-10T17:12:28Z</time>
      </trkpt>
      <trkpt lat="4.6477400" lon="-74.3030700">
        <ele>2664.0</ele>
        <time>2018-08-10T17:12:30Z</time>
      </trkpt>
      <trkpt lat="4.6477080" lon="-74.3030700">
        <ele>2664.0</ele>
        <time>2018-08-10T17:12:32Z</time>
      </trkpt>
      <trkpt lat="4.6476720" lon="-74.3030750">
        <ele>2664.0</ele>
        <time>2018-08-10T17:12:42Z</time>
      </trkpt>
      <trkpt lat="4.6476420" lon="-74.3030730">
        <ele>2664.0</ele>
        <time>2018-08-10T17:12:44Z</time>
      </trkpt>
      <trkpt lat="4.6475930" lon="-74.3030730">
        <ele>2664.0</ele>
        <time>2018-08-10T17:12:46Z</time>
      </trkpt>
      <trkpt lat="4.6475370" lon="-74.3030700">
        <ele>2664.0</ele>
        <time>2018-08-10T17:12:48Z</time>
      </trkpt>
      <trkpt lat="4.6474880" lon="-74.3030720">
        <ele>2663.5</ele>
        <time>2018-08-10T17:12:50Z</time>
      </trkpt>
      <trkpt lat="4.6474420" lon="-74.3030900">
        <ele>2662.9</ele>
        <time>2018-08-10T17:12:52Z</time>
      </trkpt>
      <trkpt lat="4.6473880" lon="-74.3031000">
        <ele>2662.1</ele>
        <time>2018-08-10T17:12:54Z</time>
      </trkpt>
      <trkpt lat="4.6473330" lon="-74.3031020">
        <ele>2661.3</ele>
        <time>2018-08-10T17:12:56Z</time>
      </trkpt>
      <trkpt lat="4.6472770" lon="-74.3031070">
        <ele>2660.6</ele>
        <time>2018-08-10T17:12:58Z</time>
      </trkpt>
      <trkpt lat="4.6472450" lon="-74.3031120">
        <ele>2660.2</ele>
        <time>2018-08-10T17:12:59Z</time>
      </trkpt>
      <trkpt lat="4.6472120" lon="-74.3031150">
        <ele>2659.8</ele>
        <time>2018-08-10T17:13:00Z</time>
      </trkpt>
      <trkpt lat="4.6471580" lon="-74.3031170">
        <ele>2658.9</ele>
        <time>2018-08-10T17:13:02Z</time>
      </trkpt>
      <trkpt lat="4.6471120" lon="-74.3031170">
        <ele>2658.0</ele>
        <time>2018-08-10T17:13:04Z</time>
      </trkpt>
      <trkpt lat="4.6470650" lon="-74.3031170">
        <ele>2657.4</ele>
        <time>2018-08-10T17:13:06Z</time>
      </trkpt>
      <trkpt lat="4.6470150" lon="-74.3031230">
        <ele>2656.8</ele>
        <time>2018-08-10T17:13:08Z</time>
      </trkpt>
      <trkpt lat="4.6469580" lon="-74.3031300">
        <ele>2656.9</ele>
        <time>2018-08-10T17:13:10Z</time>
      </trkpt>
      <trkpt lat="4.6469280" lon="-74.3031350">
        <ele>2657.0</ele>
        <time>2018-08-10T17:13:11Z</time>
      </trkpt>
      <trkpt lat="4.6468950" lon="-74.3031400">
        <ele>2657.1</ele>
        <time>2018-08-10T17:13:12Z</time>
      </trkpt>
      <trkpt lat="4.6468480" lon="-74.3031470">
        <ele>2657.3</ele>
        <time>2018-08-10T17:13:13Z</time>
      </trkpt>
      <trkpt lat="4.6468100" lon="-74.3031500">
        <ele>2657.4</ele>
        <time>2018-08-10T17:13:14Z</time>
      </trkpt>
      <trkpt lat="4.6467770" lon="-74.3031470">
        <ele>2657.4</ele>
        <time>2018-08-10T17:13:15Z</time>
      </trkpt>
      <trkpt lat="4.6467430" lon="-74.3031570">
        <ele>2657.4</ele>
        <time>2018-08-10T17:13:16Z</time>
      </trkpt>
      <trkpt lat="4.6467100" lon="-74.3031600">
        <ele>2657.5</ele>
        <time>2018-08-10T17:13:17Z</time>
      </trkpt>
      <trkpt lat="4.6466800" lon="-74.3031680">
        <ele>2657.6</ele>
        <time>2018-08-10T17:13:18Z</time>
      </trkpt>
      <trkpt lat="4.6466380" lon="-74.3031820">
        <ele>2657.8</ele>
        <time>2018-08-10T17:13:19Z</time>
      </trkpt>
      <trkpt lat="4.6466000" lon="-74.3031880">
        <ele>2657.9</ele>
        <time>2018-08-10T17:13:20Z</time>
      </trkpt>
      <trkpt lat="4.6465620" lon="-74.3031900">
        <ele>2658.1</ele>
        <time>2018-08-10T17:13:21Z</time>
      </trkpt>
      <trkpt lat="4.6465230" lon="-74.3031880">
        <ele>2658.3</ele>
        <time>2018-08-10T17:13:22Z</time>
      </trkpt>
      <trkpt lat="4.6464900" lon="-74.3031880">
        <ele>2658.5</ele>
        <time>2018-08-10T17:13:23Z</time>
      </trkpt>
      <trkpt lat="4.6464520" lon="-74.3031920">
        <ele>2658.5</ele>
        <time>2018-08-10T17:13:24Z</time>
      </trkpt>
      <trkpt lat="4.6464030" lon="-74.3031930">
        <ele>2658.5</ele>
        <time>2018-08-10T17:13:25Z</time>
      </trkpt>
      <trkpt lat="4.6463630" lon="-74.3031930">
        <ele>2658.3</ele>
        <time>2018-08-10T17:13:26Z</time>
      </trkpt>
      <trkpt lat="4.6463220" lon="-74.3031950">
        <ele>2658.1</ele>
        <time>2018-08-10T17:13:27Z</time>
      </trkpt>
      <trkpt lat="4.6462820" lon="-74.3031970">
        <ele>2657.7</ele>
        <time>2018-08-10T17:13:28Z</time>
      </trkpt>
      <trkpt lat="4.6462430" lon="-74.3032000">
        <ele>2657.4</ele>
        <time>2018-08-10T17:13:29Z</time>
      </trkpt>
      <trkpt lat="4.6462020" lon="-74.3032050">
        <ele>2657.0</ele>
        <time>2018-08-10T17:13:30Z</time>
      </trkpt>
      <trkpt lat="4.6461620" lon="-74.3032070">
        <ele>2656.6</ele>
        <time>2018-08-10T17:13:31Z</time>
      </trkpt>
      <trkpt lat="4.6461150" lon="-74.3032100">
        <ele>2656.2</ele>
        <time>2018-08-10T17:13:32Z</time>
      </trkpt>
      <trkpt lat="4.6460780" lon="-74.3032180">
        <ele>2655.9</ele>
        <time>2018-08-10T17:13:33Z</time>
      </trkpt>
      <trkpt lat="4.6460400" lon="-74.3032230">
        <ele>2655.7</ele>
        <time>2018-08-10T17:13:34Z</time>
      </trkpt>
      <trkpt lat="4.6460000" lon="-74.3032280">
        <ele>2655.6</ele>
        <time>2018-08-10T17:13:35Z</time>
      </trkpt>
      <trkpt lat="4.6459620" lon="-74.3032300">
        <ele>2655.5</ele>
        <time>2018-08-10T17:13:36Z</time>
      </trkpt>
      <trkpt lat="4.6459220" lon="-74.3032300">
        <ele>2655.6</ele>
        <time>2018-08-10T17:13:37Z</time>
      </trkpt>
      <trkpt lat="4.6458820" lon="-74.3032300">
        <ele>2655.6</ele>
        <time>2018-08-10T17:13:38Z</time>
      </trkpt>
      <trkpt lat="4.6458420" lon="-74.3032300">
        <ele>2655.5</ele>
        <time>2018-08-10T17:13:39Z</time>
      </trkpt>
      <trkpt lat="4.6458030" lon="-74.3032300">
        <ele>2655.4</ele>
        <time>2018-08-10T17:13:40Z</time>
      </trkpt>
      <trkpt lat="4.6457670" lon="-74.3032280">
        <ele>2655.2</ele>
        <time>2018-08-10T17:13:41Z</time>
      </trkpt>
      <trkpt lat="4.6457320" lon="-74.3032280">
        <ele>2654.9</ele>
        <time>2018-08-10T17:13:42Z</time>
      </trkpt>
      <trkpt lat="4.6456950" lon="-74.3032270">
        <ele>2654.6</ele>
        <time>2018-08-10T17:13:43Z</time>
      </trkpt>
      <trkpt lat="4.6456420" lon="-74.3032200">
        <ele>2654.3</ele>
        <time>2018-08-10T17:13:44Z</time>
      </trkpt>
      <trkpt lat="4.6455970" lon="-74.3032080">
        <ele>2654.2</ele>
        <time>2018-08-10T17:13:45Z</time>
      </trkpt>
      <trkpt lat="4.6455620" lon="-74.3032030">
        <ele>2654.2</ele>
        <time>2018-08-10T17:13:46Z</time>
      </trkpt>
      <trkpt lat="4.6455300" lon="-74.3032020">
        <ele>2654.2</ele>
        <time>2018-08-10T17:13:47Z</time>
      </trkpt>
      <trkpt lat="4.6454980" lon="-74.3031980">
        <ele>2654.2</ele>
        <time>2018-08-10T17:13:48Z</time>
      </trkpt>
      <trkpt lat="4.6454600" lon="-74.3032000">
        <ele>2654.1</ele>
        <time>2018-08-10T17:13:49Z</time>
      </trkpt>
      <trkpt lat="4.6454230" lon="-74.3032080">
        <ele>2653.8</ele>
        <time>2018-08-10T17:13:50Z</time>
      </trkpt>
      <trkpt lat="4.6453850" lon="-74.3032130">
        <ele>2653.5</ele>
        <time>2018-08-10T17:13:51Z</time>
      </trkpt>
      <trkpt lat="4.6453550" lon="-74.3032120">
        <ele>2653.2</ele>
        <time>2018-08-10T17:13:52Z</time>
      </trkpt>
      <trkpt lat="4.6453000" lon="-74.3032050">
        <ele>2652.8</ele>
        <time>2018-08-10T17:13:54Z</time>
      </trkpt>
      <trkpt lat="4.6452680" lon="-74.3032020">
        <ele>2652.7</ele>
        <time>2018-08-10T17:13:55Z</time>
      </trkpt>
      <trkpt lat="4.6452400" lon="-74.3031930">
        <ele>2652.7</ele>
        <time>2018-08-10T17:13:56Z</time>
      </trkpt>
      <trkpt lat="4.6452120" lon="-74.3031830">
        <ele>2652.6</ele>
        <time>2018-08-10T17:13:57Z</time>
      </trkpt>
      <trkpt lat="4.6451830" lon="-74.3031750">
        <ele>2652.8</ele>
        <time>2018-08-10T17:13:58Z</time>
      </trkpt>
      <trkpt lat="4.6451570" lon="-74.3031680">
        <ele>2653.0</ele>
        <time>2018-08-10T17:13:59Z</time>
      </trkpt>
      <trkpt lat="4.6451280" lon="-74.3031620">
        <ele>2653.2</ele>
        <time>2018-08-10T17:14:00Z</time>
      </trkpt>
      <trkpt lat="4.6450970" lon="-74.3031520">
        <ele>2653.3</ele>
        <time>2018-08-10T17:14:01Z</time>
      </trkpt>
      <trkpt lat="4.6450700" lon="-74.3031400">
        <ele>2653.4</ele>
        <time>2018-08-10T17:14:02Z</time>
      </trkpt>
      <trkpt lat="4.6450400" lon="-74.3031250">
        <ele>2653.4</ele>
        <time>2018-08-10T17:14:03Z</time>
      </trkpt>
      <trkpt lat="4.6450170" lon="-74.3031080">
        <ele>2653.3</ele>
        <time>2018-08-10T17:14:04Z</time>
      </trkpt>
      <trkpt lat="4.6449920" lon="-74.3030900">
        <ele>2653.1</ele>
        <time>2018-08-10T17:14:05Z</time>
      </trkpt>
      <trkpt lat="4.6449670" lon="-74.3030750">
        <ele>2652.8</ele>
        <time>2018-08-10T17:14:06Z</time>
      </trkpt>
      <trkpt lat="4.6449400" lon="-74.3030580">
        <ele>2652.3</ele>
        <time>2018-08-10T17:14:07Z</time>
      </trkpt>
      <trkpt lat="4.6449170" lon="-74.3030420">
        <ele>2651.9</ele>
        <time>2018-08-10T17:14:08Z</time>
      </trkpt>
      <trkpt lat="4.6448900" lon="-74.3030300">
        <ele>2651.5</ele>
        <time>2018-08-10T17:14:09Z</time>
      </trkpt>
      <trkpt lat="4.6448630" lon="-74.3030170">
        <ele>2651.1</ele>
        <time>2018-08-10T17:14:10Z</time>
      </trkpt>
      <trkpt lat="4.6448330" lon="-74.3030070">
        <ele>2650.7</ele>
        <time>2018-08-10T17:14:11Z</time>
      </trkpt>
      <trkpt lat="4.6448030" lon="-74.3029920">
        <ele>2650.2</ele>
        <time>2018-08-10T17:14:12Z</time>
      </trkpt>
      <trkpt lat="4.6447720" lon="-74.3029730">
        <ele>2649.7</ele>
        <time>2018-08-10T17:14:13Z</time>
      </trkpt>
      <trkpt lat="4.6447380" lon="-74.3029600">
        <ele>2649.6</ele>
        <time>2018-08-10T17:14:14Z</time>
      </trkpt>
      <trkpt lat="4.6446950" lon="-74.3029400">
        <ele>2649.5</ele>
        <time>2018-08-10T17:14:15Z</time>
      </trkpt>
      <trkpt lat="4.6446570" lon="-74.3029230">
        <ele>2649.7</ele>
        <time>2018-08-10T17:14:16Z</time>
      </trkpt>
      <trkpt lat="4.6446180" lon="-74.3029130">
        <ele>2650.0</ele>
        <time>2018-08-10T17:14:17Z</time>
      </trkpt>
      <trkpt lat="4.6445820" lon="-74.3029050">
        <ele>2650.1</ele>
        <time>2018-08-10T17:14:18Z</time>
      </trkpt>
      <trkpt lat="4.6445520" lon="-74.3028980">
        <ele>2650.1</ele>
        <time>2018-08-10T17:14:19Z</time>
      </trkpt>
      <trkpt lat="4.6445150" lon="-74.3028930">
        <ele>2650.3</ele>
        <time>2018-08-10T17:14:20Z</time>
      </trkpt>
      <trkpt lat="4.6444770" lon="-74.3028950">
        <ele>2650.5</ele>
        <time>2018-08-10T17:14:21Z</time>
      </trkpt>
      <trkpt lat="4.6444400" lon="-74.3028970">
        <ele>2650.8</ele>
        <time>2018-08-10T17:14:22Z</time>
      </trkpt>
      <trkpt lat="4.6444020" lon="-74.3028980">
        <ele>2651.1</ele>
        <time>2018-08-10T17:14:23Z</time>
      </trkpt>
      <trkpt lat="4.6443700" lon="-74.3029000">
        <ele>2651.2</ele>
        <time>2018-08-10T17:14:24Z</time>
      </trkpt>
      <trkpt lat="4.6443330" lon="-74.3029130">
        <ele>2651.3</ele>
        <time>2018-08-10T17:14:25Z</time>
      </trkpt>
      <trkpt lat="4.6442950" lon="-74.3029150">
        <ele>2652.1</ele>
        <time>2018-08-10T17:14:26Z</time>
      </trkpt>
      <trkpt lat="4.6442620" lon="-74.3029150">
        <ele>2653.0</ele>
        <time>2018-08-10T17:14:27Z</time>
      </trkpt>
      <trkpt lat="4.6442280" lon="-74.3029170">
        <ele>2653.6</ele>
        <time>2018-08-10T17:14:28Z</time>
      </trkpt>
      <trkpt lat="4.6441980" lon="-74.3029130">
        <ele>2654.0</ele>
        <time>2018-08-10T17:14:29Z</time>
      </trkpt>
      <trkpt lat="4.6441370" lon="-74.3029130">
        <ele>2654.2</ele>
        <time>2018-08-10T17:14:31Z</time>
      </trkpt>
      <trkpt lat="4.6441070" lon="-74.3029180">
        <ele>2653.9</ele>
        <time>2018-08-10T17:14:32Z</time>
      </trkpt>
      <trkpt lat="4.6440770" lon="-74.3029270">
        <ele>2653.7</ele>
        <time>2018-08-10T17:14:33Z</time>
      </trkpt>
      <trkpt lat="4.6440470" lon="-74.3029300">
        <ele>2653.8</ele>
        <time>2018-08-10T17:14:34Z</time>
      </trkpt>
      <trkpt lat="4.6440170" lon="-74.3029300">
        <ele>2653.9</ele>
        <time>2018-08-10T17:14:35Z</time>
      </trkpt>
      <trkpt lat="4.6439600" lon="-74.3029300">
        <ele>2654.2</ele>
        <time>2018-08-10T17:14:37Z</time>
      </trkpt>
      <trkpt lat="4.6439300" lon="-74.3029330">
        <ele>2654.2</ele>
        <time>2018-08-10T17:14:38Z</time>
      </trkpt>
      <trkpt lat="4.6438980" lon="-74.3029370">
        <ele>2654.3</ele>
        <time>2018-08-10T17:14:39Z</time>
      </trkpt>
      <trkpt lat="4.6438680" lon="-74.3029370">
        <ele>2654.3</ele>
        <time>2018-08-10T17:14:40Z</time>
      </trkpt>
      <trkpt lat="4.6438380" lon="-74.3029450">
        <ele>2654.3</ele>
        <time>2018-08-10T17:14:41Z</time>
      </trkpt>
      <trkpt lat="4.6438100" lon="-74.3029530">
        <ele>2654.2</ele>
        <time>2018-08-10T17:14:42Z</time>
      </trkpt>
      <trkpt lat="4.6437820" lon="-74.3029630">
        <ele>2654.1</ele>
        <time>2018-08-10T17:14:43Z</time>
      </trkpt>
      <trkpt lat="4.6437550" lon="-74.3029770">
        <ele>2654.0</ele>
        <time>2018-08-10T17:14:44Z</time>
      </trkpt>
      <trkpt lat="4.6437230" lon="-74.3029880">
        <ele>2653.4</ele>
        <time>2018-08-10T17:14:45Z</time>
      </trkpt>
      <trkpt lat="4.6436800" lon="-74.3030020">
        <ele>2652.8</ele>
        <time>2018-08-10T17:14:46Z</time>
      </trkpt>
      <trkpt lat="4.6436550" lon="-74.3030150">
        <ele>2652.8</ele>
        <time>2018-08-10T17:14:47Z</time>
      </trkpt>
      <trkpt lat="4.6436320" lon="-74.3030350">
        <ele>2652.6</ele>
        <time>2018-08-10T17:14:48Z</time>
      </trkpt>
      <trkpt lat="4.6436030" lon="-74.3030530">
        <ele>2652.2</ele>
        <time>2018-08-10T17:14:49Z</time>
      </trkpt>
      <trkpt lat="4.6435820" lon="-74.3030750">
        <ele>2651.9</ele>
        <time>2018-08-10T17:14:50Z</time>
      </trkpt>
      <trkpt lat="4.6435520" lon="-74.3030900">
        <ele>2651.7</ele>
        <time>2018-08-10T17:14:51Z</time>
      </trkpt>
      <trkpt lat="4.6435250" lon="-74.3031100">
        <ele>2651.4</ele>
        <time>2018-08-10T17:14:52Z</time>
      </trkpt>
      <trkpt lat="4.6434980" lon="-74.3031230">
        <ele>2651.2</ele>
        <time>2018-08-10T17:14:53Z</time>
      </trkpt>
      <trkpt lat="4.6434700" lon="-74.3031380">
        <ele>2650.9</ele>
        <time>2018-08-10T17:14:54Z</time>
      </trkpt>
      <trkpt lat="4.6434450" lon="-74.3031500">
        <ele>2650.6</ele>
        <time>2018-08-10T17:14:55Z</time>
      </trkpt>
      <trkpt lat="4.6434170" lon="-74.3031670">
        <ele>2650.2</ele>
        <time>2018-08-10T17:14:56Z</time>
      </trkpt>
      <trkpt lat="4.6433780" lon="-74.3031730">
        <ele>2649.6</ele>
        <time>2018-08-10T17:14:57Z</time>
      </trkpt>
      <trkpt lat="4.6433470" lon="-74.3031780">
        <ele>2649.1</ele>
        <time>2018-08-10T17:14:58Z</time>
      </trkpt>
      <trkpt lat="4.6433180" lon="-74.3031900">
        <ele>2648.6</ele>
        <time>2018-08-10T17:14:59Z</time>
      </trkpt>
      <trkpt lat="4.6432850" lon="-74.3031900">
        <ele>2648.0</ele>
        <time>2018-08-10T17:15:00Z</time>
      </trkpt>
      <trkpt lat="4.6432520" lon="-74.3031880">
        <ele>2647.6</ele>
        <time>2018-08-10T17:15:01Z</time>
      </trkpt>
      <trkpt lat="4.6432150" lon="-74.3031880">
        <ele>2647.4</ele>
        <time>2018-08-10T17:15:02Z</time>
      </trkpt>
      <trkpt lat="4.6431800" lon="-74.3031950">
        <ele>2647.0</ele>
        <time>2018-08-10T17:15:03Z</time>
      </trkpt>
      <trkpt lat="4.6431520" lon="-74.3031920">
        <ele>2646.6</ele>
        <time>2018-08-10T17:15:04Z</time>
      </trkpt>
      <trkpt lat="4.6431120" lon="-74.3031880">
        <ele>2646.1</ele>
        <time>2018-08-10T17:15:05Z</time>
      </trkpt>
      <trkpt lat="4.6430730" lon="-74.3031830">
        <ele>2646.2</ele>
        <time>2018-08-10T17:15:06Z</time>
      </trkpt>
      <trkpt lat="4.6430330" lon="-74.3031630">
        <ele>2646.1</ele>
        <time>2018-08-10T17:15:07Z</time>
      </trkpt>
      <trkpt lat="4.6429930" lon="-74.3031500">
        <ele>2645.8</ele>
        <time>2018-08-10T17:15:08Z</time>
      </trkpt>
      <trkpt lat="4.6429420" lon="-74.3031420">
        <ele>2645.5</ele>
        <time>2018-08-10T17:15:09Z</time>
      </trkpt>
      <trkpt lat="4.6428880" lon="-74.3031500">
        <ele>2645.2</ele>
        <time>2018-08-10T17:15:10Z</time>
      </trkpt>
      <trkpt lat="4.6428430" lon="-74.3031450">
        <ele>2645.0</ele>
        <time>2018-08-10T17:15:11Z</time>
      </trkpt>
      <trkpt lat="4.6427980" lon="-74.3031470">
        <ele>2644.9</ele>
        <time>2018-08-10T17:15:12Z</time>
      </trkpt>
      <trkpt lat="4.6427570" lon="-74.3031500">
        <ele>2645.0</ele>
        <time>2018-08-10T17:15:13Z</time>
      </trkpt>
      <trkpt lat="4.6427130" lon="-74.3031400">
        <ele>2644.9</ele>
        <time>2018-08-10T17:15:14Z</time>
      </trkpt>
      <trkpt lat="4.6426700" lon="-74.3031200">
        <ele>2644.4</ele>
        <time>2018-08-10T17:15:15Z</time>
      </trkpt>
      <trkpt lat="4.6426200" lon="-74.3031080">
        <ele>2644.1</ele>
        <time>2018-08-10T17:15:16Z</time>
      </trkpt>
      <trkpt lat="4.6425720" lon="-74.3031070">
        <ele>2643.7</ele>
        <time>2018-08-10T17:15:17Z</time>
      </trkpt>
      <trkpt lat="4.6425050" lon="-74.3030980">
        <ele>2642.5</ele>
        <time>2018-08-10T17:15:18Z</time>
      </trkpt>
      <trkpt lat="4.6424550" lon="-74.3030830">
        <ele>2642.1</ele>
        <time>2018-08-10T17:15:19Z</time>
      </trkpt>
      <trkpt lat="4.6424200" lon="-74.3030680">
        <ele>2641.9</ele>
        <time>2018-08-10T17:15:20Z</time>
      </trkpt>
      <trkpt lat="4.6423780" lon="-74.3030520">
        <ele>2641.7</ele>
        <time>2018-08-10T17:15:21Z</time>
      </trkpt>
      <trkpt lat="4.6423420" lon="-74.3030430">
        <ele>2641.3</ele>
        <time>2018-08-10T17:15:22Z</time>
      </trkpt>
      <trkpt lat="4.6423000" lon="-74.3030320">
        <ele>2640.7</ele>
        <time>2018-08-10T17:15:23Z</time>
      </trkpt>
      <trkpt lat="4.6422720" lon="-74.3030220">
        <ele>2640.5</ele>
        <time>2018-08-10T17:15:24Z</time>
      </trkpt>
      <trkpt lat="4.6422350" lon="-74.3030080">
        <ele>2640.5</ele>
        <time>2018-08-10T17:15:25Z</time>
      </trkpt>
      <trkpt lat="4.6422070" lon="-74.3029920">
        <ele>2640.5</ele>
        <time>2018-08-10T17:15:26Z</time>
      </trkpt>
      <trkpt lat="4.6421800" lon="-74.3029770">
        <ele>2640.6</ele>
        <time>2018-08-10T17:15:27Z</time>
      </trkpt>
      <trkpt lat="4.6421470" lon="-74.3029600">
        <ele>2640.7</ele>
        <time>2018-08-10T17:15:28Z</time>
      </trkpt>
      <trkpt lat="4.6421150" lon="-74.3029370">
        <ele>2640.7</ele>
        <time>2018-08-10T17:15:29Z</time>
      </trkpt>
      <trkpt lat="4.6420880" lon="-74.3029170">
        <ele>2640.6</ele>
        <time>2018-08-10T17:15:30Z</time>
      </trkpt>
      <trkpt lat="4.6420570" lon="-74.3028980">
        <ele>2640.7</ele>
        <time>2018-08-10T17:15:31Z</time>
      </trkpt>
      <trkpt lat="4.6420280" lon="-74.3028800">
        <ele>2641.0</ele>
        <time>2018-08-10T17:15:32Z</time>
      </trkpt>
      <trkpt lat="4.6420020" lon="-74.3028630">
        <ele>2641.2</ele>
        <time>2018-08-10T17:15:33Z</time>
      </trkpt>
      <trkpt lat="4.6419770" lon="-74.3028450">
        <ele>2641.5</ele>
        <time>2018-08-10T17:15:34Z</time>
      </trkpt>
      <trkpt lat="4.6419520" lon="-74.3028300">
        <ele>2641.9</ele>
        <time>2018-08-10T17:15:35Z</time>
      </trkpt>
      <trkpt lat="4.6419280" lon="-74.3028150">
        <ele>2642.2</ele>
        <time>2018-08-10T17:15:36Z</time>
      </trkpt>
      <trkpt lat="4.6419050" lon="-74.3027970">
        <ele>2642.5</ele>
        <time>2018-08-10T17:15:37Z</time>
      </trkpt>
      <trkpt lat="4.6418670" lon="-74.3027670">
        <ele>2643.0</ele>
        <time>2018-08-10T17:15:39Z</time>
      </trkpt>
      <trkpt lat="4.6418230" lon="-74.3027370">
        <ele>2643.7</ele>
        <time>2018-08-10T17:15:41Z</time>
      </trkpt>
      <trkpt lat="4.6417850" lon="-74.3027030">
        <ele>2644.3</ele>
        <time>2018-08-10T17:15:43Z</time>
      </trkpt>
      <trkpt lat="4.6417630" lon="-74.3026870">
        <ele>2644.6</ele>
        <time>2018-08-10T17:15:44Z</time>
      </trkpt>
      <trkpt lat="4.6417420" lon="-74.3026670">
        <ele>2644.9</ele>
        <time>2018-08-10T17:15:45Z</time>
      </trkpt>
      <trkpt lat="4.6417200" lon="-74.3026500">
        <ele>2645.3</ele>
        <time>2018-08-10T17:15:46Z</time>
      </trkpt>
      <trkpt lat="4.6416670" lon="-74.3026350">
        <ele>2646.1</ele>
        <time>2018-08-10T17:15:48Z</time>
      </trkpt>
      <trkpt lat="4.6416080" lon="-74.3026280">
        <ele>2646.0</ele>
        <time>2018-08-10T17:15:50Z</time>
      </trkpt>
      <trkpt lat="4.6415750" lon="-74.3026220">
        <ele>2646.0</ele>
        <time>2018-08-10T17:15:51Z</time>
      </trkpt>
      <trkpt lat="4.6415430" lon="-74.3026180">
        <ele>2646.0</ele>
        <time>2018-08-10T17:15:52Z</time>
      </trkpt>
      <trkpt lat="4.6415130" lon="-74.3026120">
        <ele>2646.1</ele>
        <time>2018-08-10T17:15:53Z</time>
      </trkpt>
      <trkpt lat="4.6414830" lon="-74.3026000">
        <ele>2646.2</ele>
        <time>2018-08-10T17:15:54Z</time>
      </trkpt>
      <trkpt lat="4.6414520" lon="-74.3025830">
        <ele>2646.4</ele>
        <time>2018-08-10T17:15:55Z</time>
      </trkpt>
      <trkpt lat="4.6414220" lon="-74.3025700">
        <ele>2646.6</ele>
        <time>2018-08-10T17:15:56Z</time>
      </trkpt>
      <trkpt lat="4.6413920" lon="-74.3025550">
        <ele>2646.8</ele>
        <time>2018-08-10T17:15:57Z</time>
      </trkpt>
      <trkpt lat="4.6413580" lon="-74.3025420">
        <ele>2647.0</ele>
        <time>2018-08-10T17:15:58Z</time>
      </trkpt>
      <trkpt lat="4.6413280" lon="-74.3025300">
        <ele>2647.2</ele>
        <time>2018-08-10T17:15:59Z</time>
      </trkpt>
      <trkpt lat="4.6412970" lon="-74.3025200">
        <ele>2647.4</ele>
        <time>2018-08-10T17:16:00Z</time>
      </trkpt>
      <trkpt lat="4.6412670" lon="-74.3025120">
        <ele>2647.6</ele>
        <time>2018-08-10T17:16:01Z</time>
      </trkpt>
      <trkpt lat="4.6412370" lon="-74.3024980">
        <ele>2647.7</ele>
        <time>2018-08-10T17:16:02Z</time>
      </trkpt>
      <trkpt lat="4.6412080" lon="-74.3024830">
        <ele>2647.9</ele>
        <time>2018-08-10T17:16:03Z</time>
      </trkpt>
      <trkpt lat="4.6411770" lon="-74.3024720">
        <ele>2648.1</ele>
        <time>2018-08-10T17:16:04Z</time>
      </trkpt>
      <trkpt lat="4.6411450" lon="-74.3024630">
        <ele>2648.2</ele>
        <time>2018-08-10T17:16:05Z</time>
      </trkpt>
      <trkpt lat="4.6411120" lon="-74.3024520">
        <ele>2648.4</ele>
        <time>2018-08-10T17:16:06Z</time>
      </trkpt>
      <trkpt lat="4.6410800" lon="-74.3024380">
        <ele>2648.6</ele>
        <time>2018-08-10T17:16:07Z</time>
      </trkpt>
      <trkpt lat="4.6410430" lon="-74.3024270">
        <ele>2648.8</ele>
        <time>2018-08-10T17:16:08Z</time>
      </trkpt>
      <trkpt lat="4.6410080" lon="-74.3024170">
        <ele>2649.0</ele>
        <time>2018-08-10T17:16:09Z</time>
      </trkpt>
      <trkpt lat="4.6409750" lon="-74.3024030">
        <ele>2649.1</ele>
        <time>2018-08-10T17:16:10Z</time>
      </trkpt>
      <trkpt lat="4.6409430" lon="-74.3023900">
        <ele>2649.2</ele>
        <time>2018-08-10T17:16:11Z</time>
      </trkpt>
      <trkpt lat="4.6409130" lon="-74.3023800">
        <ele>2649.3</ele>
        <time>2018-08-10T17:16:12Z</time>
      </trkpt>
      <trkpt lat="4.6408830" lon="-74.3023700">
        <ele>2649.5</ele>
        <time>2018-08-10T17:16:13Z</time>
      </trkpt>
      <trkpt lat="4.6408530" lon="-74.3023580">
        <ele>2649.6</ele>
        <time>2018-08-10T17:16:14Z</time>
      </trkpt>
      <trkpt lat="4.6408200" lon="-74.3023500">
        <ele>2649.7</ele>
        <time>2018-08-10T17:16:15Z</time>
      </trkpt>
      <trkpt lat="4.6407830" lon="-74.3023400">
        <ele>2649.9</ele>
        <time>2018-08-10T17:16:16Z</time>
      </trkpt>
      <trkpt lat="4.6407480" lon="-74.3023330">
        <ele>2650.0</ele>
        <time>2018-08-10T17:16:17Z</time>
      </trkpt>
      <trkpt lat="4.6407150" lon="-74.3023230">
        <ele>2650.3</ele>
        <time>2018-08-10T17:16:18Z</time>
      </trkpt>
      <trkpt lat="4.6406780" lon="-74.3023100">
        <ele>2650.5</ele>
        <time>2018-08-10T17:16:19Z</time>
      </trkpt>
      <trkpt lat="4.6406430" lon="-74.3023000">
        <ele>2650.7</ele>
        <time>2018-08-10T17:16:20Z</time>
      </trkpt>
      <trkpt lat="4.6406100" lon="-74.3022880">
        <ele>2650.9</ele>
        <time>2018-08-10T17:16:21Z</time>
      </trkpt>
      <trkpt lat="4.6405770" lon="-74.3022770">
        <ele>2651.2</ele>
        <time>2018-08-10T17:16:22Z</time>
      </trkpt>
      <trkpt lat="4.6405470" lon="-74.3022620">
        <ele>2651.4</ele>
        <time>2018-08-10T17:16:23Z</time>
      </trkpt>
      <trkpt lat="4.6405170" lon="-74.3022530">
        <ele>2651.6</ele>
        <time>2018-08-10T17:16:24Z</time>
      </trkpt>
      <trkpt lat="4.6404870" lon="-74.3022420">
        <ele>2651.8</ele>
        <time>2018-08-10T17:16:25Z</time>
      </trkpt>
      <trkpt lat="4.6404550" lon="-74.3022280">
        <ele>2652.0</ele>
        <time>2018-08-10T17:16:26Z</time>
      </trkpt>
      <trkpt lat="4.6404220" lon="-74.3022150">
        <ele>2652.3</ele>
        <time>2018-08-10T17:16:27Z</time>
      </trkpt>
      <trkpt lat="4.6403900" lon="-74.3022030">
        <ele>2652.5</ele>
        <time>2018-08-10T17:16:28Z</time>
      </trkpt>
      <trkpt lat="4.6403570" lon="-74.3021930">
        <ele>2652.8</ele>
        <time>2018-08-10T17:16:29Z</time>
      </trkpt>
      <trkpt lat="4.6403220" lon="-74.3021820">
        <ele>2653.0</ele>
        <time>2018-08-10T17:16:30Z</time>
      </trkpt>
      <trkpt lat="4.6402930" lon="-74.3021680">
        <ele>2653.2</ele>
        <time>2018-08-10T17:16:31Z</time>
      </trkpt>
      <trkpt lat="4.6402650" lon="-74.3021520">
        <ele>2653.5</ele>
        <time>2018-08-10T17:16:32Z</time>
      </trkpt>
      <trkpt lat="4.6402370" lon="-74.3021380">
        <ele>2653.7</ele>
        <time>2018-08-10T17:16:33Z</time>
      </trkpt>
      <trkpt lat="4.6402080" lon="-74.3021270">
        <ele>2653.9</ele>
        <time>2018-08-10T17:16:34Z</time>
      </trkpt>
      <trkpt lat="4.6401800" lon="-74.3021170">
        <ele>2654.1</ele>
        <time>2018-08-10T17:16:35Z</time>
      </trkpt>
      <trkpt lat="4.6401520" lon="-74.3021050">
        <ele>2654.3</ele>
        <time>2018-08-10T17:16:36Z</time>
      </trkpt>
      <trkpt lat="4.6401270" lon="-74.3020920">
        <ele>2654.5</ele>
        <time>2018-08-10T17:16:37Z</time>
      </trkpt>
      <trkpt lat="4.6400980" lon="-74.3020770">
        <ele>2654.7</ele>
        <time>2018-08-10T17:16:38Z</time>
      </trkpt>
      <trkpt lat="4.6400730" lon="-74.3020580">
        <ele>2654.9</ele>
        <time>2018-08-10T17:16:39Z</time>
      </trkpt>
      <trkpt lat="4.6400470" lon="-74.3020430">
        <ele>2655.1</ele>
        <time>2018-08-10T17:16:40Z</time>
      </trkpt>
      <trkpt lat="4.6400180" lon="-74.3020320">
        <ele>2655.3</ele>
        <time>2018-08-10T17:16:41Z</time>
      </trkpt>
      <trkpt lat="4.6399900" lon="-74.3020180">
        <ele>2655.5</ele>
        <time>2018-08-10T17:16:42Z</time>
      </trkpt>
      <trkpt lat="4.6399630" lon="-74.3020030">
        <ele>2655.7</ele>
        <time>2018-08-10T17:16:43Z</time>
      </trkpt>
      <trkpt lat="4.6399130" lon="-74.3019800">
        <ele>2656.0</ele>
        <time>2018-08-10T17:16:45Z</time>
      </trkpt>
      <trkpt lat="4.6398870" lon="-74.3019680">
        <ele>2656.2</ele>
        <time>2018-08-10T17:16:46Z</time>
      </trkpt>
      <trkpt lat="4.6398630" lon="-74.3019530">
        <ele>2656.4</ele>
        <time>2018-08-10T17:16:47Z</time>
      </trkpt>
      <trkpt lat="4.6398380" lon="-74.3019380">
        <ele>2656.6</ele>
        <time>2018-08-10T17:16:48Z</time>
      </trkpt>
      <trkpt lat="4.6398120" lon="-74.3019280">
        <ele>2656.7</ele>
        <time>2018-08-10T17:16:49Z</time>
      </trkpt>
      <trkpt lat="4.6397870" lon="-74.3019020">
        <ele>2657.0</ele>
        <time>2018-08-10T17:16:50Z</time>
      </trkpt>
      <trkpt lat="4.6397650" lon="-74.3018720">
        <ele>2657.2</ele>
        <time>2018-08-10T17:16:51Z</time>
      </trkpt>
      <trkpt lat="4.6397370" lon="-74.3018570">
        <ele>2657.4</ele>
        <time>2018-08-10T17:16:52Z</time>
      </trkpt>
      <trkpt lat="4.6397130" lon="-74.3018400">
        <ele>2657.6</ele>
        <time>2018-08-10T17:16:53Z</time>
      </trkpt>
      <trkpt lat="4.6396900" lon="-74.3018180">
        <ele>2657.8</ele>
        <time>2018-08-10T17:16:54Z</time>
      </trkpt>
      <trkpt lat="4.6396650" lon="-74.3017920">
        <ele>2658.0</ele>
        <time>2018-08-10T17:16:55Z</time>
      </trkpt>
      <trkpt lat="4.6396380" lon="-74.3017700">
        <ele>2658.2</ele>
        <time>2018-08-10T17:16:56Z</time>
      </trkpt>
      <trkpt lat="4.6396150" lon="-74.3017500">
        <ele>2658.4</ele>
        <time>2018-08-10T17:16:57Z</time>
      </trkpt>
      <trkpt lat="4.6395920" lon="-74.3017280">
        <ele>2658.6</ele>
        <time>2018-08-10T17:16:58Z</time>
      </trkpt>
      <trkpt lat="4.6395670" lon="-74.3017070">
        <ele>2658.8</ele>
        <time>2018-08-10T17:16:59Z</time>
      </trkpt>
      <trkpt lat="4.6395380" lon="-74.3016920">
        <ele>2659.0</ele>
        <time>2018-08-10T17:17:00Z</time>
      </trkpt>
      <trkpt lat="4.6395120" lon="-74.3016750">
        <ele>2659.2</ele>
        <time>2018-08-10T17:17:01Z</time>
      </trkpt>
      <trkpt lat="4.6394880" lon="-74.3016570">
        <ele>2659.4</ele>
        <time>2018-08-10T17:17:02Z</time>
      </trkpt>
      <trkpt lat="4.6394650" lon="-74.3016380">
        <ele>2659.6</ele>
        <time>2018-08-10T17:17:03Z</time>
      </trkpt>
      <trkpt lat="4.6394430" lon="-74.3016180">
        <ele>2659.8</ele>
        <time>2018-08-10T17:17:04Z</time>
      </trkpt>
      <trkpt lat="4.6394180" lon="-74.3015930">
        <ele>2660.0</ele>
        <time>2018-08-10T17:17:05Z</time>
      </trkpt>
      <trkpt lat="4.6393930" lon="-74.3015720">
        <ele>2660.2</ele>
        <time>2018-08-10T17:17:06Z</time>
      </trkpt>
      <trkpt lat="4.6393720" lon="-74.3015480">
        <ele>2660.4</ele>
        <time>2018-08-10T17:17:07Z</time>
      </trkpt>
      <trkpt lat="4.6393480" lon="-74.3015280">
        <ele>2660.6</ele>
        <time>2018-08-10T17:17:08Z</time>
      </trkpt>
      <trkpt lat="4.6393220" lon="-74.3015050">
        <ele>2660.8</ele>
        <time>2018-08-10T17:17:09Z</time>
      </trkpt>
      <trkpt lat="4.6392970" lon="-74.3014830">
        <ele>2661.0</ele>
        <time>2018-08-10T17:17:10Z</time>
      </trkpt>
      <trkpt lat="4.6392730" lon="-74.3014630">
        <ele>2661.2</ele>
        <time>2018-08-10T17:17:11Z</time>
      </trkpt>
      <trkpt lat="4.6392520" lon="-74.3014430">
        <ele>2661.4</ele>
        <time>2018-08-10T17:17:12Z</time>
      </trkpt>
      <trkpt lat="4.6392300" lon="-74.3014220">
        <ele>2661.5</ele>
        <time>2018-08-10T17:17:13Z</time>
      </trkpt>
      <trkpt lat="4.6392030" lon="-74.3014020">
        <ele>2661.7</ele>
        <time>2018-08-10T17:17:14Z</time>
      </trkpt>
      <trkpt lat="4.6391800" lon="-74.3013870">
        <ele>2661.9</ele>
        <time>2018-08-10T17:17:15Z</time>
      </trkpt>
      <trkpt lat="4.6391420" lon="-74.3013530">
        <ele>2662.2</ele>
        <time>2018-08-10T17:17:17Z</time>
      </trkpt>
      <trkpt lat="4.6391050" lon="-74.3013170">
        <ele>2662.5</ele>
        <time>2018-08-10T17:17:19Z</time>
      </trkpt>
      <trkpt lat="4.6390670" lon="-74.3012700">
        <ele>2662.9</ele>
        <time>2018-08-10T17:17:21Z</time>
      </trkpt>
      <trkpt lat="4.6390450" lon="-74.3012480">
        <ele>2663.1</ele>
        <time>2018-08-10T17:17:22Z</time>
      </trkpt>
      <trkpt lat="4.6390230" lon="-74.3012280">
        <ele>2663.2</ele>
        <time>2018-08-10T17:17:23Z</time>
      </trkpt>
      <trkpt lat="4.6389850" lon="-74.3011930">
        <ele>2663.6</ele>
        <time>2018-08-10T17:17:25Z</time>
      </trkpt>
      <trkpt lat="4.6389670" lon="-74.3011720">
        <ele>2663.7</ele>
        <time>2018-08-10T17:17:26Z</time>
      </trkpt>
      <trkpt lat="4.6389370" lon="-74.3011280">
        <ele>2664.1</ele>
        <time>2018-08-10T17:17:28Z</time>
      </trkpt>
      <trkpt lat="4.6389100" lon="-74.3010880">
        <ele>2664.4</ele>
        <time>2018-08-10T17:17:30Z</time>
      </trkpt>
      <trkpt lat="4.6388830" lon="-74.3010520">
        <ele>2664.7</ele>
        <time>2018-08-10T17:17:32Z</time>
      </trkpt>
      <trkpt lat="4.6388600" lon="-74.3010120">
        <ele>2665.0</ele>
        <time>2018-08-10T17:17:34Z</time>
      </trkpt>
      <trkpt lat="4.6388420" lon="-74.3009720">
        <ele>2665.3</ele>
        <time>2018-08-10T17:17:36Z</time>
      </trkpt>
      <trkpt lat="4.6388320" lon="-74.3009270">
        <ele>2665.5</ele>
        <time>2018-08-10T17:17:38Z</time>
      </trkpt>
      <trkpt lat="4.6388220" lon="-74.3008870">
        <ele>2665.8</ele>
        <time>2018-08-10T17:17:40Z</time>
      </trkpt>
      <trkpt lat="4.6388080" lon="-74.3008450">
        <ele>2666.1</ele>
        <time>2018-08-10T17:17:42Z</time>
      </trkpt>
      <trkpt lat="4.6387970" lon="-74.3008000">
        <ele>2666.4</ele>
        <time>2018-08-10T17:17:44Z</time>
      </trkpt>
      <trkpt lat="4.6387900" lon="-74.3007480">
        <ele>2666.7</ele>
        <time>2018-08-10T17:17:46Z</time>
      </trkpt>
      <trkpt lat="4.6387880" lon="-74.3006970">
        <ele>2667.0</ele>
        <time>2018-08-10T17:17:48Z</time>
      </trkpt>
      <trkpt lat="4.6387830" lon="-74.3006670">
        <ele>2667.2</ele>
        <time>2018-08-10T17:17:49Z</time>
      </trkpt>
      <trkpt lat="4.6387820" lon="-74.3006380">
        <ele>2667.3</ele>
        <time>2018-08-10T17:17:50Z</time>
      </trkpt>
      <trkpt lat="4.6387700" lon="-74.3005970">
        <ele>2667.6</ele>
        <time>2018-08-10T17:17:52Z</time>
      </trkpt>
      <trkpt lat="4.6387630" lon="-74.3005680">
        <ele>2667.7</ele>
        <time>2018-08-10T17:17:53Z</time>
      </trkpt>
      <trkpt lat="4.6387550" lon="-74.3005400">
        <ele>2667.9</ele>
        <time>2018-08-10T17:17:54Z</time>
      </trkpt>
      <trkpt lat="4.6387480" lon="-74.3005100">
        <ele>2668.0</ele>
        <time>2018-08-10T17:17:55Z</time>
      </trkpt>
      <trkpt lat="4.6387450" lon="-74.3004800">
        <ele>2668.2</ele>
        <time>2018-08-10T17:17:56Z</time>
      </trkpt>
      <trkpt lat="4.6387450" lon="-74.3004480">
        <ele>2668.4</ele>
        <time>2018-08-10T17:17:57Z</time>
      </trkpt>
      <trkpt lat="4.6387470" lon="-74.3004180">
        <ele>2668.5</ele>
        <time>2018-08-10T17:17:58Z</time>
      </trkpt>
      <trkpt lat="4.6387450" lon="-74.3003870">
        <ele>2668.6</ele>
        <time>2018-08-10T17:17:59Z</time>
      </trkpt>
      <trkpt lat="4.6387380" lon="-74.3003570">
        <ele>2668.8</ele>
        <time>2018-08-10T17:18:00Z</time>
      </trkpt>
      <trkpt lat="4.6387350" lon="-74.3003230">
        <ele>2669.0</ele>
        <time>2018-08-10T17:18:01Z</time>
      </trkpt>
      <trkpt lat="4.6387350" lon="-74.3002900">
        <ele>2669.1</ele>
        <time>2018-08-10T17:18:02Z</time>
      </trkpt>
      <trkpt lat="4.6387350" lon="-74.3002600">
        <ele>2669.2</ele>
        <time>2018-08-10T17:18:03Z</time>
      </trkpt>
      <trkpt lat="4.6387320" lon="-74.3002300">
        <ele>2669.4</ele>
        <time>2018-08-10T17:18:04Z</time>
      </trkpt>
      <trkpt lat="4.6387300" lon="-74.3001970">
        <ele>2669.5</ele>
        <time>2018-08-10T17:18:05Z</time>
      </trkpt>
      <trkpt lat="4.6387270" lon="-74.3001630">
        <ele>2669.7</ele>
        <time>2018-08-10T17:18:06Z</time>
      </trkpt>
      <trkpt lat="4.6387250" lon="-74.3001320">
        <ele>2669.8</ele>
        <time>2018-08-10T17:18:07Z</time>
      </trkpt>
      <trkpt lat="4.6387230" lon="-74.3000980">
        <ele>2670.0</ele>
        <time>2018-08-10T17:18:08Z</time>
      </trkpt>
      <trkpt lat="4.6387220" lon="-74.3000630">
        <ele>2670.2</ele>
        <time>2018-08-10T17:18:09Z</time>
      </trkpt>
      <trkpt lat="4.6387220" lon="-74.3000330">
        <ele>2670.3</ele>
        <time>2018-08-10T17:18:10Z</time>
      </trkpt>
      <trkpt lat="4.6387200" lon="-74.3000000">
        <ele>2670.5</ele>
        <time>2018-08-10T17:18:11Z</time>
      </trkpt>
      <trkpt lat="4.6387180" lon="-74.2999650">
        <ele>2670.6</ele>
        <time>2018-08-10T17:18:12Z</time>
      </trkpt>
      <trkpt lat="4.6387150" lon="-74.2999300">
        <ele>2670.8</ele>
        <time>2018-08-10T17:18:13Z</time>
      </trkpt>
      <trkpt lat="4.6387100" lon="-74.2999000">
        <ele>2671.0</ele>
        <time>2018-08-10T17:18:14Z</time>
      </trkpt>
      <trkpt lat="4.6387070" lon="-74.2998720">
        <ele>2671.1</ele>
        <time>2018-08-10T17:18:15Z</time>
      </trkpt>
      <trkpt lat="4.6387030" lon="-74.2998430">
        <ele>2671.3</ele>
        <time>2018-08-10T17:18:16Z</time>
      </trkpt>
      <trkpt lat="4.6386970" lon="-74.2998080">
        <ele>2671.4</ele>
        <time>2018-08-10T17:18:17Z</time>
      </trkpt>
      <trkpt lat="4.6386900" lon="-74.2997780">
        <ele>2671.6</ele>
        <time>2018-08-10T17:18:18Z</time>
      </trkpt>
      <trkpt lat="4.6386820" lon="-74.2997470">
        <ele>2671.7</ele>
        <time>2018-08-10T17:18:19Z</time>
      </trkpt>
      <trkpt lat="4.6386620" lon="-74.2997230">
        <ele>2671.9</ele>
        <time>2018-08-10T17:18:20Z</time>
      </trkpt>
      <trkpt lat="4.6386350" lon="-74.2997050">
        <ele>2672.1</ele>
        <time>2018-08-10T17:18:21Z</time>
      </trkpt>
      <trkpt lat="4.6386080" lon="-74.2996830">
        <ele>2672.2</ele>
        <time>2018-08-10T17:18:22Z</time>
      </trkpt>
      <trkpt lat="4.6385830" lon="-74.2996430">
        <ele>2672.5</ele>
        <time>2018-08-10T17:18:23Z</time>
      </trkpt>
      <trkpt lat="4.6385570" lon="-74.2996100">
        <ele>2672.7</ele>
        <time>2018-08-10T17:18:24Z</time>
      </trkpt>
      <trkpt lat="4.6385330" lon="-74.2995780">
        <ele>2672.9</ele>
        <time>2018-08-10T17:18:25Z</time>
      </trkpt>
      <trkpt lat="4.6385070" lon="-74.2995520">
        <ele>2673.0</ele>
        <time>2018-08-10T17:18:26Z</time>
      </trkpt>
      <trkpt lat="4.6384800" lon="-74.2995250">
        <ele>2673.2</ele>
        <time>2018-08-10T17:18:27Z</time>
      </trkpt>
      <trkpt lat="4.6384550" lon="-74.2995030">
        <ele>2673.4</ele>
        <time>2018-08-10T17:18:28Z</time>
      </trkpt>
      <trkpt lat="4.6384280" lon="-74.2994800">
        <ele>2673.6</ele>
        <time>2018-08-10T17:18:29Z</time>
      </trkpt>
      <trkpt lat="4.6384020" lon="-74.2994570">
        <ele>2673.8</ele>
        <time>2018-08-10T17:18:30Z</time>
      </trkpt>
      <trkpt lat="4.6383770" lon="-74.2994350">
        <ele>2673.9</ele>
        <time>2018-08-10T17:18:31Z</time>
      </trkpt>
      <trkpt lat="4.6383530" lon="-74.2994130">
        <ele>2674.1</ele>
        <time>2018-08-10T17:18:32Z</time>
      </trkpt>
      <trkpt lat="4.6383300" lon="-74.2993900">
        <ele>2674.3</ele>
        <time>2018-08-10T17:18:33Z</time>
      </trkpt>
      <trkpt lat="4.6383020" lon="-74.2993630">
        <ele>2674.5</ele>
        <time>2018-08-10T17:18:34Z</time>
      </trkpt>
      <trkpt lat="4.6382720" lon="-74.2993380">
        <ele>2674.7</ele>
        <time>2018-08-10T17:18:35Z</time>
      </trkpt>
      <trkpt lat="4.6382400" lon="-74.2993100">
        <ele>2675.0</ele>
        <time>2018-08-10T17:18:36Z</time>
      </trkpt>
      <trkpt lat="4.6382120" lon="-74.2992850">
        <ele>2675.2</ele>
        <time>2018-08-10T17:18:37Z</time>
      </trkpt>
      <trkpt lat="4.6381800" lon="-74.2992600">
        <ele>2675.5</ele>
        <time>2018-08-10T17:18:38Z</time>
      </trkpt>
      <trkpt lat="4.6381520" lon="-74.2992370">
        <ele>2675.7</ele>
        <time>2018-08-10T17:18:39Z</time>
      </trkpt>
      <trkpt lat="4.6381230" lon="-74.2992120">
        <ele>2675.9</ele>
        <time>2018-08-10T17:18:40Z</time>
      </trkpt>
      <trkpt lat="4.6380920" lon="-74.2991870">
        <ele>2676.1</ele>
        <time>2018-08-10T17:18:41Z</time>
      </trkpt>
      <trkpt lat="4.6380620" lon="-74.2991650">
        <ele>2676.4</ele>
        <time>2018-08-10T17:18:42Z</time>
      </trkpt>
      <trkpt lat="4.6380320" lon="-74.2991450">
        <ele>2676.6</ele>
        <time>2018-08-10T17:18:43Z</time>
      </trkpt>
      <trkpt lat="4.6380070" lon="-74.2991220">
        <ele>2676.8</ele>
        <time>2018-08-10T17:18:44Z</time>
      </trkpt>
      <trkpt lat="4.6379830" lon="-74.2991000">
        <ele>2677.0</ele>
        <time>2018-08-10T17:18:45Z</time>
      </trkpt>
      <trkpt lat="4.6379600" lon="-74.2990800">
        <ele>2677.1</ele>
        <time>2018-08-10T17:18:46Z</time>
      </trkpt>
      <trkpt lat="4.6379380" lon="-74.2990620">
        <ele>2677.3</ele>
        <time>2018-08-10T17:18:47Z</time>
      </trkpt>
      <trkpt lat="4.6379180" lon="-74.2990430">
        <ele>2677.5</ele>
        <time>2018-08-10T17:18:48Z</time>
      </trkpt>
      <trkpt lat="4.6378730" lon="-74.2990030">
        <ele>2677.8</ele>
        <time>2018-08-10T17:18:50Z</time>
      </trkpt>
      <trkpt lat="4.6378480" lon="-74.2989850">
        <ele>2678.0</ele>
        <time>2018-08-10T17:18:51Z</time>
      </trkpt>
      <trkpt lat="4.6378270" lon="-74.2989670">
        <ele>2678.2</ele>
        <time>2018-08-10T17:18:52Z</time>
      </trkpt>
      <trkpt lat="4.6377800" lon="-74.2989280">
        <ele>2678.5</ele>
        <time>2018-08-10T17:18:54Z</time>
      </trkpt>
      <trkpt lat="4.6377580" lon="-74.2989120">
        <ele>2678.7</ele>
        <time>2018-08-10T17:18:55Z</time>
      </trkpt>
      <trkpt lat="4.6377130" lon="-74.2988800">
        <ele>2679.0</ele>
        <time>2018-08-10T17:18:57Z</time>
      </trkpt>
      <trkpt lat="4.6376900" lon="-74.2988620">
        <ele>2679.1</ele>
        <time>2018-08-10T17:18:58Z</time>
      </trkpt>
      <trkpt lat="4.6376680" lon="-74.2988450">
        <ele>2679.3</ele>
        <time>2018-08-10T17:18:59Z</time>
      </trkpt>
      <trkpt lat="4.6376270" lon="-74.2988180">
        <ele>2679.6</ele>
        <time>2018-08-10T17:19:01Z</time>
      </trkpt>
      <trkpt lat="4.6375930" lon="-74.2987870">
        <ele>2679.8</ele>
        <time>2018-08-10T17:19:03Z</time>
      </trkpt>
      <trkpt lat="4.6375600" lon="-74.2987570">
        <ele>2680.1</ele>
        <time>2018-08-10T17:19:05Z</time>
      </trkpt>
      <trkpt lat="4.6375200" lon="-74.2987230">
        <ele>2680.4</ele>
        <time>2018-08-10T17:19:07Z</time>
      </trkpt>
      <trkpt lat="4.6374980" lon="-74.2987020">
        <ele>2680.5</ele>
        <time>2018-08-10T17:19:08Z</time>
      </trkpt>
      <trkpt lat="4.6374800" lon="-74.2986800">
        <ele>2680.7</ele>
        <time>2018-08-10T17:19:09Z</time>
      </trkpt>
      <trkpt lat="4.6374600" lon="-74.2986580">
        <ele>2680.9</ele>
        <time>2018-08-10T17:19:10Z</time>
      </trkpt>
      <trkpt lat="4.6374380" lon="-74.2986380">
        <ele>2681.0</ele>
        <time>2018-08-10T17:19:11Z</time>
      </trkpt>
      <trkpt lat="4.6373970" lon="-74.2986020">
        <ele>2681.3</ele>
        <time>2018-08-10T17:19:13Z</time>
      </trkpt>
      <trkpt lat="4.6373570" lon="-74.2985720">
        <ele>2681.6</ele>
        <time>2018-08-10T17:19:15Z</time>
      </trkpt>
      <trkpt lat="4.6373170" lon="-74.2985430">
        <ele>2681.9</ele>
        <time>2018-08-10T17:19:17Z</time>
      </trkpt>
      <trkpt lat="4.6372800" lon="-74.2985130">
        <ele>2682.2</ele>
        <time>2018-08-10T17:19:19Z</time>
      </trkpt>
      <trkpt lat="4.6372370" lon="-74.2984850">
        <ele>2682.6</ele>
        <time>2018-08-10T17:19:21Z</time>
      </trkpt>
      <trkpt lat="4.6372120" lon="-74.2984700">
        <ele>2682.8</ele>
        <time>2018-08-10T17:19:22Z</time>
      </trkpt>
      <trkpt lat="4.6371870" lon="-74.2984530">
        <ele>2682.9</ele>
        <time>2018-08-10T17:19:23Z</time>
      </trkpt>
      <trkpt lat="4.6371620" lon="-74.2984280">
        <ele>2683.2</ele>
        <time>2018-08-10T17:19:24Z</time>
      </trkpt>
      <trkpt lat="4.6371400" lon="-74.2984050">
        <ele>2683.4</ele>
        <time>2018-08-10T17:19:25Z</time>
      </trkpt>
      <trkpt lat="4.6371150" lon="-74.2983800">
        <ele>2683.6</ele>
        <time>2018-08-10T17:19:26Z</time>
      </trkpt>
      <trkpt lat="4.6370920" lon="-74.2983630">
        <ele>2683.8</ele>
        <time>2018-08-10T17:19:27Z</time>
      </trkpt>
      <trkpt lat="4.6370530" lon="-74.2983350">
        <ele>2684.1</ele>
        <time>2018-08-10T17:19:29Z</time>
      </trkpt>
      <trkpt lat="4.6370350" lon="-74.2983150">
        <ele>2684.3</ele>
        <time>2018-08-10T17:19:30Z</time>
      </trkpt>
      <trkpt lat="4.6369930" lon="-74.2982820">
        <ele>2684.6</ele>
        <time>2018-08-10T17:19:32Z</time>
      </trkpt>
      <trkpt lat="4.6369680" lon="-74.2982630">
        <ele>2684.8</ele>
        <time>2018-08-10T17:19:33Z</time>
      </trkpt>
      <trkpt lat="4.6369430" lon="-74.2982450">
        <ele>2685.0</ele>
        <time>2018-08-10T17:19:34Z</time>
      </trkpt>
      <trkpt lat="4.6369200" lon="-74.2982270">
        <ele>2685.2</ele>
        <time>2018-08-10T17:19:35Z</time>
      </trkpt>
      <trkpt lat="4.6368950" lon="-74.2982100">
        <ele>2685.4</ele>
        <time>2018-08-10T17:19:36Z</time>
      </trkpt>
      <trkpt lat="4.6368550" lon="-74.2981730">
        <ele>2685.8</ele>
        <time>2018-08-10T17:19:38Z</time>
      </trkpt>
      <trkpt lat="4.6368350" lon="-74.2981550">
        <ele>2686.0</ele>
        <time>2018-08-10T17:19:39Z</time>
      </trkpt>
      <trkpt lat="4.6368150" lon="-74.2981350">
        <ele>2686.1</ele>
        <time>2018-08-10T17:19:40Z</time>
      </trkpt>
      <trkpt lat="4.6367750" lon="-74.2981030">
        <ele>2686.5</ele>
        <time>2018-08-10T17:19:42Z</time>
      </trkpt>
      <trkpt lat="4.6367530" lon="-74.2980850">
        <ele>2686.6</ele>
        <time>2018-08-10T17:19:43Z</time>
      </trkpt>
      <trkpt lat="4.6367320" lon="-74.2980630">
        <ele>2686.8</ele>
        <time>2018-08-10T17:19:44Z</time>
      </trkpt>
      <trkpt lat="4.6367120" lon="-74.2980420">
        <ele>2687.0</ele>
        <time>2018-08-10T17:19:45Z</time>
      </trkpt>
      <trkpt lat="4.6366930" lon="-74.2980180">
        <ele>2687.2</ele>
        <time>2018-08-10T17:19:46Z</time>
      </trkpt>
      <trkpt lat="4.6366730" lon="-74.2979980">
        <ele>2687.4</ele>
        <time>2018-08-10T17:19:47Z</time>
      </trkpt>
      <trkpt lat="4.6366530" lon="-74.2979750">
        <ele>2687.5</ele>
        <time>2018-08-10T17:19:48Z</time>
      </trkpt>
      <trkpt lat="4.6366330" lon="-74.2979550">
        <ele>2687.7</ele>
        <time>2018-08-10T17:19:49Z</time>
      </trkpt>
      <trkpt lat="4.6366130" lon="-74.2979300">
        <ele>2687.9</ele>
        <time>2018-08-10T17:19:50Z</time>
      </trkpt>
      <trkpt lat="4.6365930" lon="-74.2979000">
        <ele>2688.0</ele>
        <time>2018-08-10T17:19:51Z</time>
      </trkpt>
      <trkpt lat="4.6365730" lon="-74.2978780">
        <ele>2688.2</ele>
        <time>2018-08-10T17:19:52Z</time>
      </trkpt>
      <trkpt lat="4.6365550" lon="-74.2978530">
        <ele>2688.3</ele>
        <time>2018-08-10T17:19:53Z</time>
      </trkpt>
      <trkpt lat="4.6365350" lon="-74.2978300">
        <ele>2688.5</ele>
        <time>2018-08-10T17:19:54Z</time>
      </trkpt>
      <trkpt lat="4.6365170" lon="-74.2978050">
        <ele>2688.5</ele>
        <time>2018-08-10T17:19:55Z</time>
      </trkpt>
      <trkpt lat="4.6364980" lon="-74.2977700">
        <ele>2688.7</ele>
        <time>2018-08-10T17:19:56Z</time>
      </trkpt>
      <trkpt lat="4.6364830" lon="-74.2977370">
        <ele>2688.8</ele>
        <time>2018-08-10T17:19:57Z</time>
      </trkpt>
      <trkpt lat="4.6364670" lon="-74.2977150">
        <ele>2688.8</ele>
        <time>2018-08-10T17:19:58Z</time>
      </trkpt>
      <trkpt lat="4.6364480" lon="-74.2976950">
        <ele>2688.9</ele>
        <time>2018-08-10T17:19:59Z</time>
      </trkpt>
      <trkpt lat="4.6364280" lon="-74.2976720">
        <ele>2689.0</ele>
        <time>2018-08-10T17:20:00Z</time>
      </trkpt>
      <trkpt lat="4.6364100" lon="-74.2976520">
        <ele>2689.1</ele>
        <time>2018-08-10T17:20:01Z</time>
      </trkpt>
      <trkpt lat="4.6363920" lon="-74.2976320">
        <ele>2689.1</ele>
        <time>2018-08-10T17:20:02Z</time>
      </trkpt>
      <trkpt lat="4.6363720" lon="-74.2976120">
        <ele>2689.2</ele>
        <time>2018-08-10T17:20:03Z</time>
      </trkpt>
      <trkpt lat="4.6363500" lon="-74.2975930">
        <ele>2689.2</ele>
        <time>2018-08-10T17:20:04Z</time>
      </trkpt>
      <trkpt lat="4.6363130" lon="-74.2975620">
        <ele>2689.3</ele>
        <time>2018-08-10T17:20:06Z</time>
      </trkpt>
      <trkpt lat="4.6362950" lon="-74.2975420">
        <ele>2689.4</ele>
        <time>2018-08-10T17:20:07Z</time>
      </trkpt>
      <trkpt lat="4.6362650" lon="-74.2975080">
        <ele>2689.5</ele>
        <time>2018-08-10T17:20:09Z</time>
      </trkpt>
      <trkpt lat="4.6362330" lon="-74.2974700">
        <ele>2689.6</ele>
        <time>2018-08-10T17:20:11Z</time>
      </trkpt>
      <trkpt lat="4.6361950" lon="-74.2974280">
        <ele>2689.6</ele>
        <time>2018-08-10T17:20:13Z</time>
      </trkpt>
      <trkpt lat="4.6361750" lon="-74.2974070">
        <ele>2689.6</ele>
        <time>2018-08-10T17:20:14Z</time>
      </trkpt>
      <trkpt lat="4.6361570" lon="-74.2973850">
        <ele>2689.7</ele>
        <time>2018-08-10T17:20:15Z</time>
      </trkpt>
      <trkpt lat="4.6361370" lon="-74.2973670">
        <ele>2689.7</ele>
        <time>2018-08-10T17:20:16Z</time>
      </trkpt>
      <trkpt lat="4.6361170" lon="-74.2973450">
        <ele>2689.7</ele>
        <time>2018-08-10T17:20:17Z</time>
      </trkpt>
      <trkpt lat="4.6360980" lon="-74.2973220">
        <ele>2689.7</ele>
        <time>2018-08-10T17:20:18Z</time>
      </trkpt>
      <trkpt lat="4.6360820" lon="-74.2973000">
        <ele>2689.7</ele>
        <time>2018-08-10T17:20:19Z</time>
      </trkpt>
      <trkpt lat="4.6360650" lon="-74.2972780">
        <ele>2689.7</ele>
        <time>2018-08-10T17:20:20Z</time>
      </trkpt>
      <trkpt lat="4.6360500" lon="-74.2972550">
        <ele>2689.8</ele>
        <time>2018-08-10T17:20:21Z</time>
      </trkpt>
      <trkpt lat="4.6360320" lon="-74.2972350">
        <ele>2689.8</ele>
        <time>2018-08-10T17:20:22Z</time>
      </trkpt>
      <trkpt lat="4.6360130" lon="-74.2972130">
        <ele>2689.8</ele>
        <time>2018-08-10T17:20:23Z</time>
      </trkpt>
      <trkpt lat="4.6359830" lon="-74.2971750">
        <ele>2689.8</ele>
        <time>2018-08-10T17:20:25Z</time>
      </trkpt>
      <trkpt lat="4.6359670" lon="-74.2971520">
        <ele>2689.8</ele>
        <time>2018-08-10T17:20:26Z</time>
      </trkpt>
      <trkpt lat="4.6359500" lon="-74.2971270">
        <ele>2689.9</ele>
        <time>2018-08-10T17:20:27Z</time>
      </trkpt>
      <trkpt lat="4.6359330" lon="-74.2971020">
        <ele>2689.9</ele>
        <time>2018-08-10T17:20:28Z</time>
      </trkpt>
      <trkpt lat="4.6359170" lon="-74.2970730">
        <ele>2689.9</ele>
        <time>2018-08-10T17:20:29Z</time>
      </trkpt>
      <trkpt lat="4.6358970" lon="-74.2970500">
        <ele>2689.9</ele>
        <time>2018-08-10T17:20:30Z</time>
      </trkpt>
      <trkpt lat="4.6358730" lon="-74.2970280">
        <ele>2689.9</ele>
        <time>2018-08-10T17:20:31Z</time>
      </trkpt>
      <trkpt lat="4.6358530" lon="-74.2970070">
        <ele>2690.0</ele>
        <time>2018-08-10T17:20:32Z</time>
      </trkpt>
      <trkpt lat="4.6358300" lon="-74.2969830">
        <ele>2690.0</ele>
        <time>2018-08-10T17:20:33Z</time>
      </trkpt>
      <trkpt lat="4.6358030" lon="-74.2969580">
        <ele>2690.0</ele>
        <time>2018-08-10T17:20:34Z</time>
      </trkpt>
      <trkpt lat="4.6357820" lon="-74.2969380">
        <ele>2690.0</ele>
        <time>2018-08-10T17:20:35Z</time>
      </trkpt>
      <trkpt lat="4.6357620" lon="-74.2969150">
        <ele>2690.0</ele>
        <time>2018-08-10T17:20:36Z</time>
      </trkpt>
      <trkpt lat="4.6357420" lon="-74.2968930">
        <ele>2690.0</ele>
        <time>2018-08-10T17:20:37Z</time>
      </trkpt>
      <trkpt lat="4.6357220" lon="-74.2968720">
        <ele>2690.0</ele>
        <time>2018-08-10T17:20:38Z</time>
      </trkpt>
      <trkpt lat="4.6357000" lon="-74.2968480">
        <ele>2690.1</ele>
        <time>2018-08-10T17:20:39Z</time>
      </trkpt>
      <trkpt lat="4.6356800" lon="-74.2968270">
        <ele>2690.1</ele>
        <time>2018-08-10T17:20:40Z</time>
      </trkpt>
      <trkpt lat="4.6356420" lon="-74.2967950">
        <ele>2690.1</ele>
        <time>2018-08-10T17:20:42Z</time>
      </trkpt>
      <trkpt lat="4.6356080" lon="-74.2967620">
        <ele>2690.1</ele>
        <time>2018-08-10T17:20:44Z</time>
      </trkpt>
      <trkpt lat="4.6355870" lon="-74.2967380">
        <ele>2690.1</ele>
        <time>2018-08-10T17:20:45Z</time>
      </trkpt>
      <trkpt lat="4.6355480" lon="-74.2966970">
        <ele>2690.2</ele>
        <time>2018-08-10T17:20:47Z</time>
      </trkpt>
      <trkpt lat="4.6355120" lon="-74.2966650">
        <ele>2690.2</ele>
        <time>2018-08-10T17:20:49Z</time>
      </trkpt>
      <trkpt lat="4.6354770" lon="-74.2966280">
        <ele>2690.2</ele>
        <time>2018-08-10T17:20:51Z</time>
      </trkpt>
      <trkpt lat="4.6354380" lon="-74.2965970">
        <ele>2690.2</ele>
        <time>2018-08-10T17:20:53Z</time>
      </trkpt>
      <trkpt lat="4.6354030" lon="-74.2965580">
        <ele>2690.2</ele>
        <time>2018-08-10T17:20:55Z</time>
      </trkpt>
      <trkpt lat="4.6353720" lon="-74.2965180">
        <ele>2690.3</ele>
        <time>2018-08-10T17:20:57Z</time>
      </trkpt>
      <trkpt lat="4.6353550" lon="-74.2964900">
        <ele>2690.3</ele>
        <time>2018-08-10T17:20:58Z</time>
      </trkpt>
      <trkpt lat="4.6353280" lon="-74.2964480">
        <ele>2690.3</ele>
        <time>2018-08-10T17:21:00Z</time>
      </trkpt>
      <trkpt lat="4.6352950" lon="-74.2964020">
        <ele>2690.3</ele>
        <time>2018-08-10T17:21:02Z</time>
      </trkpt>
      <trkpt lat="4.6352800" lon="-74.2963750">
        <ele>2690.3</ele>
        <time>2018-08-10T17:21:03Z</time>
      </trkpt>
      <trkpt lat="4.6352670" lon="-74.2963480">
        <ele>2690.3</ele>
        <time>2018-08-10T17:21:04Z</time>
      </trkpt>
      <trkpt lat="4.6352480" lon="-74.2963200">
        <ele>2690.3</ele>
        <time>2018-08-10T17:21:05Z</time>
      </trkpt>
      <trkpt lat="4.6352330" lon="-74.2962880">
        <ele>2690.3</ele>
        <time>2018-08-10T17:21:06Z</time>
      </trkpt>
      <trkpt lat="4.6352170" lon="-74.2962580">
        <ele>2690.3</ele>
        <time>2018-08-10T17:21:07Z</time>
      </trkpt>
      <trkpt lat="4.6351980" lon="-74.2962330">
        <ele>2690.3</ele>
        <time>2018-08-10T17:21:08Z</time>
      </trkpt>
      <trkpt lat="4.6351780" lon="-74.2962050">
        <ele>2690.3</ele>
        <time>2018-08-10T17:21:09Z</time>
      </trkpt>
      <trkpt lat="4.6351600" lon="-74.2961780">
        <ele>2690.3</ele>
        <time>2018-08-10T17:21:10Z</time>
      </trkpt>
      <trkpt lat="4.6351470" lon="-74.2961500">
        <ele>2690.3</ele>
        <time>2018-08-10T17:21:11Z</time>
      </trkpt>
      <trkpt lat="4.6351380" lon="-74.2961220">
        <ele>2690.3</ele>
        <time>2018-08-10T17:21:12Z</time>
      </trkpt>
      <trkpt lat="4.6351280" lon="-74.2960920">
        <ele>2690.3</ele>
        <time>2018-08-10T17:21:13Z</time>
      </trkpt>
      <trkpt lat="4.6351180" lon="-74.2960580">
        <ele>2690.3</ele>
        <time>2018-08-10T17:21:14Z</time>
      </trkpt>
      <trkpt lat="4.6351080" lon="-74.2960270">
        <ele>2690.2</ele>
        <time>2018-08-10T17:21:15Z</time>
      </trkpt>
      <trkpt lat="4.6351000" lon="-74.2959920">
        <ele>2690.2</ele>
        <time>2018-08-10T17:21:16Z</time>
      </trkpt>
      <trkpt lat="4.6350950" lon="-74.2959550">
        <ele>2690.1</ele>
        <time>2018-08-10T17:21:17Z</time>
      </trkpt>
      <trkpt lat="4.6350880" lon="-74.2959150">
        <ele>2690.1</ele>
        <time>2018-08-10T17:21:18Z</time>
      </trkpt>
      <trkpt lat="4.6350770" lon="-74.2958770">
        <ele>2690.0</ele>
        <time>2018-08-10T17:21:19Z</time>
      </trkpt>
      <trkpt lat="4.6350580" lon="-74.2958430">
        <ele>2689.5</ele>
        <time>2018-08-10T17:21:20Z</time>
      </trkpt>
      <trkpt lat="4.6350370" lon="-74.2958120">
        <ele>2689.1</ele>
        <time>2018-08-10T17:21:21Z</time>
      </trkpt>
      <trkpt lat="4.6350100" lon="-74.2957820">
        <ele>2688.7</ele>
        <time>2018-08-10T17:21:22Z</time>
      </trkpt>
      <trkpt lat="4.6349780" lon="-74.2957550">
        <ele>2688.3</ele>
        <time>2018-08-10T17:21:23Z</time>
      </trkpt>
      <trkpt lat="4.6349350" lon="-74.2957300">
        <ele>2687.9</ele>
        <time>2018-08-10T17:21:24Z</time>
      </trkpt>
      <trkpt lat="4.6348880" lon="-74.2957100">
        <ele>2687.4</ele>
        <time>2018-08-10T17:21:25Z</time>
      </trkpt>
      <trkpt lat="4.6348320" lon="-74.2956930">
        <ele>2686.9</ele>
        <time>2018-08-10T17:21:26Z</time>
      </trkpt>
      <trkpt lat="4.6347670" lon="-74.2956770">
        <ele>2686.2</ele>
        <time>2018-08-10T17:21:27Z</time>
      </trkpt>
      <trkpt lat="4.6347030" lon="-74.2956620">
        <ele>2685.6</ele>
        <time>2018-08-10T17:21:28Z</time>
      </trkpt>
      <trkpt lat="4.6346330" lon="-74.2956470">
        <ele>2684.9</ele>
        <time>2018-08-10T17:21:29Z</time>
      </trkpt>
      <trkpt lat="4.6345670" lon="-74.2956230">
        <ele>2684.2</ele>
        <time>2018-08-10T17:21:30Z</time>
      </trkpt>
      <trkpt lat="4.6345050" lon="-74.2956030">
        <ele>2683.6</ele>
        <time>2018-08-10T17:21:31Z</time>
      </trkpt>
      <trkpt lat="4.6344470" lon="-74.2955770">
        <ele>2683.0</ele>
        <time>2018-08-10T17:21:32Z</time>
      </trkpt>
      <trkpt lat="4.6343900" lon="-74.2955380">
        <ele>2682.3</ele>
        <time>2018-08-10T17:21:33Z</time>
      </trkpt>
      <trkpt lat="4.6343380" lon="-74.2954970">
        <ele>2681.8</ele>
        <time>2018-08-10T17:21:34Z</time>
      </trkpt>
      <trkpt lat="4.6342920" lon="-74.2954500">
        <ele>2681.3</ele>
        <time>2018-08-10T17:21:35Z</time>
      </trkpt>
      <trkpt lat="4.6342470" lon="-74.2954020">
        <ele>2680.9</ele>
        <time>2018-08-10T17:21:36Z</time>
      </trkpt>
      <trkpt lat="4.6342030" lon="-74.2953550">
        <ele>2680.4</ele>
        <time>2018-08-10T17:21:37Z</time>
      </trkpt>
      <trkpt lat="4.6341580" lon="-74.2953070">
        <ele>2680.1</ele>
        <time>2018-08-10T17:21:38Z</time>
      </trkpt>
      <trkpt lat="4.6341120" lon="-74.2952570">
        <ele>2679.7</ele>
        <time>2018-08-10T17:21:39Z</time>
      </trkpt>
      <trkpt lat="4.6340580" lon="-74.2952080">
        <ele>2679.2</ele>
        <time>2018-08-10T17:21:40Z</time>
      </trkpt>
      <trkpt lat="4.6340030" lon="-74.2951580">
        <ele>2678.8</ele>
        <time>2018-08-10T17:21:41Z</time>
      </trkpt>
      <trkpt lat="4.6339470" lon="-74.2951070">
        <ele>2678.5</ele>
        <time>2018-08-10T17:21:42Z</time>
      </trkpt>
      <trkpt lat="4.6338870" lon="-74.2950530">
        <ele>2678.0</ele>
        <time>2018-08-10T17:21:43Z</time>
      </trkpt>
      <trkpt lat="4.6338270" lon="-74.2950030">
        <ele>2677.6</ele>
        <time>2018-08-10T17:21:44Z</time>
      </trkpt>
      <trkpt lat="4.6337620" lon="-74.2949570">
        <ele>2677.2</ele>
        <time>2018-08-10T17:21:45Z</time>
      </trkpt>
      <trkpt lat="4.6336900" lon="-74.2949150">
        <ele>2676.8</ele>
        <time>2018-08-10T17:21:46Z</time>
      </trkpt>
      <trkpt lat="4.6336150" lon="-74.2948780">
        <ele>2676.5</ele>
        <time>2018-08-10T17:21:47Z</time>
      </trkpt>
      <trkpt lat="4.6335350" lon="-74.2948400">
        <ele>2676.1</ele>
        <time>2018-08-10T17:21:48Z</time>
      </trkpt>
      <trkpt lat="4.6334550" lon="-74.2948000">
        <ele>2675.8</ele>
        <time>2018-08-10T17:21:49Z</time>
      </trkpt>
      <trkpt lat="4.6333730" lon="-74.2947620">
        <ele>2675.5</ele>
        <time>2018-08-10T17:21:50Z</time>
      </trkpt>
      <trkpt lat="4.6332880" lon="-74.2947270">
        <ele>2675.2</ele>
        <time>2018-08-10T17:21:51Z</time>
      </trkpt>
      <trkpt lat="4.6332030" lon="-74.2946920">
        <ele>2675.0</ele>
        <time>2018-08-10T17:21:52Z</time>
      </trkpt>
      <trkpt lat="4.6331130" lon="-74.2946580">
        <ele>2674.8</ele>
        <time>2018-08-10T17:21:53Z</time>
      </trkpt>
      <trkpt lat="4.6330220" lon="-74.2946280">
        <ele>2674.6</ele>
        <time>2018-08-10T17:21:54Z</time>
      </trkpt>
      <trkpt lat="4.6329270" lon="-74.2946000">
        <ele>2674.4</ele>
        <time>2018-08-10T17:21:55Z</time>
      </trkpt>
      <trkpt lat="4.6328320" lon="-74.2945750">
        <ele>2674.1</ele>
        <time>2018-08-10T17:21:56Z</time>
      </trkpt>
      <trkpt lat="4.6327330" lon="-74.2945500">
        <ele>2673.7</ele>
        <time>2018-08-10T17:21:57Z</time>
      </trkpt>
      <trkpt lat="4.6326350" lon="-74.2945280">
        <ele>2673.4</ele>
        <time>2018-08-10T17:21:58Z</time>
      </trkpt>
      <trkpt lat="4.6325330" lon="-74.2945070">
        <ele>2673.1</ele>
        <time>2018-08-10T17:21:59Z</time>
      </trkpt>
      <trkpt lat="4.6324300" lon="-74.2944920">
        <ele>2672.8</ele>
        <time>2018-08-10T17:22:00Z</time>
      </trkpt>
      <trkpt lat="4.6323270" lon="-74.2944770">
        <ele>2672.5</ele>
        <time>2018-08-10T17:22:01Z</time>
      </trkpt>
      <trkpt lat="4.6322270" lon="-74.2944630">
        <ele>2672.1</ele>
        <time>2018-08-10T17:22:02Z</time>
      </trkpt>
      <trkpt lat="4.6321270" lon="-74.2944500">
        <ele>2671.7</ele>
        <time>2018-08-10T17:22:03Z</time>
      </trkpt>
      <trkpt lat="4.6320230" lon="-74.2944350">
        <ele>2671.3</ele>
        <time>2018-08-10T17:22:04Z</time>
      </trkpt>
      <trkpt lat="4.6319200" lon="-74.2944180">
        <ele>2670.9</ele>
        <time>2018-08-10T17:22:05Z</time>
      </trkpt>
      <trkpt lat="4.6318150" lon="-74.2944030">
        <ele>2670.4</ele>
        <time>2018-08-10T17:22:06Z</time>
      </trkpt>
      <trkpt lat="4.6317100" lon="-74.2943920">
        <ele>2669.9</ele>
        <time>2018-08-10T17:22:07Z</time>
      </trkpt>
      <trkpt lat="4.6316170" lon="-74.2943820">
        <ele>2669.7</ele>
        <time>2018-08-10T17:22:08Z</time>
      </trkpt>
      <trkpt lat="4.6315320" lon="-74.2943720">
        <ele>2669.5</ele>
        <time>2018-08-10T17:22:09Z</time>
      </trkpt>
      <trkpt lat="4.6314530" lon="-74.2943630">
        <ele>2669.3</ele>
        <time>2018-08-10T17:22:10Z</time>
      </trkpt>
      <trkpt lat="4.6313800" lon="-74.2943520">
        <ele>2669.1</ele>
        <time>2018-08-10T17:22:11Z</time>
      </trkpt>
      <trkpt lat="4.6313000" lon="-74.2943330">
        <ele>2668.8</ele>
        <time>2018-08-10T17:22:12Z</time>
      </trkpt>
      <trkpt lat="4.6312400" lon="-74.2943250">
        <ele>2668.5</ele>
        <time>2018-08-10T17:22:13Z</time>
      </trkpt>
      <trkpt lat="4.6311850" lon="-74.2943230">
        <ele>2668.3</ele>
        <time>2018-08-10T17:22:14Z</time>
      </trkpt>
      <trkpt lat="4.6311330" lon="-74.2943170">
        <ele>2668.0</ele>
        <time>2018-08-10T17:22:15Z</time>
      </trkpt>
      <trkpt lat="4.6310820" lon="-74.2943120">
        <ele>2667.8</ele>
        <time>2018-08-10T17:22:16Z</time>
      </trkpt>
      <trkpt lat="4.6310280" lon="-74.2943070">
        <ele>2667.6</ele>
        <time>2018-08-10T17:22:17Z</time>
      </trkpt>
      <trkpt lat="4.6309820" lon="-74.2943000">
        <ele>2667.2</ele>
        <time>2018-08-10T17:22:18Z</time>
      </trkpt>
      <trkpt lat="4.6309350" lon="-74.2942920">
        <ele>2667.0</ele>
        <time>2018-08-10T17:22:19Z</time>
      </trkpt>
      <trkpt lat="4.6308880" lon="-74.2942820">
        <ele>2666.8</ele>
        <time>2018-08-10T17:22:20Z</time>
      </trkpt>
      <trkpt lat="4.6308400" lon="-74.2942730">
        <ele>2666.5</ele>
        <time>2018-08-10T17:22:21Z</time>
      </trkpt>
      <trkpt lat="4.6307950" lon="-74.2942620">
        <ele>2666.3</ele>
        <time>2018-08-10T17:22:22Z</time>
      </trkpt>
      <trkpt lat="4.6307500" lon="-74.2942500">
        <ele>2666.2</ele>
        <time>2018-08-10T17:22:23Z</time>
      </trkpt>
      <trkpt lat="4.6307080" lon="-74.2942370">
        <ele>2666.0</ele>
        <time>2018-08-10T17:22:24Z</time>
      </trkpt>
      <trkpt lat="4.6306650" lon="-74.2942230">
        <ele>2665.9</ele>
        <time>2018-08-10T17:22:25Z</time>
      </trkpt>
      <trkpt lat="4.6306220" lon="-74.2942120">
        <ele>2665.7</ele>
        <time>2018-08-10T17:22:26Z</time>
      </trkpt>
      <trkpt lat="4.6305800" lon="-74.2941970">
        <ele>2665.6</ele>
        <time>2018-08-10T17:22:27Z</time>
      </trkpt>
      <trkpt lat="4.6305380" lon="-74.2941820">
        <ele>2665.4</ele>
        <time>2018-08-10T17:22:28Z</time>
      </trkpt>
      <trkpt lat="4.6304950" lon="-74.2941670">
        <ele>2665.3</ele>
        <time>2018-08-10T17:22:29Z</time>
      </trkpt>
      <trkpt lat="4.6304520" lon="-74.2941500">
        <ele>2665.1</ele>
        <time>2018-08-10T17:22:30Z</time>
      </trkpt>
      <trkpt lat="4.6304120" lon="-74.2941280">
        <ele>2664.9</ele>
        <time>2018-08-10T17:22:31Z</time>
      </trkpt>
      <trkpt lat="4.6303720" lon="-74.2941070">
        <ele>2664.8</ele>
        <time>2018-08-10T17:22:32Z</time>
      </trkpt>
      <trkpt lat="4.6303320" lon="-74.2940830">
        <ele>2664.6</ele>
        <time>2018-08-10T17:22:33Z</time>
      </trkpt>
      <trkpt lat="4.6302930" lon="-74.2940580">
        <ele>2664.5</ele>
        <time>2018-08-10T17:22:34Z</time>
      </trkpt>
      <trkpt lat="4.6302550" lon="-74.2940330">
        <ele>2664.3</ele>
        <time>2018-08-10T17:22:35Z</time>
      </trkpt>
      <trkpt lat="4.6302220" lon="-74.2940100">
        <ele>2664.2</ele>
        <time>2018-08-10T17:22:36Z</time>
      </trkpt>
      <trkpt lat="4.6301870" lon="-74.2939820">
        <ele>2664.0</ele>
        <time>2018-08-10T17:22:37Z</time>
      </trkpt>
      <trkpt lat="4.6301530" lon="-74.2939550">
        <ele>2663.8</ele>
        <time>2018-08-10T17:22:38Z</time>
      </trkpt>
      <trkpt lat="4.6301250" lon="-74.2939250">
        <ele>2663.7</ele>
        <time>2018-08-10T17:22:39Z</time>
      </trkpt>
      <trkpt lat="4.6301000" lon="-74.2938920">
        <ele>2663.6</ele>
        <time>2018-08-10T17:22:40Z</time>
      </trkpt>
      <trkpt lat="4.6300770" lon="-74.2938580">
        <ele>2663.5</ele>
        <time>2018-08-10T17:22:41Z</time>
      </trkpt>
      <trkpt lat="4.6300530" lon="-74.2938230">
        <ele>2663.4</ele>
        <time>2018-08-10T17:22:42Z</time>
      </trkpt>
      <trkpt lat="4.6300330" lon="-74.2937880">
        <ele>2663.3</ele>
        <time>2018-08-10T17:22:43Z</time>
      </trkpt>
      <trkpt lat="4.6300130" lon="-74.2937550">
        <ele>2663.2</ele>
        <time>2018-08-10T17:22:44Z</time>
      </trkpt>
      <trkpt lat="4.6299900" lon="-74.2937180">
        <ele>2663.1</ele>
        <time>2018-08-10T17:22:45Z</time>
      </trkpt>
      <trkpt lat="4.6299700" lon="-74.2936820">
        <ele>2663.0</ele>
        <time>2018-08-10T17:22:46Z</time>
      </trkpt>
      <trkpt lat="4.6299480" lon="-74.2936420">
        <ele>2663.0</ele>
        <time>2018-08-10T17:22:47Z</time>
      </trkpt>
      <trkpt lat="4.6299230" lon="-74.2935980">
        <ele>2662.9</ele>
        <time>2018-08-10T17:22:48Z</time>
      </trkpt>
      <trkpt lat="4.6299020" lon="-74.2935550">
        <ele>2662.8</ele>
        <time>2018-08-10T17:22:49Z</time>
      </trkpt>
      <trkpt lat="4.6298820" lon="-74.2935080">
        <ele>2662.7</ele>
        <time>2018-08-10T17:22:50Z</time>
      </trkpt>
      <trkpt lat="4.6298600" lon="-74.2934630">
        <ele>2662.6</ele>
        <time>2018-08-10T17:22:51Z</time>
      </trkpt>
      <trkpt lat="4.6298370" lon="-74.2934200">
        <ele>2662.5</ele>
        <time>2018-08-10T17:22:52Z</time>
      </trkpt>
      <trkpt lat="4.6298130" lon="-74.2933770">
        <ele>2662.4</ele>
        <time>2018-08-10T17:22:53Z</time>
      </trkpt>
      <trkpt lat="4.6297930" lon="-74.2933320">
        <ele>2662.3</ele>
        <time>2018-08-10T17:22:54Z</time>
      </trkpt>
      <trkpt lat="4.6297720" lon="-74.2932850">
        <ele>2662.1</ele>
        <time>2018-08-10T17:22:55Z</time>
      </trkpt>
      <trkpt lat="4.6297480" lon="-74.2932380">
        <ele>2662.0</ele>
        <time>2018-08-10T17:22:56Z</time>
      </trkpt>
      <trkpt lat="4.6297270" lon="-74.2931900">
        <ele>2661.9</ele>
        <time>2018-08-10T17:22:57Z</time>
      </trkpt>
      <trkpt lat="4.6297050" lon="-74.2931430">
        <ele>2661.8</ele>
        <time>2018-08-10T17:22:58Z</time>
      </trkpt>
      <trkpt lat="4.6296820" lon="-74.2930980">
        <ele>2661.7</ele>
        <time>2018-08-10T17:22:59Z</time>
      </trkpt>
      <trkpt lat="4.6296620" lon="-74.2930530">
        <ele>2661.6</ele>
        <time>2018-08-10T17:23:00Z</time>
      </trkpt>
      <trkpt lat="4.6296400" lon="-74.2930070">
        <ele>2661.6</ele>
        <time>2018-08-10T17:23:01Z</time>
      </trkpt>
      <trkpt lat="4.6296200" lon="-74.2929620">
        <ele>2661.5</ele>
        <time>2018-08-10T17:23:02Z</time>
      </trkpt>
      <trkpt lat="4.6296000" lon="-74.2929170">
        <ele>2661.5</ele>
        <time>2018-08-10T17:23:03Z</time>
      </trkpt>
      <trkpt lat="4.6295800" lon="-74.2928730">
        <ele>2661.4</ele>
        <time>2018-08-10T17:23:04Z</time>
      </trkpt>
      <trkpt lat="4.6295620" lon="-74.2928330">
        <ele>2661.4</ele>
        <time>2018-08-10T17:23:05Z</time>
      </trkpt>
      <trkpt lat="4.6295380" lon="-74.2927900">
        <ele>2661.3</ele>
        <time>2018-08-10T17:23:06Z</time>
      </trkpt>
      <trkpt lat="4.6295170" lon="-74.2927480">
        <ele>2661.3</ele>
        <time>2018-08-10T17:23:07Z</time>
      </trkpt>
      <trkpt lat="4.6294980" lon="-74.2927030">
        <ele>2661.2</ele>
        <time>2018-08-10T17:23:08Z</time>
      </trkpt>
      <trkpt lat="4.6294780" lon="-74.2926580">
        <ele>2661.1</ele>
        <time>2018-08-10T17:23:09Z</time>
      </trkpt>
      <trkpt lat="4.6294570" lon="-74.2926130">
        <ele>2661.1</ele>
        <time>2018-08-10T17:23:10Z</time>
      </trkpt>
      <trkpt lat="4.6294330" lon="-74.2925630">
        <ele>2661.0</ele>
        <time>2018-08-10T17:23:11Z</time>
      </trkpt>
      <trkpt lat="4.6294130" lon="-74.2925150">
        <ele>2661.0</ele>
        <time>2018-08-10T17:23:12Z</time>
      </trkpt>
      <trkpt lat="4.6293920" lon="-74.2924670">
        <ele>2660.9</ele>
        <time>2018-08-10T17:23:13Z</time>
      </trkpt>
      <trkpt lat="4.6293680" lon="-74.2924170">
        <ele>2660.8</ele>
        <time>2018-08-10T17:23:14Z</time>
      </trkpt>
      <trkpt lat="4.6293400" lon="-74.2923630">
        <ele>2660.6</ele>
        <time>2018-08-10T17:23:15Z</time>
      </trkpt>
      <trkpt lat="4.6293120" lon="-74.2923220">
        <ele>2660.5</ele>
        <time>2018-08-10T17:23:16Z</time>
      </trkpt>
      <trkpt lat="4.6292830" lon="-74.2922800">
        <ele>2660.4</ele>
        <time>2018-08-10T17:23:17Z</time>
      </trkpt>
      <trkpt lat="4.6292520" lon="-74.2922380">
        <ele>2660.2</ele>
        <time>2018-08-10T17:23:18Z</time>
      </trkpt>
      <trkpt lat="4.6292170" lon="-74.2921970">
        <ele>2660.1</ele>
        <time>2018-08-10T17:23:19Z</time>
      </trkpt>
      <trkpt lat="4.6291820" lon="-74.2921580">
        <ele>2659.9</ele>
        <time>2018-08-10T17:23:20Z</time>
      </trkpt>
      <trkpt lat="4.6291450" lon="-74.2921170">
        <ele>2659.8</ele>
        <time>2018-08-10T17:23:21Z</time>
      </trkpt>
      <trkpt lat="4.6291070" lon="-74.2920800">
        <ele>2659.6</ele>
        <time>2018-08-10T17:23:22Z</time>
      </trkpt>
      <trkpt lat="4.6290730" lon="-74.2920450">
        <ele>2659.5</ele>
        <time>2018-08-10T17:23:23Z</time>
      </trkpt>
      <trkpt lat="4.6290400" lon="-74.2920130">
        <ele>2659.5</ele>
        <time>2018-08-10T17:23:24Z</time>
      </trkpt>
      <trkpt lat="4.6290030" lon="-74.2919850">
        <ele>2659.4</ele>
        <time>2018-08-10T17:23:25Z</time>
      </trkpt>
      <trkpt lat="4.6289680" lon="-74.2919550">
        <ele>2659.3</ele>
        <time>2018-08-10T17:23:26Z</time>
      </trkpt>
      <trkpt lat="4.6289350" lon="-74.2919250">
        <ele>2659.2</ele>
        <time>2018-08-10T17:23:27Z</time>
      </trkpt>
      <trkpt lat="4.6289000" lon="-74.2918950">
        <ele>2659.1</ele>
        <time>2018-08-10T17:23:28Z</time>
      </trkpt>
      <trkpt lat="4.6288670" lon="-74.2918650">
        <ele>2658.9</ele>
        <time>2018-08-10T17:23:29Z</time>
      </trkpt>
      <trkpt lat="4.6288300" lon="-74.2918330">
        <ele>2658.8</ele>
        <time>2018-08-10T17:23:30Z</time>
      </trkpt>
      <trkpt lat="4.6287950" lon="-74.2918030">
        <ele>2658.6</ele>
        <time>2018-08-10T17:23:31Z</time>
      </trkpt>
      <trkpt lat="4.6287580" lon="-74.2917730">
        <ele>2658.5</ele>
        <time>2018-08-10T17:23:32Z</time>
      </trkpt>
      <trkpt lat="4.6287200" lon="-74.2917420">
        <ele>2658.3</ele>
        <time>2018-08-10T17:23:33Z</time>
      </trkpt>
      <trkpt lat="4.6286870" lon="-74.2917120">
        <ele>2658.1</ele>
        <time>2018-08-10T17:23:34Z</time>
      </trkpt>
      <trkpt lat="4.6286550" lon="-74.2916830">
        <ele>2657.9</ele>
        <time>2018-08-10T17:23:35Z</time>
      </trkpt>
      <trkpt lat="4.6286220" lon="-74.2916530">
        <ele>2657.7</ele>
        <time>2018-08-10T17:23:36Z</time>
      </trkpt>
      <trkpt lat="4.6285870" lon="-74.2916220">
        <ele>2657.6</ele>
        <time>2018-08-10T17:23:37Z</time>
      </trkpt>
      <trkpt lat="4.6285530" lon="-74.2915900">
        <ele>2657.4</ele>
        <time>2018-08-10T17:23:38Z</time>
      </trkpt>
      <trkpt lat="4.6285220" lon="-74.2915600">
        <ele>2657.3</ele>
        <time>2018-08-10T17:23:39Z</time>
      </trkpt>
      <trkpt lat="4.6284880" lon="-74.2915330">
        <ele>2657.1</ele>
        <time>2018-08-10T17:23:40Z</time>
      </trkpt>
      <trkpt lat="4.6284520" lon="-74.2915070">
        <ele>2657.0</ele>
        <time>2018-08-10T17:23:41Z</time>
      </trkpt>
      <trkpt lat="4.6284150" lon="-74.2914800">
        <ele>2656.7</ele>
        <time>2018-08-10T17:23:42Z</time>
      </trkpt>
      <trkpt lat="4.6283800" lon="-74.2914530">
        <ele>2656.4</ele>
        <time>2018-08-10T17:23:43Z</time>
      </trkpt>
      <trkpt lat="4.6283470" lon="-74.2914220">
        <ele>2656.2</ele>
        <time>2018-08-10T17:23:44Z</time>
      </trkpt>
      <trkpt lat="4.6283050" lon="-74.2913800">
        <ele>2655.9</ele>
        <time>2018-08-10T17:23:45Z</time>
      </trkpt>
      <trkpt lat="4.6282700" lon="-74.2913470">
        <ele>2655.7</ele>
        <time>2018-08-10T17:23:46Z</time>
      </trkpt>
      <trkpt lat="4.6282400" lon="-74.2913070">
        <ele>2655.3</ele>
        <time>2018-08-10T17:23:47Z</time>
      </trkpt>
      <trkpt lat="4.6282070" lon="-74.2912580">
        <ele>2655.0</ele>
        <time>2018-08-10T17:23:48Z</time>
      </trkpt>
      <trkpt lat="4.6281730" lon="-74.2912100">
        <ele>2654.7</ele>
        <time>2018-08-10T17:23:49Z</time>
      </trkpt>
      <trkpt lat="4.6281370" lon="-74.2911620">
        <ele>2654.4</ele>
        <time>2018-08-10T17:23:50Z</time>
      </trkpt>
      <trkpt lat="4.6281000" lon="-74.2911150">
        <ele>2654.0</ele>
        <time>2018-08-10T17:23:51Z</time>
      </trkpt>
      <trkpt lat="4.6280650" lon="-74.2910650">
        <ele>2653.7</ele>
        <time>2018-08-10T17:23:52Z</time>
      </trkpt>
      <trkpt lat="4.6280250" lon="-74.2910150">
        <ele>2653.3</ele>
        <time>2018-08-10T17:23:53Z</time>
      </trkpt>
      <trkpt lat="4.6279830" lon="-74.2909670">
        <ele>2653.0</ele>
        <time>2018-08-10T17:23:54Z</time>
      </trkpt>
      <trkpt lat="4.6279430" lon="-74.2909200">
        <ele>2652.6</ele>
        <time>2018-08-10T17:23:55Z</time>
      </trkpt>
      <trkpt lat="4.6279030" lon="-74.2908720">
        <ele>2652.3</ele>
        <time>2018-08-10T17:23:56Z</time>
      </trkpt>
      <trkpt lat="4.6278630" lon="-74.2908200">
        <ele>2652.0</ele>
        <time>2018-08-10T17:23:57Z</time>
      </trkpt>
      <trkpt lat="4.6278220" lon="-74.2907720">
        <ele>2651.6</ele>
        <time>2018-08-10T17:23:58Z</time>
      </trkpt>
      <trkpt lat="4.6277820" lon="-74.2907250">
        <ele>2651.3</ele>
        <time>2018-08-10T17:23:59Z</time>
      </trkpt>
      <trkpt lat="4.6277400" lon="-74.2906820">
        <ele>2651.0</ele>
        <time>2018-08-10T17:24:00Z</time>
      </trkpt>
      <trkpt lat="4.6277000" lon="-74.2906380">
        <ele>2650.7</ele>
        <time>2018-08-10T17:24:01Z</time>
      </trkpt>
      <trkpt lat="4.6276600" lon="-74.2905950">
        <ele>2650.4</ele>
        <time>2018-08-10T17:24:02Z</time>
      </trkpt>
      <trkpt lat="4.6276220" lon="-74.2905530">
        <ele>2650.1</ele>
        <time>2018-08-10T17:24:03Z</time>
      </trkpt>
      <trkpt lat="4.6275850" lon="-74.2905120">
        <ele>2649.8</ele>
        <time>2018-08-10T17:24:04Z</time>
      </trkpt>
      <trkpt lat="4.6275480" lon="-74.2904700">
        <ele>2649.6</ele>
        <time>2018-08-10T17:24:05Z</time>
      </trkpt>
      <trkpt lat="4.6275150" lon="-74.2904280">
        <ele>2649.4</ele>
        <time>2018-08-10T17:24:06Z</time>
      </trkpt>
      <trkpt lat="4.6274870" lon="-74.2903900">
        <ele>2649.1</ele>
        <time>2018-08-10T17:24:07Z</time>
      </trkpt>
      <trkpt lat="4.6274620" lon="-74.2903580">
        <ele>2649.0</ele>
        <time>2018-08-10T17:24:08Z</time>
      </trkpt>
      <trkpt lat="4.6274380" lon="-74.2903280">
        <ele>2648.8</ele>
        <time>2018-08-10T17:24:09Z</time>
      </trkpt>
      <trkpt lat="4.6274150" lon="-74.2902980">
        <ele>2648.6</ele>
        <time>2018-08-10T17:24:10Z</time>
      </trkpt>
      <trkpt lat="4.6273920" lon="-74.2902680">
        <ele>2648.5</ele>
        <time>2018-08-10T17:24:11Z</time>
      </trkpt>
      <trkpt lat="4.6273680" lon="-74.2902370">
        <ele>2648.3</ele>
        <time>2018-08-10T17:24:12Z</time>
      </trkpt>
      <trkpt lat="4.6273430" lon="-74.2902020">
        <ele>2648.1</ele>
        <time>2018-08-10T17:24:13Z</time>
      </trkpt>
      <trkpt lat="4.6273170" lon="-74.2901680">
        <ele>2647.9</ele>
        <time>2018-08-10T17:24:14Z</time>
      </trkpt>
      <trkpt lat="4.6272900" lon="-74.2901320">
        <ele>2647.7</ele>
        <time>2018-08-10T17:24:15Z</time>
      </trkpt>
      <trkpt lat="4.6272620" lon="-74.2901070">
        <ele>2647.5</ele>
        <time>2018-08-10T17:24:16Z</time>
      </trkpt>
      <trkpt lat="4.6272400" lon="-74.2900700">
        <ele>2647.3</ele>
        <time>2018-08-10T17:24:17Z</time>
      </trkpt>
      <trkpt lat="4.6272130" lon="-74.2900300">
        <ele>2647.1</ele>
        <time>2018-08-10T17:24:18Z</time>
      </trkpt>
      <trkpt lat="4.6271850" lon="-74.2899930">
        <ele>2646.8</ele>
        <time>2018-08-10T17:24:19Z</time>
      </trkpt>
      <trkpt lat="4.6271600" lon="-74.2899520">
        <ele>2646.5</ele>
        <time>2018-08-10T17:24:20Z</time>
      </trkpt>
      <trkpt lat="4.6271370" lon="-74.2899070">
        <ele>2646.2</ele>
        <time>2018-08-10T17:24:21Z</time>
      </trkpt>
      <trkpt lat="4.6271130" lon="-74.2898630">
        <ele>2646.0</ele>
        <time>2018-08-10T17:24:22Z</time>
      </trkpt>
      <trkpt lat="4.6270850" lon="-74.2898170">
        <ele>2645.7</ele>
        <time>2018-08-10T17:24:23Z</time>
      </trkpt>
      <trkpt lat="4.6270550" lon="-74.2897680">
        <ele>2645.3</ele>
        <time>2018-08-10T17:24:24Z</time>
      </trkpt>
      <trkpt lat="4.6270230" lon="-74.2897170">
        <ele>2645.0</ele>
        <time>2018-08-10T17:24:25Z</time>
      </trkpt>
      <trkpt lat="4.6269900" lon="-74.2896620">
        <ele>2644.7</ele>
        <time>2018-08-10T17:24:26Z</time>
      </trkpt>
      <trkpt lat="4.6269550" lon="-74.2896070">
        <ele>2644.3</ele>
        <time>2018-08-10T17:24:27Z</time>
      </trkpt>
      <trkpt lat="4.6269220" lon="-74.2895530">
        <ele>2644.0</ele>
        <time>2018-08-10T17:24:28Z</time>
      </trkpt>
      <trkpt lat="4.6268880" lon="-74.2894980">
        <ele>2643.6</ele>
        <time>2018-08-10T17:24:29Z</time>
      </trkpt>
      <trkpt lat="4.6268570" lon="-74.2894400">
        <ele>2643.3</ele>
        <time>2018-08-10T17:24:30Z</time>
      </trkpt>
      <trkpt lat="4.6268200" lon="-74.2893830">
        <ele>2642.9</ele>
        <time>2018-08-10T17:24:31Z</time>
      </trkpt>
      <trkpt lat="4.6267780" lon="-74.2893250">
        <ele>2642.5</ele>
        <time>2018-08-10T17:24:32Z</time>
      </trkpt>
      <trkpt lat="4.6267350" lon="-74.2892650">
        <ele>2642.1</ele>
        <time>2018-08-10T17:24:33Z</time>
      </trkpt>
      <trkpt lat="4.6266950" lon="-74.2892080">
        <ele>2641.7</ele>
        <time>2018-08-10T17:24:34Z</time>
      </trkpt>
      <trkpt lat="4.6266550" lon="-74.2891500">
        <ele>2641.3</ele>
        <time>2018-08-10T17:24:35Z</time>
      </trkpt>
      <trkpt lat="4.6266150" lon="-74.2890920">
        <ele>2641.0</ele>
        <time>2018-08-10T17:24:36Z</time>
      </trkpt>
      <trkpt lat="4.6265750" lon="-74.2890330">
        <ele>2640.6</ele>
        <time>2018-08-10T17:24:37Z</time>
      </trkpt>
      <trkpt lat="4.6265350" lon="-74.2889750">
        <ele>2640.3</ele>
        <time>2018-08-10T17:24:38Z</time>
      </trkpt>
      <trkpt lat="4.6264930" lon="-74.2889200">
        <ele>2640.0</ele>
        <time>2018-08-10T17:24:39Z</time>
      </trkpt>
      <trkpt lat="4.6264480" lon="-74.2888650">
        <ele>2639.7</ele>
        <time>2018-08-10T17:24:40Z</time>
      </trkpt>
      <trkpt lat="4.6264000" lon="-74.2888100">
        <ele>2639.4</ele>
        <time>2018-08-10T17:24:41Z</time>
      </trkpt>
      <trkpt lat="4.6263500" lon="-74.2887550">
        <ele>2639.0</ele>
        <time>2018-08-10T17:24:42Z</time>
      </trkpt>
      <trkpt lat="4.6262980" lon="-74.2887000">
        <ele>2638.6</ele>
        <time>2018-08-10T17:24:43Z</time>
      </trkpt>
      <trkpt lat="4.6262430" lon="-74.2886470">
        <ele>2638.2</ele>
        <time>2018-08-10T17:24:44Z</time>
      </trkpt>
      <trkpt lat="4.6261850" lon="-74.2885950">
        <ele>2637.7</ele>
        <time>2018-08-10T17:24:45Z</time>
      </trkpt>
      <trkpt lat="4.6261230" lon="-74.2885420">
        <ele>2637.2</ele>
        <time>2018-08-10T17:24:46Z</time>
      </trkpt>
      <trkpt lat="4.6260530" lon="-74.2884900">
        <ele>2636.7</ele>
        <time>2018-08-10T17:24:47Z</time>
      </trkpt>
      <trkpt lat="4.6259880" lon="-74.2884400">
        <ele>2636.3</ele>
        <time>2018-08-10T17:24:48Z</time>
      </trkpt>
      <trkpt lat="4.6259230" lon="-74.2883980">
        <ele>2635.8</ele>
        <time>2018-08-10T17:24:49Z</time>
      </trkpt>
      <trkpt lat="4.6258580" lon="-74.2883580">
        <ele>2635.4</ele>
        <time>2018-08-10T17:24:50Z</time>
      </trkpt>
      <trkpt lat="4.6257930" lon="-74.2883220">
        <ele>2635.0</ele>
        <time>2018-08-10T17:24:51Z</time>
      </trkpt>
      <trkpt lat="4.6257270" lon="-74.2882820">
        <ele>2634.6</ele>
        <time>2018-08-10T17:24:52Z</time>
      </trkpt>
      <trkpt lat="4.6256620" lon="-74.2882450">
        <ele>2634.2</ele>
        <time>2018-08-10T17:24:53Z</time>
      </trkpt>
      <trkpt lat="4.6255970" lon="-74.2882100">
        <ele>2633.8</ele>
        <time>2018-08-10T17:24:54Z</time>
      </trkpt>
      <trkpt lat="4.6255320" lon="-74.2881800">
        <ele>2633.4</ele>
        <time>2018-08-10T17:24:55Z</time>
      </trkpt>
      <trkpt lat="4.6254650" lon="-74.2881470">
        <ele>2633.0</ele>
        <time>2018-08-10T17:24:56Z</time>
      </trkpt>
      <trkpt lat="4.6253980" lon="-74.2881130">
        <ele>2632.7</ele>
        <time>2018-08-10T17:24:57Z</time>
      </trkpt>
      <trkpt lat="4.6253350" lon="-74.2880820">
        <ele>2632.2</ele>
        <time>2018-08-10T17:24:58Z</time>
      </trkpt>
      <trkpt lat="4.6252730" lon="-74.2880500">
        <ele>2631.9</ele>
        <time>2018-08-10T17:24:59Z</time>
      </trkpt>
      <trkpt lat="4.6252120" lon="-74.2880180">
        <ele>2631.5</ele>
        <time>2018-08-10T17:25:00Z</time>
      </trkpt>
      <trkpt lat="4.6251470" lon="-74.2879830">
        <ele>2631.1</ele>
        <time>2018-08-10T17:25:01Z</time>
      </trkpt>
      <trkpt lat="4.6250800" lon="-74.2879480">
        <ele>2630.6</ele>
        <time>2018-08-10T17:25:02Z</time>
      </trkpt>
      <trkpt lat="4.6250100" lon="-74.2879150">
        <ele>2630.1</ele>
        <time>2018-08-10T17:25:03Z</time>
      </trkpt>
      <trkpt lat="4.6249420" lon="-74.2878800">
        <ele>2629.7</ele>
        <time>2018-08-10T17:25:04Z</time>
      </trkpt>
      <trkpt lat="4.6248720" lon="-74.2878450">
        <ele>2629.3</ele>
        <time>2018-08-10T17:25:05Z</time>
      </trkpt>
      <trkpt lat="4.6248020" lon="-74.2878120">
        <ele>2628.8</ele>
        <time>2018-08-10T17:25:06Z</time>
      </trkpt>
      <trkpt lat="4.6247370" lon="-74.2877780">
        <ele>2628.4</ele>
        <time>2018-08-10T17:25:07Z</time>
      </trkpt>
      <trkpt lat="4.6246700" lon="-74.2877420">
        <ele>2627.9</ele>
        <time>2018-08-10T17:25:08Z</time>
      </trkpt>
      <trkpt lat="4.6246050" lon="-74.2877070">
        <ele>2627.5</ele>
        <time>2018-08-10T17:25:09Z</time>
      </trkpt>
      <trkpt lat="4.6245400" lon="-74.2876680">
        <ele>2627.1</ele>
        <time>2018-08-10T17:25:10Z</time>
      </trkpt>
      <trkpt lat="4.6244750" lon="-74.2876270">
        <ele>2626.6</ele>
        <time>2018-08-10T17:25:11Z</time>
      </trkpt>
      <trkpt lat="4.6244120" lon="-74.2875850">
        <ele>2626.2</ele>
        <time>2018-08-10T17:25:12Z</time>
      </trkpt>
      <trkpt lat="4.6243470" lon="-74.2875400">
        <ele>2625.8</ele>
        <time>2018-08-10T17:25:13Z</time>
      </trkpt>
      <trkpt lat="4.6242850" lon="-74.2874930">
        <ele>2625.4</ele>
        <time>2018-08-10T17:25:14Z</time>
      </trkpt>
      <trkpt lat="4.6242280" lon="-74.2874480">
        <ele>2625.0</ele>
        <time>2018-08-10T17:25:15Z</time>
      </trkpt>
      <trkpt lat="4.6241680" lon="-74.2874000">
        <ele>2624.5</ele>
        <time>2018-08-10T17:25:16Z</time>
      </trkpt>
      <trkpt lat="4.6241100" lon="-74.2873500">
        <ele>2624.1</ele>
        <time>2018-08-10T17:25:17Z</time>
      </trkpt>
      <trkpt lat="4.6240470" lon="-74.2873000">
        <ele>2623.6</ele>
        <time>2018-08-10T17:25:18Z</time>
      </trkpt>
      <trkpt lat="4.6239830" lon="-74.2872520">
        <ele>2623.1</ele>
        <time>2018-08-10T17:25:19Z</time>
      </trkpt>
      <trkpt lat="4.6239230" lon="-74.2872050">
        <ele>2622.6</ele>
        <time>2018-08-10T17:25:20Z</time>
      </trkpt>
      <trkpt lat="4.6238670" lon="-74.2871570">
        <ele>2622.2</ele>
        <time>2018-08-10T17:25:21Z</time>
      </trkpt>
      <trkpt lat="4.6238120" lon="-74.2871100">
        <ele>2621.9</ele>
        <time>2018-08-10T17:25:22Z</time>
      </trkpt>
      <trkpt lat="4.6237570" lon="-74.2870620">
        <ele>2621.6</ele>
        <time>2018-08-10T17:25:23Z</time>
      </trkpt>
      <trkpt lat="4.6237020" lon="-74.2870170">
        <ele>2621.2</ele>
        <time>2018-08-10T17:25:24Z</time>
      </trkpt>
      <trkpt lat="4.6236470" lon="-74.2869680">
        <ele>2620.7</ele>
        <time>2018-08-10T17:25:25Z</time>
      </trkpt>
      <trkpt lat="4.6235920" lon="-74.2869200">
        <ele>2620.3</ele>
        <time>2018-08-10T17:25:26Z</time>
      </trkpt>
      <trkpt lat="4.6235350" lon="-74.2868720">
        <ele>2619.9</ele>
        <time>2018-08-10T17:25:27Z</time>
      </trkpt>
      <trkpt lat="4.6234770" lon="-74.2868220">
        <ele>2619.5</ele>
        <time>2018-08-10T17:25:28Z</time>
      </trkpt>
      <trkpt lat="4.6234170" lon="-74.2867730">
        <ele>2619.0</ele>
        <time>2018-08-10T17:25:29Z</time>
      </trkpt>
      <trkpt lat="4.6233530" lon="-74.2867220">
        <ele>2618.6</ele>
        <time>2018-08-10T17:25:30Z</time>
      </trkpt>
      <trkpt lat="4.6232880" lon="-74.2866680">
        <ele>2618.2</ele>
        <time>2018-08-10T17:25:31Z</time>
      </trkpt>
      <trkpt lat="4.6232220" lon="-74.2866170">
        <ele>2617.7</ele>
        <time>2018-08-10T17:25:32Z</time>
      </trkpt>
      <trkpt lat="4.6231570" lon="-74.2865650">
        <ele>2617.3</ele>
        <time>2018-08-10T17:25:33Z</time>
      </trkpt>
      <trkpt lat="4.6230880" lon="-74.2865130">
        <ele>2616.9</ele>
        <time>2018-08-10T17:25:34Z</time>
      </trkpt>
      <trkpt lat="4.6230200" lon="-74.2864600">
        <ele>2616.4</ele>
        <time>2018-08-10T17:25:35Z</time>
      </trkpt>
      <trkpt lat="4.6229550" lon="-74.2864050">
        <ele>2615.9</ele>
        <time>2018-08-10T17:25:36Z</time>
      </trkpt>
      <trkpt lat="4.6228900" lon="-74.2863500">
        <ele>2615.3</ele>
        <time>2018-08-10T17:25:37Z</time>
      </trkpt>
      <trkpt lat="4.6228330" lon="-74.2862950">
        <ele>2614.9</ele>
        <time>2018-08-10T17:25:38Z</time>
      </trkpt>
      <trkpt lat="4.6227800" lon="-74.2862350">
        <ele>2614.4</ele>
        <time>2018-08-10T17:25:39Z</time>
      </trkpt>
      <trkpt lat="4.6227270" lon="-74.2861720">
        <ele>2614.0</ele>
        <time>2018-08-10T17:25:40Z</time>
      </trkpt>
      <trkpt lat="4.6226700" lon="-74.2861070">
        <ele>2613.5</ele>
        <time>2018-08-10T17:25:41Z</time>
      </trkpt>
      <trkpt lat="4.6226150" lon="-74.2860400">
        <ele>2613.0</ele>
        <time>2018-08-10T17:25:42Z</time>
      </trkpt>
      <trkpt lat="4.6225600" lon="-74.2859750">
        <ele>2612.6</ele>
        <time>2018-08-10T17:25:43Z</time>
      </trkpt>
      <trkpt lat="4.6225030" lon="-74.2859120">
        <ele>2612.0</ele>
        <time>2018-08-10T17:25:44Z</time>
      </trkpt>
      <trkpt lat="4.6224430" lon="-74.2858470">
        <ele>2611.5</ele>
        <time>2018-08-10T17:25:45Z</time>
      </trkpt>
      <trkpt lat="4.6223820" lon="-74.2857830">
        <ele>2611.0</ele>
        <time>2018-08-10T17:25:46Z</time>
      </trkpt>
      <trkpt lat="4.6223170" lon="-74.2857180">
        <ele>2610.5</ele>
        <time>2018-08-10T17:25:47Z</time>
      </trkpt>
      <trkpt lat="4.6222570" lon="-74.2856520">
        <ele>2610.1</ele>
        <time>2018-08-10T17:25:48Z</time>
      </trkpt>
      <trkpt lat="4.6221930" lon="-74.2855820">
        <ele>2609.7</ele>
        <time>2018-08-10T17:25:49Z</time>
      </trkpt>
      <trkpt lat="4.6221300" lon="-74.2855070">
        <ele>2609.4</ele>
        <time>2018-08-10T17:25:50Z</time>
      </trkpt>
      <trkpt lat="4.6220670" lon="-74.2854330">
        <ele>2609.1</ele>
        <time>2018-08-10T17:25:51Z</time>
      </trkpt>
      <trkpt lat="4.6220030" lon="-74.2853580">
        <ele>2608.7</ele>
        <time>2018-08-10T17:25:52Z</time>
      </trkpt>
      <trkpt lat="4.6219370" lon="-74.2852850">
        <ele>2608.5</ele>
        <time>2018-08-10T17:25:53Z</time>
      </trkpt>
      <trkpt lat="4.6218700" lon="-74.2852130">
        <ele>2608.3</ele>
        <time>2018-08-10T17:25:54Z</time>
      </trkpt>
      <trkpt lat="4.6218000" lon="-74.2851470">
        <ele>2608.1</ele>
        <time>2018-08-10T17:25:55Z</time>
      </trkpt>
      <trkpt lat="4.6217270" lon="-74.2850850">
        <ele>2607.8</ele>
        <time>2018-08-10T17:25:56Z</time>
      </trkpt>
      <trkpt lat="4.6216500" lon="-74.2850270">
        <ele>2607.6</ele>
        <time>2018-08-10T17:25:57Z</time>
      </trkpt>
      <trkpt lat="4.6215720" lon="-74.2849700">
        <ele>2607.5</ele>
        <time>2018-08-10T17:25:58Z</time>
      </trkpt>
      <trkpt lat="4.6214980" lon="-74.2849200">
        <ele>2607.3</ele>
        <time>2018-08-10T17:25:59Z</time>
      </trkpt>
      <trkpt lat="4.6214270" lon="-74.2848770">
        <ele>2607.3</ele>
        <time>2018-08-10T17:26:00Z</time>
      </trkpt>
      <trkpt lat="4.6213600" lon="-74.2848350">
        <ele>2607.2</ele>
        <time>2018-08-10T17:26:01Z</time>
      </trkpt>
      <trkpt lat="4.6212900" lon="-74.2847930">
        <ele>2607.2</ele>
        <time>2018-08-10T17:26:02Z</time>
      </trkpt>
      <trkpt lat="4.6212150" lon="-74.2847450">
        <ele>2607.1</ele>
        <time>2018-08-10T17:26:03Z</time>
      </trkpt>
      <trkpt lat="4.6211470" lon="-74.2847080">
        <ele>2607.1</ele>
        <time>2018-08-10T17:26:04Z</time>
      </trkpt>
      <trkpt lat="4.6210820" lon="-74.2846720">
        <ele>2607.0</ele>
        <time>2018-08-10T17:26:05Z</time>
      </trkpt>
      <trkpt lat="4.6210180" lon="-74.2846350">
        <ele>2607.0</ele>
        <time>2018-08-10T17:26:06Z</time>
      </trkpt>
      <trkpt lat="4.6209550" lon="-74.2845950">
        <ele>2607.0</ele>
        <time>2018-08-10T17:26:07Z</time>
      </trkpt>
      <trkpt lat="4.6208930" lon="-74.2845580">
        <ele>2606.9</ele>
        <time>2018-08-10T17:26:08Z</time>
      </trkpt>
      <trkpt lat="4.6208280" lon="-74.2845250">
        <ele>2606.9</ele>
        <time>2018-08-10T17:26:09Z</time>
      </trkpt>
      <trkpt lat="4.6207630" lon="-74.2844900">
        <ele>2606.8</ele>
        <time>2018-08-10T17:26:10Z</time>
      </trkpt>
      <trkpt lat="4.6207000" lon="-74.2844550">
        <ele>2606.8</ele>
        <time>2018-08-10T17:26:11Z</time>
      </trkpt>
      <trkpt lat="4.6206330" lon="-74.2844130">
        <ele>2606.7</ele>
        <time>2018-08-10T17:26:12Z</time>
      </trkpt>
      <trkpt lat="4.6205670" lon="-74.2843730">
        <ele>2606.6</ele>
        <time>2018-08-10T17:26:13Z</time>
      </trkpt>
      <trkpt lat="4.6204970" lon="-74.2843350">
        <ele>2606.5</ele>
        <time>2018-08-10T17:26:14Z</time>
      </trkpt>
      <trkpt lat="4.6204270" lon="-74.2842980">
        <ele>2606.4</ele>
        <time>2018-08-10T17:26:15Z</time>
      </trkpt>
      <trkpt lat="4.6203620" lon="-74.2842620">
        <ele>2606.3</ele>
        <time>2018-08-10T17:26:16Z</time>
      </trkpt>
      <trkpt lat="4.6202930" lon="-74.2842230">
        <ele>2606.2</ele>
        <time>2018-08-10T17:26:17Z</time>
      </trkpt>
      <trkpt lat="4.6202230" lon="-74.2841850">
        <ele>2606.1</ele>
        <time>2018-08-10T17:26:18Z</time>
      </trkpt>
      <trkpt lat="4.6201550" lon="-74.2841480">
        <ele>2606.0</ele>
        <time>2018-08-10T17:26:19Z</time>
      </trkpt>
      <trkpt lat="4.6200880" lon="-74.2841120">
        <ele>2605.9</ele>
        <time>2018-08-10T17:26:20Z</time>
      </trkpt>
      <trkpt lat="4.6200230" lon="-74.2840750">
        <ele>2605.9</ele>
        <time>2018-08-10T17:26:21Z</time>
      </trkpt>
      <trkpt lat="4.6199580" lon="-74.2840380">
        <ele>2605.8</ele>
        <time>2018-08-10T17:26:22Z</time>
      </trkpt>
      <trkpt lat="4.6198970" lon="-74.2840020">
        <ele>2605.8</ele>
        <time>2018-08-10T17:26:23Z</time>
      </trkpt>
      <trkpt lat="4.6198330" lon="-74.2839650">
        <ele>2605.7</ele>
        <time>2018-08-10T17:26:24Z</time>
      </trkpt>
      <trkpt lat="4.6197720" lon="-74.2839280">
        <ele>2605.7</ele>
        <time>2018-08-10T17:26:25Z</time>
      </trkpt>
      <trkpt lat="4.6197120" lon="-74.2838920">
        <ele>2605.6</ele>
        <time>2018-08-10T17:26:26Z</time>
      </trkpt>
      <trkpt lat="4.6196520" lon="-74.2838570">
        <ele>2605.6</ele>
        <time>2018-08-10T17:26:27Z</time>
      </trkpt>
      <trkpt lat="4.6195950" lon="-74.2838230">
        <ele>2605.5</ele>
        <time>2018-08-10T17:26:28Z</time>
      </trkpt>
      <trkpt lat="4.6195400" lon="-74.2837930">
        <ele>2605.5</ele>
        <time>2018-08-10T17:26:29Z</time>
      </trkpt>
      <trkpt lat="4.6194830" lon="-74.2837630">
        <ele>2605.4</ele>
        <time>2018-08-10T17:26:30Z</time>
      </trkpt>
      <trkpt lat="4.6194230" lon="-74.2837300">
        <ele>2605.3</ele>
        <time>2018-08-10T17:26:31Z</time>
      </trkpt>
      <trkpt lat="4.6193580" lon="-74.2836980">
        <ele>2605.2</ele>
        <time>2018-08-10T17:26:32Z</time>
      </trkpt>
      <trkpt lat="4.6192950" lon="-74.2836650">
        <ele>2605.1</ele>
        <time>2018-08-10T17:26:33Z</time>
      </trkpt>
      <trkpt lat="4.6192220" lon="-74.2836320">
        <ele>2605.0</ele>
        <time>2018-08-10T17:26:34Z</time>
      </trkpt>
      <trkpt lat="4.6191570" lon="-74.2836000">
        <ele>2604.9</ele>
        <time>2018-08-10T17:26:35Z</time>
      </trkpt>
      <trkpt lat="4.6190920" lon="-74.2835730">
        <ele>2604.8</ele>
        <time>2018-08-10T17:26:36Z</time>
      </trkpt>
      <trkpt lat="4.6190270" lon="-74.2835400">
        <ele>2604.7</ele>
        <time>2018-08-10T17:26:37Z</time>
      </trkpt>
      <trkpt lat="4.6189620" lon="-74.2835080">
        <ele>2604.6</ele>
        <time>2018-08-10T17:26:38Z</time>
      </trkpt>
      <trkpt lat="4.6189020" lon="-74.2834750">
        <ele>2604.6</ele>
        <time>2018-08-10T17:26:39Z</time>
      </trkpt>
      <trkpt lat="4.6188420" lon="-74.2834400">
        <ele>2604.5</ele>
        <time>2018-08-10T17:26:40Z</time>
      </trkpt>
      <trkpt lat="4.6187870" lon="-74.2834070">
        <ele>2604.5</ele>
        <time>2018-08-10T17:26:41Z</time>
      </trkpt>
      <trkpt lat="4.6187300" lon="-74.2833730">
        <ele>2604.5</ele>
        <time>2018-08-10T17:26:42Z</time>
      </trkpt>
      <trkpt lat="4.6186730" lon="-74.2833420">
        <ele>2604.4</ele>
        <time>2018-08-10T17:26:43Z</time>
      </trkpt>
      <trkpt lat="4.6186180" lon="-74.2833120">
        <ele>2604.4</ele>
        <time>2018-08-10T17:26:44Z</time>
      </trkpt>
      <trkpt lat="4.6185630" lon="-74.2832820">
        <ele>2604.4</ele>
        <time>2018-08-10T17:26:45Z</time>
      </trkpt>
      <trkpt lat="4.6185080" lon="-74.2832550">
        <ele>2604.4</ele>
        <time>2018-08-10T17:26:46Z</time>
      </trkpt>
      <trkpt lat="4.6184530" lon="-74.2832270">
        <ele>2604.4</ele>
        <time>2018-08-10T17:26:47Z</time>
      </trkpt>
      <trkpt lat="4.6184000" lon="-74.2831970">
        <ele>2604.4</ele>
        <time>2018-08-10T17:26:48Z</time>
      </trkpt>
      <trkpt lat="4.6183450" lon="-74.2831630">
        <ele>2604.3</ele>
        <time>2018-08-10T17:26:49Z</time>
      </trkpt>
      <trkpt lat="4.6182870" lon="-74.2831270">
        <ele>2604.3</ele>
        <time>2018-08-10T17:26:50Z</time>
      </trkpt>
      <trkpt lat="4.6182280" lon="-74.2830920">
        <ele>2604.3</ele>
        <time>2018-08-10T17:26:51Z</time>
      </trkpt>
      <trkpt lat="4.6181700" lon="-74.2830570">
        <ele>2604.3</ele>
        <time>2018-08-10T17:26:52Z</time>
      </trkpt>
      <trkpt lat="4.6181080" lon="-74.2830250">
        <ele>2604.2</ele>
        <time>2018-08-10T17:26:53Z</time>
      </trkpt>
      <trkpt lat="4.6180470" lon="-74.2829950">
        <ele>2604.2</ele>
        <time>2018-08-10T17:26:54Z</time>
      </trkpt>
      <trkpt lat="4.6179850" lon="-74.2829620">
        <ele>2604.1</ele>
        <time>2018-08-10T17:26:55Z</time>
      </trkpt>
      <trkpt lat="4.6179250" lon="-74.2829280">
        <ele>2604.1</ele>
        <time>2018-08-10T17:26:56Z</time>
      </trkpt>
      <trkpt lat="4.6178620" lon="-74.2828930">
        <ele>2604.0</ele>
        <time>2018-08-10T17:26:57Z</time>
      </trkpt>
      <trkpt lat="4.6178020" lon="-74.2828620">
        <ele>2604.0</ele>
        <time>2018-08-10T17:26:58Z</time>
      </trkpt>
      <trkpt lat="4.6177420" lon="-74.2828280">
        <ele>2603.9</ele>
        <time>2018-08-10T17:26:59Z</time>
      </trkpt>
      <trkpt lat="4.6176830" lon="-74.2828000">
        <ele>2603.9</ele>
        <time>2018-08-10T17:27:00Z</time>
      </trkpt>
      <trkpt lat="4.6176230" lon="-74.2827700">
        <ele>2603.8</ele>
        <time>2018-08-10T17:27:01Z</time>
      </trkpt>
      <trkpt lat="4.6175670" lon="-74.2827400">
        <ele>2603.7</ele>
        <time>2018-08-10T17:27:02Z</time>
      </trkpt>
      <trkpt lat="4.6175080" lon="-74.2827100">
        <ele>2603.7</ele>
        <time>2018-08-10T17:27:03Z</time>
      </trkpt>
      <trkpt lat="4.6174500" lon="-74.2826820">
        <ele>2603.7</ele>
        <time>2018-08-10T17:27:04Z</time>
      </trkpt>
      <trkpt lat="4.6173820" lon="-74.2826470">
        <ele>2603.6</ele>
        <time>2018-08-10T17:27:05Z</time>
      </trkpt>
      <trkpt lat="4.6173180" lon="-74.2826170">
        <ele>2603.6</ele>
        <time>2018-08-10T17:27:06Z</time>
      </trkpt>
      <trkpt lat="4.6172550" lon="-74.2825930">
        <ele>2603.6</ele>
        <time>2018-08-10T17:27:07Z</time>
      </trkpt>
      <trkpt lat="4.6171920" lon="-74.2825730">
        <ele>2603.6</ele>
        <time>2018-08-10T17:27:08Z</time>
      </trkpt>
      <trkpt lat="4.6171250" lon="-74.2825550">
        <ele>2603.5</ele>
        <time>2018-08-10T17:27:09Z</time>
      </trkpt>
      <trkpt lat="4.6170580" lon="-74.2825420">
        <ele>2603.5</ele>
        <time>2018-08-10T17:27:10Z</time>
      </trkpt>
      <trkpt lat="4.6169920" lon="-74.2825320">
        <ele>2603.5</ele>
        <time>2018-08-10T17:27:11Z</time>
      </trkpt>
      <trkpt lat="4.6169220" lon="-74.2825250">
        <ele>2603.5</ele>
        <time>2018-08-10T17:27:12Z</time>
      </trkpt>
      <trkpt lat="4.6168520" lon="-74.2825180">
        <ele>2603.5</ele>
        <time>2018-08-10T17:27:13Z</time>
      </trkpt>
      <trkpt lat="4.6167820" lon="-74.2825150">
        <ele>2603.6</ele>
        <time>2018-08-10T17:27:14Z</time>
      </trkpt>
      <trkpt lat="4.6167130" lon="-74.2825150">
        <ele>2603.6</ele>
        <time>2018-08-10T17:27:15Z</time>
      </trkpt>
      <trkpt lat="4.6166470" lon="-74.2825170">
        <ele>2603.6</ele>
        <time>2018-08-10T17:27:16Z</time>
      </trkpt>
      <trkpt lat="4.6165830" lon="-74.2825220">
        <ele>2603.6</ele>
        <time>2018-08-10T17:27:17Z</time>
      </trkpt>
      <trkpt lat="4.6165180" lon="-74.2825270">
        <ele>2603.6</ele>
        <time>2018-08-10T17:27:18Z</time>
      </trkpt>
      <trkpt lat="4.6164530" lon="-74.2825350">
        <ele>2603.6</ele>
        <time>2018-08-10T17:27:19Z</time>
      </trkpt>
      <trkpt lat="4.6163950" lon="-74.2825430">
        <ele>2603.6</ele>
        <time>2018-08-10T17:27:20Z</time>
      </trkpt>
      <trkpt lat="4.6163280" lon="-74.2825500">
        <ele>2603.7</ele>
        <time>2018-08-10T17:27:21Z</time>
      </trkpt>
      <trkpt lat="4.6162680" lon="-74.2825550">
        <ele>2603.7</ele>
        <time>2018-08-10T17:27:22Z</time>
      </trkpt>
      <trkpt lat="4.6162000" lon="-74.2825550">
        <ele>2603.7</ele>
        <time>2018-08-10T17:27:23Z</time>
      </trkpt>
      <trkpt lat="4.6161370" lon="-74.2825570">
        <ele>2603.7</ele>
        <time>2018-08-10T17:27:24Z</time>
      </trkpt>
      <trkpt lat="4.6160720" lon="-74.2825620">
        <ele>2603.7</ele>
        <time>2018-08-10T17:27:25Z</time>
      </trkpt>
      <trkpt lat="4.6160080" lon="-74.2825670">
        <ele>2603.8</ele>
        <time>2018-08-10T17:27:26Z</time>
      </trkpt>
      <trkpt lat="4.6159450" lon="-74.2825720">
        <ele>2603.8</ele>
        <time>2018-08-10T17:27:27Z</time>
      </trkpt>
      <trkpt lat="4.6158830" lon="-74.2825780">
        <ele>2603.8</ele>
        <time>2018-08-10T17:27:28Z</time>
      </trkpt>
      <trkpt lat="4.6158180" lon="-74.2825850">
        <ele>2603.8</ele>
        <time>2018-08-10T17:27:29Z</time>
      </trkpt>
      <trkpt lat="4.6157550" lon="-74.2825930">
        <ele>2603.9</ele>
        <time>2018-08-10T17:27:30Z</time>
      </trkpt>
      <trkpt lat="4.6156920" lon="-74.2826020">
        <ele>2603.9</ele>
        <time>2018-08-10T17:27:31Z</time>
      </trkpt>
      <trkpt lat="4.6156280" lon="-74.2826070">
        <ele>2603.9</ele>
        <time>2018-08-10T17:27:32Z</time>
      </trkpt>
      <trkpt lat="4.6155670" lon="-74.2826100">
        <ele>2603.9</ele>
        <time>2018-08-10T17:27:33Z</time>
      </trkpt>
      <trkpt lat="4.6155020" lon="-74.2826130">
        <ele>2603.9</ele>
        <time>2018-08-10T17:27:34Z</time>
      </trkpt>
      <trkpt lat="4.6154350" lon="-74.2826170">
        <ele>2604.0</ele>
        <time>2018-08-10T17:27:35Z</time>
      </trkpt>
      <trkpt lat="4.6153650" lon="-74.2826170">
        <ele>2604.0</ele>
        <time>2018-08-10T17:27:36Z</time>
      </trkpt>
      <trkpt lat="4.6152950" lon="-74.2826170">
        <ele>2603.9</ele>
        <time>2018-08-10T17:27:37Z</time>
      </trkpt>
      <trkpt lat="4.6152150" lon="-74.2826170">
        <ele>2603.8</ele>
        <time>2018-08-10T17:27:38Z</time>
      </trkpt>
      <trkpt lat="4.6151400" lon="-74.2826200">
        <ele>2603.7</ele>
        <time>2018-08-10T17:27:39Z</time>
      </trkpt>
      <trkpt lat="4.6150700" lon="-74.2826270">
        <ele>2603.7</ele>
        <time>2018-08-10T17:27:40Z</time>
      </trkpt>
      <trkpt lat="4.6150020" lon="-74.2826320">
        <ele>2603.6</ele>
        <time>2018-08-10T17:27:41Z</time>
      </trkpt>
      <trkpt lat="4.6149350" lon="-74.2826370">
        <ele>2603.5</ele>
        <time>2018-08-10T17:27:42Z</time>
      </trkpt>
      <trkpt lat="4.6148700" lon="-74.2826420">
        <ele>2603.4</ele>
        <time>2018-08-10T17:27:43Z</time>
      </trkpt>
      <trkpt lat="4.6148100" lon="-74.2826450">
        <ele>2603.4</ele>
        <time>2018-08-10T17:27:44Z</time>
      </trkpt>
      <trkpt lat="4.6147530" lon="-74.2826500">
        <ele>2603.3</ele>
        <time>2018-08-10T17:27:45Z</time>
      </trkpt>
      <trkpt lat="4.6146930" lon="-74.2826550">
        <ele>2603.2</ele>
        <time>2018-08-10T17:27:46Z</time>
      </trkpt>
      <trkpt lat="4.6146380" lon="-74.2826600">
        <ele>2603.1</ele>
        <time>2018-08-10T17:27:47Z</time>
      </trkpt>
      <trkpt lat="4.6145850" lon="-74.2826630">
        <ele>2603.1</ele>
        <time>2018-08-10T17:27:48Z</time>
      </trkpt>
      <trkpt lat="4.6145350" lon="-74.2826650">
        <ele>2603.0</ele>
        <time>2018-08-10T17:27:49Z</time>
      </trkpt>
      <trkpt lat="4.6144830" lon="-74.2826670">
        <ele>2602.9</ele>
        <time>2018-08-10T17:27:50Z</time>
      </trkpt>
      <trkpt lat="4.6144370" lon="-74.2826680">
        <ele>2602.9</ele>
        <time>2018-08-10T17:27:51Z</time>
      </trkpt>
      <trkpt lat="4.6143900" lon="-74.2826630">
        <ele>2602.8</ele>
        <time>2018-08-10T17:27:52Z</time>
      </trkpt>
      <trkpt lat="4.6143470" lon="-74.2826570">
        <ele>2602.7</ele>
        <time>2018-08-10T17:27:53Z</time>
      </trkpt>
      <trkpt lat="4.6143020" lon="-74.2826480">
        <ele>2602.7</ele>
        <time>2018-08-10T17:27:54Z</time>
      </trkpt>
      <trkpt lat="4.6142580" lon="-74.2826370">
        <ele>2602.6</ele>
        <time>2018-08-10T17:27:55Z</time>
      </trkpt>
      <trkpt lat="4.6142130" lon="-74.2826230">
        <ele>2602.5</ele>
        <time>2018-08-10T17:27:56Z</time>
      </trkpt>
      <trkpt lat="4.6141650" lon="-74.2826120">
        <ele>2602.4</ele>
        <time>2018-08-10T17:27:57Z</time>
      </trkpt>
      <trkpt lat="4.6141130" lon="-74.2826000">
        <ele>2602.3</ele>
        <time>2018-08-10T17:27:58Z</time>
      </trkpt>
      <trkpt lat="4.6140600" lon="-74.2825880">
        <ele>2602.2</ele>
        <time>2018-08-10T17:27:59Z</time>
      </trkpt>
      <trkpt lat="4.6140030" lon="-74.2825770">
        <ele>2602.1</ele>
        <time>2018-08-10T17:28:00Z</time>
      </trkpt>
      <trkpt lat="4.6139430" lon="-74.2825630">
        <ele>2602.0</ele>
        <time>2018-08-10T17:28:01Z</time>
      </trkpt>
      <trkpt lat="4.6138880" lon="-74.2825500">
        <ele>2601.9</ele>
        <time>2018-08-10T17:28:02Z</time>
      </trkpt>
      <trkpt lat="4.6138320" lon="-74.2825370">
        <ele>2601.8</ele>
        <time>2018-08-10T17:28:03Z</time>
      </trkpt>
      <trkpt lat="4.6137730" lon="-74.2825280">
        <ele>2601.7</ele>
        <time>2018-08-10T17:28:04Z</time>
      </trkpt>
      <trkpt lat="4.6137080" lon="-74.2825180">
        <ele>2601.6</ele>
        <time>2018-08-10T17:28:05Z</time>
      </trkpt>
      <trkpt lat="4.6136480" lon="-74.2825100">
        <ele>2601.5</ele>
        <time>2018-08-10T17:28:06Z</time>
      </trkpt>
      <trkpt lat="4.6135730" lon="-74.2825000">
        <ele>2601.4</ele>
        <time>2018-08-10T17:28:07Z</time>
      </trkpt>
      <trkpt lat="4.6135070" lon="-74.2825000">
        <ele>2601.3</ele>
        <time>2018-08-10T17:28:08Z</time>
      </trkpt>
      <trkpt lat="4.6134400" lon="-74.2824970">
        <ele>2601.2</ele>
        <time>2018-08-10T17:28:09Z</time>
      </trkpt>
      <trkpt lat="4.6133730" lon="-74.2824950">
        <ele>2601.1</ele>
        <time>2018-08-10T17:28:10Z</time>
      </trkpt>
      <trkpt lat="4.6133070" lon="-74.2824970">
        <ele>2600.7</ele>
        <time>2018-08-10T17:28:11Z</time>
      </trkpt>
      <trkpt lat="4.6132450" lon="-74.2824950">
        <ele>2600.4</ele>
        <time>2018-08-10T17:28:12Z</time>
      </trkpt>
      <trkpt lat="4.6131830" lon="-74.2824920">
        <ele>2600.2</ele>
        <time>2018-08-10T17:28:13Z</time>
      </trkpt>
      <trkpt lat="4.6131180" lon="-74.2824930">
        <ele>2600.0</ele>
        <time>2018-08-10T17:28:14Z</time>
      </trkpt>
      <trkpt lat="4.6130570" lon="-74.2824970">
        <ele>2599.8</ele>
        <time>2018-08-10T17:28:15Z</time>
      </trkpt>
      <trkpt lat="4.6129970" lon="-74.2824950">
        <ele>2599.7</ele>
        <time>2018-08-10T17:28:16Z</time>
      </trkpt>
      <trkpt lat="4.6129420" lon="-74.2824870">
        <ele>2599.5</ele>
        <time>2018-08-10T17:28:17Z</time>
      </trkpt>
      <trkpt lat="4.6128850" lon="-74.2824800">
        <ele>2599.4</ele>
        <time>2018-08-10T17:28:18Z</time>
      </trkpt>
      <trkpt lat="4.6128280" lon="-74.2824780">
        <ele>2599.2</ele>
        <time>2018-08-10T17:28:19Z</time>
      </trkpt>
      <trkpt lat="4.6127670" lon="-74.2824780">
        <ele>2599.0</ele>
        <time>2018-08-10T17:28:20Z</time>
      </trkpt>
      <trkpt lat="4.6127000" lon="-74.2824820">
        <ele>2598.8</ele>
        <time>2018-08-10T17:28:21Z</time>
      </trkpt>
      <trkpt lat="4.6126330" lon="-74.2824830">
        <ele>2598.6</ele>
        <time>2018-08-10T17:28:22Z</time>
      </trkpt>
      <trkpt lat="4.6125770" lon="-74.2824850">
        <ele>2598.5</ele>
        <time>2018-08-10T17:28:23Z</time>
      </trkpt>
      <trkpt lat="4.6125200" lon="-74.2824870">
        <ele>2598.2</ele>
        <time>2018-08-10T17:28:24Z</time>
      </trkpt>
      <trkpt lat="4.6124620" lon="-74.2824880">
        <ele>2597.9</ele>
        <time>2018-08-10T17:28:25Z</time>
      </trkpt>
      <trkpt lat="4.6124050" lon="-74.2824870">
        <ele>2597.6</ele>
        <time>2018-08-10T17:28:26Z</time>
      </trkpt>
      <trkpt lat="4.6123470" lon="-74.2824850">
        <ele>2597.3</ele>
        <time>2018-08-10T17:28:27Z</time>
      </trkpt>
      <trkpt lat="4.6122750" lon="-74.2824880">
        <ele>2596.9</ele>
        <time>2018-08-10T17:28:28Z</time>
      </trkpt>
      <trkpt lat="4.6122020" lon="-74.2824900">
        <ele>2596.5</ele>
        <time>2018-08-10T17:28:29Z</time>
      </trkpt>
      <trkpt lat="4.6121380" lon="-74.2824920">
        <ele>2596.1</ele>
        <time>2018-08-10T17:28:30Z</time>
      </trkpt>
      <trkpt lat="4.6120720" lon="-74.2824970">
        <ele>2595.8</ele>
        <time>2018-08-10T17:28:31Z</time>
      </trkpt>
      <trkpt lat="4.6120070" lon="-74.2825020">
        <ele>2595.4</ele>
        <time>2018-08-10T17:28:32Z</time>
      </trkpt>
      <trkpt lat="4.6119430" lon="-74.2825080">
        <ele>2595.1</ele>
        <time>2018-08-10T17:28:33Z</time>
      </trkpt>
      <trkpt lat="4.6118770" lon="-74.2825150">
        <ele>2594.7</ele>
        <time>2018-08-10T17:28:34Z</time>
      </trkpt>
      <trkpt lat="4.6118100" lon="-74.2825180">
        <ele>2594.5</ele>
        <time>2018-08-10T17:28:35Z</time>
      </trkpt>
      <trkpt lat="4.6117400" lon="-74.2825170">
        <ele>2594.3</ele>
        <time>2018-08-10T17:28:36Z</time>
      </trkpt>
      <trkpt lat="4.6116680" lon="-74.2825180">
        <ele>2594.0</ele>
        <time>2018-08-10T17:28:37Z</time>
      </trkpt>
      <trkpt lat="4.6115930" lon="-74.2825130">
        <ele>2593.8</ele>
        <time>2018-08-10T17:28:38Z</time>
      </trkpt>
      <trkpt lat="4.6115270" lon="-74.2825080">
        <ele>2593.6</ele>
        <time>2018-08-10T17:28:39Z</time>
      </trkpt>
      <trkpt lat="4.6114570" lon="-74.2825150">
        <ele>2593.3</ele>
        <time>2018-08-10T17:28:40Z</time>
      </trkpt>
      <trkpt lat="4.6113800" lon="-74.2825250">
        <ele>2592.9</ele>
        <time>2018-08-10T17:28:41Z</time>
      </trkpt>
      <trkpt lat="4.6113030" lon="-74.2825350">
        <ele>2592.5</ele>
        <time>2018-08-10T17:28:42Z</time>
      </trkpt>
      <trkpt lat="4.6112170" lon="-74.2825430">
        <ele>2592.1</ele>
        <time>2018-08-10T17:28:43Z</time>
      </trkpt>
      <trkpt lat="4.6111320" lon="-74.2825480">
        <ele>2591.7</ele>
        <time>2018-08-10T17:28:44Z</time>
      </trkpt>
      <trkpt lat="4.6110520" lon="-74.2825520">
        <ele>2591.4</ele>
        <time>2018-08-10T17:28:45Z</time>
      </trkpt>
      <trkpt lat="4.6109720" lon="-74.2825530">
        <ele>2591.1</ele>
        <time>2018-08-10T17:28:46Z</time>
      </trkpt>
      <trkpt lat="4.6108920" lon="-74.2825600">
        <ele>2590.8</ele>
        <time>2018-08-10T17:28:47Z</time>
      </trkpt>
      <trkpt lat="4.6108150" lon="-74.2825650">
        <ele>2590.6</ele>
        <time>2018-08-10T17:28:48Z</time>
      </trkpt>
      <trkpt lat="4.6107350" lon="-74.2825720">
        <ele>2590.3</ele>
        <time>2018-08-10T17:28:49Z</time>
      </trkpt>
      <trkpt lat="4.6106600" lon="-74.2825780">
        <ele>2590.1</ele>
        <time>2018-08-10T17:28:50Z</time>
      </trkpt>
      <trkpt lat="4.6105920" lon="-74.2825820">
        <ele>2590.0</ele>
        <time>2018-08-10T17:28:51Z</time>
      </trkpt>
      <trkpt lat="4.6105120" lon="-74.2825830">
        <ele>2589.8</ele>
        <time>2018-08-10T17:28:52Z</time>
      </trkpt>
      <trkpt lat="4.6104320" lon="-74.2825780">
        <ele>2589.7</ele>
        <time>2018-08-10T17:28:53Z</time>
      </trkpt>
      <trkpt lat="4.6103550" lon="-74.2825670">
        <ele>2589.5</ele>
        <time>2018-08-10T17:28:54Z</time>
      </trkpt>
      <trkpt lat="4.6102800" lon="-74.2825520">
        <ele>2589.4</ele>
        <time>2018-08-10T17:28:55Z</time>
      </trkpt>
      <trkpt lat="4.6102120" lon="-74.2825320">
        <ele>2589.2</ele>
        <time>2018-08-10T17:28:56Z</time>
      </trkpt>
      <trkpt lat="4.6101380" lon="-74.2825100">
        <ele>2589.0</ele>
        <time>2018-08-10T17:28:57Z</time>
      </trkpt>
      <trkpt lat="4.6100650" lon="-74.2824820">
        <ele>2588.9</ele>
        <time>2018-08-10T17:28:58Z</time>
      </trkpt>
      <trkpt lat="4.6099930" lon="-74.2824530">
        <ele>2588.8</ele>
        <time>2018-08-10T17:28:59Z</time>
      </trkpt>
      <trkpt lat="4.6099230" lon="-74.2824220">
        <ele>2588.7</ele>
        <time>2018-08-10T17:29:00Z</time>
      </trkpt>
      <trkpt lat="4.6098550" lon="-74.2823920">
        <ele>2588.6</ele>
        <time>2018-08-10T17:29:01Z</time>
      </trkpt>
      <trkpt lat="4.6097880" lon="-74.2823630">
        <ele>2588.5</ele>
        <time>2018-08-10T17:29:02Z</time>
      </trkpt>
      <trkpt lat="4.6097180" lon="-74.2823330">
        <ele>2588.4</ele>
        <time>2018-08-10T17:29:03Z</time>
      </trkpt>
      <trkpt lat="4.6096520" lon="-74.2823080">
        <ele>2588.3</ele>
        <time>2018-08-10T17:29:04Z</time>
      </trkpt>
      <trkpt lat="4.6095850" lon="-74.2822780">
        <ele>2588.3</ele>
        <time>2018-08-10T17:29:05Z</time>
      </trkpt>
      <trkpt lat="4.6095200" lon="-74.2822450">
        <ele>2588.2</ele>
        <time>2018-08-10T17:29:06Z</time>
      </trkpt>
      <trkpt lat="4.6094600" lon="-74.2822120">
        <ele>2588.1</ele>
        <time>2018-08-10T17:29:07Z</time>
      </trkpt>
      <trkpt lat="4.6094020" lon="-74.2821820">
        <ele>2588.0</ele>
        <time>2018-08-10T17:29:08Z</time>
      </trkpt>
      <trkpt lat="4.6093380" lon="-74.2821470">
        <ele>2588.0</ele>
        <time>2018-08-10T17:29:09Z</time>
      </trkpt>
      <trkpt lat="4.6092850" lon="-74.2821200">
        <ele>2587.9</ele>
        <time>2018-08-10T17:29:10Z</time>
      </trkpt>
      <trkpt lat="4.6092370" lon="-74.2820920">
        <ele>2587.8</ele>
        <time>2018-08-10T17:29:11Z</time>
      </trkpt>
      <trkpt lat="4.6091880" lon="-74.2820670">
        <ele>2587.8</ele>
        <time>2018-08-10T17:29:12Z</time>
      </trkpt>
      <trkpt lat="4.6091370" lon="-74.2820380">
        <ele>2587.7</ele>
        <time>2018-08-10T17:29:13Z</time>
      </trkpt>
      <trkpt lat="4.6090830" lon="-74.2820120">
        <ele>2587.7</ele>
        <time>2018-08-10T17:29:14Z</time>
      </trkpt>
      <trkpt lat="4.6090300" lon="-74.2819850">
        <ele>2587.6</ele>
        <time>2018-08-10T17:29:15Z</time>
      </trkpt>
      <trkpt lat="4.6089830" lon="-74.2819650">
        <ele>2587.6</ele>
        <time>2018-08-10T17:29:16Z</time>
      </trkpt>
      <trkpt lat="4.6089280" lon="-74.2819370">
        <ele>2587.5</ele>
        <time>2018-08-10T17:29:17Z</time>
      </trkpt>
      <trkpt lat="4.6088750" lon="-74.2818980">
        <ele>2587.4</ele>
        <time>2018-08-10T17:29:18Z</time>
      </trkpt>
      <trkpt lat="4.6088200" lon="-74.2818650">
        <ele>2587.4</ele>
        <time>2018-08-10T17:29:19Z</time>
      </trkpt>
      <trkpt lat="4.6087670" lon="-74.2818350">
        <ele>2587.3</ele>
        <time>2018-08-10T17:29:20Z</time>
      </trkpt>
      <trkpt lat="4.6087100" lon="-74.2818020">
        <ele>2587.3</ele>
        <time>2018-08-10T17:29:21Z</time>
      </trkpt>
      <trkpt lat="4.6086530" lon="-74.2817670">
        <ele>2587.2</ele>
        <time>2018-08-10T17:29:22Z</time>
      </trkpt>
      <trkpt lat="4.6085900" lon="-74.2817370">
        <ele>2587.2</ele>
        <time>2018-08-10T17:29:23Z</time>
      </trkpt>
      <trkpt lat="4.6085270" lon="-74.2817100">
        <ele>2587.1</ele>
        <time>2018-08-10T17:29:24Z</time>
      </trkpt>
      <trkpt lat="4.6084680" lon="-74.2816820">
        <ele>2587.0</ele>
        <time>2018-08-10T17:29:25Z</time>
      </trkpt>
      <trkpt lat="4.6084130" lon="-74.2816570">
        <ele>2587.0</ele>
        <time>2018-08-10T17:29:26Z</time>
      </trkpt>
      <trkpt lat="4.6083600" lon="-74.2816300">
        <ele>2586.9</ele>
        <time>2018-08-10T17:29:27Z</time>
      </trkpt>
      <trkpt lat="4.6083070" lon="-74.2815980">
        <ele>2586.9</ele>
        <time>2018-08-10T17:29:28Z</time>
      </trkpt>
      <trkpt lat="4.6082550" lon="-74.2815670">
        <ele>2586.8</ele>
        <time>2018-08-10T17:29:29Z</time>
      </trkpt>
      <trkpt lat="4.6082030" lon="-74.2815380">
        <ele>2586.7</ele>
        <time>2018-08-10T17:29:30Z</time>
      </trkpt>
      <trkpt lat="4.6081520" lon="-74.2815120">
        <ele>2586.6</ele>
        <time>2018-08-10T17:29:31Z</time>
      </trkpt>
      <trkpt lat="4.6081000" lon="-74.2814820">
        <ele>2586.5</ele>
        <time>2018-08-10T17:29:32Z</time>
      </trkpt>
      <trkpt lat="4.6080480" lon="-74.2814530">
        <ele>2586.5</ele>
        <time>2018-08-10T17:29:33Z</time>
      </trkpt>
      <trkpt lat="4.6079900" lon="-74.2814280">
        <ele>2586.4</ele>
        <time>2018-08-10T17:29:34Z</time>
      </trkpt>
      <trkpt lat="4.6079330" lon="-74.2813970">
        <ele>2586.3</ele>
        <time>2018-08-10T17:29:35Z</time>
      </trkpt>
      <trkpt lat="4.6078780" lon="-74.2813650">
        <ele>2586.3</ele>
        <time>2018-08-10T17:29:36Z</time>
      </trkpt>
      <trkpt lat="4.6078280" lon="-74.2813330">
        <ele>2586.2</ele>
        <time>2018-08-10T17:29:37Z</time>
      </trkpt>
      <trkpt lat="4.6077750" lon="-74.2812980">
        <ele>2586.2</ele>
        <time>2018-08-10T17:29:38Z</time>
      </trkpt>
      <trkpt lat="4.6077250" lon="-74.2812670">
        <ele>2586.1</ele>
        <time>2018-08-10T17:29:39Z</time>
      </trkpt>
      <trkpt lat="4.6076650" lon="-74.2812370">
        <ele>2586.0</ele>
        <time>2018-08-10T17:29:40Z</time>
      </trkpt>
      <trkpt lat="4.6076030" lon="-74.2812070">
        <ele>2585.9</ele>
        <time>2018-08-10T17:29:41Z</time>
      </trkpt>
      <trkpt lat="4.6075470" lon="-74.2811800">
        <ele>2585.9</ele>
        <time>2018-08-10T17:29:42Z</time>
      </trkpt>
      <trkpt lat="4.6074830" lon="-74.2811500">
        <ele>2585.8</ele>
        <time>2018-08-10T17:29:43Z</time>
      </trkpt>
      <trkpt lat="4.6074270" lon="-74.2811200">
        <ele>2585.7</ele>
        <time>2018-08-10T17:29:44Z</time>
      </trkpt>
      <trkpt lat="4.6073720" lon="-74.2810920">
        <ele>2585.6</ele>
        <time>2018-08-10T17:29:45Z</time>
      </trkpt>
      <trkpt lat="4.6073130" lon="-74.2810630">
        <ele>2585.4</ele>
        <time>2018-08-10T17:29:46Z</time>
      </trkpt>
      <trkpt lat="4.6072550" lon="-74.2810370">
        <ele>2585.2</ele>
        <time>2018-08-10T17:29:47Z</time>
      </trkpt>
      <trkpt lat="4.6071930" lon="-74.2810070">
        <ele>2585.1</ele>
        <time>2018-08-10T17:29:48Z</time>
      </trkpt>
      <trkpt lat="4.6071320" lon="-74.2809800">
        <ele>2584.9</ele>
        <time>2018-08-10T17:29:49Z</time>
      </trkpt>
      <trkpt lat="4.6070750" lon="-74.2809570">
        <ele>2584.7</ele>
        <time>2018-08-10T17:29:50Z</time>
      </trkpt>
      <trkpt lat="4.6070180" lon="-74.2809320">
        <ele>2584.5</ele>
        <time>2018-08-10T17:29:51Z</time>
      </trkpt>
      <trkpt lat="4.6069670" lon="-74.2809080">
        <ele>2584.3</ele>
        <time>2018-08-10T17:29:52Z</time>
      </trkpt>
      <trkpt lat="4.6069180" lon="-74.2808830">
        <ele>2584.2</ele>
        <time>2018-08-10T17:29:53Z</time>
      </trkpt>
      <trkpt lat="4.6068670" lon="-74.2808550">
        <ele>2584.0</ele>
        <time>2018-08-10T17:29:54Z</time>
      </trkpt>
      <trkpt lat="4.6068170" lon="-74.2808280">
        <ele>2583.9</ele>
        <time>2018-08-10T17:29:55Z</time>
      </trkpt>
      <trkpt lat="4.6067670" lon="-74.2808050">
        <ele>2583.8</ele>
        <time>2018-08-10T17:29:56Z</time>
      </trkpt>
      <trkpt lat="4.6067170" lon="-74.2807820">
        <ele>2583.8</ele>
        <time>2018-08-10T17:29:57Z</time>
      </trkpt>
      <trkpt lat="4.6066670" lon="-74.2807520">
        <ele>2583.7</ele>
        <time>2018-08-10T17:29:58Z</time>
      </trkpt>
      <trkpt lat="4.6066250" lon="-74.2807250">
        <ele>2583.6</ele>
        <time>2018-08-10T17:29:59Z</time>
      </trkpt>
      <trkpt lat="4.6065770" lon="-74.2806950">
        <ele>2583.5</ele>
        <time>2018-08-10T17:30:00Z</time>
      </trkpt>
      <trkpt lat="4.6065130" lon="-74.2806670">
        <ele>2583.4</ele>
        <time>2018-08-10T17:30:01Z</time>
      </trkpt>
      <trkpt lat="4.6064620" lon="-74.2806400">
        <ele>2583.4</ele>
        <time>2018-08-10T17:30:02Z</time>
      </trkpt>
      <trkpt lat="4.6064070" lon="-74.2806100">
        <ele>2583.3</ele>
        <time>2018-08-10T17:30:03Z</time>
      </trkpt>
      <trkpt lat="4.6063600" lon="-74.2805830">
        <ele>2583.3</ele>
        <time>2018-08-10T17:30:04Z</time>
      </trkpt>
      <trkpt lat="4.6063130" lon="-74.2805600">
        <ele>2583.2</ele>
        <time>2018-08-10T17:30:05Z</time>
      </trkpt>
      <trkpt lat="4.6062620" lon="-74.2805370">
        <ele>2583.2</ele>
        <time>2018-08-10T17:30:06Z</time>
      </trkpt>
      <trkpt lat="4.6062100" lon="-74.2805120">
        <ele>2583.1</ele>
        <time>2018-08-10T17:30:07Z</time>
      </trkpt>
      <trkpt lat="4.6061480" lon="-74.2804830">
        <ele>2583.1</ele>
        <time>2018-08-10T17:30:08Z</time>
      </trkpt>
      <trkpt lat="4.6060950" lon="-74.2804600">
        <ele>2583.0</ele>
        <time>2018-08-10T17:30:09Z</time>
      </trkpt>
      <trkpt lat="4.6060450" lon="-74.2804320">
        <ele>2582.9</ele>
        <time>2018-08-10T17:30:10Z</time>
      </trkpt>
      <trkpt lat="4.6059900" lon="-74.2803920">
        <ele>2582.9</ele>
        <time>2018-08-10T17:30:11Z</time>
      </trkpt>
      <trkpt lat="4.6059400" lon="-74.2803570">
        <ele>2582.8</ele>
        <time>2018-08-10T17:30:12Z</time>
      </trkpt>
      <trkpt lat="4.6058800" lon="-74.2803300">
        <ele>2582.7</ele>
        <time>2018-08-10T17:30:13Z</time>
      </trkpt>
      <trkpt lat="4.6058250" lon="-74.2802970">
        <ele>2582.7</ele>
        <time>2018-08-10T17:30:14Z</time>
      </trkpt>
      <trkpt lat="4.6057680" lon="-74.2802700">
        <ele>2582.6</ele>
        <time>2018-08-10T17:30:15Z</time>
      </trkpt>
      <trkpt lat="4.6057130" lon="-74.2802480">
        <ele>2582.5</ele>
        <time>2018-08-10T17:30:16Z</time>
      </trkpt>
      <trkpt lat="4.6056630" lon="-74.2802200">
        <ele>2582.5</ele>
        <time>2018-08-10T17:30:17Z</time>
      </trkpt>
      <trkpt lat="4.6056130" lon="-74.2801900">
        <ele>2582.4</ele>
        <time>2018-08-10T17:30:18Z</time>
      </trkpt>
      <trkpt lat="4.6055600" lon="-74.2801630">
        <ele>2582.3</ele>
        <time>2018-08-10T17:30:19Z</time>
      </trkpt>
      <trkpt lat="4.6055080" lon="-74.2801350">
        <ele>2582.3</ele>
        <time>2018-08-10T17:30:20Z</time>
      </trkpt>
      <trkpt lat="4.6054570" lon="-74.2801070">
        <ele>2582.2</ele>
        <time>2018-08-10T17:30:21Z</time>
      </trkpt>
      <trkpt lat="4.6054050" lon="-74.2800820">
        <ele>2582.1</ele>
        <time>2018-08-10T17:30:22Z</time>
      </trkpt>
      <trkpt lat="4.6053530" lon="-74.2800530">
        <ele>2582.1</ele>
        <time>2018-08-10T17:30:23Z</time>
      </trkpt>
      <trkpt lat="4.6053020" lon="-74.2800270">
        <ele>2582.0</ele>
        <time>2018-08-10T17:30:24Z</time>
      </trkpt>
      <trkpt lat="4.6052470" lon="-74.2799980">
        <ele>2582.0</ele>
        <time>2018-08-10T17:30:25Z</time>
      </trkpt>
      <trkpt lat="4.6051900" lon="-74.2799650">
        <ele>2581.9</ele>
        <time>2018-08-10T17:30:26Z</time>
      </trkpt>
      <trkpt lat="4.6051370" lon="-74.2799330">
        <ele>2581.8</ele>
        <time>2018-08-10T17:30:27Z</time>
      </trkpt>
      <trkpt lat="4.6050870" lon="-74.2798980">
        <ele>2581.8</ele>
        <time>2018-08-10T17:30:28Z</time>
      </trkpt>
      <trkpt lat="4.6050330" lon="-74.2798670">
        <ele>2581.7</ele>
        <time>2018-08-10T17:30:29Z</time>
      </trkpt>
      <trkpt lat="4.6049800" lon="-74.2798370">
        <ele>2581.6</ele>
        <time>2018-08-10T17:30:30Z</time>
      </trkpt>
      <trkpt lat="4.6049280" lon="-74.2798050">
        <ele>2581.6</ele>
        <time>2018-08-10T17:30:31Z</time>
      </trkpt>
      <trkpt lat="4.6048780" lon="-74.2797780">
        <ele>2581.5</ele>
        <time>2018-08-10T17:30:32Z</time>
      </trkpt>
      <trkpt lat="4.6048270" lon="-74.2797500">
        <ele>2581.5</ele>
        <time>2018-08-10T17:30:33Z</time>
      </trkpt>
      <trkpt lat="4.6047750" lon="-74.2797230">
        <ele>2581.4</ele>
        <time>2018-08-10T17:30:34Z</time>
      </trkpt>
      <trkpt lat="4.6047230" lon="-74.2797000">
        <ele>2581.3</ele>
        <time>2018-08-10T17:30:35Z</time>
      </trkpt>
      <trkpt lat="4.6046700" lon="-74.2796750">
        <ele>2581.3</ele>
        <time>2018-08-10T17:30:36Z</time>
      </trkpt>
      <trkpt lat="4.6046180" lon="-74.2796480">
        <ele>2581.2</ele>
        <time>2018-08-10T17:30:37Z</time>
      </trkpt>
      <trkpt lat="4.6045670" lon="-74.2796250">
        <ele>2581.1</ele>
        <time>2018-08-10T17:30:38Z</time>
      </trkpt>
      <trkpt lat="4.6045130" lon="-74.2796020">
        <ele>2581.1</ele>
        <time>2018-08-10T17:30:39Z</time>
      </trkpt>
      <trkpt lat="4.6044600" lon="-74.2795770">
        <ele>2581.0</ele>
        <time>2018-08-10T17:30:40Z</time>
      </trkpt>
      <trkpt lat="4.6044070" lon="-74.2795530">
        <ele>2581.0</ele>
        <time>2018-08-10T17:30:41Z</time>
      </trkpt>
      <trkpt lat="4.6043500" lon="-74.2795270">
        <ele>2580.9</ele>
        <time>2018-08-10T17:30:42Z</time>
      </trkpt>
      <trkpt lat="4.6042930" lon="-74.2795080">
        <ele>2580.8</ele>
        <time>2018-08-10T17:30:43Z</time>
      </trkpt>
      <trkpt lat="4.6042420" lon="-74.2794880">
        <ele>2580.8</ele>
        <time>2018-08-10T17:30:44Z</time>
      </trkpt>
      <trkpt lat="4.6041870" lon="-74.2794680">
        <ele>2580.7</ele>
        <time>2018-08-10T17:30:45Z</time>
      </trkpt>
      <trkpt lat="4.6041320" lon="-74.2794480">
        <ele>2580.6</ele>
        <time>2018-08-10T17:30:46Z</time>
      </trkpt>
      <trkpt lat="4.6040820" lon="-74.2794270">
        <ele>2580.5</ele>
        <time>2018-08-10T17:30:47Z</time>
      </trkpt>
      <trkpt lat="4.6040280" lon="-74.2794070">
        <ele>2580.4</ele>
        <time>2018-08-10T17:30:48Z</time>
      </trkpt>
      <trkpt lat="4.6039780" lon="-74.2793850">
        <ele>2580.3</ele>
        <time>2018-08-10T17:30:49Z</time>
      </trkpt>
      <trkpt lat="4.6039230" lon="-74.2793670">
        <ele>2580.2</ele>
        <time>2018-08-10T17:30:50Z</time>
      </trkpt>
      <trkpt lat="4.6038680" lon="-74.2793530">
        <ele>2580.2</ele>
        <time>2018-08-10T17:30:51Z</time>
      </trkpt>
      <trkpt lat="4.6038130" lon="-74.2793400">
        <ele>2580.1</ele>
        <time>2018-08-10T17:30:52Z</time>
      </trkpt>
      <trkpt lat="4.6037580" lon="-74.2793250">
        <ele>2580.1</ele>
        <time>2018-08-10T17:30:53Z</time>
      </trkpt>
      <trkpt lat="4.6037000" lon="-74.2793100">
        <ele>2580.0</ele>
        <time>2018-08-10T17:30:54Z</time>
      </trkpt>
      <trkpt lat="4.6036450" lon="-74.2792950">
        <ele>2579.9</ele>
        <time>2018-08-10T17:30:55Z</time>
      </trkpt>
      <trkpt lat="4.6035920" lon="-74.2792800">
        <ele>2579.9</ele>
        <time>2018-08-10T17:30:56Z</time>
      </trkpt>
      <trkpt lat="4.6035370" lon="-74.2792620">
        <ele>2579.8</ele>
        <time>2018-08-10T17:30:57Z</time>
      </trkpt>
      <trkpt lat="4.6034830" lon="-74.2792450">
        <ele>2579.7</ele>
        <time>2018-08-10T17:30:58Z</time>
      </trkpt>
      <trkpt lat="4.6034270" lon="-74.2792280">
        <ele>2579.7</ele>
        <time>2018-08-10T17:30:59Z</time>
      </trkpt>
      <trkpt lat="4.6033700" lon="-74.2792120">
        <ele>2579.6</ele>
        <time>2018-08-10T17:31:00Z</time>
      </trkpt>
      <trkpt lat="4.6033130" lon="-74.2791950">
        <ele>2579.6</ele>
        <time>2018-08-10T17:31:01Z</time>
      </trkpt>
      <trkpt lat="4.6032580" lon="-74.2791770">
        <ele>2579.5</ele>
        <time>2018-08-10T17:31:02Z</time>
      </trkpt>
      <trkpt lat="4.6032020" lon="-74.2791620">
        <ele>2579.4</ele>
        <time>2018-08-10T17:31:03Z</time>
      </trkpt>
      <trkpt lat="4.6031450" lon="-74.2791400">
        <ele>2579.4</ele>
        <time>2018-08-10T17:31:04Z</time>
      </trkpt>
      <trkpt lat="4.6030880" lon="-74.2791200">
        <ele>2579.3</ele>
        <time>2018-08-10T17:31:05Z</time>
      </trkpt>
      <trkpt lat="4.6030300" lon="-74.2791000">
        <ele>2579.3</ele>
        <time>2018-08-10T17:31:06Z</time>
      </trkpt>
      <trkpt lat="4.6029750" lon="-74.2790820">
        <ele>2579.2</ele>
        <time>2018-08-10T17:31:07Z</time>
      </trkpt>
      <trkpt lat="4.6029170" lon="-74.2790630">
        <ele>2579.1</ele>
        <time>2018-08-10T17:31:08Z</time>
      </trkpt>
      <trkpt lat="4.6028600" lon="-74.2790450">
        <ele>2579.1</ele>
        <time>2018-08-10T17:31:09Z</time>
      </trkpt>
      <trkpt lat="4.6028020" lon="-74.2790280">
        <ele>2579.0</ele>
        <time>2018-08-10T17:31:10Z</time>
      </trkpt>
      <trkpt lat="4.6027400" lon="-74.2790130">
        <ele>2579.0</ele>
        <time>2018-08-10T17:31:11Z</time>
      </trkpt>
      <trkpt lat="4.6026800" lon="-74.2789980">
        <ele>2578.9</ele>
        <time>2018-08-10T17:31:12Z</time>
      </trkpt>
      <trkpt lat="4.6026130" lon="-74.2789800">
        <ele>2578.9</ele>
        <time>2018-08-10T17:31:13Z</time>
      </trkpt>
      <trkpt lat="4.6025570" lon="-74.2789600">
        <ele>2578.8</ele>
        <time>2018-08-10T17:31:14Z</time>
      </trkpt>
      <trkpt lat="4.6024950" lon="-74.2789470">
        <ele>2578.7</ele>
        <time>2018-08-10T17:31:15Z</time>
      </trkpt>
      <trkpt lat="4.6024370" lon="-74.2789300">
        <ele>2578.7</ele>
        <time>2018-08-10T17:31:16Z</time>
      </trkpt>
      <trkpt lat="4.6023780" lon="-74.2789080">
        <ele>2578.6</ele>
        <time>2018-08-10T17:31:17Z</time>
      </trkpt>
      <trkpt lat="4.6023200" lon="-74.2788880">
        <ele>2578.5</ele>
        <time>2018-08-10T17:31:18Z</time>
      </trkpt>
      <trkpt lat="4.6022630" lon="-74.2788720">
        <ele>2578.4</ele>
        <time>2018-08-10T17:31:19Z</time>
      </trkpt>
      <trkpt lat="4.6022100" lon="-74.2788530">
        <ele>2578.3</ele>
        <time>2018-08-10T17:31:20Z</time>
      </trkpt>
      <trkpt lat="4.6021550" lon="-74.2788350">
        <ele>2578.2</ele>
        <time>2018-08-10T17:31:21Z</time>
      </trkpt>
      <trkpt lat="4.6020980" lon="-74.2788230">
        <ele>2578.1</ele>
        <time>2018-08-10T17:31:22Z</time>
      </trkpt>
      <trkpt lat="4.6020420" lon="-74.2788100">
        <ele>2578.0</ele>
        <time>2018-08-10T17:31:23Z</time>
      </trkpt>
      <trkpt lat="4.6019850" lon="-74.2787980">
        <ele>2577.8</ele>
        <time>2018-08-10T17:31:24Z</time>
      </trkpt>
      <trkpt lat="4.6019300" lon="-74.2787900">
        <ele>2577.6</ele>
        <time>2018-08-10T17:31:25Z</time>
      </trkpt>
      <trkpt lat="4.6018750" lon="-74.2787850">
        <ele>2577.4</ele>
        <time>2018-08-10T17:31:26Z</time>
      </trkpt>
      <trkpt lat="4.6018170" lon="-74.2787850">
        <ele>2577.2</ele>
        <time>2018-08-10T17:31:27Z</time>
      </trkpt>
      <trkpt lat="4.6017550" lon="-74.2787920">
        <ele>2577.0</ele>
        <time>2018-08-10T17:31:28Z</time>
      </trkpt>
      <trkpt lat="4.6016970" lon="-74.2788020">
        <ele>2577.0</ele>
        <time>2018-08-10T17:31:29Z</time>
      </trkpt>
      <trkpt lat="4.6016350" lon="-74.2788220">
        <ele>2577.1</ele>
        <time>2018-08-10T17:31:30Z</time>
      </trkpt>
      <trkpt lat="4.6015780" lon="-74.2788470">
        <ele>2577.2</ele>
        <time>2018-08-10T17:31:31Z</time>
      </trkpt>
      <trkpt lat="4.6015270" lon="-74.2788770">
        <ele>2577.3</ele>
        <time>2018-08-10T17:31:32Z</time>
      </trkpt>
      <trkpt lat="4.6014720" lon="-74.2789100">
        <ele>2577.4</ele>
        <time>2018-08-10T17:31:33Z</time>
      </trkpt>
      <trkpt lat="4.6014320" lon="-74.2789450">
        <ele>2577.6</ele>
        <time>2018-08-10T17:31:34Z</time>
      </trkpt>
      <trkpt lat="4.6013800" lon="-74.2789800">
        <ele>2577.7</ele>
        <time>2018-08-10T17:31:35Z</time>
      </trkpt>
      <trkpt lat="4.6013280" lon="-74.2790130">
        <ele>2577.8</ele>
        <time>2018-08-10T17:31:36Z</time>
      </trkpt>
      <trkpt lat="4.6012830" lon="-74.2790470">
        <ele>2577.9</ele>
        <time>2018-08-10T17:31:37Z</time>
      </trkpt>
      <trkpt lat="4.6012370" lon="-74.2790820">
        <ele>2578.0</ele>
        <time>2018-08-10T17:31:38Z</time>
      </trkpt>
      <trkpt lat="4.6011950" lon="-74.2791180">
        <ele>2578.1</ele>
        <time>2018-08-10T17:31:39Z</time>
      </trkpt>
      <trkpt lat="4.6011550" lon="-74.2791570">
        <ele>2578.2</ele>
        <time>2018-08-10T17:31:40Z</time>
      </trkpt>
      <trkpt lat="4.6011130" lon="-74.2791920">
        <ele>2578.2</ele>
        <time>2018-08-10T17:31:41Z</time>
      </trkpt>
      <trkpt lat="4.6010700" lon="-74.2792230">
        <ele>2578.3</ele>
        <time>2018-08-10T17:31:42Z</time>
      </trkpt>
      <trkpt lat="4.6010250" lon="-74.2792550">
        <ele>2578.4</ele>
        <time>2018-08-10T17:31:43Z</time>
      </trkpt>
      <trkpt lat="4.6009730" lon="-74.2792930">
        <ele>2578.5</ele>
        <time>2018-08-10T17:31:44Z</time>
      </trkpt>
      <trkpt lat="4.6009200" lon="-74.2793330">
        <ele>2578.6</ele>
        <time>2018-08-10T17:31:45Z</time>
      </trkpt>
      <trkpt lat="4.6008750" lon="-74.2793700">
        <ele>2578.6</ele>
        <time>2018-08-10T17:31:46Z</time>
      </trkpt>
      <trkpt lat="4.6008320" lon="-74.2794050">
        <ele>2578.7</ele>
        <time>2018-08-10T17:31:47Z</time>
      </trkpt>
      <trkpt lat="4.6007850" lon="-74.2794420">
        <ele>2578.7</ele>
        <time>2018-08-10T17:31:48Z</time>
      </trkpt>
      <trkpt lat="4.6007420" lon="-74.2794770">
        <ele>2578.7</ele>
        <time>2018-08-10T17:31:49Z</time>
      </trkpt>
      <trkpt lat="4.6006920" lon="-74.2795120">
        <ele>2578.7</ele>
        <time>2018-08-10T17:31:50Z</time>
      </trkpt>
      <trkpt lat="4.6006470" lon="-74.2795480">
        <ele>2578.7</ele>
        <time>2018-08-10T17:31:51Z</time>
      </trkpt>
      <trkpt lat="4.6006000" lon="-74.2795830">
        <ele>2578.8</ele>
        <time>2018-08-10T17:31:52Z</time>
      </trkpt>
      <trkpt lat="4.6005550" lon="-74.2796180">
        <ele>2578.9</ele>
        <time>2018-08-10T17:31:53Z</time>
      </trkpt>
      <trkpt lat="4.6005120" lon="-74.2796520">
        <ele>2579.0</ele>
        <time>2018-08-10T17:31:54Z</time>
      </trkpt>
      <trkpt lat="4.6004700" lon="-74.2796830">
        <ele>2579.2</ele>
        <time>2018-08-10T17:31:55Z</time>
      </trkpt>
      <trkpt lat="4.6004280" lon="-74.2797150">
        <ele>2579.3</ele>
        <time>2018-08-10T17:31:56Z</time>
      </trkpt>
      <trkpt lat="4.6003800" lon="-74.2797480">
        <ele>2579.4</ele>
        <time>2018-08-10T17:31:57Z</time>
      </trkpt>
      <trkpt lat="4.6003350" lon="-74.2797770">
        <ele>2579.5</ele>
        <time>2018-08-10T17:31:58Z</time>
      </trkpt>
      <trkpt lat="4.6002900" lon="-74.2798100">
        <ele>2579.6</ele>
        <time>2018-08-10T17:31:59Z</time>
      </trkpt>
      <trkpt lat="4.6002470" lon="-74.2798420">
        <ele>2579.7</ele>
        <time>2018-08-10T17:32:00Z</time>
      </trkpt>
      <trkpt lat="4.6002030" lon="-74.2798780">
        <ele>2579.8</ele>
        <time>2018-08-10T17:32:01Z</time>
      </trkpt>
      <trkpt lat="4.6001570" lon="-74.2799150">
        <ele>2579.9</ele>
        <time>2018-08-10T17:32:02Z</time>
      </trkpt>
      <trkpt lat="4.6001150" lon="-74.2799530">
        <ele>2580.0</ele>
        <time>2018-08-10T17:32:03Z</time>
      </trkpt>
      <trkpt lat="4.6000720" lon="-74.2799880">
        <ele>2580.1</ele>
        <time>2018-08-10T17:32:04Z</time>
      </trkpt>
      <trkpt lat="4.6000270" lon="-74.2800270">
        <ele>2580.1</ele>
        <time>2018-08-10T17:32:05Z</time>
      </trkpt>
      <trkpt lat="4.5999780" lon="-74.2800650">
        <ele>2580.2</ele>
        <time>2018-08-10T17:32:06Z</time>
      </trkpt>
      <trkpt lat="4.5999350" lon="-74.2801020">
        <ele>2580.2</ele>
        <time>2018-08-10T17:32:07Z</time>
      </trkpt>
      <trkpt lat="4.5998920" lon="-74.2801350">
        <ele>2580.3</ele>
        <time>2018-08-10T17:32:08Z</time>
      </trkpt>
      <trkpt lat="4.5998500" lon="-74.2801680">
        <ele>2580.3</ele>
        <time>2018-08-10T17:32:09Z</time>
      </trkpt>
      <trkpt lat="4.5998050" lon="-74.2802030">
        <ele>2580.3</ele>
        <time>2018-08-10T17:32:10Z</time>
      </trkpt>
      <trkpt lat="4.5997620" lon="-74.2802400">
        <ele>2580.4</ele>
        <time>2018-08-10T17:32:11Z</time>
      </trkpt>
      <trkpt lat="4.5997220" lon="-74.2802770">
        <ele>2580.4</ele>
        <time>2018-08-10T17:32:12Z</time>
      </trkpt>
      <trkpt lat="4.5996820" lon="-74.2803120">
        <ele>2580.5</ele>
        <time>2018-08-10T17:32:13Z</time>
      </trkpt>
      <trkpt lat="4.5996430" lon="-74.2803430">
        <ele>2580.6</ele>
        <time>2018-08-10T17:32:14Z</time>
      </trkpt>
      <trkpt lat="4.5996070" lon="-74.2803780">
        <ele>2580.6</ele>
        <time>2018-08-10T17:32:15Z</time>
      </trkpt>
      <trkpt lat="4.5995670" lon="-74.2804120">
        <ele>2580.7</ele>
        <time>2018-08-10T17:32:16Z</time>
      </trkpt>
      <trkpt lat="4.5995280" lon="-74.2804470">
        <ele>2580.8</ele>
        <time>2018-08-10T17:32:17Z</time>
      </trkpt>
      <trkpt lat="4.5994850" lon="-74.2804800">
        <ele>2580.8</ele>
        <time>2018-08-10T17:32:18Z</time>
      </trkpt>
      <trkpt lat="4.5994430" lon="-74.2805180">
        <ele>2580.9</ele>
        <time>2018-08-10T17:32:19Z</time>
      </trkpt>
      <trkpt lat="4.5993970" lon="-74.2805550">
        <ele>2580.9</ele>
        <time>2018-08-10T17:32:20Z</time>
      </trkpt>
      <trkpt lat="4.5993530" lon="-74.2805900">
        <ele>2581.0</ele>
        <time>2018-08-10T17:32:21Z</time>
      </trkpt>
      <trkpt lat="4.5993030" lon="-74.2806250">
        <ele>2581.0</ele>
        <time>2018-08-10T17:32:22Z</time>
      </trkpt>
      <trkpt lat="4.5992630" lon="-74.2806550">
        <ele>2581.1</ele>
        <time>2018-08-10T17:32:23Z</time>
      </trkpt>
      <trkpt lat="4.5992270" lon="-74.2806850">
        <ele>2581.1</ele>
        <time>2018-08-10T17:32:24Z</time>
      </trkpt>
      <trkpt lat="4.5991930" lon="-74.2807170">
        <ele>2581.2</ele>
        <time>2018-08-10T17:32:25Z</time>
      </trkpt>
      <trkpt lat="4.5991530" lon="-74.2807470">
        <ele>2581.2</ele>
        <time>2018-08-10T17:32:26Z</time>
      </trkpt>
      <trkpt lat="4.5991070" lon="-74.2807800">
        <ele>2581.2</ele>
        <time>2018-08-10T17:32:27Z</time>
      </trkpt>
      <trkpt lat="4.5990670" lon="-74.2808150">
        <ele>2581.2</ele>
        <time>2018-08-10T17:32:28Z</time>
      </trkpt>
      <trkpt lat="4.5990270" lon="-74.2808520">
        <ele>2581.2</ele>
        <time>2018-08-10T17:32:29Z</time>
      </trkpt>
      <trkpt lat="4.5989830" lon="-74.2808870">
        <ele>2581.2</ele>
        <time>2018-08-10T17:32:30Z</time>
      </trkpt>
      <trkpt lat="4.5989450" lon="-74.2809200">
        <ele>2581.3</ele>
        <time>2018-08-10T17:32:31Z</time>
      </trkpt>
      <trkpt lat="4.5989000" lon="-74.2809570">
        <ele>2581.3</ele>
        <time>2018-08-10T17:32:32Z</time>
      </trkpt>
      <trkpt lat="4.5988520" lon="-74.2809920">
        <ele>2581.4</ele>
        <time>2018-08-10T17:32:33Z</time>
      </trkpt>
      <trkpt lat="4.5988080" lon="-74.2810270">
        <ele>2581.6</ele>
        <time>2018-08-10T17:32:34Z</time>
      </trkpt>
      <trkpt lat="4.5987670" lon="-74.2810650">
        <ele>2581.7</ele>
        <time>2018-08-10T17:32:35Z</time>
      </trkpt>
      <trkpt lat="4.5987300" lon="-74.2810970">
        <ele>2581.8</ele>
        <time>2018-08-10T17:32:36Z</time>
      </trkpt>
      <trkpt lat="4.5986950" lon="-74.2811270">
        <ele>2582.0</ele>
        <time>2018-08-10T17:32:37Z</time>
      </trkpt>
      <trkpt lat="4.5986620" lon="-74.2811570">
        <ele>2582.1</ele>
        <time>2018-08-10T17:32:38Z</time>
      </trkpt>
      <trkpt lat="4.5986280" lon="-74.2811870">
        <ele>2582.3</ele>
        <time>2018-08-10T17:32:39Z</time>
      </trkpt>
      <trkpt lat="4.5985930" lon="-74.2812150">
        <ele>2582.4</ele>
        <time>2018-08-10T17:32:40Z</time>
      </trkpt>
      <trkpt lat="4.5985580" lon="-74.2812430">
        <ele>2582.5</ele>
        <time>2018-08-10T17:32:41Z</time>
      </trkpt>
      <trkpt lat="4.5985220" lon="-74.2812720">
        <ele>2582.7</ele>
        <time>2018-08-10T17:32:42Z</time>
      </trkpt>
      <trkpt lat="4.5984830" lon="-74.2812980">
        <ele>2582.8</ele>
        <time>2018-08-10T17:32:43Z</time>
      </trkpt>
      <trkpt lat="4.5984480" lon="-74.2813250">
        <ele>2583.0</ele>
        <time>2018-08-10T17:32:44Z</time>
      </trkpt>
      <trkpt lat="4.5984120" lon="-74.2813500">
        <ele>2583.1</ele>
        <time>2018-08-10T17:32:45Z</time>
      </trkpt>
      <trkpt lat="4.5983680" lon="-74.2813800">
        <ele>2583.2</ele>
        <time>2018-08-10T17:32:46Z</time>
      </trkpt>
      <trkpt lat="4.5983320" lon="-74.2814050">
        <ele>2583.3</ele>
        <time>2018-08-10T17:32:47Z</time>
      </trkpt>
      <trkpt lat="4.5982950" lon="-74.2814320">
        <ele>2583.4</ele>
        <time>2018-08-10T17:32:48Z</time>
      </trkpt>
      <trkpt lat="4.5982600" lon="-74.2814530">
        <ele>2583.5</ele>
        <time>2018-08-10T17:32:49Z</time>
      </trkpt>
      <trkpt lat="4.5982220" lon="-74.2814730">
        <ele>2583.6</ele>
        <time>2018-08-10T17:32:50Z</time>
      </trkpt>
      <trkpt lat="4.5981820" lon="-74.2814950">
        <ele>2583.7</ele>
        <time>2018-08-10T17:32:51Z</time>
      </trkpt>
      <trkpt lat="4.5981380" lon="-74.2815120">
        <ele>2583.8</ele>
        <time>2018-08-10T17:32:52Z</time>
      </trkpt>
      <trkpt lat="4.5980980" lon="-74.2815230">
        <ele>2583.9</ele>
        <time>2018-08-10T17:32:53Z</time>
      </trkpt>
      <trkpt lat="4.5980480" lon="-74.2815330">
        <ele>2584.0</ele>
        <time>2018-08-10T17:32:54Z</time>
      </trkpt>
      <trkpt lat="4.5980000" lon="-74.2815370">
        <ele>2584.0</ele>
        <time>2018-08-10T17:32:55Z</time>
      </trkpt>
      <trkpt lat="4.5979480" lon="-74.2815400">
        <ele>2583.9</ele>
        <time>2018-08-10T17:32:56Z</time>
      </trkpt>
      <trkpt lat="4.5978980" lon="-74.2815400">
        <ele>2583.9</ele>
        <time>2018-08-10T17:32:57Z</time>
      </trkpt>
      <trkpt lat="4.5978470" lon="-74.2815380">
        <ele>2583.8</ele>
        <time>2018-08-10T17:32:58Z</time>
      </trkpt>
      <trkpt lat="4.5978000" lon="-74.2815300">
        <ele>2583.8</ele>
        <time>2018-08-10T17:32:59Z</time>
      </trkpt>
      <trkpt lat="4.5977550" lon="-74.2815180">
        <ele>2583.8</ele>
        <time>2018-08-10T17:33:00Z</time>
      </trkpt>
      <trkpt lat="4.5977100" lon="-74.2815050">
        <ele>2583.7</ele>
        <time>2018-08-10T17:33:01Z</time>
      </trkpt>
      <trkpt lat="4.5976700" lon="-74.2814870">
        <ele>2583.7</ele>
        <time>2018-08-10T17:33:02Z</time>
      </trkpt>
      <trkpt lat="4.5976320" lon="-74.2814680">
        <ele>2583.6</ele>
        <time>2018-08-10T17:33:03Z</time>
      </trkpt>
      <trkpt lat="4.5975930" lon="-74.2814480">
        <ele>2583.6</ele>
        <time>2018-08-10T17:33:04Z</time>
      </trkpt>
      <trkpt lat="4.5975580" lon="-74.2814220">
        <ele>2583.5</ele>
        <time>2018-08-10T17:33:05Z</time>
      </trkpt>
      <trkpt lat="4.5975280" lon="-74.2813920">
        <ele>2583.4</ele>
        <time>2018-08-10T17:33:06Z</time>
      </trkpt>
      <trkpt lat="4.5975000" lon="-74.2813620">
        <ele>2583.4</ele>
        <time>2018-08-10T17:33:07Z</time>
      </trkpt>
      <trkpt lat="4.5974750" lon="-74.2813270">
        <ele>2583.4</ele>
        <time>2018-08-10T17:33:08Z</time>
      </trkpt>
      <trkpt lat="4.5974470" lon="-74.2812900">
        <ele>2583.3</ele>
        <time>2018-08-10T17:33:09Z</time>
      </trkpt>
      <trkpt lat="4.5974180" lon="-74.2812550">
        <ele>2583.3</ele>
        <time>2018-08-10T17:33:10Z</time>
      </trkpt>
      <trkpt lat="4.5973930" lon="-74.2812200">
        <ele>2583.2</ele>
        <time>2018-08-10T17:33:11Z</time>
      </trkpt>
      <trkpt lat="4.5973700" lon="-74.2811880">
        <ele>2583.2</ele>
        <time>2018-08-10T17:33:12Z</time>
      </trkpt>
      <trkpt lat="4.5973470" lon="-74.2811520">
        <ele>2583.1</ele>
        <time>2018-08-10T17:33:13Z</time>
      </trkpt>
      <trkpt lat="4.5973180" lon="-74.2811120">
        <ele>2583.1</ele>
        <time>2018-08-10T17:33:14Z</time>
      </trkpt>
      <trkpt lat="4.5972920" lon="-74.2810730">
        <ele>2583.0</ele>
        <time>2018-08-10T17:33:15Z</time>
      </trkpt>
      <trkpt lat="4.5972670" lon="-74.2810350">
        <ele>2583.0</ele>
        <time>2018-08-10T17:33:16Z</time>
      </trkpt>
      <trkpt lat="4.5972270" lon="-74.2809870">
        <ele>2582.9</ele>
        <time>2018-08-10T17:33:17Z</time>
      </trkpt>
      <trkpt lat="4.5972000" lon="-74.2809380">
        <ele>2582.8</ele>
        <time>2018-08-10T17:33:18Z</time>
      </trkpt>
      <trkpt lat="4.5971720" lon="-74.2808980">
        <ele>2582.8</ele>
        <time>2018-08-10T17:33:19Z</time>
      </trkpt>
      <trkpt lat="4.5971450" lon="-74.2808580">
        <ele>2582.7</ele>
        <time>2018-08-10T17:33:20Z</time>
      </trkpt>
      <trkpt lat="4.5971180" lon="-74.2808150">
        <ele>2582.7</ele>
        <time>2018-08-10T17:33:21Z</time>
      </trkpt>
      <trkpt lat="4.5970930" lon="-74.2807730">
        <ele>2582.6</ele>
        <time>2018-08-10T17:33:22Z</time>
      </trkpt>
      <trkpt lat="4.5970680" lon="-74.2807300">
        <ele>2582.5</ele>
        <time>2018-08-10T17:33:23Z</time>
      </trkpt>
      <trkpt lat="4.5970430" lon="-74.2806880">
        <ele>2582.5</ele>
        <time>2018-08-10T17:33:24Z</time>
      </trkpt>
      <trkpt lat="4.5970200" lon="-74.2806480">
        <ele>2582.4</ele>
        <time>2018-08-10T17:33:25Z</time>
      </trkpt>
      <trkpt lat="4.5969950" lon="-74.2806050">
        <ele>2582.3</ele>
        <time>2018-08-10T17:33:26Z</time>
      </trkpt>
      <trkpt lat="4.5969720" lon="-74.2805650">
        <ele>2582.2</ele>
        <time>2018-08-10T17:33:27Z</time>
      </trkpt>
      <trkpt lat="4.5969520" lon="-74.2805230">
        <ele>2582.1</ele>
        <time>2018-08-10T17:33:28Z</time>
      </trkpt>
      <trkpt lat="4.5969320" lon="-74.2804780">
        <ele>2582.0</ele>
        <time>2018-08-10T17:33:29Z</time>
      </trkpt>
      <trkpt lat="4.5969080" lon="-74.2804370">
        <ele>2581.8</ele>
        <time>2018-08-10T17:33:30Z</time>
      </trkpt>
      <trkpt lat="4.5968850" lon="-74.2803920">
        <ele>2581.6</ele>
        <time>2018-08-10T17:33:31Z</time>
      </trkpt>
      <trkpt lat="4.5968630" lon="-74.2803520">
        <ele>2581.5</ele>
        <time>2018-08-10T17:33:32Z</time>
      </trkpt>
      <trkpt lat="4.5968380" lon="-74.2803000">
        <ele>2581.3</ele>
        <time>2018-08-10T17:33:33Z</time>
      </trkpt>
      <trkpt lat="4.5968130" lon="-74.2802550">
        <ele>2581.1</ele>
        <time>2018-08-10T17:33:34Z</time>
      </trkpt>
      <trkpt lat="4.5967850" lon="-74.2802100">
        <ele>2580.9</ele>
        <time>2018-08-10T17:33:35Z</time>
      </trkpt>
      <trkpt lat="4.5967570" lon="-74.2801600">
        <ele>2580.7</ele>
        <time>2018-08-10T17:33:36Z</time>
      </trkpt>
      <trkpt lat="4.5967270" lon="-74.2801080">
        <ele>2580.6</ele>
        <time>2018-08-10T17:33:37Z</time>
      </trkpt>
      <trkpt lat="4.5966930" lon="-74.2800530">
        <ele>2580.5</ele>
        <time>2018-08-10T17:33:38Z</time>
      </trkpt>
      <trkpt lat="4.5966600" lon="-74.2800020">
        <ele>2580.3</ele>
        <time>2018-08-10T17:33:39Z</time>
      </trkpt>
      <trkpt lat="4.5966230" lon="-74.2799520">
        <ele>2580.2</ele>
        <time>2018-08-10T17:33:40Z</time>
      </trkpt>
      <trkpt lat="4.5965850" lon="-74.2799050">
        <ele>2580.1</ele>
        <time>2018-08-10T17:33:41Z</time>
      </trkpt>
      <trkpt lat="4.5965470" lon="-74.2798600">
        <ele>2579.9</ele>
        <time>2018-08-10T17:33:42Z</time>
      </trkpt>
      <trkpt lat="4.5965100" lon="-74.2798130">
        <ele>2579.8</ele>
        <time>2018-08-10T17:33:43Z</time>
      </trkpt>
      <trkpt lat="4.5964700" lon="-74.2797680">
        <ele>2579.6</ele>
        <time>2018-08-10T17:33:44Z</time>
      </trkpt>
      <trkpt lat="4.5964300" lon="-74.2797250">
        <ele>2579.4</ele>
        <time>2018-08-10T17:33:45Z</time>
      </trkpt>
      <trkpt lat="4.5963880" lon="-74.2796850">
        <ele>2579.2</ele>
        <time>2018-08-10T17:33:46Z</time>
      </trkpt>
      <trkpt lat="4.5963500" lon="-74.2796430">
        <ele>2579.1</ele>
        <time>2018-08-10T17:33:47Z</time>
      </trkpt>
      <trkpt lat="4.5963120" lon="-74.2795900">
        <ele>2578.9</ele>
        <time>2018-08-10T17:33:48Z</time>
      </trkpt>
      <trkpt lat="4.5962730" lon="-74.2795430">
        <ele>2578.7</ele>
        <time>2018-08-10T17:33:49Z</time>
      </trkpt>
      <trkpt lat="4.5962350" lon="-74.2795030">
        <ele>2578.6</ele>
        <time>2018-08-10T17:33:50Z</time>
      </trkpt>
      <trkpt lat="4.5961950" lon="-74.2794630">
        <ele>2578.4</ele>
        <time>2018-08-10T17:33:51Z</time>
      </trkpt>
      <trkpt lat="4.5961570" lon="-74.2794270">
        <ele>2578.3</ele>
        <time>2018-08-10T17:33:52Z</time>
      </trkpt>
      <trkpt lat="4.5961150" lon="-74.2793880">
        <ele>2578.3</ele>
        <time>2018-08-10T17:33:53Z</time>
      </trkpt>
      <trkpt lat="4.5960770" lon="-74.2793520">
        <ele>2578.2</ele>
        <time>2018-08-10T17:33:54Z</time>
      </trkpt>
      <trkpt lat="4.5960400" lon="-74.2793120">
        <ele>2578.2</ele>
        <time>2018-08-10T17:33:55Z</time>
      </trkpt>
      <trkpt lat="4.5960050" lon="-74.2792700">
        <ele>2578.1</ele>
        <time>2018-08-10T17:33:56Z</time>
      </trkpt>
      <trkpt lat="4.5959680" lon="-74.2792280">
        <ele>2578.1</ele>
        <time>2018-08-10T17:33:57Z</time>
      </trkpt>
      <trkpt lat="4.5959300" lon="-74.2791900">
        <ele>2578.1</ele>
        <time>2018-08-10T17:33:58Z</time>
      </trkpt>
      <trkpt lat="4.5958930" lon="-74.2791500">
        <ele>2578.0</ele>
        <time>2018-08-10T17:33:59Z</time>
      </trkpt>
      <trkpt lat="4.5958570" lon="-74.2791120">
        <ele>2578.0</ele>
        <time>2018-08-10T17:34:00Z</time>
      </trkpt>
      <trkpt lat="4.5958200" lon="-74.2790700">
        <ele>2577.9</ele>
        <time>2018-08-10T17:34:01Z</time>
      </trkpt>
      <trkpt lat="4.5957820" lon="-74.2790280">
        <ele>2577.9</ele>
        <time>2018-08-10T17:34:02Z</time>
      </trkpt>
      <trkpt lat="4.5957470" lon="-74.2789920">
        <ele>2577.9</ele>
        <time>2018-08-10T17:34:03Z</time>
      </trkpt>
      <trkpt lat="4.5957070" lon="-74.2789500">
        <ele>2577.8</ele>
        <time>2018-08-10T17:34:04Z</time>
      </trkpt>
      <trkpt lat="4.5956700" lon="-74.2789100">
        <ele>2577.8</ele>
        <time>2018-08-10T17:34:05Z</time>
      </trkpt>
      <trkpt lat="4.5956370" lon="-74.2788730">
        <ele>2577.8</ele>
        <time>2018-08-10T17:34:06Z</time>
      </trkpt>
      <trkpt lat="4.5956050" lon="-74.2788370">
        <ele>2577.8</ele>
        <time>2018-08-10T17:34:07Z</time>
      </trkpt>
      <trkpt lat="4.5955700" lon="-74.2788020">
        <ele>2577.7</ele>
        <time>2018-08-10T17:34:08Z</time>
      </trkpt>
      <trkpt lat="4.5955350" lon="-74.2787650">
        <ele>2577.7</ele>
        <time>2018-08-10T17:34:09Z</time>
      </trkpt>
      <trkpt lat="4.5954970" lon="-74.2787280">
        <ele>2577.7</ele>
        <time>2018-08-10T17:34:10Z</time>
      </trkpt>
      <trkpt lat="4.5954620" lon="-74.2786900">
        <ele>2577.6</ele>
        <time>2018-08-10T17:34:11Z</time>
      </trkpt>
      <trkpt lat="4.5954250" lon="-74.2786520">
        <ele>2577.6</ele>
        <time>2018-08-10T17:34:12Z</time>
      </trkpt>
      <trkpt lat="4.5953880" lon="-74.2786150">
        <ele>2577.6</ele>
        <time>2018-08-10T17:34:13Z</time>
      </trkpt>
      <trkpt lat="4.5953550" lon="-74.2785780">
        <ele>2577.5</ele>
        <time>2018-08-10T17:34:14Z</time>
      </trkpt>
      <trkpt lat="4.5953170" lon="-74.2785420">
        <ele>2577.5</ele>
        <time>2018-08-10T17:34:15Z</time>
      </trkpt>
      <trkpt lat="4.5952780" lon="-74.2784980">
        <ele>2577.5</ele>
        <time>2018-08-10T17:34:16Z</time>
      </trkpt>
      <trkpt lat="4.5952420" lon="-74.2784530">
        <ele>2577.4</ele>
        <time>2018-08-10T17:34:17Z</time>
      </trkpt>
      <trkpt lat="4.5952100" lon="-74.2784130">
        <ele>2577.4</ele>
        <time>2018-08-10T17:34:18Z</time>
      </trkpt>
      <trkpt lat="4.5951670" lon="-74.2783650">
        <ele>2577.4</ele>
        <time>2018-08-10T17:34:19Z</time>
      </trkpt>
      <trkpt lat="4.5951280" lon="-74.2783200">
        <ele>2577.3</ele>
        <time>2018-08-10T17:34:20Z</time>
      </trkpt>
      <trkpt lat="4.5950900" lon="-74.2782730">
        <ele>2577.3</ele>
        <time>2018-08-10T17:34:21Z</time>
      </trkpt>
      <trkpt lat="4.5950550" lon="-74.2782320">
        <ele>2577.3</ele>
        <time>2018-08-10T17:34:22Z</time>
      </trkpt>
      <trkpt lat="4.5950180" lon="-74.2781900">
        <ele>2577.2</ele>
        <time>2018-08-10T17:34:23Z</time>
      </trkpt>
      <trkpt lat="4.5949770" lon="-74.2781520">
        <ele>2577.2</ele>
        <time>2018-08-10T17:34:24Z</time>
      </trkpt>
      <trkpt lat="4.5949370" lon="-74.2781120">
        <ele>2577.1</ele>
        <time>2018-08-10T17:34:25Z</time>
      </trkpt>
      <trkpt lat="4.5949000" lon="-74.2780750">
        <ele>2577.1</ele>
        <time>2018-08-10T17:34:26Z</time>
      </trkpt>
      <trkpt lat="4.5948620" lon="-74.2780320">
        <ele>2577.1</ele>
        <time>2018-08-10T17:34:27Z</time>
      </trkpt>
      <trkpt lat="4.5948270" lon="-74.2779900">
        <ele>2577.0</ele>
        <time>2018-08-10T17:34:28Z</time>
      </trkpt>
      <trkpt lat="4.5947900" lon="-74.2779480">
        <ele>2577.0</ele>
        <time>2018-08-10T17:34:29Z</time>
      </trkpt>
      <trkpt lat="4.5947520" lon="-74.2779070">
        <ele>2576.9</ele>
        <time>2018-08-10T17:34:30Z</time>
      </trkpt>
      <trkpt lat="4.5947170" lon="-74.2778650">
        <ele>2576.9</ele>
        <time>2018-08-10T17:34:31Z</time>
      </trkpt>
      <trkpt lat="4.5946770" lon="-74.2778220">
        <ele>2576.8</ele>
        <time>2018-08-10T17:34:32Z</time>
      </trkpt>
      <trkpt lat="4.5946380" lon="-74.2777770">
        <ele>2576.8</ele>
        <time>2018-08-10T17:34:33Z</time>
      </trkpt>
      <trkpt lat="4.5945980" lon="-74.2777350">
        <ele>2576.7</ele>
        <time>2018-08-10T17:34:34Z</time>
      </trkpt>
      <trkpt lat="4.5945620" lon="-74.2776950">
        <ele>2576.7</ele>
        <time>2018-08-10T17:34:35Z</time>
      </trkpt>
      <trkpt lat="4.5945230" lon="-74.2776530">
        <ele>2576.5</ele>
        <time>2018-08-10T17:34:36Z</time>
      </trkpt>
      <trkpt lat="4.5944850" lon="-74.2776100">
        <ele>2576.4</ele>
        <time>2018-08-10T17:34:37Z</time>
      </trkpt>
      <trkpt lat="4.5944500" lon="-74.2775700">
        <ele>2576.3</ele>
        <time>2018-08-10T17:34:38Z</time>
      </trkpt>
      <trkpt lat="4.5944100" lon="-74.2775280">
        <ele>2576.1</ele>
        <time>2018-08-10T17:34:39Z</time>
      </trkpt>
      <trkpt lat="4.5943720" lon="-74.2774850">
        <ele>2576.0</ele>
        <time>2018-08-10T17:34:40Z</time>
      </trkpt>
      <trkpt lat="4.5943300" lon="-74.2774420">
        <ele>2575.9</ele>
        <time>2018-08-10T17:34:41Z</time>
      </trkpt>
      <trkpt lat="4.5942870" lon="-74.2774020">
        <ele>2575.7</ele>
        <time>2018-08-10T17:34:42Z</time>
      </trkpt>
      <trkpt lat="4.5942430" lon="-74.2773580">
        <ele>2575.6</ele>
        <time>2018-08-10T17:34:43Z</time>
      </trkpt>
      <trkpt lat="4.5942000" lon="-74.2773130">
        <ele>2575.4</ele>
        <time>2018-08-10T17:34:44Z</time>
      </trkpt>
      <trkpt lat="4.5941530" lon="-74.2772700">
        <ele>2575.3</ele>
        <time>2018-08-10T17:34:45Z</time>
      </trkpt>
      <trkpt lat="4.5941130" lon="-74.2772270">
        <ele>2575.2</ele>
        <time>2018-08-10T17:34:46Z</time>
      </trkpt>
      <trkpt lat="4.5940720" lon="-74.2771850">
        <ele>2575.1</ele>
        <time>2018-08-10T17:34:47Z</time>
      </trkpt>
      <trkpt lat="4.5940300" lon="-74.2771420">
        <ele>2575.0</ele>
        <time>2018-08-10T17:34:48Z</time>
      </trkpt>
      <trkpt lat="4.5939920" lon="-74.2771020">
        <ele>2575.0</ele>
        <time>2018-08-10T17:34:49Z</time>
      </trkpt>
      <trkpt lat="4.5939520" lon="-74.2770550">
        <ele>2574.9</ele>
        <time>2018-08-10T17:34:50Z</time>
      </trkpt>
      <trkpt lat="4.5939150" lon="-74.2770130">
        <ele>2574.9</ele>
        <time>2018-08-10T17:34:51Z</time>
      </trkpt>
      <trkpt lat="4.5938720" lon="-74.2769670">
        <ele>2574.9</ele>
        <time>2018-08-10T17:34:52Z</time>
      </trkpt>
      <trkpt lat="4.5938320" lon="-74.2769230">
        <ele>2574.8</ele>
        <time>2018-08-10T17:34:53Z</time>
      </trkpt>
      <trkpt lat="4.5937930" lon="-74.2768820">
        <ele>2574.8</ele>
        <time>2018-08-10T17:34:54Z</time>
      </trkpt>
      <trkpt lat="4.5937580" lon="-74.2768400">
        <ele>2574.7</ele>
        <time>2018-08-10T17:34:55Z</time>
      </trkpt>
      <trkpt lat="4.5937250" lon="-74.2767980">
        <ele>2574.7</ele>
        <time>2018-08-10T17:34:56Z</time>
      </trkpt>
      <trkpt lat="4.5936880" lon="-74.2767600">
        <ele>2574.7</ele>
        <time>2018-08-10T17:34:57Z</time>
      </trkpt>
      <trkpt lat="4.5936530" lon="-74.2767230">
        <ele>2574.6</ele>
        <time>2018-08-10T17:34:58Z</time>
      </trkpt>
      <trkpt lat="4.5936180" lon="-74.2766850">
        <ele>2574.6</ele>
        <time>2018-08-10T17:34:59Z</time>
      </trkpt>
      <trkpt lat="4.5935800" lon="-74.2766430">
        <ele>2574.6</ele>
        <time>2018-08-10T17:35:00Z</time>
      </trkpt>
      <trkpt lat="4.5935380" lon="-74.2766030">
        <ele>2574.6</ele>
        <time>2018-08-10T17:35:01Z</time>
      </trkpt>
      <trkpt lat="4.5935000" lon="-74.2765670">
        <ele>2574.5</ele>
        <time>2018-08-10T17:35:02Z</time>
      </trkpt>
      <trkpt lat="4.5934600" lon="-74.2765230">
        <ele>2574.5</ele>
        <time>2018-08-10T17:35:03Z</time>
      </trkpt>
      <trkpt lat="4.5934220" lon="-74.2764800">
        <ele>2574.5</ele>
        <time>2018-08-10T17:35:04Z</time>
      </trkpt>
      <trkpt lat="4.5933870" lon="-74.2764380">
        <ele>2574.4</ele>
        <time>2018-08-10T17:35:05Z</time>
      </trkpt>
      <trkpt lat="4.5933480" lon="-74.2763970">
        <ele>2574.4</ele>
        <time>2018-08-10T17:35:06Z</time>
      </trkpt>
      <trkpt lat="4.5933100" lon="-74.2763550">
        <ele>2574.4</ele>
        <time>2018-08-10T17:35:07Z</time>
      </trkpt>
      <trkpt lat="4.5932720" lon="-74.2763150">
        <ele>2574.3</ele>
        <time>2018-08-10T17:35:08Z</time>
      </trkpt>
      <trkpt lat="4.5932320" lon="-74.2762770">
        <ele>2574.3</ele>
        <time>2018-08-10T17:35:09Z</time>
      </trkpt>
      <trkpt lat="4.5931950" lon="-74.2762380">
        <ele>2574.2</ele>
        <time>2018-08-10T17:35:10Z</time>
      </trkpt>
      <trkpt lat="4.5931600" lon="-74.2762020">
        <ele>2574.2</ele>
        <time>2018-08-10T17:35:11Z</time>
      </trkpt>
      <trkpt lat="4.5931230" lon="-74.2761650">
        <ele>2574.2</ele>
        <time>2018-08-10T17:35:12Z</time>
      </trkpt>
      <trkpt lat="4.5930880" lon="-74.2761280">
        <ele>2574.1</ele>
        <time>2018-08-10T17:35:13Z</time>
      </trkpt>
      <trkpt lat="4.5930550" lon="-74.2760930">
        <ele>2574.1</ele>
        <time>2018-08-10T17:35:14Z</time>
      </trkpt>
      <trkpt lat="4.5930200" lon="-74.2760620">
        <ele>2574.0</ele>
        <time>2018-08-10T17:35:15Z</time>
      </trkpt>
      <trkpt lat="4.5929830" lon="-74.2760270">
        <ele>2574.0</ele>
        <time>2018-08-10T17:35:16Z</time>
      </trkpt>
      <trkpt lat="4.5929470" lon="-74.2759900">
        <ele>2574.0</ele>
        <time>2018-08-10T17:35:17Z</time>
      </trkpt>
      <trkpt lat="4.5929130" lon="-74.2759520">
        <ele>2573.9</ele>
        <time>2018-08-10T17:35:18Z</time>
      </trkpt>
      <trkpt lat="4.5928780" lon="-74.2759150">
        <ele>2573.9</ele>
        <time>2018-08-10T17:35:19Z</time>
      </trkpt>
      <trkpt lat="4.5928430" lon="-74.2758750">
        <ele>2573.8</ele>
        <time>2018-08-10T17:35:20Z</time>
      </trkpt>
      <trkpt lat="4.5928070" lon="-74.2758350">
        <ele>2573.8</ele>
        <time>2018-08-10T17:35:21Z</time>
      </trkpt>
      <trkpt lat="4.5927680" lon="-74.2757920">
        <ele>2573.7</ele>
        <time>2018-08-10T17:35:22Z</time>
      </trkpt>
      <trkpt lat="4.5927320" lon="-74.2757520">
        <ele>2573.6</ele>
        <time>2018-08-10T17:35:23Z</time>
      </trkpt>
      <trkpt lat="4.5927000" lon="-74.2757080">
        <ele>2573.6</ele>
        <time>2018-08-10T17:35:24Z</time>
      </trkpt>
      <trkpt lat="4.5926630" lon="-74.2756670">
        <ele>2573.5</ele>
        <time>2018-08-10T17:35:25Z</time>
      </trkpt>
      <trkpt lat="4.5926220" lon="-74.2756270">
        <ele>2573.4</ele>
        <time>2018-08-10T17:35:26Z</time>
      </trkpt>
      <trkpt lat="4.5925850" lon="-74.2755880">
        <ele>2573.4</ele>
        <time>2018-08-10T17:35:27Z</time>
      </trkpt>
      <trkpt lat="4.5925480" lon="-74.2755470">
        <ele>2573.3</ele>
        <time>2018-08-10T17:35:28Z</time>
      </trkpt>
      <trkpt lat="4.5925120" lon="-74.2755050">
        <ele>2573.3</ele>
        <time>2018-08-10T17:35:29Z</time>
      </trkpt>
      <trkpt lat="4.5924730" lon="-74.2754630">
        <ele>2573.1</ele>
        <time>2018-08-10T17:35:30Z</time>
      </trkpt>
      <trkpt lat="4.5924370" lon="-74.2754220">
        <ele>2572.9</ele>
        <time>2018-08-10T17:35:31Z</time>
      </trkpt>
      <trkpt lat="4.5923980" lon="-74.2753820">
        <ele>2572.8</ele>
        <time>2018-08-10T17:35:32Z</time>
      </trkpt>
      <trkpt lat="4.5923620" lon="-74.2753430">
        <ele>2572.6</ele>
        <time>2018-08-10T17:35:33Z</time>
      </trkpt>
      <trkpt lat="4.5923220" lon="-74.2753020">
        <ele>2572.4</ele>
        <time>2018-08-10T17:35:34Z</time>
      </trkpt>
      <trkpt lat="4.5922820" lon="-74.2752580">
        <ele>2572.2</ele>
        <time>2018-08-10T17:35:35Z</time>
      </trkpt>
      <trkpt lat="4.5922400" lon="-74.2752170">
        <ele>2572.0</ele>
        <time>2018-08-10T17:35:36Z</time>
      </trkpt>
      <trkpt lat="4.5921980" lon="-74.2751750">
        <ele>2571.9</ele>
        <time>2018-08-10T17:35:37Z</time>
      </trkpt>
      <trkpt lat="4.5921570" lon="-74.2751350">
        <ele>2571.7</ele>
        <time>2018-08-10T17:35:38Z</time>
      </trkpt>
      <trkpt lat="4.5921150" lon="-74.2750930">
        <ele>2571.6</ele>
        <time>2018-08-10T17:35:39Z</time>
      </trkpt>
      <trkpt lat="4.5920750" lon="-74.2750530">
        <ele>2571.5</ele>
        <time>2018-08-10T17:35:40Z</time>
      </trkpt>
      <trkpt lat="4.5920330" lon="-74.2750080">
        <ele>2571.4</ele>
        <time>2018-08-10T17:35:41Z</time>
      </trkpt>
      <trkpt lat="4.5919950" lon="-74.2749680">
        <ele>2571.4</ele>
        <time>2018-08-10T17:35:42Z</time>
      </trkpt>
      <trkpt lat="4.5919530" lon="-74.2749250">
        <ele>2571.3</ele>
        <time>2018-08-10T17:35:43Z</time>
      </trkpt>
      <trkpt lat="4.5919120" lon="-74.2748830">
        <ele>2571.3</ele>
        <time>2018-08-10T17:35:44Z</time>
      </trkpt>
      <trkpt lat="4.5918700" lon="-74.2748370">
        <ele>2571.2</ele>
        <time>2018-08-10T17:35:45Z</time>
      </trkpt>
      <trkpt lat="4.5918270" lon="-74.2747900">
        <ele>2571.2</ele>
        <time>2018-08-10T17:35:46Z</time>
      </trkpt>
      <trkpt lat="4.5917820" lon="-74.2747430">
        <ele>2571.1</ele>
        <time>2018-08-10T17:35:47Z</time>
      </trkpt>
      <trkpt lat="4.5917380" lon="-74.2746980">
        <ele>2571.1</ele>
        <time>2018-08-10T17:35:48Z</time>
      </trkpt>
      <trkpt lat="4.5916970" lon="-74.2746550">
        <ele>2571.0</ele>
        <time>2018-08-10T17:35:49Z</time>
      </trkpt>
      <trkpt lat="4.5916550" lon="-74.2746080">
        <ele>2571.0</ele>
        <time>2018-08-10T17:35:50Z</time>
      </trkpt>
      <trkpt lat="4.5916130" lon="-74.2745630">
        <ele>2570.9</ele>
        <time>2018-08-10T17:35:51Z</time>
      </trkpt>
      <trkpt lat="4.5915770" lon="-74.2745120">
        <ele>2570.9</ele>
        <time>2018-08-10T17:35:52Z</time>
      </trkpt>
      <trkpt lat="4.5915350" lon="-74.2744680">
        <ele>2570.8</ele>
        <time>2018-08-10T17:35:53Z</time>
      </trkpt>
      <trkpt lat="4.5914950" lon="-74.2744280">
        <ele>2570.8</ele>
        <time>2018-08-10T17:35:54Z</time>
      </trkpt>
      <trkpt lat="4.5914530" lon="-74.2743830">
        <ele>2570.8</ele>
        <time>2018-08-10T17:35:55Z</time>
      </trkpt>
      <trkpt lat="4.5914120" lon="-74.2743400">
        <ele>2570.7</ele>
        <time>2018-08-10T17:35:56Z</time>
      </trkpt>
      <trkpt lat="4.5913720" lon="-74.2742980">
        <ele>2570.7</ele>
        <time>2018-08-10T17:35:57Z</time>
      </trkpt>
      <trkpt lat="4.5913330" lon="-74.2742530">
        <ele>2570.7</ele>
        <time>2018-08-10T17:35:58Z</time>
      </trkpt>
      <trkpt lat="4.5912930" lon="-74.2742070">
        <ele>2570.6</ele>
        <time>2018-08-10T17:35:59Z</time>
      </trkpt>
      <trkpt lat="4.5912520" lon="-74.2741670">
        <ele>2570.6</ele>
        <time>2018-08-10T17:36:00Z</time>
      </trkpt>
      <trkpt lat="4.5912100" lon="-74.2741220">
        <ele>2570.5</ele>
        <time>2018-08-10T17:36:01Z</time>
      </trkpt>
      <trkpt lat="4.5911630" lon="-74.2740750">
        <ele>2570.4</ele>
        <time>2018-08-10T17:36:02Z</time>
      </trkpt>
      <trkpt lat="4.5911170" lon="-74.2740270">
        <ele>2570.4</ele>
        <time>2018-08-10T17:36:03Z</time>
      </trkpt>
      <trkpt lat="4.5910750" lon="-74.2739780">
        <ele>2570.3</ele>
        <time>2018-08-10T17:36:04Z</time>
      </trkpt>
      <trkpt lat="4.5910320" lon="-74.2739320">
        <ele>2570.3</ele>
        <time>2018-08-10T17:36:05Z</time>
      </trkpt>
      <trkpt lat="4.5909880" lon="-74.2738830">
        <ele>2570.2</ele>
        <time>2018-08-10T17:36:06Z</time>
      </trkpt>
      <trkpt lat="4.5909430" lon="-74.2738350">
        <ele>2570.1</ele>
        <time>2018-08-10T17:36:07Z</time>
      </trkpt>
      <trkpt lat="4.5909020" lon="-74.2737850">
        <ele>2570.0</ele>
        <time>2018-08-10T17:36:08Z</time>
      </trkpt>
      <trkpt lat="4.5908550" lon="-74.2737370">
        <ele>2570.0</ele>
        <time>2018-08-10T17:36:09Z</time>
      </trkpt>
      <trkpt lat="4.5908120" lon="-74.2736900">
        <ele>2569.9</ele>
        <time>2018-08-10T17:36:10Z</time>
      </trkpt>
      <trkpt lat="4.5907670" lon="-74.2736430">
        <ele>2569.8</ele>
        <time>2018-08-10T17:36:11Z</time>
      </trkpt>
      <trkpt lat="4.5907230" lon="-74.2735930">
        <ele>2569.7</ele>
        <time>2018-08-10T17:36:12Z</time>
      </trkpt>
      <trkpt lat="4.5906780" lon="-74.2735470">
        <ele>2569.6</ele>
        <time>2018-08-10T17:36:13Z</time>
      </trkpt>
      <trkpt lat="4.5906280" lon="-74.2734950">
        <ele>2569.4</ele>
        <time>2018-08-10T17:36:14Z</time>
      </trkpt>
      <trkpt lat="4.5905800" lon="-74.2734420">
        <ele>2569.2</ele>
        <time>2018-08-10T17:36:15Z</time>
      </trkpt>
      <trkpt lat="4.5905280" lon="-74.2733880">
        <ele>2569.0</ele>
        <time>2018-08-10T17:36:16Z</time>
      </trkpt>
      <trkpt lat="4.5904780" lon="-74.2733380">
        <ele>2568.8</ele>
        <time>2018-08-10T17:36:17Z</time>
      </trkpt>
      <trkpt lat="4.5904300" lon="-74.2732920">
        <ele>2568.6</ele>
        <time>2018-08-10T17:36:18Z</time>
      </trkpt>
      <trkpt lat="4.5903830" lon="-74.2732430">
        <ele>2568.4</ele>
        <time>2018-08-10T17:36:19Z</time>
      </trkpt>
      <trkpt lat="4.5903380" lon="-74.2731930">
        <ele>2568.3</ele>
        <time>2018-08-10T17:36:20Z</time>
      </trkpt>
      <trkpt lat="4.5902920" lon="-74.2731430">
        <ele>2568.1</ele>
        <time>2018-08-10T17:36:21Z</time>
      </trkpt>
      <trkpt lat="4.5902470" lon="-74.2730930">
        <ele>2568.0</ele>
        <time>2018-08-10T17:36:22Z</time>
      </trkpt>
      <trkpt lat="4.5902020" lon="-74.2730380">
        <ele>2568.0</ele>
        <time>2018-08-10T17:36:23Z</time>
      </trkpt>
      <trkpt lat="4.5901530" lon="-74.2729880">
        <ele>2567.9</ele>
        <time>2018-08-10T17:36:24Z</time>
      </trkpt>
      <trkpt lat="4.5901030" lon="-74.2729380">
        <ele>2567.7</ele>
        <time>2018-08-10T17:36:25Z</time>
      </trkpt>
      <trkpt lat="4.5900550" lon="-74.2728880">
        <ele>2567.6</ele>
        <time>2018-08-10T17:36:26Z</time>
      </trkpt>
      <trkpt lat="4.5900070" lon="-74.2728400">
        <ele>2567.5</ele>
        <time>2018-08-10T17:36:27Z</time>
      </trkpt>
      <trkpt lat="4.5899580" lon="-74.2727900">
        <ele>2567.5</ele>
        <time>2018-08-10T17:36:28Z</time>
      </trkpt>
      <trkpt lat="4.5899120" lon="-74.2727400">
        <ele>2567.4</ele>
        <time>2018-08-10T17:36:29Z</time>
      </trkpt>
      <trkpt lat="4.5898650" lon="-74.2726920">
        <ele>2567.4</ele>
        <time>2018-08-10T17:36:30Z</time>
      </trkpt>
      <trkpt lat="4.5898200" lon="-74.2726400">
        <ele>2567.4</ele>
        <time>2018-08-10T17:36:31Z</time>
      </trkpt>
      <trkpt lat="4.5897780" lon="-74.2725900">
        <ele>2567.3</ele>
        <time>2018-08-10T17:36:32Z</time>
      </trkpt>
      <trkpt lat="4.5897330" lon="-74.2725420">
        <ele>2567.3</ele>
        <time>2018-08-10T17:36:33Z</time>
      </trkpt>
      <trkpt lat="4.5896850" lon="-74.2724930">
        <ele>2567.3</ele>
        <time>2018-08-10T17:36:34Z</time>
      </trkpt>
      <trkpt lat="4.5896420" lon="-74.2724470">
        <ele>2567.3</ele>
        <time>2018-08-10T17:36:35Z</time>
      </trkpt>
      <trkpt lat="4.5896000" lon="-74.2723970">
        <ele>2567.3</ele>
        <time>2018-08-10T17:36:36Z</time>
      </trkpt>
      <trkpt lat="4.5895550" lon="-74.2723480">
        <ele>2567.2</ele>
        <time>2018-08-10T17:36:37Z</time>
      </trkpt>
      <trkpt lat="4.5895100" lon="-74.2723020">
        <ele>2567.2</ele>
        <time>2018-08-10T17:36:38Z</time>
      </trkpt>
      <trkpt lat="4.5894670" lon="-74.2722570">
        <ele>2567.2</ele>
        <time>2018-08-10T17:36:39Z</time>
      </trkpt>
      <trkpt lat="4.5894230" lon="-74.2722120">
        <ele>2567.2</ele>
        <time>2018-08-10T17:36:40Z</time>
      </trkpt>
      <trkpt lat="4.5893820" lon="-74.2721670">
        <ele>2567.2</ele>
        <time>2018-08-10T17:36:41Z</time>
      </trkpt>
      <trkpt lat="4.5893380" lon="-74.2721200">
        <ele>2567.2</ele>
        <time>2018-08-10T17:36:42Z</time>
      </trkpt>
      <trkpt lat="4.5892980" lon="-74.2720770">
        <ele>2567.2</ele>
        <time>2018-08-10T17:36:43Z</time>
      </trkpt>
      <trkpt lat="4.5892580" lon="-74.2720280">
        <ele>2567.2</ele>
        <time>2018-08-10T17:36:44Z</time>
      </trkpt>
      <trkpt lat="4.5892180" lon="-74.2719830">
        <ele>2567.2</ele>
        <time>2018-08-10T17:36:45Z</time>
      </trkpt>
      <trkpt lat="4.5891800" lon="-74.2719420">
        <ele>2567.1</ele>
        <time>2018-08-10T17:36:46Z</time>
      </trkpt>
      <trkpt lat="4.5891400" lon="-74.2718980">
        <ele>2567.1</ele>
        <time>2018-08-10T17:36:47Z</time>
      </trkpt>
      <trkpt lat="4.5891030" lon="-74.2718570">
        <ele>2567.1</ele>
        <time>2018-08-10T17:36:48Z</time>
      </trkpt>
      <trkpt lat="4.5890630" lon="-74.2718150">
        <ele>2567.1</ele>
        <time>2018-08-10T17:36:49Z</time>
      </trkpt>
      <trkpt lat="4.5890270" lon="-74.2717720">
        <ele>2567.1</ele>
        <time>2018-08-10T17:36:50Z</time>
      </trkpt>
      <trkpt lat="4.5889870" lon="-74.2717280">
        <ele>2567.1</ele>
        <time>2018-08-10T17:36:51Z</time>
      </trkpt>
      <trkpt lat="4.5889500" lon="-74.2716870">
        <ele>2567.1</ele>
        <time>2018-08-10T17:36:52Z</time>
      </trkpt>
      <trkpt lat="4.5889080" lon="-74.2716430">
        <ele>2567.1</ele>
        <time>2018-08-10T17:36:53Z</time>
      </trkpt>
      <trkpt lat="4.5888550" lon="-74.2715950">
        <ele>2567.1</ele>
        <time>2018-08-10T17:36:54Z</time>
      </trkpt>
      <trkpt lat="4.5888120" lon="-74.2715520">
        <ele>2567.1</ele>
        <time>2018-08-10T17:36:55Z</time>
      </trkpt>
      <trkpt lat="4.5887730" lon="-74.2715080">
        <ele>2567.1</ele>
        <time>2018-08-10T17:36:56Z</time>
      </trkpt>
      <trkpt lat="4.5887320" lon="-74.2714630">
        <ele>2567.1</ele>
        <time>2018-08-10T17:36:57Z</time>
      </trkpt>
      <trkpt lat="4.5886920" lon="-74.2714200">
        <ele>2567.1</ele>
        <time>2018-08-10T17:36:58Z</time>
      </trkpt>
      <trkpt lat="4.5886530" lon="-74.2713800">
        <ele>2567.1</ele>
        <time>2018-08-10T17:36:59Z</time>
      </trkpt>
      <trkpt lat="4.5886150" lon="-74.2713430">
        <ele>2567.1</ele>
        <time>2018-08-10T17:37:00Z</time>
      </trkpt>
      <trkpt lat="4.5885730" lon="-74.2713000">
        <ele>2567.1</ele>
        <time>2018-08-10T17:37:01Z</time>
      </trkpt>
      <trkpt lat="4.5885320" lon="-74.2712600">
        <ele>2567.1</ele>
        <time>2018-08-10T17:37:02Z</time>
      </trkpt>
      <trkpt lat="4.5884950" lon="-74.2712220">
        <ele>2567.1</ele>
        <time>2018-08-10T17:37:03Z</time>
      </trkpt>
      <trkpt lat="4.5884530" lon="-74.2711820">
        <ele>2567.1</ele>
        <time>2018-08-10T17:37:04Z</time>
      </trkpt>
      <trkpt lat="4.5884130" lon="-74.2711400">
        <ele>2567.1</ele>
        <time>2018-08-10T17:37:05Z</time>
      </trkpt>
      <trkpt lat="4.5883730" lon="-74.2710950">
        <ele>2567.2</ele>
        <time>2018-08-10T17:37:06Z</time>
      </trkpt>
      <trkpt lat="4.5883330" lon="-74.2710530">
        <ele>2567.2</ele>
        <time>2018-08-10T17:37:07Z</time>
      </trkpt>
      <trkpt lat="4.5882950" lon="-74.2710050">
        <ele>2567.2</ele>
        <time>2018-08-10T17:37:08Z</time>
      </trkpt>
      <trkpt lat="4.5882530" lon="-74.2709620">
        <ele>2567.2</ele>
        <time>2018-08-10T17:37:09Z</time>
      </trkpt>
      <trkpt lat="4.5882130" lon="-74.2709200">
        <ele>2567.2</ele>
        <time>2018-08-10T17:37:10Z</time>
      </trkpt>
      <trkpt lat="4.5881730" lon="-74.2708780">
        <ele>2567.2</ele>
        <time>2018-08-10T17:37:11Z</time>
      </trkpt>
      <trkpt lat="4.5881330" lon="-74.2708350">
        <ele>2567.3</ele>
        <time>2018-08-10T17:37:12Z</time>
      </trkpt>
      <trkpt lat="4.5880950" lon="-74.2707970">
        <ele>2567.3</ele>
        <time>2018-08-10T17:37:13Z</time>
      </trkpt>
      <trkpt lat="4.5880650" lon="-74.2707600">
        <ele>2567.3</ele>
        <time>2018-08-10T17:37:14Z</time>
      </trkpt>
      <trkpt lat="4.5880300" lon="-74.2707220">
        <ele>2567.3</ele>
        <time>2018-08-10T17:37:15Z</time>
      </trkpt>
      <trkpt lat="4.5879920" lon="-74.2706800">
        <ele>2567.3</ele>
        <time>2018-08-10T17:37:16Z</time>
      </trkpt>
      <trkpt lat="4.5879480" lon="-74.2706380">
        <ele>2567.4</ele>
        <time>2018-08-10T17:37:17Z</time>
      </trkpt>
      <trkpt lat="4.5879070" lon="-74.2705930">
        <ele>2567.4</ele>
        <time>2018-08-10T17:37:18Z</time>
      </trkpt>
      <trkpt lat="4.5878680" lon="-74.2705500">
        <ele>2567.4</ele>
        <time>2018-08-10T17:37:19Z</time>
      </trkpt>
      <trkpt lat="4.5878350" lon="-74.2705120">
        <ele>2567.5</ele>
        <time>2018-08-10T17:37:20Z</time>
      </trkpt>
      <trkpt lat="4.5878030" lon="-74.2704750">
        <ele>2567.5</ele>
        <time>2018-08-10T17:37:21Z</time>
      </trkpt>
      <trkpt lat="4.5877730" lon="-74.2704400">
        <ele>2567.5</ele>
        <time>2018-08-10T17:37:22Z</time>
      </trkpt>
      <trkpt lat="4.5877450" lon="-74.2704050">
        <ele>2567.6</ele>
        <time>2018-08-10T17:37:23Z</time>
      </trkpt>
      <trkpt lat="4.5877170" lon="-74.2703700">
        <ele>2567.6</ele>
        <time>2018-08-10T17:37:24Z</time>
      </trkpt>
      <trkpt lat="4.5876880" lon="-74.2703270">
        <ele>2567.6</ele>
        <time>2018-08-10T17:37:25Z</time>
      </trkpt>
      <trkpt lat="4.5876570" lon="-74.2702870">
        <ele>2567.7</ele>
        <time>2018-08-10T17:37:26Z</time>
      </trkpt>
      <trkpt lat="4.5876320" lon="-74.2702520">
        <ele>2567.7</ele>
        <time>2018-08-10T17:37:27Z</time>
      </trkpt>
      <trkpt lat="4.5876050" lon="-74.2702170">
        <ele>2567.7</ele>
        <time>2018-08-10T17:37:28Z</time>
      </trkpt>
      <trkpt lat="4.5875680" lon="-74.2701820">
        <ele>2567.7</ele>
        <time>2018-08-10T17:37:29Z</time>
      </trkpt>
      <trkpt lat="4.5875350" lon="-74.2701500">
        <ele>2567.7</ele>
        <time>2018-08-10T17:37:30Z</time>
      </trkpt>
      <trkpt lat="4.5875050" lon="-74.2701180">
        <ele>2567.7</ele>
        <time>2018-08-10T17:37:31Z</time>
      </trkpt>
      <trkpt lat="4.5874750" lon="-74.2700920">
        <ele>2567.7</ele>
        <time>2018-08-10T17:37:32Z</time>
      </trkpt>
      <trkpt lat="4.5874450" lon="-74.2700650">
        <ele>2567.7</ele>
        <time>2018-08-10T17:37:33Z</time>
      </trkpt>
      <trkpt lat="4.5874130" lon="-74.2700380">
        <ele>2567.7</ele>
        <time>2018-08-10T17:37:34Z</time>
      </trkpt>
      <trkpt lat="4.5873880" lon="-74.2700080">
        <ele>2567.7</ele>
        <time>2018-08-10T17:37:35Z</time>
      </trkpt>
      <trkpt lat="4.5873550" lon="-74.2699780">
        <ele>2567.7</ele>
        <time>2018-08-10T17:37:36Z</time>
      </trkpt>
      <trkpt lat="4.5873200" lon="-74.2699520">
        <ele>2567.7</ele>
        <time>2018-08-10T17:37:37Z</time>
      </trkpt>
      <trkpt lat="4.5872920" lon="-74.2699230">
        <ele>2567.7</ele>
        <time>2018-08-10T17:37:38Z</time>
      </trkpt>
      <trkpt lat="4.5872620" lon="-74.2698950">
        <ele>2567.8</ele>
        <time>2018-08-10T17:37:39Z</time>
      </trkpt>
      <trkpt lat="4.5872350" lon="-74.2698650">
        <ele>2567.8</ele>
        <time>2018-08-10T17:37:40Z</time>
      </trkpt>
      <trkpt lat="4.5872120" lon="-74.2698370">
        <ele>2567.8</ele>
        <time>2018-08-10T17:37:41Z</time>
      </trkpt>
      <trkpt lat="4.5871870" lon="-74.2698080">
        <ele>2567.8</ele>
        <time>2018-08-10T17:37:42Z</time>
      </trkpt>
      <trkpt lat="4.5871600" lon="-74.2697780">
        <ele>2567.8</ele>
        <time>2018-08-10T17:37:43Z</time>
      </trkpt>
      <trkpt lat="4.5871350" lon="-74.2697470">
        <ele>2567.7</ele>
        <time>2018-08-10T17:37:44Z</time>
      </trkpt>
      <trkpt lat="4.5871130" lon="-74.2697150">
        <ele>2567.7</ele>
        <time>2018-08-10T17:37:45Z</time>
      </trkpt>
      <trkpt lat="4.5870830" lon="-74.2696870">
        <ele>2567.7</ele>
        <time>2018-08-10T17:37:46Z</time>
      </trkpt>
      <trkpt lat="4.5870520" lon="-74.2696620">
        <ele>2567.7</ele>
        <time>2018-08-10T17:37:47Z</time>
      </trkpt>
      <trkpt lat="4.5870200" lon="-74.2696330">
        <ele>2567.7</ele>
        <time>2018-08-10T17:37:48Z</time>
      </trkpt>
      <trkpt lat="4.5869850" lon="-74.2696020">
        <ele>2567.7</ele>
        <time>2018-08-10T17:37:49Z</time>
      </trkpt>
      <trkpt lat="4.5869520" lon="-74.2695720">
        <ele>2567.7</ele>
        <time>2018-08-10T17:37:50Z</time>
      </trkpt>
      <trkpt lat="4.5869220" lon="-74.2695420">
        <ele>2567.7</ele>
        <time>2018-08-10T17:37:51Z</time>
      </trkpt>
      <trkpt lat="4.5868920" lon="-74.2695120">
        <ele>2567.7</ele>
        <time>2018-08-10T17:37:52Z</time>
      </trkpt>
      <trkpt lat="4.5868600" lon="-74.2694800">
        <ele>2567.7</ele>
        <time>2018-08-10T17:37:53Z</time>
      </trkpt>
      <trkpt lat="4.5868270" lon="-74.2694470">
        <ele>2567.7</ele>
        <time>2018-08-10T17:37:54Z</time>
      </trkpt>
      <trkpt lat="4.5867970" lon="-74.2694150">
        <ele>2567.7</ele>
        <time>2018-08-10T17:37:55Z</time>
      </trkpt>
      <trkpt lat="4.5867520" lon="-74.2693770">
        <ele>2567.7</ele>
        <time>2018-08-10T17:37:56Z</time>
      </trkpt>
      <trkpt lat="4.5867230" lon="-74.2693370">
        <ele>2567.6</ele>
        <time>2018-08-10T17:37:57Z</time>
      </trkpt>
      <trkpt lat="4.5866920" lon="-74.2693000">
        <ele>2567.6</ele>
        <time>2018-08-10T17:37:58Z</time>
      </trkpt>
      <trkpt lat="4.5866600" lon="-74.2692650">
        <ele>2567.6</ele>
        <time>2018-08-10T17:37:59Z</time>
      </trkpt>
      <trkpt lat="4.5866320" lon="-74.2692300">
        <ele>2567.6</ele>
        <time>2018-08-10T17:38:00Z</time>
      </trkpt>
      <trkpt lat="4.5866070" lon="-74.2691980">
        <ele>2567.6</ele>
        <time>2018-08-10T17:38:01Z</time>
      </trkpt>
      <trkpt lat="4.5865820" lon="-74.2691650">
        <ele>2567.6</ele>
        <time>2018-08-10T17:38:02Z</time>
      </trkpt>
      <trkpt lat="4.5865520" lon="-74.2691320">
        <ele>2567.6</ele>
        <time>2018-08-10T17:38:03Z</time>
      </trkpt>
      <trkpt lat="4.5865230" lon="-74.2691020">
        <ele>2567.6</ele>
        <time>2018-08-10T17:38:04Z</time>
      </trkpt>
      <trkpt lat="4.5864870" lon="-74.2690650">
        <ele>2567.6</ele>
        <time>2018-08-10T17:38:05Z</time>
      </trkpt>
      <trkpt lat="4.5864570" lon="-74.2690320">
        <ele>2567.6</ele>
        <time>2018-08-10T17:38:06Z</time>
      </trkpt>
      <trkpt lat="4.5864250" lon="-74.2689980">
        <ele>2567.6</ele>
        <time>2018-08-10T17:38:07Z</time>
      </trkpt>
      <trkpt lat="4.5863930" lon="-74.2689650">
        <ele>2567.5</ele>
        <time>2018-08-10T17:38:08Z</time>
      </trkpt>
      <trkpt lat="4.5863630" lon="-74.2689280">
        <ele>2567.5</ele>
        <time>2018-08-10T17:38:09Z</time>
      </trkpt>
      <trkpt lat="4.5863300" lon="-74.2688930">
        <ele>2567.5</ele>
        <time>2018-08-10T17:38:10Z</time>
      </trkpt>
      <trkpt lat="4.5863000" lon="-74.2688600">
        <ele>2567.5</ele>
        <time>2018-08-10T17:38:11Z</time>
      </trkpt>
      <trkpt lat="4.5862670" lon="-74.2688280">
        <ele>2567.5</ele>
        <time>2018-08-10T17:38:12Z</time>
      </trkpt>
      <trkpt lat="4.5862300" lon="-74.2687920">
        <ele>2567.5</ele>
        <time>2018-08-10T17:38:13Z</time>
      </trkpt>
      <trkpt lat="4.5861970" lon="-74.2687550">
        <ele>2567.5</ele>
        <time>2018-08-10T17:38:14Z</time>
      </trkpt>
      <trkpt lat="4.5861600" lon="-74.2687180">
        <ele>2567.5</ele>
        <time>2018-08-10T17:38:15Z</time>
      </trkpt>
      <trkpt lat="4.5861280" lon="-74.2686830">
        <ele>2567.5</ele>
        <time>2018-08-10T17:38:16Z</time>
      </trkpt>
      <trkpt lat="4.5860970" lon="-74.2686520">
        <ele>2567.4</ele>
        <time>2018-08-10T17:38:17Z</time>
      </trkpt>
      <trkpt lat="4.5860620" lon="-74.2686150">
        <ele>2567.4</ele>
        <time>2018-08-10T17:38:18Z</time>
      </trkpt>
      <trkpt lat="4.5860300" lon="-74.2685780">
        <ele>2567.4</ele>
        <time>2018-08-10T17:38:19Z</time>
      </trkpt>
      <trkpt lat="4.5860000" lon="-74.2685420">
        <ele>2567.4</ele>
        <time>2018-08-10T17:38:20Z</time>
      </trkpt>
      <trkpt lat="4.5859670" lon="-74.2685080">
        <ele>2567.4</ele>
        <time>2018-08-10T17:38:21Z</time>
      </trkpt>
      <trkpt lat="4.5859350" lon="-74.2684730">
        <ele>2567.4</ele>
        <time>2018-08-10T17:38:22Z</time>
      </trkpt>
      <trkpt lat="4.5859050" lon="-74.2684380">
        <ele>2567.4</ele>
        <time>2018-08-10T17:38:23Z</time>
      </trkpt>
      <trkpt lat="4.5858730" lon="-74.2684030">
        <ele>2567.3</ele>
        <time>2018-08-10T17:38:24Z</time>
      </trkpt>
      <trkpt lat="4.5858400" lon="-74.2683670">
        <ele>2567.3</ele>
        <time>2018-08-10T17:38:25Z</time>
      </trkpt>
      <trkpt lat="4.5858070" lon="-74.2683330">
        <ele>2567.3</ele>
        <time>2018-08-10T17:38:26Z</time>
      </trkpt>
      <trkpt lat="4.5857620" lon="-74.2682830">
        <ele>2567.3</ele>
        <time>2018-08-10T17:38:27Z</time>
      </trkpt>
      <trkpt lat="4.5857280" lon="-74.2682450">
        <ele>2567.3</ele>
        <time>2018-08-10T17:38:28Z</time>
      </trkpt>
      <trkpt lat="4.5857000" lon="-74.2682130">
        <ele>2567.3</ele>
        <time>2018-08-10T17:38:29Z</time>
      </trkpt>
      <trkpt lat="4.5856670" lon="-74.2681850">
        <ele>2567.2</ele>
        <time>2018-08-10T17:38:30Z</time>
      </trkpt>
      <trkpt lat="4.5856370" lon="-74.2681520">
        <ele>2567.2</ele>
        <time>2018-08-10T17:38:31Z</time>
      </trkpt>
      <trkpt lat="4.5856080" lon="-74.2681170">
        <ele>2567.2</ele>
        <time>2018-08-10T17:38:32Z</time>
      </trkpt>
      <trkpt lat="4.5855780" lon="-74.2680850">
        <ele>2567.2</ele>
        <time>2018-08-10T17:38:33Z</time>
      </trkpt>
      <trkpt lat="4.5855450" lon="-74.2680480">
        <ele>2567.2</ele>
        <time>2018-08-10T17:38:34Z</time>
      </trkpt>
      <trkpt lat="4.5855130" lon="-74.2680080">
        <ele>2567.1</ele>
        <time>2018-08-10T17:38:35Z</time>
      </trkpt>
      <trkpt lat="4.5854880" lon="-74.2679720">
        <ele>2567.1</ele>
        <time>2018-08-10T17:38:36Z</time>
      </trkpt>
      <trkpt lat="4.5854600" lon="-74.2679370">
        <ele>2567.1</ele>
        <time>2018-08-10T17:38:37Z</time>
      </trkpt>
      <trkpt lat="4.5854320" lon="-74.2678970">
        <ele>2567.1</ele>
        <time>2018-08-10T17:38:38Z</time>
      </trkpt>
      <trkpt lat="4.5854070" lon="-74.2678570">
        <ele>2567.1</ele>
        <time>2018-08-10T17:38:39Z</time>
      </trkpt>
      <trkpt lat="4.5853850" lon="-74.2678130">
        <ele>2567.0</ele>
        <time>2018-08-10T17:38:40Z</time>
      </trkpt>
      <trkpt lat="4.5853630" lon="-74.2677730">
        <ele>2567.0</ele>
        <time>2018-08-10T17:38:41Z</time>
      </trkpt>
      <trkpt lat="4.5853380" lon="-74.2677330">
        <ele>2567.0</ele>
        <time>2018-08-10T17:38:42Z</time>
      </trkpt>
      <trkpt lat="4.5853150" lon="-74.2676930">
        <ele>2567.0</ele>
        <time>2018-08-10T17:38:43Z</time>
      </trkpt>
      <trkpt lat="4.5852900" lon="-74.2676550">
        <ele>2566.9</ele>
        <time>2018-08-10T17:38:44Z</time>
      </trkpt>
      <trkpt lat="4.5852730" lon="-74.2676170">
        <ele>2566.9</ele>
        <time>2018-08-10T17:38:45Z</time>
      </trkpt>
      <trkpt lat="4.5852530" lon="-74.2675770">
        <ele>2566.9</ele>
        <time>2018-08-10T17:38:46Z</time>
      </trkpt>
      <trkpt lat="4.5852300" lon="-74.2675350">
        <ele>2566.9</ele>
        <time>2018-08-10T17:38:47Z</time>
      </trkpt>
      <trkpt lat="4.5852080" lon="-74.2674970">
        <ele>2566.8</ele>
        <time>2018-08-10T17:38:48Z</time>
      </trkpt>
      <trkpt lat="4.5851870" lon="-74.2674580">
        <ele>2566.8</ele>
        <time>2018-08-10T17:38:49Z</time>
      </trkpt>
      <trkpt lat="4.5851670" lon="-74.2674130">
        <ele>2566.8</ele>
        <time>2018-08-10T17:38:50Z</time>
      </trkpt>
      <trkpt lat="4.5851430" lon="-74.2673670">
        <ele>2566.7</ele>
        <time>2018-08-10T17:38:51Z</time>
      </trkpt>
      <trkpt lat="4.5851200" lon="-74.2673200">
        <ele>2566.7</ele>
        <time>2018-08-10T17:38:52Z</time>
      </trkpt>
      <trkpt lat="4.5850950" lon="-74.2672750">
        <ele>2566.7</ele>
        <time>2018-08-10T17:38:53Z</time>
      </trkpt>
      <trkpt lat="4.5850730" lon="-74.2672320">
        <ele>2566.7</ele>
        <time>2018-08-10T17:38:54Z</time>
      </trkpt>
      <trkpt lat="4.5850550" lon="-74.2671880">
        <ele>2566.8</ele>
        <time>2018-08-10T17:38:55Z</time>
      </trkpt>
      <trkpt lat="4.5850330" lon="-74.2671480">
        <ele>2566.8</ele>
        <time>2018-08-10T17:38:56Z</time>
      </trkpt>
      <trkpt lat="4.5850130" lon="-74.2671080">
        <ele>2566.8</ele>
        <time>2018-08-10T17:38:57Z</time>
      </trkpt>
      <trkpt lat="4.5849880" lon="-74.2670570">
        <ele>2566.9</ele>
        <time>2018-08-10T17:38:58Z</time>
      </trkpt>
      <trkpt lat="4.5849700" lon="-74.2670120">
        <ele>2566.9</ele>
        <time>2018-08-10T17:38:59Z</time>
      </trkpt>
      <trkpt lat="4.5849480" lon="-74.2669730">
        <ele>2567.0</ele>
        <time>2018-08-10T17:39:00Z</time>
      </trkpt>
      <trkpt lat="4.5849220" lon="-74.2669320">
        <ele>2567.0</ele>
        <time>2018-08-10T17:39:01Z</time>
      </trkpt>
      <trkpt lat="4.5848980" lon="-74.2668970">
        <ele>2567.0</ele>
        <time>2018-08-10T17:39:02Z</time>
      </trkpt>
      <trkpt lat="4.5848730" lon="-74.2668600">
        <ele>2567.0</ele>
        <time>2018-08-10T17:39:03Z</time>
      </trkpt>
      <trkpt lat="4.5848480" lon="-74.2668230">
        <ele>2567.0</ele>
        <time>2018-08-10T17:39:04Z</time>
      </trkpt>
      <trkpt lat="4.5848270" lon="-74.2667870">
        <ele>2567.0</ele>
        <time>2018-08-10T17:39:05Z</time>
      </trkpt>
      <trkpt lat="4.5848070" lon="-74.2667470">
        <ele>2567.0</ele>
        <time>2018-08-10T17:39:06Z</time>
      </trkpt>
      <trkpt lat="4.5847880" lon="-74.2667070">
        <ele>2566.9</ele>
        <time>2018-08-10T17:39:07Z</time>
      </trkpt>
      <trkpt lat="4.5847700" lon="-74.2666700">
        <ele>2566.8</ele>
        <time>2018-08-10T17:39:08Z</time>
      </trkpt>
      <trkpt lat="4.5847520" lon="-74.2666320">
        <ele>2566.8</ele>
        <time>2018-08-10T17:39:09Z</time>
      </trkpt>
      <trkpt lat="4.5847250" lon="-74.2665880">
        <ele>2566.7</ele>
        <time>2018-08-10T17:39:10Z</time>
      </trkpt>
      <trkpt lat="4.5847030" lon="-74.2665520">
        <ele>2566.6</ele>
        <time>2018-08-10T17:39:11Z</time>
      </trkpt>
      <trkpt lat="4.5846800" lon="-74.2665120">
        <ele>2566.6</ele>
        <time>2018-08-10T17:39:12Z</time>
      </trkpt>
      <trkpt lat="4.5846600" lon="-74.2664780">
        <ele>2566.5</ele>
        <time>2018-08-10T17:39:13Z</time>
      </trkpt>
      <trkpt lat="4.5846370" lon="-74.2664470">
        <ele>2566.4</ele>
        <time>2018-08-10T17:39:14Z</time>
      </trkpt>
      <trkpt lat="4.5846170" lon="-74.2664100">
        <ele>2566.3</ele>
        <time>2018-08-10T17:39:15Z</time>
      </trkpt>
      <trkpt lat="4.5845970" lon="-74.2663670">
        <ele>2566.1</ele>
        <time>2018-08-10T17:39:16Z</time>
      </trkpt>
      <trkpt lat="4.5845780" lon="-74.2663170">
        <ele>2566.0</ele>
        <time>2018-08-10T17:39:17Z</time>
      </trkpt>
      <trkpt lat="4.5845550" lon="-74.2662700">
        <ele>2565.7</ele>
        <time>2018-08-10T17:39:18Z</time>
      </trkpt>
      <trkpt lat="4.5845280" lon="-74.2662220">
        <ele>2565.5</ele>
        <time>2018-08-10T17:39:19Z</time>
      </trkpt>
      <trkpt lat="4.5845030" lon="-74.2661730">
        <ele>2565.2</ele>
        <time>2018-08-10T17:39:20Z</time>
      </trkpt>
      <trkpt lat="4.5844780" lon="-74.2661200">
        <ele>2564.9</ele>
        <time>2018-08-10T17:39:21Z</time>
      </trkpt>
      <trkpt lat="4.5844500" lon="-74.2660700">
        <ele>2564.7</ele>
        <time>2018-08-10T17:39:22Z</time>
      </trkpt>
      <trkpt lat="4.5844220" lon="-74.2660200">
        <ele>2564.4</ele>
        <time>2018-08-10T17:39:23Z</time>
      </trkpt>
      <trkpt lat="4.5843950" lon="-74.2659670">
        <ele>2564.2</ele>
        <time>2018-08-10T17:39:24Z</time>
      </trkpt>
      <trkpt lat="4.5843650" lon="-74.2659120">
        <ele>2564.0</ele>
        <time>2018-08-10T17:39:25Z</time>
      </trkpt>
      <trkpt lat="4.5843330" lon="-74.2658530">
        <ele>2563.7</ele>
        <time>2018-08-10T17:39:26Z</time>
      </trkpt>
      <trkpt lat="4.5843050" lon="-74.2657880">
        <ele>2563.5</ele>
        <time>2018-08-10T17:39:27Z</time>
      </trkpt>
      <trkpt lat="4.5842770" lon="-74.2657230">
        <ele>2563.2</ele>
        <time>2018-08-10T17:39:28Z</time>
      </trkpt>
      <trkpt lat="4.5842500" lon="-74.2656450">
        <ele>2562.9</ele>
        <time>2018-08-10T17:39:29Z</time>
      </trkpt>
      <trkpt lat="4.5842200" lon="-74.2655780">
        <ele>2562.5</ele>
        <time>2018-08-10T17:39:30Z</time>
      </trkpt>
      <trkpt lat="4.5841870" lon="-74.2655070">
        <ele>2562.1</ele>
        <time>2018-08-10T17:39:31Z</time>
      </trkpt>
      <trkpt lat="4.5841500" lon="-74.2654330">
        <ele>2561.7</ele>
        <time>2018-08-10T17:39:32Z</time>
      </trkpt>
      <trkpt lat="4.5841150" lon="-74.2653600">
        <ele>2561.3</ele>
        <time>2018-08-10T17:39:33Z</time>
      </trkpt>
      <trkpt lat="4.5840820" lon="-74.2652870">
        <ele>2560.9</ele>
        <time>2018-08-10T17:39:34Z</time>
      </trkpt>
      <trkpt lat="4.5840470" lon="-74.2652150">
        <ele>2560.5</ele>
        <time>2018-08-10T17:39:35Z</time>
      </trkpt>
      <trkpt lat="4.5840080" lon="-74.2651400">
        <ele>2560.2</ele>
        <time>2018-08-10T17:39:36Z</time>
      </trkpt>
      <trkpt lat="4.5839730" lon="-74.2650700">
        <ele>2559.9</ele>
        <time>2018-08-10T17:39:37Z</time>
      </trkpt>
      <trkpt lat="4.5839400" lon="-74.2650020">
        <ele>2559.6</ele>
        <time>2018-08-10T17:39:38Z</time>
      </trkpt>
      <trkpt lat="4.5839080" lon="-74.2649370">
        <ele>2559.4</ele>
        <time>2018-08-10T17:39:39Z</time>
      </trkpt>
      <trkpt lat="4.5838780" lon="-74.2648680">
        <ele>2559.1</ele>
        <time>2018-08-10T17:39:40Z</time>
      </trkpt>
      <trkpt lat="4.5838450" lon="-74.2648050">
        <ele>2558.8</ele>
        <time>2018-08-10T17:39:41Z</time>
      </trkpt>
      <trkpt lat="4.5838100" lon="-74.2647380">
        <ele>2558.5</ele>
        <time>2018-08-10T17:39:42Z</time>
      </trkpt>
      <trkpt lat="4.5837750" lon="-74.2646680">
        <ele>2558.2</ele>
        <time>2018-08-10T17:39:43Z</time>
      </trkpt>
      <trkpt lat="4.5837380" lon="-74.2645970">
        <ele>2557.8</ele>
        <time>2018-08-10T17:39:44Z</time>
      </trkpt>
      <trkpt lat="4.5837020" lon="-74.2645270">
        <ele>2557.4</ele>
        <time>2018-08-10T17:39:45Z</time>
      </trkpt>
      <trkpt lat="4.5836650" lon="-74.2644600">
        <ele>2557.0</ele>
        <time>2018-08-10T17:39:46Z</time>
      </trkpt>
      <trkpt lat="4.5836280" lon="-74.2643930">
        <ele>2556.6</ele>
        <time>2018-08-10T17:39:47Z</time>
      </trkpt>
      <trkpt lat="4.5835920" lon="-74.2643270">
        <ele>2556.2</ele>
        <time>2018-08-10T17:39:48Z</time>
      </trkpt>
      <trkpt lat="4.5835570" lon="-74.2642630">
        <ele>2555.8</ele>
        <time>2018-08-10T17:39:49Z</time>
      </trkpt>
      <trkpt lat="4.5835250" lon="-74.2642000">
        <ele>2555.4</ele>
        <time>2018-08-10T17:39:50Z</time>
      </trkpt>
      <trkpt lat="4.5834970" lon="-74.2641380">
        <ele>2555.2</ele>
        <time>2018-08-10T17:39:51Z</time>
      </trkpt>
      <trkpt lat="4.5834650" lon="-74.2640750">
        <ele>2554.9</ele>
        <time>2018-08-10T17:39:52Z</time>
      </trkpt>
      <trkpt lat="4.5834350" lon="-74.2640170">
        <ele>2554.7</ele>
        <time>2018-08-10T17:39:53Z</time>
      </trkpt>
      <trkpt lat="4.5834070" lon="-74.2639620">
        <ele>2554.5</ele>
        <time>2018-08-10T17:39:54Z</time>
      </trkpt>
      <trkpt lat="4.5833770" lon="-74.2639080">
        <ele>2554.4</ele>
        <time>2018-08-10T17:39:55Z</time>
      </trkpt>
      <trkpt lat="4.5833500" lon="-74.2638530">
        <ele>2554.3</ele>
        <time>2018-08-10T17:39:56Z</time>
      </trkpt>
      <trkpt lat="4.5833220" lon="-74.2637980">
        <ele>2554.1</ele>
        <time>2018-08-10T17:39:57Z</time>
      </trkpt>
      <trkpt lat="4.5832930" lon="-74.2637420">
        <ele>2554.0</ele>
        <time>2018-08-10T17:39:58Z</time>
      </trkpt>
      <trkpt lat="4.5832650" lon="-74.2636920">
        <ele>2553.8</ele>
        <time>2018-08-10T17:39:59Z</time>
      </trkpt>
      <trkpt lat="4.5832330" lon="-74.2636380">
        <ele>2553.6</ele>
        <time>2018-08-10T17:40:00Z</time>
      </trkpt>
      <trkpt lat="4.5832070" lon="-74.2635900">
        <ele>2553.3</ele>
        <time>2018-08-10T17:40:01Z</time>
      </trkpt>
      <trkpt lat="4.5831820" lon="-74.2635370">
        <ele>2553.1</ele>
        <time>2018-08-10T17:40:02Z</time>
      </trkpt>
      <trkpt lat="4.5831570" lon="-74.2634830">
        <ele>2552.8</ele>
        <time>2018-08-10T17:40:03Z</time>
      </trkpt>
      <trkpt lat="4.5831300" lon="-74.2634270">
        <ele>2552.5</ele>
        <time>2018-08-10T17:40:04Z</time>
      </trkpt>
      <trkpt lat="4.5831030" lon="-74.2633720">
        <ele>2552.3</ele>
        <time>2018-08-10T17:40:05Z</time>
      </trkpt>
      <trkpt lat="4.5830720" lon="-74.2633130">
        <ele>2552.1</ele>
        <time>2018-08-10T17:40:06Z</time>
      </trkpt>
      <trkpt lat="4.5830420" lon="-74.2632600">
        <ele>2552.0</ele>
        <time>2018-08-10T17:40:07Z</time>
      </trkpt>
      <trkpt lat="4.5830130" lon="-74.2632070">
        <ele>2551.9</ele>
        <time>2018-08-10T17:40:08Z</time>
      </trkpt>
      <trkpt lat="4.5829850" lon="-74.2631530">
        <ele>2551.9</ele>
        <time>2018-08-10T17:40:09Z</time>
      </trkpt>
      <trkpt lat="4.5829530" lon="-74.2630950">
        <ele>2551.8</ele>
        <time>2018-08-10T17:40:10Z</time>
      </trkpt>
      <trkpt lat="4.5829220" lon="-74.2630470">
        <ele>2551.8</ele>
        <time>2018-08-10T17:40:11Z</time>
      </trkpt>
      <trkpt lat="4.5828930" lon="-74.2629920">
        <ele>2551.7</ele>
        <time>2018-08-10T17:40:12Z</time>
      </trkpt>
      <trkpt lat="4.5828630" lon="-74.2629370">
        <ele>2551.6</ele>
        <time>2018-08-10T17:40:13Z</time>
      </trkpt>
      <trkpt lat="4.5828380" lon="-74.2628800">
        <ele>2551.5</ele>
        <time>2018-08-10T17:40:14Z</time>
      </trkpt>
      <trkpt lat="4.5828080" lon="-74.2628320">
        <ele>2551.4</ele>
        <time>2018-08-10T17:40:15Z</time>
      </trkpt>
      <trkpt lat="4.5827780" lon="-74.2627850">
        <ele>2551.3</ele>
        <time>2018-08-10T17:40:16Z</time>
      </trkpt>
      <trkpt lat="4.5827470" lon="-74.2627370">
        <ele>2551.2</ele>
        <time>2018-08-10T17:40:17Z</time>
      </trkpt>
      <trkpt lat="4.5827170" lon="-74.2626920">
        <ele>2551.2</ele>
        <time>2018-08-10T17:40:18Z</time>
      </trkpt>
      <trkpt lat="4.5826830" lon="-74.2626470">
        <ele>2551.1</ele>
        <time>2018-08-10T17:40:19Z</time>
      </trkpt>
      <trkpt lat="4.5826520" lon="-74.2626020">
        <ele>2551.1</ele>
        <time>2018-08-10T17:40:20Z</time>
      </trkpt>
      <trkpt lat="4.5826180" lon="-74.2625680">
        <ele>2551.1</ele>
        <time>2018-08-10T17:40:21Z</time>
      </trkpt>
      <trkpt lat="4.5825830" lon="-74.2625320">
        <ele>2551.1</ele>
        <time>2018-08-10T17:40:22Z</time>
      </trkpt>
      <trkpt lat="4.5825430" lon="-74.2625020">
        <ele>2551.2</ele>
        <time>2018-08-10T17:40:23Z</time>
      </trkpt>
      <trkpt lat="4.5825000" lon="-74.2624720">
        <ele>2551.2</ele>
        <time>2018-08-10T17:40:24Z</time>
      </trkpt>
      <trkpt lat="4.5824570" lon="-74.2624430">
        <ele>2551.2</ele>
        <time>2018-08-10T17:40:25Z</time>
      </trkpt>
      <trkpt lat="4.5824100" lon="-74.2624200">
        <ele>2551.2</ele>
        <time>2018-08-10T17:40:26Z</time>
      </trkpt>
      <trkpt lat="4.5823600" lon="-74.2623950">
        <ele>2551.3</ele>
        <time>2018-08-10T17:40:27Z</time>
      </trkpt>
      <trkpt lat="4.5823170" lon="-74.2623700">
        <ele>2551.3</ele>
        <time>2018-08-10T17:40:28Z</time>
      </trkpt>
      <trkpt lat="4.5822720" lon="-74.2623520">
        <ele>2551.3</ele>
        <time>2018-08-10T17:40:29Z</time>
      </trkpt>
      <trkpt lat="4.5822280" lon="-74.2623320">
        <ele>2551.4</ele>
        <time>2018-08-10T17:40:30Z</time>
      </trkpt>
      <trkpt lat="4.5821880" lon="-74.2623120">
        <ele>2551.5</ele>
        <time>2018-08-10T17:40:31Z</time>
      </trkpt>
      <trkpt lat="4.5821430" lon="-74.2623050">
        <ele>2551.5</ele>
        <time>2018-08-10T17:40:32Z</time>
      </trkpt>
      <trkpt lat="4.5820950" lon="-74.2622870">
        <ele>2551.6</ele>
        <time>2018-08-10T17:40:33Z</time>
      </trkpt>
      <trkpt lat="4.5820500" lon="-74.2622700">
        <ele>2551.8</ele>
        <time>2018-08-10T17:40:34Z</time>
      </trkpt>
      <trkpt lat="4.5820070" lon="-74.2622470">
        <ele>2551.9</ele>
        <time>2018-08-10T17:40:35Z</time>
      </trkpt>
      <trkpt lat="4.5819600" lon="-74.2622230">
        <ele>2552.0</ele>
        <time>2018-08-10T17:40:36Z</time>
      </trkpt>
      <trkpt lat="4.5819150" lon="-74.2621970">
        <ele>2552.0</ele>
        <time>2018-08-10T17:40:37Z</time>
      </trkpt>
      <trkpt lat="4.5818680" lon="-74.2621730">
        <ele>2552.0</ele>
        <time>2018-08-10T17:40:38Z</time>
      </trkpt>
      <trkpt lat="4.5818230" lon="-74.2621480">
        <ele>2552.0</ele>
        <time>2018-08-10T17:40:39Z</time>
      </trkpt>
      <trkpt lat="4.5817730" lon="-74.2621230">
        <ele>2552.0</ele>
        <time>2018-08-10T17:40:40Z</time>
      </trkpt>
      <trkpt lat="4.5817250" lon="-74.2620980">
        <ele>2552.0</ele>
        <time>2018-08-10T17:40:41Z</time>
      </trkpt>
      <trkpt lat="4.5816780" lon="-74.2620750">
        <ele>2552.0</ele>
        <time>2018-08-10T17:40:42Z</time>
      </trkpt>
      <trkpt lat="4.5816300" lon="-74.2620480">
        <ele>2552.0</ele>
        <time>2018-08-10T17:40:43Z</time>
      </trkpt>
      <trkpt lat="4.5815830" lon="-74.2620200">
        <ele>2552.0</ele>
        <time>2018-08-10T17:40:44Z</time>
      </trkpt>
      <trkpt lat="4.5815320" lon="-74.2619880">
        <ele>2552.1</ele>
        <time>2018-08-10T17:40:45Z</time>
      </trkpt>
      <trkpt lat="4.5814820" lon="-74.2619600">
        <ele>2552.0</ele>
        <time>2018-08-10T17:40:46Z</time>
      </trkpt>
      <trkpt lat="4.5814300" lon="-74.2619320">
        <ele>2551.9</ele>
        <time>2018-08-10T17:40:47Z</time>
      </trkpt>
      <trkpt lat="4.5813800" lon="-74.2619070">
        <ele>2551.9</ele>
        <time>2018-08-10T17:40:48Z</time>
      </trkpt>
      <trkpt lat="4.5813280" lon="-74.2618820">
        <ele>2552.0</ele>
        <time>2018-08-10T17:40:49Z</time>
      </trkpt>
      <trkpt lat="4.5812770" lon="-74.2618550">
        <ele>2552.0</ele>
        <time>2018-08-10T17:40:50Z</time>
      </trkpt>
      <trkpt lat="4.5812230" lon="-74.2618300">
        <ele>2552.0</ele>
        <time>2018-08-10T17:40:51Z</time>
      </trkpt>
      <trkpt lat="4.5811730" lon="-74.2618050">
        <ele>2552.2</ele>
        <time>2018-08-10T17:40:52Z</time>
      </trkpt>
      <trkpt lat="4.5811220" lon="-74.2617780">
        <ele>2552.7</ele>
        <time>2018-08-10T17:40:53Z</time>
      </trkpt>
      <trkpt lat="4.5810700" lon="-74.2617550">
        <ele>2552.8</ele>
        <time>2018-08-10T17:40:54Z</time>
      </trkpt>
      <trkpt lat="4.5810200" lon="-74.2617300">
        <ele>2553.0</ele>
        <time>2018-08-10T17:40:55Z</time>
      </trkpt>
      <trkpt lat="4.5809670" lon="-74.2617020">
        <ele>2553.1</ele>
        <time>2018-08-10T17:40:56Z</time>
      </trkpt>
      <trkpt lat="4.5809150" lon="-74.2616770">
        <ele>2553.3</ele>
        <time>2018-08-10T17:40:57Z</time>
      </trkpt>
      <trkpt lat="4.5808670" lon="-74.2616500">
        <ele>2553.5</ele>
        <time>2018-08-10T17:40:58Z</time>
      </trkpt>
      <trkpt lat="4.5808170" lon="-74.2616230">
        <ele>2553.6</ele>
        <time>2018-08-10T17:40:59Z</time>
      </trkpt>
      <trkpt lat="4.5807700" lon="-74.2615980">
        <ele>2553.8</ele>
        <time>2018-08-10T17:41:00Z</time>
      </trkpt>
      <trkpt lat="4.5807220" lon="-74.2615750">
        <ele>2553.9</ele>
        <time>2018-08-10T17:41:01Z</time>
      </trkpt>
      <trkpt lat="4.5806620" lon="-74.2615430">
        <ele>2554.1</ele>
        <time>2018-08-10T17:41:02Z</time>
      </trkpt>
      <trkpt lat="4.5806050" lon="-74.2615180">
        <ele>2554.2</ele>
        <time>2018-08-10T17:41:03Z</time>
      </trkpt>
      <trkpt lat="4.5805480" lon="-74.2614930">
        <ele>2554.3</ele>
        <time>2018-08-10T17:41:04Z</time>
      </trkpt>
      <trkpt lat="4.5804950" lon="-74.2614700">
        <ele>2554.4</ele>
        <time>2018-08-10T17:41:05Z</time>
      </trkpt>
      <trkpt lat="4.5804430" lon="-74.2614430">
        <ele>2554.6</ele>
        <time>2018-08-10T17:41:06Z</time>
      </trkpt>
      <trkpt lat="4.5803920" lon="-74.2614150">
        <ele>2554.7</ele>
        <time>2018-08-10T17:41:07Z</time>
      </trkpt>
      <trkpt lat="4.5803370" lon="-74.2613880">
        <ele>2554.8</ele>
        <time>2018-08-10T17:41:08Z</time>
      </trkpt>
      <trkpt lat="4.5802870" lon="-74.2613630">
        <ele>2554.9</ele>
        <time>2018-08-10T17:41:09Z</time>
      </trkpt>
      <trkpt lat="4.5802370" lon="-74.2613380">
        <ele>2555.0</ele>
        <time>2018-08-10T17:41:10Z</time>
      </trkpt>
      <trkpt lat="4.5801870" lon="-74.2613150">
        <ele>2555.1</ele>
        <time>2018-08-10T17:41:11Z</time>
      </trkpt>
      <trkpt lat="4.5801380" lon="-74.2612900">
        <ele>2555.2</ele>
        <time>2018-08-10T17:41:12Z</time>
      </trkpt>
      <trkpt lat="4.5800880" lon="-74.2612630">
        <ele>2555.4</ele>
        <time>2018-08-10T17:41:13Z</time>
      </trkpt>
      <trkpt lat="4.5800400" lon="-74.2612380">
        <ele>2555.6</ele>
        <time>2018-08-10T17:41:14Z</time>
      </trkpt>
      <trkpt lat="4.5799950" lon="-74.2612130">
        <ele>2555.8</ele>
        <time>2018-08-10T17:41:15Z</time>
      </trkpt>
      <trkpt lat="4.5799500" lon="-74.2611900">
        <ele>2555.9</ele>
        <time>2018-08-10T17:41:16Z</time>
      </trkpt>
      <trkpt lat="4.5799030" lon="-74.2611680">
        <ele>2556.2</ele>
        <time>2018-08-10T17:41:17Z</time>
      </trkpt>
      <trkpt lat="4.5798600" lon="-74.2611470">
        <ele>2556.4</ele>
        <time>2018-08-10T17:41:18Z</time>
      </trkpt>
      <trkpt lat="4.5798150" lon="-74.2611230">
        <ele>2556.6</ele>
        <time>2018-08-10T17:41:19Z</time>
      </trkpt>
      <trkpt lat="4.5797720" lon="-74.2611000">
        <ele>2556.8</ele>
        <time>2018-08-10T17:41:20Z</time>
      </trkpt>
      <trkpt lat="4.5797280" lon="-74.2610730">
        <ele>2557.0</ele>
        <time>2018-08-10T17:41:21Z</time>
      </trkpt>
      <trkpt lat="4.5796870" lon="-74.2610330">
        <ele>2557.2</ele>
        <time>2018-08-10T17:41:22Z</time>
      </trkpt>
      <trkpt lat="4.5796530" lon="-74.2609900">
        <ele>2557.5</ele>
        <time>2018-08-10T17:41:23Z</time>
      </trkpt>
      <trkpt lat="4.5796150" lon="-74.2609470">
        <ele>2557.8</ele>
        <time>2018-08-10T17:41:24Z</time>
      </trkpt>
      <trkpt lat="4.5795870" lon="-74.2609000">
        <ele>2558.0</ele>
        <time>2018-08-10T17:41:25Z</time>
      </trkpt>
      <trkpt lat="4.5795600" lon="-74.2608550">
        <ele>2558.3</ele>
        <time>2018-08-10T17:41:26Z</time>
      </trkpt>
      <trkpt lat="4.5795330" lon="-74.2608070">
        <ele>2558.6</ele>
        <time>2018-08-10T17:41:27Z</time>
      </trkpt>
      <trkpt lat="4.5795070" lon="-74.2607580">
        <ele>2558.9</ele>
        <time>2018-08-10T17:41:28Z</time>
      </trkpt>
      <trkpt lat="4.5794800" lon="-74.2607130">
        <ele>2559.1</ele>
        <time>2018-08-10T17:41:29Z</time>
      </trkpt>
      <trkpt lat="4.5794530" lon="-74.2606680">
        <ele>2559.3</ele>
        <time>2018-08-10T17:41:30Z</time>
      </trkpt>
      <trkpt lat="4.5794270" lon="-74.2606220">
        <ele>2559.5</ele>
        <time>2018-08-10T17:41:31Z</time>
      </trkpt>
      <trkpt lat="4.5793980" lon="-74.2605780">
        <ele>2559.7</ele>
        <time>2018-08-10T17:41:32Z</time>
      </trkpt>
      <trkpt lat="4.5793650" lon="-74.2605130">
        <ele>2559.9</ele>
        <time>2018-08-10T17:41:33Z</time>
      </trkpt>
      <trkpt lat="4.5793320" lon="-74.2604520">
        <ele>2559.9</ele>
        <time>2018-08-10T17:41:34Z</time>
      </trkpt>
      <trkpt lat="4.5793030" lon="-74.2604020">
        <ele>2559.9</ele>
        <time>2018-08-10T17:41:35Z</time>
      </trkpt>
      <trkpt lat="4.5792770" lon="-74.2603470">
        <ele>2559.8</ele>
        <time>2018-08-10T17:41:36Z</time>
      </trkpt>
      <trkpt lat="4.5792500" lon="-74.2602930">
        <ele>2559.8</ele>
        <time>2018-08-10T17:41:37Z</time>
      </trkpt>
      <trkpt lat="4.5792280" lon="-74.2602400">
        <ele>2559.7</ele>
        <time>2018-08-10T17:41:38Z</time>
      </trkpt>
      <trkpt lat="4.5792030" lon="-74.2601850">
        <ele>2559.7</ele>
        <time>2018-08-10T17:41:39Z</time>
      </trkpt>
      <trkpt lat="4.5791800" lon="-74.2601320">
        <ele>2559.6</ele>
        <time>2018-08-10T17:41:40Z</time>
      </trkpt>
      <trkpt lat="4.5791570" lon="-74.2600800">
        <ele>2559.6</ele>
        <time>2018-08-10T17:41:41Z</time>
      </trkpt>
      <trkpt lat="4.5791400" lon="-74.2600280">
        <ele>2559.5</ele>
        <time>2018-08-10T17:41:42Z</time>
      </trkpt>
      <trkpt lat="4.5791250" lon="-74.2599830">
        <ele>2559.5</ele>
        <time>2018-08-10T17:41:43Z</time>
      </trkpt>
      <trkpt lat="4.5791120" lon="-74.2599380">
        <ele>2559.3</ele>
        <time>2018-08-10T17:41:44Z</time>
      </trkpt>
      <trkpt lat="4.5791000" lon="-74.2598880">
        <ele>2559.2</ele>
        <time>2018-08-10T17:41:45Z</time>
      </trkpt>
      <trkpt lat="4.5790920" lon="-74.2598420">
        <ele>2559.0</ele>
        <time>2018-08-10T17:41:46Z</time>
      </trkpt>
      <trkpt lat="4.5790850" lon="-74.2597920">
        <ele>2558.9</ele>
        <time>2018-08-10T17:41:47Z</time>
      </trkpt>
      <trkpt lat="4.5790820" lon="-74.2597450">
        <ele>2558.7</ele>
        <time>2018-08-10T17:41:48Z</time>
      </trkpt>
      <trkpt lat="4.5790900" lon="-74.2596920">
        <ele>2558.6</ele>
        <time>2018-08-10T17:41:49Z</time>
      </trkpt>
      <trkpt lat="4.5790950" lon="-74.2596350">
        <ele>2558.4</ele>
        <time>2018-08-10T17:41:50Z</time>
      </trkpt>
      <trkpt lat="4.5791050" lon="-74.2595680">
        <ele>2558.1</ele>
        <time>2018-08-10T17:41:51Z</time>
      </trkpt>
      <trkpt lat="4.5791350" lon="-74.2595050">
        <ele>2557.7</ele>
        <time>2018-08-10T17:41:52Z</time>
      </trkpt>
      <trkpt lat="4.5791680" lon="-74.2594370">
        <ele>2557.2</ele>
        <time>2018-08-10T17:41:53Z</time>
      </trkpt>
      <trkpt lat="4.5792020" lon="-74.2593650">
        <ele>2556.6</ele>
        <time>2018-08-10T17:41:54Z</time>
      </trkpt>
      <trkpt lat="4.5792370" lon="-74.2592880">
        <ele>2555.9</ele>
        <time>2018-08-10T17:41:55Z</time>
      </trkpt>
      <trkpt lat="4.5792770" lon="-74.2592120">
        <ele>2555.2</ele>
        <time>2018-08-10T17:41:56Z</time>
      </trkpt>
      <trkpt lat="4.5793180" lon="-74.2591300">
        <ele>2554.5</ele>
        <time>2018-08-10T17:41:57Z</time>
      </trkpt>
      <trkpt lat="4.5793580" lon="-74.2590550">
        <ele>2553.7</ele>
        <time>2018-08-10T17:41:58Z</time>
      </trkpt>
      <trkpt lat="4.5793920" lon="-74.2589780">
        <ele>2552.9</ele>
        <time>2018-08-10T17:41:59Z</time>
      </trkpt>
      <trkpt lat="4.5794220" lon="-74.2588950">
        <ele>2552.1</ele>
        <time>2018-08-10T17:42:00Z</time>
      </trkpt>
      <trkpt lat="4.5794530" lon="-74.2588120">
        <ele>2551.4</ele>
        <time>2018-08-10T17:42:01Z</time>
      </trkpt>
      <trkpt lat="4.5794750" lon="-74.2587220">
        <ele>2550.5</ele>
        <time>2018-08-10T17:42:02Z</time>
      </trkpt>
      <trkpt lat="4.5795020" lon="-74.2586380">
        <ele>2549.8</ele>
        <time>2018-08-10T17:42:03Z</time>
      </trkpt>
      <trkpt lat="4.5795250" lon="-74.2585470">
        <ele>2549.0</ele>
        <time>2018-08-10T17:42:04Z</time>
      </trkpt>
      <trkpt lat="4.5795470" lon="-74.2584630">
        <ele>2548.3</ele>
        <time>2018-08-10T17:42:05Z</time>
      </trkpt>
      <trkpt lat="4.5795670" lon="-74.2583850">
        <ele>2547.7</ele>
        <time>2018-08-10T17:42:06Z</time>
      </trkpt>
      <trkpt lat="4.5795830" lon="-74.2582930">
        <ele>2547.2</ele>
        <time>2018-08-10T17:42:07Z</time>
      </trkpt>
      <trkpt lat="4.5795930" lon="-74.2582120">
        <ele>2546.8</ele>
        <time>2018-08-10T17:42:08Z</time>
      </trkpt>
      <trkpt lat="4.5796170" lon="-74.2581370">
        <ele>2546.7</ele>
        <time>2018-08-10T17:42:09Z</time>
      </trkpt>
      <trkpt lat="4.5796370" lon="-74.2580620">
        <ele>2546.5</ele>
        <time>2018-08-10T17:42:10Z</time>
      </trkpt>
      <trkpt lat="4.5796500" lon="-74.2579900">
        <ele>2546.4</ele>
        <time>2018-08-10T17:42:11Z</time>
      </trkpt>
      <trkpt lat="4.5796600" lon="-74.2579250">
        <ele>2546.3</ele>
        <time>2018-08-10T17:42:12Z</time>
      </trkpt>
      <trkpt lat="4.5796680" lon="-74.2578600">
        <ele>2546.1</ele>
        <time>2018-08-10T17:42:13Z</time>
      </trkpt>
      <trkpt lat="4.5796800" lon="-74.2577980">
        <ele>2546.0</ele>
        <time>2018-08-10T17:42:14Z</time>
      </trkpt>
      <trkpt lat="4.5796970" lon="-74.2577370">
        <ele>2545.9</ele>
        <time>2018-08-10T17:42:15Z</time>
      </trkpt>
      <trkpt lat="4.5797150" lon="-74.2576770">
        <ele>2545.7</ele>
        <time>2018-08-10T17:42:16Z</time>
      </trkpt>
      <trkpt lat="4.5797300" lon="-74.2576220">
        <ele>2545.6</ele>
        <time>2018-08-10T17:42:17Z</time>
      </trkpt>
      <trkpt lat="4.5797450" lon="-74.2575700">
        <ele>2545.4</ele>
        <time>2018-08-10T17:42:18Z</time>
      </trkpt>
      <trkpt lat="4.5797650" lon="-74.2575170">
        <ele>2545.1</ele>
        <time>2018-08-10T17:42:19Z</time>
      </trkpt>
      <trkpt lat="4.5797800" lon="-74.2574600">
        <ele>2544.9</ele>
        <time>2018-08-10T17:42:20Z</time>
      </trkpt>
      <trkpt lat="4.5797930" lon="-74.2574070">
        <ele>2544.7</ele>
        <time>2018-08-10T17:42:21Z</time>
      </trkpt>
      <trkpt lat="4.5798050" lon="-74.2573550">
        <ele>2544.5</ele>
        <time>2018-08-10T17:42:22Z</time>
      </trkpt>
      <trkpt lat="4.5798180" lon="-74.2573020">
        <ele>2544.2</ele>
        <time>2018-08-10T17:42:23Z</time>
      </trkpt>
      <trkpt lat="4.5798300" lon="-74.2572500">
        <ele>2544.0</ele>
        <time>2018-08-10T17:42:24Z</time>
      </trkpt>
      <trkpt lat="4.5798430" lon="-74.2571970">
        <ele>2543.7</ele>
        <time>2018-08-10T17:42:25Z</time>
      </trkpt>
      <trkpt lat="4.5798580" lon="-74.2571430">
        <ele>2543.5</ele>
        <time>2018-08-10T17:42:26Z</time>
      </trkpt>
      <trkpt lat="4.5798720" lon="-74.2570920">
        <ele>2543.2</ele>
        <time>2018-08-10T17:42:27Z</time>
      </trkpt>
      <trkpt lat="4.5798830" lon="-74.2570380">
        <ele>2543.0</ele>
        <time>2018-08-10T17:42:28Z</time>
      </trkpt>
      <trkpt lat="4.5798950" lon="-74.2569870">
        <ele>2542.8</ele>
        <time>2018-08-10T17:42:29Z</time>
      </trkpt>
      <trkpt lat="4.5799030" lon="-74.2569280">
        <ele>2542.6</ele>
        <time>2018-08-10T17:42:30Z</time>
      </trkpt>
      <trkpt lat="4.5799030" lon="-74.2568730">
        <ele>2542.4</ele>
        <time>2018-08-10T17:42:31Z</time>
      </trkpt>
      <trkpt lat="4.5799000" lon="-74.2568200">
        <ele>2542.2</ele>
        <time>2018-08-10T17:42:32Z</time>
      </trkpt>
      <trkpt lat="4.5798880" lon="-74.2567670">
        <ele>2542.1</ele>
        <time>2018-08-10T17:42:33Z</time>
      </trkpt>
      <trkpt lat="4.5798730" lon="-74.2567130">
        <ele>2542.0</ele>
        <time>2018-08-10T17:42:34Z</time>
      </trkpt>
      <trkpt lat="4.5798570" lon="-74.2566580">
        <ele>2541.9</ele>
        <time>2018-08-10T17:42:35Z</time>
      </trkpt>
      <trkpt lat="4.5798350" lon="-74.2566080">
        <ele>2541.8</ele>
        <time>2018-08-10T17:42:36Z</time>
      </trkpt>
      <trkpt lat="4.5798130" lon="-74.2565620">
        <ele>2541.8</ele>
        <time>2018-08-10T17:42:37Z</time>
      </trkpt>
      <trkpt lat="4.5797830" lon="-74.2565100">
        <ele>2541.7</ele>
        <time>2018-08-10T17:42:38Z</time>
      </trkpt>
      <trkpt lat="4.5797600" lon="-74.2564450">
        <ele>2541.6</ele>
        <time>2018-08-10T17:42:39Z</time>
      </trkpt>
      <trkpt lat="4.5797350" lon="-74.2563920">
        <ele>2541.6</ele>
        <time>2018-08-10T17:42:40Z</time>
      </trkpt>
      <trkpt lat="4.5797070" lon="-74.2563430">
        <ele>2541.5</ele>
        <time>2018-08-10T17:42:41Z</time>
      </trkpt>
      <trkpt lat="4.5796770" lon="-74.2563000">
        <ele>2541.5</ele>
        <time>2018-08-10T17:42:42Z</time>
      </trkpt>
      <trkpt lat="4.5796450" lon="-74.2562570">
        <ele>2541.4</ele>
        <time>2018-08-10T17:42:43Z</time>
      </trkpt>
      <trkpt lat="4.5796120" lon="-74.2562130">
        <ele>2541.4</ele>
        <time>2018-08-10T17:42:44Z</time>
      </trkpt>
      <trkpt lat="4.5795770" lon="-74.2561750">
        <ele>2541.4</ele>
        <time>2018-08-10T17:42:45Z</time>
      </trkpt>
      <trkpt lat="4.5795400" lon="-74.2561350">
        <ele>2541.3</ele>
        <time>2018-08-10T17:42:46Z</time>
      </trkpt>
      <trkpt lat="4.5795030" lon="-74.2560950">
        <ele>2541.3</ele>
        <time>2018-08-10T17:42:47Z</time>
      </trkpt>
      <trkpt lat="4.5794630" lon="-74.2560550">
        <ele>2541.3</ele>
        <time>2018-08-10T17:42:48Z</time>
      </trkpt>
      <trkpt lat="4.5794220" lon="-74.2560130">
        <ele>2541.2</ele>
        <time>2018-08-10T17:42:49Z</time>
      </trkpt>
      <trkpt lat="4.5793800" lon="-74.2559770">
        <ele>2541.2</ele>
        <time>2018-08-10T17:42:50Z</time>
      </trkpt>
      <trkpt lat="4.5793380" lon="-74.2559380">
        <ele>2541.1</ele>
        <time>2018-08-10T17:42:51Z</time>
      </trkpt>
      <trkpt lat="4.5792980" lon="-74.2559000">
        <ele>2541.1</ele>
        <time>2018-08-10T17:42:52Z</time>
      </trkpt>
      <trkpt lat="4.5792580" lon="-74.2558620">
        <ele>2541.1</ele>
        <time>2018-08-10T17:42:53Z</time>
      </trkpt>
      <trkpt lat="4.5792130" lon="-74.2558250">
        <ele>2541.1</ele>
        <time>2018-08-10T17:42:54Z</time>
      </trkpt>
      <trkpt lat="4.5791650" lon="-74.2557880">
        <ele>2541.0</ele>
        <time>2018-08-10T17:42:55Z</time>
      </trkpt>
      <trkpt lat="4.5791170" lon="-74.2557500">
        <ele>2541.0</ele>
        <time>2018-08-10T17:42:56Z</time>
      </trkpt>
      <trkpt lat="4.5790720" lon="-74.2557100">
        <ele>2541.0</ele>
        <time>2018-08-10T17:42:57Z</time>
      </trkpt>
      <trkpt lat="4.5790280" lon="-74.2556720">
        <ele>2541.0</ele>
        <time>2018-08-10T17:42:58Z</time>
      </trkpt>
      <trkpt lat="4.5789800" lon="-74.2556330">
        <ele>2541.0</ele>
        <time>2018-08-10T17:42:59Z</time>
      </trkpt>
      <trkpt lat="4.5789350" lon="-74.2555980">
        <ele>2540.9</ele>
        <time>2018-08-10T17:43:00Z</time>
      </trkpt>
      <trkpt lat="4.5788900" lon="-74.2555620">
        <ele>2540.9</ele>
        <time>2018-08-10T17:43:01Z</time>
      </trkpt>
      <trkpt lat="4.5788470" lon="-74.2555270">
        <ele>2540.9</ele>
        <time>2018-08-10T17:43:02Z</time>
      </trkpt>
      <trkpt lat="4.5788030" lon="-74.2554900">
        <ele>2540.9</ele>
        <time>2018-08-10T17:43:03Z</time>
      </trkpt>
      <trkpt lat="4.5787600" lon="-74.2554530">
        <ele>2540.9</ele>
        <time>2018-08-10T17:43:04Z</time>
      </trkpt>
      <trkpt lat="4.5787200" lon="-74.2554200">
        <ele>2540.9</ele>
        <time>2018-08-10T17:43:05Z</time>
      </trkpt>
      <trkpt lat="4.5786770" lon="-74.2553870">
        <ele>2540.9</ele>
        <time>2018-08-10T17:43:06Z</time>
      </trkpt>
      <trkpt lat="4.5786330" lon="-74.2553520">
        <ele>2540.9</ele>
        <time>2018-08-10T17:43:07Z</time>
      </trkpt>
      <trkpt lat="4.5785900" lon="-74.2553180">
        <ele>2540.9</ele>
        <time>2018-08-10T17:43:08Z</time>
      </trkpt>
      <trkpt lat="4.5785470" lon="-74.2552850">
        <ele>2541.0</ele>
        <time>2018-08-10T17:43:09Z</time>
      </trkpt>
      <trkpt lat="4.5784930" lon="-74.2552470">
        <ele>2541.0</ele>
        <time>2018-08-10T17:43:10Z</time>
      </trkpt>
      <trkpt lat="4.5784530" lon="-74.2552150">
        <ele>2541.1</ele>
        <time>2018-08-10T17:43:11Z</time>
      </trkpt>
      <trkpt lat="4.5784180" lon="-74.2551770">
        <ele>2541.2</ele>
        <time>2018-08-10T17:43:12Z</time>
      </trkpt>
      <trkpt lat="4.5783800" lon="-74.2551430">
        <ele>2541.3</ele>
        <time>2018-08-10T17:43:13Z</time>
      </trkpt>
      <trkpt lat="4.5783350" lon="-74.2551120">
        <ele>2541.4</ele>
        <time>2018-08-10T17:43:14Z</time>
      </trkpt>
      <trkpt lat="4.5782930" lon="-74.2550800">
        <ele>2541.4</ele>
        <time>2018-08-10T17:43:15Z</time>
      </trkpt>
      <trkpt lat="4.5782500" lon="-74.2550480">
        <ele>2541.5</ele>
        <time>2018-08-10T17:43:16Z</time>
      </trkpt>
      <trkpt lat="4.5782080" lon="-74.2550170">
        <ele>2541.6</ele>
        <time>2018-08-10T17:43:17Z</time>
      </trkpt>
      <trkpt lat="4.5781650" lon="-74.2549820">
        <ele>2541.6</ele>
        <time>2018-08-10T17:43:18Z</time>
      </trkpt>
      <trkpt lat="4.5781270" lon="-74.2549450">
        <ele>2541.6</ele>
        <time>2018-08-10T17:43:19Z</time>
      </trkpt>
      <trkpt lat="4.5780870" lon="-74.2549100">
        <ele>2541.7</ele>
        <time>2018-08-10T17:43:20Z</time>
      </trkpt>
      <trkpt lat="4.5780470" lon="-74.2548770">
        <ele>2541.7</ele>
        <time>2018-08-10T17:43:21Z</time>
      </trkpt>
      <trkpt lat="4.5780080" lon="-74.2548420">
        <ele>2541.7</ele>
        <time>2018-08-10T17:43:22Z</time>
      </trkpt>
      <trkpt lat="4.5779730" lon="-74.2548030">
        <ele>2541.7</ele>
        <time>2018-08-10T17:43:23Z</time>
      </trkpt>
      <trkpt lat="4.5779380" lon="-74.2547680">
        <ele>2541.7</ele>
        <time>2018-08-10T17:43:24Z</time>
      </trkpt>
      <trkpt lat="4.5779020" lon="-74.2547320">
        <ele>2541.7</ele>
        <time>2018-08-10T17:43:25Z</time>
      </trkpt>
      <trkpt lat="4.5778670" lon="-74.2546930">
        <ele>2541.6</ele>
        <time>2018-08-10T17:43:26Z</time>
      </trkpt>
      <trkpt lat="4.5778320" lon="-74.2546520">
        <ele>2541.6</ele>
        <time>2018-08-10T17:43:27Z</time>
      </trkpt>
      <trkpt lat="4.5778000" lon="-74.2546120">
        <ele>2541.6</ele>
        <time>2018-08-10T17:43:28Z</time>
      </trkpt>
      <trkpt lat="4.5777700" lon="-74.2545720">
        <ele>2541.6</ele>
        <time>2018-08-10T17:43:29Z</time>
      </trkpt>
      <trkpt lat="4.5777480" lon="-74.2545320">
        <ele>2541.5</ele>
        <time>2018-08-10T17:43:30Z</time>
      </trkpt>
      <trkpt lat="4.5777270" lon="-74.2544900">
        <ele>2541.5</ele>
        <time>2018-08-10T17:43:31Z</time>
      </trkpt>
      <trkpt lat="4.5777080" lon="-74.2544530">
        <ele>2541.5</ele>
        <time>2018-08-10T17:43:32Z</time>
      </trkpt>
      <trkpt lat="4.5776920" lon="-74.2544120">
        <ele>2541.4</ele>
        <time>2018-08-10T17:43:33Z</time>
      </trkpt>
      <trkpt lat="4.5776750" lon="-74.2543700">
        <ele>2541.4</ele>
        <time>2018-08-10T17:43:34Z</time>
      </trkpt>
      <trkpt lat="4.5776570" lon="-74.2543250">
        <ele>2541.3</ele>
        <time>2018-08-10T17:43:35Z</time>
      </trkpt>
      <trkpt lat="4.5776420" lon="-74.2542850">
        <ele>2541.3</ele>
        <time>2018-08-10T17:43:36Z</time>
      </trkpt>
      <trkpt lat="4.5776320" lon="-74.2542430">
        <ele>2541.3</ele>
        <time>2018-08-10T17:43:37Z</time>
      </trkpt>
      <trkpt lat="4.5776230" lon="-74.2542000">
        <ele>2541.3</ele>
        <time>2018-08-10T17:43:38Z</time>
      </trkpt>
      <trkpt lat="4.5776150" lon="-74.2541530">
        <ele>2541.2</ele>
        <time>2018-08-10T17:43:39Z</time>
      </trkpt>
      <trkpt lat="4.5776100" lon="-74.2541130">
        <ele>2541.2</ele>
        <time>2018-08-10T17:43:40Z</time>
      </trkpt>
      <trkpt lat="4.5776020" lon="-74.2540700">
        <ele>2541.2</ele>
        <time>2018-08-10T17:43:41Z</time>
      </trkpt>
      <trkpt lat="4.5775980" lon="-74.2540300">
        <ele>2541.1</ele>
        <time>2018-08-10T17:43:42Z</time>
      </trkpt>
      <trkpt lat="4.5775980" lon="-74.2539900">
        <ele>2541.1</ele>
        <time>2018-08-10T17:43:43Z</time>
      </trkpt>
      <trkpt lat="4.5775980" lon="-74.2539520">
        <ele>2541.1</ele>
        <time>2018-08-10T17:43:44Z</time>
      </trkpt>
      <trkpt lat="4.5775980" lon="-74.2539130">
        <ele>2541.0</ele>
        <time>2018-08-10T17:43:45Z</time>
      </trkpt>
      <trkpt lat="4.5776000" lon="-74.2538720">
        <ele>2541.0</ele>
        <time>2018-08-10T17:43:46Z</time>
      </trkpt>
      <trkpt lat="4.5776050" lon="-74.2538250">
        <ele>2541.0</ele>
        <time>2018-08-10T17:43:47Z</time>
      </trkpt>
      <trkpt lat="4.5776120" lon="-74.2537770">
        <ele>2540.9</ele>
        <time>2018-08-10T17:43:48Z</time>
      </trkpt>
      <trkpt lat="4.5776170" lon="-74.2537280">
        <ele>2540.9</ele>
        <time>2018-08-10T17:43:49Z</time>
      </trkpt>
      <trkpt lat="4.5776250" lon="-74.2536830">
        <ele>2540.9</ele>
        <time>2018-08-10T17:43:50Z</time>
      </trkpt>
      <trkpt lat="4.5776370" lon="-74.2536330">
        <ele>2540.8</ele>
        <time>2018-08-10T17:43:51Z</time>
      </trkpt>
      <trkpt lat="4.5776450" lon="-74.2535880">
        <ele>2540.8</ele>
        <time>2018-08-10T17:43:52Z</time>
      </trkpt>
      <trkpt lat="4.5776570" lon="-74.2535480">
        <ele>2540.8</ele>
        <time>2018-08-10T17:43:53Z</time>
      </trkpt>
      <trkpt lat="4.5776700" lon="-74.2535100">
        <ele>2540.7</ele>
        <time>2018-08-10T17:43:54Z</time>
      </trkpt>
      <trkpt lat="4.5776870" lon="-74.2534670">
        <ele>2540.7</ele>
        <time>2018-08-10T17:43:55Z</time>
      </trkpt>
      <trkpt lat="4.5777030" lon="-74.2534250">
        <ele>2540.7</ele>
        <time>2018-08-10T17:43:56Z</time>
      </trkpt>
      <trkpt lat="4.5777220" lon="-74.2533820">
        <ele>2540.6</ele>
        <time>2018-08-10T17:43:57Z</time>
      </trkpt>
      <trkpt lat="4.5777400" lon="-74.2533380">
        <ele>2540.6</ele>
        <time>2018-08-10T17:43:58Z</time>
      </trkpt>
      <trkpt lat="4.5777550" lon="-74.2532920">
        <ele>2540.6</ele>
        <time>2018-08-10T17:43:59Z</time>
      </trkpt>
      <trkpt lat="4.5777720" lon="-74.2532470">
        <ele>2540.5</ele>
        <time>2018-08-10T17:44:00Z</time>
      </trkpt>
      <trkpt lat="4.5777900" lon="-74.2532000">
        <ele>2540.5</ele>
        <time>2018-08-10T17:44:01Z</time>
      </trkpt>
      <trkpt lat="4.5778050" lon="-74.2531530">
        <ele>2540.4</ele>
        <time>2018-08-10T17:44:02Z</time>
      </trkpt>
      <trkpt lat="4.5778220" lon="-74.2531120">
        <ele>2540.4</ele>
        <time>2018-08-10T17:44:03Z</time>
      </trkpt>
      <trkpt lat="4.5778380" lon="-74.2530670">
        <ele>2540.4</ele>
        <time>2018-08-10T17:44:04Z</time>
      </trkpt>
      <trkpt lat="4.5778570" lon="-74.2530250">
        <ele>2540.3</ele>
        <time>2018-08-10T17:44:05Z</time>
      </trkpt>
      <trkpt lat="4.5778730" lon="-74.2529800">
        <ele>2540.3</ele>
        <time>2018-08-10T17:44:06Z</time>
      </trkpt>
      <trkpt lat="4.5778870" lon="-74.2529380">
        <ele>2540.3</ele>
        <time>2018-08-10T17:44:07Z</time>
      </trkpt>
      <trkpt lat="4.5779050" lon="-74.2528900">
        <ele>2540.2</ele>
        <time>2018-08-10T17:44:08Z</time>
      </trkpt>
      <trkpt lat="4.5779200" lon="-74.2528450">
        <ele>2540.2</ele>
        <time>2018-08-10T17:44:09Z</time>
      </trkpt>
      <trkpt lat="4.5779380" lon="-74.2528000">
        <ele>2540.2</ele>
        <time>2018-08-10T17:44:10Z</time>
      </trkpt>
      <trkpt lat="4.5779530" lon="-74.2527550">
        <ele>2540.1</ele>
        <time>2018-08-10T17:44:11Z</time>
      </trkpt>
      <trkpt lat="4.5779700" lon="-74.2527100">
        <ele>2540.1</ele>
        <time>2018-08-10T17:44:12Z</time>
      </trkpt>
      <trkpt lat="4.5779880" lon="-74.2526650">
        <ele>2540.1</ele>
        <time>2018-08-10T17:44:13Z</time>
      </trkpt>
      <trkpt lat="4.5780050" lon="-74.2526200">
        <ele>2540.0</ele>
        <time>2018-08-10T17:44:14Z</time>
      </trkpt>
      <trkpt lat="4.5780230" lon="-74.2525720">
        <ele>2540.0</ele>
        <time>2018-08-10T17:44:15Z</time>
      </trkpt>
      <trkpt lat="4.5780400" lon="-74.2525230">
        <ele>2539.8</ele>
        <time>2018-08-10T17:44:16Z</time>
      </trkpt>
      <trkpt lat="4.5780580" lon="-74.2524780">
        <ele>2539.6</ele>
        <time>2018-08-10T17:44:17Z</time>
      </trkpt>
      <trkpt lat="4.5780720" lon="-74.2524370">
        <ele>2539.5</ele>
        <time>2018-08-10T17:44:18Z</time>
      </trkpt>
      <trkpt lat="4.5780880" lon="-74.2523900">
        <ele>2539.3</ele>
        <time>2018-08-10T17:44:19Z</time>
      </trkpt>
      <trkpt lat="4.5781030" lon="-74.2523470">
        <ele>2539.2</ele>
        <time>2018-08-10T17:44:20Z</time>
      </trkpt>
      <trkpt lat="4.5781200" lon="-74.2523000">
        <ele>2539.1</ele>
        <time>2018-08-10T17:44:21Z</time>
      </trkpt>
      <trkpt lat="4.5781350" lon="-74.2522550">
        <ele>2539.0</ele>
        <time>2018-08-10T17:44:22Z</time>
      </trkpt>
      <trkpt lat="4.5781520" lon="-74.2522080">
        <ele>2538.9</ele>
        <time>2018-08-10T17:44:23Z</time>
      </trkpt>
      <trkpt lat="4.5781700" lon="-74.2521670">
        <ele>2538.9</ele>
        <time>2018-08-10T17:44:24Z</time>
      </trkpt>
      <trkpt lat="4.5781870" lon="-74.2521250">
        <ele>2538.8</ele>
        <time>2018-08-10T17:44:25Z</time>
      </trkpt>
      <trkpt lat="4.5782050" lon="-74.2520820">
        <ele>2538.7</ele>
        <time>2018-08-10T17:44:26Z</time>
      </trkpt>
      <trkpt lat="4.5782220" lon="-74.2520380">
        <ele>2538.6</ele>
        <time>2018-08-10T17:44:27Z</time>
      </trkpt>
      <trkpt lat="4.5782380" lon="-74.2519950">
        <ele>2538.5</ele>
        <time>2018-08-10T17:44:28Z</time>
      </trkpt>
      <trkpt lat="4.5782530" lon="-74.2519520">
        <ele>2538.5</ele>
        <time>2018-08-10T17:44:29Z</time>
      </trkpt>
      <trkpt lat="4.5782680" lon="-74.2519100">
        <ele>2538.4</ele>
        <time>2018-08-10T17:44:30Z</time>
      </trkpt>
      <trkpt lat="4.5782850" lon="-74.2518670">
        <ele>2538.3</ele>
        <time>2018-08-10T17:44:31Z</time>
      </trkpt>
      <trkpt lat="4.5783070" lon="-74.2518250">
        <ele>2538.2</ele>
        <time>2018-08-10T17:44:32Z</time>
      </trkpt>
      <trkpt lat="4.5783270" lon="-74.2517820">
        <ele>2538.2</ele>
        <time>2018-08-10T17:44:33Z</time>
      </trkpt>
      <trkpt lat="4.5783450" lon="-74.2517380">
        <ele>2538.1</ele>
        <time>2018-08-10T17:44:34Z</time>
      </trkpt>
      <trkpt lat="4.5783620" lon="-74.2516970">
        <ele>2538.0</ele>
        <time>2018-08-10T17:44:35Z</time>
      </trkpt>
      <trkpt lat="4.5783780" lon="-74.2516550">
        <ele>2538.0</ele>
        <time>2018-08-10T17:44:36Z</time>
      </trkpt>
      <trkpt lat="4.5783950" lon="-74.2516150">
        <ele>2538.0</ele>
        <time>2018-08-10T17:44:37Z</time>
      </trkpt>
      <trkpt lat="4.5784150" lon="-74.2515720">
        <ele>2538.0</ele>
        <time>2018-08-10T17:44:38Z</time>
      </trkpt>
      <trkpt lat="4.5784350" lon="-74.2515250">
        <ele>2538.1</ele>
        <time>2018-08-10T17:44:39Z</time>
      </trkpt>
      <trkpt lat="4.5784520" lon="-74.2514800">
        <ele>2538.1</ele>
        <time>2018-08-10T17:44:40Z</time>
      </trkpt>
      <trkpt lat="4.5784680" lon="-74.2514330">
        <ele>2538.1</ele>
        <time>2018-08-10T17:44:41Z</time>
      </trkpt>
      <trkpt lat="4.5784850" lon="-74.2513900">
        <ele>2538.1</ele>
        <time>2018-08-10T17:44:42Z</time>
      </trkpt>
      <trkpt lat="4.5785020" lon="-74.2513350">
        <ele>2538.1</ele>
        <time>2018-08-10T17:44:43Z</time>
      </trkpt>
      <trkpt lat="4.5785200" lon="-74.2512800">
        <ele>2538.1</ele>
        <time>2018-08-10T17:44:44Z</time>
      </trkpt>
      <trkpt lat="4.5785370" lon="-74.2512300">
        <ele>2538.2</ele>
        <time>2018-08-10T17:44:45Z</time>
      </trkpt>
      <trkpt lat="4.5785550" lon="-74.2511800">
        <ele>2538.2</ele>
        <time>2018-08-10T17:44:46Z</time>
      </trkpt>
      <trkpt lat="4.5785770" lon="-74.2511320">
        <ele>2538.2</ele>
        <time>2018-08-10T17:44:47Z</time>
      </trkpt>
      <trkpt lat="4.5786000" lon="-74.2510820">
        <ele>2538.2</ele>
        <time>2018-08-10T17:44:48Z</time>
      </trkpt>
      <trkpt lat="4.5786200" lon="-74.2510350">
        <ele>2538.2</ele>
        <time>2018-08-10T17:44:49Z</time>
      </trkpt>
      <trkpt lat="4.5786370" lon="-74.2509920">
        <ele>2538.2</ele>
        <time>2018-08-10T17:44:50Z</time>
      </trkpt>
      <trkpt lat="4.5786530" lon="-74.2509480">
        <ele>2538.2</ele>
        <time>2018-08-10T17:44:51Z</time>
      </trkpt>
      <trkpt lat="4.5786700" lon="-74.2509050">
        <ele>2538.2</ele>
        <time>2018-08-10T17:44:52Z</time>
      </trkpt>
      <trkpt lat="4.5786880" lon="-74.2508600">
        <ele>2538.2</ele>
        <time>2018-08-10T17:44:53Z</time>
      </trkpt>
      <trkpt lat="4.5787120" lon="-74.2508070">
        <ele>2538.2</ele>
        <time>2018-08-10T17:44:54Z</time>
      </trkpt>
      <trkpt lat="4.5787300" lon="-74.2507520">
        <ele>2538.2</ele>
        <time>2018-08-10T17:44:55Z</time>
      </trkpt>
      <trkpt lat="4.5787500" lon="-74.2506950">
        <ele>2538.2</ele>
        <time>2018-08-10T17:44:56Z</time>
      </trkpt>
      <trkpt lat="4.5787670" lon="-74.2506480">
        <ele>2538.2</ele>
        <time>2018-08-10T17:44:57Z</time>
      </trkpt>
      <trkpt lat="4.5787850" lon="-74.2505980">
        <ele>2538.2</ele>
        <time>2018-08-10T17:44:58Z</time>
      </trkpt>
      <trkpt lat="4.5788080" lon="-74.2505450">
        <ele>2538.2</ele>
        <time>2018-08-10T17:44:59Z</time>
      </trkpt>
      <trkpt lat="4.5788320" lon="-74.2504930">
        <ele>2538.1</ele>
        <time>2018-08-10T17:45:00Z</time>
      </trkpt>
      <trkpt lat="4.5788520" lon="-74.2504430">
        <ele>2538.0</ele>
        <time>2018-08-10T17:45:01Z</time>
      </trkpt>
      <trkpt lat="4.5788730" lon="-74.2503930">
        <ele>2538.0</ele>
        <time>2018-08-10T17:45:02Z</time>
      </trkpt>
      <trkpt lat="4.5788930" lon="-74.2503470">
        <ele>2537.9</ele>
        <time>2018-08-10T17:45:03Z</time>
      </trkpt>
      <trkpt lat="4.5789150" lon="-74.2502970">
        <ele>2537.9</ele>
        <time>2018-08-10T17:45:04Z</time>
      </trkpt>
      <trkpt lat="4.5789330" lon="-74.2502500">
        <ele>2537.9</ele>
        <time>2018-08-10T17:45:05Z</time>
      </trkpt>
      <trkpt lat="4.5789480" lon="-74.2501980">
        <ele>2537.9</ele>
        <time>2018-08-10T17:45:06Z</time>
      </trkpt>
      <trkpt lat="4.5789650" lon="-74.2501480">
        <ele>2537.9</ele>
        <time>2018-08-10T17:45:07Z</time>
      </trkpt>
      <trkpt lat="4.5789800" lon="-74.2501020">
        <ele>2538.0</ele>
        <time>2018-08-10T17:45:08Z</time>
      </trkpt>
      <trkpt lat="4.5789950" lon="-74.2500620">
        <ele>2538.1</ele>
        <time>2018-08-10T17:45:09Z</time>
      </trkpt>
      <trkpt lat="4.5790120" lon="-74.2500100">
        <ele>2538.2</ele>
        <time>2018-08-10T17:45:10Z</time>
      </trkpt>
      <trkpt lat="4.5790270" lon="-74.2499650">
        <ele>2538.3</ele>
        <time>2018-08-10T17:45:11Z</time>
      </trkpt>
      <trkpt lat="4.5790420" lon="-74.2499250">
        <ele>2538.4</ele>
        <time>2018-08-10T17:45:12Z</time>
      </trkpt>
      <trkpt lat="4.5790550" lon="-74.2498830">
        <ele>2538.5</ele>
        <time>2018-08-10T17:45:13Z</time>
      </trkpt>
      <trkpt lat="4.5790630" lon="-74.2498500">
        <ele>2538.6</ele>
        <time>2018-08-10T17:45:14Z</time>
      </trkpt>
      <trkpt lat="4.5790720" lon="-74.2497770">
        <ele>2538.8</ele>
        <time>2018-08-10T17:45:15Z</time>
      </trkpt>
      <trkpt lat="4.5790830" lon="-74.2497350">
        <ele>2538.9</ele>
        <time>2018-08-10T17:45:16Z</time>
      </trkpt>
      <trkpt lat="4.5790980" lon="-74.2497000">
        <ele>2539.0</ele>
        <time>2018-08-10T17:45:17Z</time>
      </trkpt>
      <trkpt lat="4.5791120" lon="-74.2496700">
        <ele>2539.1</ele>
        <time>2018-08-10T17:45:18Z</time>
      </trkpt>
      <trkpt lat="4.5791250" lon="-74.2496400">
        <ele>2539.3</ele>
        <time>2018-08-10T17:45:19Z</time>
      </trkpt>
      <trkpt lat="4.5791380" lon="-74.2496050">
        <ele>2539.6</ele>
        <time>2018-08-10T17:45:20Z</time>
      </trkpt>
      <trkpt lat="4.5791500" lon="-74.2495630">
        <ele>2539.9</ele>
        <time>2018-08-10T17:45:21Z</time>
      </trkpt>
      <trkpt lat="4.5791600" lon="-74.2495180">
        <ele>2540.2</ele>
        <time>2018-08-10T17:45:22Z</time>
      </trkpt>
      <trkpt lat="4.5791720" lon="-74.2494750">
        <ele>2540.6</ele>
        <time>2018-08-10T17:45:23Z</time>
      </trkpt>
      <trkpt lat="4.5791870" lon="-74.2494250">
        <ele>2541.1</ele>
        <time>2018-08-10T17:45:24Z</time>
      </trkpt>
      <trkpt lat="4.5792000" lon="-74.2493820">
        <ele>2541.5</ele>
        <time>2018-08-10T17:45:25Z</time>
      </trkpt>
      <trkpt lat="4.5792100" lon="-74.2493330">
        <ele>2542.1</ele>
        <time>2018-08-10T17:45:26Z</time>
      </trkpt>
      <trkpt lat="4.5792200" lon="-74.2492820">
        <ele>2543.1</ele>
        <time>2018-08-10T17:45:27Z</time>
      </trkpt>
      <trkpt lat="4.5792280" lon="-74.2492330">
        <ele>2544.0</ele>
        <time>2018-08-10T17:45:28Z</time>
      </trkpt>
      <trkpt lat="4.5792420" lon="-74.2491830">
        <ele>2545.0</ele>
        <time>2018-08-10T17:45:29Z</time>
      </trkpt>
      <trkpt lat="4.5792530" lon="-74.2491320">
        <ele>2546.0</ele>
        <time>2018-08-10T17:45:30Z</time>
      </trkpt>
      <trkpt lat="4.5792680" lon="-74.2490820">
        <ele>2547.0</ele>
        <time>2018-08-10T17:45:31Z</time>
      </trkpt>
      <trkpt lat="4.5792800" lon="-74.2490350">
        <ele>2547.0</ele>
        <time>2018-08-10T17:45:32Z</time>
      </trkpt>
      <trkpt lat="4.5792850" lon="-74.2489850">
        <ele>2547.0</ele>
        <time>2018-08-10T17:45:33Z</time>
      </trkpt>
      <trkpt lat="4.5792930" lon="-74.2489420">
        <ele>2547.0</ele>
        <time>2018-08-10T17:45:34Z</time>
      </trkpt>
      <trkpt lat="4.5793000" lon="-74.2488980">
        <ele>2547.0</ele>
        <time>2018-08-10T17:45:35Z</time>
      </trkpt>
      <trkpt lat="4.5793030" lon="-74.2488570">
        <ele>2547.0</ele>
        <time>2018-08-10T17:45:36Z</time>
      </trkpt>
      <trkpt lat="4.5793150" lon="-74.2488220">
        <ele>2547.0</ele>
        <time>2018-08-10T17:45:37Z</time>
      </trkpt>
      <trkpt lat="4.5793270" lon="-74.2487880">
        <ele>2547.0</ele>
        <time>2018-08-10T17:45:38Z</time>
      </trkpt>
      <trkpt lat="4.5793370" lon="-74.2487570">
        <ele>2547.0</ele>
        <time>2018-08-10T17:45:39Z</time>
      </trkpt>
      <trkpt lat="4.5793430" lon="-74.2487150">
        <ele>2547.0</ele>
        <time>2018-08-10T17:45:40Z</time>
      </trkpt>
      <trkpt lat="4.5793520" lon="-74.2486620">
        <ele>2547.0</ele>
        <time>2018-08-10T17:45:41Z</time>
      </trkpt>
      <trkpt lat="4.5793600" lon="-74.2486080">
        <ele>2547.0</ele>
        <time>2018-08-10T17:45:42Z</time>
      </trkpt>
      <trkpt lat="4.5793720" lon="-74.2485500">
        <ele>2547.0</ele>
        <time>2018-08-10T17:45:43Z</time>
      </trkpt>
      <trkpt lat="4.5793820" lon="-74.2484950">
        <ele>2547.0</ele>
        <time>2018-08-10T17:45:44Z</time>
      </trkpt>
      <trkpt lat="4.5793880" lon="-74.2484320">
        <ele>2547.1</ele>
        <time>2018-08-10T17:45:45Z</time>
      </trkpt>
      <trkpt lat="4.5794000" lon="-74.2483730">
        <ele>2547.3</ele>
        <time>2018-08-10T17:45:46Z</time>
      </trkpt>
      <trkpt lat="4.5794120" lon="-74.2483130">
        <ele>2547.6</ele>
        <time>2018-08-10T17:45:47Z</time>
      </trkpt>
      <trkpt lat="4.5794230" lon="-74.2482600">
        <ele>2547.8</ele>
        <time>2018-08-10T17:45:48Z</time>
      </trkpt>
      <trkpt lat="4.5794380" lon="-74.2482080">
        <ele>2547.9</ele>
        <time>2018-08-10T17:45:49Z</time>
      </trkpt>
      <trkpt lat="4.5794520" lon="-74.2481570">
        <ele>2548.1</ele>
        <time>2018-08-10T17:45:50Z</time>
      </trkpt>
      <trkpt lat="4.5794730" lon="-74.2481030">
        <ele>2548.2</ele>
        <time>2018-08-10T17:45:51Z</time>
      </trkpt>
      <trkpt lat="4.5794780" lon="-74.2480530">
        <ele>2548.4</ele>
        <time>2018-08-10T17:45:52Z</time>
      </trkpt>
      <trkpt lat="4.5794880" lon="-74.2480080">
        <ele>2548.5</ele>
        <time>2018-08-10T17:45:53Z</time>
      </trkpt>
      <trkpt lat="4.5795050" lon="-74.2479620">
        <ele>2548.6</ele>
        <time>2018-08-10T17:45:54Z</time>
      </trkpt>
      <trkpt lat="4.5795220" lon="-74.2479170">
        <ele>2548.7</ele>
        <time>2018-08-10T17:45:55Z</time>
      </trkpt>
      <trkpt lat="4.5795320" lon="-74.2478670">
        <ele>2548.8</ele>
        <time>2018-08-10T17:45:56Z</time>
      </trkpt>
      <trkpt lat="4.5795370" lon="-74.2478170">
        <ele>2548.9</ele>
        <time>2018-08-10T17:45:57Z</time>
      </trkpt>
      <trkpt lat="4.5795450" lon="-74.2477630">
        <ele>2549.1</ele>
        <time>2018-08-10T17:45:58Z</time>
      </trkpt>
      <trkpt lat="4.5795550" lon="-74.2477050">
        <ele>2549.2</ele>
        <time>2018-08-10T17:45:59Z</time>
      </trkpt>
      <trkpt lat="4.5795670" lon="-74.2476520">
        <ele>2549.3</ele>
        <time>2018-08-10T17:46:00Z</time>
      </trkpt>
      <trkpt lat="4.5795780" lon="-74.2475980">
        <ele>2549.4</ele>
        <time>2018-08-10T17:46:01Z</time>
      </trkpt>
      <trkpt lat="4.5795930" lon="-74.2475430">
        <ele>2549.6</ele>
        <time>2018-08-10T17:46:02Z</time>
      </trkpt>
      <trkpt lat="4.5796070" lon="-74.2474900">
        <ele>2549.7</ele>
        <time>2018-08-10T17:46:03Z</time>
      </trkpt>
      <trkpt lat="4.5796180" lon="-74.2474320">
        <ele>2549.8</ele>
        <time>2018-08-10T17:46:04Z</time>
      </trkpt>
      <trkpt lat="4.5796300" lon="-74.2473770">
        <ele>2549.9</ele>
        <time>2018-08-10T17:46:05Z</time>
      </trkpt>
      <trkpt lat="4.5796450" lon="-74.2473220">
        <ele>2550.1</ele>
        <time>2018-08-10T17:46:06Z</time>
      </trkpt>
      <trkpt lat="4.5796600" lon="-74.2472680">
        <ele>2550.2</ele>
        <time>2018-08-10T17:46:07Z</time>
      </trkpt>
      <trkpt lat="4.5796780" lon="-74.2472150">
        <ele>2550.3</ele>
        <time>2018-08-10T17:46:08Z</time>
      </trkpt>
      <trkpt lat="4.5796930" lon="-74.2471600">
        <ele>2550.4</ele>
        <time>2018-08-10T17:46:09Z</time>
      </trkpt>
      <trkpt lat="4.5797080" lon="-74.2471080">
        <ele>2550.6</ele>
        <time>2018-08-10T17:46:10Z</time>
      </trkpt>
      <trkpt lat="4.5797230" lon="-74.2470570">
        <ele>2550.8</ele>
        <time>2018-08-10T17:46:11Z</time>
      </trkpt>
      <trkpt lat="4.5797320" lon="-74.2470020">
        <ele>2550.9</ele>
        <time>2018-08-10T17:46:12Z</time>
      </trkpt>
      <trkpt lat="4.5797420" lon="-74.2469480">
        <ele>2551.1</ele>
        <time>2018-08-10T17:46:13Z</time>
      </trkpt>
      <trkpt lat="4.5797570" lon="-74.2468870">
        <ele>2551.3</ele>
        <time>2018-08-10T17:46:14Z</time>
      </trkpt>
      <trkpt lat="4.5797720" lon="-74.2468250">
        <ele>2551.5</ele>
        <time>2018-08-10T17:46:15Z</time>
      </trkpt>
      <trkpt lat="4.5797880" lon="-74.2467450">
        <ele>2551.7</ele>
        <time>2018-08-10T17:46:16Z</time>
      </trkpt>
      <trkpt lat="4.5798070" lon="-74.2466730">
        <ele>2551.9</ele>
        <time>2018-08-10T17:46:17Z</time>
      </trkpt>
      <trkpt lat="4.5798250" lon="-74.2466070">
        <ele>2552.1</ele>
        <time>2018-08-10T17:46:18Z</time>
      </trkpt>
      <trkpt lat="4.5798370" lon="-74.2465420">
        <ele>2552.3</ele>
        <time>2018-08-10T17:46:19Z</time>
      </trkpt>
      <trkpt lat="4.5798470" lon="-74.2464780">
        <ele>2552.5</ele>
        <time>2018-08-10T17:46:20Z</time>
      </trkpt>
      <trkpt lat="4.5798580" lon="-74.2464150">
        <ele>2552.7</ele>
        <time>2018-08-10T17:46:21Z</time>
      </trkpt>
      <trkpt lat="4.5798720" lon="-74.2463530">
        <ele>2552.8</ele>
        <time>2018-08-10T17:46:22Z</time>
      </trkpt>
      <trkpt lat="4.5798830" lon="-74.2462950">
        <ele>2553.0</ele>
        <time>2018-08-10T17:46:23Z</time>
      </trkpt>
      <trkpt lat="4.5798980" lon="-74.2462350">
        <ele>2553.2</ele>
        <time>2018-08-10T17:46:24Z</time>
      </trkpt>
      <trkpt lat="4.5799130" lon="-74.2461770">
        <ele>2553.3</ele>
        <time>2018-08-10T17:46:25Z</time>
      </trkpt>
      <trkpt lat="4.5799270" lon="-74.2461170">
        <ele>2553.6</ele>
        <time>2018-08-10T17:46:26Z</time>
      </trkpt>
      <trkpt lat="4.5799380" lon="-74.2460580">
        <ele>2553.9</ele>
        <time>2018-08-10T17:46:27Z</time>
      </trkpt>
      <trkpt lat="4.5799480" lon="-74.2460000">
        <ele>2554.1</ele>
        <time>2018-08-10T17:46:28Z</time>
      </trkpt>
      <trkpt lat="4.5799620" lon="-74.2459430">
        <ele>2554.4</ele>
        <time>2018-08-10T17:46:29Z</time>
      </trkpt>
      <trkpt lat="4.5799780" lon="-74.2458820">
        <ele>2554.6</ele>
        <time>2018-08-10T17:46:30Z</time>
      </trkpt>
      <trkpt lat="4.5799930" lon="-74.2458180">
        <ele>2554.9</ele>
        <time>2018-08-10T17:46:31Z</time>
      </trkpt>
      <trkpt lat="4.5800120" lon="-74.2457580">
        <ele>2555.8</ele>
        <time>2018-08-10T17:46:32Z</time>
      </trkpt>
      <trkpt lat="4.5800280" lon="-74.2456950">
        <ele>2556.8</ele>
        <time>2018-08-10T17:46:33Z</time>
      </trkpt>
      <trkpt lat="4.5800430" lon="-74.2456320">
        <ele>2557.5</ele>
        <time>2018-08-10T17:46:34Z</time>
      </trkpt>
      <trkpt lat="4.5800620" lon="-74.2455700">
        <ele>2557.9</ele>
        <time>2018-08-10T17:46:35Z</time>
      </trkpt>
      <trkpt lat="4.5800800" lon="-74.2455100">
        <ele>2558.4</ele>
        <time>2018-08-10T17:46:36Z</time>
      </trkpt>
      <trkpt lat="4.5800950" lon="-74.2454470">
        <ele>2558.7</ele>
        <time>2018-08-10T17:46:37Z</time>
      </trkpt>
      <trkpt lat="4.5801100" lon="-74.2453830">
        <ele>2559.0</ele>
        <time>2018-08-10T17:46:38Z</time>
      </trkpt>
      <trkpt lat="4.5801270" lon="-74.2453220">
        <ele>2559.6</ele>
        <time>2018-08-10T17:46:39Z</time>
      </trkpt>
      <trkpt lat="4.5801400" lon="-74.2452620">
        <ele>2559.6</ele>
        <time>2018-08-10T17:46:40Z</time>
      </trkpt>
      <trkpt lat="4.5801500" lon="-74.2452030">
        <ele>2559.6</ele>
        <time>2018-08-10T17:46:41Z</time>
      </trkpt>
      <trkpt lat="4.5801620" lon="-74.2451480">
        <ele>2559.4</ele>
        <time>2018-08-10T17:46:42Z</time>
      </trkpt>
      <trkpt lat="4.5801680" lon="-74.2450920">
        <ele>2558.9</ele>
        <time>2018-08-10T17:46:43Z</time>
      </trkpt>
      <trkpt lat="4.5801780" lon="-74.2450320">
        <ele>2558.2</ele>
        <time>2018-08-10T17:46:44Z</time>
      </trkpt>
      <trkpt lat="4.5801920" lon="-74.2449730">
        <ele>2557.5</ele>
        <time>2018-08-10T17:46:45Z</time>
      </trkpt>
      <trkpt lat="4.5802050" lon="-74.2449170">
        <ele>2556.6</ele>
        <time>2018-08-10T17:46:46Z</time>
      </trkpt>
      <trkpt lat="4.5802230" lon="-74.2448550">
        <ele>2555.8</ele>
        <time>2018-08-10T17:46:47Z</time>
      </trkpt>
      <trkpt lat="4.5802380" lon="-74.2447970">
        <ele>2555.4</ele>
        <time>2018-08-10T17:46:48Z</time>
      </trkpt>
      <trkpt lat="4.5802520" lon="-74.2447430">
        <ele>2555.3</ele>
        <time>2018-08-10T17:46:49Z</time>
      </trkpt>
      <trkpt lat="4.5802650" lon="-74.2446920">
        <ele>2555.2</ele>
        <time>2018-08-10T17:46:50Z</time>
      </trkpt>
      <trkpt lat="4.5802770" lon="-74.2446400">
        <ele>2555.0</ele>
        <time>2018-08-10T17:46:51Z</time>
      </trkpt>
      <trkpt lat="4.5802870" lon="-74.2445900">
        <ele>2555.0</ele>
        <time>2018-08-10T17:46:52Z</time>
      </trkpt>
      <trkpt lat="4.5803000" lon="-74.2445380">
        <ele>2555.0</ele>
        <time>2018-08-10T17:46:53Z</time>
      </trkpt>
      <trkpt lat="4.5803130" lon="-74.2444920">
        <ele>2554.8</ele>
        <time>2018-08-10T17:46:54Z</time>
      </trkpt>
      <trkpt lat="4.5803270" lon="-74.2444470">
        <ele>2554.6</ele>
        <time>2018-08-10T17:46:55Z</time>
      </trkpt>
      <trkpt lat="4.5803370" lon="-74.2444050">
        <ele>2554.5</ele>
        <time>2018-08-10T17:46:56Z</time>
      </trkpt>
      <trkpt lat="4.5803480" lon="-74.2443630">
        <ele>2554.3</ele>
        <time>2018-08-10T17:46:57Z</time>
      </trkpt>
      <trkpt lat="4.5803600" lon="-74.2443180">
        <ele>2554.1</ele>
        <time>2018-08-10T17:46:58Z</time>
      </trkpt>
      <trkpt lat="4.5803630" lon="-74.2442770">
        <ele>2554.0</ele>
        <time>2018-08-10T17:46:59Z</time>
      </trkpt>
      <trkpt lat="4.5803670" lon="-74.2442370">
        <ele>2553.8</ele>
        <time>2018-08-10T17:47:00Z</time>
      </trkpt>
      <trkpt lat="4.5803720" lon="-74.2441970">
        <ele>2553.7</ele>
        <time>2018-08-10T17:47:01Z</time>
      </trkpt>
      <trkpt lat="4.5803830" lon="-74.2441520">
        <ele>2553.5</ele>
        <time>2018-08-10T17:47:02Z</time>
      </trkpt>
      <trkpt lat="4.5803930" lon="-74.2441080">
        <ele>2553.3</ele>
        <time>2018-08-10T17:47:03Z</time>
      </trkpt>
      <trkpt lat="4.5804050" lon="-74.2440650">
        <ele>2553.2</ele>
        <time>2018-08-10T17:47:04Z</time>
      </trkpt>
      <trkpt lat="4.5804170" lon="-74.2440180">
        <ele>2553.0</ele>
        <time>2018-08-10T17:47:05Z</time>
      </trkpt>
      <trkpt lat="4.5804300" lon="-74.2439720">
        <ele>2552.8</ele>
        <time>2018-08-10T17:47:06Z</time>
      </trkpt>
      <trkpt lat="4.5804420" lon="-74.2439250">
        <ele>2552.6</ele>
        <time>2018-08-10T17:47:07Z</time>
      </trkpt>
      <trkpt lat="4.5804570" lon="-74.2438770">
        <ele>2552.4</ele>
        <time>2018-08-10T17:47:08Z</time>
      </trkpt>
      <trkpt lat="4.5804700" lon="-74.2438320">
        <ele>2552.2</ele>
        <time>2018-08-10T17:47:09Z</time>
      </trkpt>
      <trkpt lat="4.5804800" lon="-74.2437920">
        <ele>2552.1</ele>
        <time>2018-08-10T17:47:10Z</time>
      </trkpt>
      <trkpt lat="4.5804900" lon="-74.2437430">
        <ele>2551.9</ele>
        <time>2018-08-10T17:47:11Z</time>
      </trkpt>
      <trkpt lat="4.5804970" lon="-74.2436980">
        <ele>2551.7</ele>
        <time>2018-08-10T17:47:12Z</time>
      </trkpt>
      <trkpt lat="4.5805030" lon="-74.2436500">
        <ele>2551.5</ele>
        <time>2018-08-10T17:47:13Z</time>
      </trkpt>
      <trkpt lat="4.5805170" lon="-74.2435970">
        <ele>2551.3</ele>
        <time>2018-08-10T17:47:14Z</time>
      </trkpt>
      <trkpt lat="4.5805280" lon="-74.2435480">
        <ele>2551.1</ele>
        <time>2018-08-10T17:47:15Z</time>
      </trkpt>
      <trkpt lat="4.5805400" lon="-74.2435020">
        <ele>2550.8</ele>
        <time>2018-08-10T17:47:16Z</time>
      </trkpt>
      <trkpt lat="4.5805520" lon="-74.2434530">
        <ele>2550.5</ele>
        <time>2018-08-10T17:47:17Z</time>
      </trkpt>
      <trkpt lat="4.5805600" lon="-74.2433930">
        <ele>2550.2</ele>
        <time>2018-08-10T17:47:18Z</time>
      </trkpt>
      <trkpt lat="4.5805700" lon="-74.2433400">
        <ele>2549.9</ele>
        <time>2018-08-10T17:47:19Z</time>
      </trkpt>
      <trkpt lat="4.5805800" lon="-74.2432950">
        <ele>2549.6</ele>
        <time>2018-08-10T17:47:20Z</time>
      </trkpt>
      <trkpt lat="4.5805870" lon="-74.2432480">
        <ele>2549.3</ele>
        <time>2018-08-10T17:47:21Z</time>
      </trkpt>
      <trkpt lat="4.5805930" lon="-74.2432020">
        <ele>2549.0</ele>
        <time>2018-08-10T17:47:22Z</time>
      </trkpt>
      <trkpt lat="4.5806020" lon="-74.2431570">
        <ele>2549.1</ele>
        <time>2018-08-10T17:47:23Z</time>
      </trkpt>
      <trkpt lat="4.5806100" lon="-74.2431150">
        <ele>2549.2</ele>
        <time>2018-08-10T17:47:24Z</time>
      </trkpt>
      <trkpt lat="4.5806250" lon="-74.2430750">
        <ele>2549.5</ele>
        <time>2018-08-10T17:47:25Z</time>
      </trkpt>
      <trkpt lat="4.5806370" lon="-74.2430320">
        <ele>2549.7</ele>
        <time>2018-08-10T17:47:26Z</time>
      </trkpt>
      <trkpt lat="4.5806470" lon="-74.2429880">
        <ele>2549.8</ele>
        <time>2018-08-10T17:47:27Z</time>
      </trkpt>
      <trkpt lat="4.5806580" lon="-74.2429400">
        <ele>2549.9</ele>
        <time>2018-08-10T17:47:28Z</time>
      </trkpt>
      <trkpt lat="4.5806720" lon="-74.2428950">
        <ele>2549.9</ele>
        <time>2018-08-10T17:47:29Z</time>
      </trkpt>
      <trkpt lat="4.5806820" lon="-74.2428530">
        <ele>2549.8</ele>
        <time>2018-08-10T17:47:30Z</time>
      </trkpt>
      <trkpt lat="4.5806880" lon="-74.2428080">
        <ele>2549.6</ele>
        <time>2018-08-10T17:47:31Z</time>
      </trkpt>
      <trkpt lat="4.5806880" lon="-74.2427580">
        <ele>2549.4</ele>
        <time>2018-08-10T17:47:32Z</time>
      </trkpt>
      <trkpt lat="4.5806930" lon="-74.2427100">
        <ele>2549.1</ele>
        <time>2018-08-10T17:47:33Z</time>
      </trkpt>
      <trkpt lat="4.5806980" lon="-74.2426600">
        <ele>2549.0</ele>
        <time>2018-08-10T17:47:34Z</time>
      </trkpt>
      <trkpt lat="4.5807030" lon="-74.2426100">
        <ele>2549.0</ele>
        <time>2018-08-10T17:47:35Z</time>
      </trkpt>
      <trkpt lat="4.5807150" lon="-74.2425600">
        <ele>2549.4</ele>
        <time>2018-08-10T17:47:36Z</time>
      </trkpt>
      <trkpt lat="4.5807280" lon="-74.2425120">
        <ele>2549.7</ele>
        <time>2018-08-10T17:47:37Z</time>
      </trkpt>
      <trkpt lat="4.5807400" lon="-74.2424630">
        <ele>2550.0</ele>
        <time>2018-08-10T17:47:38Z</time>
      </trkpt>
      <trkpt lat="4.5807450" lon="-74.2424100">
        <ele>2550.4</ele>
        <time>2018-08-10T17:47:39Z</time>
      </trkpt>
      <trkpt lat="4.5807500" lon="-74.2423580">
        <ele>2550.7</ele>
        <time>2018-08-10T17:47:40Z</time>
      </trkpt>
      <trkpt lat="4.5807580" lon="-74.2423100">
        <ele>2551.0</ele>
        <time>2018-08-10T17:47:41Z</time>
      </trkpt>
      <trkpt lat="4.5807680" lon="-74.2422600">
        <ele>2551.4</ele>
        <time>2018-08-10T17:47:42Z</time>
      </trkpt>
      <trkpt lat="4.5807750" lon="-74.2422100">
        <ele>2551.7</ele>
        <time>2018-08-10T17:47:43Z</time>
      </trkpt>
      <trkpt lat="4.5807850" lon="-74.2421600">
        <ele>2552.1</ele>
        <time>2018-08-10T17:47:44Z</time>
      </trkpt>
      <trkpt lat="4.5807980" lon="-74.2421130">
        <ele>2552.5</ele>
        <time>2018-08-10T17:47:45Z</time>
      </trkpt>
      <trkpt lat="4.5808180" lon="-74.2420650">
        <ele>2553.0</ele>
        <time>2018-08-10T17:47:46Z</time>
      </trkpt>
      <trkpt lat="4.5808300" lon="-74.2420150">
        <ele>2553.5</ele>
        <time>2018-08-10T17:47:47Z</time>
      </trkpt>
      <trkpt lat="4.5808420" lon="-74.2419650">
        <ele>2554.0</ele>
        <time>2018-08-10T17:47:48Z</time>
      </trkpt>
      <trkpt lat="4.5808430" lon="-74.2419030">
        <ele>2554.7</ele>
        <time>2018-08-10T17:47:49Z</time>
      </trkpt>
      <trkpt lat="4.5808520" lon="-74.2418550">
        <ele>2555.0</ele>
        <time>2018-08-10T17:47:50Z</time>
      </trkpt>
      <trkpt lat="4.5808630" lon="-74.2418000">
        <ele>2555.0</ele>
        <time>2018-08-10T17:47:51Z</time>
      </trkpt>
      <trkpt lat="4.5808750" lon="-74.2417420">
        <ele>2555.0</ele>
        <time>2018-08-10T17:47:52Z</time>
      </trkpt>
      <trkpt lat="4.5808770" lon="-74.2416950">
        <ele>2555.0</ele>
        <time>2018-08-10T17:47:53Z</time>
      </trkpt>
      <trkpt lat="4.5808900" lon="-74.2416450">
        <ele>2555.0</ele>
        <time>2018-08-10T17:47:54Z</time>
      </trkpt>
      <trkpt lat="4.5809000" lon="-74.2415900">
        <ele>2555.0</ele>
        <time>2018-08-10T17:47:55Z</time>
      </trkpt>
      <trkpt lat="4.5809150" lon="-74.2415450">
        <ele>2555.5</ele>
        <time>2018-08-10T17:47:56Z</time>
      </trkpt>
      <trkpt lat="4.5809280" lon="-74.2414980">
        <ele>2557.3</ele>
        <time>2018-08-10T17:47:57Z</time>
      </trkpt>
      <trkpt lat="4.5809470" lon="-74.2414530">
        <ele>2558.6</ele>
        <time>2018-08-10T17:47:58Z</time>
      </trkpt>
      <trkpt lat="4.5809600" lon="-74.2414000">
        <ele>2559.5</ele>
        <time>2018-08-10T17:47:59Z</time>
      </trkpt>
      <trkpt lat="4.5809700" lon="-74.2413480">
        <ele>2560.5</ele>
        <time>2018-08-10T17:48:00Z</time>
      </trkpt>
      <trkpt lat="4.5809800" lon="-74.2413000">
        <ele>2561.3</ele>
        <time>2018-08-10T17:48:01Z</time>
      </trkpt>
      <trkpt lat="4.5809950" lon="-74.2412530">
        <ele>2562.0</ele>
        <time>2018-08-10T17:48:02Z</time>
      </trkpt>
      <trkpt lat="4.5810100" lon="-74.2412070">
        <ele>2562.4</ele>
        <time>2018-08-10T17:48:03Z</time>
      </trkpt>
      <trkpt lat="4.5810270" lon="-74.2411500">
        <ele>2562.7</ele>
        <time>2018-08-10T17:48:04Z</time>
      </trkpt>
      <trkpt lat="4.5810420" lon="-74.2410920">
        <ele>2562.4</ele>
        <time>2018-08-10T17:48:05Z</time>
      </trkpt>
      <trkpt lat="4.5810570" lon="-74.2410350">
        <ele>2561.5</ele>
        <time>2018-08-10T17:48:06Z</time>
      </trkpt>
      <trkpt lat="4.5810730" lon="-74.2409780">
        <ele>2560.2</ele>
        <time>2018-08-10T17:48:07Z</time>
      </trkpt>
      <trkpt lat="4.5810920" lon="-74.2409180">
        <ele>2558.6</ele>
        <time>2018-08-10T17:48:08Z</time>
      </trkpt>
      <trkpt lat="4.5811070" lon="-74.2408580">
        <ele>2557.5</ele>
        <time>2018-08-10T17:48:09Z</time>
      </trkpt>
      <trkpt lat="4.5811080" lon="-74.2408050">
        <ele>2556.7</ele>
        <time>2018-08-10T17:48:10Z</time>
      </trkpt>
      <trkpt lat="4.5811220" lon="-74.2407470">
        <ele>2556.0</ele>
        <time>2018-08-10T17:48:11Z</time>
      </trkpt>
      <trkpt lat="4.5811320" lon="-74.2406870">
        <ele>2555.8</ele>
        <time>2018-08-10T17:48:12Z</time>
      </trkpt>
      <trkpt lat="4.5811430" lon="-74.2406270">
        <ele>2555.8</ele>
        <time>2018-08-10T17:48:13Z</time>
      </trkpt>
      <trkpt lat="4.5811550" lon="-74.2405670">
        <ele>2556.0</ele>
        <time>2018-08-10T17:48:14Z</time>
      </trkpt>
      <trkpt lat="4.5811700" lon="-74.2405080">
        <ele>2556.0</ele>
        <time>2018-08-10T17:48:15Z</time>
      </trkpt>
      <trkpt lat="4.5811820" lon="-74.2404480">
        <ele>2555.9</ele>
        <time>2018-08-10T17:48:16Z</time>
      </trkpt>
      <trkpt lat="4.5811930" lon="-74.2403830">
        <ele>2555.7</ele>
        <time>2018-08-10T17:48:17Z</time>
      </trkpt>
      <trkpt lat="4.5812030" lon="-74.2403230">
        <ele>2555.6</ele>
        <time>2018-08-10T17:48:18Z</time>
      </trkpt>
      <trkpt lat="4.5812170" lon="-74.2402620">
        <ele>2555.4</ele>
        <time>2018-08-10T17:48:19Z</time>
      </trkpt>
      <trkpt lat="4.5812180" lon="-74.2401920">
        <ele>2555.2</ele>
        <time>2018-08-10T17:48:20Z</time>
      </trkpt>
      <trkpt lat="4.5812300" lon="-74.2401280">
        <ele>2555.1</ele>
        <time>2018-08-10T17:48:21Z</time>
      </trkpt>
      <trkpt lat="4.5812380" lon="-74.2400650">
        <ele>2554.9</ele>
        <time>2018-08-10T17:48:22Z</time>
      </trkpt>
      <trkpt lat="4.5812550" lon="-74.2400050">
        <ele>2554.7</ele>
        <time>2018-08-10T17:48:23Z</time>
      </trkpt>
      <trkpt lat="4.5812700" lon="-74.2399450">
        <ele>2554.6</ele>
        <time>2018-08-10T17:48:24Z</time>
      </trkpt>
      <trkpt lat="4.5812870" lon="-74.2398820">
        <ele>2554.4</ele>
        <time>2018-08-10T17:48:25Z</time>
      </trkpt>
      <trkpt lat="4.5813020" lon="-74.2398280">
        <ele>2554.2</ele>
        <time>2018-08-10T17:48:26Z</time>
      </trkpt>
      <trkpt lat="4.5813170" lon="-74.2397770">
        <ele>2554.0</ele>
        <time>2018-08-10T17:48:27Z</time>
      </trkpt>
      <trkpt lat="4.5813300" lon="-74.2397250">
        <ele>2553.8</ele>
        <time>2018-08-10T17:48:28Z</time>
      </trkpt>
      <trkpt lat="4.5813430" lon="-74.2396730">
        <ele>2553.5</ele>
        <time>2018-08-10T17:48:29Z</time>
      </trkpt>
      <trkpt lat="4.5813550" lon="-74.2396220">
        <ele>2553.3</ele>
        <time>2018-08-10T17:48:30Z</time>
      </trkpt>
      <trkpt lat="4.5813680" lon="-74.2395720">
        <ele>2553.1</ele>
        <time>2018-08-10T17:48:31Z</time>
      </trkpt>
      <trkpt lat="4.5813800" lon="-74.2395200">
        <ele>2553.0</ele>
        <time>2018-08-10T17:48:32Z</time>
      </trkpt>
      <trkpt lat="4.5813900" lon="-74.2394700">
        <ele>2552.8</ele>
        <time>2018-08-10T17:48:33Z</time>
      </trkpt>
      <trkpt lat="4.5814030" lon="-74.2394130">
        <ele>2552.6</ele>
        <time>2018-08-10T17:48:34Z</time>
      </trkpt>
      <trkpt lat="4.5814170" lon="-74.2393550">
        <ele>2552.4</ele>
        <time>2018-08-10T17:48:35Z</time>
      </trkpt>
      <trkpt lat="4.5814280" lon="-74.2392950">
        <ele>2552.1</ele>
        <time>2018-08-10T17:48:36Z</time>
      </trkpt>
      <trkpt lat="4.5814420" lon="-74.2392350">
        <ele>2551.9</ele>
        <time>2018-08-10T17:48:37Z</time>
      </trkpt>
      <trkpt lat="4.5814530" lon="-74.2391800">
        <ele>2551.7</ele>
        <time>2018-08-10T17:48:38Z</time>
      </trkpt>
      <trkpt lat="4.5814650" lon="-74.2391330">
        <ele>2551.6</ele>
        <time>2018-08-10T17:48:39Z</time>
      </trkpt>
      <trkpt lat="4.5814730" lon="-74.2390930">
        <ele>2551.4</ele>
        <time>2018-08-10T17:48:40Z</time>
      </trkpt>
      <trkpt lat="4.5814820" lon="-74.2390620">
        <ele>2551.3</ele>
        <time>2018-08-10T17:48:41Z</time>
      </trkpt>
      <trkpt lat="4.5814880" lon="-74.2390350">
        <ele>2551.2</ele>
        <time>2018-08-10T17:48:42Z</time>
      </trkpt>
      <trkpt lat="4.5814950" lon="-74.2390080">
        <ele>2551.1</ele>
        <time>2018-08-10T17:48:43Z</time>
      </trkpt>
      <trkpt lat="4.5815030" lon="-74.2389800">
        <ele>2551.0</ele>
        <time>2018-08-10T17:48:44Z</time>
      </trkpt>
      <trkpt lat="4.5815150" lon="-74.2389520">
        <ele>2551.0</ele>
        <time>2018-08-10T17:48:45Z</time>
      </trkpt>
      <trkpt lat="4.5815300" lon="-74.2389180">
        <ele>2550.9</ele>
        <time>2018-08-10T17:48:46Z</time>
      </trkpt>
      <trkpt lat="4.5815380" lon="-74.2388800">
        <ele>2550.9</ele>
        <time>2018-08-10T17:48:47Z</time>
      </trkpt>
      <trkpt lat="4.5815480" lon="-74.2388420">
        <ele>2550.9</ele>
        <time>2018-08-10T17:48:48Z</time>
      </trkpt>
      <trkpt lat="4.5815580" lon="-74.2387970">
        <ele>2550.8</ele>
        <time>2018-08-10T17:48:49Z</time>
      </trkpt>
      <trkpt lat="4.5815650" lon="-74.2387470">
        <ele>2550.8</ele>
        <time>2018-08-10T17:48:50Z</time>
      </trkpt>
      <trkpt lat="4.5815700" lon="-74.2386970">
        <ele>2550.7</ele>
        <time>2018-08-10T17:48:51Z</time>
      </trkpt>
      <trkpt lat="4.5815900" lon="-74.2386380">
        <ele>2550.6</ele>
        <time>2018-08-10T17:48:52Z</time>
      </trkpt>
      <trkpt lat="4.5816070" lon="-74.2385830">
        <ele>2550.6</ele>
        <time>2018-08-10T17:48:53Z</time>
      </trkpt>
      <trkpt lat="4.5816170" lon="-74.2385280">
        <ele>2550.5</ele>
        <time>2018-08-10T17:48:54Z</time>
      </trkpt>
      <trkpt lat="4.5816280" lon="-74.2384680">
        <ele>2550.4</ele>
        <time>2018-08-10T17:48:55Z</time>
      </trkpt>
      <trkpt lat="4.5816430" lon="-74.2384070">
        <ele>2550.4</ele>
        <time>2018-08-10T17:48:56Z</time>
      </trkpt>
      <trkpt lat="4.5816550" lon="-74.2383480">
        <ele>2550.3</ele>
        <time>2018-08-10T17:48:57Z</time>
      </trkpt>
      <trkpt lat="4.5816700" lon="-74.2382900">
        <ele>2550.2</ele>
        <time>2018-08-10T17:48:58Z</time>
      </trkpt>
      <trkpt lat="4.5816850" lon="-74.2382320">
        <ele>2550.2</ele>
        <time>2018-08-10T17:48:59Z</time>
      </trkpt>
      <trkpt lat="4.5816980" lon="-74.2381720">
        <ele>2550.1</ele>
        <time>2018-08-10T17:49:00Z</time>
      </trkpt>
      <trkpt lat="4.5817080" lon="-74.2381070">
        <ele>2550.0</ele>
        <time>2018-08-10T17:49:01Z</time>
      </trkpt>
      <trkpt lat="4.5817170" lon="-74.2380370">
        <ele>2549.9</ele>
        <time>2018-08-10T17:49:02Z</time>
      </trkpt>
      <trkpt lat="4.5817220" lon="-74.2379720">
        <ele>2549.8</ele>
        <time>2018-08-10T17:49:03Z</time>
      </trkpt>
      <trkpt lat="4.5817220" lon="-74.2379070">
        <ele>2549.8</ele>
        <time>2018-08-10T17:49:04Z</time>
      </trkpt>
      <trkpt lat="4.5817220" lon="-74.2378400">
        <ele>2549.7</ele>
        <time>2018-08-10T17:49:05Z</time>
      </trkpt>
      <trkpt lat="4.5817200" lon="-74.2377720">
        <ele>2549.6</ele>
        <time>2018-08-10T17:49:06Z</time>
      </trkpt>
      <trkpt lat="4.5817180" lon="-74.2377070">
        <ele>2549.5</ele>
        <time>2018-08-10T17:49:07Z</time>
      </trkpt>
      <trkpt lat="4.5817200" lon="-74.2376400">
        <ele>2549.4</ele>
        <time>2018-08-10T17:49:08Z</time>
      </trkpt>
      <trkpt lat="4.5817220" lon="-74.2375770">
        <ele>2549.1</ele>
        <time>2018-08-10T17:49:09Z</time>
      </trkpt>
      <trkpt lat="4.5817250" lon="-74.2375080">
        <ele>2549.2</ele>
        <time>2018-08-10T17:49:10Z</time>
      </trkpt>
      <trkpt lat="4.5817250" lon="-74.2374500">
        <ele>2549.5</ele>
        <time>2018-08-10T17:49:11Z</time>
      </trkpt>
      <trkpt lat="4.5817250" lon="-74.2374020">
        <ele>2549.8</ele>
        <time>2018-08-10T17:49:12Z</time>
      </trkpt>
      <trkpt lat="4.5817230" lon="-74.2373550">
        <ele>2550.1</ele>
        <time>2018-08-10T17:49:13Z</time>
      </trkpt>
      <trkpt lat="4.5817200" lon="-74.2373100">
        <ele>2550.4</ele>
        <time>2018-08-10T17:49:14Z</time>
      </trkpt>
      <trkpt lat="4.5817200" lon="-74.2372680">
        <ele>2550.6</ele>
        <time>2018-08-10T17:49:15Z</time>
      </trkpt>
      <trkpt lat="4.5817180" lon="-74.2372250">
        <ele>2550.7</ele>
        <time>2018-08-10T17:49:16Z</time>
      </trkpt>
      <trkpt lat="4.5817130" lon="-74.2371680">
        <ele>2550.9</ele>
        <time>2018-08-10T17:49:17Z</time>
      </trkpt>
      <trkpt lat="4.5817070" lon="-74.2371130">
        <ele>2551.2</ele>
        <time>2018-08-10T17:49:18Z</time>
      </trkpt>
      <trkpt lat="4.5816950" lon="-74.2370550">
        <ele>2551.4</ele>
        <time>2018-08-10T17:49:19Z</time>
      </trkpt>
      <trkpt lat="4.5816850" lon="-74.2369970">
        <ele>2551.6</ele>
        <time>2018-08-10T17:49:20Z</time>
      </trkpt>
      <trkpt lat="4.5816770" lon="-74.2369280">
        <ele>2551.8</ele>
        <time>2018-08-10T17:49:21Z</time>
      </trkpt>
      <trkpt lat="4.5816700" lon="-74.2368580">
        <ele>2552.1</ele>
        <time>2018-08-10T17:49:22Z</time>
      </trkpt>
      <trkpt lat="4.5816670" lon="-74.2367880">
        <ele>2552.4</ele>
        <time>2018-08-10T17:49:23Z</time>
      </trkpt>
      <trkpt lat="4.5816650" lon="-74.2367170">
        <ele>2552.6</ele>
        <time>2018-08-10T17:49:24Z</time>
      </trkpt>
      <trkpt lat="4.5816620" lon="-74.2366450">
        <ele>2553.0</ele>
        <time>2018-08-10T17:49:25Z</time>
      </trkpt>
      <trkpt lat="4.5816570" lon="-74.2365770">
        <ele>2553.3</ele>
        <time>2018-08-10T17:49:26Z</time>
      </trkpt>
      <trkpt lat="4.5816520" lon="-74.2365020">
        <ele>2553.6</ele>
        <time>2018-08-10T17:49:27Z</time>
      </trkpt>
      <trkpt lat="4.5816480" lon="-74.2364270">
        <ele>2554.0</ele>
        <time>2018-08-10T17:49:28Z</time>
      </trkpt>
      <trkpt lat="4.5816380" lon="-74.2363500">
        <ele>2554.3</ele>
        <time>2018-08-10T17:49:29Z</time>
      </trkpt>
      <trkpt lat="4.5816350" lon="-74.2362750">
        <ele>2554.6</ele>
        <time>2018-08-10T17:49:30Z</time>
      </trkpt>
      <trkpt lat="4.5816350" lon="-74.2362020">
        <ele>2554.8</ele>
        <time>2018-08-10T17:49:31Z</time>
      </trkpt>
      <trkpt lat="4.5816350" lon="-74.2361370">
        <ele>2555.1</ele>
        <time>2018-08-10T17:49:32Z</time>
      </trkpt>
      <trkpt lat="4.5816320" lon="-74.2360720">
        <ele>2555.3</ele>
        <time>2018-08-10T17:49:33Z</time>
      </trkpt>
      <trkpt lat="4.5816320" lon="-74.2360070">
        <ele>2555.5</ele>
        <time>2018-08-10T17:49:34Z</time>
      </trkpt>
      <trkpt lat="4.5816350" lon="-74.2359420">
        <ele>2555.7</ele>
        <time>2018-08-10T17:49:35Z</time>
      </trkpt>
      <trkpt lat="4.5816380" lon="-74.2358820">
        <ele>2556.0</ele>
        <time>2018-08-10T17:49:36Z</time>
      </trkpt>
      <trkpt lat="4.5816320" lon="-74.2358250">
        <ele>2556.2</ele>
        <time>2018-08-10T17:49:37Z</time>
      </trkpt>
      <trkpt lat="4.5816280" lon="-74.2357680">
        <ele>2556.4</ele>
        <time>2018-08-10T17:49:38Z</time>
      </trkpt>
      <trkpt lat="4.5816280" lon="-74.2357120">
        <ele>2556.6</ele>
        <time>2018-08-10T17:49:39Z</time>
      </trkpt>
      <trkpt lat="4.5816300" lon="-74.2356500">
        <ele>2557.0</ele>
        <time>2018-08-10T17:49:40Z</time>
      </trkpt>
      <trkpt lat="4.5816300" lon="-74.2355870">
        <ele>2557.4</ele>
        <time>2018-08-10T17:49:41Z</time>
      </trkpt>
      <trkpt lat="4.5816350" lon="-74.2355250">
        <ele>2557.7</ele>
        <time>2018-08-10T17:49:42Z</time>
      </trkpt>
      <trkpt lat="4.5816380" lon="-74.2354680">
        <ele>2558.0</ele>
        <time>2018-08-10T17:49:43Z</time>
      </trkpt>
      <trkpt lat="4.5816470" lon="-74.2354120">
        <ele>2558.2</ele>
        <time>2018-08-10T17:49:44Z</time>
      </trkpt>
      <trkpt lat="4.5816530" lon="-74.2353480">
        <ele>2558.4</ele>
        <time>2018-08-10T17:49:45Z</time>
      </trkpt>
      <trkpt lat="4.5816620" lon="-74.2352820">
        <ele>2558.7</ele>
        <time>2018-08-10T17:49:46Z</time>
      </trkpt>
      <trkpt lat="4.5816680" lon="-74.2352150">
        <ele>2558.9</ele>
        <time>2018-08-10T17:49:47Z</time>
      </trkpt>
      <trkpt lat="4.5816730" lon="-74.2351500">
        <ele>2559.2</ele>
        <time>2018-08-10T17:49:48Z</time>
      </trkpt>
      <trkpt lat="4.5816800" lon="-74.2350850">
        <ele>2559.4</ele>
        <time>2018-08-10T17:49:49Z</time>
      </trkpt>
      <trkpt lat="4.5816850" lon="-74.2350230">
        <ele>2559.7</ele>
        <time>2018-08-10T17:49:50Z</time>
      </trkpt>
      <trkpt lat="4.5816920" lon="-74.2349670">
        <ele>2559.9</ele>
        <time>2018-08-10T17:49:51Z</time>
      </trkpt>
      <trkpt lat="4.5817020" lon="-74.2349100">
        <ele>2560.1</ele>
        <time>2018-08-10T17:49:52Z</time>
      </trkpt>
      <trkpt lat="4.5817120" lon="-74.2348380">
        <ele>2560.6</ele>
        <time>2018-08-10T17:49:53Z</time>
      </trkpt>
      <trkpt lat="4.5817200" lon="-74.2347720">
        <ele>2561.1</ele>
        <time>2018-08-10T17:49:54Z</time>
      </trkpt>
      <trkpt lat="4.5817270" lon="-74.2347070">
        <ele>2561.5</ele>
        <time>2018-08-10T17:49:55Z</time>
      </trkpt>
      <trkpt lat="4.5817300" lon="-74.2346430">
        <ele>2561.8</ele>
        <time>2018-08-10T17:49:56Z</time>
      </trkpt>
      <trkpt lat="4.5817330" lon="-74.2345800">
        <ele>2562.1</ele>
        <time>2018-08-10T17:49:57Z</time>
      </trkpt>
      <trkpt lat="4.5817420" lon="-74.2345170">
        <ele>2562.4</ele>
        <time>2018-08-10T17:49:58Z</time>
      </trkpt>
      <trkpt lat="4.5817470" lon="-74.2344580">
        <ele>2562.7</ele>
        <time>2018-08-10T17:49:59Z</time>
      </trkpt>
      <trkpt lat="4.5817500" lon="-74.2343980">
        <ele>2563.0</ele>
        <time>2018-08-10T17:50:00Z</time>
      </trkpt>
      <trkpt lat="4.5817550" lon="-74.2343380">
        <ele>2563.3</ele>
        <time>2018-08-10T17:50:01Z</time>
      </trkpt>
      <trkpt lat="4.5817620" lon="-74.2342870">
        <ele>2563.5</ele>
        <time>2018-08-10T17:50:02Z</time>
      </trkpt>
      <trkpt lat="4.5817670" lon="-74.2342330">
        <ele>2563.8</ele>
        <time>2018-08-10T17:50:03Z</time>
      </trkpt>
      <trkpt lat="4.5817720" lon="-74.2341750">
        <ele>2564.0</ele>
        <time>2018-08-10T17:50:04Z</time>
      </trkpt>
      <trkpt lat="4.5817750" lon="-74.2341220">
        <ele>2564.3</ele>
        <time>2018-08-10T17:50:05Z</time>
      </trkpt>
      <trkpt lat="4.5817770" lon="-74.2340700">
        <ele>2564.6</ele>
        <time>2018-08-10T17:50:06Z</time>
      </trkpt>
      <trkpt lat="4.5817850" lon="-74.2340200">
        <ele>2564.9</ele>
        <time>2018-08-10T17:50:07Z</time>
      </trkpt>
      <trkpt lat="4.5817900" lon="-74.2339700">
        <ele>2565.3</ele>
        <time>2018-08-10T17:50:08Z</time>
      </trkpt>
      <trkpt lat="4.5817770" lon="-74.2339330">
        <ele>2565.6</ele>
        <time>2018-08-10T17:50:09Z</time>
      </trkpt>
      <trkpt lat="4.5817830" lon="-74.2338820">
        <ele>2566.0</ele>
        <time>2018-08-10T17:50:10Z</time>
      </trkpt>
      <trkpt lat="4.5817870" lon="-74.2338280">
        <ele>2566.3</ele>
        <time>2018-08-10T17:50:11Z</time>
      </trkpt>
      <trkpt lat="4.5817900" lon="-74.2337750">
        <ele>2566.7</ele>
        <time>2018-08-10T17:50:12Z</time>
      </trkpt>
      <trkpt lat="4.5817930" lon="-74.2337180">
        <ele>2566.9</ele>
        <time>2018-08-10T17:50:13Z</time>
      </trkpt>
      <trkpt lat="4.5818000" lon="-74.2336580">
        <ele>2566.7</ele>
        <time>2018-08-10T17:50:14Z</time>
      </trkpt>
      <trkpt lat="4.5818070" lon="-74.2336020">
        <ele>2566.5</ele>
        <time>2018-08-10T17:50:15Z</time>
      </trkpt>
      <trkpt lat="4.5818100" lon="-74.2335500">
        <ele>2566.3</ele>
        <time>2018-08-10T17:50:16Z</time>
      </trkpt>
      <trkpt lat="4.5818100" lon="-74.2335100">
        <ele>2566.2</ele>
        <time>2018-08-10T17:50:17Z</time>
      </trkpt>
      <trkpt lat="4.5818120" lon="-74.2334770">
        <ele>2566.1</ele>
        <time>2018-08-10T17:50:18Z</time>
      </trkpt>
      <trkpt lat="4.5818100" lon="-74.2334420">
        <ele>2565.9</ele>
        <time>2018-08-10T17:50:19Z</time>
      </trkpt>
      <trkpt lat="4.5818100" lon="-74.2334050">
        <ele>2565.8</ele>
        <time>2018-08-10T17:50:20Z</time>
      </trkpt>
      <trkpt lat="4.5818120" lon="-74.2333630">
        <ele>2565.7</ele>
        <time>2018-08-10T17:50:21Z</time>
      </trkpt>
      <trkpt lat="4.5818150" lon="-74.2333170">
        <ele>2565.5</ele>
        <time>2018-08-10T17:50:22Z</time>
      </trkpt>
      <trkpt lat="4.5818220" lon="-74.2332630">
        <ele>2565.4</ele>
        <time>2018-08-10T17:50:23Z</time>
      </trkpt>
      <trkpt lat="4.5818250" lon="-74.2332070">
        <ele>2565.2</ele>
        <time>2018-08-10T17:50:24Z</time>
      </trkpt>
      <trkpt lat="4.5818330" lon="-74.2331550">
        <ele>2565.1</ele>
        <time>2018-08-10T17:50:25Z</time>
      </trkpt>
      <trkpt lat="4.5818380" lon="-74.2331050">
        <ele>2564.9</ele>
        <time>2018-08-10T17:50:26Z</time>
      </trkpt>
      <trkpt lat="4.5818350" lon="-74.2330520">
        <ele>2564.8</ele>
        <time>2018-08-10T17:50:27Z</time>
      </trkpt>
      <trkpt lat="4.5818380" lon="-74.2330000">
        <ele>2564.6</ele>
        <time>2018-08-10T17:50:28Z</time>
      </trkpt>
      <trkpt lat="4.5818400" lon="-74.2329430">
        <ele>2564.4</ele>
        <time>2018-08-10T17:50:29Z</time>
      </trkpt>
      <trkpt lat="4.5818420" lon="-74.2328870">
        <ele>2564.3</ele>
        <time>2018-08-10T17:50:30Z</time>
      </trkpt>
      <trkpt lat="4.5818430" lon="-74.2328280">
        <ele>2564.1</ele>
        <time>2018-08-10T17:50:31Z</time>
      </trkpt>
      <trkpt lat="4.5818430" lon="-74.2327750">
        <ele>2563.9</ele>
        <time>2018-08-10T17:50:32Z</time>
      </trkpt>
      <trkpt lat="4.5818530" lon="-74.2327130">
        <ele>2563.7</ele>
        <time>2018-08-10T17:50:33Z</time>
      </trkpt>
      <trkpt lat="4.5818600" lon="-74.2326520">
        <ele>2563.5</ele>
        <time>2018-08-10T17:50:34Z</time>
      </trkpt>
      <trkpt lat="4.5818580" lon="-74.2325880">
        <ele>2563.3</ele>
        <time>2018-08-10T17:50:35Z</time>
      </trkpt>
      <trkpt lat="4.5818550" lon="-74.2325250">
        <ele>2563.1</ele>
        <time>2018-08-10T17:50:36Z</time>
      </trkpt>
      <trkpt lat="4.5818600" lon="-74.2324600">
        <ele>2562.9</ele>
        <time>2018-08-10T17:50:37Z</time>
      </trkpt>
      <trkpt lat="4.5818700" lon="-74.2323920">
        <ele>2562.6</ele>
        <time>2018-08-10T17:50:38Z</time>
      </trkpt>
      <trkpt lat="4.5818830" lon="-74.2323280">
        <ele>2562.4</ele>
        <time>2018-08-10T17:50:39Z</time>
      </trkpt>
      <trkpt lat="4.5818900" lon="-74.2322600">
        <ele>2562.2</ele>
        <time>2018-08-10T17:50:40Z</time>
      </trkpt>
      <trkpt lat="4.5818930" lon="-74.2321920">
        <ele>2562.0</ele>
        <time>2018-08-10T17:50:41Z</time>
      </trkpt>
      <trkpt lat="4.5818980" lon="-74.2321270">
        <ele>2562.3</ele>
        <time>2018-08-10T17:50:42Z</time>
      </trkpt>
      <trkpt lat="4.5819070" lon="-74.2320650">
        <ele>2562.1</ele>
        <time>2018-08-10T17:50:43Z</time>
      </trkpt>
      <trkpt lat="4.5819120" lon="-74.2320080">
        <ele>2562.0</ele>
        <time>2018-08-10T17:50:44Z</time>
      </trkpt>
      <trkpt lat="4.5819150" lon="-74.2319600">
        <ele>2562.4</ele>
        <time>2018-08-10T17:50:45Z</time>
      </trkpt>
      <trkpt lat="4.5819120" lon="-74.2319200">
        <ele>2562.4</ele>
        <time>2018-08-10T17:50:46Z</time>
      </trkpt>
      <trkpt lat="4.5819200" lon="-74.2318800">
        <ele>2562.3</ele>
        <time>2018-08-10T17:50:47Z</time>
      </trkpt>
      <trkpt lat="4.5819250" lon="-74.2318370">
        <ele>2562.1</ele>
        <time>2018-08-10T17:50:48Z</time>
      </trkpt>
      <trkpt lat="4.5819350" lon="-74.2317930">
        <ele>2561.8</ele>
        <time>2018-08-10T17:50:49Z</time>
      </trkpt>
      <trkpt lat="4.5819380" lon="-74.2317450">
        <ele>2561.8</ele>
        <time>2018-08-10T17:50:50Z</time>
      </trkpt>
      <trkpt lat="4.5819450" lon="-74.2316920">
        <ele>2561.9</ele>
        <time>2018-08-10T17:50:51Z</time>
      </trkpt>
      <trkpt lat="4.5819530" lon="-74.2316380">
        <ele>2562.0</ele>
        <time>2018-08-10T17:50:52Z</time>
      </trkpt>
      <trkpt lat="4.5819580" lon="-74.2315820">
        <ele>2562.0</ele>
        <time>2018-08-10T17:50:53Z</time>
      </trkpt>
      <trkpt lat="4.5819650" lon="-74.2315300">
        <ele>2562.0</ele>
        <time>2018-08-10T17:50:54Z</time>
      </trkpt>
      <trkpt lat="4.5819750" lon="-74.2314780">
        <ele>2561.8</ele>
        <time>2018-08-10T17:50:55Z</time>
      </trkpt>
      <trkpt lat="4.5819700" lon="-74.2314270">
        <ele>2561.5</ele>
        <time>2018-08-10T17:50:56Z</time>
      </trkpt>
      <trkpt lat="4.5819370" lon="-74.2313820">
        <ele>2561.3</ele>
        <time>2018-08-10T17:50:57Z</time>
      </trkpt>
      <trkpt lat="4.5819300" lon="-74.2313350">
        <ele>2561.1</ele>
        <time>2018-08-10T17:50:58Z</time>
      </trkpt>
      <trkpt lat="4.5819300" lon="-74.2312920">
        <ele>2560.9</ele>
        <time>2018-08-10T17:50:59Z</time>
      </trkpt>
      <trkpt lat="4.5819400" lon="-74.2312470">
        <ele>2560.8</ele>
        <time>2018-08-10T17:51:00Z</time>
      </trkpt>
      <trkpt lat="4.5819430" lon="-74.2312020">
        <ele>2560.7</ele>
        <time>2018-08-10T17:51:01Z</time>
      </trkpt>
      <trkpt lat="4.5819480" lon="-74.2311580">
        <ele>2560.5</ele>
        <time>2018-08-10T17:51:02Z</time>
      </trkpt>
      <trkpt lat="4.5819570" lon="-74.2311150">
        <ele>2560.4</ele>
        <time>2018-08-10T17:51:03Z</time>
      </trkpt>
      <trkpt lat="4.5819620" lon="-74.2310730">
        <ele>2560.3</ele>
        <time>2018-08-10T17:51:04Z</time>
      </trkpt>
      <trkpt lat="4.5819680" lon="-74.2310280">
        <ele>2560.2</ele>
        <time>2018-08-10T17:51:05Z</time>
      </trkpt>
      <trkpt lat="4.5819780" lon="-74.2309850">
        <ele>2560.1</ele>
        <time>2018-08-10T17:51:06Z</time>
      </trkpt>
      <trkpt lat="4.5819820" lon="-74.2309380">
        <ele>2559.9</ele>
        <time>2018-08-10T17:51:07Z</time>
      </trkpt>
      <trkpt lat="4.5819870" lon="-74.2308950">
        <ele>2559.8</ele>
        <time>2018-08-10T17:51:08Z</time>
      </trkpt>
      <trkpt lat="4.5819950" lon="-74.2308480">
        <ele>2559.7</ele>
        <time>2018-08-10T17:51:09Z</time>
      </trkpt>
      <trkpt lat="4.5820080" lon="-74.2308020">
        <ele>2559.5</ele>
        <time>2018-08-10T17:51:10Z</time>
      </trkpt>
      <trkpt lat="4.5820130" lon="-74.2307530">
        <ele>2559.4</ele>
        <time>2018-08-10T17:51:11Z</time>
      </trkpt>
      <trkpt lat="4.5820170" lon="-74.2307030">
        <ele>2559.3</ele>
        <time>2018-08-10T17:51:12Z</time>
      </trkpt>
      <trkpt lat="4.5820250" lon="-74.2306520">
        <ele>2559.1</ele>
        <time>2018-08-10T17:51:13Z</time>
      </trkpt>
      <trkpt lat="4.5820280" lon="-74.2305950">
        <ele>2559.0</ele>
        <time>2018-08-10T17:51:14Z</time>
      </trkpt>
      <trkpt lat="4.5820320" lon="-74.2305450">
        <ele>2559.1</ele>
        <time>2018-08-10T17:51:15Z</time>
      </trkpt>
      <trkpt lat="4.5820350" lon="-74.2304930">
        <ele>2559.2</ele>
        <time>2018-08-10T17:51:16Z</time>
      </trkpt>
      <trkpt lat="4.5820380" lon="-74.2304370">
        <ele>2559.3</ele>
        <time>2018-08-10T17:51:17Z</time>
      </trkpt>
      <trkpt lat="4.5820470" lon="-74.2303820">
        <ele>2559.4</ele>
        <time>2018-08-10T17:51:18Z</time>
      </trkpt>
      <trkpt lat="4.5820500" lon="-74.2303230">
        <ele>2559.5</ele>
        <time>2018-08-10T17:51:19Z</time>
      </trkpt>
      <trkpt lat="4.5820550" lon="-74.2302580">
        <ele>2559.6</ele>
        <time>2018-08-10T17:51:20Z</time>
      </trkpt>
      <trkpt lat="4.5820600" lon="-74.2301930">
        <ele>2559.7</ele>
        <time>2018-08-10T17:51:21Z</time>
      </trkpt>
      <trkpt lat="4.5820600" lon="-74.2301300">
        <ele>2559.9</ele>
        <time>2018-08-10T17:51:22Z</time>
      </trkpt>
      <trkpt lat="4.5820680" lon="-74.2300680">
        <ele>2560.0</ele>
        <time>2018-08-10T17:51:23Z</time>
      </trkpt>
      <trkpt lat="4.5820800" lon="-74.2300050">
        <ele>2560.1</ele>
        <time>2018-08-10T17:51:24Z</time>
      </trkpt>
      <trkpt lat="4.5820830" lon="-74.2299400">
        <ele>2560.2</ele>
        <time>2018-08-10T17:51:25Z</time>
      </trkpt>
      <trkpt lat="4.5821120" lon="-74.2298720">
        <ele>2560.3</ele>
        <time>2018-08-10T17:51:26Z</time>
      </trkpt>
      <trkpt lat="4.5821330" lon="-74.2298050">
        <ele>2560.5</ele>
        <time>2018-08-10T17:51:27Z</time>
      </trkpt>
      <trkpt lat="4.5821320" lon="-74.2297300">
        <ele>2560.6</ele>
        <time>2018-08-10T17:51:28Z</time>
      </trkpt>
      <trkpt lat="4.5821380" lon="-74.2296650">
        <ele>2560.7</ele>
        <time>2018-08-10T17:51:29Z</time>
      </trkpt>
      <trkpt lat="4.5821380" lon="-74.2295930">
        <ele>2560.9</ele>
        <time>2018-08-10T17:51:30Z</time>
      </trkpt>
      <trkpt lat="4.5821420" lon="-74.2295270">
        <ele>2561.0</ele>
        <time>2018-08-10T17:51:31Z</time>
      </trkpt>
      <trkpt lat="4.5821600" lon="-74.2294600">
        <ele>2561.1</ele>
        <time>2018-08-10T17:51:32Z</time>
      </trkpt>
      <trkpt lat="4.5821730" lon="-74.2293930">
        <ele>2561.3</ele>
        <time>2018-08-10T17:51:33Z</time>
      </trkpt>
      <trkpt lat="4.5821830" lon="-74.2293280">
        <ele>2561.4</ele>
        <time>2018-08-10T17:51:34Z</time>
      </trkpt>
      <trkpt lat="4.5821920" lon="-74.2292630">
        <ele>2561.5</ele>
        <time>2018-08-10T17:51:35Z</time>
      </trkpt>
      <trkpt lat="4.5821930" lon="-74.2291970">
        <ele>2561.7</ele>
        <time>2018-08-10T17:51:36Z</time>
      </trkpt>
      <trkpt lat="4.5821930" lon="-74.2291300">
        <ele>2561.8</ele>
        <time>2018-08-10T17:51:37Z</time>
      </trkpt>
      <trkpt lat="4.5821950" lon="-74.2290630">
        <ele>2562.0</ele>
        <time>2018-08-10T17:51:38Z</time>
      </trkpt>
      <trkpt lat="4.5821980" lon="-74.2289920">
        <ele>2562.1</ele>
        <time>2018-08-10T17:51:39Z</time>
      </trkpt>
      <trkpt lat="4.5822050" lon="-74.2289200">
        <ele>2562.2</ele>
        <time>2018-08-10T17:51:40Z</time>
      </trkpt>
      <trkpt lat="4.5822100" lon="-74.2288500">
        <ele>2562.6</ele>
        <time>2018-08-10T17:51:41Z</time>
      </trkpt>
      <trkpt lat="4.5822170" lon="-74.2287820">
        <ele>2562.9</ele>
        <time>2018-08-10T17:51:42Z</time>
      </trkpt>
      <trkpt lat="4.5822250" lon="-74.2287120">
        <ele>2563.1</ele>
        <time>2018-08-10T17:51:43Z</time>
      </trkpt>
      <trkpt lat="4.5822320" lon="-74.2286450">
        <ele>2563.2</ele>
        <time>2018-08-10T17:51:44Z</time>
      </trkpt>
      <trkpt lat="4.5822380" lon="-74.2285780">
        <ele>2563.4</ele>
        <time>2018-08-10T17:51:45Z</time>
      </trkpt>
      <trkpt lat="4.5822480" lon="-74.2285070">
        <ele>2563.6</ele>
        <time>2018-08-10T17:51:46Z</time>
      </trkpt>
      <trkpt lat="4.5822520" lon="-74.2284400">
        <ele>2563.8</ele>
        <time>2018-08-10T17:51:47Z</time>
      </trkpt>
      <trkpt lat="4.5822570" lon="-74.2283750">
        <ele>2563.9</ele>
        <time>2018-08-10T17:51:48Z</time>
      </trkpt>
      <trkpt lat="4.5822620" lon="-74.2283120">
        <ele>2564.1</ele>
        <time>2018-08-10T17:51:49Z</time>
      </trkpt>
      <trkpt lat="4.5822680" lon="-74.2282500">
        <ele>2564.3</ele>
        <time>2018-08-10T17:51:50Z</time>
      </trkpt>
      <trkpt lat="4.5822780" lon="-74.2281900">
        <ele>2564.4</ele>
        <time>2018-08-10T17:51:51Z</time>
      </trkpt>
      <trkpt lat="4.5822820" lon="-74.2281330">
        <ele>2564.6</ele>
        <time>2018-08-10T17:51:52Z</time>
      </trkpt>
      <trkpt lat="4.5822900" lon="-74.2280780">
        <ele>2564.7</ele>
        <time>2018-08-10T17:51:53Z</time>
      </trkpt>
      <trkpt lat="4.5822950" lon="-74.2280230">
        <ele>2564.9</ele>
        <time>2018-08-10T17:51:54Z</time>
      </trkpt>
      <trkpt lat="4.5823000" lon="-74.2279670">
        <ele>2565.1</ele>
        <time>2018-08-10T17:51:55Z</time>
      </trkpt>
      <trkpt lat="4.5823070" lon="-74.2279100">
        <ele>2565.2</ele>
        <time>2018-08-10T17:51:56Z</time>
      </trkpt>
      <trkpt lat="4.5823320" lon="-74.2278550">
        <ele>2565.4</ele>
        <time>2018-08-10T17:51:57Z</time>
      </trkpt>
      <trkpt lat="4.5823380" lon="-74.2278020">
        <ele>2565.5</ele>
        <time>2018-08-10T17:51:58Z</time>
      </trkpt>
      <trkpt lat="4.5823450" lon="-74.2277500">
        <ele>2565.7</ele>
        <time>2018-08-10T17:51:59Z</time>
      </trkpt>
      <trkpt lat="4.5823520" lon="-74.2276930">
        <ele>2565.9</ele>
        <time>2018-08-10T17:52:00Z</time>
      </trkpt>
      <trkpt lat="4.5823570" lon="-74.2276370">
        <ele>2565.9</ele>
        <time>2018-08-10T17:52:01Z</time>
      </trkpt>
      <trkpt lat="4.5823620" lon="-74.2275850">
        <ele>2565.6</ele>
        <time>2018-08-10T17:52:02Z</time>
      </trkpt>
      <trkpt lat="4.5823680" lon="-74.2275320">
        <ele>2565.2</ele>
        <time>2018-08-10T17:52:03Z</time>
      </trkpt>
      <trkpt lat="4.5823730" lon="-74.2274770">
        <ele>2564.9</ele>
        <time>2018-08-10T17:52:04Z</time>
      </trkpt>
      <trkpt lat="4.5823820" lon="-74.2274200">
        <ele>2564.5</ele>
        <time>2018-08-10T17:52:05Z</time>
      </trkpt>
      <trkpt lat="4.5823870" lon="-74.2273670">
        <ele>2564.2</ele>
        <time>2018-08-10T17:52:06Z</time>
      </trkpt>
      <trkpt lat="4.5823900" lon="-74.2273150">
        <ele>2563.9</ele>
        <time>2018-08-10T17:52:07Z</time>
      </trkpt>
      <trkpt lat="4.5823920" lon="-74.2272650">
        <ele>2563.5</ele>
        <time>2018-08-10T17:52:08Z</time>
      </trkpt>
      <trkpt lat="4.5824000" lon="-74.2272180">
        <ele>2563.3</ele>
        <time>2018-08-10T17:52:09Z</time>
      </trkpt>
      <trkpt lat="4.5824020" lon="-74.2271720">
        <ele>2563.0</ele>
        <time>2018-08-10T17:52:10Z</time>
      </trkpt>
      <trkpt lat="4.5824030" lon="-74.2271280">
        <ele>2562.7</ele>
        <time>2018-08-10T17:52:11Z</time>
      </trkpt>
      <trkpt lat="4.5824050" lon="-74.2270820">
        <ele>2562.4</ele>
        <time>2018-08-10T17:52:12Z</time>
      </trkpt>
      <trkpt lat="4.5824100" lon="-74.2270320">
        <ele>2562.3</ele>
        <time>2018-08-10T17:52:13Z</time>
      </trkpt>
      <trkpt lat="4.5824130" lon="-74.2269820">
        <ele>2562.1</ele>
        <time>2018-08-10T17:52:14Z</time>
      </trkpt>
      <trkpt lat="4.5824130" lon="-74.2269320">
        <ele>2562.0</ele>
        <time>2018-08-10T17:52:15Z</time>
      </trkpt>
      <trkpt lat="4.5824170" lon="-74.2268820">
        <ele>2561.8</ele>
        <time>2018-08-10T17:52:16Z</time>
      </trkpt>
      <trkpt lat="4.5824200" lon="-74.2268280">
        <ele>2561.7</ele>
        <time>2018-08-10T17:52:17Z</time>
      </trkpt>
      <trkpt lat="4.5824220" lon="-74.2267750">
        <ele>2561.5</ele>
        <time>2018-08-10T17:52:18Z</time>
      </trkpt>
      <trkpt lat="4.5824270" lon="-74.2267180">
        <ele>2561.4</ele>
        <time>2018-08-10T17:52:19Z</time>
      </trkpt>
      <trkpt lat="4.5824300" lon="-74.2266630">
        <ele>2561.2</ele>
        <time>2018-08-10T17:52:20Z</time>
      </trkpt>
      <trkpt lat="4.5824300" lon="-74.2266120">
        <ele>2561.1</ele>
        <time>2018-08-10T17:52:21Z</time>
      </trkpt>
      <trkpt lat="4.5824330" lon="-74.2265550">
        <ele>2560.9</ele>
        <time>2018-08-10T17:52:22Z</time>
      </trkpt>
      <trkpt lat="4.5824330" lon="-74.2265020">
        <ele>2560.7</ele>
        <time>2018-08-10T17:52:23Z</time>
      </trkpt>
      <trkpt lat="4.5824370" lon="-74.2264470">
        <ele>2560.5</ele>
        <time>2018-08-10T17:52:24Z</time>
      </trkpt>
      <trkpt lat="4.5824380" lon="-74.2263930">
        <ele>2560.3</ele>
        <time>2018-08-10T17:52:25Z</time>
      </trkpt>
      <trkpt lat="4.5824400" lon="-74.2263420">
        <ele>2560.2</ele>
        <time>2018-08-10T17:52:26Z</time>
      </trkpt>
      <trkpt lat="4.5824380" lon="-74.2262920">
        <ele>2560.0</ele>
        <time>2018-08-10T17:52:27Z</time>
      </trkpt>
      <trkpt lat="4.5824420" lon="-74.2262380">
        <ele>2559.8</ele>
        <time>2018-08-10T17:52:28Z</time>
      </trkpt>
      <trkpt lat="4.5824450" lon="-74.2261930">
        <ele>2559.7</ele>
        <time>2018-08-10T17:52:29Z</time>
      </trkpt>
      <trkpt lat="4.5824330" lon="-74.2261530">
        <ele>2559.5</ele>
        <time>2018-08-10T17:52:30Z</time>
      </trkpt>
      <trkpt lat="4.5824380" lon="-74.2261150">
        <ele>2559.4</ele>
        <time>2018-08-10T17:52:31Z</time>
      </trkpt>
      <trkpt lat="4.5824400" lon="-74.2260750">
        <ele>2559.3</ele>
        <time>2018-08-10T17:52:32Z</time>
      </trkpt>
      <trkpt lat="4.5824470" lon="-74.2260430">
        <ele>2559.1</ele>
        <time>2018-08-10T17:52:33Z</time>
      </trkpt>
      <trkpt lat="4.5824520" lon="-74.2260150">
        <ele>2559.0</ele>
        <time>2018-08-10T17:52:34Z</time>
      </trkpt>
      <trkpt lat="4.5824530" lon="-74.2259870">
        <ele>2559.2</ele>
        <time>2018-08-10T17:52:35Z</time>
      </trkpt>
      <trkpt lat="4.5824530" lon="-74.2259580">
        <ele>2559.6</ele>
        <time>2018-08-10T17:52:36Z</time>
      </trkpt>
      <trkpt lat="4.5824620" lon="-74.2259100">
        <ele>2560.4</ele>
        <time>2018-08-10T17:52:38Z</time>
      </trkpt>
      <trkpt lat="4.5824680" lon="-74.2258820">
        <ele>2560.8</ele>
        <time>2018-08-10T17:52:39Z</time>
      </trkpt>
      <trkpt lat="4.5824730" lon="-74.2258500">
        <ele>2561.3</ele>
        <time>2018-08-10T17:52:40Z</time>
      </trkpt>
      <trkpt lat="4.5824770" lon="-74.2258120">
        <ele>2561.8</ele>
        <time>2018-08-10T17:52:41Z</time>
      </trkpt>
      <trkpt lat="4.5824800" lon="-74.2257780">
        <ele>2561.9</ele>
        <time>2018-08-10T17:52:42Z</time>
      </trkpt>
      <trkpt lat="4.5824830" lon="-74.2257470">
        <ele>2561.9</ele>
        <time>2018-08-10T17:52:43Z</time>
      </trkpt>
      <trkpt lat="4.5824850" lon="-74.2257080">
        <ele>2561.8</ele>
        <time>2018-08-10T17:52:44Z</time>
      </trkpt>
      <trkpt lat="4.5824870" lon="-74.2256770">
        <ele>2561.7</ele>
        <time>2018-08-10T17:52:45Z</time>
      </trkpt>
      <trkpt lat="4.5824880" lon="-74.2256470">
        <ele>2561.7</ele>
        <time>2018-08-10T17:52:46Z</time>
      </trkpt>
      <trkpt lat="4.5824920" lon="-74.2256130">
        <ele>2561.6</ele>
        <time>2018-08-10T17:52:47Z</time>
      </trkpt>
      <trkpt lat="4.5824900" lon="-74.2255780">
        <ele>2561.5</ele>
        <time>2018-08-10T17:52:48Z</time>
      </trkpt>
      <trkpt lat="4.5824880" lon="-74.2255480">
        <ele>2561.5</ele>
        <time>2018-08-10T17:52:49Z</time>
      </trkpt>
      <trkpt lat="4.5824830" lon="-74.2255100">
        <ele>2561.4</ele>
        <time>2018-08-10T17:52:50Z</time>
      </trkpt>
      <trkpt lat="4.5824820" lon="-74.2254680">
        <ele>2561.3</ele>
        <time>2018-08-10T17:52:51Z</time>
      </trkpt>
      <trkpt lat="4.5824800" lon="-74.2254220">
        <ele>2561.2</ele>
        <time>2018-08-10T17:52:52Z</time>
      </trkpt>
      <trkpt lat="4.5824800" lon="-74.2253730">
        <ele>2561.1</ele>
        <time>2018-08-10T17:52:53Z</time>
      </trkpt>
      <trkpt lat="4.5824830" lon="-74.2253150">
        <ele>2561.0</ele>
        <time>2018-08-10T17:52:54Z</time>
      </trkpt>
      <trkpt lat="4.5824870" lon="-74.2252570">
        <ele>2560.9</ele>
        <time>2018-08-10T17:52:55Z</time>
      </trkpt>
      <trkpt lat="4.5824880" lon="-74.2251950">
        <ele>2560.8</ele>
        <time>2018-08-10T17:52:56Z</time>
      </trkpt>
      <trkpt lat="4.5824920" lon="-74.2251330">
        <ele>2560.7</ele>
        <time>2018-08-10T17:52:57Z</time>
      </trkpt>
      <trkpt lat="4.5824930" lon="-74.2250730">
        <ele>2560.6</ele>
        <time>2018-08-10T17:52:58Z</time>
      </trkpt>
      <trkpt lat="4.5825030" lon="-74.2250100">
        <ele>2560.4</ele>
        <time>2018-08-10T17:52:59Z</time>
      </trkpt>
      <trkpt lat="4.5825080" lon="-74.2249530">
        <ele>2560.3</ele>
        <time>2018-08-10T17:53:00Z</time>
      </trkpt>
      <trkpt lat="4.5825120" lon="-74.2249050">
        <ele>2560.3</ele>
        <time>2018-08-10T17:53:01Z</time>
      </trkpt>
      <trkpt lat="4.5825150" lon="-74.2248470">
        <ele>2560.1</ele>
        <time>2018-08-10T17:53:02Z</time>
      </trkpt>
      <trkpt lat="4.5825150" lon="-74.2247930">
        <ele>2560.0</ele>
        <time>2018-08-10T17:53:03Z</time>
      </trkpt>
      <trkpt lat="4.5825230" lon="-74.2247470">
        <ele>2559.9</ele>
        <time>2018-08-10T17:53:04Z</time>
      </trkpt>
      <trkpt lat="4.5825270" lon="-74.2247050">
        <ele>2559.8</ele>
        <time>2018-08-10T17:53:05Z</time>
      </trkpt>
      <trkpt lat="4.5825230" lon="-74.2246520">
        <ele>2559.6</ele>
        <time>2018-08-10T17:53:06Z</time>
      </trkpt>
      <trkpt lat="4.5825220" lon="-74.2246100">
        <ele>2559.5</ele>
        <time>2018-08-10T17:53:07Z</time>
      </trkpt>
      <trkpt lat="4.5825230" lon="-74.2245720">
        <ele>2559.4</ele>
        <time>2018-08-10T17:53:08Z</time>
      </trkpt>
      <trkpt lat="4.5825250" lon="-74.2245380">
        <ele>2559.3</ele>
        <time>2018-08-10T17:53:09Z</time>
      </trkpt>
      <trkpt lat="4.5825280" lon="-74.2245070">
        <ele>2559.2</ele>
        <time>2018-08-10T17:53:10Z</time>
      </trkpt>
      <trkpt lat="4.5825230" lon="-74.2244680">
        <ele>2559.1</ele>
        <time>2018-08-10T17:53:12Z</time>
      </trkpt>
      <trkpt lat="4.5825200" lon="-74.2244320">
        <ele>2559.0</ele>
        <time>2018-08-10T17:53:15Z</time>
      </trkpt>
      <trkpt lat="4.5825230" lon="-74.2243970">
        <ele>2559.0</ele>
        <time>2018-08-10T17:53:17Z</time>
      </trkpt>
      <trkpt lat="4.5825230" lon="-74.2243580">
        <ele>2559.0</ele>
        <time>2018-08-10T17:53:19Z</time>
      </trkpt>
      <trkpt lat="4.5825180" lon="-74.2243300">
        <ele>2559.0</ele>
        <time>2018-08-10T17:53:20Z</time>
      </trkpt>
      <trkpt lat="4.5825120" lon="-74.2242970">
        <ele>2559.0</ele>
        <time>2018-08-10T17:53:21Z</time>
      </trkpt>
      <trkpt lat="4.5825050" lon="-74.2242520">
        <ele>2558.9</ele>
        <time>2018-08-10T17:53:23Z</time>
      </trkpt>
      <trkpt lat="4.5824900" lon="-74.2241800">
        <ele>2558.1</ele>
        <time>2018-08-10T17:53:25Z</time>
      </trkpt>
      <trkpt lat="4.5824780" lon="-74.2241450">
        <ele>2557.7</ele>
        <time>2018-08-10T17:53:26Z</time>
      </trkpt>
      <trkpt lat="4.5824630" lon="-74.2241080">
        <ele>2557.3</ele>
        <time>2018-08-10T17:53:27Z</time>
      </trkpt>
      <trkpt lat="4.5824480" lon="-74.2240720">
        <ele>2557.0</ele>
        <time>2018-08-10T17:53:28Z</time>
      </trkpt>
      <trkpt lat="4.5824400" lon="-74.2240400">
        <ele>2557.0</ele>
        <time>2018-08-10T17:53:29Z</time>
      </trkpt>
      <trkpt lat="4.5824280" lon="-74.2239950">
        <ele>2557.0</ele>
        <time>2018-08-10T17:53:30Z</time>
      </trkpt>
      <trkpt lat="4.5824170" lon="-74.2239500">
        <ele>2557.0</ele>
        <time>2018-08-10T17:53:31Z</time>
      </trkpt>
      <trkpt lat="4.5824080" lon="-74.2239100">
        <ele>2557.0</ele>
        <time>2018-08-10T17:53:32Z</time>
      </trkpt>
      <trkpt lat="4.5824050" lon="-74.2238800">
        <ele>2557.0</ele>
        <time>2018-08-10T17:53:33Z</time>
      </trkpt>
      <trkpt lat="4.5823920" lon="-74.2238320">
        <ele>2557.0</ele>
        <time>2018-08-10T17:53:35Z</time>
      </trkpt>
      <trkpt lat="4.5823730" lon="-74.2237830">
        <ele>2557.0</ele>
        <time>2018-08-10T17:53:37Z</time>
      </trkpt>
      <trkpt lat="4.5823670" lon="-74.2237420">
        <ele>2557.0</ele>
        <time>2018-08-10T17:53:38Z</time>
      </trkpt>
      <trkpt lat="4.5823520" lon="-74.2237030">
        <ele>2557.0</ele>
        <time>2018-08-10T17:53:39Z</time>
      </trkpt>
      <trkpt lat="4.5823420" lon="-74.2236700">
        <ele>2557.0</ele>
        <time>2018-08-10T17:53:40Z</time>
      </trkpt>
      <trkpt lat="4.5823270" lon="-74.2236430">
        <ele>2557.0</ele>
        <time>2018-08-10T17:53:41Z</time>
      </trkpt>
      <trkpt lat="4.5823100" lon="-74.2236170">
        <ele>2557.0</ele>
        <time>2018-08-10T17:53:42Z</time>
      </trkpt>
      <trkpt lat="4.5822980" lon="-74.2235900">
        <ele>2557.0</ele>
        <time>2018-08-10T17:53:43Z</time>
      </trkpt>
      <trkpt lat="4.5822820" lon="-74.2235420">
        <ele>2557.0</ele>
        <time>2018-08-10T17:53:45Z</time>
      </trkpt>
      <trkpt lat="4.5822580" lon="-74.2235220">
        <ele>2557.0</ele>
        <time>2018-08-10T17:53:46Z</time>
      </trkpt>
      <trkpt lat="4.5822280" lon="-74.2234800">
        <ele>2556.9</ele>
        <time>2018-08-10T17:53:48Z</time>
      </trkpt>
      <trkpt lat="4.5822000" lon="-74.2234550">
        <ele>2556.8</ele>
        <time>2018-08-10T17:53:49Z</time>
      </trkpt>
      <trkpt lat="4.5821550" lon="-74.2234280">
        <ele>2556.7</ele>
        <time>2018-08-10T17:53:50Z</time>
      </trkpt>
      <trkpt lat="4.5821220" lon="-74.2234020">
        <ele>2556.6</ele>
        <time>2018-08-10T17:53:51Z</time>
      </trkpt>
      <trkpt lat="4.5820950" lon="-74.2233730">
        <ele>2556.5</ele>
        <time>2018-08-10T17:53:52Z</time>
      </trkpt>
      <trkpt lat="4.5820650" lon="-74.2233370">
        <ele>2556.4</ele>
        <time>2018-08-10T17:53:53Z</time>
      </trkpt>
      <trkpt lat="4.5820400" lon="-74.2233030">
        <ele>2556.4</ele>
        <time>2018-08-10T17:53:54Z</time>
      </trkpt>
      <trkpt lat="4.5820070" lon="-74.2232750">
        <ele>2556.3</ele>
        <time>2018-08-10T17:53:55Z</time>
      </trkpt>
      <trkpt lat="4.5819770" lon="-74.2232480">
        <ele>2556.2</ele>
        <time>2018-08-10T17:53:56Z</time>
      </trkpt>
      <trkpt lat="4.5819480" lon="-74.2232200">
        <ele>2556.1</ele>
        <time>2018-08-10T17:53:57Z</time>
      </trkpt>
      <trkpt lat="4.5819220" lon="-74.2231870">
        <ele>2556.0</ele>
        <time>2018-08-10T17:53:58Z</time>
      </trkpt>
      <trkpt lat="4.5818920" lon="-74.2231530">
        <ele>2555.9</ele>
        <time>2018-08-10T17:53:59Z</time>
      </trkpt>
      <trkpt lat="4.5818670" lon="-74.2231230">
        <ele>2555.9</ele>
        <time>2018-08-10T17:54:00Z</time>
      </trkpt>
      <trkpt lat="4.5818400" lon="-74.2230920">
        <ele>2555.8</ele>
        <time>2018-08-10T17:54:01Z</time>
      </trkpt>
      <trkpt lat="4.5818230" lon="-74.2230480">
        <ele>2555.7</ele>
        <time>2018-08-10T17:54:02Z</time>
      </trkpt>
      <trkpt lat="4.5818030" lon="-74.2229980">
        <ele>2555.4</ele>
        <time>2018-08-10T17:54:03Z</time>
      </trkpt>
      <trkpt lat="4.5817750" lon="-74.2229620">
        <ele>2555.2</ele>
        <time>2018-08-10T17:54:04Z</time>
      </trkpt>
      <trkpt lat="4.5817500" lon="-74.2229280">
        <ele>2555.1</ele>
        <time>2018-08-10T17:54:05Z</time>
      </trkpt>
      <trkpt lat="4.5817180" lon="-74.2228980">
        <ele>2555.3</ele>
        <time>2018-08-10T17:54:06Z</time>
      </trkpt>
      <trkpt lat="4.5816920" lon="-74.2228650">
        <ele>2555.5</ele>
        <time>2018-08-10T17:54:07Z</time>
      </trkpt>
      <trkpt lat="4.5816630" lon="-74.2228370">
        <ele>2555.7</ele>
        <time>2018-08-10T17:54:08Z</time>
      </trkpt>
      <trkpt lat="4.5816350" lon="-74.2228070">
        <ele>2555.9</ele>
        <time>2018-08-10T17:54:09Z</time>
      </trkpt>
      <trkpt lat="4.5816070" lon="-74.2227800">
        <ele>2556.1</ele>
        <time>2018-08-10T17:54:10Z</time>
      </trkpt>
      <trkpt lat="4.5815770" lon="-74.2227530">
        <ele>2556.3</ele>
        <time>2018-08-10T17:54:11Z</time>
      </trkpt>
      <trkpt lat="4.5815530" lon="-74.2227280">
        <ele>2556.4</ele>
        <time>2018-08-10T17:54:12Z</time>
      </trkpt>
      <trkpt lat="4.5815170" lon="-74.2227050">
        <ele>2556.6</ele>
        <time>2018-08-10T17:54:13Z</time>
      </trkpt>
      <trkpt lat="4.5814800" lon="-74.2226820">
        <ele>2556.8</ele>
        <time>2018-08-10T17:54:14Z</time>
      </trkpt>
      <trkpt lat="4.5814500" lon="-74.2226530">
        <ele>2557.0</ele>
        <time>2018-08-10T17:54:15Z</time>
      </trkpt>
      <trkpt lat="4.5814250" lon="-74.2226230">
        <ele>2556.9</ele>
        <time>2018-08-10T17:54:16Z</time>
      </trkpt>
      <trkpt lat="4.5813980" lon="-74.2225970">
        <ele>2556.8</ele>
        <time>2018-08-10T17:54:17Z</time>
      </trkpt>
      <trkpt lat="4.5813720" lon="-74.2225700">
        <ele>2556.7</ele>
        <time>2018-08-10T17:54:18Z</time>
      </trkpt>
      <trkpt lat="4.5813470" lon="-74.2225450">
        <ele>2556.6</ele>
        <time>2018-08-10T17:54:19Z</time>
      </trkpt>
      <trkpt lat="4.5813200" lon="-74.2225170">
        <ele>2556.5</ele>
        <time>2018-08-10T17:54:20Z</time>
      </trkpt>
      <trkpt lat="4.5812980" lon="-74.2224880">
        <ele>2556.4</ele>
        <time>2018-08-10T17:54:21Z</time>
      </trkpt>
      <trkpt lat="4.5812780" lon="-74.2224600">
        <ele>2556.3</ele>
        <time>2018-08-10T17:54:22Z</time>
      </trkpt>
      <trkpt lat="4.5812500" lon="-74.2224350">
        <ele>2556.2</ele>
        <time>2018-08-10T17:54:23Z</time>
      </trkpt>
      <trkpt lat="4.5812280" lon="-74.2224120">
        <ele>2556.1</ele>
        <time>2018-08-10T17:54:24Z</time>
      </trkpt>
      <trkpt lat="4.5812000" lon="-74.2223870">
        <ele>2556.0</ele>
        <time>2018-08-10T17:54:25Z</time>
      </trkpt>
      <trkpt lat="4.5811800" lon="-74.2223570">
        <ele>2555.9</ele>
        <time>2018-08-10T17:54:26Z</time>
      </trkpt>
      <trkpt lat="4.5811570" lon="-74.2223270">
        <ele>2555.8</ele>
        <time>2018-08-10T17:54:27Z</time>
      </trkpt>
      <trkpt lat="4.5811380" lon="-74.2223020">
        <ele>2555.7</ele>
        <time>2018-08-10T17:54:28Z</time>
      </trkpt>
      <trkpt lat="4.5811150" lon="-74.2222520">
        <ele>2555.6</ele>
        <time>2018-08-10T17:54:30Z</time>
      </trkpt>
      <trkpt lat="4.5811030" lon="-74.2222230">
        <ele>2555.5</ele>
        <time>2018-08-10T17:54:31Z</time>
      </trkpt>
      <trkpt lat="4.5810580" lon="-74.2221820">
        <ele>2555.3</ele>
        <time>2018-08-10T17:54:32Z</time>
      </trkpt>
      <trkpt lat="4.5810450" lon="-74.2221470">
        <ele>2555.2</ele>
        <time>2018-08-10T17:54:33Z</time>
      </trkpt>
      <trkpt lat="4.5810330" lon="-74.2221050">
        <ele>2555.1</ele>
        <time>2018-08-10T17:54:34Z</time>
      </trkpt>
      <trkpt lat="4.5810230" lon="-74.2220730">
        <ele>2555.1</ele>
        <time>2018-08-10T17:54:35Z</time>
      </trkpt>
      <trkpt lat="4.5810100" lon="-74.2220430">
        <ele>2555.0</ele>
        <time>2018-08-10T17:54:36Z</time>
      </trkpt>
      <trkpt lat="4.5809850" lon="-74.2220120">
        <ele>2554.9</ele>
        <time>2018-08-10T17:54:37Z</time>
      </trkpt>
      <trkpt lat="4.5809470" lon="-74.2219820">
        <ele>2554.8</ele>
        <time>2018-08-10T17:54:38Z</time>
      </trkpt>
      <trkpt lat="4.5809250" lon="-74.2219550">
        <ele>2554.8</ele>
        <time>2018-08-10T17:54:39Z</time>
      </trkpt>
      <trkpt lat="4.5809150" lon="-74.2219220">
        <ele>2554.7</ele>
        <time>2018-08-10T17:54:40Z</time>
      </trkpt>
      <trkpt lat="4.5809020" lon="-74.2218900">
        <ele>2554.6</ele>
        <time>2018-08-10T17:54:41Z</time>
      </trkpt>
      <trkpt lat="4.5808850" lon="-74.2218570">
        <ele>2554.5</ele>
        <time>2018-08-10T17:54:42Z</time>
      </trkpt>
      <trkpt lat="4.5808650" lon="-74.2218280">
        <ele>2554.5</ele>
        <time>2018-08-10T17:54:43Z</time>
      </trkpt>
      <trkpt lat="4.5808480" lon="-74.2218050">
        <ele>2554.4</ele>
        <time>2018-08-10T17:54:44Z</time>
      </trkpt>
      <trkpt lat="4.5808200" lon="-74.2217850">
        <ele>2554.3</ele>
        <time>2018-08-10T17:54:45Z</time>
      </trkpt>
      <trkpt lat="4.5807880" lon="-74.2217820">
        <ele>2554.3</ele>
        <time>2018-08-10T17:54:46Z</time>
      </trkpt>
      <trkpt lat="4.5807500" lon="-74.2217820">
        <ele>2554.2</ele>
        <time>2018-08-10T17:54:47Z</time>
      </trkpt>
      <trkpt lat="4.5807030" lon="-74.2217820">
        <ele>2555.0</ele>
        <time>2018-08-10T17:54:48Z</time>
      </trkpt>
      <trkpt lat="4.5806550" lon="-74.2217870">
        <ele>2556.5</ele>
        <time>2018-08-10T17:54:49Z</time>
      </trkpt>
      <trkpt lat="4.5806080" lon="-74.2217900">
        <ele>2556.6</ele>
        <time>2018-08-10T17:54:50Z</time>
      </trkpt>
      <trkpt lat="4.5805570" lon="-74.2217880">
        <ele>2556.7</ele>
        <time>2018-08-10T17:54:51Z</time>
      </trkpt>
      <trkpt lat="4.5805100" lon="-74.2217970">
        <ele>2556.8</ele>
        <time>2018-08-10T17:54:52Z</time>
      </trkpt>
      <trkpt lat="4.5804620" lon="-74.2218070">
        <ele>2557.0</ele>
        <time>2018-08-10T17:54:53Z</time>
      </trkpt>
      <trkpt lat="4.5804170" lon="-74.2218220">
        <ele>2557.1</ele>
        <time>2018-08-10T17:54:54Z</time>
      </trkpt>
      <trkpt lat="4.5803700" lon="-74.2218300">
        <ele>2557.2</ele>
        <time>2018-08-10T17:54:55Z</time>
      </trkpt>
      <trkpt lat="4.5803280" lon="-74.2218370">
        <ele>2557.2</ele>
        <time>2018-08-10T17:54:56Z</time>
      </trkpt>
      <trkpt lat="4.5802870" lon="-74.2218400">
        <ele>2557.3</ele>
        <time>2018-08-10T17:54:57Z</time>
      </trkpt>
      <trkpt lat="4.5802450" lon="-74.2218480">
        <ele>2557.4</ele>
        <time>2018-08-10T17:54:58Z</time>
      </trkpt>
      <trkpt lat="4.5802070" lon="-74.2218630">
        <ele>2557.5</ele>
        <time>2018-08-10T17:54:59Z</time>
      </trkpt>
      <trkpt lat="4.5801680" lon="-74.2218770">
        <ele>2557.6</ele>
        <time>2018-08-10T17:55:00Z</time>
      </trkpt>
      <trkpt lat="4.5801300" lon="-74.2218930">
        <ele>2557.7</ele>
        <time>2018-08-10T17:55:01Z</time>
      </trkpt>
      <trkpt lat="4.5800880" lon="-74.2219020">
        <ele>2557.8</ele>
        <time>2018-08-10T17:55:02Z</time>
      </trkpt>
      <trkpt lat="4.5800600" lon="-74.2218930">
        <ele>2557.9</ele>
        <time>2018-08-10T17:55:03Z</time>
      </trkpt>
      <trkpt lat="4.5800170" lon="-74.2219070">
        <ele>2558.0</ele>
        <time>2018-08-10T17:55:04Z</time>
      </trkpt>
      <trkpt lat="4.5799670" lon="-74.2219100">
        <ele>2558.2</ele>
        <time>2018-08-10T17:55:05Z</time>
      </trkpt>
      <trkpt lat="4.5799230" lon="-74.2219180">
        <ele>2558.3</ele>
        <time>2018-08-10T17:55:06Z</time>
      </trkpt>
      <trkpt lat="4.5798830" lon="-74.2219380">
        <ele>2558.4</ele>
        <time>2018-08-10T17:55:07Z</time>
      </trkpt>
      <trkpt lat="4.5798450" lon="-74.2219450">
        <ele>2558.6</ele>
        <time>2018-08-10T17:55:08Z</time>
      </trkpt>
      <trkpt lat="4.5798050" lon="-74.2219450">
        <ele>2558.7</ele>
        <time>2018-08-10T17:55:09Z</time>
      </trkpt>
      <trkpt lat="4.5797730" lon="-74.2219430">
        <ele>2558.8</ele>
        <time>2018-08-10T17:55:10Z</time>
      </trkpt>
      <trkpt lat="4.5798000" lon="-74.2219100">
        <ele>2559.0</ele>
        <time>2018-08-10T17:55:16Z</time>
      </trkpt>
      <trkpt lat="4.5798120" lon="-74.2218830">
        <ele>2559.0</ele>
        <time>2018-08-10T17:55:17Z</time>
      </trkpt>
      <trkpt lat="4.5798230" lon="-74.2218570">
        <ele>2559.0</ele>
        <time>2018-08-10T17:55:18Z</time>
      </trkpt>
      <trkpt lat="4.5798480" lon="-74.2218070">
        <ele>2559.0</ele>
        <time>2018-08-10T17:55:20Z</time>
      </trkpt>
      <trkpt lat="4.5798580" lon="-74.2217770">
        <ele>2559.0</ele>
        <time>2018-08-10T17:55:21Z</time>
      </trkpt>
      <trkpt lat="4.5798750" lon="-74.2217380">
        <ele>2559.0</ele>
        <time>2018-08-10T17:55:22Z</time>
      </trkpt>
      <trkpt lat="4.5798870" lon="-74.2217050">
        <ele>2558.5</ele>
        <time>2018-08-10T17:55:23Z</time>
      </trkpt>
      <trkpt lat="4.5798780" lon="-74.2216430">
        <ele>2557.4</ele>
        <time>2018-08-10T17:55:24Z</time>
      </trkpt>
      <trkpt lat="4.5798780" lon="-74.2216030">
        <ele>2557.2</ele>
        <time>2018-08-10T17:55:25Z</time>
      </trkpt>
      <trkpt lat="4.5798820" lon="-74.2215680">
        <ele>2557.2</ele>
        <time>2018-08-10T17:55:26Z</time>
      </trkpt>
      <trkpt lat="4.5798880" lon="-74.2215330">
        <ele>2557.1</ele>
        <time>2018-08-10T17:55:27Z</time>
      </trkpt>
      <trkpt lat="4.5798980" lon="-74.2214800">
        <ele>2557.0</ele>
        <time>2018-08-10T17:55:29Z</time>
      </trkpt>
      <trkpt lat="4.5799150" lon="-74.2214530">
        <ele>2557.0</ele>
        <time>2018-08-10T17:55:30Z</time>
      </trkpt>
      <trkpt lat="4.5799370" lon="-74.2214120">
        <ele>2557.0</ele>
        <time>2018-08-10T17:55:32Z</time>
      </trkpt>
      <trkpt lat="4.5799530" lon="-74.2213630">
        <ele>2557.0</ele>
        <time>2018-08-10T17:55:34Z</time>
      </trkpt>
      <trkpt lat="4.5799580" lon="-74.2213300">
        <ele>2557.0</ele>
        <time>2018-08-10T17:55:35Z</time>
      </trkpt>
      <trkpt lat="4.5799600" lon="-74.2212930">
        <ele>2557.0</ele>
        <time>2018-08-10T17:55:36Z</time>
      </trkpt>
      <trkpt lat="4.5799630" lon="-74.2212620">
        <ele>2557.0</ele>
        <time>2018-08-10T17:55:37Z</time>
      </trkpt>
      <trkpt lat="4.5799830" lon="-74.2212300">
        <ele>2557.0</ele>
        <time>2018-08-10T17:55:39Z</time>
      </trkpt>
      <trkpt lat="4.5799950" lon="-74.2211930">
        <ele>2556.9</ele>
        <time>2018-08-10T17:55:41Z</time>
      </trkpt>
      <trkpt lat="4.5800080" lon="-74.2211550">
        <ele>2557.1</ele>
        <time>2018-08-10T17:55:43Z</time>
      </trkpt>
      <trkpt lat="4.5800100" lon="-74.2211130">
        <ele>2557.3</ele>
        <time>2018-08-10T17:55:45Z</time>
      </trkpt>
      <trkpt lat="4.5800280" lon="-74.2210730">
        <ele>2557.5</ele>
        <time>2018-08-10T17:55:47Z</time>
      </trkpt>
      <trkpt lat="4.5799570" lon="-74.2210080">
        <ele>2558.2</ele>
        <time>2018-08-10T17:55:48Z</time>
      </trkpt>
      <trkpt lat="4.5799400" lon="-74.2209750">
        <ele>2558.7</ele>
        <time>2018-08-10T17:55:50Z</time>
      </trkpt>
      <trkpt lat="4.5800080" lon="-74.2207920">
        <ele>2560.8</ele>
        <time>2018-08-10T17:56:02Z</time>
      </trkpt>
      <trkpt lat="4.5800070" lon="-74.2207600">
        <ele>2561.0</ele>
        <time>2018-08-10T17:56:03Z</time>
      </trkpt>
      <trkpt lat="4.5800100" lon="-74.2207280">
        <ele>2561.0</ele>
        <time>2018-08-10T17:56:04Z</time>
      </trkpt>
      <trkpt lat="4.5800100" lon="-74.2206830">
        <ele>2561.1</ele>
        <time>2018-08-10T17:56:05Z</time>
      </trkpt>
      <trkpt lat="4.5800180" lon="-74.2206520">
        <ele>2561.5</ele>
        <time>2018-08-10T17:56:06Z</time>
      </trkpt>
      <trkpt lat="4.5800320" lon="-74.2206250">
        <ele>2561.8</ele>
        <time>2018-08-10T17:56:07Z</time>
      </trkpt>
      <trkpt lat="4.5800550" lon="-74.2205830">
        <ele>2562.3</ele>
        <time>2018-08-10T17:56:09Z</time>
      </trkpt>
      <trkpt lat="4.5800730" lon="-74.2205530">
        <ele>2562.7</ele>
        <time>2018-08-10T17:56:10Z</time>
      </trkpt>
      <trkpt lat="4.5801180" lon="-74.2205080">
        <ele>2563.0</ele>
        <time>2018-08-10T17:56:12Z</time>
      </trkpt>
      <trkpt lat="4.5801270" lon="-74.2204580">
        <ele>2563.1</ele>
        <time>2018-08-10T17:56:13Z</time>
      </trkpt>
      <trkpt lat="4.5801480" lon="-74.2204270">
        <ele>2563.1</ele>
        <time>2018-08-10T17:56:14Z</time>
      </trkpt>
      <trkpt lat="4.5801630" lon="-74.2203980">
        <ele>2563.0</ele>
        <time>2018-08-10T17:56:15Z</time>
      </trkpt>
      <trkpt lat="4.5801770" lon="-74.2203720">
        <ele>2563.0</ele>
        <time>2018-08-10T17:56:16Z</time>
      </trkpt>
      <trkpt lat="4.5801930" lon="-74.2203420">
        <ele>2563.0</ele>
        <time>2018-08-10T17:56:17Z</time>
      </trkpt>
      <trkpt lat="4.5802080" lon="-74.2203130">
        <ele>2563.0</ele>
        <time>2018-08-10T17:56:18Z</time>
      </trkpt>
      <trkpt lat="4.5802280" lon="-74.2202820">
        <ele>2563.1</ele>
        <time>2018-08-10T17:56:19Z</time>
      </trkpt>
      <trkpt lat="4.5802430" lon="-74.2202580">
        <ele>2563.1</ele>
        <time>2018-08-10T17:56:20Z</time>
      </trkpt>
      <trkpt lat="4.5802630" lon="-74.2202070">
        <ele>2563.2</ele>
        <time>2018-08-10T17:56:22Z</time>
      </trkpt>
      <trkpt lat="4.5802780" lon="-74.2201650">
        <ele>2563.2</ele>
        <time>2018-08-10T17:56:24Z</time>
      </trkpt>
      <trkpt lat="4.5802970" lon="-74.2201120">
        <ele>2563.1</ele>
        <time>2018-08-10T17:56:26Z</time>
      </trkpt>
      <trkpt lat="4.5803030" lon="-74.2200830">
        <ele>2563.0</ele>
        <time>2018-08-10T17:56:27Z</time>
      </trkpt>
      <trkpt lat="4.5803180" lon="-74.2200600">
        <ele>2562.9</ele>
        <time>2018-08-10T17:56:28Z</time>
      </trkpt>
      <trkpt lat="4.5803420" lon="-74.2200350">
        <ele>2562.9</ele>
        <time>2018-08-10T17:56:29Z</time>
      </trkpt>
      <trkpt lat="4.5803730" lon="-74.2200070">
        <ele>2562.9</ele>
        <time>2018-08-10T17:56:30Z</time>
      </trkpt>
      <trkpt lat="4.5804000" lon="-74.2199720">
        <ele>2563.0</ele>
        <time>2018-08-10T17:56:31Z</time>
      </trkpt>
      <trkpt lat="4.5804230" lon="-74.2198920">
        <ele>2563.0</ele>
        <time>2018-08-10T17:56:32Z</time>
      </trkpt>
      <trkpt lat="4.5804370" lon="-74.2198600">
        <ele>2563.3</ele>
        <time>2018-08-10T17:56:33Z</time>
      </trkpt>
      <trkpt lat="4.5804600" lon="-74.2198030">
        <ele>2563.7</ele>
        <time>2018-08-10T17:56:34Z</time>
      </trkpt>
      <trkpt lat="4.5804680" lon="-74.2197680">
        <ele>2563.6</ele>
        <time>2018-08-10T17:56:35Z</time>
      </trkpt>
      <trkpt lat="4.5804820" lon="-74.2197320">
        <ele>2563.5</ele>
        <time>2018-08-10T17:56:36Z</time>
      </trkpt>
      <trkpt lat="4.5804900" lon="-74.2196970">
        <ele>2563.4</ele>
        <time>2018-08-10T17:56:37Z</time>
      </trkpt>
      <trkpt lat="4.5805000" lon="-74.2196630">
        <ele>2563.3</ele>
        <time>2018-08-10T17:56:38Z</time>
      </trkpt>
      <trkpt lat="4.5805080" lon="-74.2196320">
        <ele>2563.3</ele>
        <time>2018-08-10T17:56:39Z</time>
      </trkpt>
      <trkpt lat="4.5805170" lon="-74.2195980">
        <ele>2563.3</ele>
        <time>2018-08-10T17:56:40Z</time>
      </trkpt>
      <trkpt lat="4.5805270" lon="-74.2195630">
        <ele>2563.4</ele>
        <time>2018-08-10T17:56:41Z</time>
      </trkpt>
      <trkpt lat="4.5805300" lon="-74.2195250">
        <ele>2563.6</ele>
        <time>2018-08-10T17:56:42Z</time>
      </trkpt>
      <trkpt lat="4.5805380" lon="-74.2194850">
        <ele>2563.8</ele>
        <time>2018-08-10T17:56:43Z</time>
      </trkpt>
      <trkpt lat="4.5805450" lon="-74.2194480">
        <ele>2564.1</ele>
        <time>2018-08-10T17:56:44Z</time>
      </trkpt>
      <trkpt lat="4.5805500" lon="-74.2194100">
        <ele>2564.1</ele>
        <time>2018-08-10T17:56:45Z</time>
      </trkpt>
      <trkpt lat="4.5805600" lon="-74.2193780">
        <ele>2564.1</ele>
        <time>2018-08-10T17:56:46Z</time>
      </trkpt>
      <trkpt lat="4.5805680" lon="-74.2193450">
        <ele>2564.0</ele>
        <time>2018-08-10T17:56:47Z</time>
      </trkpt>
      <trkpt lat="4.5805720" lon="-74.2193080">
        <ele>2564.0</ele>
        <time>2018-08-10T17:56:48Z</time>
      </trkpt>
      <trkpt lat="4.5805850" lon="-74.2192730">
        <ele>2563.9</ele>
        <time>2018-08-10T17:56:49Z</time>
      </trkpt>
      <trkpt lat="4.5806020" lon="-74.2192400">
        <ele>2563.8</ele>
        <time>2018-08-10T17:56:50Z</time>
      </trkpt>
      <trkpt lat="4.5806130" lon="-74.2192020">
        <ele>2563.7</ele>
        <time>2018-08-10T17:56:51Z</time>
      </trkpt>
      <trkpt lat="4.5806200" lon="-74.2191670">
        <ele>2563.7</ele>
        <time>2018-08-10T17:56:52Z</time>
      </trkpt>
      <trkpt lat="4.5806350" lon="-74.2191370">
        <ele>2563.6</ele>
        <time>2018-08-10T17:56:53Z</time>
      </trkpt>
      <trkpt lat="4.5806370" lon="-74.2191070">
        <ele>2563.6</ele>
        <time>2018-08-10T17:56:54Z</time>
      </trkpt>
      <trkpt lat="4.5806400" lon="-74.2190780">
        <ele>2563.5</ele>
        <time>2018-08-10T17:56:55Z</time>
      </trkpt>
      <trkpt lat="4.5806230" lon="-74.2190250">
        <ele>2563.4</ele>
        <time>2018-08-10T17:56:56Z</time>
      </trkpt>
      <trkpt lat="4.5806350" lon="-74.2190000">
        <ele>2563.4</ele>
        <time>2018-08-10T17:56:57Z</time>
      </trkpt>
      <trkpt lat="4.5806550" lon="-74.2189530">
        <ele>2563.2</ele>
        <time>2018-08-10T17:56:59Z</time>
      </trkpt>
      <trkpt lat="4.5806700" lon="-74.2189280">
        <ele>2563.2</ele>
        <time>2018-08-10T17:57:00Z</time>
      </trkpt>
      <trkpt lat="4.5806920" lon="-74.2189020">
        <ele>2563.1</ele>
        <time>2018-08-10T17:57:01Z</time>
      </trkpt>
      <trkpt lat="4.5807100" lon="-74.2188700">
        <ele>2563.1</ele>
        <time>2018-08-10T17:57:02Z</time>
      </trkpt>
      <trkpt lat="4.5807720" lon="-74.2188100">
        <ele>2563.0</ele>
        <time>2018-08-10T17:57:03Z</time>
      </trkpt>
      <trkpt lat="4.5807900" lon="-74.2187720">
        <ele>2563.0</ele>
        <time>2018-08-10T17:57:04Z</time>
      </trkpt>
      <trkpt lat="4.5808030" lon="-74.2187400">
        <ele>2563.0</ele>
        <time>2018-08-10T17:57:05Z</time>
      </trkpt>
      <trkpt lat="4.5808330" lon="-74.2186970">
        <ele>2563.0</ele>
        <time>2018-08-10T17:57:06Z</time>
      </trkpt>
      <trkpt lat="4.5808430" lon="-74.2186670">
        <ele>2563.1</ele>
        <time>2018-08-10T17:57:07Z</time>
      </trkpt>
      <trkpt lat="4.5808350" lon="-74.2186200">
        <ele>2563.1</ele>
        <time>2018-08-10T17:57:08Z</time>
      </trkpt>
      <trkpt lat="4.5808380" lon="-74.2185870">
        <ele>2563.0</ele>
        <time>2018-08-10T17:57:09Z</time>
      </trkpt>
      <trkpt lat="4.5808480" lon="-74.2185550">
        <ele>2562.8</ele>
        <time>2018-08-10T17:57:10Z</time>
      </trkpt>
      <trkpt lat="4.5808600" lon="-74.2185220">
        <ele>2562.8</ele>
        <time>2018-08-10T17:57:11Z</time>
      </trkpt>
      <trkpt lat="4.5808720" lon="-74.2184900">
        <ele>2562.8</ele>
        <time>2018-08-10T17:57:12Z</time>
      </trkpt>
      <trkpt lat="4.5808820" lon="-74.2184530">
        <ele>2562.7</ele>
        <time>2018-08-10T17:57:13Z</time>
      </trkpt>
      <trkpt lat="4.5808870" lon="-74.2184130">
        <ele>2562.5</ele>
        <time>2018-08-10T17:57:14Z</time>
      </trkpt>
      <trkpt lat="4.5808950" lon="-74.2183700">
        <ele>2562.5</ele>
        <time>2018-08-10T17:57:15Z</time>
      </trkpt>
      <trkpt lat="4.5809020" lon="-74.2183200">
        <ele>2562.5</ele>
        <time>2018-08-10T17:57:16Z</time>
      </trkpt>
      <trkpt lat="4.5809070" lon="-74.2182850">
        <ele>2562.6</ele>
        <time>2018-08-10T17:57:17Z</time>
      </trkpt>
      <trkpt lat="4.5809130" lon="-74.2182550">
        <ele>2562.7</ele>
        <time>2018-08-10T17:57:18Z</time>
      </trkpt>
      <trkpt lat="4.5809230" lon="-74.2182280">
        <ele>2562.8</ele>
        <time>2018-08-10T17:57:19Z</time>
      </trkpt>
      <trkpt lat="4.5809380" lon="-74.2182030">
        <ele>2562.8</ele>
        <time>2018-08-10T17:57:20Z</time>
      </trkpt>
      <trkpt lat="4.5809530" lon="-74.2181770">
        <ele>2562.9</ele>
        <time>2018-08-10T17:57:21Z</time>
      </trkpt>
      <trkpt lat="4.5809520" lon="-74.2181180">
        <ele>2563.0</ele>
        <time>2018-08-10T17:57:23Z</time>
      </trkpt>
      <trkpt lat="4.5809480" lon="-74.2180870">
        <ele>2563.0</ele>
        <time>2018-08-10T17:57:24Z</time>
      </trkpt>
      <trkpt lat="4.5809570" lon="-74.2180380">
        <ele>2563.0</ele>
        <time>2018-08-10T17:57:26Z</time>
      </trkpt>
      <trkpt lat="4.5809730" lon="-74.2179770">
        <ele>2563.0</ele>
        <time>2018-08-10T17:57:27Z</time>
      </trkpt>
      <trkpt lat="4.5809870" lon="-74.2179500">
        <ele>2563.0</ele>
        <time>2018-08-10T17:57:28Z</time>
      </trkpt>
      <trkpt lat="4.5810050" lon="-74.2179030">
        <ele>2563.0</ele>
        <time>2018-08-10T17:57:30Z</time>
      </trkpt>
      <trkpt lat="4.5810180" lon="-74.2178420">
        <ele>2563.0</ele>
        <time>2018-08-10T17:57:32Z</time>
      </trkpt>
      <trkpt lat="4.5810500" lon="-74.2177980">
        <ele>2563.1</ele>
        <time>2018-08-10T17:57:34Z</time>
      </trkpt>
      <trkpt lat="4.5810730" lon="-74.2177550">
        <ele>2563.2</ele>
        <time>2018-08-10T17:57:36Z</time>
      </trkpt>
      <trkpt lat="4.5810780" lon="-74.2177270">
        <ele>2563.2</ele>
        <time>2018-08-10T17:57:37Z</time>
      </trkpt>
      <trkpt lat="4.5810800" lon="-74.2176980">
        <ele>2563.1</ele>
        <time>2018-08-10T17:57:38Z</time>
      </trkpt>
      <trkpt lat="4.5810850" lon="-74.2176500">
        <ele>2563.1</ele>
        <time>2018-08-10T17:57:40Z</time>
      </trkpt>
      <trkpt lat="4.5810900" lon="-74.2176070">
        <ele>2563.1</ele>
        <time>2018-08-10T17:57:42Z</time>
      </trkpt>
      <trkpt lat="4.5811050" lon="-74.2175570">
        <ele>2563.2</ele>
        <time>2018-08-10T17:57:44Z</time>
      </trkpt>
      <trkpt lat="4.5811130" lon="-74.2175230">
        <ele>2563.3</ele>
        <time>2018-08-10T17:57:45Z</time>
      </trkpt>
      <trkpt lat="4.5811250" lon="-74.2174950">
        <ele>2563.4</ele>
        <time>2018-08-10T17:57:46Z</time>
      </trkpt>
      <trkpt lat="4.5811420" lon="-74.2174680">
        <ele>2563.5</ele>
        <time>2018-08-10T17:57:47Z</time>
      </trkpt>
      <trkpt lat="4.5811550" lon="-74.2174430">
        <ele>2563.5</ele>
        <time>2018-08-10T17:57:48Z</time>
      </trkpt>
      <trkpt lat="4.5811830" lon="-74.2173920">
        <ele>2563.5</ele>
        <time>2018-08-10T17:57:50Z</time>
      </trkpt>
      <trkpt lat="4.5811920" lon="-74.2173600">
        <ele>2563.5</ele>
        <time>2018-08-10T17:57:51Z</time>
      </trkpt>
      <trkpt lat="4.5812030" lon="-74.2173080">
        <ele>2563.5</ele>
        <time>2018-08-10T17:57:53Z</time>
      </trkpt>
      <trkpt lat="4.5811950" lon="-74.2172620">
        <ele>2563.5</ele>
        <time>2018-08-10T17:57:55Z</time>
      </trkpt>
      <trkpt lat="4.5811720" lon="-74.2171900">
        <ele>2563.5</ele>
        <time>2018-08-10T17:57:57Z</time>
      </trkpt>
      <trkpt lat="4.5811450" lon="-74.2171780">
        <ele>2563.5</ele>
        <time>2018-08-10T17:57:58Z</time>
      </trkpt>
      <trkpt lat="4.5811200" lon="-74.2171620">
        <ele>2563.4</ele>
        <time>2018-08-10T17:57:59Z</time>
      </trkpt>
      <trkpt lat="4.5810920" lon="-74.2171400">
        <ele>2563.3</ele>
        <time>2018-08-10T17:58:00Z</time>
      </trkpt>
      <trkpt lat="4.5810650" lon="-74.2171280">
        <ele>2563.3</ele>
        <time>2018-08-10T17:58:01Z</time>
      </trkpt>
      <trkpt lat="4.5810200" lon="-74.2170950">
        <ele>2563.0</ele>
        <time>2018-08-10T17:58:03Z</time>
      </trkpt>
      <trkpt lat="4.5809920" lon="-74.2170770">
        <ele>2563.0</ele>
        <time>2018-08-10T17:58:04Z</time>
      </trkpt>
      <trkpt lat="4.5809650" lon="-74.2170030">
        <ele>2563.0</ele>
        <time>2018-08-10T17:58:06Z</time>
      </trkpt>
      <trkpt lat="4.5809400" lon="-74.2169870">
        <ele>2563.0</ele>
        <time>2018-08-10T17:58:07Z</time>
      </trkpt>
      <trkpt lat="4.5809150" lon="-74.2169730">
        <ele>2563.0</ele>
        <time>2018-08-10T17:58:08Z</time>
      </trkpt>
      <trkpt lat="4.5808880" lon="-74.2169630">
        <ele>2563.0</ele>
        <time>2018-08-10T17:58:09Z</time>
      </trkpt>
      <trkpt lat="4.5808330" lon="-74.2169500">
        <ele>2563.0</ele>
        <time>2018-08-10T17:58:11Z</time>
      </trkpt>
      <trkpt lat="4.5808030" lon="-74.2169470">
        <ele>2563.1</ele>
        <time>2018-08-10T17:58:12Z</time>
      </trkpt>
      <trkpt lat="4.5807750" lon="-74.2169400">
        <ele>2563.1</ele>
        <time>2018-08-10T17:58:13Z</time>
      </trkpt>
      <trkpt lat="4.5807430" lon="-74.2169350">
        <ele>2563.2</ele>
        <time>2018-08-10T17:58:14Z</time>
      </trkpt>
      <trkpt lat="4.5807030" lon="-74.2169250">
        <ele>2563.0</ele>
        <time>2018-08-10T17:58:15Z</time>
      </trkpt>
      <trkpt lat="4.5806620" lon="-74.2169150">
        <ele>2563.0</ele>
        <time>2018-08-10T17:58:16Z</time>
      </trkpt>
      <trkpt lat="4.5806270" lon="-74.2169030">
        <ele>2563.1</ele>
        <time>2018-08-10T17:58:17Z</time>
      </trkpt>
      <trkpt lat="4.5805980" lon="-74.2168920">
        <ele>2563.2</ele>
        <time>2018-08-10T17:58:18Z</time>
      </trkpt>
      <trkpt lat="4.5805430" lon="-74.2168750">
        <ele>2563.2</ele>
        <time>2018-08-10T17:58:20Z</time>
      </trkpt>
      <trkpt lat="4.5805170" lon="-74.2168630">
        <ele>2563.3</ele>
        <time>2018-08-10T17:58:21Z</time>
      </trkpt>
      <trkpt lat="4.5804900" lon="-74.2168530">
        <ele>2563.4</ele>
        <time>2018-08-10T17:58:22Z</time>
      </trkpt>
      <trkpt lat="4.5804580" lon="-74.2168330">
        <ele>2563.6</ele>
        <time>2018-08-10T17:58:24Z</time>
      </trkpt>
      <trkpt lat="4.5804170" lon="-74.2168050">
        <ele>2563.8</ele>
        <time>2018-08-10T17:58:26Z</time>
      </trkpt>
      <trkpt lat="4.5803720" lon="-74.2167850">
        <ele>2564.0</ele>
        <time>2018-08-10T17:58:28Z</time>
      </trkpt>
      <trkpt lat="4.5803350" lon="-74.2167800">
        <ele>2564.0</ele>
        <time>2018-08-10T17:58:30Z</time>
      </trkpt>
      <trkpt lat="4.5802970" lon="-74.2167720">
        <ele>2564.0</ele>
        <time>2018-08-10T17:58:32Z</time>
      </trkpt>
      <trkpt lat="4.5802670" lon="-74.2167520">
        <ele>2564.0</ele>
        <time>2018-08-10T17:58:34Z</time>
      </trkpt>
      <trkpt lat="4.5802300" lon="-74.2167380">
        <ele>2564.0</ele>
        <time>2018-08-10T17:58:36Z</time>
      </trkpt>
      <trkpt lat="4.5802050" lon="-74.2167250">
        <ele>2564.0</ele>
        <time>2018-08-10T17:58:37Z</time>
      </trkpt>
      <trkpt lat="4.5801770" lon="-74.2167380">
        <ele>2564.0</ele>
        <time>2018-08-10T17:58:40Z</time>
      </trkpt>
      <trkpt lat="4.5799800" lon="-74.2167500">
        <ele>2565.4</ele>
        <time>2018-08-10T17:59:22Z</time>
      </trkpt>
      <trkpt lat="4.5798930" lon="-74.2167280">
        <ele>2566.0</ele>
        <time>2018-08-10T17:59:35Z</time>
      </trkpt>
      <trkpt lat="4.5798600" lon="-74.2167180">
        <ele>2566.0</ele>
        <time>2018-08-10T17:59:38Z</time>
      </trkpt>
      <trkpt lat="4.5798320" lon="-74.2166950">
        <ele>2566.0</ele>
        <time>2018-08-10T17:59:40Z</time>
      </trkpt>
      <trkpt lat="4.5797980" lon="-74.2166720">
        <ele>2565.9</ele>
        <time>2018-08-10T17:59:42Z</time>
      </trkpt>
      <trkpt lat="4.5797670" lon="-74.2166420">
        <ele>2565.8</ele>
        <time>2018-08-10T17:59:44Z</time>
      </trkpt>
      <trkpt lat="4.5797350" lon="-74.2166180">
        <ele>2565.6</ele>
        <time>2018-08-10T17:59:46Z</time>
      </trkpt>
      <trkpt lat="4.5796950" lon="-74.2165880">
        <ele>2565.5</ele>
        <time>2018-08-10T17:59:48Z</time>
      </trkpt>
      <trkpt lat="4.5796520" lon="-74.2165620">
        <ele>2565.5</ele>
        <time>2018-08-10T17:59:50Z</time>
      </trkpt>
      <trkpt lat="4.5796280" lon="-74.2165450">
        <ele>2565.4</ele>
        <time>2018-08-10T17:59:51Z</time>
      </trkpt>
      <trkpt lat="4.5796070" lon="-74.2165280">
        <ele>2565.4</ele>
        <time>2018-08-10T17:59:52Z</time>
      </trkpt>
      <trkpt lat="4.5795830" lon="-74.2165130">
        <ele>2565.3</ele>
        <time>2018-08-10T17:59:53Z</time>
      </trkpt>
      <trkpt lat="4.5795580" lon="-74.2164970">
        <ele>2565.2</ele>
        <time>2018-08-10T17:59:54Z</time>
      </trkpt>
      <trkpt lat="4.5795230" lon="-74.2164750">
        <ele>2565.0</ele>
        <time>2018-08-10T17:59:56Z</time>
      </trkpt>
      <trkpt lat="4.5794930" lon="-74.2164630">
        <ele>2564.9</ele>
        <time>2018-08-10T17:59:58Z</time>
      </trkpt>
      <trkpt lat="4.5794700" lon="-74.2164400">
        <ele>2564.8</ele>
        <time>2018-08-10T18:00:00Z</time>
      </trkpt>
      <trkpt lat="4.5794470" lon="-74.2164150">
        <ele>2564.7</ele>
        <time>2018-08-10T18:00:02Z</time>
      </trkpt>
      <trkpt lat="4.5794030" lon="-74.2163850">
        <ele>2564.8</ele>
        <time>2018-08-10T18:00:04Z</time>
      </trkpt>
      <trkpt lat="4.5793650" lon="-74.2163730">
        <ele>2564.9</ele>
        <time>2018-08-10T18:00:05Z</time>
      </trkpt>
      <trkpt lat="4.5793230" lon="-74.2163380">
        <ele>2564.9</ele>
        <time>2018-08-10T18:00:07Z</time>
      </trkpt>
      <trkpt lat="4.5792970" lon="-74.2163200">
        <ele>2565.0</ele>
        <time>2018-08-10T18:00:08Z</time>
      </trkpt>
      <trkpt lat="4.5792750" lon="-74.2163000">
        <ele>2565.0</ele>
        <time>2018-08-10T18:00:09Z</time>
      </trkpt>
      <trkpt lat="4.5792500" lon="-74.2162830">
        <ele>2565.0</ele>
        <time>2018-08-10T18:00:10Z</time>
      </trkpt>
      <trkpt lat="4.5792280" lon="-74.2162630">
        <ele>2565.0</ele>
        <time>2018-08-10T18:00:11Z</time>
      </trkpt>
      <trkpt lat="4.5791930" lon="-74.2162280">
        <ele>2565.4</ele>
        <time>2018-08-10T18:00:13Z</time>
      </trkpt>
      <trkpt lat="4.5791550" lon="-74.2161930">
        <ele>2565.7</ele>
        <time>2018-08-10T18:00:15Z</time>
      </trkpt>
      <trkpt lat="4.5791200" lon="-74.2161580">
        <ele>2565.9</ele>
        <time>2018-08-10T18:00:17Z</time>
      </trkpt>
      <trkpt lat="4.5790780" lon="-74.2161300">
        <ele>2566.0</ele>
        <time>2018-08-10T18:00:19Z</time>
      </trkpt>
      <trkpt lat="4.5790430" lon="-74.2160980">
        <ele>2566.0</ele>
        <time>2018-08-10T18:00:21Z</time>
      </trkpt>
      <trkpt lat="4.5790170" lon="-74.2160750">
        <ele>2566.0</ele>
        <time>2018-08-10T18:00:23Z</time>
      </trkpt>
      <trkpt lat="4.5788320" lon="-74.2160630">
        <ele>2566.3</ele>
        <time>2018-08-10T18:03:03Z</time>
      </trkpt>
      <trkpt lat="4.5788070" lon="-74.2160970">
        <ele>2566.0</ele>
        <time>2018-08-10T18:03:06Z</time>
      </trkpt>
      <trkpt lat="4.5787820" lon="-74.2161220">
        <ele>2566.0</ele>
        <time>2018-08-10T18:03:09Z</time>
      </trkpt>
      <trkpt lat="4.5787630" lon="-74.2161530">
        <ele>2566.0</ele>
        <time>2018-08-10T18:03:11Z</time>
      </trkpt>
      <trkpt lat="4.5787380" lon="-74.2161820">
        <ele>2566.0</ele>
        <time>2018-08-10T18:03:13Z</time>
      </trkpt>
      <trkpt lat="4.5787030" lon="-74.2162120">
        <ele>2566.0</ele>
        <time>2018-08-10T18:03:15Z</time>
      </trkpt>
      <trkpt lat="4.5786670" lon="-74.2162350">
        <ele>2566.0</ele>
        <time>2018-08-10T18:03:17Z</time>
      </trkpt>
      <trkpt lat="4.5786420" lon="-74.2162720">
        <ele>2566.0</ele>
        <time>2018-08-10T18:03:19Z</time>
      </trkpt>
      <trkpt lat="4.5786170" lon="-74.2163120">
        <ele>2566.0</ele>
        <time>2018-08-10T18:03:21Z</time>
      </trkpt>
      <trkpt lat="4.5785900" lon="-74.2163480">
        <ele>2566.0</ele>
        <time>2018-08-10T18:03:23Z</time>
      </trkpt>
      <trkpt lat="4.5785680" lon="-74.2163730">
        <ele>2566.0</ele>
        <time>2018-08-10T18:03:25Z</time>
      </trkpt>
      <trkpt lat="4.5785420" lon="-74.2164020">
        <ele>2566.0</ele>
        <time>2018-08-10T18:03:27Z</time>
      </trkpt>
      <trkpt lat="4.5785170" lon="-74.2164250">
        <ele>2565.9</ele>
        <time>2018-08-10T18:03:29Z</time>
      </trkpt>
      <trkpt lat="4.5784720" lon="-74.2164480">
        <ele>2565.9</ele>
        <time>2018-08-10T18:03:31Z</time>
      </trkpt>
      <trkpt lat="4.5784420" lon="-74.2164650">
        <ele>2565.8</ele>
        <time>2018-08-10T18:03:33Z</time>
      </trkpt>
      <trkpt lat="4.5784120" lon="-74.2164900">
        <ele>2565.8</ele>
        <time>2018-08-10T18:03:35Z</time>
      </trkpt>
      <trkpt lat="4.5783900" lon="-74.2165130">
        <ele>2565.7</ele>
        <time>2018-08-10T18:03:37Z</time>
      </trkpt>
      <trkpt lat="4.5783800" lon="-74.2165450">
        <ele>2565.7</ele>
        <time>2018-08-10T18:03:39Z</time>
      </trkpt>
      <trkpt lat="4.5783670" lon="-74.2165750">
        <ele>2565.6</ele>
        <time>2018-08-10T18:03:41Z</time>
      </trkpt>
      <trkpt lat="4.5783400" lon="-74.2166120">
        <ele>2565.6</ele>
        <time>2018-08-10T18:03:43Z</time>
      </trkpt>
      <trkpt lat="4.5783130" lon="-74.2166400">
        <ele>2565.7</ele>
        <time>2018-08-10T18:03:45Z</time>
      </trkpt>
      <trkpt lat="4.5783070" lon="-74.2166880">
        <ele>2566.0</ele>
        <time>2018-08-10T18:03:47Z</time>
      </trkpt>
      <trkpt lat="4.5783070" lon="-74.2167250">
        <ele>2566.4</ele>
        <time>2018-08-10T18:03:48Z</time>
      </trkpt>
      <trkpt lat="4.5782970" lon="-74.2167570">
        <ele>2566.6</ele>
        <time>2018-08-10T18:03:49Z</time>
      </trkpt>
      <trkpt lat="4.5782830" lon="-74.2167830">
        <ele>2566.8</ele>
        <time>2018-08-10T18:03:50Z</time>
      </trkpt>
      <trkpt lat="4.5782550" lon="-74.2168170">
        <ele>2567.0</ele>
        <time>2018-08-10T18:03:52Z</time>
      </trkpt>
      <trkpt lat="4.5782200" lon="-74.2168450">
        <ele>2567.0</ele>
        <time>2018-08-10T18:03:54Z</time>
      </trkpt>
      <trkpt lat="4.5781900" lon="-74.2168780">
        <ele>2567.0</ele>
        <time>2018-08-10T18:03:56Z</time>
      </trkpt>
      <trkpt lat="4.5781470" lon="-74.2169230">
        <ele>2567.1</ele>
        <time>2018-08-10T18:03:58Z</time>
      </trkpt>
      <trkpt lat="4.5781200" lon="-74.2169450">
        <ele>2567.1</ele>
        <time>2018-08-10T18:03:59Z</time>
      </trkpt>
      <trkpt lat="4.5781000" lon="-74.2169680">
        <ele>2567.0</ele>
        <time>2018-08-10T18:04:00Z</time>
      </trkpt>
      <trkpt lat="4.5780730" lon="-74.2169970">
        <ele>2566.8</ele>
        <time>2018-08-10T18:04:01Z</time>
      </trkpt>
      <trkpt lat="4.5780370" lon="-74.2170270">
        <ele>2566.7</ele>
        <time>2018-08-10T18:04:02Z</time>
      </trkpt>
      <trkpt lat="4.5779970" lon="-74.2170500">
        <ele>2566.7</ele>
        <time>2018-08-10T18:04:03Z</time>
      </trkpt>
      <trkpt lat="4.5779670" lon="-74.2170800">
        <ele>2566.8</ele>
        <time>2018-08-10T18:04:04Z</time>
      </trkpt>
      <trkpt lat="4.5779400" lon="-74.2171080">
        <ele>2566.9</ele>
        <time>2018-08-10T18:04:05Z</time>
      </trkpt>
      <trkpt lat="4.5779100" lon="-74.2171350">
        <ele>2567.1</ele>
        <time>2018-08-10T18:04:06Z</time>
      </trkpt>
      <trkpt lat="4.5778730" lon="-74.2171650">
        <ele>2567.0</ele>
        <time>2018-08-10T18:04:07Z</time>
      </trkpt>
      <trkpt lat="4.5778480" lon="-74.2171970">
        <ele>2567.0</ele>
        <time>2018-08-10T18:04:08Z</time>
      </trkpt>
      <trkpt lat="4.5778230" lon="-74.2172270">
        <ele>2567.0</ele>
        <time>2018-08-10T18:04:09Z</time>
      </trkpt>
      <trkpt lat="4.5778000" lon="-74.2172570">
        <ele>2567.0</ele>
        <time>2018-08-10T18:04:10Z</time>
      </trkpt>
      <trkpt lat="4.5777830" lon="-74.2172830">
        <ele>2567.0</ele>
        <time>2018-08-10T18:04:11Z</time>
      </trkpt>
      <trkpt lat="4.5777580" lon="-74.2173300">
        <ele>2567.0</ele>
        <time>2018-08-10T18:04:13Z</time>
      </trkpt>
      <trkpt lat="4.5777450" lon="-74.2173620">
        <ele>2567.0</ele>
        <time>2018-08-10T18:04:14Z</time>
      </trkpt>
      <trkpt lat="4.5777180" lon="-74.2173930">
        <ele>2567.0</ele>
        <time>2018-08-10T18:04:15Z</time>
      </trkpt>
      <trkpt lat="4.5776850" lon="-74.2174250">
        <ele>2567.0</ele>
        <time>2018-08-10T18:04:16Z</time>
      </trkpt>
      <trkpt lat="4.5776580" lon="-74.2174570">
        <ele>2567.0</ele>
        <time>2018-08-10T18:04:17Z</time>
      </trkpt>
      <trkpt lat="4.5776280" lon="-74.2175070">
        <ele>2567.3</ele>
        <time>2018-08-10T18:04:18Z</time>
      </trkpt>
      <trkpt lat="4.5776100" lon="-74.2175380">
        <ele>2567.4</ele>
        <time>2018-08-10T18:04:19Z</time>
      </trkpt>
      <trkpt lat="4.5775880" lon="-74.2175680">
        <ele>2567.6</ele>
        <time>2018-08-10T18:04:20Z</time>
      </trkpt>
      <trkpt lat="4.5775720" lon="-74.2175970">
        <ele>2567.8</ele>
        <time>2018-08-10T18:04:21Z</time>
      </trkpt>
      <trkpt lat="4.5775430" lon="-74.2176250">
        <ele>2568.0</ele>
        <time>2018-08-10T18:04:22Z</time>
      </trkpt>
      <trkpt lat="4.5775170" lon="-74.2176550">
        <ele>2568.0</ele>
        <time>2018-08-10T18:04:23Z</time>
      </trkpt>
      <trkpt lat="4.5774900" lon="-74.2176830">
        <ele>2568.0</ele>
        <time>2018-08-10T18:04:24Z</time>
      </trkpt>
      <trkpt lat="4.5774670" lon="-74.2177180">
        <ele>2567.7</ele>
        <time>2018-08-10T18:04:25Z</time>
      </trkpt>
      <trkpt lat="4.5774420" lon="-74.2177520">
        <ele>2567.4</ele>
        <time>2018-08-10T18:04:26Z</time>
      </trkpt>
      <trkpt lat="4.5774050" lon="-74.2177970">
        <ele>2567.2</ele>
        <time>2018-08-10T18:04:27Z</time>
      </trkpt>
      <trkpt lat="4.5773780" lon="-74.2178350">
        <ele>2567.2</ele>
        <time>2018-08-10T18:04:28Z</time>
      </trkpt>
      <trkpt lat="4.5773520" lon="-74.2178730">
        <ele>2567.1</ele>
        <time>2018-08-10T18:04:29Z</time>
      </trkpt>
      <trkpt lat="4.5773250" lon="-74.2179030">
        <ele>2567.0</ele>
        <time>2018-08-10T18:04:30Z</time>
      </trkpt>
      <trkpt lat="4.5773020" lon="-74.2179320">
        <ele>2566.8</ele>
        <time>2018-08-10T18:04:31Z</time>
      </trkpt>
      <trkpt lat="4.5772850" lon="-74.2179620">
        <ele>2566.6</ele>
        <time>2018-08-10T18:04:32Z</time>
      </trkpt>
      <trkpt lat="4.5772650" lon="-74.2179950">
        <ele>2566.4</ele>
        <time>2018-08-10T18:04:33Z</time>
      </trkpt>
      <trkpt lat="4.5772420" lon="-74.2180320">
        <ele>2566.3</ele>
        <time>2018-08-10T18:04:34Z</time>
      </trkpt>
      <trkpt lat="4.5772220" lon="-74.2180650">
        <ele>2566.1</ele>
        <time>2018-08-10T18:04:35Z</time>
      </trkpt>
      <trkpt lat="4.5772030" lon="-74.2180950">
        <ele>2566.0</ele>
        <time>2018-08-10T18:04:36Z</time>
      </trkpt>
      <trkpt lat="4.5771850" lon="-74.2181220">
        <ele>2566.0</ele>
        <time>2018-08-10T18:04:37Z</time>
      </trkpt>
      <trkpt lat="4.5771650" lon="-74.2181500">
        <ele>2566.0</ele>
        <time>2018-08-10T18:04:38Z</time>
      </trkpt>
      <trkpt lat="4.5771520" lon="-74.2181820">
        <ele>2566.0</ele>
        <time>2018-08-10T18:04:39Z</time>
      </trkpt>
      <trkpt lat="4.5771300" lon="-74.2182100">
        <ele>2566.1</ele>
        <time>2018-08-10T18:04:40Z</time>
      </trkpt>
      <trkpt lat="4.5771130" lon="-74.2182330">
        <ele>2566.2</ele>
        <time>2018-08-10T18:04:41Z</time>
      </trkpt>
      <trkpt lat="4.5770570" lon="-74.2182600">
        <ele>2566.1</ele>
        <time>2018-08-10T18:04:42Z</time>
      </trkpt>
      <trkpt lat="4.5770300" lon="-74.2182870">
        <ele>2565.9</ele>
        <time>2018-08-10T18:04:43Z</time>
      </trkpt>
      <trkpt lat="4.5770050" lon="-74.2183180">
        <ele>2565.5</ele>
        <time>2018-08-10T18:04:44Z</time>
      </trkpt>
      <trkpt lat="4.5769830" lon="-74.2183500">
        <ele>2565.1</ele>
        <time>2018-08-10T18:04:45Z</time>
      </trkpt>
      <trkpt lat="4.5769450" lon="-74.2183750">
        <ele>2564.8</ele>
        <time>2018-08-10T18:04:46Z</time>
      </trkpt>
      <trkpt lat="4.5769170" lon="-74.2183720">
        <ele>2564.7</ele>
        <time>2018-08-10T18:04:47Z</time>
      </trkpt>
      <trkpt lat="4.5768850" lon="-74.2183620">
        <ele>2564.9</ele>
        <time>2018-08-10T18:04:48Z</time>
      </trkpt>
      <trkpt lat="4.5768480" lon="-74.2183530">
        <ele>2564.8</ele>
        <time>2018-08-10T18:04:49Z</time>
      </trkpt>
      <trkpt lat="4.5768080" lon="-74.2183420">
        <ele>2564.8</ele>
        <time>2018-08-10T18:04:50Z</time>
      </trkpt>
      <trkpt lat="4.5767700" lon="-74.2183250">
        <ele>2564.8</ele>
        <time>2018-08-10T18:04:51Z</time>
      </trkpt>
      <trkpt lat="4.5767220" lon="-74.2183120">
        <ele>2564.7</ele>
        <time>2018-08-10T18:04:52Z</time>
      </trkpt>
      <trkpt lat="4.5766700" lon="-74.2183030">
        <ele>2564.8</ele>
        <time>2018-08-10T18:04:53Z</time>
      </trkpt>
      <trkpt lat="4.5766180" lon="-74.2182920">
        <ele>2564.9</ele>
        <time>2018-08-10T18:04:54Z</time>
      </trkpt>
      <trkpt lat="4.5765700" lon="-74.2182820">
        <ele>2564.9</ele>
        <time>2018-08-10T18:04:55Z</time>
      </trkpt>
      <trkpt lat="4.5765220" lon="-74.2182750">
        <ele>2563.2</ele>
        <time>2018-08-10T18:04:56Z</time>
      </trkpt>
      <trkpt lat="4.5764830" lon="-74.2182680">
        <ele>2563.0</ele>
        <time>2018-08-10T18:04:57Z</time>
      </trkpt>
      <trkpt lat="4.5764470" lon="-74.2182670">
        <ele>2562.7</ele>
        <time>2018-08-10T18:04:58Z</time>
      </trkpt>
      <trkpt lat="4.5764200" lon="-74.2182730">
        <ele>2562.6</ele>
        <time>2018-08-10T18:04:59Z</time>
      </trkpt>
      <trkpt lat="4.5763980" lon="-74.2182900">
        <ele>2562.7</ele>
        <time>2018-08-10T18:05:00Z</time>
      </trkpt>
      <trkpt lat="4.5763620" lon="-74.2183230">
        <ele>2562.7</ele>
        <time>2018-08-10T18:05:02Z</time>
      </trkpt>
      <trkpt lat="4.5763270" lon="-74.2183620">
        <ele>2562.9</ele>
        <time>2018-08-10T18:05:04Z</time>
      </trkpt>
      <trkpt lat="4.5762950" lon="-74.2183820">
        <ele>2563.0</ele>
        <time>2018-08-10T18:05:05Z</time>
      </trkpt>
      <trkpt lat="4.5762570" lon="-74.2184020">
        <ele>2562.2</ele>
        <time>2018-08-10T18:05:06Z</time>
      </trkpt>
      <trkpt lat="4.5762270" lon="-74.2184280">
        <ele>2561.6</ele>
        <time>2018-08-10T18:05:07Z</time>
      </trkpt>
      <trkpt lat="4.5761980" lon="-74.2184550">
        <ele>2561.0</ele>
        <time>2018-08-10T18:05:08Z</time>
      </trkpt>
      <trkpt lat="4.5761720" lon="-74.2184850">
        <ele>2560.3</ele>
        <time>2018-08-10T18:05:09Z</time>
      </trkpt>
      <trkpt lat="4.5761500" lon="-74.2185150">
        <ele>2559.8</ele>
        <time>2018-08-10T18:05:10Z</time>
      </trkpt>
      <trkpt lat="4.5761280" lon="-74.2185430">
        <ele>2559.2</ele>
        <time>2018-08-10T18:05:11Z</time>
      </trkpt>
      <trkpt lat="4.5761030" lon="-74.2185720">
        <ele>2558.6</ele>
        <time>2018-08-10T18:05:12Z</time>
      </trkpt>
      <trkpt lat="4.5760750" lon="-74.2186020">
        <ele>2558.0</ele>
        <time>2018-08-10T18:05:13Z</time>
      </trkpt>
      <trkpt lat="4.5760470" lon="-74.2186300">
        <ele>2558.0</ele>
        <time>2018-08-10T18:05:14Z</time>
      </trkpt>
      <trkpt lat="4.5760180" lon="-74.2186570">
        <ele>2558.0</ele>
        <time>2018-08-10T18:05:15Z</time>
      </trkpt>
      <trkpt lat="4.5759880" lon="-74.2186850">
        <ele>2558.0</ele>
        <time>2018-08-10T18:05:16Z</time>
      </trkpt>
      <trkpt lat="4.5759600" lon="-74.2187080">
        <ele>2558.0</ele>
        <time>2018-08-10T18:05:17Z</time>
      </trkpt>
      <trkpt lat="4.5759400" lon="-74.2187380">
        <ele>2558.0</ele>
        <time>2018-08-10T18:05:18Z</time>
      </trkpt>
      <trkpt lat="4.5759200" lon="-74.2187580">
        <ele>2558.0</ele>
        <time>2018-08-10T18:05:19Z</time>
      </trkpt>
      <trkpt lat="4.5758920" lon="-74.2187750">
        <ele>2558.0</ele>
        <time>2018-08-10T18:05:20Z</time>
      </trkpt>
      <trkpt lat="4.5758620" lon="-74.2187850">
        <ele>2558.0</ele>
        <time>2018-08-10T18:05:21Z</time>
      </trkpt>
      <trkpt lat="4.5758300" lon="-74.2187850">
        <ele>2558.0</ele>
        <time>2018-08-10T18:05:22Z</time>
      </trkpt>
      <trkpt lat="4.5758000" lon="-74.2187780">
        <ele>2558.0</ele>
        <time>2018-08-10T18:05:24Z</time>
      </trkpt>
      <trkpt lat="4.5757570" lon="-74.2187600">
        <ele>2557.6</ele>
        <time>2018-08-10T18:05:26Z</time>
      </trkpt>
      <trkpt lat="4.5757170" lon="-74.2187430">
        <ele>2557.4</ele>
        <time>2018-08-10T18:05:28Z</time>
      </trkpt>
      <trkpt lat="4.5756850" lon="-74.2187370">
        <ele>2557.4</ele>
        <time>2018-08-10T18:05:29Z</time>
      </trkpt>
      <trkpt lat="4.5756570" lon="-74.2187250">
        <ele>2557.3</ele>
        <time>2018-08-10T18:05:30Z</time>
      </trkpt>
      <trkpt lat="4.5756250" lon="-74.2187150">
        <ele>2557.3</ele>
        <time>2018-08-10T18:05:31Z</time>
      </trkpt>
      <trkpt lat="4.5755950" lon="-74.2187030">
        <ele>2557.3</ele>
        <time>2018-08-10T18:05:32Z</time>
      </trkpt>
      <trkpt lat="4.5755680" lon="-74.2186920">
        <ele>2557.3</ele>
        <time>2018-08-10T18:05:33Z</time>
      </trkpt>
      <trkpt lat="4.5755380" lon="-74.2186820">
        <ele>2557.3</ele>
        <time>2018-08-10T18:05:34Z</time>
      </trkpt>
      <trkpt lat="4.5755120" lon="-74.2186700">
        <ele>2557.4</ele>
        <time>2018-08-10T18:05:35Z</time>
      </trkpt>
      <trkpt lat="4.5754720" lon="-74.2186570">
        <ele>2557.5</ele>
        <time>2018-08-10T18:05:37Z</time>
      </trkpt>
      <trkpt lat="4.5754380" lon="-74.2186320">
        <ele>2557.5</ele>
        <time>2018-08-10T18:05:39Z</time>
      </trkpt>
      <trkpt lat="4.5754000" lon="-74.2186120">
        <ele>2557.6</ele>
        <time>2018-08-10T18:05:41Z</time>
      </trkpt>
      <trkpt lat="4.5753630" lon="-74.2186070">
        <ele>2557.7</ele>
        <time>2018-08-10T18:05:43Z</time>
      </trkpt>
      <trkpt lat="4.5753270" lon="-74.2186020">
        <ele>2557.9</ele>
        <time>2018-08-10T18:05:45Z</time>
      </trkpt>
      <trkpt lat="4.5753130" lon="-74.2185720">
        <ele>2558.0</ele>
        <time>2018-08-10T18:05:47Z</time>
      </trkpt>
      <trkpt lat="4.5752820" lon="-74.2185370">
        <ele>2558.0</ele>
        <time>2018-08-10T18:05:49Z</time>
      </trkpt>
      <trkpt lat="4.5752580" lon="-74.2185180">
        <ele>2558.0</ele>
        <time>2018-08-10T18:05:50Z</time>
      </trkpt>
      <trkpt lat="4.5752180" lon="-74.2184930">
        <ele>2558.0</ele>
        <time>2018-08-10T18:05:52Z</time>
      </trkpt>
      <trkpt lat="4.5751850" lon="-74.2184650">
        <ele>2558.0</ele>
        <time>2018-08-10T18:05:54Z</time>
      </trkpt>
      <trkpt lat="4.5751430" lon="-74.2184520">
        <ele>2558.0</ele>
        <time>2018-08-10T18:05:56Z</time>
      </trkpt>
      <trkpt lat="4.5751170" lon="-74.2184420">
        <ele>2558.0</ele>
        <time>2018-08-10T18:05:58Z</time>
      </trkpt>
      <trkpt lat="4.5750870" lon="-74.2184280">
        <ele>2558.0</ele>
        <time>2018-08-10T18:06:00Z</time>
      </trkpt>
      <trkpt lat="4.5750570" lon="-74.2184180">
        <ele>2558.0</ele>
        <time>2018-08-10T18:06:02Z</time>
      </trkpt>
    </trkseg>
  </trk>
</gpx>
